<?xml version='1.0' encoding='UTF-8'?><gpx version="1.1" creator="JPX - https://github.com/jenetics/jpx" xmlns="http://www.topografix.com/GPX/1/1"><trk><trkseg><trkpt lat="44.8826049" lon="7.3282972"><ele>375.0</ele><time>2026-04-05T09:15:11.971Z</time></trkpt><trkpt lat="44.8825942" lon="7.3282009"><ele>375.0</ele><time>2026-04-05T09:15:55.971Z</time></trkpt><trkpt lat="44.882684" lon="7.328196"><ele>375.0</ele><time>2026-04-05T09:15:57.971Z</time></trkpt><trkpt lat="44.88275" lon="7.3281985"><ele>375.0</ele><time>2026-04-05T09:15:59.971Z</time></trkpt><trkpt lat="44.882828" lon="7.3282134"><ele>375.0</ele><time>2026-04-05T09:16:01.971Z</time></trkpt><trkpt lat="44.8829154" lon="7.3282182"><ele>375.0</ele><time>2026-04-05T09:16:03.971Z</time></trkpt><trkpt lat="44.8830008" lon="7.3282109"><ele>375.0</ele><time>2026-04-05T09:16:05.971Z</time></trkpt><trkpt lat="44.8830677" lon="7.3281801"><ele>375.0</ele><time>2026-04-05T09:16:07.971Z</time></trkpt><trkpt lat="44.8830982" lon="7.3280456"><ele>375.0</ele><time>2026-04-05T09:16:09.971Z</time></trkpt><trkpt lat="44.8831085" lon="7.3279314"><ele>375.0</ele><time>2026-04-05T09:16:10.971Z</time></trkpt><trkpt lat="44.8831181" lon="7.3278105"><ele>375.0</ele><time>2026-04-05T09:16:11.971Z</time></trkpt><trkpt lat="44.8831331" lon="7.3276779"><ele>375.0</ele><time>2026-04-05T09:16:12.971Z</time></trkpt><trkpt lat="44.8831444" lon="7.3275413"><ele>375.4</ele><time>2026-04-05T09:16:13.971Z</time></trkpt><trkpt lat="44.8831533" lon="7.3273989"><ele>375.8</ele><time>2026-04-05T09:16:14.971Z</time></trkpt><trkpt lat="44.8831657" lon="7.3272569"><ele>376.20000000000005</ele><time>2026-04-05T09:16:15.971Z</time></trkpt><trkpt lat="44.8831791" lon="7.3271156"><ele>376.6</ele><time>2026-04-05T09:16:16.971Z</time></trkpt><trkpt lat="44.8831914" lon="7.3269927"><ele>377.0</ele><time>2026-04-05T09:16:17.971Z</time></trkpt><trkpt lat="44.8831957" lon="7.3268832"><ele>377.1666666666667</ele><time>2026-04-05T09:16:18.971Z</time></trkpt><trkpt lat="44.8832122" lon="7.3267646"><ele>377.33333333333337</ele><time>2026-04-05T09:16:19.971Z</time></trkpt><trkpt lat="44.883219" lon="7.3266506"><ele>377.5</ele><time>2026-04-05T09:16:20.971Z</time></trkpt><trkpt lat="44.8832353" lon="7.3265351"><ele>377.6666666666667</ele><time>2026-04-05T09:16:21.971Z</time></trkpt><trkpt lat="44.8832484" lon="7.326427"><ele>377.8333333333333</ele><time>2026-04-05T09:16:22.971Z</time></trkpt><trkpt lat="44.8832611" lon="7.326313"><ele>378.0</ele><time>2026-04-05T09:16:23.971Z</time></trkpt><trkpt lat="44.883273" lon="7.3262055"><ele>378.0</ele><time>2026-04-05T09:16:24.971Z</time></trkpt><trkpt lat="44.8832825" lon="7.3261043"><ele>378.0</ele><time>2026-04-05T09:16:25.971Z</time></trkpt><trkpt lat="44.8832908" lon="7.326006"><ele>378.0</ele><time>2026-04-05T09:16:26.971Z</time></trkpt><trkpt lat="44.883301" lon="7.3259133"><ele>378.0</ele><time>2026-04-05T09:16:27.971Z</time></trkpt><trkpt lat="44.8833535" lon="7.3257753"><ele>378.0</ele><time>2026-04-05T09:16:29.971Z</time></trkpt><trkpt lat="44.8834537" lon="7.3257273"><ele>378.0</ele><time>2026-04-05T09:16:31.971Z</time></trkpt><trkpt lat="44.8835197" lon="7.3257421"><ele>378.25</ele><time>2026-04-05T09:16:32.971Z</time></trkpt><trkpt lat="44.8836186" lon="7.3257757"><ele>378.5</ele><time>2026-04-05T09:16:33.971Z</time></trkpt><trkpt lat="44.8837333" lon="7.3258162"><ele>378.75</ele><time>2026-04-05T09:16:34.971Z</time></trkpt><trkpt lat="44.8838535" lon="7.3258494"><ele>379.0</ele><time>2026-04-05T09:16:35.971Z</time></trkpt><trkpt lat="44.8839692" lon="7.3258838"><ele>379.0</ele><time>2026-04-05T09:16:36.971Z</time></trkpt><trkpt lat="44.8840678" lon="7.3259157"><ele>379.0</ele><time>2026-04-05T09:16:37.971Z</time></trkpt><trkpt lat="44.8841635" lon="7.3259441"><ele>379.0</ele><time>2026-04-05T09:16:38.971Z</time></trkpt><trkpt lat="44.8842497" lon="7.3259726"><ele>379.0</ele><time>2026-04-05T09:16:39.971Z</time></trkpt><trkpt lat="44.8843371" lon="7.3259999"><ele>379.0</ele><time>2026-04-05T09:16:40.971Z</time></trkpt><trkpt lat="44.8844276" lon="7.3260232"><ele>379.6</ele><time>2026-04-05T09:16:41.971Z</time></trkpt><trkpt lat="44.8845131" lon="7.3260499"><ele>380.2</ele><time>2026-04-05T09:16:42.971Z</time></trkpt><trkpt lat="44.8845901" lon="7.3260661"><ele>380.8</ele><time>2026-04-05T09:16:43.971Z</time></trkpt><trkpt lat="44.8847061" lon="7.3260984"><ele>381.40000000000003</ele><time>2026-04-05T09:16:45.971Z</time></trkpt><trkpt lat="44.8848064" lon="7.326117"><ele>382.0</ele><time>2026-04-05T09:16:47.971Z</time></trkpt><trkpt lat="44.8848881" lon="7.3261343"><ele>382.0</ele><time>2026-04-05T09:16:49.971Z</time></trkpt><trkpt lat="44.8849592" lon="7.3261383"><ele>382.0</ele><time>2026-04-05T09:16:58.971Z</time></trkpt><trkpt lat="44.8850787" lon="7.3261337"><ele>382.0</ele><time>2026-04-05T09:17:01.971Z</time></trkpt><trkpt lat="44.885158" lon="7.3260344"><ele>382.0</ele><time>2026-04-05T09:17:03.971Z</time></trkpt><trkpt lat="44.8851871" lon="7.3259422"><ele>382.0</ele><time>2026-04-05T09:17:04.971Z</time></trkpt><trkpt lat="44.885207" lon="7.3258269"><ele>383.25</ele><time>2026-04-05T09:17:05.971Z</time></trkpt><trkpt lat="44.8852235" lon="7.3256843"><ele>384.5</ele><time>2026-04-05T09:17:06.971Z</time></trkpt><trkpt lat="44.8852432" lon="7.3255311"><ele>385.75</ele><time>2026-04-05T09:17:07.971Z</time></trkpt><trkpt lat="44.8852609" lon="7.325383"><ele>387.0</ele><time>2026-04-05T09:17:08.971Z</time></trkpt><trkpt lat="44.8852865" lon="7.3251988"><ele>387.0</ele><time>2026-04-05T09:17:09.971Z</time></trkpt><trkpt lat="44.8853177" lon="7.3249913"><ele>387.0</ele><time>2026-04-05T09:17:10.971Z</time></trkpt><trkpt lat="44.8853424" lon="7.32479"><ele>387.0</ele><time>2026-04-05T09:17:11.971Z</time></trkpt><trkpt lat="44.8853655" lon="7.3246056"><ele>387.0</ele><time>2026-04-05T09:17:12.971Z</time></trkpt><trkpt lat="44.885387" lon="7.3244198"><ele>387.25</ele><time>2026-04-05T09:17:13.971Z</time></trkpt><trkpt lat="44.8854051" lon="7.3242356"><ele>387.5</ele><time>2026-04-05T09:17:14.971Z</time></trkpt><trkpt lat="44.8854177" lon="7.3240575"><ele>387.75</ele><time>2026-04-05T09:17:15.971Z</time></trkpt><trkpt lat="44.8854288" lon="7.3238818"><ele>388.0</ele><time>2026-04-05T09:17:16.971Z</time></trkpt><trkpt lat="44.8854381" lon="7.3237101"><ele>387.5</ele><time>2026-04-05T09:17:17.971Z</time></trkpt><trkpt lat="44.8854475" lon="7.3235402"><ele>387.0</ele><time>2026-04-05T09:17:18.971Z</time></trkpt><trkpt lat="44.8854502" lon="7.3233655"><ele>386.5</ele><time>2026-04-05T09:17:19.971Z</time></trkpt><trkpt lat="44.885454" lon="7.3231968"><ele>386.0</ele><time>2026-04-05T09:17:20.971Z</time></trkpt><trkpt lat="44.8854597" lon="7.3230299"><ele>386.0</ele><time>2026-04-05T09:17:21.971Z</time></trkpt><trkpt lat="44.8854631" lon="7.3228589"><ele>386.0</ele><time>2026-04-05T09:17:22.971Z</time></trkpt><trkpt lat="44.8854684" lon="7.3227016"><ele>386.0</ele><time>2026-04-05T09:17:23.971Z</time></trkpt><trkpt lat="44.8854745" lon="7.322553"><ele>386.0</ele><time>2026-04-05T09:17:24.971Z</time></trkpt><trkpt lat="44.8854764" lon="7.3224152"><ele>386.0</ele><time>2026-04-05T09:17:25.971Z</time></trkpt><trkpt lat="44.8854796" lon="7.3222924"><ele>385.8</ele><time>2026-04-05T09:17:26.971Z</time></trkpt><trkpt lat="44.8854839" lon="7.3221679"><ele>385.6</ele><time>2026-04-05T09:17:27.971Z</time></trkpt><trkpt lat="44.8854868" lon="7.3220365"><ele>385.4</ele><time>2026-04-05T09:17:28.971Z</time></trkpt><trkpt lat="44.885489" lon="7.3218949"><ele>385.2</ele><time>2026-04-05T09:17:29.971Z</time></trkpt><trkpt lat="44.8854887" lon="7.3217527"><ele>385.0</ele><time>2026-04-05T09:17:30.971Z</time></trkpt><trkpt lat="44.8854933" lon="7.3216027"><ele>385.0</ele><time>2026-04-05T09:17:31.971Z</time></trkpt><trkpt lat="44.8854977" lon="7.3214486"><ele>385.0</ele><time>2026-04-05T09:17:32.971Z</time></trkpt><trkpt lat="44.8855028" lon="7.3213009"><ele>385.0</ele><time>2026-04-05T09:17:33.971Z</time></trkpt><trkpt lat="44.885508" lon="7.3211521"><ele>385.0</ele><time>2026-04-05T09:17:34.971Z</time></trkpt><trkpt lat="44.885514" lon="7.3209978"><ele>385.0</ele><time>2026-04-05T09:17:35.971Z</time></trkpt><trkpt lat="44.8855212" lon="7.3208284"><ele>385.25</ele><time>2026-04-05T09:17:36.971Z</time></trkpt><trkpt lat="44.8855256" lon="7.3206517"><ele>385.5</ele><time>2026-04-05T09:17:37.971Z</time></trkpt><trkpt lat="44.8855331" lon="7.3204723"><ele>385.75</ele><time>2026-04-05T09:17:38.971Z</time></trkpt><trkpt lat="44.8855402" lon="7.3203013"><ele>386.0</ele><time>2026-04-05T09:17:39.971Z</time></trkpt><trkpt lat="44.8855435" lon="7.3201429"><ele>386.4</ele><time>2026-04-05T09:17:40.971Z</time></trkpt><trkpt lat="44.88555" lon="7.3199875"><ele>386.8</ele><time>2026-04-05T09:17:41.971Z</time></trkpt><trkpt lat="44.885557" lon="7.3198442"><ele>387.2</ele><time>2026-04-05T09:17:42.971Z</time></trkpt><trkpt lat="44.885562" lon="7.3197084"><ele>387.59999999999997</ele><time>2026-04-05T09:17:43.971Z</time></trkpt><trkpt lat="44.8855636" lon="7.3195865"><ele>388.0</ele><time>2026-04-05T09:17:44.971Z</time></trkpt><trkpt lat="44.8855638" lon="7.3194771"><ele>388.0</ele><time>2026-04-05T09:17:45.971Z</time></trkpt><trkpt lat="44.8855732" lon="7.3193166"><ele>388.0</ele><time>2026-04-05T09:17:47.971Z</time></trkpt><trkpt lat="44.8855758" lon="7.3192162"><ele>388.0</ele><time>2026-04-05T09:17:49.971Z</time></trkpt><trkpt lat="44.8855846" lon="7.3191252"><ele>388.0</ele><time>2026-04-05T09:17:58.971Z</time></trkpt><trkpt lat="44.8855853" lon="7.318976"><ele>388.0</ele><time>2026-04-05T09:18:01.971Z</time></trkpt><trkpt lat="44.8855873" lon="7.3187947"><ele>387.57142857142856</ele><time>2026-04-05T09:18:03.971Z</time></trkpt><trkpt lat="44.885594" lon="7.3187039"><ele>387.14285714285717</ele><time>2026-04-05T09:18:04.971Z</time></trkpt><trkpt lat="44.8855942" lon="7.3186127"><ele>386.7142857142857</ele><time>2026-04-05T09:18:05.971Z</time></trkpt><trkpt lat="44.8855962" lon="7.3185073"><ele>386.2857142857143</ele><time>2026-04-05T09:18:06.971Z</time></trkpt><trkpt lat="44.8856013" lon="7.3183961"><ele>385.8571428571429</ele><time>2026-04-05T09:18:07.971Z</time></trkpt><trkpt lat="44.8856053" lon="7.3182801"><ele>385.42857142857144</ele><time>2026-04-05T09:18:08.971Z</time></trkpt><trkpt lat="44.8856099" lon="7.3181638"><ele>385.0</ele><time>2026-04-05T09:18:09.971Z</time></trkpt><trkpt lat="44.8856144" lon="7.3180332"><ele>385.0</ele><time>2026-04-05T09:18:10.971Z</time></trkpt><trkpt lat="44.8856201" lon="7.3178929"><ele>385.0</ele><time>2026-04-05T09:18:11.971Z</time></trkpt><trkpt lat="44.8856235" lon="7.3177584"><ele>385.0</ele><time>2026-04-05T09:18:12.971Z</time></trkpt><trkpt lat="44.88563" lon="7.3176116"><ele>385.0</ele><time>2026-04-05T09:18:13.971Z</time></trkpt><trkpt lat="44.8856316" lon="7.3174718"><ele>385.0</ele><time>2026-04-05T09:18:14.971Z</time></trkpt><trkpt lat="44.8856339" lon="7.3173372"><ele>385.6</ele><time>2026-04-05T09:18:15.971Z</time></trkpt><trkpt lat="44.8856397" lon="7.3171945"><ele>386.2</ele><time>2026-04-05T09:18:16.971Z</time></trkpt><trkpt lat="44.8856431" lon="7.3170575"><ele>386.79999999999995</ele><time>2026-04-05T09:18:17.971Z</time></trkpt><trkpt lat="44.8856452" lon="7.3169195"><ele>387.4</ele><time>2026-04-05T09:18:18.971Z</time></trkpt><trkpt lat="44.885648" lon="7.3167746"><ele>388.0</ele><time>2026-04-05T09:18:19.972Z</time></trkpt><trkpt lat="44.88565" lon="7.3166287"><ele>388.0</ele><time>2026-04-05T09:18:20.971Z</time></trkpt><trkpt lat="44.8856518" lon="7.3164759"><ele>388.0</ele><time>2026-04-05T09:18:21.971Z</time></trkpt><trkpt lat="44.8856537" lon="7.3163243"><ele>388.0</ele><time>2026-04-05T09:18:22.971Z</time></trkpt><trkpt lat="44.8856554" lon="7.3161731"><ele>388.0</ele><time>2026-04-05T09:18:23.971Z</time></trkpt><trkpt lat="44.8856546" lon="7.3160214"><ele>388.0</ele><time>2026-04-05T09:18:24.971Z</time></trkpt><trkpt lat="44.8856585" lon="7.315875"><ele>388.0</ele><time>2026-04-05T09:18:25.971Z</time></trkpt><trkpt lat="44.8856622" lon="7.3157215"><ele>388.0</ele><time>2026-04-05T09:18:26.971Z</time></trkpt><trkpt lat="44.8856698" lon="7.3155765"><ele>388.0</ele><time>2026-04-05T09:18:27.971Z</time></trkpt><trkpt lat="44.8856758" lon="7.3154331"><ele>388.0</ele><time>2026-04-05T09:18:28.971Z</time></trkpt><trkpt lat="44.8856784" lon="7.3152969"><ele>388.0</ele><time>2026-04-05T09:18:29.971Z</time></trkpt><trkpt lat="44.8856808" lon="7.3151656"><ele>388.0</ele><time>2026-04-05T09:18:30.971Z</time></trkpt><trkpt lat="44.8856838" lon="7.3150324"><ele>388.0</ele><time>2026-04-05T09:18:31.971Z</time></trkpt><trkpt lat="44.8856832" lon="7.3149032"><ele>388.0</ele><time>2026-04-05T09:18:32.971Z</time></trkpt><trkpt lat="44.8856843" lon="7.3147715"><ele>388.0</ele><time>2026-04-05T09:18:33.971Z</time></trkpt><trkpt lat="44.8856841" lon="7.3146364"><ele>388.0</ele><time>2026-04-05T09:18:34.971Z</time></trkpt><trkpt lat="44.8856838" lon="7.3144988"><ele>388.2</ele><time>2026-04-05T09:18:35.971Z</time></trkpt><trkpt lat="44.8856856" lon="7.3143605"><ele>388.4</ele><time>2026-04-05T09:18:36.971Z</time></trkpt><trkpt lat="44.8856905" lon="7.3142188"><ele>388.59999999999997</ele><time>2026-04-05T09:18:37.971Z</time></trkpt><trkpt lat="44.8856915" lon="7.3140687"><ele>388.79999999999995</ele><time>2026-04-05T09:18:38.971Z</time></trkpt><trkpt lat="44.8856941" lon="7.3139114"><ele>389.0</ele><time>2026-04-05T09:18:39.971Z</time></trkpt><trkpt lat="44.8856947" lon="7.3137541"><ele>389.25</ele><time>2026-04-05T09:18:40.971Z</time></trkpt><trkpt lat="44.8856984" lon="7.313582"><ele>389.5</ele><time>2026-04-05T09:18:41.971Z</time></trkpt><trkpt lat="44.8857027" lon="7.313426"><ele>389.75</ele><time>2026-04-05T09:18:42.971Z</time></trkpt><trkpt lat="44.8857092" lon="7.3132692"><ele>390.0</ele><time>2026-04-05T09:18:43.971Z</time></trkpt><trkpt lat="44.8857177" lon="7.3131157"><ele>390.0</ele><time>2026-04-05T09:18:44.971Z</time></trkpt><trkpt lat="44.8857212" lon="7.3129683"><ele>390.0</ele><time>2026-04-05T09:18:45.971Z</time></trkpt><trkpt lat="44.8857277" lon="7.3128324"><ele>390.0</ele><time>2026-04-05T09:18:46.971Z</time></trkpt><trkpt lat="44.8857331" lon="7.3127073"><ele>390.0</ele><time>2026-04-05T09:18:47.971Z</time></trkpt><trkpt lat="44.8857413" lon="7.3125777"><ele>390.0</ele><time>2026-04-05T09:18:48.971Z</time></trkpt><trkpt lat="44.8857481" lon="7.3124648"><ele>390.0</ele><time>2026-04-05T09:18:49.971Z</time></trkpt><trkpt lat="44.8857548" lon="7.3123611"><ele>390.0</ele><time>2026-04-05T09:18:50.971Z</time></trkpt><trkpt lat="44.8857604" lon="7.3122683"><ele>390.0</ele><time>2026-04-05T09:18:51.971Z</time></trkpt><trkpt lat="44.8857798" lon="7.3121021"><ele>390.0</ele><time>2026-04-05T09:18:53.971Z</time></trkpt><trkpt lat="44.8858094" lon="7.3120233"><ele>390.0</ele><time>2026-04-05T09:18:54.971Z</time></trkpt><trkpt lat="44.8858341" lon="7.3118638"><ele>390.0</ele><time>2026-04-05T09:18:56.971Z</time></trkpt><trkpt lat="44.8857791" lon="7.3117478"><ele>390.4</ele><time>2026-04-05T09:18:58.971Z</time></trkpt><trkpt lat="44.8856651" lon="7.3117196"><ele>390.8</ele><time>2026-04-05T09:19:00.971Z</time></trkpt><trkpt lat="44.8855473" lon="7.311686"><ele>391.20000000000005</ele><time>2026-04-05T09:19:02.971Z</time></trkpt><trkpt lat="44.8854404" lon="7.311584"><ele>391.6</ele><time>2026-04-05T09:19:04.971Z</time></trkpt><trkpt lat="44.8853888" lon="7.3115053"><ele>392.0</ele><time>2026-04-05T09:19:05.971Z</time></trkpt><trkpt lat="44.8853341" lon="7.3114177"><ele>391.99999999999994</ele><time>2026-04-05T09:19:06.971Z</time></trkpt><trkpt lat="44.8852862" lon="7.311327"><ele>392.0</ele><time>2026-04-05T09:19:07.971Z</time></trkpt><trkpt lat="44.8852424" lon="7.3112338"><ele>392.0</ele><time>2026-04-05T09:19:08.971Z</time></trkpt><trkpt lat="44.8851932" lon="7.3111419"><ele>392.0</ele><time>2026-04-05T09:19:09.971Z</time></trkpt><trkpt lat="44.8851412" lon="7.3110468"><ele>391.99999999999994</ele><time>2026-04-05T09:19:10.971Z</time></trkpt><trkpt lat="44.8850879" lon="7.3109375"><ele>392.0</ele><time>2026-04-05T09:19:11.971Z</time></trkpt><trkpt lat="44.8850347" lon="7.3108252"><ele>392.0</ele><time>2026-04-05T09:19:12.971Z</time></trkpt><trkpt lat="44.8849859" lon="7.3107083"><ele>392.0</ele><time>2026-04-05T09:19:13.971Z</time></trkpt><trkpt lat="44.8849324" lon="7.3105877"><ele>392.0</ele><time>2026-04-05T09:19:14.971Z</time></trkpt><trkpt lat="44.8848779" lon="7.3104689"><ele>392.0</ele><time>2026-04-05T09:19:15.971Z</time></trkpt><trkpt lat="44.8848204" lon="7.3103499"><ele>392.0</ele><time>2026-04-05T09:19:16.971Z</time></trkpt><trkpt lat="44.8847688" lon="7.3102277"><ele>392.0</ele><time>2026-04-05T09:19:17.971Z</time></trkpt><trkpt lat="44.8847146" lon="7.3100981"><ele>392.0</ele><time>2026-04-05T09:19:18.971Z</time></trkpt><trkpt lat="44.884662" lon="7.3099696"><ele>392.0</ele><time>2026-04-05T09:19:19.971Z</time></trkpt><trkpt lat="44.8846075" lon="7.309835"><ele>392.0</ele><time>2026-04-05T09:19:20.971Z</time></trkpt><trkpt lat="44.8845564" lon="7.3096955"><ele>392.0</ele><time>2026-04-05T09:19:21.971Z</time></trkpt><trkpt lat="44.8845084" lon="7.3095507"><ele>392.0</ele><time>2026-04-05T09:19:22.971Z</time></trkpt><trkpt lat="44.8844631" lon="7.3093898"><ele>392.0</ele><time>2026-04-05T09:19:23.971Z</time></trkpt><trkpt lat="44.8844211" lon="7.3092149"><ele>392.0</ele><time>2026-04-05T09:19:24.971Z</time></trkpt><trkpt lat="44.8843862" lon="7.3090244"><ele>392.0</ele><time>2026-04-05T09:19:25.971Z</time></trkpt><trkpt lat="44.8843602" lon="7.3088579"><ele>392.40000000000003</ele><time>2026-04-05T09:19:26.971Z</time></trkpt><trkpt lat="44.8843415" lon="7.3087025"><ele>392.8</ele><time>2026-04-05T09:19:27.971Z</time></trkpt><trkpt lat="44.8843311" lon="7.3085521"><ele>393.2</ele><time>2026-04-05T09:19:28.971Z</time></trkpt><trkpt lat="44.8843245" lon="7.3084043"><ele>393.6</ele><time>2026-04-05T09:19:29.971Z</time></trkpt><trkpt lat="44.8843194" lon="7.3082571"><ele>394.0</ele><time>2026-04-05T09:19:30.971Z</time></trkpt><trkpt lat="44.884311" lon="7.3081023"><ele>394.5</ele><time>2026-04-05T09:19:31.971Z</time></trkpt><trkpt lat="44.8843007" lon="7.3079465"><ele>395.0</ele><time>2026-04-05T09:19:32.971Z</time></trkpt><trkpt lat="44.8842937" lon="7.3077863"><ele>395.5</ele><time>2026-04-05T09:19:33.971Z</time></trkpt><trkpt lat="44.884291" lon="7.3076241"><ele>396.0</ele><time>2026-04-05T09:19:34.971Z</time></trkpt><trkpt lat="44.8842861" lon="7.3074623"><ele>396.0</ele><time>2026-04-05T09:19:35.971Z</time></trkpt><trkpt lat="44.8842781" lon="7.3073023"><ele>396.0</ele><time>2026-04-05T09:19:36.971Z</time></trkpt><trkpt lat="44.8842724" lon="7.3071496"><ele>396.0</ele><time>2026-04-05T09:19:37.971Z</time></trkpt><trkpt lat="44.8842661" lon="7.306996"><ele>396.0</ele><time>2026-04-05T09:19:38.971Z</time></trkpt><trkpt lat="44.8842556" lon="7.3068447"><ele>396.0</ele><time>2026-04-05T09:19:39.971Z</time></trkpt><trkpt lat="44.8842415" lon="7.306699"><ele>396.0</ele><time>2026-04-05T09:19:40.971Z</time></trkpt><trkpt lat="44.8842345" lon="7.3065528"><ele>396.0</ele><time>2026-04-05T09:19:41.971Z</time></trkpt><trkpt lat="44.8842308" lon="7.3064139"><ele>396.0</ele><time>2026-04-05T09:19:42.971Z</time></trkpt><trkpt lat="44.8842227" lon="7.3062737"><ele>396.0</ele><time>2026-04-05T09:19:43.971Z</time></trkpt><trkpt lat="44.884218" lon="7.3061322"><ele>396.0</ele><time>2026-04-05T09:19:44.971Z</time></trkpt><trkpt lat="44.884212" lon="7.3059859"><ele>396.0</ele><time>2026-04-05T09:19:45.971Z</time></trkpt><trkpt lat="44.8842107" lon="7.3058392"><ele>396.0</ele><time>2026-04-05T09:19:46.971Z</time></trkpt><trkpt lat="44.8842102" lon="7.3056861"><ele>396.0</ele><time>2026-04-05T09:19:47.971Z</time></trkpt><trkpt lat="44.8842051" lon="7.3055286"><ele>396.0</ele><time>2026-04-05T09:19:48.971Z</time></trkpt><trkpt lat="44.8841976" lon="7.3053696"><ele>396.0</ele><time>2026-04-05T09:19:49.971Z</time></trkpt><trkpt lat="44.8841912" lon="7.3052125"><ele>396.0</ele><time>2026-04-05T09:19:50.971Z</time></trkpt><trkpt lat="44.8841863" lon="7.3050602"><ele>396.0</ele><time>2026-04-05T09:19:51.971Z</time></trkpt><trkpt lat="44.884188" lon="7.3049114"><ele>396.0</ele><time>2026-04-05T09:19:52.971Z</time></trkpt><trkpt lat="44.8841882" lon="7.3047672"><ele>396.0</ele><time>2026-04-05T09:19:53.971Z</time></trkpt><trkpt lat="44.88419" lon="7.3046237"><ele>396.0</ele><time>2026-04-05T09:19:54.971Z</time></trkpt><trkpt lat="44.8841956" lon="7.3044845"><ele>396.0</ele><time>2026-04-05T09:19:55.971Z</time></trkpt><trkpt lat="44.884199" lon="7.3043431"><ele>396.0</ele><time>2026-04-05T09:19:56.971Z</time></trkpt><trkpt lat="44.8842061" lon="7.3041978"><ele>396.0</ele><time>2026-04-05T09:19:57.971Z</time></trkpt><trkpt lat="44.884215" lon="7.3040549"><ele>396.0</ele><time>2026-04-05T09:19:58.971Z</time></trkpt><trkpt lat="44.8842254" lon="7.3039102"><ele>396.0</ele><time>2026-04-05T09:19:59.971Z</time></trkpt><trkpt lat="44.8842373" lon="7.3037641"><ele>396.1666666666667</ele><time>2026-04-05T09:20:00.971Z</time></trkpt><trkpt lat="44.884253" lon="7.3036286"><ele>396.33333333333337</ele><time>2026-04-05T09:20:01.971Z</time></trkpt><trkpt lat="44.8842642" lon="7.3035115"><ele>396.5</ele><time>2026-04-05T09:20:02.971Z</time></trkpt><trkpt lat="44.8842733" lon="7.3034003"><ele>396.6666666666667</ele><time>2026-04-05T09:20:03.971Z</time></trkpt><trkpt lat="44.8842794" lon="7.303299"><ele>396.83333333333337</ele><time>2026-04-05T09:20:04.971Z</time></trkpt><trkpt lat="44.8842838" lon="7.3031516"><ele>397.0</ele><time>2026-04-05T09:20:06.971Z</time></trkpt><trkpt lat="44.8842813" lon="7.3030104"><ele>397.6666666666667</ele><time>2026-04-05T09:20:08.971Z</time></trkpt><trkpt lat="44.8842826" lon="7.3028431"><ele>398.33333333333337</ele><time>2026-04-05T09:20:10.971Z</time></trkpt><trkpt lat="44.8842862" lon="7.3027452"><ele>399.0</ele><time>2026-04-05T09:20:11.971Z</time></trkpt><trkpt lat="44.8842901" lon="7.3026378"><ele>399.66666666666663</ele><time>2026-04-05T09:20:12.971Z</time></trkpt><trkpt lat="44.8843017" lon="7.30252"><ele>400.3333333333333</ele><time>2026-04-05T09:20:13.971Z</time></trkpt><trkpt lat="44.8843208" lon="7.3023981"><ele>401.0</ele><time>2026-04-05T09:20:14.971Z</time></trkpt><trkpt lat="44.8843438" lon="7.3022931"><ele>401.20000000000005</ele><time>2026-04-05T09:20:15.971Z</time></trkpt><trkpt lat="44.8843726" lon="7.3021766"><ele>401.40000000000003</ele><time>2026-04-05T09:20:16.971Z</time></trkpt><trkpt lat="44.8843934" lon="7.3020396"><ele>401.6</ele><time>2026-04-05T09:20:17.971Z</time></trkpt><trkpt lat="44.8844107" lon="7.3018925"><ele>401.8</ele><time>2026-04-05T09:20:18.971Z</time></trkpt><trkpt lat="44.8844284" lon="7.3017411"><ele>402.0</ele><time>2026-04-05T09:20:19.971Z</time></trkpt><trkpt lat="44.8844444" lon="7.3015775"><ele>402.66666666666663</ele><time>2026-04-05T09:20:20.971Z</time></trkpt><trkpt lat="44.8844636" lon="7.3013835"><ele>403.3333333333333</ele><time>2026-04-05T09:20:21.971Z</time></trkpt><trkpt lat="44.8844838" lon="7.3011545"><ele>404.0</ele><time>2026-04-05T09:20:22.971Z</time></trkpt><trkpt lat="44.8845048" lon="7.3009157"><ele>404.0</ele><time>2026-04-05T09:20:23.971Z</time></trkpt><trkpt lat="44.8845233" lon="7.3006766"><ele>404.0</ele><time>2026-04-05T09:20:24.971Z</time></trkpt><trkpt lat="44.8845435" lon="7.3004188"><ele>404.0</ele><time>2026-04-05T09:20:25.971Z</time></trkpt><trkpt lat="44.8845608" lon="7.3001763"><ele>404.0</ele><time>2026-04-05T09:20:26.971Z</time></trkpt><trkpt lat="44.8845773" lon="7.2999389"><ele>404.0</ele><time>2026-04-05T09:20:27.971Z</time></trkpt><trkpt lat="44.8845932" lon="7.299714"><ele>404.0</ele><time>2026-04-05T09:20:28.971Z</time></trkpt><trkpt lat="44.8846092" lon="7.2995021"><ele>404.0</ele><time>2026-04-05T09:20:29.971Z</time></trkpt><trkpt lat="44.8846243" lon="7.2992911"><ele>404.0</ele><time>2026-04-05T09:20:30.971Z</time></trkpt><trkpt lat="44.8846388" lon="7.2990828"><ele>404.0</ele><time>2026-04-05T09:20:31.971Z</time></trkpt><trkpt lat="44.8846509" lon="7.2988762"><ele>404.0</ele><time>2026-04-05T09:20:32.971Z</time></trkpt><trkpt lat="44.8846671" lon="7.2986697"><ele>404.0</ele><time>2026-04-05T09:20:33.971Z</time></trkpt><trkpt lat="44.8846791" lon="7.2984664"><ele>404.0</ele><time>2026-04-05T09:20:34.971Z</time></trkpt><trkpt lat="44.8846911" lon="7.2982773"><ele>404.0</ele><time>2026-04-05T09:20:35.971Z</time></trkpt><trkpt lat="44.8847057" lon="7.2980981"><ele>404.0</ele><time>2026-04-05T09:20:36.971Z</time></trkpt><trkpt lat="44.8847295" lon="7.2979194"><ele>404.0</ele><time>2026-04-05T09:20:37.971Z</time></trkpt><trkpt lat="44.8847716" lon="7.2977364"><ele>404.0</ele><time>2026-04-05T09:20:38.971Z</time></trkpt><trkpt lat="44.8848262" lon="7.2975545"><ele>404.0</ele><time>2026-04-05T09:20:39.971Z</time></trkpt><trkpt lat="44.8848866" lon="7.2973795"><ele>404.0</ele><time>2026-04-05T09:20:40.971Z</time></trkpt><trkpt lat="44.8849585" lon="7.297218"><ele>404.0</ele><time>2026-04-05T09:20:41.971Z</time></trkpt><trkpt lat="44.8850334" lon="7.2970678"><ele>404.0</ele><time>2026-04-05T09:20:42.971Z</time></trkpt><trkpt lat="44.8851065" lon="7.2969225"><ele>404.0</ele><time>2026-04-05T09:20:43.971Z</time></trkpt><trkpt lat="44.8851769" lon="7.2967832"><ele>404.0</ele><time>2026-04-05T09:20:44.971Z</time></trkpt><trkpt lat="44.885247" lon="7.2966577"><ele>404.3333333333333</ele><time>2026-04-05T09:20:45.971Z</time></trkpt><trkpt lat="44.8853114" lon="7.296551"><ele>404.66666666666663</ele><time>2026-04-05T09:20:46.971Z</time></trkpt><trkpt lat="44.8853786" lon="7.2964624"><ele>405.0</ele><time>2026-04-05T09:20:47.971Z</time></trkpt><trkpt lat="44.8854557" lon="7.2964071"><ele>405.33333333333337</ele><time>2026-04-05T09:20:48.971Z</time></trkpt><trkpt lat="44.8855298" lon="7.2963693"><ele>405.6666666666667</ele><time>2026-04-05T09:20:49.971Z</time></trkpt><trkpt lat="44.8855912" lon="7.2963229"><ele>406.0</ele><time>2026-04-05T09:20:50.971Z</time></trkpt><trkpt lat="44.8856366" lon="7.2962435"><ele>406.0</ele><time>2026-04-05T09:20:51.971Z</time></trkpt><trkpt lat="44.8856579" lon="7.2961427"><ele>406.0</ele><time>2026-04-05T09:20:52.971Z</time></trkpt><trkpt lat="44.885664" lon="7.2960233"><ele>406.0</ele><time>2026-04-05T09:20:53.971Z</time></trkpt><trkpt lat="44.885669" lon="7.2958847"><ele>406.0</ele><time>2026-04-05T09:20:54.971Z</time></trkpt><trkpt lat="44.885668" lon="7.2957315"><ele>406.0</ele><time>2026-04-05T09:20:55.971Z</time></trkpt><trkpt lat="44.8856685" lon="7.2955664"><ele>406.0</ele><time>2026-04-05T09:20:56.971Z</time></trkpt><trkpt lat="44.8856659" lon="7.295394"><ele>406.0</ele><time>2026-04-05T09:20:57.971Z</time></trkpt><trkpt lat="44.8856623" lon="7.2952128"><ele>406.0</ele><time>2026-04-05T09:20:58.971Z</time></trkpt><trkpt lat="44.8856566" lon="7.2950414"><ele>406.0</ele><time>2026-04-05T09:20:59.971Z</time></trkpt><trkpt lat="44.8856493" lon="7.2948674"><ele>406.75</ele><time>2026-04-05T09:21:00.971Z</time></trkpt><trkpt lat="44.8856423" lon="7.2946835"><ele>407.5</ele><time>2026-04-05T09:21:01.971Z</time></trkpt><trkpt lat="44.8856259" lon="7.2945084"><ele>408.25</ele><time>2026-04-05T09:21:02.971Z</time></trkpt><trkpt lat="44.8856007" lon="7.2943295"><ele>409.0</ele><time>2026-04-05T09:21:03.971Z</time></trkpt><trkpt lat="44.885567" lon="7.2941452"><ele>409.0</ele><time>2026-04-05T09:21:04.971Z</time></trkpt><trkpt lat="44.8855275" lon="7.2939536"><ele>409.0</ele><time>2026-04-05T09:21:05.971Z</time></trkpt><trkpt lat="44.885485" lon="7.2937318"><ele>409.0</ele><time>2026-04-05T09:21:06.971Z</time></trkpt><trkpt lat="44.8854389" lon="7.2934829"><ele>408.6666666666667</ele><time>2026-04-05T09:21:07.971Z</time></trkpt><trkpt lat="44.8853877" lon="7.2932311"><ele>408.33333333333337</ele><time>2026-04-05T09:21:08.971Z</time></trkpt><trkpt lat="44.8853413" lon="7.2929895"><ele>408.0</ele><time>2026-04-05T09:21:09.971Z</time></trkpt><trkpt lat="44.8852985" lon="7.29275"><ele>407.66666666666663</ele><time>2026-04-05T09:21:10.971Z</time></trkpt><trkpt lat="44.8852751" lon="7.2924973"><ele>407.3333333333333</ele><time>2026-04-05T09:21:11.971Z</time></trkpt><trkpt lat="44.8852658" lon="7.2922565"><ele>407.0</ele><time>2026-04-05T09:21:12.972Z</time></trkpt><trkpt lat="44.8852691" lon="7.2920247"><ele>407.0</ele><time>2026-04-05T09:21:13.971Z</time></trkpt><trkpt lat="44.8852801" lon="7.2917997"><ele>407.0</ele><time>2026-04-05T09:21:14.971Z</time></trkpt><trkpt lat="44.8852952" lon="7.291575"><ele>407.0</ele><time>2026-04-05T09:21:15.971Z</time></trkpt><trkpt lat="44.885311" lon="7.291349"><ele>407.3333333333333</ele><time>2026-04-05T09:21:16.971Z</time></trkpt><trkpt lat="44.8853275" lon="7.2911244"><ele>407.66666666666663</ele><time>2026-04-05T09:21:17.971Z</time></trkpt><trkpt lat="44.8853376" lon="7.2908971"><ele>408.0</ele><time>2026-04-05T09:21:18.971Z</time></trkpt><trkpt lat="44.8853486" lon="7.290668"><ele>408.66666666666663</ele><time>2026-04-05T09:21:19.971Z</time></trkpt><trkpt lat="44.8853605" lon="7.290438"><ele>409.3333333333333</ele><time>2026-04-05T09:21:20.971Z</time></trkpt><trkpt lat="44.8853719" lon="7.2902132"><ele>410.0</ele><time>2026-04-05T09:21:21.971Z</time></trkpt><trkpt lat="44.8853838" lon="7.2899954"><ele>410.0</ele><time>2026-04-05T09:21:22.971Z</time></trkpt><trkpt lat="44.8853981" lon="7.2897906"><ele>410.0</ele><time>2026-04-05T09:21:23.971Z</time></trkpt><trkpt lat="44.8854092" lon="7.2895877"><ele>410.0</ele><time>2026-04-05T09:21:24.971Z</time></trkpt><trkpt lat="44.8854211" lon="7.289392"><ele>410.0</ele><time>2026-04-05T09:21:25.971Z</time></trkpt><trkpt lat="44.8854334" lon="7.2892151"><ele>409.8333333333333</ele><time>2026-04-05T09:21:26.971Z</time></trkpt><trkpt lat="44.8854446" lon="7.2890571"><ele>409.66666666666663</ele><time>2026-04-05T09:21:27.971Z</time></trkpt><trkpt lat="44.8854522" lon="7.2889203"><ele>409.5</ele><time>2026-04-05T09:21:28.971Z</time></trkpt><trkpt lat="44.8854601" lon="7.2888084"><ele>409.33333333333337</ele><time>2026-04-05T09:21:29.971Z</time></trkpt><trkpt lat="44.8854688" lon="7.2886864"><ele>409.1666666666667</ele><time>2026-04-05T09:21:31.971Z</time></trkpt><trkpt lat="44.8854607" lon="7.2885915"><ele>409.0</ele><time>2026-04-05T09:21:35.971Z</time></trkpt><trkpt lat="44.8854688" lon="7.2884868"><ele>409.6</ele><time>2026-04-05T09:21:41.971Z</time></trkpt><trkpt lat="44.8854781" lon="7.2883668"><ele>410.2</ele><time>2026-04-05T09:21:44.971Z</time></trkpt><trkpt lat="44.8854982" lon="7.2882151"><ele>410.8</ele><time>2026-04-05T09:21:46.971Z</time></trkpt><trkpt lat="44.8854998" lon="7.2880524"><ele>411.40000000000003</ele><time>2026-04-05T09:21:48.971Z</time></trkpt><trkpt lat="44.8854962" lon="7.2879451"><ele>412.0</ele><time>2026-04-05T09:21:49.971Z</time></trkpt><trkpt lat="44.8854852" lon="7.2878232"><ele>412.0</ele><time>2026-04-05T09:21:50.971Z</time></trkpt><trkpt lat="44.885471" lon="7.2876847"><ele>412.0</ele><time>2026-04-05T09:21:51.971Z</time></trkpt><trkpt lat="44.8854548" lon="7.2875415"><ele>412.0</ele><time>2026-04-05T09:21:52.971Z</time></trkpt><trkpt lat="44.8854379" lon="7.2874052"><ele>412.0</ele><time>2026-04-05T09:21:53.971Z</time></trkpt><trkpt lat="44.8854209" lon="7.287267"><ele>412.0</ele><time>2026-04-05T09:21:54.971Z</time></trkpt><trkpt lat="44.8854031" lon="7.2871249"><ele>412.0</ele><time>2026-04-05T09:21:55.971Z</time></trkpt><trkpt lat="44.8853865" lon="7.2869845"><ele>412.0</ele><time>2026-04-05T09:21:56.971Z</time></trkpt><trkpt lat="44.8853664" lon="7.2868387"><ele>412.0</ele><time>2026-04-05T09:21:57.971Z</time></trkpt><trkpt lat="44.8853506" lon="7.2866868"><ele>412.0</ele><time>2026-04-05T09:21:58.971Z</time></trkpt><trkpt lat="44.8853373" lon="7.2865416"><ele>412.0</ele><time>2026-04-05T09:21:59.971Z</time></trkpt><trkpt lat="44.8853264" lon="7.2863903"><ele>411.6</ele><time>2026-04-05T09:22:00.971Z</time></trkpt><trkpt lat="44.8853202" lon="7.2862405"><ele>411.20000000000005</ele><time>2026-04-05T09:22:01.971Z</time></trkpt><trkpt lat="44.885316" lon="7.2860881"><ele>410.8</ele><time>2026-04-05T09:22:02.971Z</time></trkpt><trkpt lat="44.8853174" lon="7.2859327"><ele>410.4</ele><time>2026-04-05T09:22:03.971Z</time></trkpt><trkpt lat="44.8853211" lon="7.2857759"><ele>410.0</ele><time>2026-04-05T09:22:04.971Z</time></trkpt><trkpt lat="44.885329" lon="7.285618"><ele>409.6</ele><time>2026-04-05T09:22:05.971Z</time></trkpt><trkpt lat="44.8853343" lon="7.2854606"><ele>409.2</ele><time>2026-04-05T09:22:06.971Z</time></trkpt><trkpt lat="44.8853418" lon="7.2852992"><ele>408.79999999999995</ele><time>2026-04-05T09:22:07.971Z</time></trkpt><trkpt lat="44.8853499" lon="7.285136"><ele>408.4</ele><time>2026-04-05T09:22:08.971Z</time></trkpt><trkpt lat="44.8853538" lon="7.2850081"><ele>408.0</ele><time>2026-04-05T09:22:09.971Z</time></trkpt><trkpt lat="44.8853579" lon="7.2849176"><ele>408.79999999999995</ele><time>2026-04-05T09:22:10.971Z</time></trkpt><trkpt lat="44.8853634" lon="7.2847516"><ele>409.6</ele><time>2026-04-05T09:22:12.971Z</time></trkpt><trkpt lat="44.8853779" lon="7.2845828"><ele>410.4</ele><time>2026-04-05T09:22:14.971Z</time></trkpt><trkpt lat="44.8853922" lon="7.2843974"><ele>411.20000000000005</ele><time>2026-04-05T09:22:16.971Z</time></trkpt><trkpt lat="44.8853986" lon="7.2842903"><ele>412.0</ele><time>2026-04-05T09:22:17.971Z</time></trkpt><trkpt lat="44.8854071" lon="7.2841736"><ele>412.0</ele><time>2026-04-05T09:22:18.971Z</time></trkpt><trkpt lat="44.8854151" lon="7.2840427"><ele>412.0</ele><time>2026-04-05T09:22:19.971Z</time></trkpt><trkpt lat="44.8854238" lon="7.2839083"><ele>412.0</ele><time>2026-04-05T09:22:20.971Z</time></trkpt><trkpt lat="44.885434" lon="7.2837756"><ele>412.0</ele><time>2026-04-05T09:22:21.971Z</time></trkpt><trkpt lat="44.8854448" lon="7.2836348"><ele>412.0</ele><time>2026-04-05T09:22:22.971Z</time></trkpt><trkpt lat="44.8854569" lon="7.2834828"><ele>411.75</ele><time>2026-04-05T09:22:23.971Z</time></trkpt><trkpt lat="44.8854653" lon="7.2833214"><ele>411.5</ele><time>2026-04-05T09:22:24.971Z</time></trkpt><trkpt lat="44.8854753" lon="7.2831455"><ele>411.25</ele><time>2026-04-05T09:22:25.971Z</time></trkpt><trkpt lat="44.8854847" lon="7.2829569"><ele>411.0</ele><time>2026-04-05T09:22:26.971Z</time></trkpt><trkpt lat="44.8854992" lon="7.2827465"><ele>411.0</ele><time>2026-04-05T09:22:27.971Z</time></trkpt><trkpt lat="44.8855235" lon="7.282528"><ele>411.0</ele><time>2026-04-05T09:22:28.971Z</time></trkpt><trkpt lat="44.885563" lon="7.2822973"><ele>411.0</ele><time>2026-04-05T09:22:29.971Z</time></trkpt><trkpt lat="44.8856163" lon="7.2820753"><ele>411.0</ele><time>2026-04-05T09:22:30.971Z</time></trkpt><trkpt lat="44.8856708" lon="7.281861"><ele>411.0</ele><time>2026-04-05T09:22:31.971Z</time></trkpt><trkpt lat="44.8857225" lon="7.2816653"><ele>411.0</ele><time>2026-04-05T09:22:32.971Z</time></trkpt><trkpt lat="44.8857691" lon="7.2814881"><ele>411.0</ele><time>2026-04-05T09:22:33.971Z</time></trkpt><trkpt lat="44.8858164" lon="7.2813125"><ele>411.0</ele><time>2026-04-05T09:22:34.971Z</time></trkpt><trkpt lat="44.8858564" lon="7.2811506"><ele>411.0</ele><time>2026-04-05T09:22:35.971Z</time></trkpt><trkpt lat="44.8858932" lon="7.2809998"><ele>411.0</ele><time>2026-04-05T09:22:36.971Z</time></trkpt><trkpt lat="44.8859282" lon="7.2808638"><ele>411.0</ele><time>2026-04-05T09:22:37.971Z</time></trkpt><trkpt lat="44.8859624" lon="7.2807345"><ele>411.0</ele><time>2026-04-05T09:22:38.971Z</time></trkpt><trkpt lat="44.8859936" lon="7.2806025"><ele>413.20000000000005</ele><time>2026-04-05T09:22:39.971Z</time></trkpt><trkpt lat="44.8860233" lon="7.280459"><ele>415.40000000000003</ele><time>2026-04-05T09:22:40.971Z</time></trkpt><trkpt lat="44.886056" lon="7.2803164"><ele>417.6</ele><time>2026-04-05T09:22:41.971Z</time></trkpt><trkpt lat="44.8860875" lon="7.2801623"><ele>419.8</ele><time>2026-04-05T09:22:42.971Z</time></trkpt><trkpt lat="44.8861166" lon="7.2799985"><ele>422.0</ele><time>2026-04-05T09:22:43.971Z</time></trkpt><trkpt lat="44.8861449" lon="7.2798228"><ele>422.25</ele><time>2026-04-05T09:22:44.971Z</time></trkpt><trkpt lat="44.8861779" lon="7.2796318"><ele>422.5</ele><time>2026-04-05T09:22:45.971Z</time></trkpt><trkpt lat="44.8862062" lon="7.2794401"><ele>422.75</ele><time>2026-04-05T09:22:46.971Z</time></trkpt><trkpt lat="44.8862352" lon="7.2792533"><ele>423.0</ele><time>2026-04-05T09:22:47.971Z</time></trkpt><trkpt lat="44.8862639" lon="7.2790643"><ele>422.75</ele><time>2026-04-05T09:22:48.971Z</time></trkpt><trkpt lat="44.8862895" lon="7.2788783"><ele>422.5</ele><time>2026-04-05T09:22:49.971Z</time></trkpt><trkpt lat="44.8863171" lon="7.2786951"><ele>422.25</ele><time>2026-04-05T09:22:50.971Z</time></trkpt><trkpt lat="44.8863459" lon="7.2785103"><ele>422.0</ele><time>2026-04-05T09:22:51.971Z</time></trkpt><trkpt lat="44.8863742" lon="7.2783284"><ele>422.0</ele><time>2026-04-05T09:22:52.971Z</time></trkpt><trkpt lat="44.8864044" lon="7.2781405"><ele>422.0</ele><time>2026-04-05T09:22:53.971Z</time></trkpt><trkpt lat="44.8864332" lon="7.2779513"><ele>422.0</ele><time>2026-04-05T09:22:54.971Z</time></trkpt><trkpt lat="44.8864647" lon="7.2777574"><ele>422.0</ele><time>2026-04-05T09:22:55.971Z</time></trkpt><trkpt lat="44.8864938" lon="7.2775629"><ele>422.3333333333333</ele><time>2026-04-05T09:22:56.971Z</time></trkpt><trkpt lat="44.8865237" lon="7.277362"><ele>422.66666666666663</ele><time>2026-04-05T09:22:57.971Z</time></trkpt><trkpt lat="44.8865552" lon="7.2771498"><ele>423.0</ele><time>2026-04-05T09:22:58.971Z</time></trkpt><trkpt lat="44.8865867" lon="7.2769299"><ele>422.25</ele><time>2026-04-05T09:22:59.971Z</time></trkpt><trkpt lat="44.8866146" lon="7.2767208"><ele>421.5</ele><time>2026-04-05T09:23:00.971Z</time></trkpt><trkpt lat="44.8866443" lon="7.2765237"><ele>420.75</ele><time>2026-04-05T09:23:01.971Z</time></trkpt><trkpt lat="44.8866732" lon="7.2763254"><ele>420.0</ele><time>2026-04-05T09:23:02.971Z</time></trkpt><trkpt lat="44.8867034" lon="7.2761265"><ele>419.5</ele><time>2026-04-05T09:23:03.971Z</time></trkpt><trkpt lat="44.8867357" lon="7.2759253"><ele>419.0</ele><time>2026-04-05T09:23:04.971Z</time></trkpt><trkpt lat="44.8867664" lon="7.2757231"><ele>418.5</ele><time>2026-04-05T09:23:05.971Z</time></trkpt><trkpt lat="44.8867944" lon="7.2755139"><ele>418.0</ele><time>2026-04-05T09:23:06.971Z</time></trkpt><trkpt lat="44.8868203" lon="7.2753118"><ele>425.0</ele><time>2026-04-05T09:23:07.971Z</time></trkpt><trkpt lat="44.8868449" lon="7.2751151"><ele>432.0</ele><time>2026-04-05T09:23:08.971Z</time></trkpt><trkpt lat="44.8868631" lon="7.2749205"><ele>439.0</ele><time>2026-04-05T09:23:09.971Z</time></trkpt><trkpt lat="44.8868616" lon="7.2747277"><ele>446.0</ele><time>2026-04-05T09:23:10.971Z</time></trkpt><trkpt lat="44.8868489" lon="7.2745495"><ele>446.75</ele><time>2026-04-05T09:23:11.971Z</time></trkpt><trkpt lat="44.8868334" lon="7.2743718"><ele>447.5</ele><time>2026-04-05T09:23:12.971Z</time></trkpt><trkpt lat="44.8868178" lon="7.2742013"><ele>448.25</ele><time>2026-04-05T09:23:13.971Z</time></trkpt><trkpt lat="44.8868052" lon="7.2740349"><ele>449.0</ele><time>2026-04-05T09:23:14.971Z</time></trkpt><trkpt lat="44.8867923" lon="7.2738707"><ele>450.0</ele><time>2026-04-05T09:23:15.971Z</time></trkpt><trkpt lat="44.886777" lon="7.2737099"><ele>451.0</ele><time>2026-04-05T09:23:16.971Z</time></trkpt><trkpt lat="44.8867669" lon="7.2735561"><ele>452.0</ele><time>2026-04-05T09:23:17.971Z</time></trkpt><trkpt lat="44.8867533" lon="7.2734159"><ele>453.0</ele><time>2026-04-05T09:23:18.971Z</time></trkpt><trkpt lat="44.8867411" lon="7.2732906"><ele>454.0</ele><time>2026-04-05T09:23:19.971Z</time></trkpt><trkpt lat="44.8867299" lon="7.2731704"><ele>449.50000000000006</ele><time>2026-04-05T09:23:20.971Z</time></trkpt><trkpt lat="44.8867169" lon="7.2730579"><ele>445.0</ele><time>2026-04-05T09:23:21.971Z</time></trkpt><trkpt lat="44.8867099" lon="7.2729542"><ele>440.5</ele><time>2026-04-05T09:23:22.971Z</time></trkpt><trkpt lat="44.8866997" lon="7.2728307"><ele>436.0</ele><time>2026-04-05T09:23:24.971Z</time></trkpt><trkpt lat="44.8866985" lon="7.2727274"><ele>431.50000000000006</ele><time>2026-04-05T09:23:36.971Z</time></trkpt><trkpt lat="44.8866843" lon="7.2726367"><ele>427.0</ele><time>2026-04-05T09:23:39.971Z</time></trkpt><trkpt lat="44.8866703" lon="7.2725056"><ele>427.0</ele><time>2026-04-05T09:23:41.971Z</time></trkpt><trkpt lat="44.8866551" lon="7.2723474"><ele>427.0</ele><time>2026-04-05T09:23:43.971Z</time></trkpt><trkpt lat="44.8866391" lon="7.2721895"><ele>427.0</ele><time>2026-04-05T09:23:45.971Z</time></trkpt><trkpt lat="44.8866226" lon="7.2720257"><ele>427.0</ele><time>2026-04-05T09:23:47.971Z</time></trkpt><trkpt lat="44.8866195" lon="7.2718606"><ele>426.75</ele><time>2026-04-05T09:23:49.971Z</time></trkpt><trkpt lat="44.8866224" lon="7.2716927"><ele>426.5</ele><time>2026-04-05T09:23:51.971Z</time></trkpt><trkpt lat="44.8866352" lon="7.2715259"><ele>426.25</ele><time>2026-04-05T09:23:53.971Z</time></trkpt><trkpt lat="44.8866463" lon="7.2713556"><ele>426.0</ele><time>2026-04-05T09:23:55.971Z</time></trkpt><trkpt lat="44.8866615" lon="7.2712012"><ele>425.8</ele><time>2026-04-05T09:23:57.971Z</time></trkpt><trkpt lat="44.886683" lon="7.2710781"><ele>425.6</ele><time>2026-04-05T09:23:59.971Z</time></trkpt><trkpt lat="44.8866975" lon="7.2709696"><ele>425.4</ele><time>2026-04-05T09:24:01.971Z</time></trkpt><trkpt lat="44.8867166" lon="7.2708361"><ele>425.2</ele><time>2026-04-05T09:24:03.971Z</time></trkpt><trkpt lat="44.8867406" lon="7.2706884"><ele>425.0</ele><time>2026-04-05T09:24:05.971Z</time></trkpt><trkpt lat="44.8867625" lon="7.2705271"><ele>428.3333333333333</ele><time>2026-04-05T09:24:07.971Z</time></trkpt><trkpt lat="44.8867851" lon="7.2703594"><ele>431.66666666666663</ele><time>2026-04-05T09:24:09.971Z</time></trkpt><trkpt lat="44.8867974" lon="7.2702696"><ele>435.0</ele><time>2026-04-05T09:24:10.971Z</time></trkpt><trkpt lat="44.8868086" lon="7.2701792"><ele>438.33333333333337</ele><time>2026-04-05T09:24:11.971Z</time></trkpt><trkpt lat="44.8868178" lon="7.2700897"><ele>441.6666666666667</ele><time>2026-04-05T09:24:12.971Z</time></trkpt><trkpt lat="44.8868268" lon="7.2699963"><ele>445.0</ele><time>2026-04-05T09:24:13.971Z</time></trkpt><trkpt lat="44.8868367" lon="7.2698895"><ele>445.00000000000006</ele><time>2026-04-05T09:24:14.971Z</time></trkpt><trkpt lat="44.8868465" lon="7.2697827"><ele>445.0</ele><time>2026-04-05T09:24:15.971Z</time></trkpt><trkpt lat="44.8868633" lon="7.269678"><ele>445.0</ele><time>2026-04-05T09:24:16.971Z</time></trkpt><trkpt lat="44.8868742" lon="7.2695689"><ele>445.0</ele><time>2026-04-05T09:24:17.971Z</time></trkpt><trkpt lat="44.886882" lon="7.2694589"><ele>445.00000000000006</ele><time>2026-04-05T09:24:18.971Z</time></trkpt><trkpt lat="44.8868922" lon="7.2693538"><ele>445.0</ele><time>2026-04-05T09:24:19.971Z</time></trkpt><trkpt lat="44.8869159" lon="7.2691837"><ele>444.1666666666667</ele><time>2026-04-05T09:24:21.971Z</time></trkpt><trkpt lat="44.8869355" lon="7.2690524"><ele>443.33333333333337</ele><time>2026-04-05T09:24:23.971Z</time></trkpt><trkpt lat="44.8869527" lon="7.2689285"><ele>442.5</ele><time>2026-04-05T09:24:25.971Z</time></trkpt><trkpt lat="44.8869604" lon="7.2688311"><ele>441.66666666666663</ele><time>2026-04-05T09:24:27.971Z</time></trkpt><trkpt lat="44.8869701" lon="7.2687327"><ele>440.8333333333333</ele><time>2026-04-05T09:24:30.971Z</time></trkpt><trkpt lat="44.8869853" lon="7.2686064"><ele>440.0</ele><time>2026-04-05T09:24:33.971Z</time></trkpt><trkpt lat="44.8870058" lon="7.2684671"><ele>439.49999999999994</ele><time>2026-04-05T09:24:35.971Z</time></trkpt><trkpt lat="44.8870227" lon="7.2683342"><ele>439.0</ele><time>2026-04-05T09:24:37.971Z</time></trkpt><trkpt lat="44.8870475" lon="7.2682165"><ele>438.5</ele><time>2026-04-05T09:24:39.971Z</time></trkpt><trkpt lat="44.887118" lon="7.2681767"><ele>438.0</ele><time>2026-04-05T09:24:41.971Z</time></trkpt><trkpt lat="44.8872147" lon="7.2682039"><ele>437.49999999999994</ele><time>2026-04-05T09:24:43.971Z</time></trkpt><trkpt lat="44.8872795" lon="7.2682253"><ele>437.0</ele><time>2026-04-05T09:24:44.971Z</time></trkpt><trkpt lat="44.887349" lon="7.2682442"><ele>436.99999999999994</ele><time>2026-04-05T09:24:45.971Z</time></trkpt><trkpt lat="44.8874155" lon="7.2682585"><ele>437.0</ele><time>2026-04-05T09:24:46.971Z</time></trkpt><trkpt lat="44.8874811" lon="7.2682723"><ele>437.0</ele><time>2026-04-05T09:24:47.971Z</time></trkpt><trkpt lat="44.8876019" lon="7.26831"><ele>437.0</ele><time>2026-04-05T09:24:49.971Z</time></trkpt><trkpt lat="44.8876799" lon="7.2683339"><ele>436.99999999999994</ele><time>2026-04-05T09:24:51.971Z</time></trkpt><trkpt lat="44.8877633" lon="7.2683302"><ele>437.0</ele><time>2026-04-05T09:24:54.972Z</time></trkpt><trkpt lat="44.8878523" lon="7.2683295"><ele>442.0</ele><time>2026-04-05T09:24:56.971Z</time></trkpt><trkpt lat="44.8879361" lon="7.2683952"><ele>447.00000000000006</ele><time>2026-04-05T09:24:58.971Z</time></trkpt><trkpt lat="44.8879474" lon="7.268545"><ele>452.00000000000006</ele><time>2026-04-05T09:25:00.971Z</time></trkpt><trkpt lat="44.8879264" lon="7.2686568"><ele>457.0</ele><time>2026-04-05T09:25:01.971Z</time></trkpt><trkpt lat="44.887905" lon="7.2687726"><ele>462.0</ele><time>2026-04-05T09:25:02.971Z</time></trkpt><trkpt lat="44.887881" lon="7.2689135"><ele>464.25</ele><time>2026-04-05T09:25:03.971Z</time></trkpt><trkpt lat="44.8878427" lon="7.2690849"><ele>466.5</ele><time>2026-04-05T09:25:04.971Z</time></trkpt><trkpt lat="44.8878065" lon="7.2692473"><ele>468.75</ele><time>2026-04-05T09:25:05.971Z</time></trkpt><trkpt lat="44.8877722" lon="7.2694121"><ele>471.0</ele><time>2026-04-05T09:25:06.971Z</time></trkpt><trkpt lat="44.8877424" lon="7.2695405"><ele>471.0</ele><time>2026-04-05T09:25:07.971Z</time></trkpt><trkpt lat="44.8877153" lon="7.2696692"><ele>471.0</ele><time>2026-04-05T09:25:08.971Z</time></trkpt><trkpt lat="44.8876876" lon="7.269795"><ele>471.0</ele><time>2026-04-05T09:25:09.971Z</time></trkpt><trkpt lat="44.8876583" lon="7.269909"><ele>471.0</ele><time>2026-04-05T09:25:10.971Z</time></trkpt><trkpt lat="44.8876306" lon="7.2700397"><ele>471.0</ele><time>2026-04-05T09:25:11.971Z</time></trkpt><trkpt lat="44.8876126" lon="7.270168"><ele>472.8333333333333</ele><time>2026-04-05T09:25:12.971Z</time></trkpt><trkpt lat="44.8875976" lon="7.270294"><ele>474.66666666666663</ele><time>2026-04-05T09:25:13.971Z</time></trkpt><trkpt lat="44.8875892" lon="7.2704128"><ele>476.5</ele><time>2026-04-05T09:25:14.971Z</time></trkpt><trkpt lat="44.8875916" lon="7.2705245"><ele>478.3333333333333</ele><time>2026-04-05T09:25:15.971Z</time></trkpt><trkpt lat="44.8876137" lon="7.2706307"><ele>480.16666666666663</ele><time>2026-04-05T09:25:16.971Z</time></trkpt><trkpt lat="44.8876707" lon="7.2707348"><ele>482.0</ele><time>2026-04-05T09:25:17.971Z</time></trkpt><trkpt lat="44.8877375" lon="7.2708435"><ele>482.0</ele><time>2026-04-05T09:25:18.971Z</time></trkpt><trkpt lat="44.8878058" lon="7.2709532"><ele>482.00000000000006</ele><time>2026-04-05T09:25:19.971Z</time></trkpt><trkpt lat="44.887873" lon="7.2710669"><ele>482.00000000000006</ele><time>2026-04-05T09:25:20.971Z</time></trkpt><trkpt lat="44.8879416" lon="7.2712075"><ele>482.0</ele><time>2026-04-05T09:25:21.971Z</time></trkpt><trkpt lat="44.8880064" lon="7.2713462"><ele>482.0</ele><time>2026-04-05T09:25:22.971Z</time></trkpt><trkpt lat="44.8880627" lon="7.271462"><ele>480.49999999999994</ele><time>2026-04-05T09:25:23.971Z</time></trkpt><trkpt lat="44.8881149" lon="7.2715657"><ele>479.0</ele><time>2026-04-05T09:25:24.971Z</time></trkpt><trkpt lat="44.888152" lon="7.2716574"><ele>477.5</ele><time>2026-04-05T09:25:25.971Z</time></trkpt><trkpt lat="44.8881841" lon="7.2717388"><ele>476.0</ele><time>2026-04-05T09:25:26.971Z</time></trkpt><trkpt lat="44.8882222" lon="7.2718543"><ele>474.49999999999994</ele><time>2026-04-05T09:25:28.971Z</time></trkpt><trkpt lat="44.8882671" lon="7.2719206"><ele>473.0</ele><time>2026-04-05T09:25:30.971Z</time></trkpt><trkpt lat="44.8883434" lon="7.2719514"><ele>477.79999999999995</ele><time>2026-04-05T09:25:32.971Z</time></trkpt><trkpt lat="44.888453" lon="7.2719819"><ele>482.59999999999997</ele><time>2026-04-05T09:25:34.971Z</time></trkpt><trkpt lat="44.8885266" lon="7.2720026"><ele>487.40000000000003</ele><time>2026-04-05T09:25:35.971Z</time></trkpt><trkpt lat="44.8886112" lon="7.272015"><ele>492.20000000000005</ele><time>2026-04-05T09:25:36.971Z</time></trkpt><trkpt lat="44.8887048" lon="7.2720321"><ele>497.0</ele><time>2026-04-05T09:25:37.971Z</time></trkpt><trkpt lat="44.8888016" lon="7.2720288"><ele>496.99999999999994</ele><time>2026-04-05T09:25:38.971Z</time></trkpt><trkpt lat="44.8888906" lon="7.2720422"><ele>497.0</ele><time>2026-04-05T09:25:39.971Z</time></trkpt><trkpt lat="44.8889821" lon="7.2720785"><ele>497.0</ele><time>2026-04-05T09:25:40.971Z</time></trkpt><trkpt lat="44.8890603" lon="7.2721395"><ele>497.0</ele><time>2026-04-05T09:25:41.971Z</time></trkpt><trkpt lat="44.8891226" lon="7.2721915"><ele>496.99999999999994</ele><time>2026-04-05T09:25:42.971Z</time></trkpt><trkpt lat="44.8891751" lon="7.2722445"><ele>497.0</ele><time>2026-04-05T09:25:43.971Z</time></trkpt><trkpt lat="44.8892143" lon="7.2723959"><ele>494.6</ele><time>2026-04-05T09:25:45.971Z</time></trkpt><trkpt lat="44.8891436" lon="7.2725208"><ele>492.20000000000005</ele><time>2026-04-05T09:25:47.971Z</time></trkpt><trkpt lat="44.8890831" lon="7.2725768"><ele>489.8</ele><time>2026-04-05T09:25:48.971Z</time></trkpt><trkpt lat="44.8890103" lon="7.2726565"><ele>487.4</ele><time>2026-04-05T09:25:49.971Z</time></trkpt><trkpt lat="44.8889284" lon="7.272761"><ele>485.0</ele><time>2026-04-05T09:25:50.971Z</time></trkpt><trkpt lat="44.8888319" lon="7.272879"><ele>485.0</ele><time>2026-04-05T09:25:51.971Z</time></trkpt><trkpt lat="44.888723" lon="7.2730063"><ele>485.0</ele><time>2026-04-05T09:25:52.971Z</time></trkpt><trkpt lat="44.8886092" lon="7.2731046"><ele>485.0</ele><time>2026-04-05T09:25:53.971Z</time></trkpt><trkpt lat="44.8885092" lon="7.2731683"><ele>485.0</ele><time>2026-04-05T09:25:54.971Z</time></trkpt><trkpt lat="44.8884338" lon="7.2732194"><ele>485.16666666666663</ele><time>2026-04-05T09:25:55.971Z</time></trkpt><trkpt lat="44.8883615" lon="7.2733286"><ele>485.3333333333333</ele><time>2026-04-05T09:25:57.972Z</time></trkpt><trkpt lat="44.8884009" lon="7.2734607"><ele>485.5</ele><time>2026-04-05T09:25:59.971Z</time></trkpt><trkpt lat="44.8884554" lon="7.2735101"><ele>485.66666666666663</ele><time>2026-04-05T09:26:00.971Z</time></trkpt><trkpt lat="44.8885231" lon="7.2735587"><ele>485.8333333333333</ele><time>2026-04-05T09:26:01.971Z</time></trkpt><trkpt lat="44.8886035" lon="7.2736123"><ele>486.0</ele><time>2026-04-05T09:26:02.971Z</time></trkpt><trkpt lat="44.8886931" lon="7.2736779"><ele>487.8333333333333</ele><time>2026-04-05T09:26:03.971Z</time></trkpt><trkpt lat="44.8887831" lon="7.2737544"><ele>489.66666666666663</ele><time>2026-04-05T09:26:04.971Z</time></trkpt><trkpt lat="44.8888627" lon="7.273814"><ele>491.5</ele><time>2026-04-05T09:26:05.971Z</time></trkpt><trkpt lat="44.888942" lon="7.2738702"><ele>493.3333333333333</ele><time>2026-04-05T09:26:06.971Z</time></trkpt><trkpt lat="44.8890135" lon="7.2739271"><ele>495.16666666666663</ele><time>2026-04-05T09:26:07.971Z</time></trkpt><trkpt lat="44.8890717" lon="7.2739985"><ele>497.0</ele><time>2026-04-05T09:26:08.971Z</time></trkpt><trkpt lat="44.8891123" lon="7.2741016"><ele>499.0</ele><time>2026-04-05T09:26:09.971Z</time></trkpt><trkpt lat="44.889147" lon="7.274237"><ele>501.00000000000006</ele><time>2026-04-05T09:26:10.971Z</time></trkpt><trkpt lat="44.8891852" lon="7.2743898"><ele>503.00000000000006</ele><time>2026-04-05T09:26:11.971Z</time></trkpt><trkpt lat="44.8892245" lon="7.2745412"><ele>505.0</ele><time>2026-04-05T09:26:12.971Z</time></trkpt><trkpt lat="44.8892571" lon="7.274687"><ele>507.0</ele><time>2026-04-05T09:26:13.971Z</time></trkpt><trkpt lat="44.8892954" lon="7.2748563"><ele>515.75</ele><time>2026-04-05T09:26:14.971Z</time></trkpt><trkpt lat="44.8893409" lon="7.275035"><ele>524.5</ele><time>2026-04-05T09:26:15.971Z</time></trkpt><trkpt lat="44.8893901" lon="7.2752184"><ele>533.25</ele><time>2026-04-05T09:26:16.971Z</time></trkpt><trkpt lat="44.8894306" lon="7.2753818"><ele>542.0</ele><time>2026-04-05T09:26:17.971Z</time></trkpt><trkpt lat="44.8894658" lon="7.2755349"><ele>542.5</ele><time>2026-04-05T09:26:18.971Z</time></trkpt><trkpt lat="44.8894831" lon="7.275679"><ele>543.0</ele><time>2026-04-05T09:26:19.971Z</time></trkpt><trkpt lat="44.8894726" lon="7.2758141"><ele>543.5</ele><time>2026-04-05T09:26:20.971Z</time></trkpt><trkpt lat="44.8894573" lon="7.2759187"><ele>544.0</ele><time>2026-04-05T09:26:21.971Z</time></trkpt><trkpt lat="44.8894396" lon="7.2760143"><ele>544.5</ele><time>2026-04-05T09:26:22.971Z</time></trkpt><trkpt lat="44.8894315" lon="7.2761206"><ele>545.0</ele><time>2026-04-05T09:26:23.971Z</time></trkpt><trkpt lat="44.889439" lon="7.2762386"><ele>545.0</ele><time>2026-04-05T09:26:24.971Z</time></trkpt><trkpt lat="44.8894577" lon="7.2763727"><ele>545.0</ele><time>2026-04-05T09:26:25.971Z</time></trkpt><trkpt lat="44.8894838" lon="7.2765105"><ele>545.0</ele><time>2026-04-05T09:26:26.971Z</time></trkpt><trkpt lat="44.8895146" lon="7.2766697"><ele>545.0</ele><time>2026-04-05T09:26:27.971Z</time></trkpt><trkpt lat="44.8895486" lon="7.2768433"><ele>545.0</ele><time>2026-04-05T09:26:28.971Z</time></trkpt><trkpt lat="44.8895815" lon="7.2770193"><ele>545.25</ele><time>2026-04-05T09:26:29.971Z</time></trkpt><trkpt lat="44.8896191" lon="7.2771967"><ele>545.5</ele><time>2026-04-05T09:26:30.971Z</time></trkpt><trkpt lat="44.8896587" lon="7.2773692"><ele>545.75</ele><time>2026-04-05T09:26:31.971Z</time></trkpt><trkpt lat="44.8896944" lon="7.2775332"><ele>546.0</ele><time>2026-04-05T09:26:32.971Z</time></trkpt><trkpt lat="44.8897331" lon="7.2776967"><ele>547.25</ele><time>2026-04-05T09:26:33.971Z</time></trkpt><trkpt lat="44.8897755" lon="7.2778595"><ele>548.5</ele><time>2026-04-05T09:26:34.971Z</time></trkpt><trkpt lat="44.8898128" lon="7.2780253"><ele>549.75</ele><time>2026-04-05T09:26:35.971Z</time></trkpt><trkpt lat="44.8898467" lon="7.2782145"><ele>551.0</ele><time>2026-04-05T09:26:36.971Z</time></trkpt><trkpt lat="44.8898734" lon="7.2784015"><ele>551.4</ele><time>2026-04-05T09:26:37.971Z</time></trkpt><trkpt lat="44.8898811" lon="7.2785598"><ele>551.8</ele><time>2026-04-05T09:26:38.971Z</time></trkpt><trkpt lat="44.8898883" lon="7.2787085"><ele>552.1999999999999</ele><time>2026-04-05T09:26:39.971Z</time></trkpt><trkpt lat="44.8898928" lon="7.2788413"><ele>552.6</ele><time>2026-04-05T09:26:40.971Z</time></trkpt><trkpt lat="44.8898966" lon="7.2789652"><ele>553.0</ele><time>2026-04-05T09:26:41.971Z</time></trkpt><trkpt lat="44.8898992" lon="7.279071"><ele>553.0</ele><time>2026-04-05T09:26:42.971Z</time></trkpt><trkpt lat="44.8899152" lon="7.2792166"><ele>553.0</ele><time>2026-04-05T09:26:44.971Z</time></trkpt><trkpt lat="44.8899978" lon="7.2792287"><ele>553.0</ele><time>2026-04-05T09:26:47.971Z</time></trkpt><trkpt lat="44.8900303" lon="7.2790856"><ele>553.0</ele><time>2026-04-05T09:26:49.971Z</time></trkpt><trkpt lat="44.8900513" lon="7.2789643"><ele>553.0</ele><time>2026-04-05T09:26:50.971Z</time></trkpt><trkpt lat="44.8900865" lon="7.2788142"><ele>563.75</ele><time>2026-04-05T09:26:51.971Z</time></trkpt><trkpt lat="44.8901241" lon="7.2786519"><ele>574.5</ele><time>2026-04-05T09:26:52.971Z</time></trkpt><trkpt lat="44.890167" lon="7.278482"><ele>585.25</ele><time>2026-04-05T09:26:53.971Z</time></trkpt><trkpt lat="44.8902283" lon="7.2783064"><ele>596.0</ele><time>2026-04-05T09:26:54.971Z</time></trkpt><trkpt lat="44.8902905" lon="7.2781343"><ele>594.8</ele><time>2026-04-05T09:26:55.971Z</time></trkpt><trkpt lat="44.8903264" lon="7.27798"><ele>593.6</ele><time>2026-04-05T09:26:56.971Z</time></trkpt><trkpt lat="44.8903521" lon="7.2778302"><ele>592.4</ele><time>2026-04-05T09:26:57.971Z</time></trkpt><trkpt lat="44.8903727" lon="7.2776883"><ele>591.2</ele><time>2026-04-05T09:26:58.971Z</time></trkpt><trkpt lat="44.8903921" lon="7.2775534"><ele>590.0</ele><time>2026-04-05T09:26:59.971Z</time></trkpt><trkpt lat="44.8904152" lon="7.2774169"><ele>590.0</ele><time>2026-04-05T09:27:00.971Z</time></trkpt><trkpt lat="44.8904522" lon="7.2772736"><ele>590.0</ele><time>2026-04-05T09:27:01.971Z</time></trkpt><trkpt lat="44.8905084" lon="7.2771231"><ele>590.0</ele><time>2026-04-05T09:27:02.971Z</time></trkpt><trkpt lat="44.8905698" lon="7.2769567"><ele>590.0</ele><time>2026-04-05T09:27:03.971Z</time></trkpt><trkpt lat="44.890618" lon="7.2768"><ele>589.5</ele><time>2026-04-05T09:27:04.971Z</time></trkpt><trkpt lat="44.8906571" lon="7.2766489"><ele>589.0</ele><time>2026-04-05T09:27:05.971Z</time></trkpt><trkpt lat="44.8906905" lon="7.2764686"><ele>588.5</ele><time>2026-04-05T09:27:06.971Z</time></trkpt><trkpt lat="44.8907166" lon="7.276283"><ele>588.0</ele><time>2026-04-05T09:27:07.972Z</time></trkpt><trkpt lat="44.8907431" lon="7.2761041"><ele>587.75</ele><time>2026-04-05T09:27:08.971Z</time></trkpt><trkpt lat="44.8907757" lon="7.2759228"><ele>587.5</ele><time>2026-04-05T09:27:09.971Z</time></trkpt><trkpt lat="44.8908243" lon="7.2757487"><ele>587.25</ele><time>2026-04-05T09:27:10.971Z</time></trkpt><trkpt lat="44.8908651" lon="7.2755768"><ele>587.0</ele><time>2026-04-05T09:27:11.971Z</time></trkpt><trkpt lat="44.890901" lon="7.2754105"><ele>586.1666666666666</ele><time>2026-04-05T09:27:12.971Z</time></trkpt><trkpt lat="44.8909214" lon="7.2752754"><ele>585.3333333333333</ele><time>2026-04-05T09:27:13.971Z</time></trkpt><trkpt lat="44.8909312" lon="7.2751635"><ele>584.5</ele><time>2026-04-05T09:27:14.971Z</time></trkpt><trkpt lat="44.8909304" lon="7.2750719"><ele>583.6666666666666</ele><time>2026-04-05T09:27:15.971Z</time></trkpt><trkpt lat="44.8909536" lon="7.2749239"><ele>582.8333333333334</ele><time>2026-04-05T09:27:17.971Z</time></trkpt><trkpt lat="44.8910255" lon="7.2749168"><ele>582.0</ele><time>2026-04-05T09:27:19.971Z</time></trkpt><trkpt lat="44.8910577" lon="7.2750478"><ele>587.0</ele><time>2026-04-05T09:27:21.971Z</time></trkpt><trkpt lat="44.8910591" lon="7.2751681"><ele>592.0</ele><time>2026-04-05T09:27:22.971Z</time></trkpt><trkpt lat="44.8910636" lon="7.2753027"><ele>597.0</ele><time>2026-04-05T09:27:23.971Z</time></trkpt><trkpt lat="44.8910705" lon="7.2754598"><ele>602.0</ele><time>2026-04-05T09:27:24.971Z</time></trkpt><trkpt lat="44.8910698" lon="7.2756129"><ele>607.0</ele><time>2026-04-05T09:27:25.971Z</time></trkpt><trkpt lat="44.8910651" lon="7.2757358"><ele>607.0</ele><time>2026-04-05T09:27:26.971Z</time></trkpt><trkpt lat="44.8910623" lon="7.2758378"><ele>607.0</ele><time>2026-04-05T09:27:27.971Z</time></trkpt><trkpt lat="44.8910949" lon="7.2759579"><ele>607.0</ele><time>2026-04-05T09:27:29.971Z</time></trkpt><trkpt lat="44.8911526" lon="7.2759205"><ele>607.0</ele><time>2026-04-05T09:27:31.971Z</time></trkpt><trkpt lat="44.8911736" lon="7.2757556"><ele>607.0</ele><time>2026-04-05T09:27:33.971Z</time></trkpt><trkpt lat="44.8911924" lon="7.2756292"><ele>607.0</ele><time>2026-04-05T09:27:34.971Z</time></trkpt><trkpt lat="44.8912212" lon="7.2754827"><ele>607.0</ele><time>2026-04-05T09:27:35.971Z</time></trkpt><trkpt lat="44.8912558" lon="7.2753341"><ele>607.0</ele><time>2026-04-05T09:27:36.971Z</time></trkpt><trkpt lat="44.8912832" lon="7.2752179"><ele>607.0</ele><time>2026-04-05T09:27:37.971Z</time></trkpt><trkpt lat="44.8913079" lon="7.2751196"><ele>607.0</ele><time>2026-04-05T09:27:38.971Z</time></trkpt><trkpt lat="44.8913906" lon="7.2750278"><ele>607.0</ele><time>2026-04-05T09:27:40.971Z</time></trkpt><trkpt lat="44.891447" lon="7.2751174"><ele>607.0</ele><time>2026-04-05T09:27:42.971Z</time></trkpt><trkpt lat="44.8914257" lon="7.2752828"><ele>607.0</ele><time>2026-04-05T09:27:44.971Z</time></trkpt><trkpt lat="44.8914258" lon="7.2754095"><ele>607.0</ele><time>2026-04-05T09:27:45.971Z</time></trkpt><trkpt lat="44.8914263" lon="7.2755504"><ele>607.0</ele><time>2026-04-05T09:27:46.971Z</time></trkpt><trkpt lat="44.8914318" lon="7.275708"><ele>607.0</ele><time>2026-04-05T09:27:47.971Z</time></trkpt><trkpt lat="44.891436" lon="7.2758395"><ele>611.2</ele><time>2026-04-05T09:27:48.971Z</time></trkpt><trkpt lat="44.8914516" lon="7.2759752"><ele>615.4000000000001</ele><time>2026-04-05T09:27:49.971Z</time></trkpt><trkpt lat="44.8914951" lon="7.2761145"><ele>619.5999999999999</ele><time>2026-04-05T09:27:50.971Z</time></trkpt><trkpt lat="44.8915568" lon="7.2762593"><ele>623.8</ele><time>2026-04-05T09:27:51.971Z</time></trkpt><trkpt lat="44.8916158" lon="7.2764128"><ele>628.0</ele><time>2026-04-05T09:27:52.971Z</time></trkpt><trkpt lat="44.8916713" lon="7.2765761"><ele>628.5</ele><time>2026-04-05T09:27:53.971Z</time></trkpt><trkpt lat="44.8917162" lon="7.2767556"><ele>629.0</ele><time>2026-04-05T09:27:54.971Z</time></trkpt><trkpt lat="44.8917456" lon="7.2769277"><ele>629.5</ele><time>2026-04-05T09:27:55.971Z</time></trkpt><trkpt lat="44.8917589" lon="7.2770783"><ele>630.0</ele><time>2026-04-05T09:27:56.971Z</time></trkpt><trkpt lat="44.8917683" lon="7.2772053"><ele>640.6</ele><time>2026-04-05T09:27:57.971Z</time></trkpt><trkpt lat="44.891795" lon="7.2773231"><ele>651.2</ele><time>2026-04-05T09:27:58.971Z</time></trkpt><trkpt lat="44.8918425" lon="7.2774334"><ele>661.8</ele><time>2026-04-05T09:27:59.971Z</time></trkpt><trkpt lat="44.8919053" lon="7.2775502"><ele>672.4</ele><time>2026-04-05T09:28:00.971Z</time></trkpt><trkpt lat="44.8919532" lon="7.277671"><ele>683.0</ele><time>2026-04-05T09:28:01.971Z</time></trkpt><trkpt lat="44.8919819" lon="7.2778079"><ele>683.0</ele><time>2026-04-05T09:28:02.971Z</time></trkpt><trkpt lat="44.8919909" lon="7.2779504"><ele>683.0</ele><time>2026-04-05T09:28:03.971Z</time></trkpt><trkpt lat="44.8919801" lon="7.2781042"><ele>683.0</ele><time>2026-04-05T09:28:04.971Z</time></trkpt><trkpt lat="44.8919612" lon="7.278254"><ele>683.0</ele><time>2026-04-05T09:28:05.971Z</time></trkpt><trkpt lat="44.891925" lon="7.2783861"><ele>683.0</ele><time>2026-04-05T09:28:06.971Z</time></trkpt><trkpt lat="44.8918738" lon="7.2784952"><ele>683.6666666666666</ele><time>2026-04-05T09:28:07.971Z</time></trkpt><trkpt lat="44.8918444" lon="7.2785919"><ele>684.3333333333333</ele><time>2026-04-05T09:28:08.971Z</time></trkpt><trkpt lat="44.8918173" lon="7.2787039"><ele>685.0</ele><time>2026-04-05T09:28:09.971Z</time></trkpt><trkpt lat="44.891807" lon="7.2788094"><ele>685.6666666666666</ele><time>2026-04-05T09:28:10.971Z</time></trkpt><trkpt lat="44.891813" lon="7.2789023"><ele>686.3333333333334</ele><time>2026-04-05T09:28:11.971Z</time></trkpt><trkpt lat="44.89189" lon="7.2790119"><ele>687.0</ele><time>2026-04-05T09:28:13.971Z</time></trkpt><trkpt lat="44.8920014" lon="7.2789419"><ele>687.0</ele><time>2026-04-05T09:28:15.971Z</time></trkpt><trkpt lat="44.8920537" lon="7.2788489"><ele>687.0</ele><time>2026-04-05T09:28:16.971Z</time></trkpt><trkpt lat="44.892114" lon="7.2787347"><ele>687.0</ele><time>2026-04-05T09:28:17.971Z</time></trkpt><trkpt lat="44.8921827" lon="7.2785821"><ele>687.0</ele><time>2026-04-05T09:28:18.972Z</time></trkpt><trkpt lat="44.8922377" lon="7.2784394"><ele>687.0</ele><time>2026-04-05T09:28:19.971Z</time></trkpt><trkpt lat="44.892288" lon="7.2782875"><ele>687.0</ele><time>2026-04-05T09:28:20.971Z</time></trkpt><trkpt lat="44.8923292" lon="7.2781333"><ele>687.0</ele><time>2026-04-05T09:28:21.971Z</time></trkpt><trkpt lat="44.8923516" lon="7.277992"><ele>687.0</ele><time>2026-04-05T09:28:22.971Z</time></trkpt><trkpt lat="44.8923439" lon="7.2778201"><ele>687.0</ele><time>2026-04-05T09:28:23.971Z</time></trkpt><trkpt lat="44.8923228" lon="7.277633"><ele>686.0</ele><time>2026-04-05T09:28:24.971Z</time></trkpt><trkpt lat="44.892313" lon="7.2774424"><ele>685.0</ele><time>2026-04-05T09:28:25.971Z</time></trkpt><trkpt lat="44.8923145" lon="7.2772566"><ele>684.0</ele><time>2026-04-05T09:28:26.971Z</time></trkpt><trkpt lat="44.8923291" lon="7.2770829"><ele>683.0</ele><time>2026-04-05T09:28:27.971Z</time></trkpt><trkpt lat="44.8923421" lon="7.2769155"><ele>682.2</ele><time>2026-04-05T09:28:28.971Z</time></trkpt><trkpt lat="44.8923647" lon="7.2767562"><ele>681.4</ele><time>2026-04-05T09:28:29.971Z</time></trkpt><trkpt lat="44.8923834" lon="7.2766023"><ele>680.6</ele><time>2026-04-05T09:28:30.971Z</time></trkpt><trkpt lat="44.8924029" lon="7.2764582"><ele>679.8000000000001</ele><time>2026-04-05T09:28:31.971Z</time></trkpt><trkpt lat="44.8924348" lon="7.2763357"><ele>679.0</ele><time>2026-04-05T09:28:32.971Z</time></trkpt><trkpt lat="44.8924678" lon="7.276239"><ele>679.0</ele><time>2026-04-05T09:28:33.971Z</time></trkpt><trkpt lat="44.8925261" lon="7.2761278"><ele>679.0</ele><time>2026-04-05T09:28:35.971Z</time></trkpt><trkpt lat="44.8925979" lon="7.2761593"><ele>679.0</ele><time>2026-04-05T09:28:37.971Z</time></trkpt><trkpt lat="44.8925829" lon="7.2762767"><ele>679.0</ele><time>2026-04-05T09:28:39.971Z</time></trkpt><trkpt lat="44.8925658" lon="7.2763694"><ele>679.0</ele><time>2026-04-05T09:28:40.971Z</time></trkpt><trkpt lat="44.8925643" lon="7.2764718"><ele>679.0</ele><time>2026-04-05T09:28:41.971Z</time></trkpt><trkpt lat="44.8925835" lon="7.2765868"><ele>686.5</ele><time>2026-04-05T09:28:42.971Z</time></trkpt><trkpt lat="44.8926231" lon="7.2767133"><ele>694.0</ele><time>2026-04-05T09:28:43.971Z</time></trkpt><trkpt lat="44.8926694" lon="7.2768642"><ele>701.5</ele><time>2026-04-05T09:28:44.971Z</time></trkpt><trkpt lat="44.8927041" lon="7.277023"><ele>709.0</ele><time>2026-04-05T09:28:45.971Z</time></trkpt><trkpt lat="44.8927298" lon="7.2771922"><ele>713.5</ele><time>2026-04-05T09:28:46.971Z</time></trkpt><trkpt lat="44.8927318" lon="7.2773937"><ele>718.0</ele><time>2026-04-05T09:28:47.971Z</time></trkpt><trkpt lat="44.8927219" lon="7.2776102"><ele>722.5</ele><time>2026-04-05T09:28:48.971Z</time></trkpt><trkpt lat="44.8927095" lon="7.2778194"><ele>727.0</ele><time>2026-04-05T09:28:49.971Z</time></trkpt><trkpt lat="44.8927039" lon="7.2780013"><ele>727.25</ele><time>2026-04-05T09:28:50.971Z</time></trkpt><trkpt lat="44.892707" lon="7.278208"><ele>727.5</ele><time>2026-04-05T09:28:51.971Z</time></trkpt><trkpt lat="44.8927239" lon="7.2783949"><ele>727.75</ele><time>2026-04-05T09:28:52.971Z</time></trkpt><trkpt lat="44.8927359" lon="7.2785715"><ele>728.0</ele><time>2026-04-05T09:28:53.971Z</time></trkpt><trkpt lat="44.8927454" lon="7.2787395"><ele>728.0</ele><time>2026-04-05T09:28:54.971Z</time></trkpt><trkpt lat="44.8927329" lon="7.2789034"><ele>728.0</ele><time>2026-04-05T09:28:55.971Z</time></trkpt><trkpt lat="44.892717" lon="7.2790676"><ele>728.0</ele><time>2026-04-05T09:28:56.971Z</time></trkpt><trkpt lat="44.8926996" lon="7.2792337"><ele>728.0</ele><time>2026-04-05T09:28:57.971Z</time></trkpt><trkpt lat="44.8926865" lon="7.2793904"><ele>727.3333333333333</ele><time>2026-04-05T09:28:58.971Z</time></trkpt><trkpt lat="44.8926666" lon="7.2795302"><ele>726.6666666666666</ele><time>2026-04-05T09:28:59.971Z</time></trkpt><trkpt lat="44.8926596" lon="7.2796754"><ele>726.0</ele><time>2026-04-05T09:29:00.971Z</time></trkpt><trkpt lat="44.8926589" lon="7.2797965"><ele>725.3333333333334</ele><time>2026-04-05T09:29:01.971Z</time></trkpt><trkpt lat="44.8926644" lon="7.2799067"><ele>724.6666666666667</ele><time>2026-04-05T09:29:02.971Z</time></trkpt><trkpt lat="44.8926769" lon="7.2800108"><ele>724.0</ele><time>2026-04-05T09:29:03.971Z</time></trkpt><trkpt lat="44.8927144" lon="7.2800955"><ele>722.6666666666667</ele><time>2026-04-05T09:29:04.971Z</time></trkpt><trkpt lat="44.89278" lon="7.2801381"><ele>721.3333333333334</ele><time>2026-04-05T09:29:05.971Z</time></trkpt><trkpt lat="44.8928504" lon="7.280141"><ele>720.0</ele><time>2026-04-05T09:29:06.971Z</time></trkpt><trkpt lat="44.8929156" lon="7.2801016"><ele>718.6666666666666</ele><time>2026-04-05T09:29:07.971Z</time></trkpt><trkpt lat="44.8929761" lon="7.2800218"><ele>717.3333333333333</ele><time>2026-04-05T09:29:08.971Z</time></trkpt><trkpt lat="44.8930343" lon="7.2799279"><ele>716.0</ele><time>2026-04-05T09:29:09.971Z</time></trkpt><trkpt lat="44.893103" lon="7.2798212"><ele>717.5999999999999</ele><time>2026-04-05T09:29:10.971Z</time></trkpt><trkpt lat="44.8931807" lon="7.2797209"><ele>719.2</ele><time>2026-04-05T09:29:11.971Z</time></trkpt><trkpt lat="44.8932525" lon="7.2796323"><ele>720.8</ele><time>2026-04-05T09:29:12.971Z</time></trkpt><trkpt lat="44.893321" lon="7.2795628"><ele>722.4000000000001</ele><time>2026-04-05T09:29:13.971Z</time></trkpt><trkpt lat="44.8933947" lon="7.279509"><ele>724.0</ele><time>2026-04-05T09:29:14.971Z</time></trkpt><trkpt lat="44.8934767" lon="7.2795024"><ele>726.0</ele><time>2026-04-05T09:29:15.971Z</time></trkpt><trkpt lat="44.8935573" lon="7.2795411"><ele>728.0</ele><time>2026-04-05T09:29:16.971Z</time></trkpt><trkpt lat="44.8936329" lon="7.2795977"><ele>730.0</ele><time>2026-04-05T09:29:17.971Z</time></trkpt><trkpt lat="44.8937305" lon="7.2796777"><ele>732.0</ele><time>2026-04-05T09:29:18.971Z</time></trkpt><trkpt lat="44.8938168" lon="7.279743"><ele>734.0</ele><time>2026-04-05T09:29:19.971Z</time></trkpt><trkpt lat="44.8938923" lon="7.2798029"><ele>734.0</ele><time>2026-04-05T09:29:20.971Z</time></trkpt><trkpt lat="44.8939527" lon="7.2798847"><ele>734.0</ele><time>2026-04-05T09:29:21.971Z</time></trkpt><trkpt lat="44.8940066" lon="7.2799839"><ele>734.0</ele><time>2026-04-05T09:29:22.971Z</time></trkpt><trkpt lat="44.8940492" lon="7.2800896"><ele>734.0</ele><time>2026-04-05T09:29:23.971Z</time></trkpt><trkpt lat="44.8940833" lon="7.2801836"><ele>734.0</ele><time>2026-04-05T09:29:24.971Z</time></trkpt><trkpt lat="44.8941682" lon="7.2802331"><ele>734.0</ele><time>2026-04-05T09:29:26.971Z</time></trkpt><trkpt lat="44.8942406" lon="7.2801165"><ele>734.0</ele><time>2026-04-05T09:29:28.971Z</time></trkpt><trkpt lat="44.894241" lon="7.2799991"><ele>734.0</ele><time>2026-04-05T09:29:29.971Z</time></trkpt><trkpt lat="44.8942395" lon="7.2798846"><ele>734.0</ele><time>2026-04-05T09:29:30.971Z</time></trkpt><trkpt lat="44.894238" lon="7.2797482"><ele>734.0</ele><time>2026-04-05T09:29:31.971Z</time></trkpt><trkpt lat="44.8942353" lon="7.2795815"><ele>734.0</ele><time>2026-04-05T09:29:32.971Z</time></trkpt><trkpt lat="44.8942195" lon="7.2794112"><ele>735.0</ele><time>2026-04-05T09:29:33.971Z</time></trkpt><trkpt lat="44.8942038" lon="7.2792483"><ele>736.0</ele><time>2026-04-05T09:29:34.971Z</time></trkpt><trkpt lat="44.8941898" lon="7.2790958"><ele>737.0</ele><time>2026-04-05T09:29:35.971Z</time></trkpt><trkpt lat="44.8941784" lon="7.2789698"><ele>738.0</ele><time>2026-04-05T09:29:36.971Z</time></trkpt><trkpt lat="44.8941766" lon="7.2788549"><ele>739.0</ele><time>2026-04-05T09:29:37.971Z</time></trkpt><trkpt lat="44.8941863" lon="7.278752"><ele>739.5</ele><time>2026-04-05T09:29:38.971Z</time></trkpt><trkpt lat="44.8942113" lon="7.2785937"><ele>740.0</ele><time>2026-04-05T09:29:40.971Z</time></trkpt><trkpt lat="44.8942436" lon="7.2784727"><ele>740.5</ele><time>2026-04-05T09:29:42.971Z</time></trkpt><trkpt lat="44.8943" lon="7.2783949"><ele>741.0</ele><time>2026-04-05T09:29:44.971Z</time></trkpt><trkpt lat="44.8943763" lon="7.2784067"><ele>741.5</ele><time>2026-04-05T09:29:46.971Z</time></trkpt><trkpt lat="44.8944436" lon="7.2784572"><ele>742.0</ele><time>2026-04-05T09:29:48.971Z</time></trkpt><trkpt lat="44.894499" lon="7.2785324"><ele>744.0</ele><time>2026-04-05T09:30:40.971Z</time></trkpt><trkpt lat="44.894544" lon="7.2785966"><ele>746.0</ele><time>2026-04-05T09:30:42.971Z</time></trkpt><trkpt lat="44.8946081" lon="7.2787218"><ele>748.0</ele><time>2026-04-05T09:30:44.971Z</time></trkpt><trkpt lat="44.8946702" lon="7.2788223"><ele>750.0</ele><time>2026-04-05T09:30:46.971Z</time></trkpt><trkpt lat="44.8947586" lon="7.2789157"><ele>752.0</ele><time>2026-04-05T09:30:48.971Z</time></trkpt><trkpt lat="44.8948691" lon="7.2790148"><ele>752.4000000000001</ele><time>2026-04-05T09:30:50.971Z</time></trkpt><trkpt lat="44.8949229" lon="7.2790698"><ele>752.8000000000001</ele><time>2026-04-05T09:30:51.971Z</time></trkpt><trkpt lat="44.8950158" lon="7.2791855"><ele>753.2</ele><time>2026-04-05T09:30:53.971Z</time></trkpt><trkpt lat="44.8950703" lon="7.279246"><ele>753.6</ele><time>2026-04-05T09:30:54.971Z</time></trkpt><trkpt lat="44.8951191" lon="7.2794076"><ele>754.0</ele><time>2026-04-05T09:30:56.971Z</time></trkpt><trkpt lat="44.895143" lon="7.2795439"><ele>756.3333333333334</ele><time>2026-04-05T09:30:57.971Z</time></trkpt><trkpt lat="44.895156" lon="7.2796502"><ele>758.6666666666667</ele><time>2026-04-05T09:30:58.971Z</time></trkpt><trkpt lat="44.8951799" lon="7.2797587"><ele>761.0</ele><time>2026-04-05T09:30:59.971Z</time></trkpt><trkpt lat="44.8951784" lon="7.2798632"><ele>763.3333333333334</ele><time>2026-04-05T09:31:00.971Z</time></trkpt><trkpt lat="44.8952048" lon="7.2799839"><ele>765.6666666666666</ele><time>2026-04-05T09:31:01.971Z</time></trkpt><trkpt lat="44.8952331" lon="7.2800934"><ele>768.0</ele><time>2026-04-05T09:31:02.971Z</time></trkpt><trkpt lat="44.895257" lon="7.2801965"><ele>769.0</ele><time>2026-04-05T09:31:03.971Z</time></trkpt><trkpt lat="44.8952786" lon="7.2802997"><ele>770.0</ele><time>2026-04-05T09:31:04.971Z</time></trkpt><trkpt lat="44.8953188" lon="7.2804188"><ele>771.0</ele><time>2026-04-05T09:31:05.971Z</time></trkpt><trkpt lat="44.8953604" lon="7.280525"><ele>772.0</ele><time>2026-04-05T09:31:06.971Z</time></trkpt><trkpt lat="44.8954029" lon="7.2806233"><ele>773.0</ele><time>2026-04-05T09:31:07.971Z</time></trkpt><trkpt lat="44.8954485" lon="7.2807112"><ele>774.0</ele><time>2026-04-05T09:31:08.971Z</time></trkpt><trkpt lat="44.895484" lon="7.2807931"><ele>775.1666666666666</ele><time>2026-04-05T09:31:09.971Z</time></trkpt><trkpt lat="44.8954885" lon="7.280978"><ele>776.3333333333333</ele><time>2026-04-05T09:31:11.971Z</time></trkpt><trkpt lat="44.8954817" lon="7.2810795"><ele>777.5</ele><time>2026-04-05T09:31:12.971Z</time></trkpt><trkpt lat="44.8954918" lon="7.2812054"><ele>778.6666666666666</ele><time>2026-04-05T09:31:13.971Z</time></trkpt><trkpt lat="44.8954925" lon="7.2813225"><ele>779.8333333333333</ele><time>2026-04-05T09:31:14.971Z</time></trkpt><trkpt lat="44.8955038" lon="7.2814182"><ele>781.0</ele><time>2026-04-05T09:31:15.971Z</time></trkpt><trkpt lat="44.8954976" lon="7.2815138"><ele>781.0</ele><time>2026-04-05T09:31:16.971Z</time></trkpt><trkpt lat="44.8954936" lon="7.2816378"><ele>781.0</ele><time>2026-04-05T09:31:18.971Z</time></trkpt><trkpt lat="44.8955296" lon="7.2817118"><ele>781.0</ele><time>2026-04-05T09:31:20.971Z</time></trkpt><trkpt lat="44.8955978" lon="7.2816256"><ele>781.0</ele><time>2026-04-05T09:31:23.971Z</time></trkpt><trkpt lat="44.895637" lon="7.281475"><ele>781.0</ele><time>2026-04-05T09:31:25.971Z</time></trkpt><trkpt lat="44.895687" lon="7.2813341"><ele>780.9999999999999</ele><time>2026-04-05T09:31:27.971Z</time></trkpt><trkpt lat="44.8957274" lon="7.2812213"><ele>781.0</ele><time>2026-04-05T09:31:28.971Z</time></trkpt><trkpt lat="44.8957594" lon="7.2811249"><ele>781.0</ele><time>2026-04-05T09:31:29.971Z</time></trkpt><trkpt lat="44.8957956" lon="7.2810381"><ele>781.0</ele><time>2026-04-05T09:31:30.971Z</time></trkpt><trkpt lat="44.895836" lon="7.2809277"><ele>780.9999999999999</ele><time>2026-04-05T09:31:31.971Z</time></trkpt><trkpt lat="44.8958944" lon="7.2808026"><ele>781.0</ele><time>2026-04-05T09:31:32.971Z</time></trkpt><trkpt lat="44.8959434" lon="7.2806833"><ele>783.1666666666666</ele><time>2026-04-05T09:31:33.971Z</time></trkpt><trkpt lat="44.895994" lon="7.280575"><ele>785.3333333333333</ele><time>2026-04-05T09:31:34.971Z</time></trkpt><trkpt lat="44.8960474" lon="7.2804671"><ele>787.5</ele><time>2026-04-05T09:31:35.971Z</time></trkpt><trkpt lat="44.8960901" lon="7.2803736"><ele>789.6666666666667</ele><time>2026-04-05T09:31:36.971Z</time></trkpt><trkpt lat="44.8961371" lon="7.2803025"><ele>791.8333333333334</ele><time>2026-04-05T09:31:37.971Z</time></trkpt><trkpt lat="44.8961839" lon="7.2802347"><ele>794.0</ele><time>2026-04-05T09:31:38.971Z</time></trkpt><trkpt lat="44.8962314" lon="7.2801456"><ele>794.0000000000001</ele><time>2026-04-05T09:31:39.971Z</time></trkpt><trkpt lat="44.8962933" lon="7.2800712"><ele>794.0</ele><time>2026-04-05T09:31:40.971Z</time></trkpt><trkpt lat="44.8963566" lon="7.280013"><ele>794.0</ele><time>2026-04-05T09:31:41.971Z</time></trkpt><trkpt lat="44.8964192" lon="7.2799796"><ele>794.0</ele><time>2026-04-05T09:31:42.971Z</time></trkpt><trkpt lat="44.8964999" lon="7.2799468"><ele>794.0000000000001</ele><time>2026-04-05T09:31:43.971Z</time></trkpt><trkpt lat="44.8965933" lon="7.2799169"><ele>794.0</ele><time>2026-04-05T09:31:44.971Z</time></trkpt><trkpt lat="44.8966738" lon="7.2798938"><ele>794.0000000000001</ele><time>2026-04-05T09:31:45.971Z</time></trkpt><trkpt lat="44.8967486" lon="7.2798438"><ele>794.0</ele><time>2026-04-05T09:31:46.971Z</time></trkpt><trkpt lat="44.89683" lon="7.2797937"><ele>794.0</ele><time>2026-04-05T09:31:47.971Z</time></trkpt><trkpt lat="44.8969066" lon="7.2797358"><ele>794.0</ele><time>2026-04-05T09:31:48.971Z</time></trkpt><trkpt lat="44.8969801" lon="7.2796923"><ele>794.0000000000001</ele><time>2026-04-05T09:31:49.971Z</time></trkpt><trkpt lat="44.8970515" lon="7.2796562"><ele>794.0</ele><time>2026-04-05T09:31:50.971Z</time></trkpt><trkpt lat="44.8971275" lon="7.2796268"><ele>796.1666666666667</ele><time>2026-04-05T09:31:51.971Z</time></trkpt><trkpt lat="44.8972013" lon="7.2796097"><ele>798.3333333333334</ele><time>2026-04-05T09:31:52.971Z</time></trkpt><trkpt lat="44.897278" lon="7.2795891"><ele>800.5</ele><time>2026-04-05T09:31:53.971Z</time></trkpt><trkpt lat="44.8973503" lon="7.2795848"><ele>802.6666666666667</ele><time>2026-04-05T09:31:54.971Z</time></trkpt><trkpt lat="44.8974186" lon="7.279623"><ele>804.8333333333334</ele><time>2026-04-05T09:31:56.971Z</time></trkpt><trkpt lat="44.8974242" lon="7.2797477"><ele>807.0</ele><time>2026-04-05T09:32:00.971Z</time></trkpt><trkpt lat="44.8973787" lon="7.2798465"><ele>807.1666666666666</ele><time>2026-04-05T09:32:02.971Z</time></trkpt><trkpt lat="44.8973525" lon="7.2799374"><ele>807.3333333333333</ele><time>2026-04-05T09:32:03.971Z</time></trkpt><trkpt lat="44.8973185" lon="7.2801079"><ele>807.5</ele><time>2026-04-05T09:32:05.971Z</time></trkpt><trkpt lat="44.8973064" lon="7.2802018"><ele>807.6666666666666</ele><time>2026-04-05T09:32:06.971Z</time></trkpt><trkpt lat="44.8972899" lon="7.280292"><ele>807.8333333333333</ele><time>2026-04-05T09:32:07.971Z</time></trkpt><trkpt lat="44.8972527" lon="7.2804174"><ele>808.0</ele><time>2026-04-05T09:32:08.971Z</time></trkpt><trkpt lat="44.8972155" lon="7.2805046"><ele>808.0</ele><time>2026-04-05T09:32:09.971Z</time></trkpt><trkpt lat="44.8971714" lon="7.2805744"><ele>808.0</ele><time>2026-04-05T09:32:10.971Z</time></trkpt><trkpt lat="44.8971058" lon="7.2806978"><ele>808.0</ele><time>2026-04-05T09:32:12.971Z</time></trkpt><trkpt lat="44.8971113" lon="7.2808208"><ele>808.0</ele><time>2026-04-05T09:32:14.971Z</time></trkpt><trkpt lat="44.8971702" lon="7.2808948"><ele>808.0</ele><time>2026-04-05T09:32:16.971Z</time></trkpt><trkpt lat="44.8972847" lon="7.2808969"><ele>809.9999999999999</ele><time>2026-04-05T09:32:18.971Z</time></trkpt><trkpt lat="44.8973933" lon="7.2808907"><ele>812.0</ele><time>2026-04-05T09:32:20.971Z</time></trkpt><trkpt lat="44.8974572" lon="7.2808619"><ele>814.0</ele><time>2026-04-05T09:32:21.971Z</time></trkpt><trkpt lat="44.8975291" lon="7.2808297"><ele>816.0</ele><time>2026-04-05T09:32:22.971Z</time></trkpt><trkpt lat="44.8976022" lon="7.2807921"><ele>817.9999999999999</ele><time>2026-04-05T09:32:23.971Z</time></trkpt><trkpt lat="44.8976827" lon="7.2807439"><ele>820.0</ele><time>2026-04-05T09:32:24.971Z</time></trkpt><trkpt lat="44.8977608" lon="7.280684"><ele>822.6666666666666</ele><time>2026-04-05T09:32:25.971Z</time></trkpt><trkpt lat="44.89785" lon="7.280628"><ele>825.3333333333333</ele><time>2026-04-05T09:32:26.971Z</time></trkpt><trkpt lat="44.8979312" lon="7.280576"><ele>828.0</ele><time>2026-04-05T09:32:27.971Z</time></trkpt><trkpt lat="44.8980017" lon="7.2805103"><ele>830.6666666666667</ele><time>2026-04-05T09:32:28.971Z</time></trkpt><trkpt lat="44.8980642" lon="7.2804584"><ele>833.3333333333334</ele><time>2026-04-05T09:32:29.971Z</time></trkpt><trkpt lat="44.8981465" lon="7.2803922"><ele>836.0</ele><time>2026-04-05T09:32:30.971Z</time></trkpt><trkpt lat="44.8982207" lon="7.280323"><ele>836.0</ele><time>2026-04-05T09:32:31.971Z</time></trkpt><trkpt lat="44.8982833" lon="7.2802575"><ele>836.0</ele><time>2026-04-05T09:32:32.971Z</time></trkpt><trkpt lat="44.8983262" lon="7.2801894"><ele>836.0</ele><time>2026-04-05T09:32:33.971Z</time></trkpt><trkpt lat="44.8983745" lon="7.2800423"><ele>836.0</ele><time>2026-04-05T09:32:35.971Z</time></trkpt><trkpt lat="44.8983617" lon="7.2798627"><ele>836.0</ele><time>2026-04-05T09:32:37.971Z</time></trkpt><trkpt lat="44.8983414" lon="7.2797721"><ele>835.6666666666667</ele><time>2026-04-05T09:32:38.971Z</time></trkpt><trkpt lat="44.8983288" lon="7.2796678"><ele>835.3333333333334</ele><time>2026-04-05T09:32:39.971Z</time></trkpt><trkpt lat="44.8983248" lon="7.2795482"><ele>835.0</ele><time>2026-04-05T09:32:40.971Z</time></trkpt><trkpt lat="44.8983274" lon="7.2794539"><ele>834.6666666666667</ele><time>2026-04-05T09:32:41.971Z</time></trkpt><trkpt lat="44.8983363" lon="7.2793657"><ele>834.3333333333334</ele><time>2026-04-05T09:32:42.971Z</time></trkpt><trkpt lat="44.8983926" lon="7.2792539"><ele>834.0</ele><time>2026-04-05T09:32:44.971Z</time></trkpt><trkpt lat="44.8984762" lon="7.279216"><ele>835.8000000000001</ele><time>2026-04-05T09:32:46.971Z</time></trkpt><trkpt lat="44.8985856" lon="7.279237"><ele>837.6</ele><time>2026-04-05T09:32:48.971Z</time></trkpt><trkpt lat="44.8986957" lon="7.2792984"><ele>839.4</ele><time>2026-04-05T09:32:50.971Z</time></trkpt><trkpt lat="44.8987562" lon="7.2793231"><ele>841.2</ele><time>2026-04-05T09:32:51.971Z</time></trkpt><trkpt lat="44.8988754" lon="7.2793807"><ele>843.0</ele><time>2026-04-05T09:32:53.971Z</time></trkpt><trkpt lat="44.8989798" lon="7.279419"><ele>843.0</ele><time>2026-04-05T09:32:55.971Z</time></trkpt><trkpt lat="44.899088" lon="7.2794404"><ele>843.0</ele><time>2026-04-05T09:32:57.971Z</time></trkpt><trkpt lat="44.8992105" lon="7.2794538"><ele>843.0</ele><time>2026-04-05T09:32:59.971Z</time></trkpt><trkpt lat="44.8993448" lon="7.2794688"><ele>843.0</ele><time>2026-04-05T09:33:01.971Z</time></trkpt><trkpt lat="44.8994084" lon="7.2794485"><ele>843.0</ele><time>2026-04-05T09:33:02.971Z</time></trkpt><trkpt lat="44.8995195" lon="7.2794122"><ele>846.4</ele><time>2026-04-05T09:33:04.971Z</time></trkpt><trkpt lat="44.8995856" lon="7.2793813"><ele>849.8</ele><time>2026-04-05T09:33:05.971Z</time></trkpt><trkpt lat="44.8996517" lon="7.2793769"><ele>853.2</ele><time>2026-04-05T09:33:06.971Z</time></trkpt><trkpt lat="44.89976" lon="7.2792663"><ele>856.6</ele><time>2026-04-05T09:33:08.971Z</time></trkpt><trkpt lat="44.8998491" lon="7.2791415"><ele>860.0</ele><time>2026-04-05T09:33:10.971Z</time></trkpt><trkpt lat="44.8998733" lon="7.2790236"><ele>860.6666666666667</ele><time>2026-04-05T09:33:11.971Z</time></trkpt><trkpt lat="44.8999173" lon="7.2789156"><ele>861.3333333333334</ele><time>2026-04-05T09:33:12.971Z</time></trkpt><trkpt lat="44.8999729" lon="7.278848"><ele>862.0</ele><time>2026-04-05T09:33:13.971Z</time></trkpt><trkpt lat="44.900046" lon="7.2788293"><ele>862.6666666666667</ele><time>2026-04-05T09:33:14.971Z</time></trkpt><trkpt lat="44.9001051" lon="7.2787953"><ele>863.3333333333334</ele><time>2026-04-05T09:33:15.971Z</time></trkpt><trkpt lat="44.9002202" lon="7.2787361"><ele>864.0</ele><time>2026-04-05T09:33:17.971Z</time></trkpt><trkpt lat="44.90031" lon="7.2787012"><ele>864.0</ele><time>2026-04-05T09:33:19.971Z</time></trkpt><trkpt lat="44.9003986" lon="7.2786702"><ele>864.0</ele><time>2026-04-05T09:33:21.971Z</time></trkpt><trkpt lat="44.9004763" lon="7.2786486"><ele>864.0</ele><time>2026-04-05T09:33:23.971Z</time></trkpt><trkpt lat="44.9005387" lon="7.2786062"><ele>864.0</ele><time>2026-04-05T09:33:25.971Z</time></trkpt><trkpt lat="44.9006149" lon="7.2786364"><ele>864.0</ele><time>2026-04-05T09:33:28.971Z</time></trkpt><trkpt lat="44.9005609" lon="7.2787714"><ele>864.0</ele><time>2026-04-05T09:33:31.971Z</time></trkpt><trkpt lat="44.9004944" lon="7.2788502"><ele>867.5</ele><time>2026-04-05T09:33:33.971Z</time></trkpt><trkpt lat="44.9004215" lon="7.2789977"><ele>871.0</ele><time>2026-04-05T09:33:35.971Z</time></trkpt><trkpt lat="44.9003574" lon="7.2791286"><ele>874.5</ele><time>2026-04-05T09:33:37.971Z</time></trkpt><trkpt lat="44.9003116" lon="7.2792804"><ele>878.0</ele><time>2026-04-05T09:33:39.971Z</time></trkpt><trkpt lat="44.9003098" lon="7.2794287"><ele>878.0</ele><time>2026-04-05T09:33:41.971Z</time></trkpt><trkpt lat="44.9002964" lon="7.279583"><ele>878.0</ele><time>2026-04-05T09:33:43.971Z</time></trkpt><trkpt lat="44.9002842" lon="7.2797265"><ele>878.0</ele><time>2026-04-05T09:33:45.971Z</time></trkpt><trkpt lat="44.9002344" lon="7.2798648"><ele>878.0</ele><time>2026-04-05T09:33:47.971Z</time></trkpt><trkpt lat="44.9002057" lon="7.2799479"><ele>878.0</ele><time>2026-04-05T09:33:48.971Z</time></trkpt><trkpt lat="44.9001854" lon="7.2800438"><ele>878.4</ele><time>2026-04-05T09:33:49.971Z</time></trkpt><trkpt lat="44.9001527" lon="7.2802199"><ele>878.8</ele><time>2026-04-05T09:33:51.971Z</time></trkpt><trkpt lat="44.9001438" lon="7.2803316"><ele>879.2</ele><time>2026-04-05T09:33:52.971Z</time></trkpt><trkpt lat="44.9001289" lon="7.280433"><ele>879.6</ele><time>2026-04-05T09:33:53.971Z</time></trkpt><trkpt lat="44.9001044" lon="7.280542"><ele>880.0</ele><time>2026-04-05T09:33:54.971Z</time></trkpt><trkpt lat="44.9000599" lon="7.2806967"><ele>879.9999999999999</ele><time>2026-04-05T09:33:55.971Z</time></trkpt><trkpt lat="44.9000254" lon="7.2808162"><ele>880.0</ele><time>2026-04-05T09:33:56.971Z</time></trkpt><trkpt lat="44.899988" lon="7.2809511"><ele>880.0</ele><time>2026-04-05T09:33:57.971Z</time></trkpt><trkpt lat="44.8999549" lon="7.2810684"><ele>880.0</ele><time>2026-04-05T09:33:58.971Z</time></trkpt><trkpt lat="44.8999182" lon="7.2811683"><ele>879.9999999999999</ele><time>2026-04-05T09:33:59.971Z</time></trkpt><trkpt lat="44.8998782" lon="7.2812429"><ele>880.0</ele><time>2026-04-05T09:34:00.971Z</time></trkpt><trkpt lat="44.8998463" lon="7.2813255"><ele>881.3333333333333</ele><time>2026-04-05T09:34:01.971Z</time></trkpt><trkpt lat="44.8998341" lon="7.2814919"><ele>882.6666666666666</ele><time>2026-04-05T09:34:03.971Z</time></trkpt><trkpt lat="44.8998381" lon="7.281586"><ele>884.0</ele><time>2026-04-05T09:34:04.971Z</time></trkpt><trkpt lat="44.8998616" lon="7.2816808"><ele>885.3333333333333</ele><time>2026-04-05T09:34:05.971Z</time></trkpt><trkpt lat="44.8998976" lon="7.2817703"><ele>886.6666666666666</ele><time>2026-04-05T09:34:06.971Z</time></trkpt><trkpt lat="44.8999335" lon="7.2818478"><ele>888.0</ele><time>2026-04-05T09:34:07.971Z</time></trkpt><trkpt lat="44.8999759" lon="7.2819171"><ele>888.0</ele><time>2026-04-05T09:34:08.971Z</time></trkpt><trkpt lat="44.9000222" lon="7.2819779"><ele>888.0</ele><time>2026-04-05T09:34:09.971Z</time></trkpt><trkpt lat="44.9000722" lon="7.282037"><ele>888.0</ele><time>2026-04-05T09:34:10.971Z</time></trkpt><trkpt lat="44.9001665" lon="7.2821451"><ele>888.0</ele><time>2026-04-05T09:34:12.971Z</time></trkpt><trkpt lat="44.9002648" lon="7.2821906"><ele>888.0</ele><time>2026-04-05T09:34:14.971Z</time></trkpt><trkpt lat="44.9003839" lon="7.2821574"><ele>890.0</ele><time>2026-04-05T09:34:16.971Z</time></trkpt><trkpt lat="44.9004557" lon="7.2821304"><ele>892.0</ele><time>2026-04-05T09:34:17.971Z</time></trkpt><trkpt lat="44.9005255" lon="7.2821086"><ele>894.0</ele><time>2026-04-05T09:34:18.971Z</time></trkpt><trkpt lat="44.9005933" lon="7.2820873"><ele>896.0</ele><time>2026-04-05T09:34:19.971Z</time></trkpt><trkpt lat="44.9006587" lon="7.2820537"><ele>898.0</ele><time>2026-04-05T09:34:20.971Z</time></trkpt><trkpt lat="44.9007776" lon="7.2819996"><ele>900.0</ele><time>2026-04-05T09:34:22.971Z</time></trkpt><trkpt lat="44.9008906" lon="7.2819584"><ele>902.8</ele><time>2026-04-05T09:34:24.971Z</time></trkpt><trkpt lat="44.9010081" lon="7.2819411"><ele>905.6</ele><time>2026-04-05T09:34:26.971Z</time></trkpt><trkpt lat="44.9011234" lon="7.2819269"><ele>908.4000000000001</ele><time>2026-04-05T09:34:28.971Z</time></trkpt><trkpt lat="44.9012385" lon="7.2818997"><ele>911.2</ele><time>2026-04-05T09:34:30.971Z</time></trkpt><trkpt lat="44.9013011" lon="7.2818872"><ele>914.0</ele><time>2026-04-05T09:34:31.971Z</time></trkpt><trkpt lat="44.9013659" lon="7.2818711"><ele>914.0</ele><time>2026-04-05T09:34:32.971Z</time></trkpt><trkpt lat="44.9014255" lon="7.2818389"><ele>914.0000000000001</ele><time>2026-04-05T09:34:33.971Z</time></trkpt><trkpt lat="44.901533" lon="7.2818041"><ele>914.0000000000001</ele><time>2026-04-05T09:34:35.971Z</time></trkpt><trkpt lat="44.9016295" lon="7.2818306"><ele>914.0</ele><time>2026-04-05T09:34:37.971Z</time></trkpt><trkpt lat="44.9017206" lon="7.2818876"><ele>914.0</ele><time>2026-04-05T09:34:39.971Z</time></trkpt><trkpt lat="44.9018393" lon="7.2819633"><ele>916.5000000000001</ele><time>2026-04-05T09:34:41.971Z</time></trkpt><trkpt lat="44.9018935" lon="7.2820207"><ele>919.0</ele><time>2026-04-05T09:34:42.971Z</time></trkpt><trkpt lat="44.9019656" lon="7.282122"><ele>921.5</ele><time>2026-04-05T09:34:44.971Z</time></trkpt><trkpt lat="44.9020626" lon="7.2821991"><ele>924.0</ele><time>2026-04-05T09:34:46.971Z</time></trkpt><trkpt lat="44.9021275" lon="7.2822139"><ele>926.5000000000001</ele><time>2026-04-05T09:34:47.971Z</time></trkpt><trkpt lat="44.9021936" lon="7.2822317"><ele>929.0</ele><time>2026-04-05T09:34:48.971Z</time></trkpt><trkpt lat="44.9022548" lon="7.2822625"><ele>928.8000000000001</ele><time>2026-04-05T09:34:49.971Z</time></trkpt><trkpt lat="44.9023165" lon="7.2822863"><ele>928.6000000000001</ele><time>2026-04-05T09:34:50.971Z</time></trkpt><trkpt lat="44.9023819" lon="7.2822894"><ele>928.4</ele><time>2026-04-05T09:34:51.971Z</time></trkpt><trkpt lat="44.9025072" lon="7.2822939"><ele>928.2</ele><time>2026-04-05T09:34:53.971Z</time></trkpt><trkpt lat="44.9025868" lon="7.2822681"><ele>928.0</ele><time>2026-04-05T09:34:54.971Z</time></trkpt><trkpt lat="44.9026999" lon="7.2822779"><ele>927.9999999999999</ele><time>2026-04-05T09:34:56.971Z</time></trkpt><trkpt lat="44.9028091" lon="7.2822931"><ele>928.0</ele><time>2026-04-05T09:34:58.971Z</time></trkpt><trkpt lat="44.902882" lon="7.2822736"><ele>928.0</ele><time>2026-04-05T09:35:00.971Z</time></trkpt><trkpt lat="44.9029275" lon="7.2821922"><ele>928.0</ele><time>2026-04-05T09:35:02.971Z</time></trkpt><trkpt lat="44.9028989" lon="7.2820707"><ele>927.9999999999999</ele><time>2026-04-05T09:35:05.971Z</time></trkpt><trkpt lat="44.9028504" lon="7.2819649"><ele>928.0</ele><time>2026-04-05T09:35:07.971Z</time></trkpt><trkpt lat="44.9028294" lon="7.2818363"><ele>930.8</ele><time>2026-04-05T09:35:09.971Z</time></trkpt><trkpt lat="44.9028431" lon="7.2816978"><ele>933.5999999999999</ele><time>2026-04-05T09:35:11.971Z</time></trkpt><trkpt lat="44.9028972" lon="7.2815749"><ele>936.4000000000001</ele><time>2026-04-05T09:35:13.971Z</time></trkpt><trkpt lat="44.9029775" lon="7.2814687"><ele>939.2</ele><time>2026-04-05T09:35:15.971Z</time></trkpt><trkpt lat="44.9030534" lon="7.2813851"><ele>942.0</ele><time>2026-04-05T09:35:17.971Z</time></trkpt><trkpt lat="44.9030937" lon="7.2813055"><ele>942.6</ele><time>2026-04-05T09:35:18.971Z</time></trkpt><trkpt lat="44.9031699" lon="7.2811828"><ele>943.2</ele><time>2026-04-05T09:35:20.971Z</time></trkpt><trkpt lat="44.9032518" lon="7.2810618"><ele>943.8</ele><time>2026-04-05T09:35:22.971Z</time></trkpt><trkpt lat="44.9033418" lon="7.2809928"><ele>944.4</ele><time>2026-04-05T09:35:24.971Z</time></trkpt><trkpt lat="44.9034382" lon="7.2809727"><ele>945.0</ele><time>2026-04-05T09:35:26.971Z</time></trkpt><trkpt lat="44.9035582" lon="7.2809537"><ele>946.5</ele><time>2026-04-05T09:35:28.971Z</time></trkpt><trkpt lat="44.9036628" lon="7.2809179"><ele>948.0</ele><time>2026-04-05T09:35:30.971Z</time></trkpt><trkpt lat="44.9037846" lon="7.2808922"><ele>949.5</ele><time>2026-04-05T09:35:32.971Z</time></trkpt><trkpt lat="44.9038581" lon="7.2808871"><ele>951.0</ele><time>2026-04-05T09:35:33.971Z</time></trkpt><trkpt lat="44.9039256" lon="7.2808722"><ele>952.5</ele><time>2026-04-05T09:35:34.971Z</time></trkpt><trkpt lat="44.9039968" lon="7.2808521"><ele>954.0</ele><time>2026-04-05T09:35:35.971Z</time></trkpt><trkpt lat="44.9040647" lon="7.280829"><ele>954.0</ele><time>2026-04-05T09:35:36.971Z</time></trkpt><trkpt lat="44.9041363" lon="7.2808069"><ele>954.0</ele><time>2026-04-05T09:35:37.971Z</time></trkpt><trkpt lat="44.904215" lon="7.2807779"><ele>954.0</ele><time>2026-04-05T09:35:38.971Z</time></trkpt><trkpt lat="44.9042901" lon="7.2807694"><ele>954.0</ele><time>2026-04-05T09:35:39.971Z</time></trkpt><trkpt lat="44.9043621" lon="7.2807617"><ele>954.0</ele><time>2026-04-05T09:35:40.971Z</time></trkpt><trkpt lat="44.9044337" lon="7.2807566"><ele>954.0</ele><time>2026-04-05T09:35:41.971Z</time></trkpt><trkpt lat="44.9045575" lon="7.2807747"><ele>956.5</ele><time>2026-04-05T09:35:43.971Z</time></trkpt><trkpt lat="44.9046306" lon="7.2807763"><ele>959.0</ele><time>2026-04-05T09:35:44.971Z</time></trkpt><trkpt lat="44.9046949" lon="7.2807677"><ele>961.5</ele><time>2026-04-05T09:35:45.971Z</time></trkpt><trkpt lat="44.9048364" lon="7.2807684"><ele>964.0</ele><time>2026-04-05T09:35:47.971Z</time></trkpt><trkpt lat="44.9049095" lon="7.2807996"><ele>966.5</ele><time>2026-04-05T09:35:48.971Z</time></trkpt><trkpt lat="44.9049729" lon="7.2808417"><ele>969.0</ele><time>2026-04-05T09:35:49.971Z</time></trkpt><trkpt lat="44.9050473" lon="7.2808819"><ele>971.6666666666666</ele><time>2026-04-05T09:35:50.971Z</time></trkpt><trkpt lat="44.9051099" lon="7.2809206"><ele>974.3333333333333</ele><time>2026-04-05T09:35:51.971Z</time></trkpt><trkpt lat="44.9051765" lon="7.2809558"><ele>977.0</ele><time>2026-04-05T09:35:52.971Z</time></trkpt><trkpt lat="44.9052391" lon="7.2809963"><ele>979.6666666666666</ele><time>2026-04-05T09:35:53.971Z</time></trkpt><trkpt lat="44.9053171" lon="7.2810374"><ele>982.3333333333333</ele><time>2026-04-05T09:35:54.971Z</time></trkpt><trkpt lat="44.9053809" lon="7.2810797"><ele>985.0</ele><time>2026-04-05T09:35:55.971Z</time></trkpt><trkpt lat="44.9054882" lon="7.281169"><ele>984.9999999999999</ele><time>2026-04-05T09:35:57.971Z</time></trkpt><trkpt lat="44.905576" lon="7.2812589"><ele>985.0</ele><time>2026-04-05T09:35:59.971Z</time></trkpt><trkpt lat="44.9056741" lon="7.2813311"><ele>985.0</ele><time>2026-04-05T09:36:01.971Z</time></trkpt><trkpt lat="44.9057343" lon="7.2814009"><ele>985.0</ele><time>2026-04-05T09:36:02.971Z</time></trkpt><trkpt lat="44.9057911" lon="7.2814416"><ele>984.9999999999999</ele><time>2026-04-05T09:36:03.971Z</time></trkpt><trkpt lat="44.9058569" lon="7.2814875"><ele>985.0</ele><time>2026-04-05T09:36:04.971Z</time></trkpt><trkpt lat="44.9059117" lon="7.2815383"><ele>985.8333333333333</ele><time>2026-04-05T09:36:05.971Z</time></trkpt><trkpt lat="44.9059715" lon="7.2815692"><ele>986.6666666666666</ele><time>2026-04-05T09:36:06.971Z</time></trkpt><trkpt lat="44.9060389" lon="7.2816274"><ele>987.5</ele><time>2026-04-05T09:36:07.971Z</time></trkpt><trkpt lat="44.9061208" lon="7.2817518"><ele>988.3333333333333</ele><time>2026-04-05T09:36:09.971Z</time></trkpt><trkpt lat="44.9061855" lon="7.2818271"><ele>989.1666666666666</ele><time>2026-04-05T09:36:10.971Z</time></trkpt><trkpt lat="44.9062398" lon="7.2818882"><ele>990.0</ele><time>2026-04-05T09:36:11.971Z</time></trkpt><trkpt lat="44.9062927" lon="7.2819453"><ele>990.0</ele><time>2026-04-05T09:36:12.971Z</time></trkpt><trkpt lat="44.9063863" lon="7.2820334"><ele>990.0</ele><time>2026-04-05T09:36:14.971Z</time></trkpt><trkpt lat="44.9064687" lon="7.2820707"><ele>990.0</ele><time>2026-04-05T09:36:16.971Z</time></trkpt><trkpt lat="44.9065811" lon="7.2820561"><ele>990.0</ele><time>2026-04-05T09:36:18.971Z</time></trkpt><trkpt lat="44.9066463" lon="7.2820258"><ele>990.0</ele><time>2026-04-05T09:36:19.971Z</time></trkpt><trkpt lat="44.9067761" lon="7.2819529"><ele>990.4</ele><time>2026-04-05T09:36:21.971Z</time></trkpt><trkpt lat="44.9068333" lon="7.2819081"><ele>990.8</ele><time>2026-04-05T09:36:22.971Z</time></trkpt><trkpt lat="44.9068926" lon="7.2818562"><ele>991.2</ele><time>2026-04-05T09:36:23.971Z</time></trkpt><trkpt lat="44.9069551" lon="7.2818235"><ele>991.6</ele><time>2026-04-05T09:36:24.971Z</time></trkpt><trkpt lat="44.9070766" lon="7.281757"><ele>992.0</ele><time>2026-04-05T09:36:26.971Z</time></trkpt><trkpt lat="44.9071872" lon="7.2816954"><ele>992.0</ele><time>2026-04-05T09:36:28.971Z</time></trkpt><trkpt lat="44.9072903" lon="7.2816492"><ele>992.0</ele><time>2026-04-05T09:36:30.971Z</time></trkpt><trkpt lat="44.9073941" lon="7.2815911"><ele>992.0</ele><time>2026-04-05T09:36:32.971Z</time></trkpt><trkpt lat="44.907471" lon="7.281561"><ele>992.0</ele><time>2026-04-05T09:36:34.971Z</time></trkpt><trkpt lat="44.9075394" lon="7.2815315"><ele>992.0</ele><time>2026-04-05T09:36:46.971Z</time></trkpt><trkpt lat="44.9076334" lon="7.2815673"><ele>990.4000000000001</ele><time>2026-04-05T09:36:49.971Z</time></trkpt><trkpt lat="44.9076917" lon="7.2816212"><ele>988.8000000000001</ele><time>2026-04-05T09:36:51.971Z</time></trkpt><trkpt lat="44.9077617" lon="7.2816662"><ele>987.2</ele><time>2026-04-05T09:36:53.971Z</time></trkpt><trkpt lat="44.9078596" lon="7.2817074"><ele>985.6</ele><time>2026-04-05T09:36:55.971Z</time></trkpt><trkpt lat="44.9079377" lon="7.2817603"><ele>984.0</ele><time>2026-04-05T09:36:57.971Z</time></trkpt><trkpt lat="44.9080441" lon="7.2818233"><ele>984.0</ele><time>2026-04-05T09:36:59.971Z</time></trkpt><trkpt lat="44.9081699" lon="7.2818797"><ele>984.0000000000001</ele><time>2026-04-05T09:37:01.971Z</time></trkpt><trkpt lat="44.9082737" lon="7.2819248"><ele>984.0000000000001</ele><time>2026-04-05T09:37:03.971Z</time></trkpt><trkpt lat="44.9083381" lon="7.281956"><ele>984.0</ele><time>2026-04-05T09:37:04.971Z</time></trkpt><trkpt lat="44.9084316" lon="7.2820266"><ele>984.0</ele><time>2026-04-05T09:37:06.971Z</time></trkpt><trkpt lat="44.9085166" lon="7.2821053"><ele>982.1666666666666</ele><time>2026-04-05T09:37:08.971Z</time></trkpt><trkpt lat="44.9086056" lon="7.2821859"><ele>980.3333333333333</ele><time>2026-04-05T09:37:10.971Z</time></trkpt><trkpt lat="44.9086797" lon="7.282252"><ele>978.5</ele><time>2026-04-05T09:37:12.971Z</time></trkpt><trkpt lat="44.9087521" lon="7.2822948"><ele>976.6666666666666</ele><time>2026-04-05T09:37:14.971Z</time></trkpt><trkpt lat="44.9088344" lon="7.2822953"><ele>974.8333333333333</ele><time>2026-04-05T09:37:16.971Z</time></trkpt><trkpt lat="44.908888" lon="7.2822287"><ele>973.0</ele><time>2026-04-05T09:37:19.971Z</time></trkpt><trkpt lat="44.9088611" lon="7.2821436"><ele>971.8</ele><time>2026-04-05T09:37:21.971Z</time></trkpt><trkpt lat="44.908777" lon="7.2820607"><ele>970.5999999999999</ele><time>2026-04-05T09:37:23.971Z</time></trkpt><trkpt lat="44.9087237" lon="7.2819633"><ele>969.4000000000001</ele><time>2026-04-05T09:37:25.971Z</time></trkpt><trkpt lat="44.9086697" lon="7.2818391"><ele>968.2</ele><time>2026-04-05T09:37:27.971Z</time></trkpt><trkpt lat="44.908645" lon="7.2817427"><ele>967.0</ele><time>2026-04-05T09:37:29.971Z</time></trkpt><trkpt lat="44.9086413" lon="7.2815974"><ele>966.6666666666666</ele><time>2026-04-05T09:37:31.971Z</time></trkpt><trkpt lat="44.9086701" lon="7.281425"><ele>966.3333333333333</ele><time>2026-04-05T09:37:33.971Z</time></trkpt><trkpt lat="44.9086994" lon="7.2813301"><ele>966.0</ele><time>2026-04-05T09:37:34.971Z</time></trkpt><trkpt lat="44.9087366" lon="7.2812241"><ele>965.6666666666667</ele><time>2026-04-05T09:37:35.971Z</time></trkpt><trkpt lat="44.9087714" lon="7.2811466"><ele>965.3333333333334</ele><time>2026-04-05T09:37:36.971Z</time></trkpt><trkpt lat="44.9088228" lon="7.2810476"><ele>965.0</ele><time>2026-04-05T09:37:37.971Z</time></trkpt><trkpt lat="44.9088636" lon="7.2809477"><ele>965.0</ele><time>2026-04-05T09:37:38.971Z</time></trkpt><trkpt lat="44.908902" lon="7.2808605"><ele>965.0</ele><time>2026-04-05T09:37:39.971Z</time></trkpt><trkpt lat="44.9089428" lon="7.2807827"><ele>965.0</ele><time>2026-04-05T09:37:40.971Z</time></trkpt><trkpt lat="44.9089775" lon="7.2807052"><ele>965.0</ele><time>2026-04-05T09:37:41.971Z</time></trkpt><trkpt lat="44.9090669" lon="7.2805826"><ele>965.0</ele><time>2026-04-05T09:37:43.971Z</time></trkpt><trkpt lat="44.9091608" lon="7.2804654"><ele>964.8333333333334</ele><time>2026-04-05T09:37:45.971Z</time></trkpt><trkpt lat="44.9092187" lon="7.2803932"><ele>964.6666666666667</ele><time>2026-04-05T09:37:47.971Z</time></trkpt><trkpt lat="44.9092828" lon="7.2803211"><ele>964.5</ele><time>2026-04-05T09:37:49.971Z</time></trkpt><trkpt lat="44.9093441" lon="7.280279"><ele>964.3333333333333</ele><time>2026-04-05T09:37:51.971Z</time></trkpt><trkpt lat="44.909415" lon="7.280268"><ele>964.1666666666666</ele><time>2026-04-05T09:37:53.971Z</time></trkpt><trkpt lat="44.9094966" lon="7.2802831"><ele>964.0</ele><time>2026-04-05T09:37:55.971Z</time></trkpt><trkpt lat="44.9095899" lon="7.2803133"><ele>963.9999999999999</ele><time>2026-04-05T09:37:57.971Z</time></trkpt><trkpt lat="44.9096839" lon="7.2802758"><ele>964.0</ele><time>2026-04-05T09:37:59.971Z</time></trkpt><trkpt lat="44.9097951" lon="7.2802515"><ele>964.0</ele><time>2026-04-05T09:38:01.971Z</time></trkpt><trkpt lat="44.909854" lon="7.2802178"><ele>964.0</ele><time>2026-04-05T09:38:02.971Z</time></trkpt><trkpt lat="44.9099168" lon="7.2801853"><ele>963.9999999999999</ele><time>2026-04-05T09:38:03.971Z</time></trkpt><trkpt lat="44.9099741" lon="7.2801389"><ele>964.0</ele><time>2026-04-05T09:38:04.971Z</time></trkpt><trkpt lat="44.9100361" lon="7.2801043"><ele>962.5</ele><time>2026-04-05T09:38:05.971Z</time></trkpt><trkpt lat="44.9101499" lon="7.2800764"><ele>961.0</ele><time>2026-04-05T09:38:07.971Z</time></trkpt><trkpt lat="44.9102682" lon="7.2801108"><ele>959.5</ele><time>2026-04-05T09:38:09.971Z</time></trkpt><trkpt lat="44.9103884" lon="7.2801086"><ele>958.0</ele><time>2026-04-05T09:38:11.971Z</time></trkpt><trkpt lat="44.910495" lon="7.2800586"><ele>958.0</ele><time>2026-04-05T09:38:13.971Z</time></trkpt><trkpt lat="44.9105513" lon="7.2800158"><ele>958.0</ele><time>2026-04-05T09:38:14.971Z</time></trkpt><trkpt lat="44.9106348" lon="7.2799667"><ele>958.0</ele><time>2026-04-05T09:38:15.971Z</time></trkpt><trkpt lat="44.9106963" lon="7.2799286"><ele>958.0</ele><time>2026-04-05T09:38:16.971Z</time></trkpt><trkpt lat="44.9107575" lon="7.2798791"><ele>958.0</ele><time>2026-04-05T09:38:17.971Z</time></trkpt><trkpt lat="44.9108212" lon="7.279848"><ele>958.0</ele><time>2026-04-05T09:38:18.971Z</time></trkpt><trkpt lat="44.9108856" lon="7.2798192"><ele>958.0</ele><time>2026-04-05T09:38:19.971Z</time></trkpt><trkpt lat="44.9109505" lon="7.2797922"><ele>956.8333333333333</ele><time>2026-04-05T09:38:20.971Z</time></trkpt><trkpt lat="44.9110338" lon="7.2797885"><ele>955.6666666666666</ele><time>2026-04-05T09:38:21.971Z</time></trkpt><trkpt lat="44.9111042" lon="7.2797707"><ele>954.5</ele><time>2026-04-05T09:38:22.971Z</time></trkpt><trkpt lat="44.9111745" lon="7.2797647"><ele>953.3333333333333</ele><time>2026-04-05T09:38:23.971Z</time></trkpt><trkpt lat="44.9112581" lon="7.2797689"><ele>952.1666666666666</ele><time>2026-04-05T09:38:24.971Z</time></trkpt><trkpt lat="44.9113394" lon="7.2797847"><ele>951.0</ele><time>2026-04-05T09:38:25.971Z</time></trkpt><trkpt lat="44.9114155" lon="7.2798061"><ele>951.0</ele><time>2026-04-05T09:38:26.971Z</time></trkpt><trkpt lat="44.9114866" lon="7.2798148"><ele>951.0</ele><time>2026-04-05T09:38:27.971Z</time></trkpt><trkpt lat="44.9115579" lon="7.2798165"><ele>951.0</ele><time>2026-04-05T09:38:28.971Z</time></trkpt><trkpt lat="44.9116291" lon="7.2798247"><ele>951.0</ele><time>2026-04-05T09:38:29.971Z</time></trkpt><trkpt lat="44.9117464" lon="7.2798462"><ele>951.0</ele><time>2026-04-05T09:38:31.971Z</time></trkpt><trkpt lat="44.9118491" lon="7.2798721"><ele>951.0</ele><time>2026-04-05T09:38:33.971Z</time></trkpt><trkpt lat="44.9119408" lon="7.2798953"><ele>949.8333333333334</ele><time>2026-04-05T09:38:35.971Z</time></trkpt><trkpt lat="44.9120302" lon="7.2799235"><ele>948.6666666666667</ele><time>2026-04-05T09:38:37.971Z</time></trkpt><trkpt lat="44.9121139" lon="7.2799589"><ele>947.5</ele><time>2026-04-05T09:38:39.971Z</time></trkpt><trkpt lat="44.9122068" lon="7.279993"><ele>946.3333333333334</ele><time>2026-04-05T09:38:41.971Z</time></trkpt><trkpt lat="44.9122843" lon="7.280028"><ele>945.1666666666667</ele><time>2026-04-05T09:38:43.971Z</time></trkpt><trkpt lat="44.9123579" lon="7.279999"><ele>944.0</ele><time>2026-04-05T09:38:45.971Z</time></trkpt><trkpt lat="44.912411" lon="7.2798985"><ele>945.6</ele><time>2026-04-05T09:38:47.971Z</time></trkpt><trkpt lat="44.9124601" lon="7.2797542"><ele>947.2</ele><time>2026-04-05T09:38:49.971Z</time></trkpt><trkpt lat="44.9125253" lon="7.2796161"><ele>948.8000000000001</ele><time>2026-04-05T09:38:51.971Z</time></trkpt><trkpt lat="44.9125975" lon="7.2794715"><ele>950.4000000000001</ele><time>2026-04-05T09:38:53.971Z</time></trkpt><trkpt lat="44.9126383" lon="7.2793974"><ele>952.0</ele><time>2026-04-05T09:38:54.971Z</time></trkpt><trkpt lat="44.912721" lon="7.2792653"><ele>947.8</ele><time>2026-04-05T09:38:56.971Z</time></trkpt><trkpt lat="44.9127675" lon="7.2791948"><ele>943.6</ele><time>2026-04-05T09:38:57.971Z</time></trkpt><trkpt lat="44.9128124" lon="7.2791304"><ele>939.3999999999999</ele><time>2026-04-05T09:38:58.971Z</time></trkpt><trkpt lat="44.912853" lon="7.2790578"><ele>935.1999999999999</ele><time>2026-04-05T09:38:59.971Z</time></trkpt><trkpt lat="44.9129327" lon="7.2789202"><ele>931.0</ele><time>2026-04-05T09:39:01.971Z</time></trkpt><trkpt lat="44.9130016" lon="7.2787713"><ele>931.0</ele><time>2026-04-05T09:39:03.971Z</time></trkpt><trkpt lat="44.9130395" lon="7.2786955"><ele>931.0</ele><time>2026-04-05T09:39:04.971Z</time></trkpt><trkpt lat="44.9130923" lon="7.2786148"><ele>931.0</ele><time>2026-04-05T09:39:05.971Z</time></trkpt><trkpt lat="44.9131368" lon="7.2785344"><ele>931.0</ele><time>2026-04-05T09:39:06.971Z</time></trkpt><trkpt lat="44.9131833" lon="7.2784443"><ele>931.0</ele><time>2026-04-05T09:39:07.971Z</time></trkpt><trkpt lat="44.913229" lon="7.2783582"><ele>931.0</ele><time>2026-04-05T09:39:08.971Z</time></trkpt><trkpt lat="44.9132772" lon="7.2782711"><ele>931.0</ele><time>2026-04-05T09:39:09.971Z</time></trkpt><trkpt lat="44.9133261" lon="7.2781996"><ele>930.9999999999999</ele><time>2026-04-05T09:39:10.971Z</time></trkpt><trkpt lat="44.9133903" lon="7.2781246"><ele>931.0</ele><time>2026-04-05T09:39:11.971Z</time></trkpt><trkpt lat="44.9134654" lon="7.2780598"><ele>931.0</ele><time>2026-04-05T09:39:12.971Z</time></trkpt><trkpt lat="44.9135418" lon="7.2779965"><ele>931.0</ele><time>2026-04-05T09:39:13.971Z</time></trkpt><trkpt lat="44.9136189" lon="7.2779458"><ele>930.9999999999999</ele><time>2026-04-05T09:39:14.971Z</time></trkpt><trkpt lat="44.913698" lon="7.2779051"><ele>931.0</ele><time>2026-04-05T09:39:15.971Z</time></trkpt><trkpt lat="44.9137848" lon="7.2778664"><ele>930.3333333333333</ele><time>2026-04-05T09:39:16.971Z</time></trkpt><trkpt lat="44.9138561" lon="7.2778157"><ele>929.6666666666666</ele><time>2026-04-05T09:39:17.971Z</time></trkpt><trkpt lat="44.9139217" lon="7.2777559"><ele>929.0</ele><time>2026-04-05T09:39:18.971Z</time></trkpt><trkpt lat="44.9139746" lon="7.2776956"><ele>928.3333333333333</ele><time>2026-04-05T09:39:19.971Z</time></trkpt><trkpt lat="44.9140736" lon="7.2776011"><ele>927.6666666666666</ele><time>2026-04-05T09:39:21.971Z</time></trkpt><trkpt lat="44.9141609" lon="7.2775852"><ele>927.0</ele><time>2026-04-05T09:39:23.971Z</time></trkpt><trkpt lat="44.9142642" lon="7.2776583"><ele>927.0</ele><time>2026-04-05T09:39:25.971Z</time></trkpt><trkpt lat="44.9143219" lon="7.2777223"><ele>927.0</ele><time>2026-04-05T09:39:26.971Z</time></trkpt><trkpt lat="44.9143792" lon="7.2777922"><ele>927.0</ele><time>2026-04-05T09:39:27.971Z</time></trkpt><trkpt lat="44.9144503" lon="7.2778594"><ele>927.0</ele><time>2026-04-05T09:39:28.971Z</time></trkpt><trkpt lat="44.9145169" lon="7.2779326"><ele>927.0</ele><time>2026-04-05T09:39:29.971Z</time></trkpt><trkpt lat="44.9145888" lon="7.2780082"><ele>927.0</ele><time>2026-04-05T09:39:30.971Z</time></trkpt><trkpt lat="44.9146615" lon="7.2780766"><ele>927.0</ele><time>2026-04-05T09:39:31.971Z</time></trkpt><trkpt lat="44.9147452" lon="7.2781543"><ele>927.0</ele><time>2026-04-05T09:39:32.971Z</time></trkpt><trkpt lat="44.9148256" lon="7.278214"><ele>927.0</ele><time>2026-04-05T09:39:33.971Z</time></trkpt><trkpt lat="44.9148969" lon="7.278266"><ele>927.0</ele><time>2026-04-05T09:39:34.971Z</time></trkpt><trkpt lat="44.9149778" lon="7.2783198"><ele>927.0</ele><time>2026-04-05T09:39:35.971Z</time></trkpt><trkpt lat="44.9150518" lon="7.2783699"><ele>927.0</ele><time>2026-04-05T09:39:36.971Z</time></trkpt><trkpt lat="44.9151281" lon="7.2784222"><ele>929.6666666666666</ele><time>2026-04-05T09:39:37.971Z</time></trkpt><trkpt lat="44.9152075" lon="7.2784737"><ele>932.3333333333333</ele><time>2026-04-05T09:39:38.971Z</time></trkpt><trkpt lat="44.9152927" lon="7.2785229"><ele>935.0</ele><time>2026-04-05T09:39:39.971Z</time></trkpt><trkpt lat="44.9153713" lon="7.2785746"><ele>937.6666666666666</ele><time>2026-04-05T09:39:40.971Z</time></trkpt><trkpt lat="44.9154508" lon="7.2786321"><ele>940.3333333333333</ele><time>2026-04-05T09:39:41.971Z</time></trkpt><trkpt lat="44.9155324" lon="7.2786904"><ele>943.0</ele><time>2026-04-05T09:39:42.971Z</time></trkpt><trkpt lat="44.9156127" lon="7.2787479"><ele>942.9999999999999</ele><time>2026-04-05T09:39:43.971Z</time></trkpt><trkpt lat="44.9156835" lon="7.278801"><ele>943.0</ele><time>2026-04-05T09:39:44.971Z</time></trkpt><trkpt lat="44.9157482" lon="7.2788553"><ele>943.0</ele><time>2026-04-05T09:39:45.971Z</time></trkpt><trkpt lat="44.9158294" lon="7.2788996"><ele>943.0</ele><time>2026-04-05T09:39:46.971Z</time></trkpt><trkpt lat="44.9158961" lon="7.2789422"><ele>942.9999999999999</ele><time>2026-04-05T09:39:47.971Z</time></trkpt><trkpt lat="44.915962" lon="7.2789673"><ele>943.0</ele><time>2026-04-05T09:39:48.971Z</time></trkpt><trkpt lat="44.9160907" lon="7.278952"><ele>943.8</ele><time>2026-04-05T09:39:50.971Z</time></trkpt><trkpt lat="44.9161699" lon="7.2789185"><ele>944.5999999999999</ele><time>2026-04-05T09:39:51.971Z</time></trkpt><trkpt lat="44.9162455" lon="7.2788779"><ele>945.4000000000001</ele><time>2026-04-05T09:39:52.971Z</time></trkpt><trkpt lat="44.9163452" lon="7.2788376"><ele>946.2</ele><time>2026-04-05T09:39:53.971Z</time></trkpt><trkpt lat="44.9164558" lon="7.2787943"><ele>947.0</ele><time>2026-04-05T09:39:54.971Z</time></trkpt><trkpt lat="44.91655" lon="7.2787655"><ele>947.0</ele><time>2026-04-05T09:39:55.971Z</time></trkpt><trkpt lat="44.9166607" lon="7.2787443"><ele>947.0</ele><time>2026-04-05T09:39:56.971Z</time></trkpt><trkpt lat="44.916771" lon="7.2787202"><ele>947.0</ele><time>2026-04-05T09:39:57.971Z</time></trkpt><trkpt lat="44.9168614" lon="7.2787187"><ele>947.0</ele><time>2026-04-05T09:39:58.971Z</time></trkpt><trkpt lat="44.9169515" lon="7.2787097"><ele>947.0</ele><time>2026-04-05T09:39:59.971Z</time></trkpt><trkpt lat="44.9170281" lon="7.2786922"><ele>947.8333333333334</ele><time>2026-04-05T09:40:00.971Z</time></trkpt><trkpt lat="44.9171209" lon="7.278675"><ele>948.6666666666667</ele><time>2026-04-05T09:40:01.971Z</time></trkpt><trkpt lat="44.9172007" lon="7.2786467"><ele>949.5</ele><time>2026-04-05T09:40:02.971Z</time></trkpt><trkpt lat="44.9172716" lon="7.2786278"><ele>950.3333333333333</ele><time>2026-04-05T09:40:03.971Z</time></trkpt><trkpt lat="44.917359" lon="7.2786274"><ele>951.1666666666666</ele><time>2026-04-05T09:40:04.971Z</time></trkpt><trkpt lat="44.9174593" lon="7.2786748"><ele>952.0</ele><time>2026-04-05T09:40:05.971Z</time></trkpt><trkpt lat="44.917552" lon="7.2787135"><ele>953.1666666666666</ele><time>2026-04-05T09:40:06.971Z</time></trkpt><trkpt lat="44.9176431" lon="7.2787532"><ele>954.3333333333333</ele><time>2026-04-05T09:40:07.971Z</time></trkpt><trkpt lat="44.9177256" lon="7.2788126"><ele>955.5</ele><time>2026-04-05T09:40:08.971Z</time></trkpt><trkpt lat="44.9178131" lon="7.2788706"><ele>956.6666666666667</ele><time>2026-04-05T09:40:09.971Z</time></trkpt><trkpt lat="44.9178498" lon="7.2789569"><ele>957.8333333333334</ele><time>2026-04-05T09:40:10.971Z</time></trkpt><trkpt lat="44.9179098" lon="7.2790517"><ele>959.0</ele><time>2026-04-05T09:40:11.971Z</time></trkpt><trkpt lat="44.9179703" lon="7.2791398"><ele>959.0000000000001</ele><time>2026-04-05T09:40:12.971Z</time></trkpt><trkpt lat="44.9180343" lon="7.2792301"><ele>959.0</ele><time>2026-04-05T09:40:13.971Z</time></trkpt><trkpt lat="44.9180982" lon="7.2793108"><ele>959.0</ele><time>2026-04-05T09:40:14.971Z</time></trkpt><trkpt lat="44.9181701" lon="7.2793747"><ele>959.0</ele><time>2026-04-05T09:40:15.971Z</time></trkpt><trkpt lat="44.9182374" lon="7.2794496"><ele>959.0000000000001</ele><time>2026-04-05T09:40:16.971Z</time></trkpt><trkpt lat="44.9183108" lon="7.2795207"><ele>959.0</ele><time>2026-04-05T09:40:17.971Z</time></trkpt><trkpt lat="44.9183765" lon="7.2795688"><ele>958.4000000000001</ele><time>2026-04-05T09:40:18.971Z</time></trkpt><trkpt lat="44.918439" lon="7.2796141"><ele>957.8000000000001</ele><time>2026-04-05T09:40:19.971Z</time></trkpt><trkpt lat="44.9185124" lon="7.2796637"><ele>957.1999999999999</ele><time>2026-04-05T09:40:20.971Z</time></trkpt><trkpt lat="44.9185817" lon="7.2797144"><ele>956.5999999999999</ele><time>2026-04-05T09:40:21.971Z</time></trkpt><trkpt lat="44.9187103" lon="7.2796982"><ele>956.0</ele><time>2026-04-05T09:40:23.971Z</time></trkpt><trkpt lat="44.9187965" lon="7.2796303"><ele>956.0000000000001</ele><time>2026-04-05T09:40:25.971Z</time></trkpt><trkpt lat="44.9188344" lon="7.2795591"><ele>956.0</ele><time>2026-04-05T09:40:26.971Z</time></trkpt><trkpt lat="44.9188757" lon="7.2794656"><ele>956.0</ele><time>2026-04-05T09:40:27.971Z</time></trkpt><trkpt lat="44.9189223" lon="7.279354"><ele>956.0</ele><time>2026-04-05T09:40:28.971Z</time></trkpt><trkpt lat="44.9189678" lon="7.2792541"><ele>956.0000000000001</ele><time>2026-04-05T09:40:29.971Z</time></trkpt><trkpt lat="44.9190041" lon="7.2791598"><ele>956.0</ele><time>2026-04-05T09:40:30.971Z</time></trkpt><trkpt lat="44.9190446" lon="7.2790558"><ele>956.0000000000001</ele><time>2026-04-05T09:40:31.971Z</time></trkpt><trkpt lat="44.9190932" lon="7.2789642"><ele>956.0</ele><time>2026-04-05T09:40:32.971Z</time></trkpt><trkpt lat="44.9191464" lon="7.2788775"><ele>956.0</ele><time>2026-04-05T09:40:33.971Z</time></trkpt><trkpt lat="44.9192028" lon="7.2787912"><ele>956.0</ele><time>2026-04-05T09:40:34.971Z</time></trkpt><trkpt lat="44.9192505" lon="7.2787068"><ele>956.0000000000001</ele><time>2026-04-05T09:40:35.971Z</time></trkpt><trkpt lat="44.9193093" lon="7.2786284"><ele>956.0</ele><time>2026-04-05T09:40:36.971Z</time></trkpt><trkpt lat="44.9193754" lon="7.2785591"><ele>955.8333333333334</ele><time>2026-04-05T09:40:37.971Z</time></trkpt><trkpt lat="44.9194368" lon="7.2785076"><ele>955.6666666666667</ele><time>2026-04-05T09:40:38.971Z</time></trkpt><trkpt lat="44.9195004" lon="7.2784579"><ele>955.5</ele><time>2026-04-05T09:40:39.971Z</time></trkpt><trkpt lat="44.9195632" lon="7.2784179"><ele>955.3333333333333</ele><time>2026-04-05T09:40:40.971Z</time></trkpt><trkpt lat="44.9196281" lon="7.2783869"><ele>955.1666666666666</ele><time>2026-04-05T09:40:41.971Z</time></trkpt><trkpt lat="44.9197141" lon="7.2783376"><ele>955.0</ele><time>2026-04-05T09:40:42.971Z</time></trkpt><trkpt lat="44.9197942" lon="7.2782821"><ele>954.9999999999999</ele><time>2026-04-05T09:40:43.971Z</time></trkpt><trkpt lat="44.9198739" lon="7.2782243"><ele>955.0</ele><time>2026-04-05T09:40:44.971Z</time></trkpt><trkpt lat="44.9199522" lon="7.2781682"><ele>955.0</ele><time>2026-04-05T09:40:45.971Z</time></trkpt><trkpt lat="44.9200329" lon="7.2781279"><ele>955.0</ele><time>2026-04-05T09:40:46.971Z</time></trkpt><trkpt lat="44.9201046" lon="7.2781025"><ele>954.9999999999999</ele><time>2026-04-05T09:40:47.971Z</time></trkpt><trkpt lat="44.9201684" lon="7.2780648"><ele>955.0</ele><time>2026-04-05T09:40:48.971Z</time></trkpt><trkpt lat="44.9202276" lon="7.2780112"><ele>953.9999999999999</ele><time>2026-04-05T09:40:49.971Z</time></trkpt><trkpt lat="44.9202811" lon="7.2779397"><ele>953.0</ele><time>2026-04-05T09:40:50.971Z</time></trkpt><trkpt lat="44.9203278" lon="7.2778475"><ele>952.0</ele><time>2026-04-05T09:40:51.971Z</time></trkpt><trkpt lat="44.9203689" lon="7.2777394"><ele>951.0</ele><time>2026-04-05T09:40:52.971Z</time></trkpt><trkpt lat="44.9204057" lon="7.2776285"><ele>949.9999999999999</ele><time>2026-04-05T09:40:53.971Z</time></trkpt><trkpt lat="44.9204487" lon="7.277527"><ele>949.0</ele><time>2026-04-05T09:40:54.971Z</time></trkpt><trkpt lat="44.9205011" lon="7.2774252"><ele>949.0</ele><time>2026-04-05T09:40:55.971Z</time></trkpt><trkpt lat="44.9205675" lon="7.2773393"><ele>949.0000000000001</ele><time>2026-04-05T09:40:56.971Z</time></trkpt><trkpt lat="44.9206426" lon="7.2772532"><ele>949.0000000000001</ele><time>2026-04-05T09:40:57.971Z</time></trkpt><trkpt lat="44.9207132" lon="7.2771525"><ele>949.0</ele><time>2026-04-05T09:40:58.971Z</time></trkpt><trkpt lat="44.9207678" lon="7.2770567"><ele>949.0</ele><time>2026-04-05T09:40:59.971Z</time></trkpt><trkpt lat="44.9208168" lon="7.2769536"><ele>946.8000000000001</ele><time>2026-04-05T09:41:00.971Z</time></trkpt><trkpt lat="44.9208661" lon="7.2768553"><ele>944.6000000000001</ele><time>2026-04-05T09:41:01.971Z</time></trkpt><trkpt lat="44.9209103" lon="7.2767806"><ele>942.4</ele><time>2026-04-05T09:41:02.971Z</time></trkpt><trkpt lat="44.9209863" lon="7.2766816"><ele>940.2</ele><time>2026-04-05T09:41:04.971Z</time></trkpt><trkpt lat="44.9210807" lon="7.2766144"><ele>938.0</ele><time>2026-04-05T09:41:06.971Z</time></trkpt><trkpt lat="44.921183" lon="7.2766576"><ele>937.5000000000001</ele><time>2026-04-05T09:41:08.971Z</time></trkpt><trkpt lat="44.9212706" lon="7.2767749"><ele>937.0</ele><time>2026-04-05T09:41:10.971Z</time></trkpt><trkpt lat="44.9213161" lon="7.27685"><ele>936.5</ele><time>2026-04-05T09:41:11.971Z</time></trkpt><trkpt lat="44.9213626" lon="7.276925"><ele>936.0</ele><time>2026-04-05T09:41:12.972Z</time></trkpt><trkpt lat="44.9214238" lon="7.2770005"><ele>935.5000000000001</ele><time>2026-04-05T09:41:13.971Z</time></trkpt><trkpt lat="44.92149" lon="7.2770858"><ele>935.0</ele><time>2026-04-05T09:41:14.971Z</time></trkpt><trkpt lat="44.9215629" lon="7.2771469"><ele>935.0000000000001</ele><time>2026-04-05T09:41:15.971Z</time></trkpt><trkpt lat="44.9216463" lon="7.277188"><ele>935.0</ele><time>2026-04-05T09:41:16.971Z</time></trkpt><trkpt lat="44.9217151" lon="7.2772253"><ele>935.0</ele><time>2026-04-05T09:41:17.971Z</time></trkpt><trkpt lat="44.9218" lon="7.2772652"><ele>935.0</ele><time>2026-04-05T09:41:18.971Z</time></trkpt><trkpt lat="44.9218814" lon="7.2773125"><ele>935.0000000000001</ele><time>2026-04-05T09:41:19.971Z</time></trkpt><trkpt lat="44.9219603" lon="7.2773644"><ele>935.0</ele><time>2026-04-05T09:41:20.971Z</time></trkpt><trkpt lat="44.9220367" lon="7.2774356"><ele>936.1666666666667</ele><time>2026-04-05T09:41:21.971Z</time></trkpt><trkpt lat="44.9220967" lon="7.2775105"><ele>937.3333333333334</ele><time>2026-04-05T09:41:22.971Z</time></trkpt><trkpt lat="44.9221533" lon="7.2775921"><ele>938.5</ele><time>2026-04-05T09:41:23.971Z</time></trkpt><trkpt lat="44.9221968" lon="7.2776843"><ele>939.6666666666667</ele><time>2026-04-05T09:41:24.971Z</time></trkpt><trkpt lat="44.9222354" lon="7.2777624"><ele>940.8333333333334</ele><time>2026-04-05T09:41:25.971Z</time></trkpt><trkpt lat="44.9222673" lon="7.2778435"><ele>942.0</ele><time>2026-04-05T09:41:26.971Z</time></trkpt><trkpt lat="44.922321" lon="7.277979"><ele>942.0</ele><time>2026-04-05T09:41:28.971Z</time></trkpt><trkpt lat="44.9224069" lon="7.2780336"><ele>942.0</ele><time>2026-04-05T09:41:30.971Z</time></trkpt><trkpt lat="44.922474" lon="7.2780267"><ele>942.0</ele><time>2026-04-05T09:41:31.971Z</time></trkpt><trkpt lat="44.9225505" lon="7.2780253"><ele>942.0</ele><time>2026-04-05T09:41:32.971Z</time></trkpt><trkpt lat="44.9226765" lon="7.2780158"><ele>942.0</ele><time>2026-04-05T09:41:34.971Z</time></trkpt><trkpt lat="44.9227415" lon="7.2780081"><ele>942.0</ele><time>2026-04-05T09:41:35.971Z</time></trkpt><trkpt lat="44.9228595" lon="7.2780158"><ele>942.6666666666666</ele><time>2026-04-05T09:41:37.971Z</time></trkpt><trkpt lat="44.9229797" lon="7.2779923"><ele>943.3333333333333</ele><time>2026-04-05T09:41:39.971Z</time></trkpt><trkpt lat="44.923042" lon="7.2779709"><ele>944.0</ele><time>2026-04-05T09:41:40.971Z</time></trkpt><trkpt lat="44.9231136" lon="7.2779451"><ele>944.6666666666666</ele><time>2026-04-05T09:41:41.971Z</time></trkpt><trkpt lat="44.9231926" lon="7.277903"><ele>945.3333333333333</ele><time>2026-04-05T09:41:42.971Z</time></trkpt><trkpt lat="44.9232588" lon="7.277846"><ele>946.0</ele><time>2026-04-05T09:41:43.971Z</time></trkpt><trkpt lat="44.9233264" lon="7.2777906"><ele>946.0</ele><time>2026-04-05T09:41:44.971Z</time></trkpt><trkpt lat="44.9233895" lon="7.2777425"><ele>946.0</ele><time>2026-04-05T09:41:45.971Z</time></trkpt><trkpt lat="44.9234491" lon="7.2776892"><ele>946.0</ele><time>2026-04-05T09:41:46.971Z</time></trkpt><trkpt lat="44.923512" lon="7.2776223"><ele>946.0</ele><time>2026-04-05T09:41:47.971Z</time></trkpt><trkpt lat="44.9235637" lon="7.2775659"><ele>946.0</ele><time>2026-04-05T09:41:48.971Z</time></trkpt><trkpt lat="44.9235954" lon="7.2774682"><ele>946.0</ele><time>2026-04-05T09:41:49.971Z</time></trkpt><trkpt lat="44.9236213" lon="7.2773645"><ele>946.0</ele><time>2026-04-05T09:41:50.971Z</time></trkpt><trkpt lat="44.9236602" lon="7.2772551"><ele>946.4999999999999</ele><time>2026-04-05T09:41:51.971Z</time></trkpt><trkpt lat="44.9237056" lon="7.2771758"><ele>947.0</ele><time>2026-04-05T09:41:52.971Z</time></trkpt><trkpt lat="44.9237583" lon="7.2770813"><ele>947.5</ele><time>2026-04-05T09:41:53.971Z</time></trkpt><trkpt lat="44.9238042" lon="7.2770083"><ele>948.0</ele><time>2026-04-05T09:41:54.971Z</time></trkpt><trkpt lat="44.9238657" lon="7.2769496"><ele>948.4999999999999</ele><time>2026-04-05T09:41:55.971Z</time></trkpt><trkpt lat="44.9239297" lon="7.2768815"><ele>949.0</ele><time>2026-04-05T09:41:56.971Z</time></trkpt><trkpt lat="44.9240019" lon="7.2768256"><ele>949.0</ele><time>2026-04-05T09:41:57.971Z</time></trkpt><trkpt lat="44.9240745" lon="7.2767918"><ele>949.0000000000001</ele><time>2026-04-05T09:41:58.971Z</time></trkpt><trkpt lat="44.924148" lon="7.2767936"><ele>949.0000000000001</ele><time>2026-04-05T09:41:59.971Z</time></trkpt><trkpt lat="44.9242327" lon="7.276812"><ele>949.0</ele><time>2026-04-05T09:42:00.971Z</time></trkpt><trkpt lat="44.9243373" lon="7.2768508"><ele>949.0</ele><time>2026-04-05T09:42:01.971Z</time></trkpt><trkpt lat="44.9244454" lon="7.2769004"><ele>948.8000000000001</ele><time>2026-04-05T09:42:02.971Z</time></trkpt><trkpt lat="44.9245356" lon="7.2769426"><ele>948.6000000000001</ele><time>2026-04-05T09:42:03.971Z</time></trkpt><trkpt lat="44.9246279" lon="7.2769754"><ele>948.4</ele><time>2026-04-05T09:42:04.971Z</time></trkpt><trkpt lat="44.9247134" lon="7.2770176"><ele>948.2</ele><time>2026-04-05T09:42:05.971Z</time></trkpt><trkpt lat="44.9247884" lon="7.2770688"><ele>948.0</ele><time>2026-04-05T09:42:06.971Z</time></trkpt><trkpt lat="44.9248755" lon="7.2771128"><ele>948.0</ele><time>2026-04-05T09:42:07.971Z</time></trkpt><trkpt lat="44.9249649" lon="7.2771219"><ele>948.0</ele><time>2026-04-05T09:42:08.971Z</time></trkpt><trkpt lat="44.925049" lon="7.2771121"><ele>948.0</ele><time>2026-04-05T09:42:09.971Z</time></trkpt><trkpt lat="44.9251201" lon="7.2771138"><ele>948.0</ele><time>2026-04-05T09:42:10.971Z</time></trkpt><trkpt lat="44.9252032" lon="7.2770767"><ele>948.0</ele><time>2026-04-05T09:42:11.971Z</time></trkpt><trkpt lat="44.9252751" lon="7.2770379"><ele>948.0</ele><time>2026-04-05T09:42:12.971Z</time></trkpt><trkpt lat="44.925348" lon="7.2770023"><ele>950.8333333333334</ele><time>2026-04-05T09:42:13.971Z</time></trkpt><trkpt lat="44.9254215" lon="7.2769541"><ele>953.6666666666667</ele><time>2026-04-05T09:42:14.971Z</time></trkpt><trkpt lat="44.9254959" lon="7.2769111"><ele>956.5</ele><time>2026-04-05T09:42:15.971Z</time></trkpt><trkpt lat="44.9255437" lon="7.2768444"><ele>959.3333333333334</ele><time>2026-04-05T09:42:16.971Z</time></trkpt><trkpt lat="44.9256004" lon="7.2767684"><ele>962.1666666666667</ele><time>2026-04-05T09:42:17.971Z</time></trkpt><trkpt lat="44.9256762" lon="7.2767114"><ele>965.0</ele><time>2026-04-05T09:42:18.971Z</time></trkpt><trkpt lat="44.9257491" lon="7.276656"><ele>965.0000000000001</ele><time>2026-04-05T09:42:19.971Z</time></trkpt><trkpt lat="44.9258281" lon="7.2766086"><ele>965.0</ele><time>2026-04-05T09:42:20.971Z</time></trkpt><trkpt lat="44.9259059" lon="7.2765466"><ele>965.0</ele><time>2026-04-05T09:42:21.971Z</time></trkpt><trkpt lat="44.9259769" lon="7.2764817"><ele>965.0</ele><time>2026-04-05T09:42:22.971Z</time></trkpt><trkpt lat="44.9260536" lon="7.2764337"><ele>965.0000000000001</ele><time>2026-04-05T09:42:23.971Z</time></trkpt><trkpt lat="44.9261415" lon="7.2763565"><ele>965.0</ele><time>2026-04-05T09:42:24.971Z</time></trkpt><trkpt lat="44.9262298" lon="7.2763155"><ele>969.8</ele><time>2026-04-05T09:42:25.971Z</time></trkpt><trkpt lat="44.9263137" lon="7.2762615"><ele>974.6</ele><time>2026-04-05T09:42:26.971Z</time></trkpt><trkpt lat="44.9263904" lon="7.2762368"><ele>979.4000000000001</ele><time>2026-04-05T09:42:27.971Z</time></trkpt><trkpt lat="44.9264894" lon="7.2761765"><ele>984.2</ele><time>2026-04-05T09:42:29.971Z</time></trkpt><trkpt lat="44.9265159" lon="7.2760337"><ele>989.0</ele><time>2026-04-05T09:42:31.971Z</time></trkpt><trkpt lat="44.9265064" lon="7.2759261"><ele>989.0000000000001</ele><time>2026-04-05T09:42:32.971Z</time></trkpt><trkpt lat="44.9264631" lon="7.2758112"><ele>989.0</ele><time>2026-04-05T09:42:33.971Z</time></trkpt><trkpt lat="44.926432" lon="7.2757013"><ele>989.0</ele><time>2026-04-05T09:42:34.971Z</time></trkpt><trkpt lat="44.9264026" lon="7.2756134"><ele>989.0</ele><time>2026-04-05T09:42:35.971Z</time></trkpt><trkpt lat="44.9263637" lon="7.2755289"><ele>989.0000000000001</ele><time>2026-04-05T09:42:36.971Z</time></trkpt><trkpt lat="44.9263001" lon="7.2754397"><ele>989.0</ele><time>2026-04-05T09:42:37.971Z</time></trkpt><trkpt lat="44.9262234" lon="7.2754008"><ele>988.1666666666667</ele><time>2026-04-05T09:42:38.971Z</time></trkpt><trkpt lat="44.926146" lon="7.2753632"><ele>987.3333333333334</ele><time>2026-04-05T09:42:39.971Z</time></trkpt><trkpt lat="44.9260783" lon="7.2753069"><ele>986.5</ele><time>2026-04-05T09:42:40.971Z</time></trkpt><trkpt lat="44.9260062" lon="7.2752694"><ele>985.6666666666667</ele><time>2026-04-05T09:42:41.971Z</time></trkpt><trkpt lat="44.9259572" lon="7.2752011"><ele>984.8333333333334</ele><time>2026-04-05T09:42:42.971Z</time></trkpt><trkpt lat="44.9258949" lon="7.2751442"><ele>984.0</ele><time>2026-04-05T09:42:43.971Z</time></trkpt><trkpt lat="44.9258571" lon="7.2750519"><ele>984.0</ele><time>2026-04-05T09:42:44.971Z</time></trkpt><trkpt lat="44.9258175" lon="7.2749528"><ele>984.0</ele><time>2026-04-05T09:42:45.971Z</time></trkpt><trkpt lat="44.9257908" lon="7.2748509"><ele>984.0</ele><time>2026-04-05T09:42:46.971Z</time></trkpt><trkpt lat="44.9257871" lon="7.2747467"><ele>984.0</ele><time>2026-04-05T09:42:47.971Z</time></trkpt><trkpt lat="44.9258038" lon="7.2746365"><ele>984.0</ele><time>2026-04-05T09:42:48.971Z</time></trkpt><trkpt lat="44.9258171" lon="7.2745064"><ele>984.0</ele><time>2026-04-05T09:42:49.971Z</time></trkpt><trkpt lat="44.9258523" lon="7.2743898"><ele>984.2</ele><time>2026-04-05T09:42:50.971Z</time></trkpt><trkpt lat="44.9258899" lon="7.2742604"><ele>984.4000000000001</ele><time>2026-04-05T09:42:51.971Z</time></trkpt><trkpt lat="44.9259521" lon="7.2741171"><ele>984.6</ele><time>2026-04-05T09:42:52.971Z</time></trkpt><trkpt lat="44.9260065" lon="7.2739861"><ele>984.8</ele><time>2026-04-05T09:42:53.971Z</time></trkpt><trkpt lat="44.9260646" lon="7.273868"><ele>985.0</ele><time>2026-04-05T09:42:54.971Z</time></trkpt><trkpt lat="44.9261138" lon="7.2737475"><ele>987.6</ele><time>2026-04-05T09:42:55.971Z</time></trkpt><trkpt lat="44.9261637" lon="7.2736298"><ele>990.2</ele><time>2026-04-05T09:42:56.971Z</time></trkpt><trkpt lat="44.9262131" lon="7.2735179"><ele>992.8</ele><time>2026-04-05T09:42:57.971Z</time></trkpt><trkpt lat="44.92627" lon="7.2733832"><ele>995.4</ele><time>2026-04-05T09:42:58.971Z</time></trkpt><trkpt lat="44.926318" lon="7.273252"><ele>998.0</ele><time>2026-04-05T09:42:59.971Z</time></trkpt><trkpt lat="44.926369" lon="7.2731363"><ele>996.3333333333334</ele><time>2026-04-05T09:43:00.971Z</time></trkpt><trkpt lat="44.9264161" lon="7.2730266"><ele>994.6666666666667</ele><time>2026-04-05T09:43:01.971Z</time></trkpt><trkpt lat="44.9264705" lon="7.2729311"><ele>993.0</ele><time>2026-04-05T09:43:02.971Z</time></trkpt><trkpt lat="44.9265347" lon="7.2728347"><ele>991.3333333333333</ele><time>2026-04-05T09:43:03.971Z</time></trkpt><trkpt lat="44.9266075" lon="7.272756"><ele>989.6666666666666</ele><time>2026-04-05T09:43:04.971Z</time></trkpt><trkpt lat="44.9266779" lon="7.2727189"><ele>988.0</ele><time>2026-04-05T09:43:05.971Z</time></trkpt><trkpt lat="44.9267484" lon="7.2726692"><ele>988.0</ele><time>2026-04-05T09:43:06.971Z</time></trkpt><trkpt lat="44.926806" lon="7.2726112"><ele>988.0</ele><time>2026-04-05T09:43:07.971Z</time></trkpt><trkpt lat="44.9268788" lon="7.2725838"><ele>988.0</ele><time>2026-04-05T09:43:08.971Z</time></trkpt><trkpt lat="44.9269455" lon="7.2725665"><ele>988.0</ele><time>2026-04-05T09:43:09.971Z</time></trkpt><trkpt lat="44.927012" lon="7.2725529"><ele>988.0</ele><time>2026-04-05T09:43:10.972Z</time></trkpt><trkpt lat="44.9270904" lon="7.2725761"><ele>988.0</ele><time>2026-04-05T09:43:11.971Z</time></trkpt><trkpt lat="44.9271588" lon="7.2725962"><ele>988.0</ele><time>2026-04-05T09:43:12.971Z</time></trkpt><trkpt lat="44.9272365" lon="7.2726364"><ele>988.0</ele><time>2026-04-05T09:43:13.971Z</time></trkpt><trkpt lat="44.9273231" lon="7.2727252"><ele>988.0</ele><time>2026-04-05T09:43:14.971Z</time></trkpt><trkpt lat="44.9274298" lon="7.2727997"><ele>988.0</ele><time>2026-04-05T09:43:15.971Z</time></trkpt><trkpt lat="44.9275331" lon="7.2728813"><ele>988.0</ele><time>2026-04-05T09:43:16.971Z</time></trkpt><trkpt lat="44.9276251" lon="7.2729381"><ele>988.0</ele><time>2026-04-05T09:43:17.971Z</time></trkpt><trkpt lat="44.9277342" lon="7.2729854"><ele>989.6666666666666</ele><time>2026-04-05T09:43:18.971Z</time></trkpt><trkpt lat="44.9278254" lon="7.2730406"><ele>991.3333333333333</ele><time>2026-04-05T09:43:19.971Z</time></trkpt><trkpt lat="44.9279073" lon="7.2730905"><ele>993.0</ele><time>2026-04-05T09:43:20.971Z</time></trkpt><trkpt lat="44.9279876" lon="7.2731248"><ele>994.6666666666667</ele><time>2026-04-05T09:43:21.971Z</time></trkpt><trkpt lat="44.9280648" lon="7.2731708"><ele>996.3333333333334</ele><time>2026-04-05T09:43:22.971Z</time></trkpt><trkpt lat="44.9281331" lon="7.2731952"><ele>998.0</ele><time>2026-04-05T09:43:23.971Z</time></trkpt><trkpt lat="44.9282404" lon="7.2731597"><ele>998.0</ele><time>2026-04-05T09:43:25.971Z</time></trkpt><trkpt lat="44.9282941" lon="7.2730943"><ele>998.0</ele><time>2026-04-05T09:43:26.971Z</time></trkpt><trkpt lat="44.9283334" lon="7.2730035"><ele>998.0</ele><time>2026-04-05T09:43:27.971Z</time></trkpt><trkpt lat="44.9283733" lon="7.2729098"><ele>998.0</ele><time>2026-04-05T09:43:28.971Z</time></trkpt><trkpt lat="44.928445" lon="7.2727475"><ele>998.0</ele><time>2026-04-05T09:43:29.971Z</time></trkpt><trkpt lat="44.9285019" lon="7.2726241"><ele>997.8</ele><time>2026-04-05T09:43:30.971Z</time></trkpt><trkpt lat="44.9285464" lon="7.2725061"><ele>997.5999999999999</ele><time>2026-04-05T09:43:31.971Z</time></trkpt><trkpt lat="44.9285964" lon="7.2723934"><ele>997.4000000000001</ele><time>2026-04-05T09:43:32.971Z</time></trkpt><trkpt lat="44.9286477" lon="7.2722996"><ele>997.2</ele><time>2026-04-05T09:43:33.971Z</time></trkpt><trkpt lat="44.9286948" lon="7.2722283"><ele>997.0</ele><time>2026-04-05T09:43:34.971Z</time></trkpt><trkpt lat="44.928797" lon="7.2721788"><ele>997.0</ele><time>2026-04-05T09:43:36.971Z</time></trkpt><trkpt lat="44.9289163" lon="7.2722461"><ele>997.0</ele><time>2026-04-05T09:43:38.971Z</time></trkpt><trkpt lat="44.9289673" lon="7.2723179"><ele>997.0</ele><time>2026-04-05T09:43:39.971Z</time></trkpt><trkpt lat="44.9290163" lon="7.2724179"><ele>997.0</ele><time>2026-04-05T09:43:40.971Z</time></trkpt><trkpt lat="44.9290757" lon="7.2725295"><ele>997.0</ele><time>2026-04-05T09:43:41.971Z</time></trkpt><trkpt lat="44.929136" lon="7.2726499"><ele>998.5</ele><time>2026-04-05T09:43:42.971Z</time></trkpt><trkpt lat="44.9292124" lon="7.2727886"><ele>1000.0</ele><time>2026-04-05T09:43:43.971Z</time></trkpt><trkpt lat="44.9292802" lon="7.2729203"><ele>1001.5</ele><time>2026-04-05T09:43:44.971Z</time></trkpt><trkpt lat="44.9293514" lon="7.273054"><ele>1003.0</ele><time>2026-04-05T09:43:45.971Z</time></trkpt><trkpt lat="44.9294422" lon="7.2731717"><ele>1004.4999999999999</ele><time>2026-04-05T09:43:46.971Z</time></trkpt><trkpt lat="44.9295152" lon="7.2732778"><ele>1006.0</ele><time>2026-04-05T09:43:47.971Z</time></trkpt><trkpt lat="44.9295827" lon="7.273375"><ele>1007.5</ele><time>2026-04-05T09:43:48.971Z</time></trkpt><trkpt lat="44.9296429" lon="7.2734705"><ele>1009.0</ele><time>2026-04-05T09:43:49.971Z</time></trkpt><trkpt lat="44.9296846" lon="7.27355"><ele>1010.4999999999999</ele><time>2026-04-05T09:43:50.972Z</time></trkpt><trkpt lat="44.9297167" lon="7.2736331"><ele>1012.0</ele><time>2026-04-05T09:43:51.971Z</time></trkpt><trkpt lat="44.9297426" lon="7.2737405"><ele>1011.9999999999999</ele><time>2026-04-05T09:43:52.971Z</time></trkpt><trkpt lat="44.9297479" lon="7.2738447"><ele>1012.0</ele><time>2026-04-05T09:43:53.971Z</time></trkpt><trkpt lat="44.9297468" lon="7.2739568"><ele>1012.0</ele><time>2026-04-05T09:43:54.971Z</time></trkpt><trkpt lat="44.9297565" lon="7.2740806"><ele>1012.0</ele><time>2026-04-05T09:43:55.971Z</time></trkpt><trkpt lat="44.9297687" lon="7.2741942"><ele>1011.9999999999999</ele><time>2026-04-05T09:43:56.971Z</time></trkpt><trkpt lat="44.9297824" lon="7.2743068"><ele>1012.0</ele><time>2026-04-05T09:43:57.971Z</time></trkpt><trkpt lat="44.9298016" lon="7.2744053"><ele>1012.9999999999999</ele><time>2026-04-05T09:43:58.971Z</time></trkpt><trkpt lat="44.9298267" lon="7.2744871"><ele>1014.0</ele><time>2026-04-05T09:43:59.971Z</time></trkpt><trkpt lat="44.9298379" lon="7.2745796"><ele>1015.0</ele><time>2026-04-05T09:44:00.971Z</time></trkpt><trkpt lat="44.9298644" lon="7.2747446"><ele>1016.0</ele><time>2026-04-05T09:44:02.971Z</time></trkpt><trkpt lat="44.9299291" lon="7.2748852"><ele>1016.9999999999999</ele><time>2026-04-05T09:44:04.971Z</time></trkpt><trkpt lat="44.9299922" lon="7.2749307"><ele>1018.0</ele><time>2026-04-05T09:44:05.971Z</time></trkpt><trkpt lat="44.9300545" lon="7.2749514"><ele>1018.2</ele><time>2026-04-05T09:44:06.971Z</time></trkpt><trkpt lat="44.9301206" lon="7.2749486"><ele>1018.4</ele><time>2026-04-05T09:44:07.971Z</time></trkpt><trkpt lat="44.9302607" lon="7.2748812"><ele>1018.6000000000001</ele><time>2026-04-05T09:44:09.971Z</time></trkpt><trkpt lat="44.9303439" lon="7.2748411"><ele>1018.8000000000001</ele><time>2026-04-05T09:44:10.971Z</time></trkpt><trkpt lat="44.9304313" lon="7.2748156"><ele>1019.0</ele><time>2026-04-05T09:44:11.971Z</time></trkpt><trkpt lat="44.9305303" lon="7.2747947"><ele>1019.0000000000001</ele><time>2026-04-05T09:44:12.971Z</time></trkpt><trkpt lat="44.9306291" lon="7.2747721"><ele>1019.0</ele><time>2026-04-05T09:44:13.971Z</time></trkpt><trkpt lat="44.9307193" lon="7.2747469"><ele>1019.0</ele><time>2026-04-05T09:44:14.971Z</time></trkpt><trkpt lat="44.9308001" lon="7.2747145"><ele>1019.0</ele><time>2026-04-05T09:44:15.971Z</time></trkpt><trkpt lat="44.9308729" lon="7.2747041"><ele>1019.0000000000001</ele><time>2026-04-05T09:44:16.971Z</time></trkpt><trkpt lat="44.9309491" lon="7.27471"><ele>1019.0</ele><time>2026-04-05T09:44:17.971Z</time></trkpt><trkpt lat="44.9310203" lon="7.2747378"><ele>1020.5714285714287</ele><time>2026-04-05T09:44:18.971Z</time></trkpt><trkpt lat="44.9310906" lon="7.274767"><ele>1022.1428571428571</ele><time>2026-04-05T09:44:19.971Z</time></trkpt><trkpt lat="44.931164" lon="7.2747872"><ele>1023.7142857142858</ele><time>2026-04-05T09:44:20.971Z</time></trkpt><trkpt lat="44.9312366" lon="7.2747856"><ele>1025.2857142857142</ele><time>2026-04-05T09:44:21.971Z</time></trkpt><trkpt lat="44.9312997" lon="7.2747526"><ele>1026.857142857143</ele><time>2026-04-05T09:44:22.971Z</time></trkpt><trkpt lat="44.9313575" lon="7.274703"><ele>1028.4285714285716</ele><time>2026-04-05T09:44:23.971Z</time></trkpt><trkpt lat="44.9314185" lon="7.27463"><ele>1030.0</ele><time>2026-04-05T09:44:24.971Z</time></trkpt><trkpt lat="44.9314757" lon="7.274527"><ele>1031.4</ele><time>2026-04-05T09:44:25.971Z</time></trkpt><trkpt lat="44.9315363" lon="7.274427"><ele>1032.8</ele><time>2026-04-05T09:44:26.971Z</time></trkpt><trkpt lat="44.9316121" lon="7.2743163"><ele>1034.2</ele><time>2026-04-05T09:44:27.971Z</time></trkpt><trkpt lat="44.9316806" lon="7.2742472"><ele>1035.6</ele><time>2026-04-05T09:44:28.971Z</time></trkpt><trkpt lat="44.9317475" lon="7.2741649"><ele>1037.0</ele><time>2026-04-05T09:44:29.971Z</time></trkpt><trkpt lat="44.9318179" lon="7.2740771"><ele>1039.1666666666667</ele><time>2026-04-05T09:44:30.971Z</time></trkpt><trkpt lat="44.9318826" lon="7.2740157"><ele>1041.3333333333335</ele><time>2026-04-05T09:44:31.971Z</time></trkpt><trkpt lat="44.9319578" lon="7.2739464"><ele>1043.5</ele><time>2026-04-05T09:44:32.971Z</time></trkpt><trkpt lat="44.9320218" lon="7.273881"><ele>1045.6666666666667</ele><time>2026-04-05T09:44:33.971Z</time></trkpt><trkpt lat="44.9320933" lon="7.2738034"><ele>1047.8333333333333</ele><time>2026-04-05T09:44:34.971Z</time></trkpt><trkpt lat="44.9321492" lon="7.273711"><ele>1050.0</ele><time>2026-04-05T09:44:35.971Z</time></trkpt><trkpt lat="44.9321971" lon="7.2736305"><ele>1050.0</ele><time>2026-04-05T09:44:36.971Z</time></trkpt><trkpt lat="44.9322555" lon="7.2735914"><ele>1050.0</ele><time>2026-04-05T09:44:37.971Z</time></trkpt><trkpt lat="44.9323495" lon="7.2736032"><ele>1050.0</ele><time>2026-04-05T09:44:39.971Z</time></trkpt><trkpt lat="44.932431" lon="7.2736946"><ele>1050.0</ele><time>2026-04-05T09:44:41.971Z</time></trkpt><trkpt lat="44.932486" lon="7.2738856"><ele>1050.0</ele><time>2026-04-05T09:44:43.971Z</time></trkpt><trkpt lat="44.9325534" lon="7.274023"><ele>1052.0</ele><time>2026-04-05T09:44:44.971Z</time></trkpt><trkpt lat="44.9326179" lon="7.274112"><ele>1054.0</ele><time>2026-04-05T09:44:45.971Z</time></trkpt><trkpt lat="44.9326767" lon="7.274226"><ele>1056.0</ele><time>2026-04-05T09:44:46.971Z</time></trkpt><trkpt lat="44.9327281" lon="7.2743118"><ele>1058.0</ele><time>2026-04-05T09:44:47.971Z</time></trkpt><trkpt lat="44.9327822" lon="7.2743855"><ele>1060.0</ele><time>2026-04-05T09:44:48.971Z</time></trkpt><trkpt lat="44.9328317" lon="7.2744448"><ele>1062.0</ele><time>2026-04-05T09:44:49.971Z</time></trkpt><trkpt lat="44.9328917" lon="7.2744728"><ele>1062.0</ele><time>2026-04-05T09:44:50.971Z</time></trkpt><trkpt lat="44.9329595" lon="7.2744802"><ele>1062.0</ele><time>2026-04-05T09:44:51.971Z</time></trkpt><trkpt lat="44.9330419" lon="7.274482"><ele>1062.0</ele><time>2026-04-05T09:44:52.971Z</time></trkpt><trkpt lat="44.9331379" lon="7.2744493"><ele>1062.0</ele><time>2026-04-05T09:44:53.971Z</time></trkpt><trkpt lat="44.9332255" lon="7.2744139"><ele>1062.0</ele><time>2026-04-05T09:44:54.971Z</time></trkpt><trkpt lat="44.933301" lon="7.2743693"><ele>1062.0</ele><time>2026-04-05T09:44:55.971Z</time></trkpt><trkpt lat="44.9333816" lon="7.2743405"><ele>1060.8</ele><time>2026-04-05T09:44:56.971Z</time></trkpt><trkpt lat="44.9334875" lon="7.2742787"><ele>1059.6</ele><time>2026-04-05T09:44:57.971Z</time></trkpt><trkpt lat="44.9335689" lon="7.2742234"><ele>1058.3999999999999</ele><time>2026-04-05T09:44:58.971Z</time></trkpt><trkpt lat="44.9336488" lon="7.2741836"><ele>1057.2</ele><time>2026-04-05T09:44:59.971Z</time></trkpt><trkpt lat="44.9337396" lon="7.2741056"><ele>1056.0</ele><time>2026-04-05T09:45:00.971Z</time></trkpt><trkpt lat="44.9338234" lon="7.2740351"><ele>1056.0</ele><time>2026-04-05T09:45:01.971Z</time></trkpt><trkpt lat="44.9339108" lon="7.2739452"><ele>1056.0</ele><time>2026-04-05T09:45:02.971Z</time></trkpt><trkpt lat="44.9339933" lon="7.2738499"><ele>1056.0</ele><time>2026-04-05T09:45:03.971Z</time></trkpt><trkpt lat="44.9340717" lon="7.2737666"><ele>1056.0</ele><time>2026-04-05T09:45:04.971Z</time></trkpt><trkpt lat="44.9341577" lon="7.2737026"><ele>1056.0</ele><time>2026-04-05T09:45:05.971Z</time></trkpt><trkpt lat="44.9342568" lon="7.2736285"><ele>1059.0</ele><time>2026-04-05T09:45:06.971Z</time></trkpt><trkpt lat="44.9343545" lon="7.2735574"><ele>1062.0</ele><time>2026-04-05T09:45:07.971Z</time></trkpt><trkpt lat="44.9344581" lon="7.2735214"><ele>1065.0</ele><time>2026-04-05T09:45:08.971Z</time></trkpt><trkpt lat="44.9345791" lon="7.2734663"><ele>1068.0</ele><time>2026-04-05T09:45:09.971Z</time></trkpt><trkpt lat="44.9346724" lon="7.2734364"><ele>1071.0</ele><time>2026-04-05T09:45:10.971Z</time></trkpt><trkpt lat="44.9347836" lon="7.2733928"><ele>1071.0</ele><time>2026-04-05T09:45:11.971Z</time></trkpt><trkpt lat="44.9348675" lon="7.273382"><ele>1071.0</ele><time>2026-04-05T09:45:12.971Z</time></trkpt><trkpt lat="44.9349531" lon="7.2733582"><ele>1071.0</ele><time>2026-04-05T09:45:13.971Z</time></trkpt><trkpt lat="44.9350398" lon="7.2733117"><ele>1071.0</ele><time>2026-04-05T09:45:14.971Z</time></trkpt><trkpt lat="44.9351086" lon="7.2732667"><ele>1071.0</ele><time>2026-04-05T09:45:15.971Z</time></trkpt><trkpt lat="44.9351687" lon="7.2732007"><ele>1071.0</ele><time>2026-04-05T09:45:16.971Z</time></trkpt><trkpt lat="44.9352125" lon="7.273134"><ele>1074.8</ele><time>2026-04-05T09:45:17.971Z</time></trkpt><trkpt lat="44.9353011" lon="7.2729972"><ele>1078.6</ele><time>2026-04-05T09:45:19.971Z</time></trkpt><trkpt lat="44.9353826" lon="7.2728691"><ele>1082.4</ele><time>2026-04-05T09:45:21.971Z</time></trkpt><trkpt lat="44.9354158" lon="7.2727917"><ele>1086.2</ele><time>2026-04-05T09:45:22.971Z</time></trkpt><trkpt lat="44.935492" lon="7.2726454"><ele>1090.0</ele><time>2026-04-05T09:45:24.971Z</time></trkpt><trkpt lat="44.9355781" lon="7.2725515"><ele>1090.0</ele><time>2026-04-05T09:45:26.971Z</time></trkpt><trkpt lat="44.9356678" lon="7.2724968"><ele>1090.0</ele><time>2026-04-05T09:45:28.971Z</time></trkpt><trkpt lat="44.9357343" lon="7.2724347"><ele>1090.0</ele><time>2026-04-05T09:45:30.971Z</time></trkpt><trkpt lat="44.9358217" lon="7.2723552"><ele>1090.0</ele><time>2026-04-05T09:45:32.971Z</time></trkpt><trkpt lat="44.9358816" lon="7.2722462"><ele>1090.0</ele><time>2026-04-05T09:45:34.971Z</time></trkpt><trkpt lat="44.9359033" lon="7.272105"><ele>1094.6</ele><time>2026-04-05T09:45:36.971Z</time></trkpt><trkpt lat="44.9359785" lon="7.271998"><ele>1099.2</ele><time>2026-04-05T09:45:38.971Z</time></trkpt><trkpt lat="44.9360387" lon="7.2719564"><ele>1103.8</ele><time>2026-04-05T09:45:39.971Z</time></trkpt><trkpt lat="44.9361273" lon="7.2718656"><ele>1108.4</ele><time>2026-04-05T09:45:41.971Z</time></trkpt><trkpt lat="44.9362391" lon="7.2718065"><ele>1113.0</ele><time>2026-04-05T09:45:43.971Z</time></trkpt><trkpt lat="44.9363177" lon="7.2717202"><ele>1113.0</ele><time>2026-04-05T09:45:45.971Z</time></trkpt><trkpt lat="44.9362852" lon="7.2716128"><ele>1113.0</ele><time>2026-04-05T09:45:47.971Z</time></trkpt><trkpt lat="44.9362013" lon="7.2715018"><ele>1113.0</ele><time>2026-04-05T09:45:49.971Z</time></trkpt><trkpt lat="44.9360997" lon="7.2713857"><ele>1113.0</ele><time>2026-04-05T09:45:51.971Z</time></trkpt><trkpt lat="44.9360433" lon="7.2713348"><ele>1113.0</ele><time>2026-04-05T09:45:52.971Z</time></trkpt><trkpt lat="44.9359724" lon="7.2713103"><ele>1112.6666666666667</ele><time>2026-04-05T09:45:53.971Z</time></trkpt><trkpt lat="44.9358965" lon="7.2712591"><ele>1112.3333333333333</ele><time>2026-04-05T09:45:54.971Z</time></trkpt><trkpt lat="44.9358103" lon="7.2711992"><ele>1112.0</ele><time>2026-04-05T09:45:55.971Z</time></trkpt><trkpt lat="44.9357371" lon="7.2711353"><ele>1111.6666666666665</ele><time>2026-04-05T09:45:56.971Z</time></trkpt><trkpt lat="44.9356771" lon="7.2710708"><ele>1111.3333333333333</ele><time>2026-04-05T09:45:57.971Z</time></trkpt><trkpt lat="44.9356345" lon="7.2709876"><ele>1111.0</ele><time>2026-04-05T09:45:58.971Z</time></trkpt><trkpt lat="44.9355898" lon="7.2709133"><ele>1111.0</ele><time>2026-04-05T09:45:59.971Z</time></trkpt><trkpt lat="44.9355526" lon="7.2708347"><ele>1111.0</ele><time>2026-04-05T09:46:00.971Z</time></trkpt><trkpt lat="44.9355376" lon="7.2707467"><ele>1111.0</ele><time>2026-04-05T09:46:01.971Z</time></trkpt><trkpt lat="44.9355596" lon="7.2706036"><ele>1111.0</ele><time>2026-04-05T09:46:03.971Z</time></trkpt><trkpt lat="44.9356063" lon="7.2705083"><ele>1111.0</ele><time>2026-04-05T09:46:04.971Z</time></trkpt><trkpt lat="44.9357102" lon="7.2703849"><ele>1111.1666666666665</ele><time>2026-04-05T09:46:06.971Z</time></trkpt><trkpt lat="44.9357891" lon="7.2703445"><ele>1111.3333333333333</ele><time>2026-04-05T09:46:07.971Z</time></trkpt><trkpt lat="44.9358687" lon="7.2703085"><ele>1111.5</ele><time>2026-04-05T09:46:08.971Z</time></trkpt><trkpt lat="44.9359332" lon="7.2702838"><ele>1111.6666666666667</ele><time>2026-04-05T09:46:09.971Z</time></trkpt><trkpt lat="44.9360012" lon="7.270245"><ele>1111.8333333333335</ele><time>2026-04-05T09:46:10.971Z</time></trkpt><trkpt lat="44.9360707" lon="7.2701845"><ele>1112.0</ele><time>2026-04-05T09:46:11.971Z</time></trkpt><trkpt lat="44.9361273" lon="7.2701268"><ele>1114.3333333333335</ele><time>2026-04-05T09:46:12.971Z</time></trkpt><trkpt lat="44.9361722" lon="7.2700263"><ele>1116.6666666666667</ele><time>2026-04-05T09:46:13.971Z</time></trkpt><trkpt lat="44.9362121" lon="7.2699186"><ele>1119.0</ele><time>2026-04-05T09:46:14.971Z</time></trkpt><trkpt lat="44.9362636" lon="7.2697866"><ele>1121.3333333333333</ele><time>2026-04-05T09:46:15.971Z</time></trkpt><trkpt lat="44.9363096" lon="7.2696714"><ele>1123.6666666666665</ele><time>2026-04-05T09:46:16.971Z</time></trkpt><trkpt lat="44.9363438" lon="7.2695853"><ele>1126.0</ele><time>2026-04-05T09:46:17.971Z</time></trkpt><trkpt lat="44.9363842" lon="7.2694943"><ele>1126.0</ele><time>2026-04-05T09:46:18.971Z</time></trkpt><trkpt lat="44.9364264" lon="7.2694241"><ele>1126.0</ele><time>2026-04-05T09:46:19.971Z</time></trkpt><trkpt lat="44.9365068" lon="7.2693276"><ele>1126.0</ele><time>2026-04-05T09:46:21.971Z</time></trkpt><trkpt lat="44.9366092" lon="7.2693029"><ele>1126.0</ele><time>2026-04-05T09:46:23.971Z</time></trkpt><trkpt lat="44.936666" lon="7.2693426"><ele>1126.0</ele><time>2026-04-05T09:46:24.971Z</time></trkpt><trkpt lat="44.9367126" lon="7.2694026"><ele>1126.0</ele><time>2026-04-05T09:46:25.971Z</time></trkpt><trkpt lat="44.9367592" lon="7.2694962"><ele>1129.5</ele><time>2026-04-05T09:46:26.971Z</time></trkpt><trkpt lat="44.9367909" lon="7.2696054"><ele>1133.0</ele><time>2026-04-05T09:46:27.971Z</time></trkpt><trkpt lat="44.9368257" lon="7.2697017"><ele>1136.5</ele><time>2026-04-05T09:46:28.971Z</time></trkpt><trkpt lat="44.936855" lon="7.2698012"><ele>1140.0</ele><time>2026-04-05T09:46:29.971Z</time></trkpt><trkpt lat="44.9369066" lon="7.2698755"><ele>1143.5</ele><time>2026-04-05T09:46:30.971Z</time></trkpt><trkpt lat="44.9369606" lon="7.2699572"><ele>1147.0</ele><time>2026-04-05T09:46:31.971Z</time></trkpt><trkpt lat="44.9370272" lon="7.270035"><ele>1147.0</ele><time>2026-04-05T09:46:32.971Z</time></trkpt><trkpt lat="44.9371122" lon="7.2701209"><ele>1147.0</ele><time>2026-04-05T09:46:33.971Z</time></trkpt><trkpt lat="44.9371878" lon="7.2702008"><ele>1147.0</ele><time>2026-04-05T09:46:34.971Z</time></trkpt><trkpt lat="44.9372551" lon="7.2702603"><ele>1147.0</ele><time>2026-04-05T09:46:35.971Z</time></trkpt><trkpt lat="44.9373377" lon="7.2703163"><ele>1147.0</ele><time>2026-04-05T09:46:36.971Z</time></trkpt><trkpt lat="44.9374153" lon="7.2703511"><ele>1147.0</ele><time>2026-04-05T09:46:37.971Z</time></trkpt><trkpt lat="44.9375233" lon="7.2703801"><ele>1147.0</ele><time>2026-04-05T09:46:38.971Z</time></trkpt><trkpt lat="44.9376119" lon="7.2704056"><ele>1147.0</ele><time>2026-04-05T09:46:39.971Z</time></trkpt><trkpt lat="44.9376925" lon="7.2704201"><ele>1147.0</ele><time>2026-04-05T09:46:40.971Z</time></trkpt><trkpt lat="44.9377869" lon="7.2704214"><ele>1147.0</ele><time>2026-04-05T09:46:41.971Z</time></trkpt><trkpt lat="44.9378731" lon="7.270402"><ele>1147.4</ele><time>2026-04-05T09:46:42.971Z</time></trkpt><trkpt lat="44.9379561" lon="7.2703673"><ele>1147.8000000000002</ele><time>2026-04-05T09:46:43.971Z</time></trkpt><trkpt lat="44.9380378" lon="7.2703222"><ele>1148.2</ele><time>2026-04-05T09:46:44.971Z</time></trkpt><trkpt lat="44.9381228" lon="7.2702483"><ele>1148.6000000000001</ele><time>2026-04-05T09:46:45.971Z</time></trkpt><trkpt lat="44.9382027" lon="7.2701686"><ele>1149.0</ele><time>2026-04-05T09:46:46.971Z</time></trkpt><trkpt lat="44.938281" lon="7.270106"><ele>1149.0</ele><time>2026-04-05T09:46:47.971Z</time></trkpt><trkpt lat="44.9383573" lon="7.2700457"><ele>1149.0</ele><time>2026-04-05T09:46:48.972Z</time></trkpt><trkpt lat="44.9384351" lon="7.2700025"><ele>1149.0</ele><time>2026-04-05T09:46:49.971Z</time></trkpt><trkpt lat="44.9385186" lon="7.269955"><ele>1149.0</ele><time>2026-04-05T09:46:50.971Z</time></trkpt><trkpt lat="44.9385963" lon="7.2699126"><ele>1149.0</ele><time>2026-04-05T09:46:51.971Z</time></trkpt><trkpt lat="44.9386718" lon="7.2698748"><ele>1149.0</ele><time>2026-04-05T09:46:52.971Z</time></trkpt><trkpt lat="44.9387391" lon="7.269839"><ele>1147.6000000000001</ele><time>2026-04-05T09:46:53.971Z</time></trkpt><trkpt lat="44.938806" lon="7.2698035"><ele>1146.2</ele><time>2026-04-05T09:46:54.971Z</time></trkpt><trkpt lat="44.9389288" lon="7.2698432"><ele>1144.8000000000002</ele><time>2026-04-05T09:46:56.971Z</time></trkpt><trkpt lat="44.9390487" lon="7.269915"><ele>1143.4</ele><time>2026-04-05T09:46:58.971Z</time></trkpt><trkpt lat="44.9390884" lon="7.2699842"><ele>1142.0</ele><time>2026-04-05T09:46:59.971Z</time></trkpt><trkpt lat="44.9391282" lon="7.2700637"><ele>1142.0</ele><time>2026-04-05T09:47:00.971Z</time></trkpt><trkpt lat="44.9391646" lon="7.2701578"><ele>1142.0</ele><time>2026-04-05T09:47:01.971Z</time></trkpt><trkpt lat="44.9392023" lon="7.2702844"><ele>1142.0</ele><time>2026-04-05T09:47:02.971Z</time></trkpt><trkpt lat="44.9392399" lon="7.2704363"><ele>1142.0</ele><time>2026-04-05T09:47:03.971Z</time></trkpt><trkpt lat="44.9392736" lon="7.270572"><ele>1142.0</ele><time>2026-04-05T09:47:04.971Z</time></trkpt><trkpt lat="44.9393169" lon="7.2706808"><ele>1141.1666666666667</ele><time>2026-04-05T09:47:05.971Z</time></trkpt><trkpt lat="44.9393721" lon="7.270771"><ele>1140.3333333333335</ele><time>2026-04-05T09:47:06.971Z</time></trkpt><trkpt lat="44.9394277" lon="7.270861"><ele>1139.5</ele><time>2026-04-05T09:47:07.971Z</time></trkpt><trkpt lat="44.9395121" lon="7.2708951"><ele>1138.6666666666667</ele><time>2026-04-05T09:47:08.971Z</time></trkpt><trkpt lat="44.9395905" lon="7.2709546"><ele>1137.8333333333333</ele><time>2026-04-05T09:47:09.971Z</time></trkpt><trkpt lat="44.9396919" lon="7.270965"><ele>1137.0</ele><time>2026-04-05T09:47:10.971Z</time></trkpt><trkpt lat="44.9398026" lon="7.2709972"><ele>1137.0</ele><time>2026-04-05T09:47:11.971Z</time></trkpt><trkpt lat="44.9398964" lon="7.2710082"><ele>1137.0</ele><time>2026-04-05T09:47:12.971Z</time></trkpt><trkpt lat="44.9400295" lon="7.2710597"><ele>1137.0</ele><time>2026-04-05T09:47:13.971Z</time></trkpt><trkpt lat="44.9401522" lon="7.2710519"><ele>1137.0</ele><time>2026-04-05T09:47:14.971Z</time></trkpt><trkpt lat="44.9402732" lon="7.2710686"><ele>1137.0</ele><time>2026-04-05T09:47:15.971Z</time></trkpt><trkpt lat="44.9403904" lon="7.2710897"><ele>1137.0</ele><time>2026-04-05T09:47:16.971Z</time></trkpt><trkpt lat="44.9405078" lon="7.2711131"><ele>1137.0</ele><time>2026-04-05T09:47:17.971Z</time></trkpt><trkpt lat="44.9406183" lon="7.2711275"><ele>1137.0</ele><time>2026-04-05T09:47:18.971Z</time></trkpt><trkpt lat="44.9406967" lon="7.271137"><ele>1137.0</ele><time>2026-04-05T09:47:19.971Z</time></trkpt><trkpt lat="44.9407719" lon="7.2711532"><ele>1137.0</ele><time>2026-04-05T09:47:20.971Z</time></trkpt><trkpt lat="44.9408453" lon="7.2712055"><ele>1137.0</ele><time>2026-04-05T09:47:21.971Z</time></trkpt><trkpt lat="44.9409117" lon="7.2712518"><ele>1137.0</ele><time>2026-04-05T09:47:22.971Z</time></trkpt><trkpt lat="44.9409898" lon="7.2713812"><ele>1137.0</ele><time>2026-04-05T09:47:24.971Z</time></trkpt><trkpt lat="44.941015" lon="7.2714649"><ele>1137.0</ele><time>2026-04-05T09:47:25.971Z</time></trkpt><trkpt lat="44.9410384" lon="7.2715554"><ele>1137.0</ele><time>2026-04-05T09:47:26.971Z</time></trkpt><trkpt lat="44.9410707" lon="7.2716399"><ele>1139.1666666666667</ele><time>2026-04-05T09:47:27.971Z</time></trkpt><trkpt lat="44.9411471" lon="7.2717539"><ele>1141.3333333333333</ele><time>2026-04-05T09:47:29.971Z</time></trkpt><trkpt lat="44.9412586" lon="7.2717942"><ele>1143.5</ele><time>2026-04-05T09:47:31.971Z</time></trkpt><trkpt lat="44.9413236" lon="7.271817"><ele>1145.6666666666665</ele><time>2026-04-05T09:47:32.971Z</time></trkpt><trkpt lat="44.9413872" lon="7.2718379"><ele>1147.8333333333333</ele><time>2026-04-05T09:47:33.971Z</time></trkpt><trkpt lat="44.9414508" lon="7.2719096"><ele>1150.0</ele><time>2026-04-05T09:47:34.971Z</time></trkpt><trkpt lat="44.9415075" lon="7.2719951"><ele>1150.0</ele><time>2026-04-05T09:47:35.971Z</time></trkpt><trkpt lat="44.9415595" lon="7.2720804"><ele>1150.0</ele><time>2026-04-05T09:47:36.971Z</time></trkpt><trkpt lat="44.9416221" lon="7.2721738"><ele>1150.0</ele><time>2026-04-05T09:47:37.971Z</time></trkpt><trkpt lat="44.9416775" lon="7.2722631"><ele>1150.0</ele><time>2026-04-05T09:47:38.971Z</time></trkpt><trkpt lat="44.9417451" lon="7.2723249"><ele>1150.0</ele><time>2026-04-05T09:47:39.971Z</time></trkpt><trkpt lat="44.9418163" lon="7.2723531"><ele>1150.0</ele><time>2026-04-05T09:47:40.971Z</time></trkpt><trkpt lat="44.9419559" lon="7.2723521"><ele>1149.0</ele><time>2026-04-05T09:47:42.971Z</time></trkpt><trkpt lat="44.9420557" lon="7.2722926"><ele>1148.0</ele><time>2026-04-05T09:47:43.971Z</time></trkpt><trkpt lat="44.9421463" lon="7.2722594"><ele>1147.0</ele><time>2026-04-05T09:47:44.971Z</time></trkpt><trkpt lat="44.9422301" lon="7.2722393"><ele>1146.0</ele><time>2026-04-05T09:47:45.971Z</time></trkpt><trkpt lat="44.9423125" lon="7.272251"><ele>1145.0</ele><time>2026-04-05T09:47:46.971Z</time></trkpt><trkpt lat="44.9424006" lon="7.2722609"><ele>1145.0</ele><time>2026-04-05T09:47:47.971Z</time></trkpt><trkpt lat="44.9424717" lon="7.2722889"><ele>1145.0</ele><time>2026-04-05T09:47:48.971Z</time></trkpt><trkpt lat="44.9425407" lon="7.2722957"><ele>1145.0</ele><time>2026-04-05T09:47:49.971Z</time></trkpt><trkpt lat="44.9426203" lon="7.2722511"><ele>1145.0</ele><time>2026-04-05T09:47:50.971Z</time></trkpt><trkpt lat="44.9426912" lon="7.2722237"><ele>1145.0</ele><time>2026-04-05T09:47:51.971Z</time></trkpt><trkpt lat="44.942764" lon="7.272189"><ele>1145.0</ele><time>2026-04-05T09:47:52.971Z</time></trkpt><trkpt lat="44.9428351" lon="7.2721496"><ele>1146.6666666666667</ele><time>2026-04-05T09:47:53.971Z</time></trkpt><trkpt lat="44.9429044" lon="7.2721369"><ele>1148.3333333333335</ele><time>2026-04-05T09:47:54.971Z</time></trkpt><trkpt lat="44.9429722" lon="7.2721678"><ele>1150.0</ele><time>2026-04-05T09:47:55.971Z</time></trkpt><trkpt lat="44.9430329" lon="7.2722464"><ele>1151.6666666666667</ele><time>2026-04-05T09:47:56.971Z</time></trkpt><trkpt lat="44.9430816" lon="7.2723254"><ele>1153.3333333333333</ele><time>2026-04-05T09:47:57.971Z</time></trkpt><trkpt lat="44.9431451" lon="7.272408"><ele>1155.0</ele><time>2026-04-05T09:47:58.971Z</time></trkpt><trkpt lat="44.9432213" lon="7.2724836"><ele>1155.0</ele><time>2026-04-05T09:47:59.971Z</time></trkpt><trkpt lat="44.943287" lon="7.2725452"><ele>1155.0</ele><time>2026-04-05T09:48:00.971Z</time></trkpt><trkpt lat="44.9433513" lon="7.2726018"><ele>1155.0</ele><time>2026-04-05T09:48:01.971Z</time></trkpt><trkpt lat="44.9434068" lon="7.2726587"><ele>1155.0</ele><time>2026-04-05T09:48:02.971Z</time></trkpt><trkpt lat="44.9434764" lon="7.2727019"><ele>1155.0</ele><time>2026-04-05T09:48:03.971Z</time></trkpt><trkpt lat="44.9435457" lon="7.2727115"><ele>1155.0</ele><time>2026-04-05T09:48:04.971Z</time></trkpt><trkpt lat="44.9436181" lon="7.27272"><ele>1155.0</ele><time>2026-04-05T09:48:05.971Z</time></trkpt><trkpt lat="44.9436952" lon="7.2726899"><ele>1156.1666666666667</ele><time>2026-04-05T09:48:06.971Z</time></trkpt><trkpt lat="44.9437639" lon="7.2726777"><ele>1157.3333333333333</ele><time>2026-04-05T09:48:07.971Z</time></trkpt><trkpt lat="44.9438431" lon="7.2726458"><ele>1158.5</ele><time>2026-04-05T09:48:08.971Z</time></trkpt><trkpt lat="44.9439162" lon="7.2726181"><ele>1159.6666666666665</ele><time>2026-04-05T09:48:09.971Z</time></trkpt><trkpt lat="44.9439959" lon="7.2725992"><ele>1160.8333333333333</ele><time>2026-04-05T09:48:10.971Z</time></trkpt><trkpt lat="44.9440714" lon="7.272547"><ele>1162.0</ele><time>2026-04-05T09:48:11.971Z</time></trkpt><trkpt lat="44.9441391" lon="7.2725111"><ele>1162.0</ele><time>2026-04-05T09:48:12.971Z</time></trkpt><trkpt lat="44.9442088" lon="7.2724749"><ele>1162.0</ele><time>2026-04-05T09:48:13.971Z</time></trkpt><trkpt lat="44.9442704" lon="7.2724364"><ele>1162.0</ele><time>2026-04-05T09:48:14.971Z</time></trkpt><trkpt lat="44.9443438" lon="7.2724038"><ele>1162.0</ele><time>2026-04-05T09:48:15.971Z</time></trkpt><trkpt lat="44.9444392" lon="7.2723477"><ele>1162.0</ele><time>2026-04-05T09:48:16.971Z</time></trkpt><trkpt lat="44.944517" lon="7.2723373"><ele>1162.0</ele><time>2026-04-05T09:48:17.971Z</time></trkpt><trkpt lat="44.9445927" lon="7.2723233"><ele>1161.6</ele><time>2026-04-05T09:48:18.971Z</time></trkpt><trkpt lat="44.9446614" lon="7.2723652"><ele>1161.2</ele><time>2026-04-05T09:48:19.971Z</time></trkpt><trkpt lat="44.9447964" lon="7.2724414"><ele>1160.8</ele><time>2026-04-05T09:48:21.971Z</time></trkpt><trkpt lat="44.9448817" lon="7.2725042"><ele>1160.4</ele><time>2026-04-05T09:48:22.971Z</time></trkpt><trkpt lat="44.944948" lon="7.2725758"><ele>1160.0</ele><time>2026-04-05T09:48:23.971Z</time></trkpt><trkpt lat="44.9450192" lon="7.2726336"><ele>1159.6666666666667</ele><time>2026-04-05T09:48:24.971Z</time></trkpt><trkpt lat="44.9450975" lon="7.2726911"><ele>1159.3333333333335</ele><time>2026-04-05T09:48:25.971Z</time></trkpt><trkpt lat="44.9451773" lon="7.2727379"><ele>1159.0</ele><time>2026-04-05T09:48:26.971Z</time></trkpt><trkpt lat="44.945257" lon="7.2727906"><ele>1158.6666666666667</ele><time>2026-04-05T09:48:27.971Z</time></trkpt><trkpt lat="44.9453325" lon="7.2728441"><ele>1158.3333333333333</ele><time>2026-04-05T09:48:28.971Z</time></trkpt><trkpt lat="44.9454068" lon="7.2729076"><ele>1158.0</ele><time>2026-04-05T09:48:29.971Z</time></trkpt><trkpt lat="44.9454831" lon="7.272971"><ele>1158.0</ele><time>2026-04-05T09:48:30.971Z</time></trkpt><trkpt lat="44.9455432" lon="7.2730196"><ele>1158.0</ele><time>2026-04-05T09:48:31.971Z</time></trkpt><trkpt lat="44.9456405" lon="7.2730832"><ele>1158.0</ele><time>2026-04-05T09:48:33.971Z</time></trkpt><trkpt lat="44.9457326" lon="7.2730699"><ele>1158.0</ele><time>2026-04-05T09:48:35.971Z</time></trkpt><trkpt lat="44.9458418" lon="7.2730035"><ele>1158.0</ele><time>2026-04-05T09:48:37.971Z</time></trkpt><trkpt lat="44.945903" lon="7.2729655"><ele>1154.4</ele><time>2026-04-05T09:48:38.971Z</time></trkpt><trkpt lat="44.9460105" lon="7.272886"><ele>1150.8</ele><time>2026-04-05T09:48:40.971Z</time></trkpt><trkpt lat="44.9461138" lon="7.2728058"><ele>1147.2</ele><time>2026-04-05T09:48:42.971Z</time></trkpt><trkpt lat="44.9462163" lon="7.2727076"><ele>1143.6</ele><time>2026-04-05T09:48:44.971Z</time></trkpt><trkpt lat="44.9462646" lon="7.2726424"><ele>1140.0</ele><time>2026-04-05T09:48:45.971Z</time></trkpt><trkpt lat="44.9463203" lon="7.2725738"><ele>1140.0</ele><time>2026-04-05T09:48:46.971Z</time></trkpt><trkpt lat="44.9463699" lon="7.2725024"><ele>1140.0</ele><time>2026-04-05T09:48:47.971Z</time></trkpt><trkpt lat="44.9464199" lon="7.2724254"><ele>1140.0</ele><time>2026-04-05T09:48:48.971Z</time></trkpt><trkpt lat="44.9464725" lon="7.2723475"><ele>1140.0</ele><time>2026-04-05T09:48:49.971Z</time></trkpt><trkpt lat="44.9465236" lon="7.2722566"><ele>1140.0</ele><time>2026-04-05T09:48:50.971Z</time></trkpt><trkpt lat="44.9465834" lon="7.272183"><ele>1140.0</ele><time>2026-04-05T09:48:51.971Z</time></trkpt><trkpt lat="44.9466398" lon="7.27211"><ele>1140.6</ele><time>2026-04-05T09:48:52.971Z</time></trkpt><trkpt lat="44.9467231" lon="7.2720344"><ele>1141.2</ele><time>2026-04-05T09:48:53.971Z</time></trkpt><trkpt lat="44.9468151" lon="7.2719471"><ele>1141.8</ele><time>2026-04-05T09:48:54.971Z</time></trkpt><trkpt lat="44.9468947" lon="7.271858"><ele>1142.4</ele><time>2026-04-05T09:48:55.971Z</time></trkpt><trkpt lat="44.9469755" lon="7.2717785"><ele>1143.0</ele><time>2026-04-05T09:48:56.971Z</time></trkpt><trkpt lat="44.9470565" lon="7.2717261"><ele>1143.0</ele><time>2026-04-05T09:48:57.971Z</time></trkpt><trkpt lat="44.9471442" lon="7.2716692"><ele>1143.0</ele><time>2026-04-05T09:48:58.971Z</time></trkpt><trkpt lat="44.9472333" lon="7.2716844"><ele>1143.0</ele><time>2026-04-05T09:48:59.971Z</time></trkpt><trkpt lat="44.947324" lon="7.2716915"><ele>1143.0</ele><time>2026-04-05T09:49:00.971Z</time></trkpt><trkpt lat="44.9474162" lon="7.2716825"><ele>1143.0</ele><time>2026-04-05T09:49:01.971Z</time></trkpt><trkpt lat="44.9475025" lon="7.2716647"><ele>1142.8</ele><time>2026-04-05T09:49:02.971Z</time></trkpt><trkpt lat="44.9475885" lon="7.271658"><ele>1142.6</ele><time>2026-04-05T09:49:03.971Z</time></trkpt><trkpt lat="44.9476836" lon="7.2716333"><ele>1142.4</ele><time>2026-04-05T09:49:04.971Z</time></trkpt><trkpt lat="44.947777" lon="7.271604"><ele>1142.2</ele><time>2026-04-05T09:49:05.971Z</time></trkpt><trkpt lat="44.9478719" lon="7.2715564"><ele>1142.0</ele><time>2026-04-05T09:49:06.971Z</time></trkpt><trkpt lat="44.9479724" lon="7.2714948"><ele>1142.0</ele><time>2026-04-05T09:49:07.971Z</time></trkpt><trkpt lat="44.9480554" lon="7.2714417"><ele>1142.0</ele><time>2026-04-05T09:49:08.971Z</time></trkpt><trkpt lat="44.948127" lon="7.2713778"><ele>1142.0</ele><time>2026-04-05T09:49:09.971Z</time></trkpt><trkpt lat="44.9482548" lon="7.2713195"><ele>1142.0</ele><time>2026-04-05T09:49:11.971Z</time></trkpt><trkpt lat="44.9483178" lon="7.2713068"><ele>1142.0</ele><time>2026-04-05T09:49:12.971Z</time></trkpt><trkpt lat="44.9484317" lon="7.2713642"><ele>1140.5</ele><time>2026-04-05T09:49:14.971Z</time></trkpt><trkpt lat="44.9484973" lon="7.2714195"><ele>1139.0</ele><time>2026-04-05T09:49:15.971Z</time></trkpt><trkpt lat="44.9485745" lon="7.2715035"><ele>1137.5</ele><time>2026-04-05T09:49:16.971Z</time></trkpt><trkpt lat="44.948635" lon="7.2715915"><ele>1136.0</ele><time>2026-04-05T09:49:17.971Z</time></trkpt><trkpt lat="44.9486909" lon="7.2716819"><ele>1134.5</ele><time>2026-04-05T09:49:18.971Z</time></trkpt><trkpt lat="44.9487469" lon="7.2717819"><ele>1133.0</ele><time>2026-04-05T09:49:19.971Z</time></trkpt><trkpt lat="44.9488018" lon="7.271876"><ele>1133.0</ele><time>2026-04-05T09:49:20.971Z</time></trkpt><trkpt lat="44.9488537" lon="7.2719609"><ele>1133.0</ele><time>2026-04-05T09:49:21.971Z</time></trkpt><trkpt lat="44.9489005" lon="7.2720435"><ele>1133.0</ele><time>2026-04-05T09:49:22.971Z</time></trkpt><trkpt lat="44.9489501" lon="7.2721371"><ele>1133.0</ele><time>2026-04-05T09:49:23.971Z</time></trkpt><trkpt lat="44.9489903" lon="7.2722267"><ele>1133.0</ele><time>2026-04-05T09:49:24.971Z</time></trkpt><trkpt lat="44.9490601" lon="7.2723515"><ele>1133.0</ele><time>2026-04-05T09:49:26.971Z</time></trkpt><trkpt lat="44.9491193" lon="7.2724099"><ele>1133.1666666666667</ele><time>2026-04-05T09:49:27.971Z</time></trkpt><trkpt lat="44.9491833" lon="7.2724605"><ele>1133.3333333333335</ele><time>2026-04-05T09:49:28.971Z</time></trkpt><trkpt lat="44.949302" lon="7.2725357"><ele>1133.5</ele><time>2026-04-05T09:49:30.972Z</time></trkpt><trkpt lat="44.949369" lon="7.2725506"><ele>1133.6666666666667</ele><time>2026-04-05T09:49:31.971Z</time></trkpt><trkpt lat="44.9494476" lon="7.2725588"><ele>1133.8333333333333</ele><time>2026-04-05T09:49:32.971Z</time></trkpt><trkpt lat="44.9495313" lon="7.2725652"><ele>1134.0</ele><time>2026-04-05T09:49:33.971Z</time></trkpt><trkpt lat="44.9496138" lon="7.2725661"><ele>1133.1666666666667</ele><time>2026-04-05T09:49:34.971Z</time></trkpt><trkpt lat="44.9496918" lon="7.2725547"><ele>1132.3333333333333</ele><time>2026-04-05T09:49:35.971Z</time></trkpt><trkpt lat="44.9497821" lon="7.27254"><ele>1131.5</ele><time>2026-04-05T09:49:36.971Z</time></trkpt><trkpt lat="44.9498663" lon="7.2725288"><ele>1130.6666666666665</ele><time>2026-04-05T09:49:37.971Z</time></trkpt><trkpt lat="44.9499515" lon="7.272511"><ele>1129.8333333333333</ele><time>2026-04-05T09:49:38.971Z</time></trkpt><trkpt lat="44.9500354" lon="7.2725036"><ele>1129.0</ele><time>2026-04-05T09:49:39.971Z</time></trkpt><trkpt lat="44.9501267" lon="7.2724968"><ele>1127.6666666666665</ele><time>2026-04-05T09:49:40.971Z</time></trkpt><trkpt lat="44.9502162" lon="7.2725061"><ele>1126.3333333333333</ele><time>2026-04-05T09:49:41.971Z</time></trkpt><trkpt lat="44.9503039" lon="7.2725145"><ele>1125.0</ele><time>2026-04-05T09:49:42.971Z</time></trkpt><trkpt lat="44.9503903" lon="7.2725171"><ele>1123.6666666666667</ele><time>2026-04-05T09:49:43.971Z</time></trkpt><trkpt lat="44.9504737" lon="7.272521"><ele>1122.3333333333335</ele><time>2026-04-05T09:49:44.971Z</time></trkpt><trkpt lat="44.9505516" lon="7.2725343"><ele>1121.0</ele><time>2026-04-05T09:49:45.971Z</time></trkpt><trkpt lat="44.9506336" lon="7.2725672"><ele>1121.0</ele><time>2026-04-05T09:49:46.971Z</time></trkpt><trkpt lat="44.9507147" lon="7.2726102"><ele>1121.0</ele><time>2026-04-05T09:49:47.971Z</time></trkpt><trkpt lat="44.9508055" lon="7.2726738"><ele>1121.0</ele><time>2026-04-05T09:49:48.971Z</time></trkpt><trkpt lat="44.9509023" lon="7.2727592"><ele>1121.0</ele><time>2026-04-05T09:49:49.971Z</time></trkpt><trkpt lat="44.9510011" lon="7.2728521"><ele>1121.0</ele><time>2026-04-05T09:49:50.971Z</time></trkpt><trkpt lat="44.9510928" lon="7.2729382"><ele>1122.0</ele><time>2026-04-05T09:49:51.971Z</time></trkpt><trkpt lat="44.9511783" lon="7.2730241"><ele>1123.0</ele><time>2026-04-05T09:49:52.971Z</time></trkpt><trkpt lat="44.9512625" lon="7.2731234"><ele>1124.0</ele><time>2026-04-05T09:49:53.971Z</time></trkpt><trkpt lat="44.95136" lon="7.2732309"><ele>1125.0</ele><time>2026-04-05T09:49:54.971Z</time></trkpt><trkpt lat="44.951424" lon="7.2733193"><ele>1126.0</ele><time>2026-04-05T09:49:55.971Z</time></trkpt><trkpt lat="44.9514778" lon="7.2733985"><ele>1126.8</ele><time>2026-04-05T09:49:56.971Z</time></trkpt><trkpt lat="44.9515216" lon="7.2734652"><ele>1127.6</ele><time>2026-04-05T09:49:57.971Z</time></trkpt><trkpt lat="44.9516221" lon="7.2735057"><ele>1128.4</ele><time>2026-04-05T09:49:59.971Z</time></trkpt><trkpt lat="44.9516864" lon="7.2733774"><ele>1129.2</ele><time>2026-04-05T09:50:01.971Z</time></trkpt><trkpt lat="44.951735" lon="7.2732894"><ele>1130.0</ele><time>2026-04-05T09:50:02.971Z</time></trkpt><trkpt lat="44.9517972" lon="7.2731808"><ele>1132.5</ele><time>2026-04-05T09:50:03.971Z</time></trkpt><trkpt lat="44.9518504" lon="7.2730764"><ele>1135.0</ele><time>2026-04-05T09:50:04.971Z</time></trkpt><trkpt lat="44.9518976" lon="7.2729904"><ele>1137.5</ele><time>2026-04-05T09:50:05.971Z</time></trkpt><trkpt lat="44.9519494" lon="7.2729109"><ele>1140.0</ele><time>2026-04-05T09:50:06.971Z</time></trkpt><trkpt lat="44.9520258" lon="7.2728816"><ele>1142.5</ele><time>2026-04-05T09:50:07.971Z</time></trkpt><trkpt lat="44.9521118" lon="7.2728635"><ele>1145.0</ele><time>2026-04-05T09:50:08.971Z</time></trkpt><trkpt lat="44.9522032" lon="7.2728612"><ele>1145.0</ele><time>2026-04-05T09:50:09.971Z</time></trkpt><trkpt lat="44.9522905" lon="7.2729069"><ele>1145.0</ele><time>2026-04-05T09:50:10.971Z</time></trkpt><trkpt lat="44.9523797" lon="7.2729654"><ele>1145.0</ele><time>2026-04-05T09:50:11.971Z</time></trkpt><trkpt lat="44.9524867" lon="7.2730601"><ele>1145.0</ele><time>2026-04-05T09:50:12.971Z</time></trkpt><trkpt lat="44.9525776" lon="7.27317"><ele>1145.0</ele><time>2026-04-05T09:50:13.971Z</time></trkpt><trkpt lat="44.9526663" lon="7.273279"><ele>1148.0</ele><time>2026-04-05T09:50:14.971Z</time></trkpt><trkpt lat="44.9527507" lon="7.2733872"><ele>1151.0</ele><time>2026-04-05T09:50:15.971Z</time></trkpt><trkpt lat="44.9528206" lon="7.273477"><ele>1154.0</ele><time>2026-04-05T09:50:16.971Z</time></trkpt><trkpt lat="44.9528958" lon="7.273564"><ele>1157.0</ele><time>2026-04-05T09:50:17.971Z</time></trkpt><trkpt lat="44.9529795" lon="7.2735841"><ele>1160.0</ele><time>2026-04-05T09:50:18.971Z</time></trkpt><trkpt lat="44.9530639" lon="7.273597"><ele>1160.0</ele><time>2026-04-05T09:50:19.971Z</time></trkpt><trkpt lat="44.9531258" lon="7.2735256"><ele>1160.0</ele><time>2026-04-05T09:50:20.971Z</time></trkpt><trkpt lat="44.9531838" lon="7.2734366"><ele>1160.0</ele><time>2026-04-05T09:50:21.971Z</time></trkpt><trkpt lat="44.9532424" lon="7.2733319"><ele>1160.0</ele><time>2026-04-05T09:50:22.971Z</time></trkpt><trkpt lat="44.9533199" lon="7.2731942"><ele>1160.0</ele><time>2026-04-05T09:50:23.971Z</time></trkpt><trkpt lat="44.9533913" lon="7.2730703"><ele>1161.0</ele><time>2026-04-05T09:50:24.971Z</time></trkpt><trkpt lat="44.9535076" lon="7.2729802"><ele>1162.0</ele><time>2026-04-05T09:50:25.971Z</time></trkpt><trkpt lat="44.9535833" lon="7.2728794"><ele>1163.0</ele><time>2026-04-05T09:50:26.971Z</time></trkpt><trkpt lat="44.9536733" lon="7.2727974"><ele>1164.0</ele><time>2026-04-05T09:50:27.971Z</time></trkpt><trkpt lat="44.9537747" lon="7.2727575"><ele>1165.0</ele><time>2026-04-05T09:50:28.971Z</time></trkpt><trkpt lat="44.9538681" lon="7.2727269"><ele>1165.0</ele><time>2026-04-05T09:50:29.971Z</time></trkpt><trkpt lat="44.9539747" lon="7.2727068"><ele>1165.0</ele><time>2026-04-05T09:50:30.971Z</time></trkpt><trkpt lat="44.9540887" lon="7.272686"><ele>1165.0</ele><time>2026-04-05T09:50:31.971Z</time></trkpt><trkpt lat="44.9541871" lon="7.2726649"><ele>1165.0</ele><time>2026-04-05T09:50:32.971Z</time></trkpt><trkpt lat="44.9542797" lon="7.2726555"><ele>1165.0</ele><time>2026-04-05T09:50:33.971Z</time></trkpt><trkpt lat="44.9543747" lon="7.2726496"><ele>1165.8333333333333</ele><time>2026-04-05T09:50:34.971Z</time></trkpt><trkpt lat="44.954465" lon="7.2726386"><ele>1166.6666666666665</ele><time>2026-04-05T09:50:35.971Z</time></trkpt><trkpt lat="44.9545571" lon="7.2726552"><ele>1167.5</ele><time>2026-04-05T09:50:36.971Z</time></trkpt><trkpt lat="44.9546462" lon="7.2726798"><ele>1168.3333333333333</ele><time>2026-04-05T09:50:37.971Z</time></trkpt><trkpt lat="44.9547276" lon="7.2727289"><ele>1169.1666666666667</ele><time>2026-04-05T09:50:38.971Z</time></trkpt><trkpt lat="44.9548046" lon="7.2727829"><ele>1170.0</ele><time>2026-04-05T09:50:39.971Z</time></trkpt><trkpt lat="44.9548902" lon="7.2728409"><ele>1170.0</ele><time>2026-04-05T09:50:40.971Z</time></trkpt><trkpt lat="44.9549746" lon="7.2728967"><ele>1170.0</ele><time>2026-04-05T09:50:41.971Z</time></trkpt><trkpt lat="44.955057" lon="7.2729443"><ele>1170.0</ele><time>2026-04-05T09:50:42.972Z</time></trkpt><trkpt lat="44.9551471" lon="7.2729986"><ele>1170.0</ele><time>2026-04-05T09:50:43.971Z</time></trkpt><trkpt lat="44.9552365" lon="7.273049"><ele>1170.0</ele><time>2026-04-05T09:50:44.971Z</time></trkpt><trkpt lat="44.9553181" lon="7.2731092"><ele>1172.8</ele><time>2026-04-05T09:50:45.971Z</time></trkpt><trkpt lat="44.9554008" lon="7.2731726"><ele>1175.6</ele><time>2026-04-05T09:50:46.971Z</time></trkpt><trkpt lat="44.9554662" lon="7.2732576"><ele>1178.4</ele><time>2026-04-05T09:50:47.972Z</time></trkpt><trkpt lat="44.9555447" lon="7.273346"><ele>1181.2</ele><time>2026-04-05T09:50:48.971Z</time></trkpt><trkpt lat="44.955618" lon="7.2734464"><ele>1184.0</ele><time>2026-04-05T09:50:49.971Z</time></trkpt><trkpt lat="44.955686" lon="7.273513"><ele>1184.0</ele><time>2026-04-05T09:50:50.971Z</time></trkpt><trkpt lat="44.9558135" lon="7.2735791"><ele>1184.0</ele><time>2026-04-05T09:50:52.971Z</time></trkpt><trkpt lat="44.955897" lon="7.2735983"><ele>1184.0</ele><time>2026-04-05T09:50:53.971Z</time></trkpt><trkpt lat="44.9559653" lon="7.2736052"><ele>1184.0</ele><time>2026-04-05T09:50:54.971Z</time></trkpt><trkpt lat="44.9560389" lon="7.2736155"><ele>1184.0</ele><time>2026-04-05T09:50:55.971Z</time></trkpt><trkpt lat="44.956154" lon="7.273683"><ele>1181.5</ele><time>2026-04-05T09:50:57.971Z</time></trkpt><trkpt lat="44.956207" lon="7.2737465"><ele>1179.0</ele><time>2026-04-05T09:50:58.971Z</time></trkpt><trkpt lat="44.956244" lon="7.2738188"><ele>1176.5</ele><time>2026-04-05T09:50:59.971Z</time></trkpt><trkpt lat="44.9562977" lon="7.2739726"><ele>1174.0</ele><time>2026-04-05T09:51:01.971Z</time></trkpt><trkpt lat="44.956326" lon="7.2740871"><ele>1171.5</ele><time>2026-04-05T09:51:02.971Z</time></trkpt><trkpt lat="44.9563521" lon="7.2742084"><ele>1169.0</ele><time>2026-04-05T09:51:03.971Z</time></trkpt><trkpt lat="44.956371" lon="7.2743247"><ele>1168.8333333333335</ele><time>2026-04-05T09:51:04.971Z</time></trkpt><trkpt lat="44.9563974" lon="7.2744354"><ele>1168.6666666666667</ele><time>2026-04-05T09:51:05.971Z</time></trkpt><trkpt lat="44.956424" lon="7.2745547"><ele>1168.5</ele><time>2026-04-05T09:51:06.971Z</time></trkpt><trkpt lat="44.9564555" lon="7.2746684"><ele>1168.3333333333333</ele><time>2026-04-05T09:51:07.971Z</time></trkpt><trkpt lat="44.9564777" lon="7.2747804"><ele>1168.1666666666665</ele><time>2026-04-05T09:51:08.971Z</time></trkpt><trkpt lat="44.956501" lon="7.2749025"><ele>1168.0</ele><time>2026-04-05T09:51:09.971Z</time></trkpt><trkpt lat="44.9565301" lon="7.2750144"><ele>1168.0</ele><time>2026-04-05T09:51:10.971Z</time></trkpt><trkpt lat="44.9565545" lon="7.2751385"><ele>1168.0</ele><time>2026-04-05T09:51:11.971Z</time></trkpt><trkpt lat="44.9565845" lon="7.2752708"><ele>1168.0</ele><time>2026-04-05T09:51:12.971Z</time></trkpt><trkpt lat="44.9566085" lon="7.2753913"><ele>1168.0</ele><time>2026-04-05T09:51:13.971Z</time></trkpt><trkpt lat="44.9566276" lon="7.2754876"><ele>1168.0</ele><time>2026-04-05T09:51:14.971Z</time></trkpt><trkpt lat="44.9566637" lon="7.2755878"><ele>1168.0</ele><time>2026-04-05T09:51:15.971Z</time></trkpt><trkpt lat="44.956712" lon="7.2756844"><ele>1165.6</ele><time>2026-04-05T09:51:16.971Z</time></trkpt><trkpt lat="44.9567711" lon="7.2757693"><ele>1163.1999999999998</ele><time>2026-04-05T09:51:17.971Z</time></trkpt><trkpt lat="44.9568356" lon="7.2758476"><ele>1160.8</ele><time>2026-04-05T09:51:18.971Z</time></trkpt><trkpt lat="44.9569315" lon="7.2759204"><ele>1158.3999999999999</ele><time>2026-04-05T09:51:19.971Z</time></trkpt><trkpt lat="44.9570162" lon="7.2759976"><ele>1156.0</ele><time>2026-04-05T09:51:20.971Z</time></trkpt><trkpt lat="44.9571074" lon="7.2760636"><ele>1156.0</ele><time>2026-04-05T09:51:21.971Z</time></trkpt><trkpt lat="44.9571912" lon="7.2761329"><ele>1156.0</ele><time>2026-04-05T09:51:22.971Z</time></trkpt><trkpt lat="44.9572656" lon="7.2761996"><ele>1156.0</ele><time>2026-04-05T09:51:23.971Z</time></trkpt><trkpt lat="44.9573409" lon="7.2762712"><ele>1156.0</ele><time>2026-04-05T09:51:24.971Z</time></trkpt><trkpt lat="44.9574148" lon="7.2763362"><ele>1156.0</ele><time>2026-04-05T09:51:25.971Z</time></trkpt><trkpt lat="44.9574836" lon="7.2764043"><ele>1156.0</ele><time>2026-04-05T09:51:26.971Z</time></trkpt><trkpt lat="44.9575382" lon="7.2764788"><ele>1155.4285714285716</ele><time>2026-04-05T09:51:27.971Z</time></trkpt><trkpt lat="44.9575829" lon="7.2765612"><ele>1154.857142857143</ele><time>2026-04-05T09:51:28.971Z</time></trkpt><trkpt lat="44.9576259" lon="7.27665"><ele>1154.2857142857142</ele><time>2026-04-05T09:51:29.971Z</time></trkpt><trkpt lat="44.9576616" lon="7.2767416"><ele>1153.7142857142858</ele><time>2026-04-05T09:51:30.971Z</time></trkpt><trkpt lat="44.9577008" lon="7.2768278"><ele>1153.142857142857</ele><time>2026-04-05T09:51:31.971Z</time></trkpt><trkpt lat="44.9577468" lon="7.276907"><ele>1152.5714285714287</ele><time>2026-04-05T09:51:32.971Z</time></trkpt><trkpt lat="44.957807" lon="7.2769648"><ele>1152.0</ele><time>2026-04-05T09:51:33.971Z</time></trkpt><trkpt lat="44.9578776" lon="7.2770035"><ele>1152.0</ele><time>2026-04-05T09:51:34.971Z</time></trkpt><trkpt lat="44.9579568" lon="7.2770344"><ele>1152.0</ele><time>2026-04-05T09:51:35.971Z</time></trkpt><trkpt lat="44.9580445" lon="7.2770398"><ele>1152.0</ele><time>2026-04-05T09:51:36.971Z</time></trkpt><trkpt lat="44.9581386" lon="7.277024"><ele>1152.0</ele><time>2026-04-05T09:51:37.971Z</time></trkpt><trkpt lat="44.9582325" lon="7.2769947"><ele>1152.0</ele><time>2026-04-05T09:51:38.971Z</time></trkpt><trkpt lat="44.9583281" lon="7.2769438"><ele>1154.2</ele><time>2026-04-05T09:51:39.971Z</time></trkpt><trkpt lat="44.9584325" lon="7.2768744"><ele>1156.4</ele><time>2026-04-05T09:51:40.971Z</time></trkpt><trkpt lat="44.9585334" lon="7.2767964"><ele>1158.6</ele><time>2026-04-05T09:51:41.971Z</time></trkpt><trkpt lat="44.9586235" lon="7.2767216"><ele>1160.8</ele><time>2026-04-05T09:51:42.971Z</time></trkpt><trkpt lat="44.9587121" lon="7.2766587"><ele>1163.0</ele><time>2026-04-05T09:51:43.971Z</time></trkpt><trkpt lat="44.9588072" lon="7.2766295"><ele>1163.0</ele><time>2026-04-05T09:51:44.971Z</time></trkpt><trkpt lat="44.9589042" lon="7.2766252"><ele>1163.0</ele><time>2026-04-05T09:51:45.971Z</time></trkpt><trkpt lat="44.9590127" lon="7.2766524"><ele>1163.0</ele><time>2026-04-05T09:51:46.971Z</time></trkpt><trkpt lat="44.9591171" lon="7.2767004"><ele>1163.0</ele><time>2026-04-05T09:51:47.972Z</time></trkpt><trkpt lat="44.9592092" lon="7.2767862"><ele>1163.0</ele><time>2026-04-05T09:51:48.971Z</time></trkpt><trkpt lat="44.9593135" lon="7.276881"><ele>1164.25</ele><time>2026-04-05T09:51:49.971Z</time></trkpt><trkpt lat="44.9594241" lon="7.2769629"><ele>1165.5</ele><time>2026-04-05T09:51:50.971Z</time></trkpt><trkpt lat="44.9595301" lon="7.2770314"><ele>1166.75</ele><time>2026-04-05T09:51:51.971Z</time></trkpt><trkpt lat="44.9596359" lon="7.2770946"><ele>1168.0</ele><time>2026-04-05T09:51:52.971Z</time></trkpt><trkpt lat="44.9597403" lon="7.2771517"><ele>1168.0</ele><time>2026-04-05T09:51:53.971Z</time></trkpt><trkpt lat="44.9598334" lon="7.2772037"><ele>1168.0</ele><time>2026-04-05T09:51:54.971Z</time></trkpt><trkpt lat="44.9599094" lon="7.2772458"><ele>1168.0</ele><time>2026-04-05T09:51:55.971Z</time></trkpt><trkpt lat="44.9599852" lon="7.2772681"><ele>1168.0</ele><time>2026-04-05T09:51:56.971Z</time></trkpt><trkpt lat="44.960053" lon="7.2772852"><ele>1168.0</ele><time>2026-04-05T09:51:57.971Z</time></trkpt><trkpt lat="44.9601238" lon="7.2772921"><ele>1168.0</ele><time>2026-04-05T09:51:58.971Z</time></trkpt><trkpt lat="44.9601922" lon="7.2772966"><ele>1167.5</ele><time>2026-04-05T09:51:59.971Z</time></trkpt><trkpt lat="44.9602641" lon="7.2772924"><ele>1167.0</ele><time>2026-04-05T09:52:00.971Z</time></trkpt><trkpt lat="44.9603438" lon="7.2772871"><ele>1166.5</ele><time>2026-04-05T09:52:01.971Z</time></trkpt><trkpt lat="44.9604125" lon="7.2772831"><ele>1166.0</ele><time>2026-04-05T09:52:02.971Z</time></trkpt><trkpt lat="44.9604808" lon="7.2772864"><ele>1165.5</ele><time>2026-04-05T09:52:03.971Z</time></trkpt><trkpt lat="44.9605921" lon="7.2773121"><ele>1165.0</ele><time>2026-04-05T09:52:05.971Z</time></trkpt><trkpt lat="44.960691" lon="7.2773605"><ele>1165.0</ele><time>2026-04-05T09:52:07.971Z</time></trkpt><trkpt lat="44.9607965" lon="7.2774085"><ele>1165.0</ele><time>2026-04-05T09:52:09.971Z</time></trkpt><trkpt lat="44.9609001" lon="7.2774599"><ele>1165.0</ele><time>2026-04-05T09:52:11.971Z</time></trkpt><trkpt lat="44.9610101" lon="7.2775029"><ele>1165.0</ele><time>2026-04-05T09:52:13.971Z</time></trkpt><trkpt lat="44.9611192" lon="7.2775488"><ele>1165.0</ele><time>2026-04-05T09:52:15.971Z</time></trkpt><trkpt lat="44.9612228" lon="7.2776299"><ele>1163.6666666666665</ele><time>2026-04-05T09:52:17.971Z</time></trkpt><trkpt lat="44.9612727" lon="7.2776969"><ele>1162.3333333333333</ele><time>2026-04-05T09:52:18.971Z</time></trkpt><trkpt lat="44.9613086" lon="7.2777844"><ele>1161.0</ele><time>2026-04-05T09:52:19.971Z</time></trkpt><trkpt lat="44.9613363" lon="7.2778711"><ele>1159.6666666666667</ele><time>2026-04-05T09:52:20.971Z</time></trkpt><trkpt lat="44.9613849" lon="7.2780293"><ele>1158.3333333333335</ele><time>2026-04-05T09:52:22.971Z</time></trkpt><trkpt lat="44.9614217" lon="7.278177"><ele>1157.0</ele><time>2026-04-05T09:52:24.971Z</time></trkpt><trkpt lat="44.9614024" lon="7.2783204"><ele>1157.0</ele><time>2026-04-05T09:52:26.971Z</time></trkpt><trkpt lat="44.9614195" lon="7.2784613"><ele>1157.0</ele><time>2026-04-05T09:52:28.971Z</time></trkpt><trkpt lat="44.9614836" lon="7.2786189"><ele>1157.0</ele><time>2026-04-05T09:52:30.971Z</time></trkpt><trkpt lat="44.9615235" lon="7.2787079"><ele>1157.0</ele><time>2026-04-05T09:52:31.971Z</time></trkpt><trkpt lat="44.9615686" lon="7.278811"><ele>1157.0</ele><time>2026-04-05T09:52:32.971Z</time></trkpt><trkpt lat="44.9616109" lon="7.2789253"><ele>1157.1666666666667</ele><time>2026-04-05T09:52:33.971Z</time></trkpt><trkpt lat="44.9616551" lon="7.2790354"><ele>1157.3333333333335</ele><time>2026-04-05T09:52:34.971Z</time></trkpt><trkpt lat="44.961699" lon="7.2791365"><ele>1157.5</ele><time>2026-04-05T09:52:35.971Z</time></trkpt><trkpt lat="44.9617371" lon="7.2792347"><ele>1157.6666666666667</ele><time>2026-04-05T09:52:36.971Z</time></trkpt><trkpt lat="44.9617698" lon="7.2793271"><ele>1157.8333333333333</ele><time>2026-04-05T09:52:37.971Z</time></trkpt><trkpt lat="44.9618026" lon="7.2794047"><ele>1158.0</ele><time>2026-04-05T09:52:38.971Z</time></trkpt><trkpt lat="44.9618512" lon="7.2795237"><ele>1156.0</ele><time>2026-04-05T09:52:40.971Z</time></trkpt><trkpt lat="44.9619233" lon="7.2795647"><ele>1156.0</ele><time>2026-04-05T09:52:42.971Z</time></trkpt><trkpt lat="44.9619689" lon="7.2794772"><ele>1156.0</ele><time>2026-04-05T09:52:44.971Z</time></trkpt><trkpt lat="44.9619714" lon="7.2793648"><ele>1156.0</ele><time>2026-04-05T09:52:46.971Z</time></trkpt><trkpt lat="44.9619991" lon="7.279279"><ele>1156.0</ele><time>2026-04-05T09:52:48.971Z</time></trkpt><trkpt lat="44.9620765" lon="7.2792641"><ele>1156.0</ele><time>2026-04-05T09:52:51.971Z</time></trkpt></trkseg><trkseg><trkpt lat="44.9620755" lon="7.2792019"><ele>1156.0</ele><time>2026-04-05T10:16:01.971Z</time></trkpt><trkpt lat="44.9619967" lon="7.2791626"><ele>1156.0</ele><time>2026-04-05T10:16:04.971Z</time></trkpt><trkpt lat="44.9619754" lon="7.2792992"><ele>1156.0</ele><time>2026-04-05T10:16:06.971Z</time></trkpt><trkpt lat="44.9619792" lon="7.2794324"><ele>1156.0</ele><time>2026-04-05T10:16:08.971Z</time></trkpt><trkpt lat="44.9619455" lon="7.2795257"><ele>1156.0</ele><time>2026-04-05T10:16:10.971Z</time></trkpt><trkpt lat="44.9618704" lon="7.2795032"><ele>1156.0</ele><time>2026-04-05T10:16:12.971Z</time></trkpt><trkpt lat="44.9618074" lon="7.2793792"><ele>1156.0</ele><time>2026-04-05T10:16:14.971Z</time></trkpt><trkpt lat="44.9617772" lon="7.2792908"><ele>1156.0</ele><time>2026-04-05T10:16:15.971Z</time></trkpt><trkpt lat="44.961742" lon="7.2791991"><ele>1156.0</ele><time>2026-04-05T10:16:16.971Z</time></trkpt><trkpt lat="44.9617047" lon="7.2791038"><ele>1156.0</ele><time>2026-04-05T10:16:17.971Z</time></trkpt><trkpt lat="44.9616647" lon="7.2790103"><ele>1156.0</ele><time>2026-04-05T10:16:18.971Z</time></trkpt><trkpt lat="44.9616239" lon="7.2789152"><ele>1156.0</ele><time>2026-04-05T10:16:19.971Z</time></trkpt><trkpt lat="44.9615875" lon="7.2788161"><ele>1156.2</ele><time>2026-04-05T10:16:20.971Z</time></trkpt><trkpt lat="44.9615512" lon="7.2787235"><ele>1156.3999999999999</ele><time>2026-04-05T10:16:21.971Z</time></trkpt><trkpt lat="44.9615124" lon="7.27864"><ele>1156.6</ele><time>2026-04-05T10:16:22.972Z</time></trkpt><trkpt lat="44.961471" lon="7.2785613"><ele>1156.8</ele><time>2026-04-05T10:16:23.971Z</time></trkpt><trkpt lat="44.961426" lon="7.2784119"><ele>1157.0</ele><time>2026-04-05T10:16:25.971Z</time></trkpt><trkpt lat="44.9614342" lon="7.2782279"><ele>1157.0</ele><time>2026-04-05T10:16:27.971Z</time></trkpt><trkpt lat="44.9614148" lon="7.2781046"><ele>1157.0</ele><time>2026-04-05T10:16:28.971Z</time></trkpt><trkpt lat="44.9613874" lon="7.2779888"><ele>1157.0</ele><time>2026-04-05T10:16:29.971Z</time></trkpt><trkpt lat="44.9613531" lon="7.2778824"><ele>1157.0</ele><time>2026-04-05T10:16:30.971Z</time></trkpt><trkpt lat="44.9613149" lon="7.2777759"><ele>1157.0</ele><time>2026-04-05T10:16:31.971Z</time></trkpt><trkpt lat="44.9612651" lon="7.2776807"><ele>1157.0</ele><time>2026-04-05T10:16:32.971Z</time></trkpt><trkpt lat="44.9611969" lon="7.2775968"><ele>1156.1666666666667</ele><time>2026-04-05T10:16:33.971Z</time></trkpt><trkpt lat="44.9611128" lon="7.277542"><ele>1155.3333333333335</ele><time>2026-04-05T10:16:34.971Z</time></trkpt><trkpt lat="44.9610307" lon="7.2775032"><ele>1154.5</ele><time>2026-04-05T10:16:35.971Z</time></trkpt><trkpt lat="44.9609473" lon="7.277468"><ele>1153.6666666666667</ele><time>2026-04-05T10:16:36.971Z</time></trkpt><trkpt lat="44.9608672" lon="7.2774329"><ele>1152.8333333333333</ele><time>2026-04-05T10:16:37.971Z</time></trkpt><trkpt lat="44.9607855" lon="7.2773929"><ele>1152.0</ele><time>2026-04-05T10:16:38.971Z</time></trkpt><trkpt lat="44.9607099" lon="7.2773577"><ele>1154.1666666666667</ele><time>2026-04-05T10:16:39.971Z</time></trkpt><trkpt lat="44.9606295" lon="7.2773187"><ele>1156.3333333333333</ele><time>2026-04-05T10:16:40.971Z</time></trkpt><trkpt lat="44.9605451" lon="7.2772985"><ele>1158.5</ele><time>2026-04-05T10:16:41.971Z</time></trkpt><trkpt lat="44.960457" lon="7.2772893"><ele>1160.6666666666665</ele><time>2026-04-05T10:16:42.971Z</time></trkpt><trkpt lat="44.9603701" lon="7.277285"><ele>1162.8333333333333</ele><time>2026-04-05T10:16:43.971Z</time></trkpt><trkpt lat="44.9602889" lon="7.2772829"><ele>1165.0</ele><time>2026-04-05T10:16:44.971Z</time></trkpt><trkpt lat="44.9602132" lon="7.2772825"><ele>1165.0</ele><time>2026-04-05T10:16:45.971Z</time></trkpt><trkpt lat="44.9601456" lon="7.2772847"><ele>1165.0</ele><time>2026-04-05T10:16:46.971Z</time></trkpt><trkpt lat="44.9600165" lon="7.2772685"><ele>1165.0</ele><time>2026-04-05T10:16:48.971Z</time></trkpt><trkpt lat="44.959944" lon="7.2772425"><ele>1165.0</ele><time>2026-04-05T10:16:49.971Z</time></trkpt><trkpt lat="44.9598644" lon="7.2772032"><ele>1165.0</ele><time>2026-04-05T10:16:50.971Z</time></trkpt><trkpt lat="44.959784" lon="7.2771586"><ele>1165.0</ele><time>2026-04-05T10:16:51.971Z</time></trkpt><trkpt lat="44.9597058" lon="7.2771173"><ele>1165.5</ele><time>2026-04-05T10:16:52.971Z</time></trkpt><trkpt lat="44.959635" lon="7.2770783"><ele>1166.0</ele><time>2026-04-05T10:16:53.971Z</time></trkpt><trkpt lat="44.95956" lon="7.2770383"><ele>1166.5</ele><time>2026-04-05T10:16:54.971Z</time></trkpt><trkpt lat="44.9594865" lon="7.2769975"><ele>1167.0</ele><time>2026-04-05T10:16:55.971Z</time></trkpt><trkpt lat="44.9594276" lon="7.2769598"><ele>1167.5</ele><time>2026-04-05T10:16:56.971Z</time></trkpt><trkpt lat="44.9593705" lon="7.2769164"><ele>1168.0</ele><time>2026-04-05T10:16:57.971Z</time></trkpt><trkpt lat="44.959263" lon="7.2768129"><ele>1168.0</ele><time>2026-04-05T10:16:59.971Z</time></trkpt><trkpt lat="44.9592032" lon="7.2767535"><ele>1168.0</ele><time>2026-04-05T10:17:00.971Z</time></trkpt><trkpt lat="44.9591388" lon="7.2766907"><ele>1168.0</ele><time>2026-04-05T10:17:01.971Z</time></trkpt><trkpt lat="44.9590638" lon="7.2766504"><ele>1168.0</ele><time>2026-04-05T10:17:02.971Z</time></trkpt><trkpt lat="44.95899" lon="7.2766226"><ele>1168.0</ele><time>2026-04-05T10:17:03.971Z</time></trkpt><trkpt lat="44.9589164" lon="7.2766103"><ele>1168.0</ele><time>2026-04-05T10:17:04.971Z</time></trkpt><trkpt lat="44.9588453" lon="7.2766128"><ele>1167.0</ele><time>2026-04-05T10:17:05.971Z</time></trkpt><trkpt lat="44.9587742" lon="7.2766286"><ele>1166.0</ele><time>2026-04-05T10:17:06.971Z</time></trkpt><trkpt lat="44.9587058" lon="7.2766557"><ele>1165.0</ele><time>2026-04-05T10:17:07.971Z</time></trkpt><trkpt lat="44.9586023" lon="7.2767235"><ele>1164.0</ele><time>2026-04-05T10:17:09.971Z</time></trkpt><trkpt lat="44.9585152" lon="7.2768207"><ele>1163.0</ele><time>2026-04-05T10:17:11.971Z</time></trkpt><trkpt lat="44.9584214" lon="7.2768891"><ele>1161.1666666666667</ele><time>2026-04-05T10:17:13.971Z</time></trkpt><trkpt lat="44.9583518" lon="7.2769376"><ele>1159.3333333333335</ele><time>2026-04-05T10:17:14.971Z</time></trkpt><trkpt lat="44.9582845" lon="7.2769744"><ele>1157.5</ele><time>2026-04-05T10:17:15.971Z</time></trkpt><trkpt lat="44.9582054" lon="7.2770083"><ele>1155.6666666666667</ele><time>2026-04-05T10:17:16.971Z</time></trkpt><trkpt lat="44.9581203" lon="7.2770343"><ele>1153.8333333333333</ele><time>2026-04-05T10:17:17.971Z</time></trkpt><trkpt lat="44.958023" lon="7.2770386"><ele>1152.0</ele><time>2026-04-05T10:17:18.971Z</time></trkpt><trkpt lat="44.9579334" lon="7.2770181"><ele>1152.0</ele><time>2026-04-05T10:17:19.971Z</time></trkpt><trkpt lat="44.9578585" lon="7.2769788"><ele>1152.0</ele><time>2026-04-05T10:17:20.971Z</time></trkpt><trkpt lat="44.9577892" lon="7.2769196"><ele>1152.0</ele><time>2026-04-05T10:17:21.971Z</time></trkpt><trkpt lat="44.9577235" lon="7.276835"><ele>1152.0</ele><time>2026-04-05T10:17:22.971Z</time></trkpt><trkpt lat="44.957671" lon="7.276729"><ele>1152.0</ele><time>2026-04-05T10:17:23.971Z</time></trkpt><trkpt lat="44.9576229" lon="7.2766307"><ele>1152.0</ele><time>2026-04-05T10:17:24.971Z</time></trkpt><trkpt lat="44.9575709" lon="7.2765304"><ele>1152.8</ele><time>2026-04-05T10:17:25.971Z</time></trkpt><trkpt lat="44.9575098" lon="7.2764341"><ele>1153.6</ele><time>2026-04-05T10:17:26.971Z</time></trkpt><trkpt lat="44.9574443" lon="7.2763446"><ele>1154.3999999999999</ele><time>2026-04-05T10:17:27.971Z</time></trkpt><trkpt lat="44.9573697" lon="7.2762684"><ele>1155.2</ele><time>2026-04-05T10:17:28.971Z</time></trkpt><trkpt lat="44.9572893" lon="7.2761892"><ele>1156.0</ele><time>2026-04-05T10:17:29.971Z</time></trkpt><trkpt lat="44.9571838" lon="7.2761142"><ele>1156.0</ele><time>2026-04-05T10:17:30.971Z</time></trkpt><trkpt lat="44.9570839" lon="7.2760283"><ele>1156.0</ele><time>2026-04-05T10:17:31.971Z</time></trkpt><trkpt lat="44.9569817" lon="7.2759611"><ele>1156.0</ele><time>2026-04-05T10:17:32.971Z</time></trkpt><trkpt lat="44.9568968" lon="7.2758978"><ele>1156.0</ele><time>2026-04-05T10:17:33.971Z</time></trkpt><trkpt lat="44.9568056" lon="7.2758298"><ele>1156.0</ele><time>2026-04-05T10:17:34.971Z</time></trkpt><trkpt lat="44.9567369" lon="7.2757438"><ele>1158.3999999999999</ele><time>2026-04-05T10:17:35.971Z</time></trkpt><trkpt lat="44.9566784" lon="7.2756518"><ele>1160.8</ele><time>2026-04-05T10:17:36.971Z</time></trkpt><trkpt lat="44.9566274" lon="7.2755368"><ele>1163.1999999999998</ele><time>2026-04-05T10:17:37.971Z</time></trkpt><trkpt lat="44.9565719" lon="7.2754298"><ele>1165.6</ele><time>2026-04-05T10:17:38.971Z</time></trkpt><trkpt lat="44.9565545" lon="7.2752791"><ele>1168.0</ele><time>2026-04-05T10:17:39.971Z</time></trkpt><trkpt lat="44.9565211" lon="7.2751261"><ele>1168.0</ele><time>2026-04-05T10:17:40.971Z</time></trkpt><trkpt lat="44.956487" lon="7.2749768"><ele>1168.0</ele><time>2026-04-05T10:17:41.971Z</time></trkpt><trkpt lat="44.9564593" lon="7.2748341"><ele>1168.0</ele><time>2026-04-05T10:17:42.971Z</time></trkpt><trkpt lat="44.956435" lon="7.2747118"><ele>1168.0</ele><time>2026-04-05T10:17:43.971Z</time></trkpt><trkpt lat="44.9564118" lon="7.2746006"><ele>1168.0</ele><time>2026-04-05T10:17:44.971Z</time></trkpt><trkpt lat="44.9563871" lon="7.274476"><ele>1167.8333333333333</ele><time>2026-04-05T10:17:45.971Z</time></trkpt><trkpt lat="44.9563637" lon="7.2743409"><ele>1167.6666666666665</ele><time>2026-04-05T10:17:46.971Z</time></trkpt><trkpt lat="44.9563415" lon="7.2742173"><ele>1167.5</ele><time>2026-04-05T10:17:47.971Z</time></trkpt><trkpt lat="44.9563155" lon="7.2741022"><ele>1167.3333333333333</ele><time>2026-04-05T10:17:48.971Z</time></trkpt><trkpt lat="44.956286" lon="7.2739812"><ele>1167.1666666666667</ele><time>2026-04-05T10:17:49.971Z</time></trkpt><trkpt lat="44.9562595" lon="7.2738701"><ele>1167.0</ele><time>2026-04-05T10:17:50.971Z</time></trkpt><trkpt lat="44.9562217" lon="7.2737855"><ele>1167.3333333333333</ele><time>2026-04-05T10:17:51.971Z</time></trkpt><trkpt lat="44.956163" lon="7.27371"><ele>1167.6666666666667</ele><time>2026-04-05T10:17:52.971Z</time></trkpt><trkpt lat="44.9560935" lon="7.2736601"><ele>1168.0</ele><time>2026-04-05T10:17:53.971Z</time></trkpt><trkpt lat="44.9560343" lon="7.273618"><ele>1168.3333333333335</ele><time>2026-04-05T10:17:54.971Z</time></trkpt><trkpt lat="44.955948" lon="7.2736221"><ele>1168.6666666666667</ele><time>2026-04-05T10:17:55.971Z</time></trkpt><trkpt lat="44.9558631" lon="7.2736171"><ele>1169.0</ele><time>2026-04-05T10:17:56.971Z</time></trkpt><trkpt lat="44.9557825" lon="7.273592"><ele>1171.142857142857</ele><time>2026-04-05T10:17:57.971Z</time></trkpt><trkpt lat="44.9557147" lon="7.2735511"><ele>1173.2857142857142</ele><time>2026-04-05T10:17:58.971Z</time></trkpt><trkpt lat="44.9556535" lon="7.2735003"><ele>1175.4285714285716</ele><time>2026-04-05T10:17:59.971Z</time></trkpt><trkpt lat="44.9556008" lon="7.2734285"><ele>1177.5714285714284</ele><time>2026-04-05T10:18:00.971Z</time></trkpt><trkpt lat="44.9555445" lon="7.2733492"><ele>1179.7142857142858</ele><time>2026-04-05T10:18:01.971Z</time></trkpt><trkpt lat="44.9554882" lon="7.2732832"><ele>1181.857142857143</ele><time>2026-04-05T10:18:02.971Z</time></trkpt><trkpt lat="44.9554321" lon="7.2732181"><ele>1184.0</ele><time>2026-04-05T10:18:03.971Z</time></trkpt><trkpt lat="44.9553708" lon="7.2731682"><ele>1184.0</ele><time>2026-04-05T10:18:04.971Z</time></trkpt><trkpt lat="44.9553165" lon="7.2731211"><ele>1184.0</ele><time>2026-04-05T10:18:05.971Z</time></trkpt><trkpt lat="44.9552589" lon="7.2730799"><ele>1184.0</ele><time>2026-04-05T10:18:06.971Z</time></trkpt><trkpt lat="44.9551486" lon="7.2730053"><ele>1184.0</ele><time>2026-04-05T10:18:08.971Z</time></trkpt><trkpt lat="44.955045" lon="7.2729392"><ele>1184.0</ele><time>2026-04-05T10:18:10.971Z</time></trkpt><trkpt lat="44.9549323" lon="7.2728763"><ele>1181.6666666666667</ele><time>2026-04-05T10:18:12.971Z</time></trkpt><trkpt lat="44.9548454" lon="7.272818"><ele>1179.3333333333335</ele><time>2026-04-05T10:18:14.971Z</time></trkpt><trkpt lat="44.9547311" lon="7.2727382"><ele>1177.0</ele><time>2026-04-05T10:18:16.971Z</time></trkpt><trkpt lat="44.9546721" lon="7.2727035"><ele>1174.6666666666667</ele><time>2026-04-05T10:18:17.971Z</time></trkpt><trkpt lat="44.9546054" lon="7.2726753"><ele>1172.3333333333333</ele><time>2026-04-05T10:18:18.971Z</time></trkpt><trkpt lat="44.9545274" lon="7.2726596"><ele>1170.0</ele><time>2026-04-05T10:18:19.971Z</time></trkpt><trkpt lat="44.9544502" lon="7.2726473"><ele>1170.0</ele><time>2026-04-05T10:18:20.971Z</time></trkpt><trkpt lat="44.9543639" lon="7.2726491"><ele>1170.0</ele><time>2026-04-05T10:18:21.971Z</time></trkpt><trkpt lat="44.9542805" lon="7.2726421"><ele>1170.0</ele><time>2026-04-05T10:18:22.971Z</time></trkpt><trkpt lat="44.9541984" lon="7.272648"><ele>1170.0</ele><time>2026-04-05T10:18:23.971Z</time></trkpt><trkpt lat="44.9541148" lon="7.272662"><ele>1170.0</ele><time>2026-04-05T10:18:24.971Z</time></trkpt><trkpt lat="44.9540356" lon="7.2726752"><ele>1170.0</ele><time>2026-04-05T10:18:25.971Z</time></trkpt><trkpt lat="44.9539686" lon="7.2726845"><ele>1169.1666666666667</ele><time>2026-04-05T10:18:26.971Z</time></trkpt><trkpt lat="44.9539001" lon="7.2727052"><ele>1168.3333333333333</ele><time>2026-04-05T10:18:27.972Z</time></trkpt><trkpt lat="44.9538232" lon="7.2727179"><ele>1167.5</ele><time>2026-04-05T10:18:28.971Z</time></trkpt><trkpt lat="44.9537377" lon="7.2727434"><ele>1166.6666666666665</ele><time>2026-04-05T10:18:29.972Z</time></trkpt><trkpt lat="44.9536457" lon="7.2727924"><ele>1165.8333333333333</ele><time>2026-04-05T10:18:30.971Z</time></trkpt><trkpt lat="44.9535685" lon="7.2728521"><ele>1165.0</ele><time>2026-04-05T10:18:31.971Z</time></trkpt><trkpt lat="44.9534898" lon="7.2729325"><ele>1165.0</ele><time>2026-04-05T10:18:32.971Z</time></trkpt><trkpt lat="44.9534129" lon="7.2730293"><ele>1165.0</ele><time>2026-04-05T10:18:33.971Z</time></trkpt><trkpt lat="44.9533428" lon="7.2731446"><ele>1165.0</ele><time>2026-04-05T10:18:34.971Z</time></trkpt><trkpt lat="44.9532731" lon="7.2732543"><ele>1165.0</ele><time>2026-04-05T10:18:35.971Z</time></trkpt><trkpt lat="44.9532221" lon="7.2733647"><ele>1165.0</ele><time>2026-04-05T10:18:36.971Z</time></trkpt><trkpt lat="44.9531611" lon="7.2734711"><ele>1164.0</ele><time>2026-04-05T10:18:37.971Z</time></trkpt><trkpt lat="44.9531045" lon="7.2735664"><ele>1163.0</ele><time>2026-04-05T10:18:38.971Z</time></trkpt><trkpt lat="44.9530374" lon="7.2736315"><ele>1162.0</ele><time>2026-04-05T10:18:39.971Z</time></trkpt><trkpt lat="44.9529693" lon="7.2736447"><ele>1161.0</ele><time>2026-04-05T10:18:40.971Z</time></trkpt><trkpt lat="44.9528462" lon="7.2735664"><ele>1160.0</ele><time>2026-04-05T10:18:42.971Z</time></trkpt><trkpt lat="44.9527537" lon="7.2734653"><ele>1160.0</ele><time>2026-04-05T10:18:43.971Z</time></trkpt><trkpt lat="44.952666" lon="7.2733429"><ele>1160.0</ele><time>2026-04-05T10:18:44.971Z</time></trkpt><trkpt lat="44.9525721" lon="7.2732196"><ele>1160.0</ele><time>2026-04-05T10:18:45.971Z</time></trkpt><trkpt lat="44.9524919" lon="7.2731167"><ele>1160.0</ele><time>2026-04-05T10:18:46.971Z</time></trkpt><trkpt lat="44.9524118" lon="7.2730377"><ele>1157.5</ele><time>2026-04-05T10:18:47.971Z</time></trkpt><trkpt lat="44.9523267" lon="7.2729655"><ele>1155.0</ele><time>2026-04-05T10:18:48.971Z</time></trkpt><trkpt lat="44.9522369" lon="7.2729107"><ele>1152.5</ele><time>2026-04-05T10:18:49.971Z</time></trkpt><trkpt lat="44.9521486" lon="7.2728797"><ele>1150.0</ele><time>2026-04-05T10:18:50.971Z</time></trkpt><trkpt lat="44.952059" lon="7.2728995"><ele>1147.5</ele><time>2026-04-05T10:18:51.971Z</time></trkpt><trkpt lat="44.9519896" lon="7.2729157"><ele>1145.0</ele><time>2026-04-05T10:18:52.971Z</time></trkpt><trkpt lat="44.9519177" lon="7.2729819"><ele>1145.0</ele><time>2026-04-05T10:18:53.971Z</time></trkpt><trkpt lat="44.9518516" lon="7.2730822"><ele>1145.0</ele><time>2026-04-05T10:18:54.971Z</time></trkpt><trkpt lat="44.9517884" lon="7.2731769"><ele>1145.0</ele><time>2026-04-05T10:18:55.971Z</time></trkpt><trkpt lat="44.9517351" lon="7.27327"><ele>1145.0</ele><time>2026-04-05T10:18:56.971Z</time></trkpt><trkpt lat="44.9516874" lon="7.2733568"><ele>1145.0</ele><time>2026-04-05T10:18:57.971Z</time></trkpt><trkpt lat="44.9516533" lon="7.2734337"><ele>1145.0</ele><time>2026-04-05T10:18:58.971Z</time></trkpt><trkpt lat="44.9515755" lon="7.2735082"><ele>1142.5</ele><time>2026-04-05T10:19:00.971Z</time></trkpt><trkpt lat="44.9514841" lon="7.273429"><ele>1140.0</ele><time>2026-04-05T10:19:02.971Z</time></trkpt><trkpt lat="44.9514384" lon="7.2733491"><ele>1137.5</ele><time>2026-04-05T10:19:03.971Z</time></trkpt><trkpt lat="44.9513897" lon="7.2732797"><ele>1135.0</ele><time>2026-04-05T10:19:04.971Z</time></trkpt><trkpt lat="44.9513298" lon="7.2731677"><ele>1132.5</ele><time>2026-04-05T10:19:06.971Z</time></trkpt><trkpt lat="44.9513515" lon="7.2730616"><ele>1130.0</ele><time>2026-04-05T10:19:08.971Z</time></trkpt><trkpt lat="44.9513969" lon="7.2729812"><ele>1129.2</ele><time>2026-04-05T10:19:30.971Z</time></trkpt><trkpt lat="44.9514445" lon="7.272863"><ele>1128.4</ele><time>2026-04-05T10:19:32.971Z</time></trkpt><trkpt lat="44.9514933" lon="7.2727117"><ele>1127.6</ele><time>2026-04-05T10:19:34.971Z</time></trkpt><trkpt lat="44.9515088" lon="7.2726155"><ele>1126.8</ele><time>2026-04-05T10:19:35.971Z</time></trkpt><trkpt lat="44.9515174" lon="7.2725212"><ele>1126.0</ele><time>2026-04-05T10:19:36.971Z</time></trkpt><trkpt lat="44.9515023" lon="7.2723234"><ele>1124.1666666666665</ele><time>2026-04-05T10:19:38.972Z</time></trkpt><trkpt lat="44.9514891" lon="7.2722226"><ele>1122.3333333333333</ele><time>2026-04-05T10:19:39.971Z</time></trkpt><trkpt lat="44.951483" lon="7.2721318"><ele>1120.5</ele><time>2026-04-05T10:19:40.971Z</time></trkpt><trkpt lat="44.9515072" lon="7.2719717"><ele>1118.6666666666667</ele><time>2026-04-05T10:19:42.971Z</time></trkpt><trkpt lat="44.9515369" lon="7.271888"><ele>1116.8333333333335</ele><time>2026-04-05T10:19:43.971Z</time></trkpt><trkpt lat="44.9515818" lon="7.2717364"><ele>1115.0</ele><time>2026-04-05T10:19:45.971Z</time></trkpt><trkpt lat="44.9516389" lon="7.2715905"><ele>1115.0</ele><time>2026-04-05T10:19:47.971Z</time></trkpt><trkpt lat="44.9516698" lon="7.2715106"><ele>1115.0</ele><time>2026-04-05T10:19:48.971Z</time></trkpt><trkpt lat="44.9517078" lon="7.2714337"><ele>1115.0</ele><time>2026-04-05T10:19:49.971Z</time></trkpt><trkpt lat="44.9517532" lon="7.271357"><ele>1115.0</ele><time>2026-04-05T10:19:50.971Z</time></trkpt><trkpt lat="44.9518157" lon="7.2712892"><ele>1115.0</ele><time>2026-04-05T10:19:51.971Z</time></trkpt><trkpt lat="44.951864" lon="7.2712136"><ele>1115.0</ele><time>2026-04-05T10:19:52.971Z</time></trkpt><trkpt lat="44.9519114" lon="7.2711296"><ele>1115.0</ele><time>2026-04-05T10:19:53.971Z</time></trkpt><trkpt lat="44.9519515" lon="7.270981"><ele>1115.6666666666667</ele><time>2026-04-05T10:19:54.971Z</time></trkpt><trkpt lat="44.9519991" lon="7.2708686"><ele>1116.3333333333335</ele><time>2026-04-05T10:19:55.971Z</time></trkpt><trkpt lat="44.9520345" lon="7.2707659"><ele>1117.0</ele><time>2026-04-05T10:19:56.971Z</time></trkpt><trkpt lat="44.9520664" lon="7.2706722"><ele>1117.6666666666667</ele><time>2026-04-05T10:19:57.971Z</time></trkpt><trkpt lat="44.9520933" lon="7.2705761"><ele>1118.3333333333333</ele><time>2026-04-05T10:19:58.971Z</time></trkpt><trkpt lat="44.952143" lon="7.2704311"><ele>1119.0</ele><time>2026-04-05T10:20:00.971Z</time></trkpt><trkpt lat="44.9521551" lon="7.2702521"><ele>1116.6666666666667</ele><time>2026-04-05T10:20:02.971Z</time></trkpt><trkpt lat="44.9521635" lon="7.2701526"><ele>1114.3333333333333</ele><time>2026-04-05T10:20:03.971Z</time></trkpt><trkpt lat="44.9521767" lon="7.2700629"><ele>1112.0</ele><time>2026-04-05T10:20:04.971Z</time></trkpt><trkpt lat="44.952191" lon="7.2699447"><ele>1109.6666666666665</ele><time>2026-04-05T10:20:05.971Z</time></trkpt><trkpt lat="44.9521974" lon="7.2698302"><ele>1107.3333333333333</ele><time>2026-04-05T10:20:06.971Z</time></trkpt><trkpt lat="44.9521937" lon="7.2697189"><ele>1105.0</ele><time>2026-04-05T10:20:07.971Z</time></trkpt><trkpt lat="44.9522012" lon="7.2696101"><ele>1101.6</ele><time>2026-04-05T10:20:08.971Z</time></trkpt><trkpt lat="44.9522029" lon="7.2695048"><ele>1098.2</ele><time>2026-04-05T10:20:09.971Z</time></trkpt><trkpt lat="44.9522266" lon="7.2693302"><ele>1094.8</ele><time>2026-04-05T10:20:11.971Z</time></trkpt><trkpt lat="44.9522777" lon="7.2692003"><ele>1091.4</ele><time>2026-04-05T10:20:13.971Z</time></trkpt><trkpt lat="44.9522457" lon="7.2691122"><ele>1088.0</ele><time>2026-04-05T10:20:15.971Z</time></trkpt><trkpt lat="44.9521642" lon="7.2691038"><ele>1088.0</ele><time>2026-04-05T10:20:17.971Z</time></trkpt><trkpt lat="44.9520929" lon="7.2691221"><ele>1088.0</ele><time>2026-04-05T10:20:18.971Z</time></trkpt><trkpt lat="44.9520127" lon="7.2691372"><ele>1088.0</ele><time>2026-04-05T10:20:19.971Z</time></trkpt><trkpt lat="44.9519421" lon="7.2691654"><ele>1088.0</ele><time>2026-04-05T10:20:20.971Z</time></trkpt><trkpt lat="44.9518736" lon="7.2692192"><ele>1088.0</ele><time>2026-04-05T10:20:21.971Z</time></trkpt><trkpt lat="44.9518124" lon="7.2692626"><ele>1088.0</ele><time>2026-04-05T10:20:22.971Z</time></trkpt><trkpt lat="44.9517459" lon="7.2693364"><ele>1086.142857142857</ele><time>2026-04-05T10:20:23.971Z</time></trkpt><trkpt lat="44.9516995" lon="7.2694028"><ele>1084.2857142857142</ele><time>2026-04-05T10:20:24.971Z</time></trkpt><trkpt lat="44.9516418" lon="7.2694741"><ele>1082.4285714285716</ele><time>2026-04-05T10:20:25.971Z</time></trkpt><trkpt lat="44.9515805" lon="7.2695288"><ele>1080.5714285714284</ele><time>2026-04-05T10:20:26.971Z</time></trkpt><trkpt lat="44.9515125" lon="7.2695599"><ele>1078.7142857142858</ele><time>2026-04-05T10:20:27.971Z</time></trkpt><trkpt lat="44.9514484" lon="7.2695855"><ele>1076.857142857143</ele><time>2026-04-05T10:20:28.971Z</time></trkpt><trkpt lat="44.9513775" lon="7.2695544"><ele>1075.0</ele><time>2026-04-05T10:20:29.971Z</time></trkpt><trkpt lat="44.9513073" lon="7.2695147"><ele>1075.0</ele><time>2026-04-05T10:20:30.971Z</time></trkpt><trkpt lat="44.951241" lon="7.2694399"><ele>1075.0</ele><time>2026-04-05T10:20:31.971Z</time></trkpt><trkpt lat="44.9511979" lon="7.2693692"><ele>1075.0</ele><time>2026-04-05T10:20:32.971Z</time></trkpt><trkpt lat="44.9511369" lon="7.2692233"><ele>1075.0</ele><time>2026-04-05T10:20:34.971Z</time></trkpt><trkpt lat="44.9511321" lon="7.2690405"><ele>1075.0</ele><time>2026-04-05T10:20:36.971Z</time></trkpt><trkpt lat="44.951142" lon="7.2689383"><ele>1072.8333333333333</ele><time>2026-04-05T10:20:37.971Z</time></trkpt><trkpt lat="44.9511641" lon="7.2688446"><ele>1070.6666666666665</ele><time>2026-04-05T10:20:38.971Z</time></trkpt><trkpt lat="44.9511826" lon="7.2687317"><ele>1068.5</ele><time>2026-04-05T10:20:39.971Z</time></trkpt><trkpt lat="44.9512078" lon="7.268622"><ele>1066.3333333333333</ele><time>2026-04-05T10:20:40.971Z</time></trkpt><trkpt lat="44.9512272" lon="7.2685173"><ele>1064.1666666666667</ele><time>2026-04-05T10:20:41.971Z</time></trkpt><trkpt lat="44.9512369" lon="7.2684147"><ele>1062.0</ele><time>2026-04-05T10:20:42.971Z</time></trkpt><trkpt lat="44.9512357" lon="7.2683103"><ele>1062.0</ele><time>2026-04-05T10:20:43.971Z</time></trkpt><trkpt lat="44.9512304" lon="7.2681958"><ele>1062.0</ele><time>2026-04-05T10:20:44.971Z</time></trkpt><trkpt lat="44.9512208" lon="7.2680601"><ele>1062.0</ele><time>2026-04-05T10:20:45.971Z</time></trkpt><trkpt lat="44.9512135" lon="7.2679283"><ele>1062.0</ele><time>2026-04-05T10:20:46.971Z</time></trkpt><trkpt lat="44.9512107" lon="7.2677634"><ele>1062.0</ele><time>2026-04-05T10:20:47.971Z</time></trkpt><trkpt lat="44.9512057" lon="7.2675944"><ele>1058.8</ele><time>2026-04-05T10:20:48.971Z</time></trkpt><trkpt lat="44.9512072" lon="7.2674281"><ele>1055.6</ele><time>2026-04-05T10:20:49.971Z</time></trkpt><trkpt lat="44.9511996" lon="7.2672634"><ele>1052.3999999999999</ele><time>2026-04-05T10:20:50.971Z</time></trkpt><trkpt lat="44.9512094" lon="7.2671229"><ele>1049.2</ele><time>2026-04-05T10:20:51.971Z</time></trkpt><trkpt lat="44.9512338" lon="7.2670114"><ele>1046.0</ele><time>2026-04-05T10:20:52.971Z</time></trkpt><trkpt lat="44.9512484" lon="7.2668924"><ele>1043.8333333333335</ele><time>2026-04-05T10:20:53.971Z</time></trkpt><trkpt lat="44.9512518" lon="7.2667916"><ele>1041.6666666666667</ele><time>2026-04-05T10:20:54.971Z</time></trkpt><trkpt lat="44.9512545" lon="7.2666887"><ele>1039.5</ele><time>2026-04-05T10:20:55.971Z</time></trkpt><trkpt lat="44.9512398" lon="7.2665755"><ele>1037.3333333333333</ele><time>2026-04-05T10:20:56.971Z</time></trkpt><trkpt lat="44.9512087" lon="7.2664767"><ele>1035.1666666666665</ele><time>2026-04-05T10:20:57.971Z</time></trkpt><trkpt lat="44.9511546" lon="7.2663624"><ele>1033.0</ele><time>2026-04-05T10:20:58.972Z</time></trkpt><trkpt lat="44.9511164" lon="7.2662625"><ele>1031.5</ele><time>2026-04-05T10:20:59.971Z</time></trkpt><trkpt lat="44.9510807" lon="7.2661593"><ele>1030.0</ele><time>2026-04-05T10:21:00.971Z</time></trkpt><trkpt lat="44.9510542" lon="7.2660602"><ele>1028.5</ele><time>2026-04-05T10:21:01.971Z</time></trkpt><trkpt lat="44.9510431" lon="7.265948"><ele>1027.0</ele><time>2026-04-05T10:21:02.971Z</time></trkpt><trkpt lat="44.9510261" lon="7.2658307"><ele>1025.5</ele><time>2026-04-05T10:21:03.971Z</time></trkpt><trkpt lat="44.9510099" lon="7.2657232"><ele>1024.0</ele><time>2026-04-05T10:21:04.971Z</time></trkpt><trkpt lat="44.9509879" lon="7.2656105"><ele>1025.6000000000001</ele><time>2026-04-05T10:21:05.971Z</time></trkpt><trkpt lat="44.9509513" lon="7.2654871"><ele>1027.2</ele><time>2026-04-05T10:21:06.971Z</time></trkpt><trkpt lat="44.9508612" lon="7.265342"><ele>1028.8000000000002</ele><time>2026-04-05T10:21:08.971Z</time></trkpt><trkpt lat="44.9507893" lon="7.2652688"><ele>1030.4</ele><time>2026-04-05T10:21:09.971Z</time></trkpt><trkpt lat="44.9506948" lon="7.2652157"><ele>1032.0</ele><time>2026-04-05T10:21:10.971Z</time></trkpt><trkpt lat="44.950605" lon="7.2651599"><ele>1032.0</ele><time>2026-04-05T10:21:11.971Z</time></trkpt><trkpt lat="44.9505146" lon="7.2650933"><ele>1032.0</ele><time>2026-04-05T10:21:12.971Z</time></trkpt><trkpt lat="44.9504346" lon="7.265011"><ele>1032.0</ele><time>2026-04-05T10:21:13.971Z</time></trkpt><trkpt lat="44.9503565" lon="7.2649115"><ele>1032.0</ele><time>2026-04-05T10:21:14.971Z</time></trkpt><trkpt lat="44.9502786" lon="7.2648302"><ele>1032.0</ele><time>2026-04-05T10:21:15.971Z</time></trkpt><trkpt lat="44.9502002" lon="7.2647481"><ele>1032.3333333333333</ele><time>2026-04-05T10:21:16.971Z</time></trkpt><trkpt lat="44.9501255" lon="7.2646835"><ele>1032.6666666666667</ele><time>2026-04-05T10:21:17.971Z</time></trkpt><trkpt lat="44.9500589" lon="7.2646442"><ele>1033.0</ele><time>2026-04-05T10:21:18.971Z</time></trkpt><trkpt lat="44.9499857" lon="7.2645658"><ele>1033.3333333333335</ele><time>2026-04-05T10:21:19.971Z</time></trkpt><trkpt lat="44.9499204" lon="7.2644711"><ele>1033.6666666666667</ele><time>2026-04-05T10:21:20.971Z</time></trkpt><trkpt lat="44.9498634" lon="7.2643528"><ele>1034.0</ele><time>2026-04-05T10:21:21.971Z</time></trkpt><trkpt lat="44.9498127" lon="7.2642454"><ele>1034.0</ele><time>2026-04-05T10:21:22.971Z</time></trkpt><trkpt lat="44.9497722" lon="7.2641201"><ele>1034.0</ele><time>2026-04-05T10:21:23.971Z</time></trkpt><trkpt lat="44.9497474" lon="7.2640108"><ele>1034.0</ele><time>2026-04-05T10:21:24.971Z</time></trkpt><trkpt lat="44.9497591" lon="7.2639173"><ele>1034.0</ele><time>2026-04-05T10:21:25.971Z</time></trkpt><trkpt lat="44.9497707" lon="7.2638127"><ele>1034.0</ele><time>2026-04-05T10:21:26.971Z</time></trkpt><trkpt lat="44.949783" lon="7.2637061"><ele>1034.0</ele><time>2026-04-05T10:21:27.971Z</time></trkpt><trkpt lat="44.9497912" lon="7.2635942"><ele>1032.0</ele><time>2026-04-05T10:21:28.971Z</time></trkpt><trkpt lat="44.9497851" lon="7.2634601"><ele>1030.0</ele><time>2026-04-05T10:21:29.971Z</time></trkpt><trkpt lat="44.9497805" lon="7.2633361"><ele>1028.0</ele><time>2026-04-05T10:21:30.971Z</time></trkpt><trkpt lat="44.9497698" lon="7.2632137"><ele>1026.0</ele><time>2026-04-05T10:21:31.971Z</time></trkpt><trkpt lat="44.9497705" lon="7.2630955"><ele>1024.0</ele><time>2026-04-05T10:21:32.971Z</time></trkpt><trkpt lat="44.9497728" lon="7.2629784"><ele>1022.0</ele><time>2026-04-05T10:21:33.971Z</time></trkpt><trkpt lat="44.9497695" lon="7.2628693"><ele>1019.6666666666667</ele><time>2026-04-05T10:21:34.971Z</time></trkpt><trkpt lat="44.9497416" lon="7.2627718"><ele>1017.3333333333334</ele><time>2026-04-05T10:21:35.971Z</time></trkpt><trkpt lat="44.9497024" lon="7.2626773"><ele>1015.0</ele><time>2026-04-05T10:21:36.971Z</time></trkpt><trkpt lat="44.9496524" lon="7.2626008"><ele>1012.6666666666667</ele><time>2026-04-05T10:21:37.972Z</time></trkpt><trkpt lat="44.9495731" lon="7.262483"><ele>1010.3333333333334</ele><time>2026-04-05T10:21:39.971Z</time></trkpt><trkpt lat="44.9495062" lon="7.2624155"><ele>1008.0</ele><time>2026-04-05T10:21:41.971Z</time></trkpt><trkpt lat="44.9494802" lon="7.2623225"><ele>1004.4</ele><time>2026-04-05T10:21:53.971Z</time></trkpt><trkpt lat="44.9494466" lon="7.2621944"><ele>1000.8</ele><time>2026-04-05T10:21:56.971Z</time></trkpt><trkpt lat="44.9494045" lon="7.2620698"><ele>997.2</ele><time>2026-04-05T10:21:58.971Z</time></trkpt><trkpt lat="44.9493648" lon="7.2619352"><ele>993.6</ele><time>2026-04-05T10:22:00.971Z</time></trkpt><trkpt lat="44.9493411" lon="7.261852"><ele>990.0</ele><time>2026-04-05T10:22:01.971Z</time></trkpt><trkpt lat="44.9492956" lon="7.2617094"><ele>990.0</ele><time>2026-04-05T10:22:03.971Z</time></trkpt><trkpt lat="44.9492453" lon="7.2615521"><ele>990.0</ele><time>2026-04-05T10:22:05.971Z</time></trkpt><trkpt lat="44.9492096" lon="7.2613751"><ele>990.0</ele><time>2026-04-05T10:22:07.971Z</time></trkpt><trkpt lat="44.9491946" lon="7.2612778"><ele>990.0</ele><time>2026-04-05T10:22:08.971Z</time></trkpt><trkpt lat="44.9491739" lon="7.2611883"><ele>990.0</ele><time>2026-04-05T10:22:09.971Z</time></trkpt><trkpt lat="44.9491627" lon="7.2610967"><ele>992.4</ele><time>2026-04-05T10:22:10.971Z</time></trkpt><trkpt lat="44.9491435" lon="7.2609212"><ele>994.8</ele><time>2026-04-05T10:22:12.971Z</time></trkpt><trkpt lat="44.9491343" lon="7.2607539"><ele>997.2</ele><time>2026-04-05T10:22:14.971Z</time></trkpt><trkpt lat="44.9491271" lon="7.2606638"><ele>999.6</ele><time>2026-04-05T10:22:15.971Z</time></trkpt><trkpt lat="44.9491176" lon="7.2605595"><ele>1002.0</ele><time>2026-04-05T10:22:16.971Z</time></trkpt><trkpt lat="44.9491126" lon="7.2604658"><ele>1002.0</ele><time>2026-04-05T10:22:17.971Z</time></trkpt><trkpt lat="44.949109" lon="7.2603734"><ele>1002.0</ele><time>2026-04-05T10:22:18.971Z</time></trkpt><trkpt lat="44.9490992" lon="7.260277"><ele>1002.0</ele><time>2026-04-05T10:22:19.971Z</time></trkpt><trkpt lat="44.9490923" lon="7.2600927"><ele>1002.0</ele><time>2026-04-05T10:22:21.971Z</time></trkpt><trkpt lat="44.9490609" lon="7.2599381"><ele>1002.0</ele><time>2026-04-05T10:22:23.971Z</time></trkpt><trkpt lat="44.9490509" lon="7.2598436"><ele>1002.0</ele><time>2026-04-05T10:22:24.971Z</time></trkpt><trkpt lat="44.9490162" lon="7.2596704"><ele>1000.0</ele><time>2026-04-05T10:22:26.971Z</time></trkpt><trkpt lat="44.9489833" lon="7.2594949"><ele>998.0</ele><time>2026-04-05T10:22:28.971Z</time></trkpt><trkpt lat="44.9489625" lon="7.2593946"><ele>996.0</ele><time>2026-04-05T10:22:29.971Z</time></trkpt><trkpt lat="44.9489356" lon="7.2593134"><ele>994.0</ele><time>2026-04-05T10:22:30.971Z</time></trkpt><trkpt lat="44.9489222" lon="7.2592192"><ele>992.0</ele><time>2026-04-05T10:22:31.971Z</time></trkpt><trkpt lat="44.9488521" lon="7.2590769"><ele>992.0000000000001</ele><time>2026-04-05T10:22:33.971Z</time></trkpt><trkpt lat="44.948804" lon="7.2589903"><ele>992.0</ele><time>2026-04-05T10:22:34.971Z</time></trkpt><trkpt lat="44.9487685" lon="7.2589108"><ele>992.0</ele><time>2026-04-05T10:22:35.971Z</time></trkpt><trkpt lat="44.9487206" lon="7.2587448"><ele>992.0</ele><time>2026-04-05T10:22:37.971Z</time></trkpt><trkpt lat="44.9486961" lon="7.2586506"><ele>992.0000000000001</ele><time>2026-04-05T10:22:38.971Z</time></trkpt><trkpt lat="44.948674" lon="7.2585582"><ele>992.0</ele><time>2026-04-05T10:22:39.971Z</time></trkpt><trkpt lat="44.9486446" lon="7.2583953"><ele>989.3333333333334</ele><time>2026-04-05T10:22:41.971Z</time></trkpt><trkpt lat="44.9486078" lon="7.2583042"><ele>986.6666666666667</ele><time>2026-04-05T10:22:42.972Z</time></trkpt><trkpt lat="44.9485789" lon="7.2582141"><ele>984.0</ele><time>2026-04-05T10:22:43.971Z</time></trkpt><trkpt lat="44.948556" lon="7.2581301"><ele>981.3333333333333</ele><time>2026-04-05T10:22:44.971Z</time></trkpt><trkpt lat="44.9484983" lon="7.2579819"><ele>978.6666666666666</ele><time>2026-04-05T10:22:46.971Z</time></trkpt><trkpt lat="44.9484748" lon="7.2578738"><ele>976.0</ele><time>2026-04-05T10:22:47.971Z</time></trkpt><trkpt lat="44.9484322" lon="7.2577611"><ele>975.9999999999999</ele><time>2026-04-05T10:22:48.971Z</time></trkpt><trkpt lat="44.948398" lon="7.2576536"><ele>976.0</ele><time>2026-04-05T10:22:49.971Z</time></trkpt><trkpt lat="44.9483439" lon="7.2575599"><ele>976.0</ele><time>2026-04-05T10:22:50.971Z</time></trkpt><trkpt lat="44.9483" lon="7.2574609"><ele>976.0</ele><time>2026-04-05T10:22:51.971Z</time></trkpt><trkpt lat="44.948257" lon="7.2573694"><ele>975.9999999999999</ele><time>2026-04-05T10:22:52.971Z</time></trkpt><trkpt lat="44.9482322" lon="7.2572729"><ele>976.0</ele><time>2026-04-05T10:22:53.971Z</time></trkpt><trkpt lat="44.9481701" lon="7.2571506"><ele>975.9999999999999</ele><time>2026-04-05T10:22:55.971Z</time></trkpt><trkpt lat="44.9481189" lon="7.257089"><ele>976.0</ele><time>2026-04-05T10:22:56.971Z</time></trkpt><trkpt lat="44.9480447" lon="7.257043"><ele>976.0</ele><time>2026-04-05T10:22:58.971Z</time></trkpt><trkpt lat="44.9479816" lon="7.2570149"><ele>976.0</ele><time>2026-04-05T10:22:59.971Z</time></trkpt><trkpt lat="44.9479196" lon="7.2569654"><ele>975.9999999999999</ele><time>2026-04-05T10:23:00.971Z</time></trkpt><trkpt lat="44.9478095" lon="7.256864"><ele>976.0</ele><time>2026-04-05T10:23:02.971Z</time></trkpt><trkpt lat="44.9477564" lon="7.2567885"><ele>975.9999999999999</ele><time>2026-04-05T10:23:03.971Z</time></trkpt><trkpt lat="44.947695" lon="7.2567208"><ele>976.0</ele><time>2026-04-05T10:23:04.971Z</time></trkpt><trkpt lat="44.9476568" lon="7.2566489"><ele>976.0</ele><time>2026-04-05T10:23:05.971Z</time></trkpt><trkpt lat="44.9476098" lon="7.2565818"><ele>976.0</ele><time>2026-04-05T10:23:06.971Z</time></trkpt><trkpt lat="44.9475441" lon="7.2565011"><ele>975.9999999999999</ele><time>2026-04-05T10:23:08.971Z</time></trkpt><trkpt lat="44.9474662" lon="7.2564098"><ele>976.0</ele><time>2026-04-05T10:23:10.971Z</time></trkpt><trkpt lat="44.9474142" lon="7.2562671"><ele>975.0</ele><time>2026-04-05T10:23:12.971Z</time></trkpt><trkpt lat="44.9473522" lon="7.2561469"><ele>973.9999999999999</ele><time>2026-04-05T10:23:14.971Z</time></trkpt><trkpt lat="44.9472908" lon="7.2561037"><ele>972.9999999999999</ele><time>2026-04-05T10:23:15.972Z</time></trkpt><trkpt lat="44.9472027" lon="7.2560379"><ele>972.0</ele><time>2026-04-05T10:23:17.971Z</time></trkpt><trkpt lat="44.947107" lon="7.2560152"><ele>971.0</ele><time>2026-04-05T10:23:19.971Z</time></trkpt><trkpt lat="44.9470161" lon="7.2559719"><ele>971.0</ele><time>2026-04-05T10:23:21.971Z</time></trkpt><trkpt lat="44.9469376" lon="7.2559285"><ele>970.9999999999999</ele><time>2026-04-05T10:23:23.971Z</time></trkpt><trkpt lat="44.9468446" lon="7.2559045"><ele>970.9999999999999</ele><time>2026-04-05T10:23:25.971Z</time></trkpt><trkpt lat="44.9467505" lon="7.2558816"><ele>971.0</ele><time>2026-04-05T10:23:27.971Z</time></trkpt><trkpt lat="44.946667" lon="7.2559349"><ele>971.0</ele><time>2026-04-05T10:23:29.971Z</time></trkpt><trkpt lat="44.9465653" lon="7.2560094"><ele>971.3333333333334</ele><time>2026-04-05T10:23:31.971Z</time></trkpt><trkpt lat="44.9464859" lon="7.2560941"><ele>971.6666666666667</ele><time>2026-04-05T10:23:33.971Z</time></trkpt><trkpt lat="44.9464171" lon="7.2561682"><ele>972.0</ele><time>2026-04-05T10:23:35.971Z</time></trkpt><trkpt lat="44.9463682" lon="7.2562307"><ele>972.3333333333333</ele><time>2026-04-05T10:23:36.971Z</time></trkpt><trkpt lat="44.9463306" lon="7.2563159"><ele>972.6666666666666</ele><time>2026-04-05T10:23:37.971Z</time></trkpt><trkpt lat="44.9462383" lon="7.2564378"><ele>973.0</ele><time>2026-04-05T10:23:39.971Z</time></trkpt><trkpt lat="44.9461849" lon="7.256499"><ele>977.8333333333333</ele><time>2026-04-05T10:23:40.971Z</time></trkpt><trkpt lat="44.9461299" lon="7.2565604"><ele>982.6666666666666</ele><time>2026-04-05T10:23:41.971Z</time></trkpt><trkpt lat="44.9460819" lon="7.2566359"><ele>987.5</ele><time>2026-04-05T10:23:42.971Z</time></trkpt><trkpt lat="44.9460473" lon="7.2567211"><ele>992.3333333333333</ele><time>2026-04-05T10:23:43.971Z</time></trkpt><trkpt lat="44.9460033" lon="7.2567872"><ele>997.1666666666666</ele><time>2026-04-05T10:23:44.971Z</time></trkpt><trkpt lat="44.9459273" lon="7.2569149"><ele>1002.0</ele><time>2026-04-05T10:23:46.971Z</time></trkpt><trkpt lat="44.9458872" lon="7.2569867"><ele>996.25</ele><time>2026-04-05T10:23:47.971Z</time></trkpt><trkpt lat="44.9458606" lon="7.2570735"><ele>990.5</ele><time>2026-04-05T10:23:48.971Z</time></trkpt><trkpt lat="44.9458152" lon="7.2572362"><ele>984.75</ele><time>2026-04-05T10:23:50.971Z</time></trkpt><trkpt lat="44.9457621" lon="7.2573925"><ele>979.0</ele><time>2026-04-05T10:23:52.971Z</time></trkpt><trkpt lat="44.9457145" lon="7.257573"><ele>979.0</ele><time>2026-04-05T10:23:54.971Z</time></trkpt><trkpt lat="44.9456871" lon="7.2577216"><ele>979.0000000000001</ele><time>2026-04-05T10:23:56.971Z</time></trkpt><trkpt lat="44.9456721" lon="7.257866"><ele>979.0000000000001</ele><time>2026-04-05T10:23:58.971Z</time></trkpt><trkpt lat="44.9456495" lon="7.257996"><ele>979.0</ele><time>2026-04-05T10:24:00.971Z</time></trkpt><trkpt lat="44.9456111" lon="7.2580937"><ele>979.0</ele><time>2026-04-05T10:24:02.971Z</time></trkpt><trkpt lat="44.9455819" lon="7.2581752"><ele>979.0</ele><time>2026-04-05T10:24:05.971Z</time></trkpt><trkpt lat="44.9455163" lon="7.2582245"><ele>979.0000000000001</ele><time>2026-04-05T10:24:08.971Z</time></trkpt><trkpt lat="44.9453925" lon="7.2581769"><ele>979.0000000000001</ele><time>2026-04-05T10:24:11.971Z</time></trkpt><trkpt lat="44.9452899" lon="7.2581546"><ele>979.0</ele><time>2026-04-05T10:24:13.971Z</time></trkpt><trkpt lat="44.945206" lon="7.2581145"><ele>979.0</ele><time>2026-04-05T10:24:15.971Z</time></trkpt><trkpt lat="44.9451148" lon="7.2580397"><ele>978.9999999999999</ele><time>2026-04-05T10:24:17.971Z</time></trkpt><trkpt lat="44.94506" lon="7.2579932"><ele>979.0</ele><time>2026-04-05T10:24:18.971Z</time></trkpt><trkpt lat="44.9449667" lon="7.2579403"><ele>979.0</ele><time>2026-04-05T10:24:20.971Z</time></trkpt><trkpt lat="44.9448752" lon="7.2579473"><ele>979.0</ele><time>2026-04-05T10:24:22.971Z</time></trkpt><trkpt lat="44.944787" lon="7.258008"><ele>978.9999999999999</ele><time>2026-04-05T10:24:24.971Z</time></trkpt><trkpt lat="44.9447372" lon="7.2580635"><ele>979.0</ele><time>2026-04-05T10:24:25.971Z</time></trkpt><trkpt lat="44.9446814" lon="7.2581213"><ele>976.8000000000001</ele><time>2026-04-05T10:24:26.971Z</time></trkpt><trkpt lat="44.9446161" lon="7.2581999"><ele>974.6000000000001</ele><time>2026-04-05T10:24:27.972Z</time></trkpt><trkpt lat="44.9444894" lon="7.2583055"><ele>972.4</ele><time>2026-04-05T10:24:29.971Z</time></trkpt><trkpt lat="44.9444211" lon="7.2583681"><ele>970.2</ele><time>2026-04-05T10:24:30.971Z</time></trkpt><trkpt lat="44.9443493" lon="7.2584364"><ele>968.0</ele><time>2026-04-05T10:24:31.971Z</time></trkpt><trkpt lat="44.9442959" lon="7.2584998"><ele>968.0000000000001</ele><time>2026-04-05T10:24:32.971Z</time></trkpt><trkpt lat="44.9442286" lon="7.2585685"><ele>968.0</ele><time>2026-04-05T10:24:33.971Z</time></trkpt><trkpt lat="44.9441601" lon="7.2586479"><ele>968.0</ele><time>2026-04-05T10:24:34.971Z</time></trkpt><trkpt lat="44.9441017" lon="7.258709"><ele>968.0</ele><time>2026-04-05T10:24:35.971Z</time></trkpt><trkpt lat="44.9440497" lon="7.258797"><ele>968.0000000000001</ele><time>2026-04-05T10:24:36.971Z</time></trkpt><trkpt lat="44.9439961" lon="7.258875"><ele>968.0</ele><time>2026-04-05T10:24:37.971Z</time></trkpt><trkpt lat="44.9439411" lon="7.2589544"><ele>968.5000000000001</ele><time>2026-04-05T10:24:38.971Z</time></trkpt><trkpt lat="44.9438817" lon="7.2590441"><ele>969.0</ele><time>2026-04-05T10:24:39.971Z</time></trkpt><trkpt lat="44.9438114" lon="7.2591182"><ele>969.5</ele><time>2026-04-05T10:24:40.971Z</time></trkpt><trkpt lat="44.9437522" lon="7.2591858"><ele>970.0</ele><time>2026-04-05T10:24:41.971Z</time></trkpt><trkpt lat="44.9436892" lon="7.2592515"><ele>970.5000000000001</ele><time>2026-04-05T10:24:42.971Z</time></trkpt><trkpt lat="44.9436264" lon="7.2593173"><ele>971.0</ele><time>2026-04-05T10:24:43.971Z</time></trkpt><trkpt lat="44.9435594" lon="7.259381"><ele>971.0</ele><time>2026-04-05T10:24:44.971Z</time></trkpt><trkpt lat="44.9434981" lon="7.2594303"><ele>970.9999999999999</ele><time>2026-04-05T10:24:45.971Z</time></trkpt><trkpt lat="44.9434401" lon="7.2594759"><ele>970.9999999999999</ele><time>2026-04-05T10:24:46.971Z</time></trkpt><trkpt lat="44.9433458" lon="7.2595779"><ele>971.0</ele><time>2026-04-05T10:24:48.971Z</time></trkpt><trkpt lat="44.9432691" lon="7.2596849"><ele>971.0</ele><time>2026-04-05T10:24:50.971Z</time></trkpt><trkpt lat="44.9432321" lon="7.2598336"><ele>968.5000000000001</ele><time>2026-04-05T10:24:52.971Z</time></trkpt><trkpt lat="44.9432424" lon="7.259983"><ele>966.0</ele><time>2026-04-05T10:24:54.971Z</time></trkpt><trkpt lat="44.9432629" lon="7.2601182"><ele>963.5</ele><time>2026-04-05T10:24:56.971Z</time></trkpt><trkpt lat="44.9432811" lon="7.2602069"><ele>961.0</ele><time>2026-04-05T10:24:58.971Z</time></trkpt><trkpt lat="44.9432971" lon="7.2602948"><ele>958.5000000000001</ele><time>2026-04-05T10:25:01.971Z</time></trkpt><trkpt lat="44.9432744" lon="7.2603785"><ele>956.0</ele><time>2026-04-05T10:25:05.971Z</time></trkpt><trkpt lat="44.9432177" lon="7.2604464"><ele>956.0000000000001</ele><time>2026-04-05T10:25:08.971Z</time></trkpt><trkpt lat="44.9431426" lon="7.2604553"><ele>956.0</ele><time>2026-04-05T10:25:12.971Z</time></trkpt><trkpt lat="44.9430516" lon="7.2604036"><ele>956.0</ele><time>2026-04-05T10:25:15.971Z</time></trkpt><trkpt lat="44.9429709" lon="7.2603679"><ele>956.0</ele><time>2026-04-05T10:25:17.971Z</time></trkpt><trkpt lat="44.9428856" lon="7.2604266"><ele>956.0000000000001</ele><time>2026-04-05T10:25:19.971Z</time></trkpt><trkpt lat="44.9428334" lon="7.2604815"><ele>956.0</ele><time>2026-04-05T10:25:20.971Z</time></trkpt><trkpt lat="44.942742" lon="7.2605783"><ele>956.8333333333334</ele><time>2026-04-05T10:25:22.971Z</time></trkpt><trkpt lat="44.9426493" lon="7.260686"><ele>957.6666666666667</ele><time>2026-04-05T10:25:24.971Z</time></trkpt><trkpt lat="44.9425709" lon="7.2607866"><ele>958.5</ele><time>2026-04-05T10:25:26.971Z</time></trkpt><trkpt lat="44.9425143" lon="7.2608409"><ele>959.3333333333333</ele><time>2026-04-05T10:25:28.971Z</time></trkpt><trkpt lat="44.9424563" lon="7.2608836"><ele>960.1666666666666</ele><time>2026-04-05T10:25:31.972Z</time></trkpt><trkpt lat="44.9423948" lon="7.2608473"><ele>961.0</ele><time>2026-04-05T10:25:37.971Z</time></trkpt><trkpt lat="44.942397" lon="7.2607286"><ele>959.1999999999999</ele><time>2026-04-05T10:25:42.971Z</time></trkpt><trkpt lat="44.9424396" lon="7.260607"><ele>957.3999999999999</ele><time>2026-04-05T10:25:45.971Z</time></trkpt><trkpt lat="44.9424687" lon="7.2604904"><ele>955.6</ele><time>2026-04-05T10:25:47.971Z</time></trkpt><trkpt lat="44.942487" lon="7.2603778"><ele>953.8</ele><time>2026-04-05T10:25:49.971Z</time></trkpt><trkpt lat="44.9425027" lon="7.2602472"><ele>952.0</ele><time>2026-04-05T10:25:51.971Z</time></trkpt><trkpt lat="44.9425476" lon="7.2600966"><ele>952.6666666666666</ele><time>2026-04-05T10:25:53.971Z</time></trkpt><trkpt lat="44.9425901" lon="7.2600074"><ele>953.3333333333333</ele><time>2026-04-05T10:25:55.971Z</time></trkpt><trkpt lat="44.9425919" lon="7.2598827"><ele>954.0</ele><time>2026-04-05T10:25:57.971Z</time></trkpt><trkpt lat="44.9425871" lon="7.2597282"><ele>954.6666666666667</ele><time>2026-04-05T10:25:59.971Z</time></trkpt><trkpt lat="44.9425581" lon="7.2596212"><ele>955.3333333333334</ele><time>2026-04-05T10:26:00.971Z</time></trkpt><trkpt lat="44.9425465" lon="7.2595273"><ele>956.0</ele><time>2026-04-05T10:26:01.971Z</time></trkpt><trkpt lat="44.9425379" lon="7.2594203"><ele>954.7142857142858</ele><time>2026-04-05T10:26:02.971Z</time></trkpt><trkpt lat="44.9425266" lon="7.2593049"><ele>953.4285714285714</ele><time>2026-04-05T10:26:03.971Z</time></trkpt><trkpt lat="44.9425179" lon="7.259216"><ele>952.1428571428571</ele><time>2026-04-05T10:26:04.971Z</time></trkpt><trkpt lat="44.9425214" lon="7.2591054"><ele>950.8571428571429</ele><time>2026-04-05T10:26:05.971Z</time></trkpt><trkpt lat="44.9425194" lon="7.2589901"><ele>949.5714285714284</ele><time>2026-04-05T10:26:06.971Z</time></trkpt><trkpt lat="44.9425221" lon="7.2588884"><ele>948.2857142857142</ele><time>2026-04-05T10:26:07.971Z</time></trkpt><trkpt lat="44.9425246" lon="7.2587897"><ele>947.0</ele><time>2026-04-05T10:26:08.971Z</time></trkpt><trkpt lat="44.9425073" lon="7.2587005"><ele>947.0</ele><time>2026-04-05T10:26:09.971Z</time></trkpt><trkpt lat="44.9424869" lon="7.2585551"><ele>947.0</ele><time>2026-04-05T10:26:11.971Z</time></trkpt><trkpt lat="44.9424915" lon="7.2584274"><ele>947.0</ele><time>2026-04-05T10:26:13.971Z</time></trkpt><trkpt lat="44.9425155" lon="7.2583446"><ele>947.0</ele><time>2026-04-05T10:26:14.971Z</time></trkpt><trkpt lat="44.9425873" lon="7.2582493"><ele>947.0</ele><time>2026-04-05T10:26:16.971Z</time></trkpt><trkpt lat="44.9426553" lon="7.2581578"><ele>940.0</ele><time>2026-04-05T10:26:18.971Z</time></trkpt><trkpt lat="44.9427086" lon="7.2580035"><ele>933.0</ele><time>2026-04-05T10:26:20.971Z</time></trkpt><trkpt lat="44.9427145" lon="7.2578401"><ele>926.0</ele><time>2026-04-05T10:26:22.971Z</time></trkpt><trkpt lat="44.9426797" lon="7.2576969"><ele>919.0</ele><time>2026-04-05T10:26:24.971Z</time></trkpt><trkpt lat="44.9426446" lon="7.2576"><ele>912.0</ele><time>2026-04-05T10:26:25.971Z</time></trkpt><trkpt lat="44.9426328" lon="7.2574918"><ele>912.0</ele><time>2026-04-05T10:26:26.971Z</time></trkpt><trkpt lat="44.9426327" lon="7.2573919"><ele>912.0</ele><time>2026-04-05T10:26:27.971Z</time></trkpt><trkpt lat="44.9426508" lon="7.2572968"><ele>912.0</ele><time>2026-04-05T10:26:28.971Z</time></trkpt><trkpt lat="44.9426744" lon="7.2571931"><ele>912.0</ele><time>2026-04-05T10:26:29.971Z</time></trkpt><trkpt lat="44.9426977" lon="7.2570378"><ele>912.0</ele><time>2026-04-05T10:26:31.971Z</time></trkpt><trkpt lat="44.9427573" lon="7.256892"><ele>912.0</ele><time>2026-04-05T10:26:33.971Z</time></trkpt><trkpt lat="44.9427932" lon="7.2567235"><ele>911.4285714285713</ele><time>2026-04-05T10:26:35.971Z</time></trkpt><trkpt lat="44.9427993" lon="7.2566312"><ele>910.8571428571428</ele><time>2026-04-05T10:26:36.971Z</time></trkpt><trkpt lat="44.9427949" lon="7.2565399"><ele>910.2857142857142</ele><time>2026-04-05T10:26:37.971Z</time></trkpt><trkpt lat="44.9427554" lon="7.2564496"><ele>909.7142857142858</ele><time>2026-04-05T10:26:38.971Z</time></trkpt><trkpt lat="44.9427286" lon="7.2563641"><ele>909.1428571428572</ele><time>2026-04-05T10:26:39.971Z</time></trkpt><trkpt lat="44.9426869" lon="7.2562789"><ele>908.5714285714287</ele><time>2026-04-05T10:26:40.971Z</time></trkpt><trkpt lat="44.9426428" lon="7.2562058"><ele>908.0</ele><time>2026-04-05T10:26:41.971Z</time></trkpt><trkpt lat="44.9425879" lon="7.2561354"><ele>906.3333333333334</ele><time>2026-04-05T10:26:42.971Z</time></trkpt><trkpt lat="44.9425944" lon="7.2559844"><ele>904.6666666666667</ele><time>2026-04-05T10:26:44.971Z</time></trkpt><trkpt lat="44.9425777" lon="7.2558815"><ele>903.0</ele><time>2026-04-05T10:26:45.971Z</time></trkpt><trkpt lat="44.9425652" lon="7.2557846"><ele>901.3333333333333</ele><time>2026-04-05T10:26:46.971Z</time></trkpt><trkpt lat="44.9425126" lon="7.2557052"><ele>899.6666666666666</ele><time>2026-04-05T10:26:47.971Z</time></trkpt><trkpt lat="44.9424785" lon="7.2556212"><ele>898.0</ele><time>2026-04-05T10:26:48.971Z</time></trkpt><trkpt lat="44.9424514" lon="7.2555247"><ele>897.6666666666666</ele><time>2026-04-05T10:26:49.971Z</time></trkpt><trkpt lat="44.9424484" lon="7.2553609"><ele>897.3333333333333</ele><time>2026-04-05T10:26:51.971Z</time></trkpt><trkpt lat="44.942476" lon="7.2552796"><ele>897.0</ele><time>2026-04-05T10:26:52.971Z</time></trkpt><trkpt lat="44.9425257" lon="7.2551279"><ele>896.6666666666667</ele><time>2026-04-05T10:26:54.971Z</time></trkpt><trkpt lat="44.9425565" lon="7.2550345"><ele>896.3333333333334</ele><time>2026-04-05T10:26:55.971Z</time></trkpt><trkpt lat="44.9425591" lon="7.2549303"><ele>896.0</ele><time>2026-04-05T10:26:56.971Z</time></trkpt><trkpt lat="44.9425317" lon="7.254818"><ele>901.3333333333334</ele><time>2026-04-05T10:26:57.971Z</time></trkpt><trkpt lat="44.9425252" lon="7.2547234"><ele>906.6666666666667</ele><time>2026-04-05T10:26:58.971Z</time></trkpt><trkpt lat="44.9425211" lon="7.2546194"><ele>912.0</ele><time>2026-04-05T10:26:59.971Z</time></trkpt><trkpt lat="44.942523" lon="7.2545236"><ele>917.3333333333333</ele><time>2026-04-05T10:27:00.971Z</time></trkpt><trkpt lat="44.9425167" lon="7.2544175"><ele>922.6666666666666</ele><time>2026-04-05T10:27:01.971Z</time></trkpt><trkpt lat="44.9424949" lon="7.2543195"><ele>928.0</ele><time>2026-04-05T10:27:02.971Z</time></trkpt><trkpt lat="44.9424627" lon="7.254194"><ele>927.9999999999999</ele><time>2026-04-05T10:27:03.971Z</time></trkpt><trkpt lat="44.9424305" lon="7.2540819"><ele>928.0</ele><time>2026-04-05T10:27:04.971Z</time></trkpt><trkpt lat="44.9423935" lon="7.2539938"><ele>928.0</ele><time>2026-04-05T10:27:05.971Z</time></trkpt><trkpt lat="44.9423587" lon="7.2538903"><ele>928.0</ele><time>2026-04-05T10:27:06.971Z</time></trkpt><trkpt lat="44.9423415" lon="7.2537786"><ele>927.9999999999999</ele><time>2026-04-05T10:27:07.971Z</time></trkpt><trkpt lat="44.9423198" lon="7.253611"><ele>928.0</ele><time>2026-04-05T10:27:09.971Z</time></trkpt><trkpt lat="44.942264" lon="7.2534822"><ele>925.8</ele><time>2026-04-05T10:27:11.971Z</time></trkpt><trkpt lat="44.9422027" lon="7.2533591"><ele>923.5999999999999</ele><time>2026-04-05T10:27:13.971Z</time></trkpt><trkpt lat="44.9421518" lon="7.2532505"><ele>921.4000000000001</ele><time>2026-04-05T10:27:15.971Z</time></trkpt><trkpt lat="44.9421166" lon="7.2531397"><ele>919.2</ele><time>2026-04-05T10:27:17.971Z</time></trkpt><trkpt lat="44.9420902" lon="7.2529918"><ele>917.0</ele><time>2026-04-05T10:27:19.971Z</time></trkpt><trkpt lat="44.9420411" lon="7.2528279"><ele>914.0000000000001</ele><time>2026-04-05T10:27:21.971Z</time></trkpt><trkpt lat="44.9420102" lon="7.2527417"><ele>911.0</ele><time>2026-04-05T10:27:22.971Z</time></trkpt><trkpt lat="44.9420036" lon="7.2526495"><ele>908.0</ele><time>2026-04-05T10:27:23.971Z</time></trkpt><trkpt lat="44.9419855" lon="7.2525559"><ele>905.0</ele><time>2026-04-05T10:27:24.971Z</time></trkpt><trkpt lat="44.9419493" lon="7.252464"><ele>902.0000000000001</ele><time>2026-04-05T10:27:25.971Z</time></trkpt><trkpt lat="44.9419195" lon="7.252371"><ele>899.0</ele><time>2026-04-05T10:27:26.971Z</time></trkpt><trkpt lat="44.9418613" lon="7.2522534"><ele>896.8333333333334</ele><time>2026-04-05T10:27:28.971Z</time></trkpt><trkpt lat="44.9417934" lon="7.252117"><ele>894.6666666666667</ele><time>2026-04-05T10:27:30.971Z</time></trkpt><trkpt lat="44.9417656" lon="7.2520326"><ele>892.5</ele><time>2026-04-05T10:27:31.971Z</time></trkpt><trkpt lat="44.9417397" lon="7.2518601"><ele>890.3333333333333</ele><time>2026-04-05T10:27:33.971Z</time></trkpt><trkpt lat="44.9417212" lon="7.2517685"><ele>888.1666666666666</ele><time>2026-04-05T10:27:34.971Z</time></trkpt><trkpt lat="44.9417257" lon="7.2516749"><ele>886.0</ele><time>2026-04-05T10:27:35.971Z</time></trkpt><trkpt lat="44.9417173" lon="7.2515766"><ele>889.4</ele><time>2026-04-05T10:27:36.971Z</time></trkpt><trkpt lat="44.9416921" lon="7.2514837"><ele>892.8</ele><time>2026-04-05T10:27:37.971Z</time></trkpt><trkpt lat="44.9416609" lon="7.2513131"><ele>896.1999999999999</ele><time>2026-04-05T10:27:39.971Z</time></trkpt><trkpt lat="44.9416092" lon="7.2511686"><ele>899.5999999999999</ele><time>2026-04-05T10:27:41.971Z</time></trkpt><trkpt lat="44.9415827" lon="7.2510778"><ele>903.0</ele><time>2026-04-05T10:27:42.971Z</time></trkpt><trkpt lat="44.9415298" lon="7.2509365"><ele>903.0</ele><time>2026-04-05T10:27:44.971Z</time></trkpt><trkpt lat="44.9414667" lon="7.2508604"><ele>903.0</ele><time>2026-04-05T10:27:46.971Z</time></trkpt><trkpt lat="44.9413758" lon="7.2507809"><ele>903.0</ele><time>2026-04-05T10:27:48.971Z</time></trkpt><trkpt lat="44.9412752" lon="7.2507445"><ele>903.0</ele><time>2026-04-05T10:27:50.971Z</time></trkpt><trkpt lat="44.9411562" lon="7.2506853"><ele>903.0</ele><time>2026-04-05T10:27:52.971Z</time></trkpt><trkpt lat="44.9410844" lon="7.2506447"><ele>901.5999999999999</ele><time>2026-04-05T10:27:53.972Z</time></trkpt><trkpt lat="44.9410235" lon="7.2505899"><ele>900.1999999999999</ele><time>2026-04-05T10:27:54.971Z</time></trkpt><trkpt lat="44.9408919" lon="7.2505249"><ele>898.8</ele><time>2026-04-05T10:27:56.971Z</time></trkpt><trkpt lat="44.9408247" lon="7.2504911"><ele>897.4</ele><time>2026-04-05T10:27:57.971Z</time></trkpt><trkpt lat="44.9407133" lon="7.2504036"><ele>896.0</ele><time>2026-04-05T10:27:59.971Z</time></trkpt><trkpt lat="44.9406683" lon="7.2503382"><ele>896.0000000000001</ele><time>2026-04-05T10:28:00.971Z</time></trkpt><trkpt lat="44.9406037" lon="7.2502816"><ele>896.0</ele><time>2026-04-05T10:28:01.971Z</time></trkpt><trkpt lat="44.940526" lon="7.2501879"><ele>896.0</ele><time>2026-04-05T10:28:03.971Z</time></trkpt><trkpt lat="44.9404774" lon="7.2501113"><ele>896.0</ele><time>2026-04-05T10:28:05.971Z</time></trkpt><trkpt lat="44.9404733" lon="7.2500118"><ele>896.0000000000001</ele><time>2026-04-05T10:28:08.971Z</time></trkpt><trkpt lat="44.9405403" lon="7.2499778"><ele>896.0</ele><time>2026-04-05T10:28:11.971Z</time></trkpt><trkpt lat="44.9406143" lon="7.2500174"><ele>896.0</ele><time>2026-04-05T10:28:13.971Z</time></trkpt><trkpt lat="44.9407035" lon="7.2500956"><ele>895.9999999999999</ele><time>2026-04-05T10:28:15.971Z</time></trkpt><trkpt lat="44.940825" lon="7.2501504"><ele>895.9999999999999</ele><time>2026-04-05T10:28:17.971Z</time></trkpt><trkpt lat="44.9409006" lon="7.2501949"><ele>896.0</ele><time>2026-04-05T10:28:18.971Z</time></trkpt><trkpt lat="44.9409644" lon="7.2502213"><ele>896.0</ele><time>2026-04-05T10:28:19.971Z</time></trkpt><trkpt lat="44.9410315" lon="7.2502527"><ele>892.1999999999999</ele><time>2026-04-05T10:28:20.971Z</time></trkpt><trkpt lat="44.941095" lon="7.2502658"><ele>888.3999999999999</ele><time>2026-04-05T10:28:21.971Z</time></trkpt><trkpt lat="44.9411994" lon="7.2502466"><ele>884.6</ele><time>2026-04-05T10:28:23.971Z</time></trkpt><trkpt lat="44.9413142" lon="7.2502516"><ele>880.8</ele><time>2026-04-05T10:28:25.971Z</time></trkpt><trkpt lat="44.9414239" lon="7.2502821"><ele>877.0</ele><time>2026-04-05T10:28:27.971Z</time></trkpt><trkpt lat="44.9415336" lon="7.2502955"><ele>877.0</ele><time>2026-04-05T10:28:29.971Z</time></trkpt><trkpt lat="44.9416409" lon="7.2502882"><ele>877.0</ele><time>2026-04-05T10:28:31.971Z</time></trkpt><trkpt lat="44.9417252" lon="7.2502817"><ele>877.0</ele><time>2026-04-05T10:28:33.971Z</time></trkpt><trkpt lat="44.9418248" lon="7.2503078"><ele>877.0</ele><time>2026-04-05T10:28:35.971Z</time></trkpt><trkpt lat="44.9419189" lon="7.250309"><ele>877.0</ele><time>2026-04-05T10:28:37.971Z</time></trkpt><trkpt lat="44.9420131" lon="7.2503486"><ele>876.2</ele><time>2026-04-05T10:28:39.971Z</time></trkpt><trkpt lat="44.942105" lon="7.2504176"><ele>875.4000000000001</ele><time>2026-04-05T10:28:41.971Z</time></trkpt><trkpt lat="44.9421886" lon="7.2505239"><ele>874.5999999999999</ele><time>2026-04-05T10:28:43.971Z</time></trkpt><trkpt lat="44.942271" lon="7.2506841"><ele>873.8</ele><time>2026-04-05T10:28:45.971Z</time></trkpt><trkpt lat="44.9423212" lon="7.2507493"><ele>873.0</ele><time>2026-04-05T10:28:46.971Z</time></trkpt><trkpt lat="44.9423984" lon="7.2508666"><ele>873.0</ele><time>2026-04-05T10:28:48.971Z</time></trkpt><trkpt lat="44.9424739" lon="7.2509831"><ele>873.0</ele><time>2026-04-05T10:28:50.971Z</time></trkpt><trkpt lat="44.9425326" lon="7.2511292"><ele>873.0</ele><time>2026-04-05T10:28:52.971Z</time></trkpt><trkpt lat="44.9425636" lon="7.2513023"><ele>873.0</ele><time>2026-04-05T10:28:54.971Z</time></trkpt><trkpt lat="44.9425631" lon="7.251399"><ele>873.0</ele><time>2026-04-05T10:28:55.971Z</time></trkpt><trkpt lat="44.9425827" lon="7.2514962"><ele>868.1666666666666</ele><time>2026-04-05T10:28:56.971Z</time></trkpt><trkpt lat="44.9425972" lon="7.2515882"><ele>863.3333333333333</ele><time>2026-04-05T10:28:57.971Z</time></trkpt><trkpt lat="44.9426255" lon="7.2517417"><ele>858.5</ele><time>2026-04-05T10:28:59.971Z</time></trkpt><trkpt lat="44.9426484" lon="7.2518903"><ele>853.6666666666666</ele><time>2026-04-05T10:29:01.971Z</time></trkpt><trkpt lat="44.9426909" lon="7.2519837"><ele>848.8333333333333</ele><time>2026-04-05T10:29:03.971Z</time></trkpt><trkpt lat="44.9427264" lon="7.2518916"><ele>844.0</ele><time>2026-04-05T10:29:08.971Z</time></trkpt><trkpt lat="44.9426989" lon="7.2517765"><ele>844.0</ele><time>2026-04-05T10:29:10.971Z</time></trkpt><trkpt lat="44.9427007" lon="7.2516418"><ele>844.0</ele><time>2026-04-05T10:29:12.971Z</time></trkpt><trkpt lat="44.9426855" lon="7.2515459"><ele>844.0</ele><time>2026-04-05T10:29:13.971Z</time></trkpt><trkpt lat="44.9426787" lon="7.2513926"><ele>844.0</ele><time>2026-04-05T10:29:15.971Z</time></trkpt><trkpt lat="44.9426924" lon="7.251253"><ele>844.0</ele><time>2026-04-05T10:29:17.971Z</time></trkpt><trkpt lat="44.9427106" lon="7.2511082"><ele>841.25</ele><time>2026-04-05T10:29:19.971Z</time></trkpt><trkpt lat="44.942717" lon="7.250948"><ele>838.5</ele><time>2026-04-05T10:29:21.971Z</time></trkpt><trkpt lat="44.9427138" lon="7.2507891"><ele>835.75</ele><time>2026-04-05T10:29:23.971Z</time></trkpt><trkpt lat="44.9426487" lon="7.2506323"><ele>833.0</ele><time>2026-04-05T10:29:25.971Z</time></trkpt><trkpt lat="44.9425907" lon="7.2504689"><ele>830.8333333333334</ele><time>2026-04-05T10:29:27.971Z</time></trkpt><trkpt lat="44.9425664" lon="7.2503764"><ele>828.6666666666667</ele><time>2026-04-05T10:29:28.971Z</time></trkpt><trkpt lat="44.9425438" lon="7.2502928"><ele>826.5</ele><time>2026-04-05T10:29:29.971Z</time></trkpt><trkpt lat="44.942518" lon="7.2502091"><ele>824.3333333333333</ele><time>2026-04-05T10:29:30.971Z</time></trkpt><trkpt lat="44.9424967" lon="7.250116"><ele>822.1666666666666</ele><time>2026-04-05T10:29:31.971Z</time></trkpt><trkpt lat="44.9424544" lon="7.2499745"><ele>820.0</ele><time>2026-04-05T10:29:33.971Z</time></trkpt><trkpt lat="44.9423914" lon="7.2498366"><ele>820.6666666666666</ele><time>2026-04-05T10:29:35.971Z</time></trkpt><trkpt lat="44.9422983" lon="7.2497384"><ele>821.3333333333333</ele><time>2026-04-05T10:29:37.971Z</time></trkpt><trkpt lat="44.9422367" lon="7.2497122"><ele>822.0</ele><time>2026-04-05T10:29:38.971Z</time></trkpt><trkpt lat="44.9421662" lon="7.249681"><ele>822.6666666666667</ele><time>2026-04-05T10:29:39.971Z</time></trkpt><trkpt lat="44.9420946" lon="7.2496393"><ele>823.3333333333334</ele><time>2026-04-05T10:29:40.971Z</time></trkpt><trkpt lat="44.9420208" lon="7.2495998"><ele>824.0</ele><time>2026-04-05T10:29:41.971Z</time></trkpt><trkpt lat="44.9419324" lon="7.2495522"><ele>823.9999999999999</ele><time>2026-04-05T10:29:42.971Z</time></trkpt><trkpt lat="44.9418529" lon="7.2495205"><ele>824.0</ele><time>2026-04-05T10:29:43.971Z</time></trkpt><trkpt lat="44.9417848" lon="7.2494997"><ele>824.0</ele><time>2026-04-05T10:29:44.971Z</time></trkpt><trkpt lat="44.9417217" lon="7.2494766"><ele>824.0</ele><time>2026-04-05T10:29:45.971Z</time></trkpt><trkpt lat="44.9416539" lon="7.2494354"><ele>824.0</ele><time>2026-04-05T10:29:46.971Z</time></trkpt><trkpt lat="44.9415942" lon="7.2493643"><ele>823.9999999999999</ele><time>2026-04-05T10:29:47.971Z</time></trkpt><trkpt lat="44.9415339" lon="7.2492985"><ele>824.0</ele><time>2026-04-05T10:29:48.971Z</time></trkpt><trkpt lat="44.9414892" lon="7.2492248"><ele>824.4000000000001</ele><time>2026-04-05T10:29:49.971Z</time></trkpt><trkpt lat="44.9414083" lon="7.2491096"><ele>824.8</ele><time>2026-04-05T10:29:51.971Z</time></trkpt><trkpt lat="44.9413631" lon="7.2490451"><ele>825.2</ele><time>2026-04-05T10:29:52.971Z</time></trkpt><trkpt lat="44.94131" lon="7.2489189"><ele>825.5999999999999</ele><time>2026-04-05T10:29:54.971Z</time></trkpt><trkpt lat="44.9412937" lon="7.2487593"><ele>826.0</ele><time>2026-04-05T10:29:56.971Z</time></trkpt><trkpt lat="44.9412622" lon="7.2486607"><ele>826.0</ele><time>2026-04-05T10:29:57.971Z</time></trkpt><trkpt lat="44.9412221" lon="7.2484994"><ele>826.0</ele><time>2026-04-05T10:29:59.971Z</time></trkpt><trkpt lat="44.941222" lon="7.2484016"><ele>826.0</ele><time>2026-04-05T10:30:00.971Z</time></trkpt><trkpt lat="44.9411962" lon="7.2483133"><ele>826.0</ele><time>2026-04-05T10:30:01.971Z</time></trkpt><trkpt lat="44.9411607" lon="7.2481617"><ele>826.0</ele><time>2026-04-05T10:30:03.971Z</time></trkpt><trkpt lat="44.9411055" lon="7.2480313"><ele>824.1666666666666</ele><time>2026-04-05T10:30:05.971Z</time></trkpt><trkpt lat="44.9410528" lon="7.247952"><ele>822.3333333333333</ele><time>2026-04-05T10:30:06.971Z</time></trkpt><trkpt lat="44.9410085" lon="7.2477959"><ele>820.5</ele><time>2026-04-05T10:30:08.971Z</time></trkpt><trkpt lat="44.9410016" lon="7.2476325"><ele>818.6666666666667</ele><time>2026-04-05T10:30:10.971Z</time></trkpt><trkpt lat="44.9410178" lon="7.2475456"><ele>816.8333333333334</ele><time>2026-04-05T10:30:11.971Z</time></trkpt><trkpt lat="44.9410386" lon="7.2474605"><ele>815.0</ele><time>2026-04-05T10:30:12.971Z</time></trkpt><trkpt lat="44.9410839" lon="7.2473207"><ele>813.4</ele><time>2026-04-05T10:30:14.971Z</time></trkpt><trkpt lat="44.9410981" lon="7.2471659"><ele>811.8</ele><time>2026-04-05T10:30:16.971Z</time></trkpt><trkpt lat="44.9410847" lon="7.2470757"><ele>810.2</ele><time>2026-04-05T10:30:17.971Z</time></trkpt><trkpt lat="44.9410458" lon="7.2469094"><ele>808.6</ele><time>2026-04-05T10:30:19.971Z</time></trkpt><trkpt lat="44.9410144" lon="7.2468054"><ele>807.0</ele><time>2026-04-05T10:30:20.971Z</time></trkpt><trkpt lat="44.9409713" lon="7.2467171"><ele>807.0</ele><time>2026-04-05T10:30:21.971Z</time></trkpt><trkpt lat="44.9409238" lon="7.2466316"><ele>807.0</ele><time>2026-04-05T10:30:22.971Z</time></trkpt><trkpt lat="44.9408815" lon="7.2465584"><ele>807.0</ele><time>2026-04-05T10:30:23.971Z</time></trkpt><trkpt lat="44.9408344" lon="7.2464917"><ele>807.0</ele><time>2026-04-05T10:30:24.971Z</time></trkpt><trkpt lat="44.9407648" lon="7.2463945"><ele>807.0</ele><time>2026-04-05T10:30:26.971Z</time></trkpt><trkpt lat="44.9407034" lon="7.2463226"><ele>807.0</ele><time>2026-04-05T10:30:28.971Z</time></trkpt><trkpt lat="44.9406124" lon="7.2462774"><ele>807.2</ele><time>2026-04-05T10:30:30.971Z</time></trkpt><trkpt lat="44.9404993" lon="7.2462641"><ele>807.4000000000001</ele><time>2026-04-05T10:30:32.971Z</time></trkpt><trkpt lat="44.9404291" lon="7.2462646"><ele>807.5999999999999</ele><time>2026-04-05T10:30:33.971Z</time></trkpt><trkpt lat="44.9403033" lon="7.2462953"><ele>807.8</ele><time>2026-04-05T10:30:35.971Z</time></trkpt><trkpt lat="44.9401783" lon="7.246374"><ele>808.0</ele><time>2026-04-05T10:30:37.971Z</time></trkpt><trkpt lat="44.9401036" lon="7.2464318"><ele>810.4999999999999</ele><time>2026-04-05T10:30:38.971Z</time></trkpt><trkpt lat="44.9400265" lon="7.2464684"><ele>813.0</ele><time>2026-04-05T10:30:39.971Z</time></trkpt><trkpt lat="44.9399715" lon="7.2465297"><ele>815.5</ele><time>2026-04-05T10:30:40.971Z</time></trkpt><trkpt lat="44.9399087" lon="7.2465833"><ele>818.0</ele><time>2026-04-05T10:30:41.971Z</time></trkpt><trkpt lat="44.9398137" lon="7.2466931"><ele>820.4999999999999</ele><time>2026-04-05T10:30:43.971Z</time></trkpt><trkpt lat="44.93976" lon="7.2467743"><ele>823.0</ele><time>2026-04-05T10:30:44.971Z</time></trkpt><trkpt lat="44.9397013" lon="7.2468493"><ele>822.9999999999999</ele><time>2026-04-05T10:30:45.971Z</time></trkpt><trkpt lat="44.9396404" lon="7.246905"><ele>823.0</ele><time>2026-04-05T10:30:46.971Z</time></trkpt><trkpt lat="44.9395507" lon="7.2469959"><ele>823.0</ele><time>2026-04-05T10:30:48.971Z</time></trkpt><trkpt lat="44.9394971" lon="7.2470486"><ele>823.0</ele><time>2026-04-05T10:30:49.971Z</time></trkpt><trkpt lat="44.9394418" lon="7.2470998"><ele>822.9999999999999</ele><time>2026-04-05T10:30:50.971Z</time></trkpt><trkpt lat="44.9393773" lon="7.2471483"><ele>823.0</ele><time>2026-04-05T10:30:51.971Z</time></trkpt><trkpt lat="44.939291" lon="7.2472087"><ele>822.9999999999999</ele><time>2026-04-05T10:30:52.971Z</time></trkpt><trkpt lat="44.9392225" lon="7.2472654"><ele>823.0</ele><time>2026-04-05T10:30:53.971Z</time></trkpt><trkpt lat="44.9391534" lon="7.2473413"><ele>823.0</ele><time>2026-04-05T10:30:54.971Z</time></trkpt><trkpt lat="44.9390843" lon="7.247394"><ele>823.0</ele><time>2026-04-05T10:30:55.971Z</time></trkpt><trkpt lat="44.9390213" lon="7.2474649"><ele>822.9999999999999</ele><time>2026-04-05T10:30:56.971Z</time></trkpt><trkpt lat="44.938965" lon="7.2475367"><ele>823.0</ele><time>2026-04-05T10:30:57.971Z</time></trkpt><trkpt lat="44.9388906" lon="7.2476784"><ele>824.5999999999999</ele><time>2026-04-05T10:30:59.971Z</time></trkpt><trkpt lat="44.9388458" lon="7.2478768"><ele>826.1999999999999</ele><time>2026-04-05T10:31:01.971Z</time></trkpt><trkpt lat="44.9388225" lon="7.2479704"><ele>827.8</ele><time>2026-04-05T10:31:02.971Z</time></trkpt><trkpt lat="44.9387508" lon="7.24811"><ele>829.4</ele><time>2026-04-05T10:31:04.971Z</time></trkpt><trkpt lat="44.9386878" lon="7.2481749"><ele>831.0</ele><time>2026-04-05T10:31:05.971Z</time></trkpt><trkpt lat="44.9386253" lon="7.2482213"><ele>831.0</ele><time>2026-04-05T10:31:06.971Z</time></trkpt><trkpt lat="44.9385433" lon="7.2482664"><ele>831.0</ele><time>2026-04-05T10:31:07.971Z</time></trkpt><trkpt lat="44.9384712" lon="7.2483186"><ele>831.0</ele><time>2026-04-05T10:31:08.971Z</time></trkpt><trkpt lat="44.9383891" lon="7.248376"><ele>831.0</ele><time>2026-04-05T10:31:09.971Z</time></trkpt><trkpt lat="44.9383094" lon="7.248425"><ele>831.0</ele><time>2026-04-05T10:31:10.971Z</time></trkpt><trkpt lat="44.9382426" lon="7.2485008"><ele>831.0</ele><time>2026-04-05T10:31:11.971Z</time></trkpt><trkpt lat="44.9381737" lon="7.2485408"><ele>827.3333333333334</ele><time>2026-04-05T10:31:12.971Z</time></trkpt><trkpt lat="44.9381171" lon="7.2485901"><ele>823.6666666666667</ele><time>2026-04-05T10:31:13.971Z</time></trkpt><trkpt lat="44.9380596" lon="7.2486401"><ele>820.0</ele><time>2026-04-05T10:31:14.971Z</time></trkpt><trkpt lat="44.9379745" lon="7.2487577"><ele>816.3333333333334</ele><time>2026-04-05T10:31:16.971Z</time></trkpt><trkpt lat="44.9379396" lon="7.2488411"><ele>812.6666666666667</ele><time>2026-04-05T10:31:17.971Z</time></trkpt><trkpt lat="44.9379443" lon="7.2490079"><ele>809.0</ele><time>2026-04-05T10:31:19.971Z</time></trkpt><trkpt lat="44.9379569" lon="7.2491331"><ele>809.0</ele><time>2026-04-05T10:31:21.971Z</time></trkpt><trkpt lat="44.9379123" lon="7.249196"><ele>809.0</ele><time>2026-04-05T10:31:24.971Z</time></trkpt><trkpt lat="44.9378755" lon="7.2490984"><ele>809.0</ele><time>2026-04-05T10:31:27.971Z</time></trkpt><trkpt lat="44.9378623" lon="7.2489672"><ele>809.0</ele><time>2026-04-05T10:31:29.971Z</time></trkpt><trkpt lat="44.9378387" lon="7.2488144"><ele>809.0</ele><time>2026-04-05T10:31:31.971Z</time></trkpt><trkpt lat="44.9378026" lon="7.2486731"><ele>805.2</ele><time>2026-04-05T10:31:33.971Z</time></trkpt><trkpt lat="44.9378168" lon="7.2485236"><ele>801.4000000000001</ele><time>2026-04-05T10:31:35.971Z</time></trkpt><trkpt lat="44.9378585" lon="7.2483602"><ele>797.6</ele><time>2026-04-05T10:31:37.971Z</time></trkpt><trkpt lat="44.9379397" lon="7.2482276"><ele>793.8</ele><time>2026-04-05T10:31:39.971Z</time></trkpt><trkpt lat="44.9380136" lon="7.2481573"><ele>790.0</ele><time>2026-04-05T10:31:41.971Z</time></trkpt><trkpt lat="44.9380329" lon="7.2480694"><ele>789.9999999999999</ele><time>2026-04-05T10:31:43.971Z</time></trkpt><trkpt lat="44.937967" lon="7.2480407"><ele>790.0</ele><time>2026-04-05T10:31:45.971Z</time></trkpt><trkpt lat="44.937874" lon="7.2481118"><ele>790.0</ele><time>2026-04-05T10:31:47.971Z</time></trkpt><trkpt lat="44.9377657" lon="7.2481763"><ele>790.0</ele><time>2026-04-05T10:31:49.971Z</time></trkpt><trkpt lat="44.9376923" lon="7.2481954"><ele>789.9999999999999</ele><time>2026-04-05T10:31:50.971Z</time></trkpt><trkpt lat="44.9376291" lon="7.2482294"><ele>790.0</ele><time>2026-04-05T10:31:51.971Z</time></trkpt><trkpt lat="44.9375722" lon="7.248275"><ele>789.9999999999999</ele><time>2026-04-05T10:31:52.971Z</time></trkpt><trkpt lat="44.9374917" lon="7.2483339"><ele>790.0</ele><time>2026-04-05T10:31:54.971Z</time></trkpt><trkpt lat="44.9374728" lon="7.2482342"><ele>790.0</ele><time>2026-04-05T10:31:57.971Z</time></trkpt><trkpt lat="44.9375533" lon="7.248144"><ele>790.0</ele><time>2026-04-05T10:31:59.971Z</time></trkpt><trkpt lat="44.9376028" lon="7.2480821"><ele>789.9999999999999</ele><time>2026-04-05T10:32:00.971Z</time></trkpt><trkpt lat="44.9376489" lon="7.2480128"><ele>790.0</ele><time>2026-04-05T10:32:01.971Z</time></trkpt><trkpt lat="44.9376983" lon="7.2479335"><ele>786.9999999999999</ele><time>2026-04-05T10:32:02.971Z</time></trkpt><trkpt lat="44.9377596" lon="7.2478616"><ele>784.0</ele><time>2026-04-05T10:32:03.971Z</time></trkpt><trkpt lat="44.937832" lon="7.2478018"><ele>781.0</ele><time>2026-04-05T10:32:04.971Z</time></trkpt><trkpt lat="44.9379038" lon="7.24775"><ele>778.0</ele><time>2026-04-05T10:32:05.971Z</time></trkpt><trkpt lat="44.9379698" lon="7.2476908"><ele>774.9999999999999</ele><time>2026-04-05T10:32:06.971Z</time></trkpt><trkpt lat="44.9380264" lon="7.2476118"><ele>772.0</ele><time>2026-04-05T10:32:07.971Z</time></trkpt><trkpt lat="44.9380681" lon="7.247504"><ele>772.0</ele><time>2026-04-05T10:32:08.971Z</time></trkpt><trkpt lat="44.9380925" lon="7.2473592"><ele>772.0</ele><time>2026-04-05T10:32:09.971Z</time></trkpt><trkpt lat="44.9381134" lon="7.2472271"><ele>772.0</ele><time>2026-04-05T10:32:10.971Z</time></trkpt><trkpt lat="44.9381205" lon="7.2470942"><ele>772.0</ele><time>2026-04-05T10:32:11.971Z</time></trkpt><trkpt lat="44.9381071" lon="7.2469415"><ele>772.0</ele><time>2026-04-05T10:32:12.971Z</time></trkpt><trkpt lat="44.9380899" lon="7.2468095"><ele>769.1666666666666</ele><time>2026-04-05T10:32:13.971Z</time></trkpt><trkpt lat="44.9380844" lon="7.2466786"><ele>766.3333333333333</ele><time>2026-04-05T10:32:14.971Z</time></trkpt><trkpt lat="44.9380884" lon="7.2465546"><ele>763.5</ele><time>2026-04-05T10:32:15.971Z</time></trkpt><trkpt lat="44.9380993" lon="7.2464211"><ele>760.6666666666666</ele><time>2026-04-05T10:32:16.971Z</time></trkpt><trkpt lat="44.938117" lon="7.2463005"><ele>757.8333333333333</ele><time>2026-04-05T10:32:17.971Z</time></trkpt><trkpt lat="44.9381362" lon="7.2461845"><ele>755.0</ele><time>2026-04-05T10:32:18.971Z</time></trkpt><trkpt lat="44.938167" lon="7.2460667"><ele>755.5</ele><time>2026-04-05T10:32:19.971Z</time></trkpt><trkpt lat="44.9382028" lon="7.2459634"><ele>756.0</ele><time>2026-04-05T10:32:20.971Z</time></trkpt><trkpt lat="44.938243" lon="7.2458643"><ele>756.5</ele><time>2026-04-05T10:32:21.971Z</time></trkpt><trkpt lat="44.9382815" lon="7.2457625"><ele>757.0</ele><time>2026-04-05T10:32:22.971Z</time></trkpt><trkpt lat="44.9383177" lon="7.2456577"><ele>757.5</ele><time>2026-04-05T10:32:23.971Z</time></trkpt><trkpt lat="44.9383603" lon="7.2455599"><ele>758.0</ele><time>2026-04-05T10:32:24.971Z</time></trkpt><trkpt lat="44.9384001" lon="7.2454687"><ele>758.0000000000001</ele><time>2026-04-05T10:32:25.971Z</time></trkpt><trkpt lat="44.9384378" lon="7.2453876"><ele>758.0</ele><time>2026-04-05T10:32:26.971Z</time></trkpt><trkpt lat="44.9384812" lon="7.2453102"><ele>758.0</ele><time>2026-04-05T10:32:27.971Z</time></trkpt><trkpt lat="44.9385575" lon="7.2452591"><ele>758.0</ele><time>2026-04-05T10:32:28.971Z</time></trkpt><trkpt lat="44.9386226" lon="7.2451936"><ele>758.0</ele><time>2026-04-05T10:32:29.971Z</time></trkpt><trkpt lat="44.9386798" lon="7.2451168"><ele>758.0000000000001</ele><time>2026-04-05T10:32:30.971Z</time></trkpt><trkpt lat="44.9387197" lon="7.2450454"><ele>758.0</ele><time>2026-04-05T10:32:31.971Z</time></trkpt><trkpt lat="44.9387531" lon="7.2449663"><ele>758.0</ele><time>2026-04-05T10:32:32.971Z</time></trkpt><trkpt lat="44.9387893" lon="7.2448135"><ele>758.0</ele><time>2026-04-05T10:32:34.971Z</time></trkpt><trkpt lat="44.9387868" lon="7.2447039"><ele>758.0</ele><time>2026-04-05T10:32:36.971Z</time></trkpt><trkpt lat="44.9387202" lon="7.2446769"><ele>758.0</ele><time>2026-04-05T10:32:38.971Z</time></trkpt><trkpt lat="44.9386711" lon="7.2447979"><ele>758.0</ele><time>2026-04-05T10:32:40.971Z</time></trkpt><trkpt lat="44.9386441" lon="7.2448785"><ele>758.0</ele><time>2026-04-05T10:32:41.971Z</time></trkpt><trkpt lat="44.9386087" lon="7.2449526"><ele>758.0</ele><time>2026-04-05T10:32:42.971Z</time></trkpt><trkpt lat="44.9385604" lon="7.2450119"><ele>758.0</ele><time>2026-04-05T10:32:43.971Z</time></trkpt><trkpt lat="44.9384949" lon="7.2450172"><ele>758.0</ele><time>2026-04-05T10:32:44.971Z</time></trkpt><trkpt lat="44.9383782" lon="7.2450381"><ele>758.0</ele><time>2026-04-05T10:32:46.971Z</time></trkpt><trkpt lat="44.9383026" lon="7.2450073"><ele>758.0</ele><time>2026-04-05T10:32:48.971Z</time></trkpt><trkpt lat="44.9383658" lon="7.2448997"><ele>758.0</ele><time>2026-04-05T10:32:51.971Z</time></trkpt><trkpt lat="44.9384517" lon="7.2447629"><ele>755.4</ele><time>2026-04-05T10:32:53.971Z</time></trkpt><trkpt lat="44.9384667" lon="7.2446447"><ele>752.8</ele><time>2026-04-05T10:32:54.971Z</time></trkpt><trkpt lat="44.9384623" lon="7.244487"><ele>750.2</ele><time>2026-04-05T10:32:55.971Z</time></trkpt><trkpt lat="44.9384713" lon="7.2443538"><ele>747.6</ele><time>2026-04-05T10:32:56.971Z</time></trkpt><trkpt lat="44.9384891" lon="7.2442082"><ele>745.0</ele><time>2026-04-05T10:32:57.971Z</time></trkpt><trkpt lat="44.9385054" lon="7.2440611"><ele>742.5</ele><time>2026-04-05T10:32:58.971Z</time></trkpt><trkpt lat="44.9385143" lon="7.2439378"><ele>740.0</ele><time>2026-04-05T10:32:59.971Z</time></trkpt><trkpt lat="44.9385226" lon="7.2438153"><ele>737.5</ele><time>2026-04-05T10:33:00.971Z</time></trkpt><trkpt lat="44.938534" lon="7.2437067"><ele>735.0</ele><time>2026-04-05T10:33:01.971Z</time></trkpt><trkpt lat="44.9385551" lon="7.2436071"><ele>732.5</ele><time>2026-04-05T10:33:02.971Z</time></trkpt><trkpt lat="44.9385719" lon="7.2434412"><ele>730.0</ele><time>2026-04-05T10:33:04.971Z</time></trkpt><trkpt lat="44.9385604" lon="7.2433305"><ele>730.0</ele><time>2026-04-05T10:33:06.971Z</time></trkpt><trkpt lat="44.9384977" lon="7.2433471"><ele>730.0</ele><time>2026-04-05T10:33:09.971Z</time></trkpt><trkpt lat="44.9384753" lon="7.2434411"><ele>730.0</ele><time>2026-04-05T10:33:12.971Z</time></trkpt><trkpt lat="44.9384412" lon="7.2435363"><ele>730.0</ele><time>2026-04-05T10:33:14.971Z</time></trkpt><trkpt lat="44.9384005" lon="7.2436554"><ele>730.0</ele><time>2026-04-05T10:33:16.971Z</time></trkpt><trkpt lat="44.9383622" lon="7.2437903"><ele>730.0</ele><time>2026-04-05T10:33:18.971Z</time></trkpt><trkpt lat="44.9383376" lon="7.2439327"><ele>726.1666666666667</ele><time>2026-04-05T10:33:20.971Z</time></trkpt><trkpt lat="44.9383161" lon="7.2440624"><ele>722.3333333333334</ele><time>2026-04-05T10:33:22.971Z</time></trkpt><trkpt lat="44.9383137" lon="7.2441834"><ele>718.5</ele><time>2026-04-05T10:33:24.971Z</time></trkpt><trkpt lat="44.9382908" lon="7.2443078"><ele>714.6666666666666</ele><time>2026-04-05T10:33:26.971Z</time></trkpt><trkpt lat="44.9382523" lon="7.244395"><ele>710.8333333333333</ele><time>2026-04-05T10:33:28.971Z</time></trkpt><trkpt lat="44.9381907" lon="7.2444515"><ele>707.0</ele><time>2026-04-05T10:33:30.971Z</time></trkpt><trkpt lat="44.9381043" lon="7.2445092"><ele>707.0</ele><time>2026-04-05T10:33:32.971Z</time></trkpt><trkpt lat="44.9379951" lon="7.2445652"><ele>707.0</ele><time>2026-04-05T10:33:34.971Z</time></trkpt><trkpt lat="44.9378902" lon="7.2446417"><ele>707.0</ele><time>2026-04-05T10:33:36.971Z</time></trkpt><trkpt lat="44.9378039" lon="7.2447858"><ele>707.0</ele><time>2026-04-05T10:33:38.971Z</time></trkpt><trkpt lat="44.9377648" lon="7.2448929"><ele>709.6</ele><time>2026-04-05T10:33:39.971Z</time></trkpt><trkpt lat="44.9377237" lon="7.2450117"><ele>712.2</ele><time>2026-04-05T10:33:40.971Z</time></trkpt><trkpt lat="44.9376699" lon="7.2451383"><ele>714.8</ele><time>2026-04-05T10:33:41.971Z</time></trkpt><trkpt lat="44.9376234" lon="7.2452639"><ele>717.4</ele><time>2026-04-05T10:33:42.971Z</time></trkpt><trkpt lat="44.9375761" lon="7.2453883"><ele>720.0</ele><time>2026-04-05T10:33:43.971Z</time></trkpt><trkpt lat="44.9375394" lon="7.2455036"><ele>716.6</ele><time>2026-04-05T10:33:44.971Z</time></trkpt><trkpt lat="44.9375165" lon="7.2456199"><ele>713.2</ele><time>2026-04-05T10:33:45.971Z</time></trkpt><trkpt lat="44.9374977" lon="7.2457328"><ele>709.8</ele><time>2026-04-05T10:33:46.971Z</time></trkpt><trkpt lat="44.9374848" lon="7.2458675"><ele>706.4</ele><time>2026-04-05T10:33:47.971Z</time></trkpt><trkpt lat="44.9374705" lon="7.2460111"><ele>703.0</ele><time>2026-04-05T10:33:48.971Z</time></trkpt><trkpt lat="44.9374657" lon="7.2461389"><ele>703.0</ele><time>2026-04-05T10:33:49.971Z</time></trkpt><trkpt lat="44.9374545" lon="7.2462372"><ele>703.0</ele><time>2026-04-05T10:33:50.971Z</time></trkpt><trkpt lat="44.9374445" lon="7.2463354"><ele>703.0</ele><time>2026-04-05T10:33:51.971Z</time></trkpt><trkpt lat="44.9374449" lon="7.246426"><ele>703.0</ele><time>2026-04-05T10:33:52.971Z</time></trkpt><trkpt lat="44.9373938" lon="7.2465571"><ele>703.0</ele><time>2026-04-05T10:33:54.971Z</time></trkpt><trkpt lat="44.9372997" lon="7.2465516"><ele>703.0</ele><time>2026-04-05T10:33:56.971Z</time></trkpt><trkpt lat="44.9372487" lon="7.2464978"><ele>703.0</ele><time>2026-04-05T10:33:57.971Z</time></trkpt><trkpt lat="44.9371912" lon="7.2464176"><ele>703.0</ele><time>2026-04-05T10:33:58.971Z</time></trkpt><trkpt lat="44.9371135" lon="7.2463448"><ele>703.0</ele><time>2026-04-05T10:33:59.971Z</time></trkpt><trkpt lat="44.9370397" lon="7.2462641"><ele>703.0</ele><time>2026-04-05T10:34:00.971Z</time></trkpt><trkpt lat="44.9369792" lon="7.2461818"><ele>703.0</ele><time>2026-04-05T10:34:01.971Z</time></trkpt><trkpt lat="44.9369302" lon="7.2460983"><ele>703.0</ele><time>2026-04-05T10:34:02.971Z</time></trkpt><trkpt lat="44.9368832" lon="7.2460193"><ele>703.0</ele><time>2026-04-05T10:34:03.971Z</time></trkpt><trkpt lat="44.9368271" lon="7.2459567"><ele>703.0</ele><time>2026-04-05T10:34:04.971Z</time></trkpt><trkpt lat="44.9367055" lon="7.2459313"><ele>703.0</ele><time>2026-04-05T10:34:06.971Z</time></trkpt><trkpt lat="44.9366199" lon="7.246038"><ele>703.0</ele><time>2026-04-05T10:34:08.971Z</time></trkpt><trkpt lat="44.9366122" lon="7.2462431"><ele>702.6666666666667</ele><time>2026-04-05T10:34:10.971Z</time></trkpt><trkpt lat="44.9366103" lon="7.2463634"><ele>702.3333333333334</ele><time>2026-04-05T10:34:11.971Z</time></trkpt><trkpt lat="44.9366113" lon="7.2464782"><ele>702.0</ele><time>2026-04-05T10:34:12.971Z</time></trkpt><trkpt lat="44.9365995" lon="7.2465948"><ele>701.6666666666666</ele><time>2026-04-05T10:34:13.971Z</time></trkpt><trkpt lat="44.9365863" lon="7.2467031"><ele>701.3333333333333</ele><time>2026-04-05T10:34:14.971Z</time></trkpt><trkpt lat="44.9365732" lon="7.2468187"><ele>701.0</ele><time>2026-04-05T10:34:15.971Z</time></trkpt><trkpt lat="44.9365495" lon="7.2469306"><ele>701.0</ele><time>2026-04-05T10:34:16.971Z</time></trkpt><trkpt lat="44.9365268" lon="7.2470252"><ele>701.0</ele><time>2026-04-05T10:34:17.971Z</time></trkpt><trkpt lat="44.9364904" lon="7.2471035"><ele>701.0</ele><time>2026-04-05T10:34:18.971Z</time></trkpt><trkpt lat="44.9363796" lon="7.2471843"><ele>701.0</ele><time>2026-04-05T10:34:20.971Z</time></trkpt><trkpt lat="44.9363096" lon="7.24719"><ele>701.0</ele><time>2026-04-05T10:34:21.971Z</time></trkpt><trkpt lat="44.9362161" lon="7.2471894"><ele>701.0</ele><time>2026-04-05T10:34:22.972Z</time></trkpt><trkpt lat="44.9361375" lon="7.2472204"><ele>701.0</ele><time>2026-04-05T10:34:23.971Z</time></trkpt><trkpt lat="44.9360552" lon="7.2472636"><ele>701.0</ele><time>2026-04-05T10:34:24.971Z</time></trkpt><trkpt lat="44.9360005" lon="7.2473475"><ele>701.0</ele><time>2026-04-05T10:34:25.971Z</time></trkpt><trkpt lat="44.9359297" lon="7.2474183"><ele>701.0</ele><time>2026-04-05T10:34:26.972Z</time></trkpt><trkpt lat="44.9358628" lon="7.2474784"><ele>701.0</ele><time>2026-04-05T10:34:27.971Z</time></trkpt><trkpt lat="44.9357979" lon="7.2475493"><ele>701.0</ele><time>2026-04-05T10:34:28.971Z</time></trkpt><trkpt lat="44.9357389" lon="7.2476313"><ele>700.0</ele><time>2026-04-05T10:34:29.971Z</time></trkpt><trkpt lat="44.9356696" lon="7.2477016"><ele>699.0</ele><time>2026-04-05T10:34:30.971Z</time></trkpt><trkpt lat="44.9356064" lon="7.2477712"><ele>698.0</ele><time>2026-04-05T10:34:31.971Z</time></trkpt><trkpt lat="44.9355449" lon="7.2478373"><ele>697.0</ele><time>2026-04-05T10:34:32.971Z</time></trkpt><trkpt lat="44.9354935" lon="7.2479113"><ele>696.0</ele><time>2026-04-05T10:34:33.971Z</time></trkpt><trkpt lat="44.9354559" lon="7.2479851"><ele>695.0</ele><time>2026-04-05T10:34:34.971Z</time></trkpt><trkpt lat="44.9354207" lon="7.2480597"><ele>694.0</ele><time>2026-04-05T10:34:35.971Z</time></trkpt><trkpt lat="44.9353851" lon="7.2481971"><ele>697.0</ele><time>2026-04-05T10:34:37.971Z</time></trkpt><trkpt lat="44.9354168" lon="7.2482753"><ele>700.0</ele><time>2026-04-05T10:34:38.971Z</time></trkpt><trkpt lat="44.9354993" lon="7.2483816"><ele>703.0</ele><time>2026-04-05T10:34:40.971Z</time></trkpt><trkpt lat="44.9355265" lon="7.2485367"><ele>706.0</ele><time>2026-04-05T10:34:42.971Z</time></trkpt><trkpt lat="44.9355476" lon="7.2486848"><ele>709.0</ele><time>2026-04-05T10:34:44.971Z</time></trkpt><trkpt lat="44.9355921" lon="7.2488419"><ele>709.0</ele><time>2026-04-05T10:34:46.971Z</time></trkpt><trkpt lat="44.9356082" lon="7.2489307"><ele>709.0</ele><time>2026-04-05T10:34:47.971Z</time></trkpt><trkpt lat="44.9356402" lon="7.2490257"><ele>709.0</ele><time>2026-04-05T10:34:48.971Z</time></trkpt><trkpt lat="44.9356733" lon="7.2491783"><ele>709.0</ele><time>2026-04-05T10:34:50.971Z</time></trkpt><trkpt lat="44.9357304" lon="7.2493611"><ele>709.0</ele><time>2026-04-05T10:34:52.971Z</time></trkpt><trkpt lat="44.9357648" lon="7.2494428"><ele>708.8333333333334</ele><time>2026-04-05T10:34:53.971Z</time></trkpt><trkpt lat="44.9358099" lon="7.2495315"><ele>708.6666666666667</ele><time>2026-04-05T10:34:54.971Z</time></trkpt><trkpt lat="44.9358428" lon="7.2496081"><ele>708.5</ele><time>2026-04-05T10:34:55.971Z</time></trkpt><trkpt lat="44.9358924" lon="7.2497247"><ele>708.3333333333334</ele><time>2026-04-05T10:34:57.971Z</time></trkpt><trkpt lat="44.9358942" lon="7.2498611"><ele>708.1666666666666</ele><time>2026-04-05T10:35:00.971Z</time></trkpt><trkpt lat="44.9358347" lon="7.2499354"><ele>708.0</ele><time>2026-04-05T10:35:02.971Z</time></trkpt><trkpt lat="44.9357317" lon="7.2499547"><ele>708.0</ele><time>2026-04-05T10:35:04.971Z</time></trkpt><trkpt lat="44.9356036" lon="7.2499289"><ele>708.0</ele><time>2026-04-05T10:35:06.971Z</time></trkpt><trkpt lat="44.9355392" lon="7.2499231"><ele>708.0</ele><time>2026-04-05T10:35:07.971Z</time></trkpt><trkpt lat="44.9354172" lon="7.2498887"><ele>708.0</ele><time>2026-04-05T10:35:09.971Z</time></trkpt><trkpt lat="44.9352983" lon="7.2498901"><ele>708.0</ele><time>2026-04-05T10:35:11.971Z</time></trkpt><trkpt lat="44.9352081" lon="7.2499739"><ele>708.0</ele><time>2026-04-05T10:35:13.971Z</time></trkpt><trkpt lat="44.9351508" lon="7.2500923"><ele>708.0</ele><time>2026-04-05T10:35:15.971Z</time></trkpt><trkpt lat="44.9350868" lon="7.250247"><ele>708.0</ele><time>2026-04-05T10:35:17.971Z</time></trkpt><trkpt lat="44.9350411" lon="7.2503833"><ele>708.0</ele><time>2026-04-05T10:35:19.971Z</time></trkpt><trkpt lat="44.9349912" lon="7.2504867"><ele>708.0</ele><time>2026-04-05T10:35:21.971Z</time></trkpt><trkpt lat="44.934919" lon="7.2504667"><ele>706.0</ele><time>2026-04-05T10:35:23.971Z</time></trkpt><trkpt lat="44.9348756" lon="7.250341"><ele>704.0</ele><time>2026-04-05T10:35:25.971Z</time></trkpt><trkpt lat="44.934873" lon="7.2501978"><ele>702.0</ele><time>2026-04-05T10:35:27.971Z</time></trkpt><trkpt lat="44.9348054" lon="7.2501158"><ele>700.0</ele><time>2026-04-05T10:35:29.971Z</time></trkpt><trkpt lat="44.93472" lon="7.2500841"><ele>698.0</ele><time>2026-04-05T10:35:31.971Z</time></trkpt><trkpt lat="44.9346361" lon="7.2500633"><ele>698.0</ele><time>2026-04-05T10:35:33.971Z</time></trkpt><trkpt lat="44.9345563" lon="7.2500433"><ele>698.0</ele><time>2026-04-05T10:35:35.971Z</time></trkpt><trkpt lat="44.9344679" lon="7.2500542"><ele>698.0</ele><time>2026-04-05T10:35:37.971Z</time></trkpt><trkpt lat="44.9344013" lon="7.2501108"><ele>698.0</ele><time>2026-04-05T10:35:39.971Z</time></trkpt><trkpt lat="44.9343161" lon="7.250171"><ele>698.0</ele><time>2026-04-05T10:35:41.971Z</time></trkpt><trkpt lat="44.9342292" lon="7.2501879"><ele>698.0</ele><time>2026-04-05T10:35:43.971Z</time></trkpt><trkpt lat="44.9341451" lon="7.2501641"><ele>697.4</ele><time>2026-04-05T10:35:45.971Z</time></trkpt><trkpt lat="44.9340074" lon="7.2502209"><ele>696.8</ele><time>2026-04-05T10:35:47.971Z</time></trkpt><trkpt lat="44.9339418" lon="7.2502438"><ele>696.2</ele><time>2026-04-05T10:35:48.971Z</time></trkpt><trkpt lat="44.9338257" lon="7.2502592"><ele>695.6</ele><time>2026-04-05T10:35:50.971Z</time></trkpt><trkpt lat="44.9337216" lon="7.2502714"><ele>695.0</ele><time>2026-04-05T10:35:52.971Z</time></trkpt><trkpt lat="44.9336504" lon="7.2503782"><ele>695.0</ele><time>2026-04-05T10:35:54.971Z</time></trkpt><trkpt lat="44.933617" lon="7.2504588"><ele>695.0</ele><time>2026-04-05T10:35:55.971Z</time></trkpt><trkpt lat="44.9335567" lon="7.2506119"><ele>695.0</ele><time>2026-04-05T10:35:57.971Z</time></trkpt><trkpt lat="44.9335297" lon="7.2506939"><ele>695.0</ele><time>2026-04-05T10:35:58.971Z</time></trkpt><trkpt lat="44.933478" lon="7.2508525"><ele>695.0</ele><time>2026-04-05T10:36:00.971Z</time></trkpt><trkpt lat="44.9334394" lon="7.251014"><ele>695.0</ele><time>2026-04-05T10:36:02.971Z</time></trkpt><trkpt lat="44.9333382" lon="7.2510706"><ele>695.0</ele><time>2026-04-05T10:36:04.971Z</time></trkpt><trkpt lat="44.9332702" lon="7.2510462"><ele>695.0</ele><time>2026-04-05T10:36:05.971Z</time></trkpt><trkpt lat="44.933197" lon="7.2510106"><ele>695.0</ele><time>2026-04-05T10:36:06.971Z</time></trkpt><trkpt lat="44.9331283" lon="7.2509816"><ele>695.0</ele><time>2026-04-05T10:36:07.971Z</time></trkpt><trkpt lat="44.9330413" lon="7.250952"><ele>695.0</ele><time>2026-04-05T10:36:08.971Z</time></trkpt><trkpt lat="44.9329554" lon="7.2509296"><ele>695.0</ele><time>2026-04-05T10:36:09.971Z</time></trkpt><trkpt lat="44.9328722" lon="7.2509086"><ele>695.0</ele><time>2026-04-05T10:36:10.971Z</time></trkpt><trkpt lat="44.9327928" lon="7.2509103"><ele>695.0</ele><time>2026-04-05T10:36:11.971Z</time></trkpt><trkpt lat="44.9327261" lon="7.2509245"><ele>695.0</ele><time>2026-04-05T10:36:12.971Z</time></trkpt><trkpt lat="44.9326652" lon="7.250953"><ele>695.0</ele><time>2026-04-05T10:36:13.971Z</time></trkpt><trkpt lat="44.9325921" lon="7.2510856"><ele>695.0</ele><time>2026-04-05T10:36:15.971Z</time></trkpt><trkpt lat="44.9325759" lon="7.2511948"><ele>694.0000000000001</ele><time>2026-04-05T10:36:16.971Z</time></trkpt><trkpt lat="44.9325529" lon="7.2513048"><ele>693.0</ele><time>2026-04-05T10:36:17.971Z</time></trkpt><trkpt lat="44.9325237" lon="7.2514051"><ele>692.0</ele><time>2026-04-05T10:36:18.971Z</time></trkpt><trkpt lat="44.9324792" lon="7.2514943"><ele>691.0</ele><time>2026-04-05T10:36:19.971Z</time></trkpt><trkpt lat="44.9324306" lon="7.2515653"><ele>690.0</ele><time>2026-04-05T10:36:20.971Z</time></trkpt><trkpt lat="44.9323752" lon="7.2516288"><ele>689.0000000000001</ele><time>2026-04-05T10:36:21.971Z</time></trkpt><trkpt lat="44.9323185" lon="7.2516922"><ele>688.0</ele><time>2026-04-05T10:36:22.971Z</time></trkpt><trkpt lat="44.9322561" lon="7.2517583"><ele>688.0000000000001</ele><time>2026-04-05T10:36:23.971Z</time></trkpt><trkpt lat="44.9321916" lon="7.2518287"><ele>688.0</ele><time>2026-04-05T10:36:24.971Z</time></trkpt><trkpt lat="44.9321275" lon="7.2518999"><ele>688.0</ele><time>2026-04-05T10:36:25.971Z</time></trkpt><trkpt lat="44.9320723" lon="7.2519704"><ele>688.0</ele><time>2026-04-05T10:36:26.971Z</time></trkpt><trkpt lat="44.9320043" lon="7.2520144"><ele>688.0</ele><time>2026-04-05T10:36:27.971Z</time></trkpt><trkpt lat="44.9319385" lon="7.2520355"><ele>688.0000000000001</ele><time>2026-04-05T10:36:28.971Z</time></trkpt><trkpt lat="44.9318716" lon="7.2520236"><ele>688.0</ele><time>2026-04-05T10:36:29.971Z</time></trkpt><trkpt lat="44.9318136" lon="7.2519721"><ele>688.0000000000001</ele><time>2026-04-05T10:36:30.971Z</time></trkpt><trkpt lat="44.9317745" lon="7.2518884"><ele>688.0</ele><time>2026-04-05T10:36:31.971Z</time></trkpt><trkpt lat="44.9317669" lon="7.2517855"><ele>688.0</ele><time>2026-04-05T10:36:32.971Z</time></trkpt><trkpt lat="44.9317799" lon="7.2516961"><ele>688.0</ele><time>2026-04-05T10:36:33.971Z</time></trkpt><trkpt lat="44.9318162" lon="7.251621"><ele>688.0</ele><time>2026-04-05T10:36:34.971Z</time></trkpt><trkpt lat="44.9318777" lon="7.2515414"><ele>688.0000000000001</ele><time>2026-04-05T10:36:35.971Z</time></trkpt><trkpt lat="44.9319528" lon="7.2514681"><ele>688.0</ele><time>2026-04-05T10:36:36.971Z</time></trkpt><trkpt lat="44.932025" lon="7.2513873"><ele>686.1666666666667</ele><time>2026-04-05T10:36:37.971Z</time></trkpt><trkpt lat="44.9320907" lon="7.2513213"><ele>684.3333333333334</ele><time>2026-04-05T10:36:38.971Z</time></trkpt><trkpt lat="44.932131" lon="7.2512312"><ele>682.5</ele><time>2026-04-05T10:36:39.971Z</time></trkpt><trkpt lat="44.9321576" lon="7.2511379"><ele>680.6666666666666</ele><time>2026-04-05T10:36:40.971Z</time></trkpt><trkpt lat="44.9321327" lon="7.2510204"><ele>678.8333333333333</ele><time>2026-04-05T10:36:41.971Z</time></trkpt><trkpt lat="44.9321023" lon="7.2509029"><ele>677.0</ele><time>2026-04-05T10:36:42.971Z</time></trkpt><trkpt lat="44.9320798" lon="7.2507888"><ele>677.0</ele><time>2026-04-05T10:36:43.971Z</time></trkpt><trkpt lat="44.9320633" lon="7.2506727"><ele>677.0</ele><time>2026-04-05T10:36:44.971Z</time></trkpt><trkpt lat="44.9320649" lon="7.250558"><ele>677.0</ele><time>2026-04-05T10:36:45.971Z</time></trkpt><trkpt lat="44.9320835" lon="7.2504445"><ele>677.0</ele><time>2026-04-05T10:36:46.971Z</time></trkpt><trkpt lat="44.9321127" lon="7.250336"><ele>677.0</ele><time>2026-04-05T10:36:47.971Z</time></trkpt><trkpt lat="44.9321487" lon="7.2502289"><ele>677.0</ele><time>2026-04-05T10:36:48.971Z</time></trkpt><trkpt lat="44.9321875" lon="7.2501189"><ele>675.0</ele><time>2026-04-05T10:36:49.971Z</time></trkpt><trkpt lat="44.9322255" lon="7.2500114"><ele>673.0</ele><time>2026-04-05T10:36:50.971Z</time></trkpt><trkpt lat="44.9322686" lon="7.2499065"><ele>671.0</ele><time>2026-04-05T10:36:51.971Z</time></trkpt><trkpt lat="44.932316" lon="7.2498069"><ele>669.0</ele><time>2026-04-05T10:36:52.971Z</time></trkpt><trkpt lat="44.9323729" lon="7.2497246"><ele>667.0</ele><time>2026-04-05T10:36:53.971Z</time></trkpt><trkpt lat="44.9324268" lon="7.2496538"><ele>665.0</ele><time>2026-04-05T10:36:54.971Z</time></trkpt><trkpt lat="44.932503" lon="7.249526"><ele>661.8</ele><time>2026-04-05T10:36:56.971Z</time></trkpt><trkpt lat="44.9324641" lon="7.2493855"><ele>658.6</ele><time>2026-04-05T10:36:58.971Z</time></trkpt><trkpt lat="44.9323369" lon="7.249377"><ele>655.4000000000001</ele><time>2026-04-05T10:37:00.971Z</time></trkpt><trkpt lat="44.9322671" lon="7.2494157"><ele>652.2</ele><time>2026-04-05T10:37:01.971Z</time></trkpt><trkpt lat="44.9322046" lon="7.2494766"><ele>649.0</ele><time>2026-04-05T10:37:02.971Z</time></trkpt><trkpt lat="44.9321474" lon="7.2495543"><ele>649.0</ele><time>2026-04-05T10:37:03.971Z</time></trkpt><trkpt lat="44.9320888" lon="7.2496531"><ele>649.0</ele><time>2026-04-05T10:37:04.971Z</time></trkpt><trkpt lat="44.9320335" lon="7.2497543"><ele>649.0</ele><time>2026-04-05T10:37:05.971Z</time></trkpt><trkpt lat="44.9319841" lon="7.2498527"><ele>649.0</ele><time>2026-04-05T10:37:06.971Z</time></trkpt><trkpt lat="44.9319327" lon="7.2499539"><ele>649.0</ele><time>2026-04-05T10:37:07.971Z</time></trkpt><trkpt lat="44.931882" lon="7.2500655"><ele>649.0</ele><time>2026-04-05T10:37:08.971Z</time></trkpt><trkpt lat="44.9318392" lon="7.2501733"><ele>649.5</ele><time>2026-04-05T10:37:09.971Z</time></trkpt><trkpt lat="44.9318021" lon="7.2502868"><ele>650.0</ele><time>2026-04-05T10:37:10.971Z</time></trkpt><trkpt lat="44.9317702" lon="7.250418"><ele>650.5</ele><time>2026-04-05T10:37:11.971Z</time></trkpt><trkpt lat="44.9317408" lon="7.2505459"><ele>651.0</ele><time>2026-04-05T10:37:12.971Z</time></trkpt><trkpt lat="44.9317115" lon="7.2506561"><ele>651.5</ele><time>2026-04-05T10:37:13.971Z</time></trkpt><trkpt lat="44.9316783" lon="7.2507525"><ele>652.0</ele><time>2026-04-05T10:37:14.971Z</time></trkpt><trkpt lat="44.9315694" lon="7.2507869"><ele>652.0</ele><time>2026-04-05T10:37:16.971Z</time></trkpt><trkpt lat="44.9314977" lon="7.2507752"><ele>652.0</ele><time>2026-04-05T10:37:17.971Z</time></trkpt><trkpt lat="44.9314224" lon="7.2507592"><ele>652.0</ele><time>2026-04-05T10:37:18.971Z</time></trkpt><trkpt lat="44.9313476" lon="7.2507452"><ele>652.0</ele><time>2026-04-05T10:37:19.971Z</time></trkpt><trkpt lat="44.9312752" lon="7.2507319"><ele>652.0</ele><time>2026-04-05T10:37:20.971Z</time></trkpt><trkpt lat="44.931204" lon="7.2507236"><ele>652.0</ele><time>2026-04-05T10:37:21.971Z</time></trkpt><trkpt lat="44.931129" lon="7.2507054"><ele>652.0</ele><time>2026-04-05T10:37:22.971Z</time></trkpt><trkpt lat="44.9310603" lon="7.2506961"><ele>652.0</ele><time>2026-04-05T10:37:23.971Z</time></trkpt><trkpt lat="44.9309385" lon="7.2507404"><ele>652.0</ele><time>2026-04-05T10:37:25.971Z</time></trkpt><trkpt lat="44.9308851" lon="7.2507925"><ele>652.0</ele><time>2026-04-05T10:37:26.971Z</time></trkpt><trkpt lat="44.9308321" lon="7.2508565"><ele>652.0</ele><time>2026-04-05T10:37:27.971Z</time></trkpt><trkpt lat="44.9307741" lon="7.2509142"><ele>652.0</ele><time>2026-04-05T10:37:28.971Z</time></trkpt><trkpt lat="44.9307121" lon="7.2509533"><ele>652.0</ele><time>2026-04-05T10:37:29.971Z</time></trkpt><trkpt lat="44.930596" lon="7.2509437"><ele>649.1666666666667</ele><time>2026-04-05T10:37:31.971Z</time></trkpt><trkpt lat="44.930491" lon="7.2508484"><ele>646.3333333333334</ele><time>2026-04-05T10:37:33.971Z</time></trkpt><trkpt lat="44.9304382" lon="7.2507964"><ele>643.5</ele><time>2026-04-05T10:37:34.971Z</time></trkpt><trkpt lat="44.9303828" lon="7.2507335"><ele>640.6666666666666</ele><time>2026-04-05T10:37:35.971Z</time></trkpt><trkpt lat="44.9303233" lon="7.2506702"><ele>637.8333333333333</ele><time>2026-04-05T10:37:36.971Z</time></trkpt><trkpt lat="44.9302612" lon="7.2506145"><ele>635.0</ele><time>2026-04-05T10:37:37.971Z</time></trkpt><trkpt lat="44.9301972" lon="7.2505537"><ele>633.6666666666666</ele><time>2026-04-05T10:37:38.971Z</time></trkpt><trkpt lat="44.9301412" lon="7.2504897"><ele>632.3333333333333</ele><time>2026-04-05T10:37:39.971Z</time></trkpt><trkpt lat="44.9300882" lon="7.2504356"><ele>631.0</ele><time>2026-04-05T10:37:40.971Z</time></trkpt><trkpt lat="44.9299722" lon="7.2503545"><ele>629.6666666666666</ele><time>2026-04-05T10:37:42.971Z</time></trkpt><trkpt lat="44.9299024" lon="7.2503304"><ele>628.3333333333334</ele><time>2026-04-05T10:37:43.971Z</time></trkpt><trkpt lat="44.929826" lon="7.250313"><ele>627.0</ele><time>2026-04-05T10:37:44.971Z</time></trkpt><trkpt lat="44.9297509" lon="7.2502899"><ele>626.5</ele><time>2026-04-05T10:37:45.971Z</time></trkpt><trkpt lat="44.9296681" lon="7.2502685"><ele>626.0</ele><time>2026-04-05T10:37:46.971Z</time></trkpt><trkpt lat="44.9295896" lon="7.2502467"><ele>625.5</ele><time>2026-04-05T10:37:47.971Z</time></trkpt><trkpt lat="44.9295106" lon="7.2502338"><ele>625.0</ele><time>2026-04-05T10:37:48.971Z</time></trkpt><trkpt lat="44.9294294" lon="7.250236"><ele>624.5</ele><time>2026-04-05T10:37:49.971Z</time></trkpt><trkpt lat="44.9293451" lon="7.2502406"><ele>624.0</ele><time>2026-04-05T10:37:50.971Z</time></trkpt><trkpt lat="44.9292622" lon="7.2502506"><ele>623.1666666666666</ele><time>2026-04-05T10:37:51.971Z</time></trkpt><trkpt lat="44.9291944" lon="7.2502609"><ele>622.3333333333334</ele><time>2026-04-05T10:37:52.971Z</time></trkpt><trkpt lat="44.9291254" lon="7.2502595"><ele>621.5</ele><time>2026-04-05T10:37:53.971Z</time></trkpt><trkpt lat="44.9290457" lon="7.2502291"><ele>620.6666666666667</ele><time>2026-04-05T10:37:54.971Z</time></trkpt><trkpt lat="44.9289695" lon="7.2501928"><ele>619.8333333333334</ele><time>2026-04-05T10:37:55.971Z</time></trkpt><trkpt lat="44.9288868" lon="7.250181"><ele>619.0</ele><time>2026-04-05T10:37:56.971Z</time></trkpt><trkpt lat="44.9287893" lon="7.2502048"><ele>619.0</ele><time>2026-04-05T10:37:57.971Z</time></trkpt><trkpt lat="44.9286881" lon="7.2502345"><ele>619.0</ele><time>2026-04-05T10:37:58.971Z</time></trkpt><trkpt lat="44.9285838" lon="7.2502471"><ele>619.0</ele><time>2026-04-05T10:37:59.971Z</time></trkpt><trkpt lat="44.9284824" lon="7.2502451"><ele>619.0</ele><time>2026-04-05T10:38:00.971Z</time></trkpt><trkpt lat="44.9283855" lon="7.2502321"><ele>619.0</ele><time>2026-04-05T10:38:01.971Z</time></trkpt><trkpt lat="44.9282858" lon="7.2502152"><ele>617.6</ele><time>2026-04-05T10:38:02.971Z</time></trkpt><trkpt lat="44.9281875" lon="7.2501824"><ele>616.2</ele><time>2026-04-05T10:38:03.971Z</time></trkpt><trkpt lat="44.928089" lon="7.2501425"><ele>614.8000000000001</ele><time>2026-04-05T10:38:04.972Z</time></trkpt><trkpt lat="44.9279883" lon="7.2500928"><ele>613.4</ele><time>2026-04-05T10:38:05.971Z</time></trkpt><trkpt lat="44.9278858" lon="7.2500434"><ele>612.0</ele><time>2026-04-05T10:38:06.971Z</time></trkpt><trkpt lat="44.9277935" lon="7.2499837"><ele>612.0</ele><time>2026-04-05T10:38:07.971Z</time></trkpt><trkpt lat="44.9277088" lon="7.2499246"><ele>612.0</ele><time>2026-04-05T10:38:08.971Z</time></trkpt><trkpt lat="44.9276365" lon="7.2498518"><ele>612.0</ele><time>2026-04-05T10:38:09.971Z</time></trkpt><trkpt lat="44.9275808" lon="7.2497594"><ele>612.0</ele><time>2026-04-05T10:38:10.971Z</time></trkpt><trkpt lat="44.9275346" lon="7.2496736"><ele>612.0</ele><time>2026-04-05T10:38:11.971Z</time></trkpt><trkpt lat="44.9275075" lon="7.2495666"><ele>612.0</ele><time>2026-04-05T10:38:12.971Z</time></trkpt><trkpt lat="44.9275015" lon="7.2494339"><ele>608.0</ele><time>2026-04-05T10:38:13.971Z</time></trkpt><trkpt lat="44.9275118" lon="7.249281"><ele>604.0</ele><time>2026-04-05T10:38:14.971Z</time></trkpt><trkpt lat="44.9275211" lon="7.2491065"><ele>600.0</ele><time>2026-04-05T10:38:15.971Z</time></trkpt><trkpt lat="44.9275386" lon="7.2489474"><ele>596.0</ele><time>2026-04-05T10:38:16.971Z</time></trkpt><trkpt lat="44.9275573" lon="7.2487839"><ele>597.5</ele><time>2026-04-05T10:38:17.972Z</time></trkpt><trkpt lat="44.9275803" lon="7.2486278"><ele>599.0</ele><time>2026-04-05T10:38:18.971Z</time></trkpt><trkpt lat="44.9276077" lon="7.248476"><ele>600.5</ele><time>2026-04-05T10:38:19.971Z</time></trkpt><trkpt lat="44.9276512" lon="7.2483305"><ele>602.0</ele><time>2026-04-05T10:38:20.971Z</time></trkpt><trkpt lat="44.9276964" lon="7.2481753"><ele>598.25</ele><time>2026-04-05T10:38:21.971Z</time></trkpt><trkpt lat="44.9277678" lon="7.2479849"><ele>594.5</ele><time>2026-04-05T10:38:22.971Z</time></trkpt><trkpt lat="44.9278245" lon="7.2478253"><ele>590.75</ele><time>2026-04-05T10:38:23.971Z</time></trkpt><trkpt lat="44.9278793" lon="7.2476723"><ele>587.0</ele><time>2026-04-05T10:38:24.971Z</time></trkpt><trkpt lat="44.9279444" lon="7.2475416"><ele>587.0</ele><time>2026-04-05T10:38:25.971Z</time></trkpt><trkpt lat="44.9280275" lon="7.2474261"><ele>587.0</ele><time>2026-04-05T10:38:26.971Z</time></trkpt><trkpt lat="44.9281233" lon="7.2473268"><ele>587.0</ele><time>2026-04-05T10:38:27.971Z</time></trkpt><trkpt lat="44.9282238" lon="7.2472383"><ele>587.0</ele><time>2026-04-05T10:38:28.971Z</time></trkpt><trkpt lat="44.9283134" lon="7.2471555"><ele>585.1666666666666</ele><time>2026-04-05T10:38:29.971Z</time></trkpt><trkpt lat="44.9283944" lon="7.2470823"><ele>583.3333333333333</ele><time>2026-04-05T10:38:30.971Z</time></trkpt><trkpt lat="44.9284667" lon="7.2470167"><ele>581.5</ele><time>2026-04-05T10:38:31.971Z</time></trkpt><trkpt lat="44.9285154" lon="7.2469331"><ele>579.6666666666666</ele><time>2026-04-05T10:38:32.971Z</time></trkpt><trkpt lat="44.9285288" lon="7.2468338"><ele>577.8333333333334</ele><time>2026-04-05T10:38:33.971Z</time></trkpt><trkpt lat="44.9284918" lon="7.2467547"><ele>576.0</ele><time>2026-04-05T10:38:34.971Z</time></trkpt><trkpt lat="44.9284314" lon="7.2467185"><ele>575.2</ele><time>2026-04-05T10:38:35.971Z</time></trkpt><trkpt lat="44.9283627" lon="7.2467372"><ele>574.4000000000001</ele><time>2026-04-05T10:38:36.971Z</time></trkpt><trkpt lat="44.9282824" lon="7.246782"><ele>573.6</ele><time>2026-04-05T10:38:37.971Z</time></trkpt><trkpt lat="44.9281853" lon="7.2468354"><ele>572.8000000000001</ele><time>2026-04-05T10:38:38.971Z</time></trkpt><trkpt lat="44.9280686" lon="7.2469106"><ele>572.0</ele><time>2026-04-05T10:38:39.971Z</time></trkpt><trkpt lat="44.9279305" lon="7.2469973"><ele>572.0</ele><time>2026-04-05T10:38:40.971Z</time></trkpt><trkpt lat="44.9277739" lon="7.2471022"><ele>572.0</ele><time>2026-04-05T10:38:41.971Z</time></trkpt><trkpt lat="44.9276161" lon="7.2472152"><ele>572.0</ele><time>2026-04-05T10:38:42.971Z</time></trkpt><trkpt lat="44.9274435" lon="7.2473396"><ele>572.3333333333333</ele><time>2026-04-05T10:38:43.971Z</time></trkpt><trkpt lat="44.9272829" lon="7.247452"><ele>572.6666666666666</ele><time>2026-04-05T10:38:44.971Z</time></trkpt><trkpt lat="44.9271314" lon="7.2475575"><ele>573.0</ele><time>2026-04-05T10:38:45.971Z</time></trkpt><trkpt lat="44.9269916" lon="7.2476554"><ele>573.0</ele><time>2026-04-05T10:38:46.971Z</time></trkpt><trkpt lat="44.9268662" lon="7.2477362"><ele>573.0</ele><time>2026-04-05T10:38:47.971Z</time></trkpt><trkpt lat="44.9267486" lon="7.2478157"><ele>573.0</ele><time>2026-04-05T10:38:48.971Z</time></trkpt><trkpt lat="44.926627" lon="7.2478871"><ele>573.0</ele><time>2026-04-05T10:38:49.971Z</time></trkpt><trkpt lat="44.9265063" lon="7.2479562"><ele>570.25</ele><time>2026-04-05T10:38:50.971Z</time></trkpt><trkpt lat="44.9263728" lon="7.2479601"><ele>567.5</ele><time>2026-04-05T10:38:51.971Z</time></trkpt><trkpt lat="44.926237" lon="7.247942"><ele>564.75</ele><time>2026-04-05T10:38:52.971Z</time></trkpt><trkpt lat="44.9260927" lon="7.2478758"><ele>562.0</ele><time>2026-04-05T10:38:53.971Z</time></trkpt><trkpt lat="44.9259391" lon="7.2477837"><ele>561.3333333333334</ele><time>2026-04-05T10:38:54.971Z</time></trkpt><trkpt lat="44.925781" lon="7.2476977"><ele>560.6666666666666</ele><time>2026-04-05T10:38:55.971Z</time></trkpt><trkpt lat="44.925631" lon="7.2476111"><ele>560.0</ele><time>2026-04-05T10:38:56.971Z</time></trkpt><trkpt lat="44.9254901" lon="7.2475305"><ele>560.0</ele><time>2026-04-05T10:38:57.971Z</time></trkpt><trkpt lat="44.925357" lon="7.2474481"><ele>560.0</ele><time>2026-04-05T10:38:58.971Z</time></trkpt><trkpt lat="44.9252181" lon="7.2473683"><ele>560.0</ele><time>2026-04-05T10:38:59.971Z</time></trkpt><trkpt lat="44.9250798" lon="7.2472843"><ele>560.0</ele><time>2026-04-05T10:39:00.971Z</time></trkpt><trkpt lat="44.9249431" lon="7.2472183"><ele>558.5</ele><time>2026-04-05T10:39:01.971Z</time></trkpt><trkpt lat="44.924812" lon="7.2471471"><ele>557.0</ele><time>2026-04-05T10:39:02.971Z</time></trkpt><trkpt lat="44.9246851" lon="7.2470757"><ele>555.5</ele><time>2026-04-05T10:39:03.971Z</time></trkpt><trkpt lat="44.9245655" lon="7.2470115"><ele>554.0</ele><time>2026-04-05T10:39:04.971Z</time></trkpt><trkpt lat="44.9244496" lon="7.2469289"><ele>554.0</ele><time>2026-04-05T10:39:05.971Z</time></trkpt><trkpt lat="44.9243389" lon="7.24686"><ele>554.0</ele><time>2026-04-05T10:39:06.971Z</time></trkpt><trkpt lat="44.9242316" lon="7.2467951"><ele>554.0</ele><time>2026-04-05T10:39:07.971Z</time></trkpt><trkpt lat="44.9241277" lon="7.2467317"><ele>554.0</ele><time>2026-04-05T10:39:08.971Z</time></trkpt><trkpt lat="44.9240261" lon="7.2466738"><ele>551.75</ele><time>2026-04-05T10:39:09.971Z</time></trkpt><trkpt lat="44.9239161" lon="7.2466284"><ele>549.5</ele><time>2026-04-05T10:39:10.971Z</time></trkpt><trkpt lat="44.9237922" lon="7.2465973"><ele>547.25</ele><time>2026-04-05T10:39:11.971Z</time></trkpt><trkpt lat="44.9236552" lon="7.2465824"><ele>545.0</ele><time>2026-04-05T10:39:12.971Z</time></trkpt><trkpt lat="44.9235064" lon="7.2465586"><ele>544.25</ele><time>2026-04-05T10:39:13.971Z</time></trkpt><trkpt lat="44.9233655" lon="7.246538"><ele>543.5</ele><time>2026-04-05T10:39:14.971Z</time></trkpt><trkpt lat="44.9232268" lon="7.2465183"><ele>542.75</ele><time>2026-04-05T10:39:15.971Z</time></trkpt><trkpt lat="44.9231" lon="7.2465043"><ele>542.0</ele><time>2026-04-05T10:39:16.971Z</time></trkpt><trkpt lat="44.9229784" lon="7.2464941"><ele>542.0</ele><time>2026-04-05T10:39:17.971Z</time></trkpt><trkpt lat="44.9228646" lon="7.2465117"><ele>542.0</ele><time>2026-04-05T10:39:18.971Z</time></trkpt><trkpt lat="44.9227464" lon="7.246569"><ele>542.0</ele><time>2026-04-05T10:39:19.971Z</time></trkpt><trkpt lat="44.9226184" lon="7.2466473"><ele>542.0</ele><time>2026-04-05T10:39:20.971Z</time></trkpt><trkpt lat="44.9224935" lon="7.2467339"><ele>538.5</ele><time>2026-04-05T10:39:21.971Z</time></trkpt><trkpt lat="44.9223815" lon="7.2468286"><ele>535.0</ele><time>2026-04-05T10:39:22.971Z</time></trkpt><trkpt lat="44.9222646" lon="7.2469164"><ele>531.5</ele><time>2026-04-05T10:39:23.971Z</time></trkpt><trkpt lat="44.9221587" lon="7.2470039"><ele>528.0</ele><time>2026-04-05T10:39:24.971Z</time></trkpt><trkpt lat="44.9220509" lon="7.2470939"><ele>528.0</ele><time>2026-04-05T10:39:25.971Z</time></trkpt><trkpt lat="44.921949" lon="7.2471888"><ele>528.0</ele><time>2026-04-05T10:39:26.971Z</time></trkpt><trkpt lat="44.9218525" lon="7.2472868"><ele>528.0</ele><time>2026-04-05T10:39:27.971Z</time></trkpt><trkpt lat="44.9217606" lon="7.2473999"><ele>528.0</ele><time>2026-04-05T10:39:28.971Z</time></trkpt><trkpt lat="44.9216798" lon="7.2475302"><ele>527.4</ele><time>2026-04-05T10:39:29.971Z</time></trkpt><trkpt lat="44.9216176" lon="7.2476596"><ele>526.8</ele><time>2026-04-05T10:39:30.971Z</time></trkpt><trkpt lat="44.9215659" lon="7.2477831"><ele>526.2</ele><time>2026-04-05T10:39:31.971Z</time></trkpt><trkpt lat="44.9215103" lon="7.2478932"><ele>525.6</ele><time>2026-04-05T10:39:32.971Z</time></trkpt><trkpt lat="44.9214428" lon="7.2479928"><ele>525.0</ele><time>2026-04-05T10:39:33.971Z</time></trkpt><trkpt lat="44.9213672" lon="7.2480882"><ele>527.6</ele><time>2026-04-05T10:39:34.971Z</time></trkpt><trkpt lat="44.9212877" lon="7.2481804"><ele>530.2</ele><time>2026-04-05T10:39:35.971Z</time></trkpt><trkpt lat="44.9212002" lon="7.2482686"><ele>532.8</ele><time>2026-04-05T10:39:36.971Z</time></trkpt><trkpt lat="44.9211127" lon="7.2483508"><ele>535.4</ele><time>2026-04-05T10:39:37.971Z</time></trkpt><trkpt lat="44.9210142" lon="7.2484367"><ele>538.0</ele><time>2026-04-05T10:39:38.971Z</time></trkpt><trkpt lat="44.9209134" lon="7.2485171"><ele>535.0</ele><time>2026-04-05T10:39:39.971Z</time></trkpt><trkpt lat="44.9208183" lon="7.2485915"><ele>532.0</ele><time>2026-04-05T10:39:40.971Z</time></trkpt><trkpt lat="44.9207234" lon="7.2486651"><ele>529.0</ele><time>2026-04-05T10:39:41.971Z</time></trkpt><trkpt lat="44.9206303" lon="7.2487337"><ele>526.0</ele><time>2026-04-05T10:39:42.971Z</time></trkpt><trkpt lat="44.9205442" lon="7.2487902"><ele>523.0</ele><time>2026-04-05T10:39:43.971Z</time></trkpt><trkpt lat="44.9204706" lon="7.2488393"><ele>523.0</ele><time>2026-04-05T10:39:44.971Z</time></trkpt><trkpt lat="44.9204067" lon="7.2488864"><ele>523.0</ele><time>2026-04-05T10:39:45.971Z</time></trkpt><trkpt lat="44.9202862" lon="7.2489486"><ele>523.0</ele><time>2026-04-05T10:39:47.971Z</time></trkpt><trkpt lat="44.9202148" lon="7.2489853"><ele>523.0</ele><time>2026-04-05T10:39:48.971Z</time></trkpt><trkpt lat="44.9201457" lon="7.2490298"><ele>523.0</ele><time>2026-04-05T10:39:49.971Z</time></trkpt><trkpt lat="44.9200812" lon="7.2490712"><ele>523.0</ele><time>2026-04-05T10:39:50.971Z</time></trkpt><trkpt lat="44.9200135" lon="7.2491235"><ele>522.9999999999999</ele><time>2026-04-05T10:39:51.971Z</time></trkpt><trkpt lat="44.9199401" lon="7.2491769"><ele>523.0</ele><time>2026-04-05T10:39:52.971Z</time></trkpt><trkpt lat="44.9198703" lon="7.2492286"><ele>523.0</ele><time>2026-04-05T10:39:53.971Z</time></trkpt><trkpt lat="44.9198144" lon="7.2492772"><ele>523.0</ele><time>2026-04-05T10:39:54.971Z</time></trkpt><trkpt lat="44.9197603" lon="7.249324"><ele>523.0</ele><time>2026-04-05T10:39:55.971Z</time></trkpt><trkpt lat="44.9196982" lon="7.2493582"><ele>522.9999999999999</ele><time>2026-04-05T10:39:56.971Z</time></trkpt><trkpt lat="44.9196449" lon="7.249411"><ele>523.0</ele><time>2026-04-05T10:39:57.971Z</time></trkpt><trkpt lat="44.9195765" lon="7.2494304"><ele>523.0</ele><time>2026-04-05T10:39:58.971Z</time></trkpt><trkpt lat="44.9194979" lon="7.2494196"><ele>523.0</ele><time>2026-04-05T10:39:59.971Z</time></trkpt><trkpt lat="44.9194044" lon="7.2494225"><ele>523.0</ele><time>2026-04-05T10:40:00.971Z</time></trkpt><trkpt lat="44.9193064" lon="7.2494369"><ele>523.0</ele><time>2026-04-05T10:40:01.971Z</time></trkpt><trkpt lat="44.9192083" lon="7.2494583"><ele>523.0</ele><time>2026-04-05T10:40:02.971Z</time></trkpt><trkpt lat="44.9191115" lon="7.2494839"><ele>521.1999999999999</ele><time>2026-04-05T10:40:03.971Z</time></trkpt><trkpt lat="44.9190195" lon="7.2495026"><ele>519.4</ele><time>2026-04-05T10:40:04.971Z</time></trkpt><trkpt lat="44.9189262" lon="7.2495279"><ele>517.5999999999999</ele><time>2026-04-05T10:40:05.971Z</time></trkpt><trkpt lat="44.918828" lon="7.2495419"><ele>515.8</ele><time>2026-04-05T10:40:06.971Z</time></trkpt><trkpt lat="44.9187332" lon="7.2495465"><ele>514.0</ele><time>2026-04-05T10:40:07.971Z</time></trkpt><trkpt lat="44.918638" lon="7.2495477"><ele>514.0</ele><time>2026-04-05T10:40:08.971Z</time></trkpt><trkpt lat="44.9185453" lon="7.2495516"><ele>514.0</ele><time>2026-04-05T10:40:09.971Z</time></trkpt><trkpt lat="44.9184623" lon="7.249558"><ele>514.0</ele><time>2026-04-05T10:40:10.971Z</time></trkpt><trkpt lat="44.9183783" lon="7.2495501"><ele>514.0</ele><time>2026-04-05T10:40:11.971Z</time></trkpt><trkpt lat="44.9182949" lon="7.249539"><ele>514.0</ele><time>2026-04-05T10:40:12.971Z</time></trkpt><trkpt lat="44.9182105" lon="7.2494908"><ele>514.0</ele><time>2026-04-05T10:40:13.971Z</time></trkpt><trkpt lat="44.9181245" lon="7.2494287"><ele>512.6</ele><time>2026-04-05T10:40:14.971Z</time></trkpt><trkpt lat="44.9180391" lon="7.2493635"><ele>511.2</ele><time>2026-04-05T10:40:15.971Z</time></trkpt><trkpt lat="44.9179548" lon="7.2492943"><ele>509.80000000000007</ele><time>2026-04-05T10:40:16.971Z</time></trkpt><trkpt lat="44.9178795" lon="7.2492285"><ele>508.40000000000003</ele><time>2026-04-05T10:40:17.971Z</time></trkpt><trkpt lat="44.9178059" lon="7.2491654"><ele>507.0</ele><time>2026-04-05T10:40:18.971Z</time></trkpt><trkpt lat="44.9177376" lon="7.2491041"><ele>507.0</ele><time>2026-04-05T10:40:19.971Z</time></trkpt><trkpt lat="44.9176641" lon="7.2490487"><ele>507.0</ele><time>2026-04-05T10:40:20.971Z</time></trkpt><trkpt lat="44.917599" lon="7.2489919"><ele>507.0</ele><time>2026-04-05T10:40:21.971Z</time></trkpt><trkpt lat="44.9175355" lon="7.2489431"><ele>507.0</ele><time>2026-04-05T10:40:22.971Z</time></trkpt><trkpt lat="44.9174763" lon="7.2488992"><ele>507.0</ele><time>2026-04-05T10:40:23.971Z</time></trkpt><trkpt lat="44.917389" lon="7.2487863"><ele>507.0</ele><time>2026-04-05T10:40:25.971Z</time></trkpt><trkpt lat="44.9173797" lon="7.248604"><ele>506.1666666666667</ele><time>2026-04-05T10:40:27.971Z</time></trkpt><trkpt lat="44.9173827" lon="7.2484475"><ele>505.33333333333337</ele><time>2026-04-05T10:40:29.971Z</time></trkpt><trkpt lat="44.9173868" lon="7.2483026"><ele>504.5</ele><time>2026-04-05T10:40:31.971Z</time></trkpt><trkpt lat="44.9173946" lon="7.248167"><ele>503.6666666666667</ele><time>2026-04-05T10:40:33.971Z</time></trkpt><trkpt lat="44.9173843" lon="7.248073"><ele>502.83333333333337</ele><time>2026-04-05T10:40:49.971Z</time></trkpt><trkpt lat="44.9173557" lon="7.2479885"><ele>502.0</ele><time>2026-04-05T10:40:51.971Z</time></trkpt><trkpt lat="44.917256" lon="7.2479486"><ele>501.20000000000005</ele><time>2026-04-05T10:40:53.971Z</time></trkpt><trkpt lat="44.9171825" lon="7.2479328"><ele>500.40000000000003</ele><time>2026-04-05T10:40:54.971Z</time></trkpt><trkpt lat="44.917095" lon="7.2479141"><ele>499.59999999999997</ele><time>2026-04-05T10:40:55.971Z</time></trkpt><trkpt lat="44.9169916" lon="7.2478974"><ele>498.79999999999995</ele><time>2026-04-05T10:40:56.971Z</time></trkpt><trkpt lat="44.9168891" lon="7.2478726"><ele>498.0</ele><time>2026-04-05T10:40:57.971Z</time></trkpt><trkpt lat="44.9167532" lon="7.2478413"><ele>497.5</ele><time>2026-04-05T10:40:58.971Z</time></trkpt><trkpt lat="44.9165965" lon="7.2478074"><ele>497.0</ele><time>2026-04-05T10:40:59.971Z</time></trkpt><trkpt lat="44.9164568" lon="7.247777"><ele>496.5</ele><time>2026-04-05T10:41:00.971Z</time></trkpt><trkpt lat="44.9163252" lon="7.2477454"><ele>496.0</ele><time>2026-04-05T10:41:01.971Z</time></trkpt><trkpt lat="44.91621" lon="7.2477248"><ele>496.00000000000006</ele><time>2026-04-05T10:41:02.971Z</time></trkpt><trkpt lat="44.9161085" lon="7.2477197"><ele>496.0</ele><time>2026-04-05T10:41:03.971Z</time></trkpt><trkpt lat="44.9160219" lon="7.2477164"><ele>496.0</ele><time>2026-04-05T10:41:04.971Z</time></trkpt><trkpt lat="44.9159482" lon="7.2476933"><ele>496.0</ele><time>2026-04-05T10:41:05.971Z</time></trkpt><trkpt lat="44.9158839" lon="7.2476305"><ele>496.00000000000006</ele><time>2026-04-05T10:41:06.971Z</time></trkpt><trkpt lat="44.9158371" lon="7.2475559"><ele>496.0</ele><time>2026-04-05T10:41:07.971Z</time></trkpt><trkpt lat="44.9158046" lon="7.2474633"><ele>495.6</ele><time>2026-04-05T10:41:08.971Z</time></trkpt><trkpt lat="44.9157758" lon="7.2473543"><ele>495.20000000000005</ele><time>2026-04-05T10:41:09.972Z</time></trkpt><trkpt lat="44.915751" lon="7.2472322"><ele>494.79999999999995</ele><time>2026-04-05T10:41:10.971Z</time></trkpt><trkpt lat="44.9157276" lon="7.2471039"><ele>494.4</ele><time>2026-04-05T10:41:11.971Z</time></trkpt><trkpt lat="44.9157061" lon="7.2469664"><ele>494.0</ele><time>2026-04-05T10:41:12.971Z</time></trkpt><trkpt lat="44.9156796" lon="7.2468262"><ele>493.0</ele><time>2026-04-05T10:41:13.971Z</time></trkpt><trkpt lat="44.9156543" lon="7.246673"><ele>492.0</ele><time>2026-04-05T10:41:14.971Z</time></trkpt><trkpt lat="44.9156233" lon="7.2465088"><ele>491.0</ele><time>2026-04-05T10:41:15.971Z</time></trkpt><trkpt lat="44.9155963" lon="7.2463435"><ele>490.0</ele><time>2026-04-05T10:41:16.971Z</time></trkpt><trkpt lat="44.9155742" lon="7.2461908"><ele>490.0</ele><time>2026-04-05T10:41:17.971Z</time></trkpt><trkpt lat="44.9155545" lon="7.2460373"><ele>490.0</ele><time>2026-04-05T10:41:18.971Z</time></trkpt><trkpt lat="44.9155369" lon="7.245879"><ele>490.0</ele><time>2026-04-05T10:41:19.971Z</time></trkpt><trkpt lat="44.915522" lon="7.2457248"><ele>490.0</ele><time>2026-04-05T10:41:20.971Z</time></trkpt><trkpt lat="44.9155051" lon="7.2455771"><ele>490.0</ele><time>2026-04-05T10:41:21.971Z</time></trkpt><trkpt lat="44.9154713" lon="7.2454495"><ele>490.4</ele><time>2026-04-05T10:41:22.971Z</time></trkpt><trkpt lat="44.9154211" lon="7.2453306"><ele>490.8</ele><time>2026-04-05T10:41:23.971Z</time></trkpt><trkpt lat="44.9153514" lon="7.2452203"><ele>491.20000000000005</ele><time>2026-04-05T10:41:24.971Z</time></trkpt><trkpt lat="44.9152791" lon="7.2451397"><ele>491.6</ele><time>2026-04-05T10:41:25.971Z</time></trkpt><trkpt lat="44.9151983" lon="7.245081"><ele>492.0</ele><time>2026-04-05T10:41:26.971Z</time></trkpt><trkpt lat="44.9151115" lon="7.2450521"><ele>491.20000000000005</ele><time>2026-04-05T10:41:27.971Z</time></trkpt><trkpt lat="44.9150173" lon="7.2450525"><ele>490.40000000000003</ele><time>2026-04-05T10:41:28.971Z</time></trkpt><trkpt lat="44.9149066" lon="7.2450474"><ele>489.59999999999997</ele><time>2026-04-05T10:41:29.971Z</time></trkpt><trkpt lat="44.9148077" lon="7.2450279"><ele>488.79999999999995</ele><time>2026-04-05T10:41:30.971Z</time></trkpt><trkpt lat="44.9147183" lon="7.2450081"><ele>488.0</ele><time>2026-04-05T10:41:31.971Z</time></trkpt><trkpt lat="44.9146442" lon="7.2449618"><ele>487.99999999999994</ele><time>2026-04-05T10:41:32.972Z</time></trkpt><trkpt lat="44.914587" lon="7.2448819"><ele>488.0</ele><time>2026-04-05T10:41:33.971Z</time></trkpt><trkpt lat="44.9145463" lon="7.2447731"><ele>488.0</ele><time>2026-04-05T10:41:34.971Z</time></trkpt><trkpt lat="44.9145331" lon="7.2446743"><ele>488.0</ele><time>2026-04-05T10:41:35.971Z</time></trkpt><trkpt lat="44.9145393" lon="7.2445663"><ele>487.99999999999994</ele><time>2026-04-05T10:41:36.971Z</time></trkpt><trkpt lat="44.9145615" lon="7.2444279"><ele>488.0</ele><time>2026-04-05T10:41:37.971Z</time></trkpt><trkpt lat="44.9146074" lon="7.2442716"><ele>487.5</ele><time>2026-04-05T10:41:38.971Z</time></trkpt><trkpt lat="44.9146649" lon="7.2440934"><ele>487.0</ele><time>2026-04-05T10:41:39.971Z</time></trkpt><trkpt lat="44.9147203" lon="7.2439296"><ele>486.5</ele><time>2026-04-05T10:41:40.971Z</time></trkpt><trkpt lat="44.9147732" lon="7.2437514"><ele>486.0</ele><time>2026-04-05T10:41:41.971Z</time></trkpt><trkpt lat="44.9148311" lon="7.2435642"><ele>485.75</ele><time>2026-04-05T10:41:42.971Z</time></trkpt><trkpt lat="44.914889" lon="7.2433831"><ele>485.5</ele><time>2026-04-05T10:41:43.971Z</time></trkpt><trkpt lat="44.9149441" lon="7.2432146"><ele>485.25</ele><time>2026-04-05T10:41:44.971Z</time></trkpt><trkpt lat="44.9150106" lon="7.2430384"><ele>485.0</ele><time>2026-04-05T10:41:45.971Z</time></trkpt><trkpt lat="44.9150866" lon="7.2428752"><ele>485.0</ele><time>2026-04-05T10:41:46.971Z</time></trkpt><trkpt lat="44.9151644" lon="7.2427395"><ele>485.0</ele><time>2026-04-05T10:41:47.971Z</time></trkpt><trkpt lat="44.9152299" lon="7.2426233"><ele>485.0</ele><time>2026-04-05T10:41:48.971Z</time></trkpt><trkpt lat="44.9152886" lon="7.2425287"><ele>485.0</ele><time>2026-04-05T10:41:49.971Z</time></trkpt><trkpt lat="44.91533" lon="7.2424279"><ele>485.0</ele><time>2026-04-05T10:41:50.971Z</time></trkpt><trkpt lat="44.915348" lon="7.2423255"><ele>489.99999999999994</ele><time>2026-04-05T10:41:51.971Z</time></trkpt><trkpt lat="44.9153443" lon="7.2422238"><ele>495.0</ele><time>2026-04-05T10:41:52.972Z</time></trkpt><trkpt lat="44.9153157" lon="7.2421332"><ele>500.0</ele><time>2026-04-05T10:41:53.971Z</time></trkpt><trkpt lat="44.9152551" lon="7.2420698"><ele>505.0</ele><time>2026-04-05T10:41:54.971Z</time></trkpt><trkpt lat="44.9151717" lon="7.2420462"><ele>509.99999999999994</ele><time>2026-04-05T10:41:55.971Z</time></trkpt><trkpt lat="44.9150643" lon="7.2420477"><ele>515.0</ele><time>2026-04-05T10:41:56.971Z</time></trkpt><trkpt lat="44.9149366" lon="7.2420613"><ele>515.5</ele><time>2026-04-05T10:41:57.971Z</time></trkpt><trkpt lat="44.9148043" lon="7.2420815"><ele>516.0</ele><time>2026-04-05T10:41:58.971Z</time></trkpt><trkpt lat="44.9146603" lon="7.2421131"><ele>516.5</ele><time>2026-04-05T10:41:59.971Z</time></trkpt><trkpt lat="44.9145285" lon="7.2421439"><ele>517.0</ele><time>2026-04-05T10:42:00.971Z</time></trkpt><trkpt lat="44.9144042" lon="7.2421765"><ele>517.0</ele><time>2026-04-05T10:42:01.971Z</time></trkpt><trkpt lat="44.914284" lon="7.242221"><ele>517.0</ele><time>2026-04-05T10:42:02.971Z</time></trkpt><trkpt lat="44.914174" lon="7.242288"><ele>517.0</ele><time>2026-04-05T10:42:03.971Z</time></trkpt><trkpt lat="44.9140725" lon="7.2423683"><ele>517.0</ele><time>2026-04-05T10:42:04.971Z</time></trkpt><trkpt lat="44.9139779" lon="7.2424756"><ele>512.5</ele><time>2026-04-05T10:42:05.971Z</time></trkpt><trkpt lat="44.9138882" lon="7.2425881"><ele>508.0</ele><time>2026-04-05T10:42:06.971Z</time></trkpt><trkpt lat="44.9138027" lon="7.2427066"><ele>503.5</ele><time>2026-04-05T10:42:07.971Z</time></trkpt><trkpt lat="44.9137195" lon="7.24283"><ele>499.0</ele><time>2026-04-05T10:42:08.971Z</time></trkpt><trkpt lat="44.9136499" lon="7.2429411"><ele>499.0</ele><time>2026-04-05T10:42:09.971Z</time></trkpt><trkpt lat="44.9135776" lon="7.2430456"><ele>499.0</ele><time>2026-04-05T10:42:10.971Z</time></trkpt><trkpt lat="44.9134899" lon="7.2431187"><ele>499.0</ele><time>2026-04-05T10:42:11.971Z</time></trkpt><trkpt lat="44.9133865" lon="7.2431606"><ele>499.0</ele><time>2026-04-05T10:42:12.971Z</time></trkpt><trkpt lat="44.9132779" lon="7.2431621"><ele>499.0</ele><time>2026-04-05T10:42:13.971Z</time></trkpt><trkpt lat="44.9131673" lon="7.2431377"><ele>503.0</ele><time>2026-04-05T10:42:14.971Z</time></trkpt><trkpt lat="44.9130621" lon="7.2431158"><ele>507.0</ele><time>2026-04-05T10:42:15.971Z</time></trkpt><trkpt lat="44.9129557" lon="7.243104"><ele>511.0</ele><time>2026-04-05T10:42:16.971Z</time></trkpt><trkpt lat="44.9128461" lon="7.2430945"><ele>515.0</ele><time>2026-04-05T10:42:17.971Z</time></trkpt><trkpt lat="44.9127289" lon="7.2430945"><ele>519.0</ele><time>2026-04-05T10:42:18.971Z</time></trkpt><trkpt lat="44.9126016" lon="7.2430741"><ele>519.5</ele><time>2026-04-05T10:42:19.971Z</time></trkpt><trkpt lat="44.9124671" lon="7.2430377"><ele>520.0</ele><time>2026-04-05T10:42:20.971Z</time></trkpt><trkpt lat="44.9123278" lon="7.2429878"><ele>520.5</ele><time>2026-04-05T10:42:21.971Z</time></trkpt><trkpt lat="44.912215" lon="7.2429426"><ele>521.0</ele><time>2026-04-05T10:42:22.971Z</time></trkpt><trkpt lat="44.9121214" lon="7.2429062"><ele>521.0</ele><time>2026-04-05T10:42:23.971Z</time></trkpt><trkpt lat="44.9120451" lon="7.2428655"><ele>521.0</ele><time>2026-04-05T10:42:24.971Z</time></trkpt><trkpt lat="44.9119395" lon="7.2428155"><ele>521.0</ele><time>2026-04-05T10:42:26.971Z</time></trkpt><trkpt lat="44.9118786" lon="7.2427695"><ele>521.0</ele><time>2026-04-05T10:42:28.971Z</time></trkpt><trkpt lat="44.9118136" lon="7.242744"><ele>521.0</ele><time>2026-04-05T10:43:55.971Z</time></trkpt><trkpt lat="44.9117147" lon="7.2427286"><ele>521.0</ele><time>2026-04-05T10:43:57.971Z</time></trkpt><trkpt lat="44.9116527" lon="7.2427089"><ele>519.1666666666666</ele><time>2026-04-05T10:43:58.971Z</time></trkpt><trkpt lat="44.9115831" lon="7.2426788"><ele>517.3333333333333</ele><time>2026-04-05T10:43:59.971Z</time></trkpt><trkpt lat="44.9114996" lon="7.2426374"><ele>515.5</ele><time>2026-04-05T10:44:00.971Z</time></trkpt><trkpt lat="44.9114176" lon="7.2425899"><ele>513.6666666666666</ele><time>2026-04-05T10:44:01.971Z</time></trkpt><trkpt lat="44.9113359" lon="7.2425397"><ele>511.8333333333333</ele><time>2026-04-05T10:44:02.971Z</time></trkpt><trkpt lat="44.9112431" lon="7.2425056"><ele>510.0</ele><time>2026-04-05T10:44:03.971Z</time></trkpt><trkpt lat="44.9111482" lon="7.2424871"><ele>510.0</ele><time>2026-04-05T10:44:04.971Z</time></trkpt><trkpt lat="44.9110388" lon="7.2424866"><ele>510.0</ele><time>2026-04-05T10:44:05.971Z</time></trkpt><trkpt lat="44.9109309" lon="7.2425042"><ele>510.0</ele><time>2026-04-05T10:44:06.971Z</time></trkpt><trkpt lat="44.9108275" lon="7.2425335"><ele>510.0</ele><time>2026-04-05T10:44:07.971Z</time></trkpt><trkpt lat="44.910727" lon="7.2425677"><ele>510.0</ele><time>2026-04-05T10:44:08.971Z</time></trkpt><trkpt lat="44.9106265" lon="7.2426095"><ele>508.6</ele><time>2026-04-05T10:44:09.971Z</time></trkpt><trkpt lat="44.9105254" lon="7.2426528"><ele>507.2</ele><time>2026-04-05T10:44:10.972Z</time></trkpt><trkpt lat="44.9104271" lon="7.2426942"><ele>505.79999999999995</ele><time>2026-04-05T10:44:11.971Z</time></trkpt><trkpt lat="44.9103305" lon="7.2427261"><ele>504.4</ele><time>2026-04-05T10:44:12.971Z</time></trkpt><trkpt lat="44.9102307" lon="7.242739"><ele>503.0</ele><time>2026-04-05T10:44:13.971Z</time></trkpt><trkpt lat="44.9101301" lon="7.2427306"><ele>502.79999999999995</ele><time>2026-04-05T10:44:14.971Z</time></trkpt><trkpt lat="44.9100231" lon="7.2427058"><ele>502.59999999999997</ele><time>2026-04-05T10:44:15.971Z</time></trkpt><trkpt lat="44.9099138" lon="7.2426747"><ele>502.40000000000003</ele><time>2026-04-05T10:44:16.971Z</time></trkpt><trkpt lat="44.9098037" lon="7.2426311"><ele>502.20000000000005</ele><time>2026-04-05T10:44:17.971Z</time></trkpt><trkpt lat="44.9097016" lon="7.2425733"><ele>502.0</ele><time>2026-04-05T10:44:18.971Z</time></trkpt><trkpt lat="44.9096075" lon="7.2425155"><ele>502.0</ele><time>2026-04-05T10:44:19.971Z</time></trkpt><trkpt lat="44.9095195" lon="7.2424565"><ele>502.00000000000006</ele><time>2026-04-05T10:44:20.971Z</time></trkpt><trkpt lat="44.9094361" lon="7.242383"><ele>502.00000000000006</ele><time>2026-04-05T10:44:21.971Z</time></trkpt><trkpt lat="44.9093565" lon="7.2423009"><ele>502.0</ele><time>2026-04-05T10:44:22.971Z</time></trkpt><trkpt lat="44.9092781" lon="7.2422113"><ele>502.0</ele><time>2026-04-05T10:44:23.971Z</time></trkpt><trkpt lat="44.9091874" lon="7.242122"><ele>504.75</ele><time>2026-04-05T10:44:24.971Z</time></trkpt><trkpt lat="44.9090891" lon="7.2420359"><ele>507.5</ele><time>2026-04-05T10:44:25.971Z</time></trkpt><trkpt lat="44.9089892" lon="7.2419471"><ele>510.25</ele><time>2026-04-05T10:44:26.971Z</time></trkpt><trkpt lat="44.9088823" lon="7.2418635"><ele>513.0</ele><time>2026-04-05T10:44:27.971Z</time></trkpt><trkpt lat="44.9087777" lon="7.2417737"><ele>513.0</ele><time>2026-04-05T10:44:28.971Z</time></trkpt><trkpt lat="44.908678" lon="7.241687"><ele>513.0</ele><time>2026-04-05T10:44:29.971Z</time></trkpt><trkpt lat="44.908582" lon="7.2415963"><ele>513.0</ele><time>2026-04-05T10:44:30.971Z</time></trkpt><trkpt lat="44.908498" lon="7.2415155"><ele>513.0</ele><time>2026-04-05T10:44:31.971Z</time></trkpt><trkpt lat="44.9084227" lon="7.2414384"><ele>513.0</ele><time>2026-04-05T10:44:32.971Z</time></trkpt><trkpt lat="44.9083636" lon="7.2413499"><ele>512.6</ele><time>2026-04-05T10:44:33.971Z</time></trkpt><trkpt lat="44.9083162" lon="7.241241"><ele>512.1999999999999</ele><time>2026-04-05T10:44:34.971Z</time></trkpt><trkpt lat="44.9082825" lon="7.2411161"><ele>511.8</ele><time>2026-04-05T10:44:35.971Z</time></trkpt><trkpt lat="44.9082449" lon="7.2409876"><ele>511.4</ele><time>2026-04-05T10:44:36.971Z</time></trkpt><trkpt lat="44.9082121" lon="7.2408717"><ele>511.0</ele><time>2026-04-05T10:44:37.971Z</time></trkpt><trkpt lat="44.9081819" lon="7.2407678"><ele>511.00000000000006</ele><time>2026-04-05T10:44:38.971Z</time></trkpt><trkpt lat="44.9081473" lon="7.2406562"><ele>511.0</ele><time>2026-04-05T10:44:39.971Z</time></trkpt><trkpt lat="44.9081072" lon="7.240548"><ele>511.0</ele><time>2026-04-05T10:44:40.971Z</time></trkpt><trkpt lat="44.9080638" lon="7.2404515"><ele>511.0</ele><time>2026-04-05T10:44:41.971Z</time></trkpt><trkpt lat="44.9079936" lon="7.2403661"><ele>511.00000000000006</ele><time>2026-04-05T10:44:42.971Z</time></trkpt><trkpt lat="44.9079107" lon="7.2403097"><ele>511.0</ele><time>2026-04-05T10:44:43.971Z</time></trkpt><trkpt lat="44.9078193" lon="7.2402755"><ele>510.8</ele><time>2026-04-05T10:44:44.971Z</time></trkpt><trkpt lat="44.9077219" lon="7.2402541"><ele>510.6</ele><time>2026-04-05T10:44:45.971Z</time></trkpt><trkpt lat="44.9076214" lon="7.2402304"><ele>510.4</ele><time>2026-04-05T10:44:46.971Z</time></trkpt><trkpt lat="44.9075179" lon="7.2402131"><ele>510.2</ele><time>2026-04-05T10:44:47.971Z</time></trkpt><trkpt lat="44.9074116" lon="7.2402002"><ele>510.0</ele><time>2026-04-05T10:44:48.971Z</time></trkpt><trkpt lat="44.9073022" lon="7.2401905"><ele>510.0</ele><time>2026-04-05T10:44:49.971Z</time></trkpt><trkpt lat="44.9072028" lon="7.2401825"><ele>510.0</ele><time>2026-04-05T10:44:50.971Z</time></trkpt><trkpt lat="44.9071047" lon="7.2401803"><ele>510.0</ele><time>2026-04-05T10:44:51.971Z</time></trkpt><trkpt lat="44.9070056" lon="7.2401708"><ele>510.0</ele><time>2026-04-05T10:44:52.971Z</time></trkpt><trkpt lat="44.9069017" lon="7.2401501"><ele>510.0</ele><time>2026-04-05T10:44:53.971Z</time></trkpt><trkpt lat="44.9067935" lon="7.2401172"><ele>510.0</ele><time>2026-04-05T10:44:54.971Z</time></trkpt><trkpt lat="44.906685" lon="7.2400762"><ele>510.0</ele><time>2026-04-05T10:44:55.971Z</time></trkpt><trkpt lat="44.9065718" lon="7.2400299"><ele>510.0</ele><time>2026-04-05T10:44:56.971Z</time></trkpt><trkpt lat="44.9064655" lon="7.2399829"><ele>510.0</ele><time>2026-04-05T10:44:57.971Z</time></trkpt><trkpt lat="44.9063625" lon="7.23993"><ele>510.0</ele><time>2026-04-05T10:44:58.971Z</time></trkpt><trkpt lat="44.9062633" lon="7.2398799"><ele>510.0</ele><time>2026-04-05T10:44:59.971Z</time></trkpt><trkpt lat="44.9061582" lon="7.2398234"><ele>510.0</ele><time>2026-04-05T10:45:00.971Z</time></trkpt><trkpt lat="44.9060599" lon="7.2397713"><ele>510.0</ele><time>2026-04-05T10:45:01.971Z</time></trkpt><trkpt lat="44.9059623" lon="7.2397231"><ele>510.0</ele><time>2026-04-05T10:45:02.971Z</time></trkpt><trkpt lat="44.9058623" lon="7.2396771"><ele>511.2</ele><time>2026-04-05T10:45:03.971Z</time></trkpt><trkpt lat="44.9057644" lon="7.2396269"><ele>512.4</ele><time>2026-04-05T10:45:04.971Z</time></trkpt><trkpt lat="44.9056664" lon="7.2395762"><ele>513.6</ele><time>2026-04-05T10:45:05.971Z</time></trkpt><trkpt lat="44.9055687" lon="7.2395288"><ele>514.8</ele><time>2026-04-05T10:45:06.971Z</time></trkpt><trkpt lat="44.9054727" lon="7.2394707"><ele>516.0</ele><time>2026-04-05T10:45:07.971Z</time></trkpt><trkpt lat="44.9053817" lon="7.2394026"><ele>516.0</ele><time>2026-04-05T10:45:08.971Z</time></trkpt><trkpt lat="44.9052861" lon="7.2393384"><ele>516.0</ele><time>2026-04-05T10:45:09.971Z</time></trkpt><trkpt lat="44.9052001" lon="7.2392715"><ele>516.0</ele><time>2026-04-05T10:45:10.971Z</time></trkpt><trkpt lat="44.9051243" lon="7.2392103"><ele>516.0</ele><time>2026-04-05T10:45:11.971Z</time></trkpt><trkpt lat="44.9050542" lon="7.2391585"><ele>516.0</ele><time>2026-04-05T10:45:12.971Z</time></trkpt><trkpt lat="44.9049935" lon="7.2391206"><ele>516.0</ele><time>2026-04-05T10:45:13.971Z</time></trkpt><trkpt lat="44.9048865" lon="7.2390595"><ele>515.3333333333334</ele><time>2026-04-05T10:45:15.971Z</time></trkpt><trkpt lat="44.9048241" lon="7.2390206"><ele>514.6666666666666</ele><time>2026-04-05T10:45:16.971Z</time></trkpt><trkpt lat="44.9047514" lon="7.2389594"><ele>514.0</ele><time>2026-04-05T10:45:17.971Z</time></trkpt><trkpt lat="44.9046652" lon="7.2389202"><ele>513.3333333333333</ele><time>2026-04-05T10:45:18.971Z</time></trkpt><trkpt lat="44.904565" lon="7.238899"><ele>512.6666666666666</ele><time>2026-04-05T10:45:19.971Z</time></trkpt><trkpt lat="44.904465" lon="7.2388887"><ele>512.0</ele><time>2026-04-05T10:45:20.971Z</time></trkpt><trkpt lat="44.9043603" lon="7.2388815"><ele>513.8000000000001</ele><time>2026-04-05T10:45:21.971Z</time></trkpt><trkpt lat="44.9042554" lon="7.2388869"><ele>515.6</ele><time>2026-04-05T10:45:22.971Z</time></trkpt><trkpt lat="44.9041488" lon="7.2388996"><ele>517.4000000000001</ele><time>2026-04-05T10:45:23.971Z</time></trkpt><trkpt lat="44.9040428" lon="7.2389126"><ele>519.2</ele><time>2026-04-05T10:45:24.971Z</time></trkpt><trkpt lat="44.9039316" lon="7.2389225"><ele>521.0</ele><time>2026-04-05T10:45:25.971Z</time></trkpt><trkpt lat="44.9038152" lon="7.2389358"><ele>521.0</ele><time>2026-04-05T10:45:26.971Z</time></trkpt><trkpt lat="44.903692" lon="7.2389421"><ele>521.0</ele><time>2026-04-05T10:45:27.971Z</time></trkpt><trkpt lat="44.9035611" lon="7.2389573"><ele>521.0</ele><time>2026-04-05T10:45:28.971Z</time></trkpt><trkpt lat="44.9034413" lon="7.2389712"><ele>521.0</ele><time>2026-04-05T10:45:29.971Z</time></trkpt><trkpt lat="44.9033282" lon="7.2389853"><ele>516.5</ele><time>2026-04-05T10:45:30.971Z</time></trkpt><trkpt lat="44.9032151" lon="7.2390046"><ele>512.0</ele><time>2026-04-05T10:45:31.971Z</time></trkpt><trkpt lat="44.9031078" lon="7.2390284"><ele>507.5</ele><time>2026-04-05T10:45:32.971Z</time></trkpt><trkpt lat="44.9029929" lon="7.2390416"><ele>503.0</ele><time>2026-04-05T10:45:33.971Z</time></trkpt><trkpt lat="44.902874" lon="7.2390466"><ele>503.0</ele><time>2026-04-05T10:45:34.971Z</time></trkpt><trkpt lat="44.9027466" lon="7.2390385"><ele>503.0</ele><time>2026-04-05T10:45:35.971Z</time></trkpt><trkpt lat="44.9026176" lon="7.2390147"><ele>503.0</ele><time>2026-04-05T10:45:36.971Z</time></trkpt><trkpt lat="44.9024955" lon="7.2389816"><ele>503.0</ele><time>2026-04-05T10:45:37.971Z</time></trkpt><trkpt lat="44.9023872" lon="7.2389459"><ele>505.4</ele><time>2026-04-05T10:45:38.971Z</time></trkpt><trkpt lat="44.9022813" lon="7.2388997"><ele>507.79999999999995</ele><time>2026-04-05T10:45:39.971Z</time></trkpt><trkpt lat="44.9021692" lon="7.2388552"><ele>510.2</ele><time>2026-04-05T10:45:40.971Z</time></trkpt><trkpt lat="44.9020531" lon="7.2388288"><ele>512.6</ele><time>2026-04-05T10:45:41.971Z</time></trkpt><trkpt lat="44.9019534" lon="7.2388115"><ele>515.0</ele><time>2026-04-05T10:45:42.971Z</time></trkpt><trkpt lat="44.9018552" lon="7.2388067"><ele>515.25</ele><time>2026-04-05T10:45:43.971Z</time></trkpt><trkpt lat="44.9017437" lon="7.2388176"><ele>515.5</ele><time>2026-04-05T10:45:44.971Z</time></trkpt><trkpt lat="44.9016143" lon="7.2388489"><ele>515.75</ele><time>2026-04-05T10:45:45.971Z</time></trkpt><trkpt lat="44.901488" lon="7.2388791"><ele>516.0</ele><time>2026-04-05T10:45:46.971Z</time></trkpt><trkpt lat="44.9013638" lon="7.2389101"><ele>516.0</ele><time>2026-04-05T10:45:47.971Z</time></trkpt><trkpt lat="44.9012483" lon="7.2389472"><ele>516.0</ele><time>2026-04-05T10:45:48.971Z</time></trkpt><trkpt lat="44.9011335" lon="7.2389794"><ele>516.0</ele><time>2026-04-05T10:45:49.971Z</time></trkpt><trkpt lat="44.90103" lon="7.2390176"><ele>516.0</ele><time>2026-04-05T10:45:50.971Z</time></trkpt><trkpt lat="44.9009235" lon="7.2390426"><ele>512.4</ele><time>2026-04-05T10:45:51.971Z</time></trkpt><trkpt lat="44.9008153" lon="7.2390663"><ele>508.8</ele><time>2026-04-05T10:45:52.971Z</time></trkpt><trkpt lat="44.9007111" lon="7.2390927"><ele>505.19999999999993</ele><time>2026-04-05T10:45:53.971Z</time></trkpt><trkpt lat="44.9006127" lon="7.2391096"><ele>501.59999999999997</ele><time>2026-04-05T10:45:54.971Z</time></trkpt><trkpt lat="44.9005151" lon="7.2391324"><ele>498.0</ele><time>2026-04-05T10:45:55.971Z</time></trkpt><trkpt lat="44.9004208" lon="7.2391477"><ele>498.0</ele><time>2026-04-05T10:45:56.971Z</time></trkpt><trkpt lat="44.9003327" lon="7.2391585"><ele>498.0</ele><time>2026-04-05T10:45:57.971Z</time></trkpt><trkpt lat="44.900247" lon="7.2391705"><ele>498.0</ele><time>2026-04-05T10:45:58.971Z</time></trkpt><trkpt lat="44.9001691" lon="7.2391748"><ele>498.0</ele><time>2026-04-05T10:45:59.971Z</time></trkpt><trkpt lat="44.9000864" lon="7.2392029"><ele>498.0</ele><time>2026-04-05T10:46:00.972Z</time></trkpt><trkpt lat="44.9000215" lon="7.2392146"><ele>498.0</ele><time>2026-04-05T10:46:01.971Z</time></trkpt><trkpt lat="44.8999453" lon="7.2392234"><ele>497.1666666666667</ele><time>2026-04-05T10:46:02.971Z</time></trkpt><trkpt lat="44.8998822" lon="7.2392611"><ele>496.33333333333337</ele><time>2026-04-05T10:46:03.971Z</time></trkpt><trkpt lat="44.8998119" lon="7.2392769"><ele>495.5</ele><time>2026-04-05T10:46:04.971Z</time></trkpt><trkpt lat="44.8997385" lon="7.2392814"><ele>494.6666666666667</ele><time>2026-04-05T10:46:05.971Z</time></trkpt><trkpt lat="44.8996585" lon="7.2392604"><ele>493.83333333333337</ele><time>2026-04-05T10:46:06.971Z</time></trkpt><trkpt lat="44.8995741" lon="7.2392381"><ele>493.0</ele><time>2026-04-05T10:46:07.971Z</time></trkpt><trkpt lat="44.8994875" lon="7.239222"><ele>493.00000000000006</ele><time>2026-04-05T10:46:08.971Z</time></trkpt><trkpt lat="44.8994082" lon="7.2392248"><ele>493.0</ele><time>2026-04-05T10:46:09.971Z</time></trkpt><trkpt lat="44.8993414" lon="7.2392219"><ele>493.0</ele><time>2026-04-05T10:46:10.971Z</time></trkpt><trkpt lat="44.8992676" lon="7.2392447"><ele>493.0</ele><time>2026-04-05T10:46:11.971Z</time></trkpt><trkpt lat="44.8991827" lon="7.239277"><ele>493.00000000000006</ele><time>2026-04-05T10:46:12.971Z</time></trkpt><trkpt lat="44.8990924" lon="7.2393143"><ele>493.0</ele><time>2026-04-05T10:46:13.971Z</time></trkpt><trkpt lat="44.8989958" lon="7.2393558"><ele>492.59999999999997</ele><time>2026-04-05T10:46:14.971Z</time></trkpt><trkpt lat="44.8989074" lon="7.2393983"><ele>492.19999999999993</ele><time>2026-04-05T10:46:15.971Z</time></trkpt><trkpt lat="44.8988236" lon="7.239451"><ele>491.8</ele><time>2026-04-05T10:46:16.971Z</time></trkpt><trkpt lat="44.8987321" lon="7.2394914"><ele>491.4</ele><time>2026-04-05T10:46:17.971Z</time></trkpt><trkpt lat="44.8986445" lon="7.239529"><ele>491.0</ele><time>2026-04-05T10:46:18.971Z</time></trkpt><trkpt lat="44.8985679" lon="7.2395563"><ele>490.99999999999994</ele><time>2026-04-05T10:46:19.971Z</time></trkpt><trkpt lat="44.8984938" lon="7.2395837"><ele>491.0</ele><time>2026-04-05T10:46:20.971Z</time></trkpt><trkpt lat="44.8984203" lon="7.2396049"><ele>491.0</ele><time>2026-04-05T10:46:21.971Z</time></trkpt><trkpt lat="44.8983476" lon="7.2396224"><ele>491.0</ele><time>2026-04-05T10:46:22.971Z</time></trkpt><trkpt lat="44.8982415" lon="7.2396075"><ele>490.99999999999994</ele><time>2026-04-05T10:46:24.971Z</time></trkpt><trkpt lat="44.8981949" lon="7.239508"><ele>491.0</ele><time>2026-04-05T10:46:26.971Z</time></trkpt><trkpt lat="44.8981902" lon="7.2393189"><ele>489.4</ele><time>2026-04-05T10:46:28.971Z</time></trkpt><trkpt lat="44.8981841" lon="7.2391997"><ele>487.8</ele><time>2026-04-05T10:46:29.971Z</time></trkpt><trkpt lat="44.898149" lon="7.2390812"><ele>486.19999999999993</ele><time>2026-04-05T10:46:30.971Z</time></trkpt><trkpt lat="44.8980982" lon="7.2389803"><ele>484.59999999999997</ele><time>2026-04-05T10:46:31.971Z</time></trkpt><trkpt lat="44.8980394" lon="7.2388766"><ele>483.0</ele><time>2026-04-05T10:46:32.971Z</time></trkpt><trkpt lat="44.8979732" lon="7.2387671"><ele>482.59999999999997</ele><time>2026-04-05T10:46:33.971Z</time></trkpt><trkpt lat="44.8978995" lon="7.2386669"><ele>482.19999999999993</ele><time>2026-04-05T10:46:34.971Z</time></trkpt><trkpt lat="44.8978197" lon="7.2385799"><ele>481.8</ele><time>2026-04-05T10:46:35.971Z</time></trkpt><trkpt lat="44.8977286" lon="7.2385129"><ele>481.4</ele><time>2026-04-05T10:46:36.971Z</time></trkpt><trkpt lat="44.8976291" lon="7.2384681"><ele>481.0</ele><time>2026-04-05T10:46:37.971Z</time></trkpt><trkpt lat="44.8975351" lon="7.2384485"><ele>480.83333333333337</ele><time>2026-04-05T10:46:38.971Z</time></trkpt><trkpt lat="44.8974501" lon="7.2384518"><ele>480.6666666666667</ele><time>2026-04-05T10:46:39.971Z</time></trkpt><trkpt lat="44.8973807" lon="7.2384616"><ele>480.5</ele><time>2026-04-05T10:46:40.971Z</time></trkpt><trkpt lat="44.8972803" lon="7.2384641"><ele>480.33333333333337</ele><time>2026-04-05T10:46:42.971Z</time></trkpt><trkpt lat="44.8971965" lon="7.2384934"><ele>480.1666666666667</ele><time>2026-04-05T10:47:50.971Z</time></trkpt><trkpt lat="44.8971365" lon="7.2385443"><ele>480.0</ele><time>2026-04-05T10:47:51.971Z</time></trkpt><trkpt lat="44.8970702" lon="7.2385987"><ele>480.0</ele><time>2026-04-05T10:47:52.971Z</time></trkpt><trkpt lat="44.8969894" lon="7.2386682"><ele>480.0</ele><time>2026-04-05T10:47:53.971Z</time></trkpt><trkpt lat="44.8969135" lon="7.2387399"><ele>480.0</ele><time>2026-04-05T10:47:54.971Z</time></trkpt><trkpt lat="44.8968426" lon="7.2388032"><ele>480.0</ele><time>2026-04-05T10:47:55.971Z</time></trkpt><trkpt lat="44.8967705" lon="7.238865"><ele>480.0</ele><time>2026-04-05T10:47:56.971Z</time></trkpt><trkpt lat="44.8966914" lon="7.2389165"><ele>480.0</ele><time>2026-04-05T10:47:57.971Z</time></trkpt><trkpt lat="44.8966172" lon="7.2389661"><ele>479.8</ele><time>2026-04-05T10:47:58.971Z</time></trkpt><trkpt lat="44.8965348" lon="7.239004"><ele>479.6</ele><time>2026-04-05T10:47:59.971Z</time></trkpt><trkpt lat="44.896454" lon="7.2390301"><ele>479.4</ele><time>2026-04-05T10:48:00.971Z</time></trkpt><trkpt lat="44.8963599" lon="7.2390439"><ele>479.2</ele><time>2026-04-05T10:48:01.971Z</time></trkpt><trkpt lat="44.8962526" lon="7.2390488"><ele>479.0</ele><time>2026-04-05T10:48:02.971Z</time></trkpt><trkpt lat="44.8961457" lon="7.2390535"><ele>479.0</ele><time>2026-04-05T10:48:03.971Z</time></trkpt><trkpt lat="44.896043" lon="7.2390621"><ele>479.0</ele><time>2026-04-05T10:48:04.971Z</time></trkpt><trkpt lat="44.895936" lon="7.2390756"><ele>479.0</ele><time>2026-04-05T10:48:05.971Z</time></trkpt><trkpt lat="44.8958293" lon="7.2390918"><ele>479.0</ele><time>2026-04-05T10:48:06.971Z</time></trkpt><trkpt lat="44.8957268" lon="7.2391168"><ele>479.0</ele><time>2026-04-05T10:48:07.971Z</time></trkpt><trkpt lat="44.8956277" lon="7.2391725"><ele>481.25</ele><time>2026-04-05T10:48:08.971Z</time></trkpt><trkpt lat="44.8955322" lon="7.2392699"><ele>483.5</ele><time>2026-04-05T10:48:09.971Z</time></trkpt><trkpt lat="44.8954428" lon="7.2393927"><ele>485.75</ele><time>2026-04-05T10:48:10.971Z</time></trkpt><trkpt lat="44.8953586" lon="7.2395482"><ele>488.0</ele><time>2026-04-05T10:48:11.971Z</time></trkpt><trkpt lat="44.8952814" lon="7.2397171"><ele>489.0</ele><time>2026-04-05T10:48:12.971Z</time></trkpt><trkpt lat="44.8952084" lon="7.2398893"><ele>490.0</ele><time>2026-04-05T10:48:13.971Z</time></trkpt><trkpt lat="44.8951539" lon="7.2400735"><ele>491.0</ele><time>2026-04-05T10:48:14.971Z</time></trkpt><trkpt lat="44.8951125" lon="7.2402536"><ele>492.0</ele><time>2026-04-05T10:48:15.971Z</time></trkpt><trkpt lat="44.8950824" lon="7.240418"><ele>492.0</ele><time>2026-04-05T10:48:16.971Z</time></trkpt><trkpt lat="44.8950506" lon="7.2405667"><ele>492.00000000000006</ele><time>2026-04-05T10:48:17.971Z</time></trkpt><trkpt lat="44.8950124" lon="7.2407065"><ele>492.00000000000006</ele><time>2026-04-05T10:48:18.971Z</time></trkpt><trkpt lat="44.8949537" lon="7.2408335"><ele>492.0</ele><time>2026-04-05T10:48:19.971Z</time></trkpt><trkpt lat="44.8948789" lon="7.2409254"><ele>492.0</ele><time>2026-04-05T10:48:20.971Z</time></trkpt><trkpt lat="44.8947952" lon="7.2409993"><ele>490.5</ele><time>2026-04-05T10:48:21.971Z</time></trkpt><trkpt lat="44.894696" lon="7.2410444"><ele>489.0</ele><time>2026-04-05T10:48:22.971Z</time></trkpt><trkpt lat="44.8945857" lon="7.2410596"><ele>487.5</ele><time>2026-04-05T10:48:23.971Z</time></trkpt><trkpt lat="44.8944609" lon="7.2410742"><ele>486.0</ele><time>2026-04-05T10:48:24.971Z</time></trkpt><trkpt lat="44.8943243" lon="7.2410752"><ele>487.0</ele><time>2026-04-05T10:48:25.971Z</time></trkpt><trkpt lat="44.8941957" lon="7.24107"><ele>488.0</ele><time>2026-04-05T10:48:26.971Z</time></trkpt><trkpt lat="44.8940712" lon="7.2410701"><ele>489.0</ele><time>2026-04-05T10:48:27.971Z</time></trkpt><trkpt lat="44.8939448" lon="7.2410675"><ele>490.0</ele><time>2026-04-05T10:48:28.972Z</time></trkpt><trkpt lat="44.8938093" lon="7.2410786"><ele>490.0</ele><time>2026-04-05T10:48:29.971Z</time></trkpt><trkpt lat="44.8936611" lon="7.2411249"><ele>490.0</ele><time>2026-04-05T10:48:30.971Z</time></trkpt><trkpt lat="44.8934965" lon="7.2412082"><ele>490.0</ele><time>2026-04-05T10:48:31.971Z</time></trkpt><trkpt lat="44.8933217" lon="7.2412973"><ele>488.6666666666667</ele><time>2026-04-05T10:48:32.971Z</time></trkpt><trkpt lat="44.8931576" lon="7.2413795"><ele>487.33333333333337</ele><time>2026-04-05T10:48:33.971Z</time></trkpt><trkpt lat="44.892997" lon="7.2414633"><ele>486.0</ele><time>2026-04-05T10:48:34.971Z</time></trkpt><trkpt lat="44.8928335" lon="7.2415532"><ele>483.66666666666663</ele><time>2026-04-05T10:48:35.971Z</time></trkpt><trkpt lat="44.8926717" lon="7.2416365"><ele>481.3333333333333</ele><time>2026-04-05T10:48:36.971Z</time></trkpt><trkpt lat="44.8925146" lon="7.241721"><ele>479.0</ele><time>2026-04-05T10:48:37.971Z</time></trkpt><trkpt lat="44.8923596" lon="7.2418051"><ele>479.0</ele><time>2026-04-05T10:48:38.971Z</time></trkpt><trkpt lat="44.8922085" lon="7.2418868"><ele>479.0</ele><time>2026-04-05T10:48:39.971Z</time></trkpt><trkpt lat="44.8920516" lon="7.2419725"><ele>479.0</ele><time>2026-04-05T10:48:40.971Z</time></trkpt><trkpt lat="44.8918933" lon="7.2420487"><ele>479.66666666666663</ele><time>2026-04-05T10:48:41.971Z</time></trkpt><trkpt lat="44.8917349" lon="7.2421179"><ele>480.33333333333337</ele><time>2026-04-05T10:48:42.971Z</time></trkpt><trkpt lat="44.891579" lon="7.2421973"><ele>481.0</ele><time>2026-04-05T10:48:43.971Z</time></trkpt><trkpt lat="44.8914327" lon="7.2422802"><ele>478.0</ele><time>2026-04-05T10:48:44.971Z</time></trkpt><trkpt lat="44.8912888" lon="7.2423672"><ele>475.0</ele><time>2026-04-05T10:48:45.971Z</time></trkpt><trkpt lat="44.8911529" lon="7.2424456"><ele>472.0</ele><time>2026-04-05T10:48:46.971Z</time></trkpt><trkpt lat="44.8910221" lon="7.2425241"><ele>469.0</ele><time>2026-04-05T10:48:47.971Z</time></trkpt><trkpt lat="44.8908823" lon="7.2425838"><ele>469.0</ele><time>2026-04-05T10:48:48.971Z</time></trkpt><trkpt lat="44.8907279" lon="7.2426267"><ele>469.0</ele><time>2026-04-05T10:48:49.971Z</time></trkpt><trkpt lat="44.890562" lon="7.242682"><ele>469.0</ele><time>2026-04-05T10:48:50.971Z</time></trkpt><trkpt lat="44.890401" lon="7.2427242"><ele>469.0</ele><time>2026-04-05T10:48:51.971Z</time></trkpt><trkpt lat="44.8902525" lon="7.2427639"><ele>469.0</ele><time>2026-04-05T10:48:52.971Z</time></trkpt><trkpt lat="44.890112" lon="7.2428135"><ele>469.0</ele><time>2026-04-05T10:48:53.971Z</time></trkpt><trkpt lat="44.8899853" lon="7.2428562"><ele>469.0</ele><time>2026-04-05T10:48:54.971Z</time></trkpt><trkpt lat="44.8898751" lon="7.2429156"><ele>467.75</ele><time>2026-04-05T10:48:55.971Z</time></trkpt><trkpt lat="44.8897717" lon="7.2429978"><ele>466.5</ele><time>2026-04-05T10:48:56.971Z</time></trkpt><trkpt lat="44.8896695" lon="7.2430876"><ele>465.25</ele><time>2026-04-05T10:48:57.971Z</time></trkpt><trkpt lat="44.8895744" lon="7.2431808"><ele>464.0</ele><time>2026-04-05T10:48:58.971Z</time></trkpt><trkpt lat="44.8894796" lon="7.2432607"><ele>464.0</ele><time>2026-04-05T10:48:59.971Z</time></trkpt><trkpt lat="44.8893652" lon="7.2433163"><ele>464.0</ele><time>2026-04-05T10:49:00.971Z</time></trkpt><trkpt lat="44.8892446" lon="7.2433607"><ele>464.0</ele><time>2026-04-05T10:49:01.971Z</time></trkpt><trkpt lat="44.8891301" lon="7.2434051"><ele>464.0</ele><time>2026-04-05T10:49:02.971Z</time></trkpt><trkpt lat="44.8890144" lon="7.2434775"><ele>466.75</ele><time>2026-04-05T10:49:03.971Z</time></trkpt><trkpt lat="44.8888964" lon="7.2435705"><ele>469.5</ele><time>2026-04-05T10:49:04.971Z</time></trkpt><trkpt lat="44.8887783" lon="7.243661"><ele>472.25</ele><time>2026-04-05T10:49:05.971Z</time></trkpt><trkpt lat="44.8886673" lon="7.2437237"><ele>475.0</ele><time>2026-04-05T10:49:06.971Z</time></trkpt><trkpt lat="44.8885634" lon="7.243776"><ele>475.0</ele><time>2026-04-05T10:49:07.971Z</time></trkpt><trkpt lat="44.8884697" lon="7.243852"><ele>475.0</ele><time>2026-04-05T10:49:08.971Z</time></trkpt><trkpt lat="44.8883917" lon="7.2439687"><ele>475.0</ele><time>2026-04-05T10:49:09.971Z</time></trkpt><trkpt lat="44.888337" lon="7.2441148"><ele>475.0</ele><time>2026-04-05T10:49:10.971Z</time></trkpt><trkpt lat="44.8883022" lon="7.2442861"><ele>475.0</ele><time>2026-04-05T10:49:11.971Z</time></trkpt><trkpt lat="44.8882775" lon="7.2444656"><ele>475.0</ele><time>2026-04-05T10:49:12.971Z</time></trkpt><trkpt lat="44.8882496" lon="7.2446308"><ele>475.0</ele><time>2026-04-05T10:49:13.971Z</time></trkpt><trkpt lat="44.8882005" lon="7.2447925"><ele>475.0</ele><time>2026-04-05T10:49:14.971Z</time></trkpt><trkpt lat="44.8881368" lon="7.2449487"><ele>475.0</ele><time>2026-04-05T10:49:15.971Z</time></trkpt><trkpt lat="44.8880818" lon="7.2451028"><ele>475.0</ele><time>2026-04-05T10:49:16.971Z</time></trkpt><trkpt lat="44.8880483" lon="7.2452483"><ele>475.0</ele><time>2026-04-05T10:49:17.971Z</time></trkpt><trkpt lat="44.8880207" lon="7.2453782"><ele>475.0</ele><time>2026-04-05T10:49:18.971Z</time></trkpt><trkpt lat="44.8879998" lon="7.2454978"><ele>475.0</ele><time>2026-04-05T10:49:19.971Z</time></trkpt><trkpt lat="44.8879907" lon="7.2456068"><ele>473.50000000000006</ele><time>2026-04-05T10:49:20.971Z</time></trkpt><trkpt lat="44.8879849" lon="7.245708"><ele>472.0</ele><time>2026-04-05T10:49:21.971Z</time></trkpt><trkpt lat="44.8879681" lon="7.2458019"><ele>470.5</ele><time>2026-04-05T10:49:22.971Z</time></trkpt><trkpt lat="44.8879394" lon="7.2459014"><ele>469.0</ele><time>2026-04-05T10:49:23.971Z</time></trkpt><trkpt lat="44.8878937" lon="7.2459931"><ele>467.50000000000006</ele><time>2026-04-05T10:49:24.971Z</time></trkpt><trkpt lat="44.8878369" lon="7.2460734"><ele>466.0</ele><time>2026-04-05T10:49:25.971Z</time></trkpt><trkpt lat="44.8877616" lon="7.2461318"><ele>466.0</ele><time>2026-04-05T10:49:26.971Z</time></trkpt><trkpt lat="44.8876769" lon="7.2461759"><ele>466.0</ele><time>2026-04-05T10:49:27.971Z</time></trkpt><trkpt lat="44.8875895" lon="7.2462221"><ele>466.0</ele><time>2026-04-05T10:49:28.971Z</time></trkpt><trkpt lat="44.8874961" lon="7.2462663"><ele>466.0</ele><time>2026-04-05T10:49:29.971Z</time></trkpt><trkpt lat="44.8873981" lon="7.2463232"><ele>466.0</ele><time>2026-04-05T10:49:30.971Z</time></trkpt><trkpt lat="44.8873037" lon="7.2464036"><ele>468.4</ele><time>2026-04-05T10:49:31.971Z</time></trkpt><trkpt lat="44.8872112" lon="7.2464963"><ele>470.8</ele><time>2026-04-05T10:49:32.971Z</time></trkpt><trkpt lat="44.8871165" lon="7.2465929"><ele>473.19999999999993</ele><time>2026-04-05T10:49:33.971Z</time></trkpt><trkpt lat="44.8870359" lon="7.2466941"><ele>475.59999999999997</ele><time>2026-04-05T10:49:34.971Z</time></trkpt><trkpt lat="44.8869577" lon="7.2467787"><ele>478.0</ele><time>2026-04-05T10:49:35.971Z</time></trkpt><trkpt lat="44.8868869" lon="7.246856"><ele>478.00000000000006</ele><time>2026-04-05T10:49:36.971Z</time></trkpt><trkpt lat="44.886816" lon="7.2469227"><ele>478.0</ele><time>2026-04-05T10:49:37.971Z</time></trkpt><trkpt lat="44.8867537" lon="7.2469834"><ele>478.00000000000006</ele><time>2026-04-05T10:49:38.971Z</time></trkpt><trkpt lat="44.8867147" lon="7.2470702"><ele>478.00000000000006</ele><time>2026-04-05T10:49:39.971Z</time></trkpt><trkpt lat="44.8867022" lon="7.2471649"><ele>478.0</ele><time>2026-04-05T10:49:40.971Z</time></trkpt><trkpt lat="44.8867005" lon="7.2472681"><ele>478.00000000000006</ele><time>2026-04-05T10:49:41.971Z</time></trkpt><trkpt lat="44.8866992" lon="7.2473679"><ele>478.00000000000006</ele><time>2026-04-05T10:49:42.971Z</time></trkpt><trkpt lat="44.8867008" lon="7.2474598"><ele>477.83333333333337</ele><time>2026-04-05T10:49:43.971Z</time></trkpt><trkpt lat="44.886776" lon="7.2475968"><ele>477.6666666666667</ele><time>2026-04-05T10:49:45.971Z</time></trkpt><trkpt lat="44.8868413" lon="7.2476309"><ele>477.5</ele><time>2026-04-05T10:49:46.971Z</time></trkpt><trkpt lat="44.886918" lon="7.2476649"><ele>477.33333333333337</ele><time>2026-04-05T10:49:47.971Z</time></trkpt><trkpt lat="44.886989" lon="7.2476941"><ele>477.1666666666667</ele><time>2026-04-05T10:49:48.971Z</time></trkpt><trkpt lat="44.8870483" lon="7.2477411"><ele>477.0</ele><time>2026-04-05T10:49:49.971Z</time></trkpt><trkpt lat="44.8871061" lon="7.2477959"><ele>477.0</ele><time>2026-04-05T10:49:50.971Z</time></trkpt><trkpt lat="44.8871678" lon="7.2478783"><ele>477.0</ele><time>2026-04-05T10:49:51.971Z</time></trkpt><trkpt lat="44.887222" lon="7.2479893"><ele>477.0</ele><time>2026-04-05T10:49:52.971Z</time></trkpt><trkpt lat="44.8872646" lon="7.2481025"><ele>477.0</ele><time>2026-04-05T10:49:53.971Z</time></trkpt><trkpt lat="44.8873053" lon="7.248206"><ele>477.0</ele><time>2026-04-05T10:49:54.971Z</time></trkpt><trkpt lat="44.8873516" lon="7.248305"><ele>477.0</ele><time>2026-04-05T10:49:55.971Z</time></trkpt><trkpt lat="44.8874209" lon="7.2483812"><ele>476.0</ele><time>2026-04-05T10:49:56.971Z</time></trkpt><trkpt lat="44.887503" lon="7.2484563"><ele>475.00000000000006</ele><time>2026-04-05T10:49:57.971Z</time></trkpt><trkpt lat="44.8875747" lon="7.2485527"><ele>474.00000000000006</ele><time>2026-04-05T10:49:58.971Z</time></trkpt><trkpt lat="44.8876449" lon="7.2486451"><ele>473.0</ele><time>2026-04-05T10:49:59.971Z</time></trkpt><trkpt lat="44.8877149" lon="7.2487462"><ele>472.0</ele><time>2026-04-05T10:50:00.971Z</time></trkpt><trkpt lat="44.8877791" lon="7.2488409"><ele>472.00000000000006</ele><time>2026-04-05T10:50:01.971Z</time></trkpt><trkpt lat="44.8878475" lon="7.2489339"><ele>472.0</ele><time>2026-04-05T10:50:02.971Z</time></trkpt><trkpt lat="44.887919" lon="7.2490319"><ele>472.0</ele><time>2026-04-05T10:50:03.971Z</time></trkpt><trkpt lat="44.887985" lon="7.2491273"><ele>472.0</ele><time>2026-04-05T10:50:04.971Z</time></trkpt><trkpt lat="44.8880314" lon="7.249218"><ele>472.00000000000006</ele><time>2026-04-05T10:50:05.971Z</time></trkpt><trkpt lat="44.8880589" lon="7.2493207"><ele>472.0</ele><time>2026-04-05T10:50:06.971Z</time></trkpt><trkpt lat="44.8880653" lon="7.2494387"><ele>474.8</ele><time>2026-04-05T10:50:07.971Z</time></trkpt><trkpt lat="44.8880593" lon="7.2495655"><ele>477.6</ele><time>2026-04-05T10:50:08.971Z</time></trkpt><trkpt lat="44.8880508" lon="7.2497005"><ele>480.40000000000003</ele><time>2026-04-05T10:50:09.971Z</time></trkpt><trkpt lat="44.8880411" lon="7.249848"><ele>483.20000000000005</ele><time>2026-04-05T10:50:10.971Z</time></trkpt><trkpt lat="44.8880261" lon="7.2499992"><ele>486.0</ele><time>2026-04-05T10:50:11.971Z</time></trkpt><trkpt lat="44.8880142" lon="7.2501514"><ele>487.8</ele><time>2026-04-05T10:50:12.971Z</time></trkpt><trkpt lat="44.8879988" lon="7.2502856"><ele>489.6</ele><time>2026-04-05T10:50:13.971Z</time></trkpt><trkpt lat="44.8879813" lon="7.2504233"><ele>491.4</ele><time>2026-04-05T10:50:14.971Z</time></trkpt><trkpt lat="44.8879576" lon="7.2505596"><ele>493.2</ele><time>2026-04-05T10:50:15.971Z</time></trkpt><trkpt lat="44.8879285" lon="7.2507001"><ele>495.0</ele><time>2026-04-05T10:50:16.971Z</time></trkpt><trkpt lat="44.8878872" lon="7.2508417"><ele>495.4</ele><time>2026-04-05T10:50:17.971Z</time></trkpt><trkpt lat="44.8878312" lon="7.2509842"><ele>495.8</ele><time>2026-04-05T10:50:18.971Z</time></trkpt><trkpt lat="44.8877761" lon="7.2511105"><ele>496.20000000000005</ele><time>2026-04-05T10:50:19.971Z</time></trkpt><trkpt lat="44.8877289" lon="7.2512394"><ele>496.6</ele><time>2026-04-05T10:50:20.971Z</time></trkpt><trkpt lat="44.8876948" lon="7.2513742"><ele>497.0</ele><time>2026-04-05T10:50:21.971Z</time></trkpt><trkpt lat="44.8876765" lon="7.2515177"><ele>497.0</ele><time>2026-04-05T10:50:22.971Z</time></trkpt><trkpt lat="44.8876522" lon="7.2516545"><ele>497.00000000000006</ele><time>2026-04-05T10:50:23.971Z</time></trkpt><trkpt lat="44.8876276" lon="7.2517878"><ele>497.00000000000006</ele><time>2026-04-05T10:50:24.971Z</time></trkpt><trkpt lat="44.8876068" lon="7.2519143"><ele>497.0</ele><time>2026-04-05T10:50:25.971Z</time></trkpt><trkpt lat="44.8875808" lon="7.2520274"><ele>497.0</ele><time>2026-04-05T10:50:26.971Z</time></trkpt><trkpt lat="44.8875477" lon="7.252128"><ele>499.3333333333333</ele><time>2026-04-05T10:50:27.971Z</time></trkpt><trkpt lat="44.8874997" lon="7.2522303"><ele>501.66666666666663</ele><time>2026-04-05T10:50:28.971Z</time></trkpt><trkpt lat="44.8874352" lon="7.2523167"><ele>504.0</ele><time>2026-04-05T10:50:29.971Z</time></trkpt><trkpt lat="44.8873685" lon="7.2523918"><ele>506.33333333333337</ele><time>2026-04-05T10:50:30.971Z</time></trkpt><trkpt lat="44.8873005" lon="7.2524676"><ele>508.6666666666667</ele><time>2026-04-05T10:50:31.971Z</time></trkpt><trkpt lat="44.887257" lon="7.2525547"><ele>511.0</ele><time>2026-04-05T10:50:32.971Z</time></trkpt><trkpt lat="44.8872392" lon="7.252665"><ele>511.00000000000006</ele><time>2026-04-05T10:50:33.971Z</time></trkpt><trkpt lat="44.8872471" lon="7.2527813"><ele>511.0</ele><time>2026-04-05T10:50:34.971Z</time></trkpt><trkpt lat="44.8872695" lon="7.25292"><ele>511.0</ele><time>2026-04-05T10:50:35.971Z</time></trkpt><trkpt lat="44.8872789" lon="7.2530479"><ele>511.0</ele><time>2026-04-05T10:50:36.971Z</time></trkpt><trkpt lat="44.8872675" lon="7.2531688"><ele>511.00000000000006</ele><time>2026-04-05T10:50:37.971Z</time></trkpt><trkpt lat="44.8872565" lon="7.2532622"><ele>511.0</ele><time>2026-04-05T10:50:38.971Z</time></trkpt><trkpt lat="44.8872369" lon="7.2534086"><ele>511.1666666666667</ele><time>2026-04-05T10:50:40.971Z</time></trkpt><trkpt lat="44.8871937" lon="7.2535546"><ele>511.33333333333337</ele><time>2026-04-05T10:50:42.971Z</time></trkpt><trkpt lat="44.8871576" lon="7.2536292"><ele>511.5</ele><time>2026-04-05T10:50:43.971Z</time></trkpt><trkpt lat="44.8871033" lon="7.253687"><ele>511.66666666666663</ele><time>2026-04-05T10:50:44.971Z</time></trkpt><trkpt lat="44.8870396" lon="7.2537398"><ele>511.8333333333333</ele><time>2026-04-05T10:50:45.971Z</time></trkpt><trkpt lat="44.8869748" lon="7.2538112"><ele>512.0</ele><time>2026-04-05T10:50:46.971Z</time></trkpt><trkpt lat="44.8869014" lon="7.253881"><ele>511.99999999999994</ele><time>2026-04-05T10:50:47.971Z</time></trkpt><trkpt lat="44.8868339" lon="7.2539315"><ele>512.0</ele><time>2026-04-05T10:50:48.971Z</time></trkpt><trkpt lat="44.8867746" lon="7.253979"><ele>512.0</ele><time>2026-04-05T10:50:49.971Z</time></trkpt><trkpt lat="44.8867206" lon="7.254035"><ele>512.0</ele><time>2026-04-05T10:50:50.971Z</time></trkpt><trkpt lat="44.8866118" lon="7.2541084"><ele>511.99999999999994</ele><time>2026-04-05T10:50:52.971Z</time></trkpt><trkpt lat="44.8865129" lon="7.2541067"><ele>512.0</ele><time>2026-04-05T10:50:54.971Z</time></trkpt><trkpt lat="44.8864497" lon="7.2540754"><ele>514.5</ele><time>2026-04-05T10:50:56.971Z</time></trkpt><trkpt lat="44.886399" lon="7.2539703"><ele>517.0</ele><time>2026-04-05T10:51:00.971Z</time></trkpt><trkpt lat="44.886381" lon="7.25388"><ele>519.5</ele><time>2026-04-05T10:51:02.971Z</time></trkpt><trkpt lat="44.8863603" lon="7.2537687"><ele>522.0</ele><time>2026-04-05T10:51:04.971Z</time></trkpt><trkpt lat="44.8862935" lon="7.2536505"><ele>524.5</ele><time>2026-04-05T10:51:06.971Z</time></trkpt><trkpt lat="44.8862189" lon="7.2536221"><ele>527.0</ele><time>2026-04-05T10:51:08.971Z</time></trkpt><trkpt lat="44.8861237" lon="7.2535727"><ele>527.0</ele><time>2026-04-05T10:51:10.971Z</time></trkpt><trkpt lat="44.8860558" lon="7.2534787"><ele>527.0</ele><time>2026-04-05T10:51:12.971Z</time></trkpt><trkpt lat="44.8860118" lon="7.2533745"><ele>527.0</ele><time>2026-04-05T10:51:15.971Z</time></trkpt><trkpt lat="44.8859867" lon="7.2532864"><ele>527.0</ele><time>2026-04-05T10:51:17.971Z</time></trkpt><trkpt lat="44.8859584" lon="7.2531771"><ele>527.0</ele><time>2026-04-05T10:51:19.971Z</time></trkpt><trkpt lat="44.88592" lon="7.2530597"><ele>527.0</ele><time>2026-04-05T10:51:21.971Z</time></trkpt><trkpt lat="44.8858905" lon="7.2529637"><ele>531.3333333333333</ele><time>2026-04-05T10:51:23.971Z</time></trkpt><trkpt lat="44.8858767" lon="7.25287"><ele>535.6666666666666</ele><time>2026-04-05T10:51:25.971Z</time></trkpt><trkpt lat="44.8858527" lon="7.2527534"><ele>540.0</ele><time>2026-04-05T10:51:28.971Z</time></trkpt><trkpt lat="44.8858209" lon="7.252671"><ele>544.3333333333334</ele><time>2026-04-05T10:51:30.971Z</time></trkpt><trkpt lat="44.8857916" lon="7.2525328"><ele>548.6666666666667</ele><time>2026-04-05T10:51:32.971Z</time></trkpt><trkpt lat="44.8857812" lon="7.2524398"><ele>553.0</ele><time>2026-04-05T10:51:33.971Z</time></trkpt><trkpt lat="44.8857721" lon="7.2523337"><ele>554.1999999999999</ele><time>2026-04-05T10:51:34.971Z</time></trkpt><trkpt lat="44.8857592" lon="7.2522039"><ele>555.4</ele><time>2026-04-05T10:51:35.971Z</time></trkpt><trkpt lat="44.8857492" lon="7.2520393"><ele>556.5999999999999</ele><time>2026-04-05T10:51:36.971Z</time></trkpt><trkpt lat="44.8857479" lon="7.2518696"><ele>557.8</ele><time>2026-04-05T10:51:37.971Z</time></trkpt><trkpt lat="44.8857496" lon="7.2517036"><ele>559.0</ele><time>2026-04-05T10:51:38.971Z</time></trkpt><trkpt lat="44.8857519" lon="7.2515699"><ele>559.0</ele><time>2026-04-05T10:51:39.971Z</time></trkpt><trkpt lat="44.8857547" lon="7.2514633"><ele>559.0</ele><time>2026-04-05T10:51:40.971Z</time></trkpt><trkpt lat="44.8857387" lon="7.2513759"><ele>559.0</ele><time>2026-04-05T10:51:41.971Z</time></trkpt><trkpt lat="44.8856415" lon="7.2513194"><ele>559.0</ele><time>2026-04-05T10:51:43.971Z</time></trkpt><trkpt lat="44.885563" lon="7.2514323"><ele>559.0</ele><time>2026-04-05T10:51:45.971Z</time></trkpt><trkpt lat="44.8855211" lon="7.2515398"><ele>559.0</ele><time>2026-04-05T10:51:46.971Z</time></trkpt><trkpt lat="44.885471" lon="7.2516684"><ele>559.0</ele><time>2026-04-05T10:51:47.971Z</time></trkpt><trkpt lat="44.8854096" lon="7.2518127"><ele>559.0</ele><time>2026-04-05T10:51:48.971Z</time></trkpt><trkpt lat="44.8853491" lon="7.2519423"><ele>559.0</ele><time>2026-04-05T10:51:49.971Z</time></trkpt><trkpt lat="44.8852687" lon="7.2520756"><ele>559.0</ele><time>2026-04-05T10:51:50.971Z</time></trkpt><trkpt lat="44.8851873" lon="7.2522186"><ele>557.8</ele><time>2026-04-05T10:51:51.971Z</time></trkpt><trkpt lat="44.8851127" lon="7.2523438"><ele>556.5999999999999</ele><time>2026-04-05T10:51:52.971Z</time></trkpt><trkpt lat="44.8850635" lon="7.2524296"><ele>555.4</ele><time>2026-04-05T10:51:53.971Z</time></trkpt><trkpt lat="44.8850202" lon="7.2525177"><ele>554.1999999999999</ele><time>2026-04-05T10:51:54.971Z</time></trkpt><trkpt lat="44.8849338" lon="7.2525906"><ele>553.0</ele><time>2026-04-05T10:51:56.971Z</time></trkpt><trkpt lat="44.8848396" lon="7.2525195"><ele>557.0</ele><time>2026-04-05T10:51:58.971Z</time></trkpt><trkpt lat="44.8848009" lon="7.2524336"><ele>561.0</ele><time>2026-04-05T10:51:59.971Z</time></trkpt><trkpt lat="44.8847688" lon="7.252329"><ele>565.0</ele><time>2026-04-05T10:52:00.971Z</time></trkpt><trkpt lat="44.8847388" lon="7.2522061"><ele>569.0</ele><time>2026-04-05T10:52:01.971Z</time></trkpt><trkpt lat="44.8846991" lon="7.2520827"><ele>573.0</ele><time>2026-04-05T10:52:02.971Z</time></trkpt><trkpt lat="44.8846582" lon="7.2519499"><ele>577.0</ele><time>2026-04-05T10:52:03.971Z</time></trkpt><trkpt lat="44.8846205" lon="7.2518089"><ele>580.6</ele><time>2026-04-05T10:52:04.971Z</time></trkpt><trkpt lat="44.8845676" lon="7.2516637"><ele>584.2</ele><time>2026-04-05T10:52:05.971Z</time></trkpt><trkpt lat="44.884515" lon="7.2515307"><ele>587.8</ele><time>2026-04-05T10:52:06.971Z</time></trkpt><trkpt lat="44.8844588" lon="7.2514009"><ele>591.4</ele><time>2026-04-05T10:52:07.971Z</time></trkpt><trkpt lat="44.8844135" lon="7.251283"><ele>595.0</ele><time>2026-04-05T10:52:08.971Z</time></trkpt><trkpt lat="44.884378" lon="7.2511661"><ele>597.0</ele><time>2026-04-05T10:52:09.971Z</time></trkpt><trkpt lat="44.8843278" lon="7.2510587"><ele>599.0</ele><time>2026-04-05T10:52:10.971Z</time></trkpt><trkpt lat="44.8842697" lon="7.2509844"><ele>601.0</ele><time>2026-04-05T10:52:11.971Z</time></trkpt><trkpt lat="44.8841947" lon="7.250936"><ele>603.0</ele><time>2026-04-05T10:52:12.971Z</time></trkpt><trkpt lat="44.8841132" lon="7.2508971"><ele>605.0</ele><time>2026-04-05T10:52:13.971Z</time></trkpt><trkpt lat="44.8840327" lon="7.2508737"><ele>607.0</ele><time>2026-04-05T10:52:14.971Z</time></trkpt><trkpt lat="44.8839467" lon="7.2508504"><ele>609.6666666666667</ele><time>2026-04-05T10:52:15.971Z</time></trkpt><trkpt lat="44.8838605" lon="7.2508541"><ele>612.3333333333334</ele><time>2026-04-05T10:52:16.971Z</time></trkpt><trkpt lat="44.8837775" lon="7.2508767"><ele>615.0</ele><time>2026-04-05T10:52:17.971Z</time></trkpt><trkpt lat="44.8837026" lon="7.2509294"><ele>617.6666666666666</ele><time>2026-04-05T10:52:18.971Z</time></trkpt><trkpt lat="44.8836271" lon="7.2509954"><ele>620.3333333333333</ele><time>2026-04-05T10:52:19.971Z</time></trkpt><trkpt lat="44.8835591" lon="7.2510229"><ele>623.0</ele><time>2026-04-05T10:52:20.971Z</time></trkpt><trkpt lat="44.8834849" lon="7.2510169"><ele>622.1666666666666</ele><time>2026-04-05T10:52:21.971Z</time></trkpt><trkpt lat="44.8834092" lon="7.2509798"><ele>621.3333333333333</ele><time>2026-04-05T10:52:22.971Z</time></trkpt><trkpt lat="44.8833533" lon="7.2509209"><ele>620.5</ele><time>2026-04-05T10:52:23.972Z</time></trkpt><trkpt lat="44.8832934" lon="7.2508332"><ele>619.6666666666666</ele><time>2026-04-05T10:52:24.971Z</time></trkpt><trkpt lat="44.8832159" lon="7.2507727"><ele>618.8333333333334</ele><time>2026-04-05T10:52:25.971Z</time></trkpt><trkpt lat="44.8831263" lon="7.2507295"><ele>618.0</ele><time>2026-04-05T10:52:26.971Z</time></trkpt><trkpt lat="44.8830443" lon="7.2506766"><ele>625.4</ele><time>2026-04-05T10:52:27.971Z</time></trkpt><trkpt lat="44.8829599" lon="7.2506164"><ele>632.8</ele><time>2026-04-05T10:52:28.971Z</time></trkpt><trkpt lat="44.8828803" lon="7.2504752"><ele>640.2</ele><time>2026-04-05T10:52:29.971Z</time></trkpt><trkpt lat="44.8828042" lon="7.2503809"><ele>647.6</ele><time>2026-04-05T10:52:30.971Z</time></trkpt><trkpt lat="44.8827377" lon="7.2502974"><ele>655.0</ele><time>2026-04-05T10:52:31.971Z</time></trkpt><trkpt lat="44.8826737" lon="7.2502324"><ele>653.3333333333334</ele><time>2026-04-05T10:52:32.971Z</time></trkpt><trkpt lat="44.8825962" lon="7.2501979"><ele>651.6666666666667</ele><time>2026-04-05T10:52:33.971Z</time></trkpt><trkpt lat="44.8825164" lon="7.2501936"><ele>650.0</ele><time>2026-04-05T10:52:34.972Z</time></trkpt><trkpt lat="44.882429" lon="7.25023"><ele>648.3333333333334</ele><time>2026-04-05T10:52:35.971Z</time></trkpt><trkpt lat="44.8823369" lon="7.2502779"><ele>646.6666666666666</ele><time>2026-04-05T10:52:36.971Z</time></trkpt><trkpt lat="44.8822599" lon="7.2503326"><ele>645.0</ele><time>2026-04-05T10:52:37.971Z</time></trkpt><trkpt lat="44.8821918" lon="7.2504024"><ele>645.0</ele><time>2026-04-05T10:52:38.971Z</time></trkpt><trkpt lat="44.8821277" lon="7.250486"><ele>645.0</ele><time>2026-04-05T10:52:39.971Z</time></trkpt><trkpt lat="44.8820715" lon="7.25057"><ele>645.0</ele><time>2026-04-05T10:52:40.971Z</time></trkpt><trkpt lat="44.8820073" lon="7.2506198"><ele>645.0</ele><time>2026-04-05T10:52:41.971Z</time></trkpt><trkpt lat="44.8819372" lon="7.2506249"><ele>645.0</ele><time>2026-04-05T10:52:42.971Z</time></trkpt><trkpt lat="44.8818652" lon="7.250595"><ele>645.0</ele><time>2026-04-05T10:52:43.971Z</time></trkpt><trkpt lat="44.8817913" lon="7.2505416"><ele>646.6</ele><time>2026-04-05T10:52:44.971Z</time></trkpt><trkpt lat="44.8817262" lon="7.2504652"><ele>648.2</ele><time>2026-04-05T10:52:45.971Z</time></trkpt><trkpt lat="44.8816538" lon="7.250372"><ele>649.8</ele><time>2026-04-05T10:52:46.971Z</time></trkpt><trkpt lat="44.8815709" lon="7.2502757"><ele>651.4</ele><time>2026-04-05T10:52:47.971Z</time></trkpt><trkpt lat="44.8814969" lon="7.2501921"><ele>653.0</ele><time>2026-04-05T10:52:48.971Z</time></trkpt><trkpt lat="44.8813923" lon="7.2501213"><ele>653.0</ele><time>2026-04-05T10:52:49.971Z</time></trkpt><trkpt lat="44.8813002" lon="7.250046"><ele>653.0</ele><time>2026-04-05T10:52:50.971Z</time></trkpt><trkpt lat="44.8812092" lon="7.2499897"><ele>653.0</ele><time>2026-04-05T10:52:51.971Z</time></trkpt><trkpt lat="44.8811279" lon="7.2499515"><ele>653.0</ele><time>2026-04-05T10:52:52.971Z</time></trkpt><trkpt lat="44.8810595" lon="7.2499387"><ele>653.0</ele><time>2026-04-05T10:52:53.971Z</time></trkpt><trkpt lat="44.8809983" lon="7.2499596"><ele>653.0</ele><time>2026-04-05T10:52:54.971Z</time></trkpt><trkpt lat="44.8809416" lon="7.2500262"><ele>654.1666666666666</ele><time>2026-04-05T10:52:55.971Z</time></trkpt><trkpt lat="44.8808867" lon="7.2501114"><ele>655.3333333333333</ele><time>2026-04-05T10:52:56.971Z</time></trkpt><trkpt lat="44.8808253" lon="7.2502137"><ele>656.5</ele><time>2026-04-05T10:52:57.971Z</time></trkpt><trkpt lat="44.88077" lon="7.2502961"><ele>657.6666666666666</ele><time>2026-04-05T10:52:58.971Z</time></trkpt><trkpt lat="44.8807158" lon="7.2503589"><ele>658.8333333333334</ele><time>2026-04-05T10:52:59.971Z</time></trkpt><trkpt lat="44.8806448" lon="7.2504086"><ele>660.0</ele><time>2026-04-05T10:53:00.971Z</time></trkpt><trkpt lat="44.8805723" lon="7.2504238"><ele>660.0</ele><time>2026-04-05T10:53:01.971Z</time></trkpt><trkpt lat="44.8805046" lon="7.2504255"><ele>660.0</ele><time>2026-04-05T10:53:02.971Z</time></trkpt><trkpt lat="44.8803818" lon="7.250384"><ele>660.0</ele><time>2026-04-05T10:53:04.971Z</time></trkpt><trkpt lat="44.8803252" lon="7.2503371"><ele>660.0</ele><time>2026-04-05T10:53:05.971Z</time></trkpt><trkpt lat="44.8802697" lon="7.2502653"><ele>660.0</ele><time>2026-04-05T10:53:06.971Z</time></trkpt><trkpt lat="44.8802262" lon="7.2501947"><ele>660.0</ele><time>2026-04-05T10:53:07.971Z</time></trkpt><trkpt lat="44.8801911" lon="7.2501165"><ele>660.0</ele><time>2026-04-05T10:53:08.971Z</time></trkpt><trkpt lat="44.8801727" lon="7.2500205"><ele>660.0</ele><time>2026-04-05T10:53:09.971Z</time></trkpt><trkpt lat="44.8801621" lon="7.249905"><ele>660.0</ele><time>2026-04-05T10:53:10.971Z</time></trkpt><trkpt lat="44.8801571" lon="7.249781"><ele>660.0</ele><time>2026-04-05T10:53:11.971Z</time></trkpt><trkpt lat="44.8801536" lon="7.2496512"><ele>660.0</ele><time>2026-04-05T10:53:12.971Z</time></trkpt><trkpt lat="44.8801486" lon="7.2495184"><ele>660.0</ele><time>2026-04-05T10:53:13.971Z</time></trkpt><trkpt lat="44.8801425" lon="7.2493799"><ele>662.0</ele><time>2026-04-05T10:53:14.971Z</time></trkpt><trkpt lat="44.8801349" lon="7.2492478"><ele>664.0</ele><time>2026-04-05T10:53:15.971Z</time></trkpt><trkpt lat="44.880132" lon="7.2491311"><ele>666.0</ele><time>2026-04-05T10:53:16.971Z</time></trkpt><trkpt lat="44.8801353" lon="7.2490025"><ele>668.0</ele><time>2026-04-05T10:53:17.971Z</time></trkpt><trkpt lat="44.8801461" lon="7.2488714"><ele>670.0</ele><time>2026-04-05T10:53:18.971Z</time></trkpt><trkpt lat="44.8801681" lon="7.2487502"><ele>670.0</ele><time>2026-04-05T10:53:19.971Z</time></trkpt><trkpt lat="44.8801852" lon="7.2486255"><ele>670.0</ele><time>2026-04-05T10:53:20.971Z</time></trkpt><trkpt lat="44.8802059" lon="7.2485014"><ele>670.0</ele><time>2026-04-05T10:53:21.971Z</time></trkpt><trkpt lat="44.8802187" lon="7.2483686"><ele>670.0</ele><time>2026-04-05T10:53:22.971Z</time></trkpt><trkpt lat="44.8802255" lon="7.2482394"><ele>670.0</ele><time>2026-04-05T10:53:23.971Z</time></trkpt><trkpt lat="44.8802273" lon="7.2481094"><ele>666.1666666666667</ele><time>2026-04-05T10:53:24.971Z</time></trkpt><trkpt lat="44.8802286" lon="7.2479909"><ele>662.3333333333334</ele><time>2026-04-05T10:53:25.971Z</time></trkpt><trkpt lat="44.8802234" lon="7.2478798"><ele>658.5</ele><time>2026-04-05T10:53:26.971Z</time></trkpt><trkpt lat="44.8802181" lon="7.2477724"><ele>654.6666666666666</ele><time>2026-04-05T10:53:27.971Z</time></trkpt><trkpt lat="44.8802015" lon="7.2476657"><ele>650.8333333333333</ele><time>2026-04-05T10:53:28.971Z</time></trkpt><trkpt lat="44.8801755" lon="7.247556"><ele>647.0</ele><time>2026-04-05T10:53:29.972Z</time></trkpt><trkpt lat="44.8801415" lon="7.2474526"><ele>647.0</ele><time>2026-04-05T10:53:30.971Z</time></trkpt><trkpt lat="44.8800944" lon="7.247355"><ele>647.0</ele><time>2026-04-05T10:53:31.971Z</time></trkpt><trkpt lat="44.880039" lon="7.2472689"><ele>647.0</ele><time>2026-04-05T10:53:32.971Z</time></trkpt><trkpt lat="44.8799816" lon="7.2472047"><ele>647.0</ele><time>2026-04-05T10:53:33.971Z</time></trkpt><trkpt lat="44.8799182" lon="7.2471398"><ele>647.0</ele><time>2026-04-05T10:53:34.971Z</time></trkpt><trkpt lat="44.8798545" lon="7.2470758"><ele>647.0</ele><time>2026-04-05T10:53:35.971Z</time></trkpt><trkpt lat="44.8797934" lon="7.2470068"><ele>647.0</ele><time>2026-04-05T10:53:36.971Z</time></trkpt><trkpt lat="44.87973" lon="7.2469403"><ele>647.0</ele><time>2026-04-05T10:53:37.971Z</time></trkpt><trkpt lat="44.8796616" lon="7.2468755"><ele>647.0</ele><time>2026-04-05T10:53:38.971Z</time></trkpt><trkpt lat="44.8795931" lon="7.2468163"><ele>647.0</ele><time>2026-04-05T10:53:39.971Z</time></trkpt><trkpt lat="44.8795241" lon="7.2467672"><ele>647.0</ele><time>2026-04-05T10:53:40.971Z</time></trkpt><trkpt lat="44.8794485" lon="7.2467217"><ele>647.0</ele><time>2026-04-05T10:53:41.971Z</time></trkpt><trkpt lat="44.8793708" lon="7.2466846"><ele>647.0</ele><time>2026-04-05T10:53:42.971Z</time></trkpt><trkpt lat="44.8792931" lon="7.2466515"><ele>647.0</ele><time>2026-04-05T10:53:43.971Z</time></trkpt><trkpt lat="44.8792121" lon="7.2466253"><ele>647.0</ele><time>2026-04-05T10:53:44.971Z</time></trkpt><trkpt lat="44.8791306" lon="7.2465901"><ele>647.0</ele><time>2026-04-05T10:53:45.971Z</time></trkpt><trkpt lat="44.879037" lon="7.2465433"><ele>647.0</ele><time>2026-04-05T10:53:46.971Z</time></trkpt><trkpt lat="44.878959" lon="7.2464918"><ele>647.0</ele><time>2026-04-05T10:53:47.971Z</time></trkpt><trkpt lat="44.8788938" lon="7.246419"><ele>654.0</ele><time>2026-04-05T10:53:48.971Z</time></trkpt><trkpt lat="44.8788279" lon="7.2463273"><ele>661.0</ele><time>2026-04-05T10:53:49.971Z</time></trkpt><trkpt lat="44.8787482" lon="7.2462146"><ele>668.0</ele><time>2026-04-05T10:53:50.971Z</time></trkpt><trkpt lat="44.8786587" lon="7.2460899"><ele>675.0</ele><time>2026-04-05T10:53:51.971Z</time></trkpt><trkpt lat="44.8785644" lon="7.2459661"><ele>675.0</ele><time>2026-04-05T10:53:52.971Z</time></trkpt><trkpt lat="44.8784891" lon="7.2458565"><ele>675.0</ele><time>2026-04-05T10:53:53.971Z</time></trkpt><trkpt lat="44.8784125" lon="7.2457499"><ele>675.0</ele><time>2026-04-05T10:53:54.971Z</time></trkpt><trkpt lat="44.8783269" lon="7.2456443"><ele>675.0</ele><time>2026-04-05T10:53:55.971Z</time></trkpt><trkpt lat="44.8782416" lon="7.2455417"><ele>675.0</ele><time>2026-04-05T10:53:56.971Z</time></trkpt><trkpt lat="44.8781604" lon="7.2454594"><ele>676.2</ele><time>2026-04-05T10:53:57.971Z</time></trkpt><trkpt lat="44.8780722" lon="7.2453651"><ele>677.4</ele><time>2026-04-05T10:53:58.971Z</time></trkpt><trkpt lat="44.8779908" lon="7.245265"><ele>678.5999999999999</ele><time>2026-04-05T10:53:59.971Z</time></trkpt><trkpt lat="44.8779202" lon="7.2451618"><ele>679.8</ele><time>2026-04-05T10:54:00.971Z</time></trkpt><trkpt lat="44.8778582" lon="7.2450514"><ele>681.0</ele><time>2026-04-05T10:54:01.971Z</time></trkpt><trkpt lat="44.877794" lon="7.2449488"><ele>681.0</ele><time>2026-04-05T10:54:02.971Z</time></trkpt><trkpt lat="44.8777358" lon="7.2448437"><ele>681.0</ele><time>2026-04-05T10:54:03.971Z</time></trkpt><trkpt lat="44.8776782" lon="7.244754"><ele>681.0</ele><time>2026-04-05T10:54:04.971Z</time></trkpt><trkpt lat="44.8776159" lon="7.2446837"><ele>681.0</ele><time>2026-04-05T10:54:05.971Z</time></trkpt><trkpt lat="44.8775433" lon="7.2446333"><ele>681.0</ele><time>2026-04-05T10:54:06.971Z</time></trkpt><trkpt lat="44.8774689" lon="7.2445768"><ele>681.0</ele><time>2026-04-05T10:54:07.971Z</time></trkpt><trkpt lat="44.877397" lon="7.2445009"><ele>684.3333333333334</ele><time>2026-04-05T10:54:08.971Z</time></trkpt><trkpt lat="44.8773342" lon="7.2444105"><ele>687.6666666666666</ele><time>2026-04-05T10:54:09.971Z</time></trkpt><trkpt lat="44.8772781" lon="7.2443063"><ele>691.0</ele><time>2026-04-05T10:54:10.971Z</time></trkpt><trkpt lat="44.8772245" lon="7.2441917"><ele>694.3333333333333</ele><time>2026-04-05T10:54:11.971Z</time></trkpt><trkpt lat="44.8771742" lon="7.2440801"><ele>697.6666666666666</ele><time>2026-04-05T10:54:12.971Z</time></trkpt><trkpt lat="44.8771256" lon="7.2440021"><ele>701.0</ele><time>2026-04-05T10:54:13.971Z</time></trkpt><trkpt lat="44.8770625" lon="7.2439369"><ele>701.1999999999999</ele><time>2026-04-05T10:54:14.971Z</time></trkpt><trkpt lat="44.876989" lon="7.2439044"><ele>701.4</ele><time>2026-04-05T10:54:15.971Z</time></trkpt><trkpt lat="44.8769026" lon="7.2439055"><ele>701.6</ele><time>2026-04-05T10:54:16.971Z</time></trkpt><trkpt lat="44.8768151" lon="7.2439484"><ele>701.8</ele><time>2026-04-05T10:54:17.971Z</time></trkpt><trkpt lat="44.8767141" lon="7.2439792"><ele>702.0</ele><time>2026-04-05T10:54:18.971Z</time></trkpt><trkpt lat="44.8766005" lon="7.2439629"><ele>704.8</ele><time>2026-04-05T10:54:19.971Z</time></trkpt><trkpt lat="44.8764798" lon="7.2439324"><ele>707.6</ele><time>2026-04-05T10:54:20.971Z</time></trkpt><trkpt lat="44.8763694" lon="7.2439091"><ele>710.4</ele><time>2026-04-05T10:54:21.971Z</time></trkpt><trkpt lat="44.8762664" lon="7.2438814"><ele>713.1999999999999</ele><time>2026-04-05T10:54:22.971Z</time></trkpt><trkpt lat="44.8761788" lon="7.2438719"><ele>716.0</ele><time>2026-04-05T10:54:23.971Z</time></trkpt><trkpt lat="44.8761022" lon="7.2438571"><ele>716.0</ele><time>2026-04-05T10:54:24.971Z</time></trkpt><trkpt lat="44.8760344" lon="7.2438321"><ele>716.0</ele><time>2026-04-05T10:54:25.971Z</time></trkpt><trkpt lat="44.875981" lon="7.2437733"><ele>716.0</ele><time>2026-04-05T10:54:26.971Z</time></trkpt><trkpt lat="44.8759209" lon="7.2437445"><ele>716.0</ele><time>2026-04-05T10:54:27.971Z</time></trkpt><trkpt lat="44.8758469" lon="7.2437968"><ele>716.0</ele><time>2026-04-05T10:54:29.971Z</time></trkpt><trkpt lat="44.8758543" lon="7.2439237"><ele>716.0</ele><time>2026-04-05T10:54:31.971Z</time></trkpt><trkpt lat="44.8759266" lon="7.24403"><ele>714.1999999999999</ele><time>2026-04-05T10:54:33.971Z</time></trkpt><trkpt lat="44.8759655" lon="7.2441603"><ele>712.4</ele><time>2026-04-05T10:54:35.971Z</time></trkpt><trkpt lat="44.8759362" lon="7.2443453"><ele>710.6</ele><time>2026-04-05T10:54:37.971Z</time></trkpt><trkpt lat="44.8759052" lon="7.2444496"><ele>708.8</ele><time>2026-04-05T10:54:38.971Z</time></trkpt><trkpt lat="44.8758702" lon="7.2445619"><ele>707.0</ele><time>2026-04-05T10:54:39.971Z</time></trkpt><trkpt lat="44.8758336" lon="7.2446651"><ele>709.8333333333333</ele><time>2026-04-05T10:54:40.971Z</time></trkpt><trkpt lat="44.8757993" lon="7.2447568"><ele>712.6666666666666</ele><time>2026-04-05T10:54:41.971Z</time></trkpt><trkpt lat="44.8757591" lon="7.2448353"><ele>715.5</ele><time>2026-04-05T10:54:42.971Z</time></trkpt><trkpt lat="44.8757108" lon="7.24491"><ele>718.3333333333334</ele><time>2026-04-05T10:54:43.971Z</time></trkpt><trkpt lat="44.8756642" lon="7.2449746"><ele>721.1666666666667</ele><time>2026-04-05T10:54:44.971Z</time></trkpt><trkpt lat="44.8755531" lon="7.2450504"><ele>724.0</ele><time>2026-04-05T10:54:46.971Z</time></trkpt><trkpt lat="44.8754458" lon="7.2449747"><ele>724.0</ele><time>2026-04-05T10:54:48.971Z</time></trkpt><trkpt lat="44.8753907" lon="7.2449021"><ele>724.0</ele><time>2026-04-05T10:54:49.971Z</time></trkpt><trkpt lat="44.8753266" lon="7.2448158"><ele>724.0</ele><time>2026-04-05T10:54:50.971Z</time></trkpt><trkpt lat="44.8752554" lon="7.2447252"><ele>724.0</ele><time>2026-04-05T10:54:51.971Z</time></trkpt><trkpt lat="44.8751873" lon="7.24466"><ele>724.0</ele><time>2026-04-05T10:54:52.971Z</time></trkpt><trkpt lat="44.8751101" lon="7.2445864"><ele>724.0</ele><time>2026-04-05T10:54:53.971Z</time></trkpt><trkpt lat="44.8750568" lon="7.2445257"><ele>727.5</ele><time>2026-04-05T10:54:54.971Z</time></trkpt><trkpt lat="44.8750038" lon="7.2444585"><ele>731.0</ele><time>2026-04-05T10:54:55.971Z</time></trkpt><trkpt lat="44.8749577" lon="7.2443718"><ele>734.5</ele><time>2026-04-05T10:54:56.971Z</time></trkpt><trkpt lat="44.874921" lon="7.244269"><ele>738.0</ele><time>2026-04-05T10:54:57.971Z</time></trkpt><trkpt lat="44.8748742" lon="7.2441721"><ele>741.5</ele><time>2026-04-05T10:54:58.971Z</time></trkpt><trkpt lat="44.8748002" lon="7.2441061"><ele>745.0</ele><time>2026-04-05T10:54:59.971Z</time></trkpt><trkpt lat="44.87472" lon="7.2440841"><ele>745.0</ele><time>2026-04-05T10:55:00.971Z</time></trkpt><trkpt lat="44.8746342" lon="7.2440975"><ele>745.0</ele><time>2026-04-05T10:55:01.971Z</time></trkpt><trkpt lat="44.8745352" lon="7.2441314"><ele>745.0</ele><time>2026-04-05T10:55:02.971Z</time></trkpt><trkpt lat="44.8744266" lon="7.244182"><ele>745.0</ele><time>2026-04-05T10:55:03.971Z</time></trkpt><trkpt lat="44.8743029" lon="7.2442454"><ele>745.0</ele><time>2026-04-05T10:55:04.971Z</time></trkpt><trkpt lat="44.8741678" lon="7.244318"><ele>748.75</ele><time>2026-04-05T10:55:05.971Z</time></trkpt><trkpt lat="44.8740464" lon="7.244405"><ele>752.5</ele><time>2026-04-05T10:55:06.971Z</time></trkpt><trkpt lat="44.8739138" lon="7.2444931"><ele>756.25</ele><time>2026-04-05T10:55:07.971Z</time></trkpt><trkpt lat="44.8737821" lon="7.2445655"><ele>760.0</ele><time>2026-04-05T10:55:08.971Z</time></trkpt><trkpt lat="44.8736745" lon="7.2446204"><ele>760.0</ele><time>2026-04-05T10:55:09.971Z</time></trkpt><trkpt lat="44.8735908" lon="7.2446639"><ele>760.0</ele><time>2026-04-05T10:55:10.971Z</time></trkpt><trkpt lat="44.8735257" lon="7.2446973"><ele>760.0</ele><time>2026-04-05T10:55:11.971Z</time></trkpt><trkpt lat="44.8734373" lon="7.2446969"><ele>760.0</ele><time>2026-04-05T10:55:13.971Z</time></trkpt><trkpt lat="44.8734376" lon="7.2446075"><ele>760.0</ele><time>2026-04-05T10:55:15.971Z</time></trkpt><trkpt lat="44.8735138" lon="7.2445698"><ele>760.0</ele><time>2026-04-05T10:55:17.971Z</time></trkpt><trkpt lat="44.873619" lon="7.2444677"><ele>760.0</ele><time>2026-04-05T10:55:19.971Z</time></trkpt><trkpt lat="44.87367" lon="7.2443842"><ele>760.0</ele><time>2026-04-05T10:55:20.971Z</time></trkpt><trkpt lat="44.8737281" lon="7.2442901"><ele>760.0</ele><time>2026-04-05T10:55:21.971Z</time></trkpt><trkpt lat="44.8737819" lon="7.2441823"><ele>760.0</ele><time>2026-04-05T10:55:22.971Z</time></trkpt><trkpt lat="44.8738416" lon="7.2440685"><ele>760.0</ele><time>2026-04-05T10:55:23.971Z</time></trkpt><trkpt lat="44.873905" lon="7.2439468"><ele>764.0</ele><time>2026-04-05T10:55:24.971Z</time></trkpt><trkpt lat="44.8739677" lon="7.2438154"><ele>768.0</ele><time>2026-04-05T10:55:25.971Z</time></trkpt><trkpt lat="44.8740251" lon="7.243676"><ele>772.0</ele><time>2026-04-05T10:55:26.971Z</time></trkpt><trkpt lat="44.8740726" lon="7.2435342"><ele>776.0</ele><time>2026-04-05T10:55:27.971Z</time></trkpt><trkpt lat="44.874111" lon="7.2433858"><ele>776.0</ele><time>2026-04-05T10:55:28.971Z</time></trkpt><trkpt lat="44.8741424" lon="7.243261"><ele>776.0</ele><time>2026-04-05T10:55:29.971Z</time></trkpt><trkpt lat="44.8741599" lon="7.2431477"><ele>776.0</ele><time>2026-04-05T10:55:30.971Z</time></trkpt><trkpt lat="44.8741536" lon="7.243012"><ele>776.0</ele><time>2026-04-05T10:55:31.971Z</time></trkpt><trkpt lat="44.874144" lon="7.2428643"><ele>776.0</ele><time>2026-04-05T10:55:32.971Z</time></trkpt><trkpt lat="44.8741376" lon="7.2426991"><ele>779.0</ele><time>2026-04-05T10:55:33.971Z</time></trkpt><trkpt lat="44.8741417" lon="7.242543"><ele>782.0</ele><time>2026-04-05T10:55:34.971Z</time></trkpt><trkpt lat="44.8741568" lon="7.242394"><ele>785.0</ele><time>2026-04-05T10:55:35.972Z</time></trkpt><trkpt lat="44.874196" lon="7.2422542"><ele>788.0</ele><time>2026-04-05T10:55:36.971Z</time></trkpt><trkpt lat="44.8742522" lon="7.242159"><ele>791.0</ele><time>2026-04-05T10:55:37.971Z</time></trkpt><trkpt lat="44.8743122" lon="7.2420787"><ele>791.0000000000001</ele><time>2026-04-05T10:55:38.971Z</time></trkpt><trkpt lat="44.8743648" lon="7.2420167"><ele>791.0</ele><time>2026-04-05T10:55:39.971Z</time></trkpt><trkpt lat="44.8744037" lon="7.2419038"><ele>791.0</ele><time>2026-04-05T10:55:41.971Z</time></trkpt><trkpt lat="44.8743472" lon="7.241864"><ele>791.0</ele><time>2026-04-05T10:55:43.971Z</time></trkpt><trkpt lat="44.8742469" lon="7.2419472"><ele>791.0000000000001</ele><time>2026-04-05T10:55:45.971Z</time></trkpt><trkpt lat="44.8741716" lon="7.2420107"><ele>791.0</ele><time>2026-04-05T10:55:46.971Z</time></trkpt><trkpt lat="44.8740824" lon="7.2420752"><ele>791.0</ele><time>2026-04-05T10:55:47.971Z</time></trkpt><trkpt lat="44.8739906" lon="7.2421733"><ele>791.0</ele><time>2026-04-05T10:55:48.971Z</time></trkpt><trkpt lat="44.873891" lon="7.242301"><ele>791.0</ele><time>2026-04-05T10:55:49.971Z</time></trkpt><trkpt lat="44.8737998" lon="7.2424282"><ele>791.0</ele><time>2026-04-05T10:55:50.971Z</time></trkpt><trkpt lat="44.873719" lon="7.2425444"><ele>791.0000000000001</ele><time>2026-04-05T10:55:51.971Z</time></trkpt><trkpt lat="44.8736569" lon="7.2426422"><ele>791.0</ele><time>2026-04-05T10:55:52.971Z</time></trkpt><trkpt lat="44.873608" lon="7.2427234"><ele>791.0</ele><time>2026-04-05T10:55:53.971Z</time></trkpt><trkpt lat="44.8735674" lon="7.2427971"><ele>791.0</ele><time>2026-04-05T10:55:54.971Z</time></trkpt><trkpt lat="44.8735039" lon="7.2429095"><ele>791.0000000000001</ele><time>2026-04-05T10:55:56.971Z</time></trkpt><trkpt lat="44.8734318" lon="7.2428868"><ele>791.0</ele><time>2026-04-05T10:55:58.971Z</time></trkpt><trkpt lat="44.8734343" lon="7.2427782"><ele>791.0</ele><time>2026-04-05T10:56:00.971Z</time></trkpt><trkpt lat="44.8734541" lon="7.2426899"><ele>791.0</ele><time>2026-04-05T10:56:01.971Z</time></trkpt><trkpt lat="44.8734664" lon="7.2425821"><ele>791.0</ele><time>2026-04-05T10:56:02.971Z</time></trkpt><trkpt lat="44.8734827" lon="7.2424557"><ele>791.0</ele><time>2026-04-05T10:56:03.971Z</time></trkpt><trkpt lat="44.8734968" lon="7.2422929"><ele>791.0</ele><time>2026-04-05T10:56:04.971Z</time></trkpt><trkpt lat="44.8735147" lon="7.2421378"><ele>795.0</ele><time>2026-04-05T10:56:05.971Z</time></trkpt><trkpt lat="44.8735414" lon="7.2419624"><ele>799.0</ele><time>2026-04-05T10:56:06.971Z</time></trkpt><trkpt lat="44.8735797" lon="7.2417873"><ele>803.0</ele><time>2026-04-05T10:56:07.971Z</time></trkpt><trkpt lat="44.8736307" lon="7.241602"><ele>807.0</ele><time>2026-04-05T10:56:08.971Z</time></trkpt><trkpt lat="44.8736993" lon="7.2414126"><ele>810.0</ele><time>2026-04-05T10:56:09.971Z</time></trkpt><trkpt lat="44.873755" lon="7.2412528"><ele>813.0</ele><time>2026-04-05T10:56:10.971Z</time></trkpt><trkpt lat="44.8738051" lon="7.2411138"><ele>816.0</ele><time>2026-04-05T10:56:11.971Z</time></trkpt><trkpt lat="44.873846" lon="7.2409946"><ele>819.0</ele><time>2026-04-05T10:56:12.971Z</time></trkpt><trkpt lat="44.8738806" lon="7.240883"><ele>822.0</ele><time>2026-04-05T10:56:13.971Z</time></trkpt><trkpt lat="44.8738913" lon="7.2407719"><ele>822.0</ele><time>2026-04-05T10:56:14.971Z</time></trkpt><trkpt lat="44.8738842" lon="7.2406745"><ele>822.0</ele><time>2026-04-05T10:56:15.971Z</time></trkpt><trkpt lat="44.8738607" lon="7.2405852"><ele>822.0</ele><time>2026-04-05T10:56:16.971Z</time></trkpt><trkpt lat="44.8738157" lon="7.2405108"><ele>822.0</ele><time>2026-04-05T10:56:17.971Z</time></trkpt><trkpt lat="44.8737466" lon="7.2404562"><ele>822.0</ele><time>2026-04-05T10:56:18.971Z</time></trkpt><trkpt lat="44.8736593" lon="7.2404171"><ele>822.0</ele><time>2026-04-05T10:56:19.971Z</time></trkpt><trkpt lat="44.8735556" lon="7.2403831"><ele>826.25</ele><time>2026-04-05T10:56:20.971Z</time></trkpt><trkpt lat="44.8734339" lon="7.240356"><ele>830.5</ele><time>2026-04-05T10:56:21.971Z</time></trkpt><trkpt lat="44.8732967" lon="7.2403413"><ele>834.75</ele><time>2026-04-05T10:56:22.971Z</time></trkpt><trkpt lat="44.8731493" lon="7.2403285"><ele>839.0</ele><time>2026-04-05T10:56:23.971Z</time></trkpt><trkpt lat="44.8729993" lon="7.2403177"><ele>839.0</ele><time>2026-04-05T10:56:24.971Z</time></trkpt><trkpt lat="44.872846" lon="7.240322"><ele>839.0</ele><time>2026-04-05T10:56:25.971Z</time></trkpt><trkpt lat="44.8727058" lon="7.240351"><ele>839.0</ele><time>2026-04-05T10:56:26.971Z</time></trkpt><trkpt lat="44.8725608" lon="7.2404008"><ele>839.0</ele><time>2026-04-05T10:56:27.971Z</time></trkpt><trkpt lat="44.872428" lon="7.2404462"><ele>842.75</ele><time>2026-04-05T10:56:28.971Z</time></trkpt><trkpt lat="44.8722943" lon="7.2404709"><ele>846.5</ele><time>2026-04-05T10:56:29.971Z</time></trkpt><trkpt lat="44.8721759" lon="7.2404867"><ele>850.25</ele><time>2026-04-05T10:56:30.971Z</time></trkpt><trkpt lat="44.8720741" lon="7.2404907"><ele>854.0</ele><time>2026-04-05T10:56:31.971Z</time></trkpt><trkpt lat="44.8719731" lon="7.2404661"><ele>854.0</ele><time>2026-04-05T10:56:32.971Z</time></trkpt><trkpt lat="44.8718814" lon="7.2404131"><ele>854.0000000000001</ele><time>2026-04-05T10:56:33.971Z</time></trkpt><trkpt lat="44.871793" lon="7.2403314"><ele>854.0000000000001</ele><time>2026-04-05T10:56:34.971Z</time></trkpt><trkpt lat="44.8717018" lon="7.2402251"><ele>854.0</ele><time>2026-04-05T10:56:35.971Z</time></trkpt><trkpt lat="44.871604" lon="7.2401215"><ele>854.0</ele><time>2026-04-05T10:56:36.971Z</time></trkpt><trkpt lat="44.8715162" lon="7.2400218"><ele>857.25</ele><time>2026-04-05T10:56:37.971Z</time></trkpt><trkpt lat="44.8714418" lon="7.2399203"><ele>860.5</ele><time>2026-04-05T10:56:38.971Z</time></trkpt><trkpt lat="44.8713696" lon="7.239809"><ele>863.75</ele><time>2026-04-05T10:56:39.971Z</time></trkpt><trkpt lat="44.8712984" lon="7.239675"><ele>867.0</ele><time>2026-04-05T10:56:40.971Z</time></trkpt><trkpt lat="44.8712246" lon="7.2395314"><ele>870.0</ele><time>2026-04-05T10:56:41.971Z</time></trkpt><trkpt lat="44.8711552" lon="7.2393918"><ele>873.0</ele><time>2026-04-05T10:56:42.971Z</time></trkpt><trkpt lat="44.8711069" lon="7.2392684"><ele>876.0</ele><time>2026-04-05T10:56:43.971Z</time></trkpt><trkpt lat="44.8710814" lon="7.2391365"><ele>879.0</ele><time>2026-04-05T10:56:44.971Z</time></trkpt><trkpt lat="44.8710838" lon="7.2389899"><ele>882.0</ele><time>2026-04-05T10:56:45.971Z</time></trkpt><trkpt lat="44.8711004" lon="7.2388385"><ele>883.8</ele><time>2026-04-05T10:56:46.971Z</time></trkpt><trkpt lat="44.8711241" lon="7.2386869"><ele>885.6</ele><time>2026-04-05T10:56:47.971Z</time></trkpt><trkpt lat="44.8711442" lon="7.2385526"><ele>887.3999999999999</ele><time>2026-04-05T10:56:48.971Z</time></trkpt><trkpt lat="44.8711618" lon="7.2384164"><ele>889.1999999999999</ele><time>2026-04-05T10:56:49.971Z</time></trkpt><trkpt lat="44.8711646" lon="7.2382631"><ele>891.0</ele><time>2026-04-05T10:56:50.971Z</time></trkpt><trkpt lat="44.8711519" lon="7.2380856"><ele>892.5999999999999</ele><time>2026-04-05T10:56:51.971Z</time></trkpt><trkpt lat="44.87114" lon="7.2379199"><ele>894.1999999999999</ele><time>2026-04-05T10:56:52.971Z</time></trkpt><trkpt lat="44.8711364" lon="7.2377713"><ele>895.8000000000001</ele><time>2026-04-05T10:56:53.971Z</time></trkpt><trkpt lat="44.8711357" lon="7.2376531"><ele>897.4000000000001</ele><time>2026-04-05T10:56:54.971Z</time></trkpt><trkpt lat="44.8711162" lon="7.237526"><ele>899.0</ele><time>2026-04-05T10:56:55.971Z</time></trkpt><trkpt lat="44.8710962" lon="7.2373953"><ele>898.5000000000001</ele><time>2026-04-05T10:56:56.971Z</time></trkpt><trkpt lat="44.871082" lon="7.2372831"><ele>898.0</ele><time>2026-04-05T10:56:57.971Z</time></trkpt><trkpt lat="44.8710699" lon="7.2371732"><ele>897.5</ele><time>2026-04-05T10:56:58.971Z</time></trkpt><trkpt lat="44.8710539" lon="7.2370669"><ele>897.0</ele><time>2026-04-05T10:56:59.971Z</time></trkpt><trkpt lat="44.871032" lon="7.2369608"><ele>896.5000000000001</ele><time>2026-04-05T10:57:00.971Z</time></trkpt><trkpt lat="44.8709977" lon="7.2368653"><ele>896.0</ele><time>2026-04-05T10:57:01.971Z</time></trkpt><trkpt lat="44.870949" lon="7.2367852"><ele>897.5000000000001</ele><time>2026-04-05T10:57:02.971Z</time></trkpt><trkpt lat="44.8708825" lon="7.2367206"><ele>899.0</ele><time>2026-04-05T10:57:03.971Z</time></trkpt><trkpt lat="44.8708117" lon="7.2366932"><ele>900.5</ele><time>2026-04-05T10:57:04.971Z</time></trkpt><trkpt lat="44.8707351" lon="7.2367036"><ele>902.0</ele><time>2026-04-05T10:57:05.971Z</time></trkpt><trkpt lat="44.8706572" lon="7.2367401"><ele>903.5000000000001</ele><time>2026-04-05T10:57:06.971Z</time></trkpt><trkpt lat="44.8705841" lon="7.2367821"><ele>905.0</ele><time>2026-04-05T10:57:07.971Z</time></trkpt><trkpt lat="44.8705193" lon="7.2367767"><ele>905.0000000000001</ele><time>2026-04-05T10:57:08.971Z</time></trkpt><trkpt lat="44.8704239" lon="7.2367192"><ele>905.0</ele><time>2026-04-05T10:57:10.971Z</time></trkpt><trkpt lat="44.8703256" lon="7.2367641"><ele>905.0</ele><time>2026-04-05T10:57:12.971Z</time></trkpt><trkpt lat="44.8702819" lon="7.2368319"><ele>905.0</ele><time>2026-04-05T10:57:13.971Z</time></trkpt><trkpt lat="44.870231" lon="7.236913"><ele>905.0000000000001</ele><time>2026-04-05T10:57:14.971Z</time></trkpt><trkpt lat="44.8701691" lon="7.2370015"><ele>905.0</ele><time>2026-04-05T10:57:15.971Z</time></trkpt><trkpt lat="44.8700974" lon="7.2370974"><ele>906.4</ele><time>2026-04-05T10:57:16.971Z</time></trkpt><trkpt lat="44.8700129" lon="7.2372134"><ele>907.8</ele><time>2026-04-05T10:57:17.971Z</time></trkpt><trkpt lat="44.8699168" lon="7.237325"><ele>909.2</ele><time>2026-04-05T10:57:18.971Z</time></trkpt><trkpt lat="44.8698338" lon="7.237421"><ele>910.6</ele><time>2026-04-05T10:57:19.971Z</time></trkpt><trkpt lat="44.8697598" lon="7.2375045"><ele>912.0</ele><time>2026-04-05T10:57:20.971Z</time></trkpt><trkpt lat="44.8696903" lon="7.2375739"><ele>912.0</ele><time>2026-04-05T10:57:21.971Z</time></trkpt><trkpt lat="44.8696252" lon="7.2376274"><ele>912.0</ele><time>2026-04-05T10:57:22.971Z</time></trkpt><trkpt lat="44.8695519" lon="7.237683"><ele>912.0</ele><time>2026-04-05T10:57:23.971Z</time></trkpt><trkpt lat="44.8694731" lon="7.2377352"><ele>912.0</ele><time>2026-04-05T10:57:24.971Z</time></trkpt><trkpt lat="44.8694037" lon="7.2377712"><ele>912.0</ele><time>2026-04-05T10:57:25.971Z</time></trkpt><trkpt lat="44.869332" lon="7.2378008"><ele>912.0</ele><time>2026-04-05T10:57:26.971Z</time></trkpt><trkpt lat="44.8692605" lon="7.2378304"><ele>915.0</ele><time>2026-04-05T10:57:27.971Z</time></trkpt><trkpt lat="44.8691845" lon="7.2378527"><ele>918.0</ele><time>2026-04-05T10:57:28.971Z</time></trkpt><trkpt lat="44.8691123" lon="7.2378732"><ele>921.0</ele><time>2026-04-05T10:57:29.971Z</time></trkpt><trkpt lat="44.8690419" lon="7.2379087"><ele>924.0</ele><time>2026-04-05T10:57:30.971Z</time></trkpt><trkpt lat="44.8689716" lon="7.2379646"><ele>927.0</ele><time>2026-04-05T10:57:31.971Z</time></trkpt><trkpt lat="44.8689067" lon="7.2380396"><ele>930.0</ele><time>2026-04-05T10:57:32.971Z</time></trkpt><trkpt lat="44.8688365" lon="7.2381346"><ele>926.0</ele><time>2026-04-05T10:57:33.971Z</time></trkpt><trkpt lat="44.8687673" lon="7.2382347"><ele>922.0</ele><time>2026-04-05T10:57:34.971Z</time></trkpt><trkpt lat="44.8687015" lon="7.2383296"><ele>918.0</ele><time>2026-04-05T10:57:35.971Z</time></trkpt><trkpt lat="44.8686388" lon="7.2384207"><ele>914.0</ele><time>2026-04-05T10:57:36.971Z</time></trkpt><trkpt lat="44.8685678" lon="7.2385056"><ele>910.0</ele><time>2026-04-05T10:57:37.971Z</time></trkpt><trkpt lat="44.868502" lon="7.2385808"><ele>915.4</ele><time>2026-04-05T10:57:38.971Z</time></trkpt><trkpt lat="44.8684267" lon="7.2386419"><ele>920.8</ele><time>2026-04-05T10:57:39.971Z</time></trkpt><trkpt lat="44.8683565" lon="7.2386809"><ele>926.2</ele><time>2026-04-05T10:57:40.971Z</time></trkpt><trkpt lat="44.8682209" lon="7.2386736"><ele>931.6</ele><time>2026-04-05T10:57:42.972Z</time></trkpt><trkpt lat="44.8681518" lon="7.2386615"><ele>937.0</ele><time>2026-04-05T10:57:43.971Z</time></trkpt><trkpt lat="44.8680689" lon="7.238627"><ele>936.9999999999999</ele><time>2026-04-05T10:57:44.971Z</time></trkpt><trkpt lat="44.8679963" lon="7.2386224"><ele>937.0</ele><time>2026-04-05T10:57:45.971Z</time></trkpt><trkpt lat="44.8679217" lon="7.2386432"><ele>937.0</ele><time>2026-04-05T10:57:46.972Z</time></trkpt><trkpt lat="44.8678523" lon="7.2386864"><ele>937.0</ele><time>2026-04-05T10:57:47.971Z</time></trkpt><trkpt lat="44.8677815" lon="7.2387458"><ele>936.9999999999999</ele><time>2026-04-05T10:57:48.971Z</time></trkpt><trkpt lat="44.8677141" lon="7.2388149"><ele>937.0</ele><time>2026-04-05T10:57:49.971Z</time></trkpt><trkpt lat="44.867657" lon="7.2388798"><ele>936.8333333333333</ele><time>2026-04-05T10:57:50.971Z</time></trkpt><trkpt lat="44.867597" lon="7.2389278"><ele>936.6666666666666</ele><time>2026-04-05T10:57:51.971Z</time></trkpt><trkpt lat="44.8675362" lon="7.238966"><ele>936.5</ele><time>2026-04-05T10:57:52.971Z</time></trkpt><trkpt lat="44.8673997" lon="7.2389804"><ele>936.3333333333333</ele><time>2026-04-05T10:57:54.971Z</time></trkpt><trkpt lat="44.8673194" lon="7.2389667"><ele>936.1666666666666</ele><time>2026-04-05T10:57:55.971Z</time></trkpt><trkpt lat="44.8672351" lon="7.2389305"><ele>936.0</ele><time>2026-04-05T10:57:56.971Z</time></trkpt><trkpt lat="44.8671596" lon="7.2388566"><ele>939.5999999999999</ele><time>2026-04-05T10:57:57.971Z</time></trkpt><trkpt lat="44.8670911" lon="7.2387876"><ele>943.1999999999999</ele><time>2026-04-05T10:57:58.971Z</time></trkpt><trkpt lat="44.8670165" lon="7.2387114"><ele>946.8000000000001</ele><time>2026-04-05T10:57:59.971Z</time></trkpt><trkpt lat="44.8669502" lon="7.2386224"><ele>950.4000000000001</ele><time>2026-04-05T10:58:00.971Z</time></trkpt><trkpt lat="44.8668574" lon="7.2385589"><ele>954.0</ele><time>2026-04-05T10:58:01.971Z</time></trkpt><trkpt lat="44.8667753" lon="7.2384826"><ele>955.0</ele><time>2026-04-05T10:58:02.971Z</time></trkpt><trkpt lat="44.8666997" lon="7.2383886"><ele>956.0000000000001</ele><time>2026-04-05T10:58:03.971Z</time></trkpt><trkpt lat="44.8666227" lon="7.2382928"><ele>957.0000000000001</ele><time>2026-04-05T10:58:04.971Z</time></trkpt><trkpt lat="44.8665301" lon="7.2382165"><ele>958.0</ele><time>2026-04-05T10:58:05.971Z</time></trkpt><trkpt lat="44.8664409" lon="7.2381442"><ele>959.0</ele><time>2026-04-05T10:58:06.971Z</time></trkpt><trkpt lat="44.8663443" lon="7.2380771"><ele>961.4000000000001</ele><time>2026-04-05T10:58:07.971Z</time></trkpt><trkpt lat="44.8662529" lon="7.2379949"><ele>963.8000000000001</ele><time>2026-04-05T10:58:08.971Z</time></trkpt><trkpt lat="44.8661562" lon="7.2379153"><ele>966.1999999999999</ele><time>2026-04-05T10:58:09.971Z</time></trkpt><trkpt lat="44.8660717" lon="7.2378423"><ele>968.5999999999999</ele><time>2026-04-05T10:58:10.971Z</time></trkpt><trkpt lat="44.86599" lon="7.2377761"><ele>971.0</ele><time>2026-04-05T10:58:11.971Z</time></trkpt><trkpt lat="44.8659178" lon="7.2377035"><ele>971.0</ele><time>2026-04-05T10:58:12.971Z</time></trkpt><trkpt lat="44.8658559" lon="7.2376171"><ele>970.9999999999999</ele><time>2026-04-05T10:58:13.971Z</time></trkpt><trkpt lat="44.8657946" lon="7.2374903"><ele>970.9999999999999</ele><time>2026-04-05T10:58:14.971Z</time></trkpt><trkpt lat="44.8657169" lon="7.2373804"><ele>971.0</ele><time>2026-04-05T10:58:15.971Z</time></trkpt><trkpt lat="44.8656357" lon="7.2372928"><ele>971.0</ele><time>2026-04-05T10:58:16.971Z</time></trkpt><trkpt lat="44.865556" lon="7.2372298"><ele>974.0</ele><time>2026-04-05T10:58:17.971Z</time></trkpt><trkpt lat="44.8654607" lon="7.2371856"><ele>976.9999999999999</ele><time>2026-04-05T10:58:18.971Z</time></trkpt><trkpt lat="44.8653673" lon="7.2371436"><ele>979.9999999999999</ele><time>2026-04-05T10:58:19.971Z</time></trkpt><trkpt lat="44.8652623" lon="7.2371842"><ele>983.0</ele><time>2026-04-05T10:58:20.971Z</time></trkpt><trkpt lat="44.8651808" lon="7.2371985"><ele>986.0</ele><time>2026-04-05T10:58:21.971Z</time></trkpt><trkpt lat="44.8650989" lon="7.2371981"><ele>986.0</ele><time>2026-04-05T10:58:22.971Z</time></trkpt><trkpt lat="44.8650107" lon="7.2371704"><ele>985.9999999999999</ele><time>2026-04-05T10:58:23.971Z</time></trkpt><trkpt lat="44.8649373" lon="7.2371088"><ele>985.9999999999999</ele><time>2026-04-05T10:58:24.971Z</time></trkpt><trkpt lat="44.8648621" lon="7.2370231"><ele>986.0</ele><time>2026-04-05T10:58:25.971Z</time></trkpt><trkpt lat="44.8647875" lon="7.2369166"><ele>986.0</ele><time>2026-04-05T10:58:26.971Z</time></trkpt><trkpt lat="44.8647122" lon="7.2367824"><ele>986.0</ele><time>2026-04-05T10:58:27.971Z</time></trkpt><trkpt lat="44.8646202" lon="7.2366368"><ele>986.0</ele><time>2026-04-05T10:58:28.971Z</time></trkpt><trkpt lat="44.8645311" lon="7.2365012"><ele>986.0</ele><time>2026-04-05T10:58:29.971Z</time></trkpt><trkpt lat="44.864446" lon="7.2363818"><ele>986.0</ele><time>2026-04-05T10:58:30.971Z</time></trkpt><trkpt lat="44.8643549" lon="7.2362881"><ele>985.4</ele><time>2026-04-05T10:58:31.971Z</time></trkpt><trkpt lat="44.8642849" lon="7.2362038"><ele>984.8</ele><time>2026-04-05T10:58:32.971Z</time></trkpt><trkpt lat="44.8642223" lon="7.2361145"><ele>984.1999999999999</ele><time>2026-04-05T10:58:33.971Z</time></trkpt><trkpt lat="44.8641642" lon="7.2360173"><ele>983.5999999999999</ele><time>2026-04-05T10:58:34.971Z</time></trkpt><trkpt lat="44.8641176" lon="7.2359148"><ele>983.0</ele><time>2026-04-05T10:58:35.971Z</time></trkpt><trkpt lat="44.8640825" lon="7.2357866"><ele>983.0000000000001</ele><time>2026-04-05T10:58:36.971Z</time></trkpt><trkpt lat="44.8640525" lon="7.2356623"><ele>983.0</ele><time>2026-04-05T10:58:37.971Z</time></trkpt><trkpt lat="44.864026" lon="7.2355447"><ele>983.0</ele><time>2026-04-05T10:58:38.971Z</time></trkpt><trkpt lat="44.8640018" lon="7.2354514"><ele>983.0</ele><time>2026-04-05T10:58:39.971Z</time></trkpt><trkpt lat="44.8639483" lon="7.2353354"><ele>983.0000000000001</ele><time>2026-04-05T10:58:41.971Z</time></trkpt><trkpt lat="44.8638672" lon="7.2353462"><ele>983.0</ele><time>2026-04-05T10:58:43.971Z</time></trkpt><trkpt lat="44.8637781" lon="7.2354186"><ele>986.1666666666667</ele><time>2026-04-05T10:58:45.971Z</time></trkpt><trkpt lat="44.8636774" lon="7.2354491"><ele>989.3333333333334</ele><time>2026-04-05T10:58:47.971Z</time></trkpt><trkpt lat="44.8635915" lon="7.2354301"><ele>992.5</ele><time>2026-04-05T10:58:49.971Z</time></trkpt><trkpt lat="44.8635185" lon="7.2353962"><ele>995.6666666666667</ele><time>2026-04-05T10:58:51.971Z</time></trkpt><trkpt lat="44.8634699" lon="7.2353292"><ele>998.8333333333334</ele><time>2026-04-05T10:58:53.971Z</time></trkpt><trkpt lat="44.8634559" lon="7.2352298"><ele>1002.0</ele><time>2026-04-05T10:58:55.971Z</time></trkpt><trkpt lat="44.8634289" lon="7.2351296"><ele>1002.0</ele><time>2026-04-05T10:58:57.971Z</time></trkpt><trkpt lat="44.8633641" lon="7.2350506"><ele>1002.0</ele><time>2026-04-05T10:58:59.971Z</time></trkpt><trkpt lat="44.8632876" lon="7.2350034"><ele>1002.0</ele><time>2026-04-05T10:59:01.971Z</time></trkpt><trkpt lat="44.8632016" lon="7.235013"><ele>1002.0</ele><time>2026-04-05T10:59:03.971Z</time></trkpt><trkpt lat="44.8631153" lon="7.2350098"><ele>1002.0</ele><time>2026-04-05T10:59:05.972Z</time></trkpt><trkpt lat="44.8630308" lon="7.2350275"><ele>1002.0</ele><time>2026-04-05T10:59:07.971Z</time></trkpt><trkpt lat="44.8629461" lon="7.2350546"><ele>1002.0</ele><time>2026-04-05T10:59:09.971Z</time></trkpt><trkpt lat="44.8628618" lon="7.2350975"><ele>1002.0</ele><time>2026-04-05T10:59:11.971Z</time></trkpt><trkpt lat="44.8627898" lon="7.2351577"><ele>1002.0</ele><time>2026-04-05T10:59:13.971Z</time></trkpt><trkpt lat="44.862695" lon="7.235204"><ele>1002.0</ele><time>2026-04-05T10:59:15.971Z</time></trkpt><trkpt lat="44.8625987" lon="7.2352513"><ele>1002.0</ele><time>2026-04-05T10:59:17.971Z</time></trkpt><trkpt lat="44.8625112" lon="7.2352967"><ele>1001.8</ele><time>2026-04-05T10:59:19.971Z</time></trkpt><trkpt lat="44.8624317" lon="7.2353173"><ele>1001.6</ele><time>2026-04-05T10:59:21.971Z</time></trkpt><trkpt lat="44.8623347" lon="7.2353244"><ele>1001.3999999999999</ele><time>2026-04-05T10:59:23.971Z</time></trkpt><trkpt lat="44.8622577" lon="7.2352898"><ele>1001.1999999999999</ele><time>2026-04-05T10:59:25.972Z</time></trkpt><trkpt lat="44.8621691" lon="7.2352358"><ele>1001.0</ele><time>2026-04-05T10:59:27.971Z</time></trkpt><trkpt lat="44.8620735" lon="7.2351647"><ele>1001.0</ele><time>2026-04-05T10:59:29.971Z</time></trkpt><trkpt lat="44.8619787" lon="7.2351"><ele>1000.9999999999999</ele><time>2026-04-05T10:59:31.971Z</time></trkpt><trkpt lat="44.8619022" lon="7.2351271"><ele>1000.9999999999999</ele><time>2026-04-05T10:59:33.971Z</time></trkpt><trkpt lat="44.8618614" lon="7.2352315"><ele>1001.0</ele><time>2026-04-05T10:59:35.971Z</time></trkpt><trkpt lat="44.8618292" lon="7.2353758"><ele>1001.0</ele><time>2026-04-05T10:59:37.971Z</time></trkpt><trkpt lat="44.8617912" lon="7.2355134"><ele>997.8</ele><time>2026-04-05T10:59:39.971Z</time></trkpt><trkpt lat="44.8617397" lon="7.2356808"><ele>994.5999999999999</ele><time>2026-04-05T10:59:41.971Z</time></trkpt><trkpt lat="44.8617139" lon="7.2357619"><ele>991.4</ele><time>2026-04-05T10:59:42.971Z</time></trkpt><trkpt lat="44.8616874" lon="7.2358542"><ele>988.2</ele><time>2026-04-05T10:59:43.971Z</time></trkpt><trkpt lat="44.8616445" lon="7.2360102"><ele>985.0</ele><time>2026-04-05T10:59:45.971Z</time></trkpt><trkpt lat="44.8616187" lon="7.2361415"><ele>984.9999999999999</ele><time>2026-04-05T10:59:46.971Z</time></trkpt><trkpt lat="44.861617" lon="7.2362543"><ele>985.0</ele><time>2026-04-05T10:59:47.971Z</time></trkpt><trkpt lat="44.8616083" lon="7.2363572"><ele>985.0</ele><time>2026-04-05T10:59:48.971Z</time></trkpt><trkpt lat="44.8615906" lon="7.2364598"><ele>985.0</ele><time>2026-04-05T10:59:49.971Z</time></trkpt><trkpt lat="44.8615625" lon="7.2365707"><ele>984.9999999999999</ele><time>2026-04-05T10:59:50.971Z</time></trkpt><trkpt lat="44.861521" lon="7.2366834"><ele>985.0</ele><time>2026-04-05T10:59:51.971Z</time></trkpt><trkpt lat="44.8614823" lon="7.2367822"><ele>982.4999999999999</ele><time>2026-04-05T10:59:52.971Z</time></trkpt><trkpt lat="44.8614353" lon="7.2368772"><ele>980.0</ele><time>2026-04-05T10:59:53.971Z</time></trkpt><trkpt lat="44.8613913" lon="7.2369596"><ele>977.5</ele><time>2026-04-05T10:59:54.971Z</time></trkpt><trkpt lat="44.861348" lon="7.2370524"><ele>975.0</ele><time>2026-04-05T10:59:55.971Z</time></trkpt><trkpt lat="44.8613109" lon="7.2371334"><ele>972.4999999999999</ele><time>2026-04-05T10:59:56.971Z</time></trkpt><trkpt lat="44.8612748" lon="7.2372303"><ele>970.0</ele><time>2026-04-05T10:59:57.971Z</time></trkpt><trkpt lat="44.861231" lon="7.237324"><ele>968.4999999999999</ele><time>2026-04-05T10:59:58.971Z</time></trkpt><trkpt lat="44.8611986" lon="7.2374198"><ele>967.0</ele><time>2026-04-05T10:59:59.971Z</time></trkpt><trkpt lat="44.8611644" lon="7.2375119"><ele>965.5</ele><time>2026-04-05T11:00:00.971Z</time></trkpt><trkpt lat="44.8611315" lon="7.2375999"><ele>964.0</ele><time>2026-04-05T11:00:01.971Z</time></trkpt><trkpt lat="44.8610843" lon="7.2377037"><ele>962.4999999999999</ele><time>2026-04-05T11:00:02.971Z</time></trkpt><trkpt lat="44.8610333" lon="7.2378027"><ele>961.0</ele><time>2026-04-05T11:00:03.971Z</time></trkpt><trkpt lat="44.8609922" lon="7.2378938"><ele>964.1666666666666</ele><time>2026-04-05T11:00:04.971Z</time></trkpt><trkpt lat="44.8609429" lon="7.2379794"><ele>967.3333333333333</ele><time>2026-04-05T11:00:05.971Z</time></trkpt><trkpt lat="44.8609015" lon="7.2380704"><ele>970.5</ele><time>2026-04-05T11:00:06.971Z</time></trkpt><trkpt lat="44.8608352" lon="7.2382048"><ele>973.6666666666667</ele><time>2026-04-05T11:00:08.971Z</time></trkpt><trkpt lat="44.8607546" lon="7.2382222"><ele>976.8333333333334</ele><time>2026-04-05T11:00:10.971Z</time></trkpt><trkpt lat="44.8606934" lon="7.238124"><ele>980.0</ele><time>2026-04-05T11:00:12.971Z</time></trkpt><trkpt lat="44.8606642" lon="7.2380324"><ele>983.3333333333334</ele><time>2026-04-05T11:00:13.971Z</time></trkpt><trkpt lat="44.8606282" lon="7.2379426"><ele>986.6666666666667</ele><time>2026-04-05T11:00:14.971Z</time></trkpt><trkpt lat="44.8605847" lon="7.2378636"><ele>990.0</ele><time>2026-04-05T11:00:15.971Z</time></trkpt><trkpt lat="44.8605203" lon="7.2377837"><ele>993.3333333333333</ele><time>2026-04-05T11:00:16.971Z</time></trkpt><trkpt lat="44.8604802" lon="7.2377144"><ele>996.6666666666666</ele><time>2026-04-05T11:00:17.971Z</time></trkpt><trkpt lat="44.8604413" lon="7.2376284"><ele>1000.0</ele><time>2026-04-05T11:00:18.971Z</time></trkpt><trkpt lat="44.8603675" lon="7.2374565"><ele>999.9999999999999</ele><time>2026-04-05T11:00:20.971Z</time></trkpt><trkpt lat="44.8603107" lon="7.2373889"><ele>1000.0</ele><time>2026-04-05T11:00:21.971Z</time></trkpt><trkpt lat="44.8602524" lon="7.237323"><ele>1000.0</ele><time>2026-04-05T11:00:22.971Z</time></trkpt><trkpt lat="44.8602063" lon="7.2372581"><ele>1000.0</ele><time>2026-04-05T11:00:23.971Z</time></trkpt><trkpt lat="44.86015" lon="7.2371901"><ele>999.9999999999999</ele><time>2026-04-05T11:00:24.971Z</time></trkpt><trkpt lat="44.8600944" lon="7.2370978"><ele>1000.0</ele><time>2026-04-05T11:00:25.971Z</time></trkpt><trkpt lat="44.8600197" lon="7.2370029"><ele>1004.6666666666666</ele><time>2026-04-05T11:00:26.971Z</time></trkpt><trkpt lat="44.8599684" lon="7.2369175"><ele>1009.3333333333333</ele><time>2026-04-05T11:00:27.971Z</time></trkpt><trkpt lat="44.8599188" lon="7.2368419"><ele>1014.0</ele><time>2026-04-05T11:00:28.971Z</time></trkpt><trkpt lat="44.8598642" lon="7.2367836"><ele>1018.6666666666667</ele><time>2026-04-05T11:00:29.971Z</time></trkpt><trkpt lat="44.8598047" lon="7.2367475"><ele>1023.3333333333334</ele><time>2026-04-05T11:00:30.971Z</time></trkpt><trkpt lat="44.8596833" lon="7.2367018"><ele>1028.0</ele><time>2026-04-05T11:00:32.971Z</time></trkpt><trkpt lat="44.8596172" lon="7.2366928"><ele>1028.0</ele><time>2026-04-05T11:00:33.971Z</time></trkpt><trkpt lat="44.8595465" lon="7.2366848"><ele>1028.0</ele><time>2026-04-05T11:00:34.971Z</time></trkpt><trkpt lat="44.8594241" lon="7.236624"><ele>1028.0</ele><time>2026-04-05T11:00:36.971Z</time></trkpt><trkpt lat="44.8593678" lon="7.2365593"><ele>1028.0</ele><time>2026-04-05T11:00:37.971Z</time></trkpt><trkpt lat="44.8593025" lon="7.2364792"><ele>1028.0</ele><time>2026-04-05T11:00:38.972Z</time></trkpt><trkpt lat="44.8592375" lon="7.2364114"><ele>1028.0</ele><time>2026-04-05T11:00:39.971Z</time></trkpt><trkpt lat="44.8591716" lon="7.2363639"><ele>1033.6</ele><time>2026-04-05T11:00:40.971Z</time></trkpt><trkpt lat="44.8591074" lon="7.2363182"><ele>1039.1999999999998</ele><time>2026-04-05T11:00:41.971Z</time></trkpt><trkpt lat="44.8590035" lon="7.236236"><ele>1044.8</ele><time>2026-04-05T11:00:43.971Z</time></trkpt><trkpt lat="44.858902" lon="7.2361973"><ele>1050.3999999999999</ele><time>2026-04-05T11:00:45.971Z</time></trkpt><trkpt lat="44.8588145" lon="7.2362356"><ele>1056.0</ele><time>2026-04-05T11:00:47.971Z</time></trkpt><trkpt lat="44.8587386" lon="7.2363134"><ele>1056.0</ele><time>2026-04-05T11:00:49.971Z</time></trkpt><trkpt lat="44.8586509" lon="7.236374"><ele>1056.0</ele><time>2026-04-05T11:00:51.971Z</time></trkpt><trkpt lat="44.85859" lon="7.2364026"><ele>1056.0</ele><time>2026-04-05T11:00:52.971Z</time></trkpt><trkpt lat="44.8585152" lon="7.2364584"><ele>1056.0</ele><time>2026-04-05T11:00:53.971Z</time></trkpt><trkpt lat="44.8584545" lon="7.2365007"><ele>1056.0</ele><time>2026-04-05T11:00:54.971Z</time></trkpt><trkpt lat="44.8583931" lon="7.2365718"><ele>1056.0</ele><time>2026-04-05T11:00:55.971Z</time></trkpt><trkpt lat="44.8583338" lon="7.2366496"><ele>1050.8333333333333</ele><time>2026-04-05T11:00:56.971Z</time></trkpt><trkpt lat="44.8582853" lon="7.2367224"><ele>1045.6666666666667</ele><time>2026-04-05T11:00:57.971Z</time></trkpt><trkpt lat="44.8582327" lon="7.2368131"><ele>1040.5</ele><time>2026-04-05T11:00:58.971Z</time></trkpt><trkpt lat="44.8581769" lon="7.2368894"><ele>1035.3333333333335</ele><time>2026-04-05T11:00:59.971Z</time></trkpt><trkpt lat="44.8581203" lon="7.2369896"><ele>1030.1666666666667</ele><time>2026-04-05T11:01:00.971Z</time></trkpt><trkpt lat="44.8580568" lon="7.2370968"><ele>1025.0</ele><time>2026-04-05T11:01:01.971Z</time></trkpt><trkpt lat="44.8579975" lon="7.2371668"><ele>1025.0</ele><time>2026-04-05T11:01:02.971Z</time></trkpt><trkpt lat="44.8579394" lon="7.2372591"><ele>1025.0</ele><time>2026-04-05T11:01:03.971Z</time></trkpt><trkpt lat="44.8578872" lon="7.237347"><ele>1025.0</ele><time>2026-04-05T11:01:04.971Z</time></trkpt><trkpt lat="44.8578355" lon="7.2374167"><ele>1025.0</ele><time>2026-04-05T11:01:05.971Z</time></trkpt><trkpt lat="44.8577823" lon="7.2374994"><ele>1025.0</ele><time>2026-04-05T11:01:06.971Z</time></trkpt><trkpt lat="44.8577324" lon="7.2375759"><ele>1025.0</ele><time>2026-04-05T11:01:07.971Z</time></trkpt><trkpt lat="44.857691" lon="7.2376542"><ele>1024.3333333333335</ele><time>2026-04-05T11:01:08.971Z</time></trkpt><trkpt lat="44.8576475" lon="7.2377589"><ele>1023.6666666666667</ele><time>2026-04-05T11:01:09.971Z</time></trkpt><trkpt lat="44.8576118" lon="7.2378594"><ele>1023.0</ele><time>2026-04-05T11:01:10.971Z</time></trkpt><trkpt lat="44.8575448" lon="7.2379985"><ele>1022.3333333333333</ele><time>2026-04-05T11:01:12.971Z</time></trkpt><trkpt lat="44.8575098" lon="7.238073"><ele>1021.6666666666666</ele><time>2026-04-05T11:01:13.971Z</time></trkpt><trkpt lat="44.8574776" lon="7.2381697"><ele>1021.0</ele><time>2026-04-05T11:01:14.971Z</time></trkpt><trkpt lat="44.8574386" lon="7.2383077"><ele>1021.0</ele><time>2026-04-05T11:01:16.971Z</time></trkpt><trkpt lat="44.8573884" lon="7.2384182"><ele>1020.9999999999999</ele><time>2026-04-05T11:01:18.971Z</time></trkpt><trkpt lat="44.8573205" lon="7.2384548"><ele>1020.9999999999999</ele><time>2026-04-05T11:01:20.971Z</time></trkpt><trkpt lat="44.8572499" lon="7.2384258"><ele>1021.0</ele><time>2026-04-05T11:01:22.971Z</time></trkpt><trkpt lat="44.857173" lon="7.2383367"><ele>1021.0</ele><time>2026-04-05T11:01:24.971Z</time></trkpt><trkpt lat="44.8570819" lon="7.2382146"><ele>1021.0</ele><time>2026-04-05T11:01:26.971Z</time></trkpt><trkpt lat="44.8570327" lon="7.2381555"><ele>1020.9999999999999</ele><time>2026-04-05T11:01:27.971Z</time></trkpt><trkpt lat="44.8569231" lon="7.2380745"><ele>1020.9999999999999</ele><time>2026-04-05T11:01:29.971Z</time></trkpt><trkpt lat="44.8568106" lon="7.2380193"><ele>1021.0</ele><time>2026-04-05T11:01:31.971Z</time></trkpt><trkpt lat="44.8567217" lon="7.23793"><ele>1021.0</ele><time>2026-04-05T11:01:33.971Z</time></trkpt><trkpt lat="44.8566138" lon="7.2378772"><ele>1029.0</ele><time>2026-04-05T11:01:35.971Z</time></trkpt><trkpt lat="44.8565038" lon="7.2379114"><ele>1037.0</ele><time>2026-04-05T11:01:37.971Z</time></trkpt><trkpt lat="44.8564061" lon="7.2379739"><ele>1045.0</ele><time>2026-04-05T11:01:39.971Z</time></trkpt><trkpt lat="44.856313" lon="7.2379634"><ele>1053.0</ele><time>2026-04-05T11:01:41.971Z</time></trkpt><trkpt lat="44.8562174" lon="7.2379172"><ele>1061.0</ele><time>2026-04-05T11:01:43.971Z</time></trkpt><trkpt lat="44.8561162" lon="7.2379111"><ele>1061.0</ele><time>2026-04-05T11:01:45.971Z</time></trkpt><trkpt lat="44.8560206" lon="7.2380091"><ele>1061.0</ele><time>2026-04-05T11:01:47.971Z</time></trkpt><trkpt lat="44.8559686" lon="7.2380626"><ele>1061.0</ele><time>2026-04-05T11:01:48.971Z</time></trkpt><trkpt lat="44.8558649" lon="7.23812"><ele>1061.0</ele><time>2026-04-05T11:01:50.971Z</time></trkpt><trkpt lat="44.8557565" lon="7.238142"><ele>1061.0</ele><time>2026-04-05T11:01:52.971Z</time></trkpt><trkpt lat="44.8556672" lon="7.2382594"><ele>1054.0</ele><time>2026-04-05T11:01:54.971Z</time></trkpt><trkpt lat="44.8556209" lon="7.238337"><ele>1047.0</ele><time>2026-04-05T11:01:55.971Z</time></trkpt><trkpt lat="44.8555774" lon="7.2384266"><ele>1040.0</ele><time>2026-04-05T11:01:56.971Z</time></trkpt><trkpt lat="44.8555207" lon="7.2385248"><ele>1033.0</ele><time>2026-04-05T11:01:57.971Z</time></trkpt><trkpt lat="44.8554828" lon="7.2386484"><ele>1026.0</ele><time>2026-04-05T11:01:58.971Z</time></trkpt><trkpt lat="44.8554516" lon="7.2387553"><ele>1019.0</ele><time>2026-04-05T11:01:59.971Z</time></trkpt><trkpt lat="44.8554341" lon="7.2388536"><ele>1019.0000000000001</ele><time>2026-04-05T11:02:00.971Z</time></trkpt><trkpt lat="44.8554066" lon="7.2389364"><ele>1019.0</ele><time>2026-04-05T11:02:01.971Z</time></trkpt><trkpt lat="44.8553503" lon="7.2390039"><ele>1019.0</ele><time>2026-04-05T11:02:03.971Z</time></trkpt><trkpt lat="44.8552877" lon="7.2390258"><ele>1019.0</ele><time>2026-04-05T11:02:05.971Z</time></trkpt><trkpt lat="44.8552225" lon="7.2390024"><ele>1019.0000000000001</ele><time>2026-04-05T11:02:07.971Z</time></trkpt><trkpt lat="44.8551417" lon="7.2389242"><ele>1019.0</ele><time>2026-04-05T11:02:09.971Z</time></trkpt><trkpt lat="44.8550347" lon="7.2389178"><ele>1019.1666666666667</ele><time>2026-04-05T11:02:11.971Z</time></trkpt><trkpt lat="44.8549166" lon="7.2389918"><ele>1019.3333333333334</ele><time>2026-04-05T11:02:13.971Z</time></trkpt><trkpt lat="44.8548653" lon="7.2390561"><ele>1019.5</ele><time>2026-04-05T11:02:14.971Z</time></trkpt><trkpt lat="44.8548114" lon="7.2391229"><ele>1019.6666666666667</ele><time>2026-04-05T11:02:15.971Z</time></trkpt><trkpt lat="44.8547642" lon="7.2392048"><ele>1019.8333333333334</ele><time>2026-04-05T11:02:16.971Z</time></trkpt><trkpt lat="44.8547184" lon="7.2392782"><ele>1020.0</ele><time>2026-04-05T11:02:17.971Z</time></trkpt><trkpt lat="44.8546682" lon="7.2393348"><ele>1020.0</ele><time>2026-04-05T11:02:18.971Z</time></trkpt><trkpt lat="44.8546104" lon="7.2393945"><ele>1020.0</ele><time>2026-04-05T11:02:19.971Z</time></trkpt><trkpt lat="44.8545324" lon="7.2394932"><ele>1020.0</ele><time>2026-04-05T11:02:21.971Z</time></trkpt><trkpt lat="44.8544837" lon="7.2396635"><ele>1020.0</ele><time>2026-04-05T11:02:23.971Z</time></trkpt><trkpt lat="44.8544418" lon="7.2397959"><ele>1020.0</ele><time>2026-04-05T11:02:25.971Z</time></trkpt><trkpt lat="44.8543834" lon="7.2398686"><ele>1018.75</ele><time>2026-04-05T11:02:27.971Z</time></trkpt><trkpt lat="44.8542891" lon="7.239881"><ele>1017.5</ele><time>2026-04-05T11:02:29.971Z</time></trkpt><trkpt lat="44.854165" lon="7.2398538"><ele>1016.25</ele><time>2026-04-05T11:02:31.971Z</time></trkpt><trkpt lat="44.8540404" lon="7.2398378"><ele>1015.0</ele><time>2026-04-05T11:02:33.971Z</time></trkpt><trkpt lat="44.8539249" lon="7.2399105"><ele>1014.9999999999999</ele><time>2026-04-05T11:02:35.971Z</time></trkpt><trkpt lat="44.8538175" lon="7.2399713"><ele>1015.0</ele><time>2026-04-05T11:02:37.971Z</time></trkpt><trkpt lat="44.8537499" lon="7.2399933"><ele>1015.0</ele><time>2026-04-05T11:02:38.971Z</time></trkpt><trkpt lat="44.8536783" lon="7.2400337"><ele>1015.0</ele><time>2026-04-05T11:02:39.971Z</time></trkpt><trkpt lat="44.8536131" lon="7.2401066"><ele>1014.9999999999999</ele><time>2026-04-05T11:02:40.971Z</time></trkpt><trkpt lat="44.8535533" lon="7.2401702"><ele>1015.0</ele><time>2026-04-05T11:02:41.971Z</time></trkpt><trkpt lat="44.8534908" lon="7.2402102"><ele>1018.1666666666666</ele><time>2026-04-05T11:02:42.971Z</time></trkpt><trkpt lat="44.8534287" lon="7.2402498"><ele>1021.3333333333333</ele><time>2026-04-05T11:02:43.971Z</time></trkpt><trkpt lat="44.8533641" lon="7.240263"><ele>1024.5</ele><time>2026-04-05T11:02:44.971Z</time></trkpt><trkpt lat="44.8532597" lon="7.2403159"><ele>1027.6666666666667</ele><time>2026-04-05T11:02:46.971Z</time></trkpt><trkpt lat="44.8531778" lon="7.2404224"><ele>1030.8333333333335</ele><time>2026-04-05T11:02:48.971Z</time></trkpt><trkpt lat="44.853147" lon="7.2405049"><ele>1034.0</ele><time>2026-04-05T11:02:49.971Z</time></trkpt><trkpt lat="44.8531361" lon="7.2405944"><ele>1028.0</ele><time>2026-04-05T11:02:50.971Z</time></trkpt><trkpt lat="44.853118" lon="7.2407463"><ele>1022.0000000000001</ele><time>2026-04-05T11:02:51.971Z</time></trkpt><trkpt lat="44.8530997" lon="7.2408847"><ele>1016.0000000000001</ele><time>2026-04-05T11:02:52.971Z</time></trkpt><trkpt lat="44.853099" lon="7.2409743"><ele>1010.0</ele><time>2026-04-05T11:02:53.971Z</time></trkpt><trkpt lat="44.8530991" lon="7.2411241"><ele>1004.0</ele><time>2026-04-05T11:02:54.971Z</time></trkpt><trkpt lat="44.8530988" lon="7.241258"><ele>1004.0000000000001</ele><time>2026-04-05T11:02:55.971Z</time></trkpt><trkpt lat="44.8531067" lon="7.241367"><ele>1004.0</ele><time>2026-04-05T11:02:56.971Z</time></trkpt><trkpt lat="44.8531071" lon="7.2414851"><ele>1004.0</ele><time>2026-04-05T11:02:57.971Z</time></trkpt><trkpt lat="44.8530965" lon="7.2415872"><ele>1004.0</ele><time>2026-04-05T11:02:58.971Z</time></trkpt><trkpt lat="44.8530831" lon="7.2416956"><ele>1004.0000000000001</ele><time>2026-04-05T11:02:59.971Z</time></trkpt><trkpt lat="44.8530702" lon="7.2417969"><ele>1004.0</ele><time>2026-04-05T11:03:00.971Z</time></trkpt><trkpt lat="44.8530367" lon="7.2418979"><ele>1003.3333333333334</ele><time>2026-04-05T11:03:01.971Z</time></trkpt><trkpt lat="44.8530024" lon="7.2419865"><ele>1002.6666666666667</ele><time>2026-04-05T11:03:02.971Z</time></trkpt><trkpt lat="44.8529678" lon="7.2420773"><ele>1002.0</ele><time>2026-04-05T11:03:03.971Z</time></trkpt><trkpt lat="44.8529393" lon="7.2421614"><ele>1001.3333333333333</ele><time>2026-04-05T11:03:04.971Z</time></trkpt><trkpt lat="44.8529029" lon="7.2422465"><ele>1000.6666666666666</ele><time>2026-04-05T11:03:05.971Z</time></trkpt><trkpt lat="44.8528506" lon="7.2424067"><ele>1000.0</ele><time>2026-04-05T11:03:07.971Z</time></trkpt><trkpt lat="44.8528249" lon="7.2424951"><ele>999.1428571428571</ele><time>2026-04-05T11:03:08.971Z</time></trkpt><trkpt lat="44.8528029" lon="7.2425926"><ele>998.2857142857143</ele><time>2026-04-05T11:03:09.971Z</time></trkpt><trkpt lat="44.8527828" lon="7.2426796"><ele>997.4285714285714</ele><time>2026-04-05T11:03:10.971Z</time></trkpt><trkpt lat="44.852761" lon="7.2427645"><ele>996.5714285714286</ele><time>2026-04-05T11:03:11.971Z</time></trkpt><trkpt lat="44.8527451" lon="7.2428704"><ele>995.7142857142858</ele><time>2026-04-05T11:03:13.971Z</time></trkpt><trkpt lat="44.8527354" lon="7.2429717"><ele>994.8571428571429</ele><time>2026-04-05T11:03:16.971Z</time></trkpt><trkpt lat="44.8527133" lon="7.2430643"><ele>994.0</ele><time>2026-04-05T11:03:28.971Z</time></trkpt><trkpt lat="44.8526358" lon="7.2430777"><ele>997.6666666666666</ele><time>2026-04-05T11:03:32.971Z</time></trkpt><trkpt lat="44.8525668" lon="7.2430278"><ele>1001.3333333333333</ele><time>2026-04-05T11:03:40.971Z</time></trkpt><trkpt lat="44.8525103" lon="7.2429705"><ele>1005.0</ele><time>2026-04-05T11:03:42.971Z</time></trkpt><trkpt lat="44.8524476" lon="7.2429021"><ele>1008.6666666666667</ele><time>2026-04-05T11:03:44.971Z</time></trkpt><trkpt lat="44.8523782" lon="7.2428358"><ele>1012.3333333333334</ele><time>2026-04-05T11:03:46.971Z</time></trkpt><trkpt lat="44.8523144" lon="7.2427437"><ele>1016.0</ele><time>2026-04-05T11:03:48.971Z</time></trkpt><trkpt lat="44.8522688" lon="7.2425935"><ele>1016.0000000000001</ele><time>2026-04-05T11:03:50.971Z</time></trkpt><trkpt lat="44.8522513" lon="7.2425045"><ele>1016.0</ele><time>2026-04-05T11:03:51.971Z</time></trkpt><trkpt lat="44.8522235" lon="7.242419"><ele>1016.0</ele><time>2026-04-05T11:03:52.971Z</time></trkpt><trkpt lat="44.8521636" lon="7.2422628"><ele>1016.0</ele><time>2026-04-05T11:03:54.971Z</time></trkpt><trkpt lat="44.85213" lon="7.2421876"><ele>1016.0000000000001</ele><time>2026-04-05T11:03:55.971Z</time></trkpt><trkpt lat="44.8520813" lon="7.2421243"><ele>1016.0</ele><time>2026-04-05T11:03:56.971Z</time></trkpt><trkpt lat="44.8519883" lon="7.2420167"><ele>1017.1999999999999</ele><time>2026-04-05T11:03:58.972Z</time></trkpt><trkpt lat="44.8519136" lon="7.2419893"><ele>1018.3999999999999</ele><time>2026-04-05T11:03:59.971Z</time></trkpt><trkpt lat="44.8518533" lon="7.2419575"><ele>1019.6</ele><time>2026-04-05T11:04:00.971Z</time></trkpt><trkpt lat="44.8517602" lon="7.2418703"><ele>1020.8</ele><time>2026-04-05T11:04:02.971Z</time></trkpt><trkpt lat="44.8517129" lon="7.2418005"><ele>1022.0</ele><time>2026-04-05T11:04:03.971Z</time></trkpt><trkpt lat="44.8516015" lon="7.2416877"><ele>1022.0</ele><time>2026-04-05T11:04:05.971Z</time></trkpt><trkpt lat="44.8515359" lon="7.2416431"><ele>1022.0</ele><time>2026-04-05T11:04:06.971Z</time></trkpt><trkpt lat="44.8514687" lon="7.241599"><ele>1022.0</ele><time>2026-04-05T11:04:07.971Z</time></trkpt><trkpt lat="44.8513453" lon="7.2415416"><ele>1022.0</ele><time>2026-04-05T11:04:09.971Z</time></trkpt><trkpt lat="44.8512645" lon="7.241436"><ele>1022.0</ele><time>2026-04-05T11:04:11.971Z</time></trkpt><trkpt lat="44.8512395" lon="7.2412934"><ele>1025.8333333333335</ele><time>2026-04-05T11:04:13.971Z</time></trkpt><trkpt lat="44.85122" lon="7.2411117"><ele>1029.6666666666667</ele><time>2026-04-05T11:04:15.971Z</time></trkpt><trkpt lat="44.8512119" lon="7.2410225"><ele>1033.5</ele><time>2026-04-05T11:04:16.971Z</time></trkpt><trkpt lat="44.8511939" lon="7.2409357"><ele>1037.3333333333333</ele><time>2026-04-05T11:04:17.971Z</time></trkpt><trkpt lat="44.851164" lon="7.2408294"><ele>1041.1666666666665</ele><time>2026-04-05T11:04:18.971Z</time></trkpt><trkpt lat="44.8511253" lon="7.2407452"><ele>1045.0</ele><time>2026-04-05T11:04:19.971Z</time></trkpt><trkpt lat="44.8510927" lon="7.2406639"><ele>1047.8</ele><time>2026-04-05T11:04:20.971Z</time></trkpt><trkpt lat="44.8509918" lon="7.2405458"><ele>1050.6</ele><time>2026-04-05T11:04:22.971Z</time></trkpt><trkpt lat="44.850924" lon="7.2404991"><ele>1053.4</ele><time>2026-04-05T11:04:23.971Z</time></trkpt><trkpt lat="44.8508431" lon="7.2404717"><ele>1056.2</ele><time>2026-04-05T11:04:24.971Z</time></trkpt><trkpt lat="44.8507805" lon="7.2404924"><ele>1059.0</ele><time>2026-04-05T11:04:25.971Z</time></trkpt><trkpt lat="44.8506544" lon="7.240496"><ele>1059.0</ele><time>2026-04-05T11:04:27.971Z</time></trkpt><trkpt lat="44.8505844" lon="7.2405075"><ele>1059.0</ele><time>2026-04-05T11:04:28.971Z</time></trkpt><trkpt lat="44.8504991" lon="7.2405282"><ele>1059.0</ele><time>2026-04-05T11:04:29.971Z</time></trkpt><trkpt lat="44.8503853" lon="7.2405436"><ele>1059.0</ele><time>2026-04-05T11:04:31.972Z</time></trkpt><trkpt lat="44.8502677" lon="7.2405694"><ele>1059.0</ele><time>2026-04-05T11:04:33.971Z</time></trkpt><trkpt lat="44.8501531" lon="7.2406509"><ele>1057.6000000000001</ele><time>2026-04-05T11:04:35.971Z</time></trkpt><trkpt lat="44.8500927" lon="7.2406958"><ele>1056.2</ele><time>2026-04-05T11:04:36.971Z</time></trkpt><trkpt lat="44.8499929" lon="7.2407588"><ele>1054.8000000000002</ele><time>2026-04-05T11:04:38.971Z</time></trkpt><trkpt lat="44.8498892" lon="7.2407"><ele>1053.4</ele><time>2026-04-05T11:04:40.971Z</time></trkpt><trkpt lat="44.849798" lon="7.2406069"><ele>1052.0</ele><time>2026-04-05T11:04:42.971Z</time></trkpt><trkpt lat="44.8497079" lon="7.2404988"><ele>1052.0</ele><time>2026-04-05T11:04:44.971Z</time></trkpt><trkpt lat="44.84963" lon="7.2403774"><ele>1052.0</ele><time>2026-04-05T11:04:46.971Z</time></trkpt><trkpt lat="44.8495608" lon="7.2403211"><ele>1052.0</ele><time>2026-04-05T11:04:47.971Z</time></trkpt><trkpt lat="44.8495017" lon="7.2402866"><ele>1052.0</ele><time>2026-04-05T11:04:48.971Z</time></trkpt><trkpt lat="44.8493972" lon="7.2403049"><ele>1052.0</ele><time>2026-04-05T11:04:49.971Z</time></trkpt><trkpt lat="44.8493184" lon="7.2403094"><ele>1052.0</ele><time>2026-04-05T11:04:50.971Z</time></trkpt><trkpt lat="44.8492294" lon="7.2403315"><ele>1049.6</ele><time>2026-04-05T11:04:51.971Z</time></trkpt><trkpt lat="44.8491505" lon="7.2403504"><ele>1047.2</ele><time>2026-04-05T11:04:52.971Z</time></trkpt><trkpt lat="44.8490712" lon="7.2403633"><ele>1044.8</ele><time>2026-04-05T11:04:53.971Z</time></trkpt><trkpt lat="44.8489328" lon="7.2403413"><ele>1042.4</ele><time>2026-04-05T11:04:55.971Z</time></trkpt><trkpt lat="44.8488656" lon="7.2403126"><ele>1040.0</ele><time>2026-04-05T11:04:56.971Z</time></trkpt><trkpt lat="44.8487831" lon="7.240346"><ele>1040.0000000000002</ele><time>2026-04-05T11:04:57.971Z</time></trkpt><trkpt lat="44.8487167" lon="7.24039"><ele>1040.0</ele><time>2026-04-05T11:04:58.971Z</time></trkpt><trkpt lat="44.8486539" lon="7.2404208"><ele>1040.0</ele><time>2026-04-05T11:04:59.971Z</time></trkpt><trkpt lat="44.8485859" lon="7.2404347"><ele>1040.0</ele><time>2026-04-05T11:05:00.971Z</time></trkpt><trkpt lat="44.8485195" lon="7.2404269"><ele>1040.0</ele><time>2026-04-05T11:05:01.971Z</time></trkpt><trkpt lat="44.8484377" lon="7.2404192"><ele>1040.0000000000002</ele><time>2026-04-05T11:05:02.971Z</time></trkpt><trkpt lat="44.8483567" lon="7.240403"><ele>1040.0</ele><time>2026-04-05T11:05:03.971Z</time></trkpt><trkpt lat="44.8482954" lon="7.2403731"><ele>1039.6</ele><time>2026-04-05T11:05:04.971Z</time></trkpt><trkpt lat="44.8482343" lon="7.2403413"><ele>1039.2</ele><time>2026-04-05T11:05:05.971Z</time></trkpt><trkpt lat="44.8481592" lon="7.2401969"><ele>1038.8</ele><time>2026-04-05T11:05:07.971Z</time></trkpt><trkpt lat="44.8480835" lon="7.2400729"><ele>1038.4</ele><time>2026-04-05T11:05:09.971Z</time></trkpt><trkpt lat="44.8479712" lon="7.2399857"><ele>1038.0</ele><time>2026-04-05T11:05:11.971Z</time></trkpt><trkpt lat="44.8478811" lon="7.2399457"><ele>1038.0</ele><time>2026-04-05T11:05:13.971Z</time></trkpt><trkpt lat="44.8477886" lon="7.239976"><ele>1038.0</ele><time>2026-04-05T11:05:15.971Z</time></trkpt><trkpt lat="44.8477191" lon="7.2400061"><ele>1038.0</ele><time>2026-04-05T11:06:12.971Z</time></trkpt><trkpt lat="44.8476114" lon="7.2400318"><ele>1038.0</ele><time>2026-04-05T11:06:14.971Z</time></trkpt><trkpt lat="44.8474828" lon="7.2400337"><ele>1038.0</ele><time>2026-04-05T11:06:16.971Z</time></trkpt><trkpt lat="44.8474086" lon="7.2400062"><ele>1038.6</ele><time>2026-04-05T11:06:17.971Z</time></trkpt><trkpt lat="44.8473327" lon="7.2399556"><ele>1039.1999999999998</ele><time>2026-04-05T11:06:18.971Z</time></trkpt><trkpt lat="44.8472575" lon="7.2398657"><ele>1039.8</ele><time>2026-04-05T11:06:19.971Z</time></trkpt><trkpt lat="44.8471912" lon="7.2397503"><ele>1040.3999999999999</ele><time>2026-04-05T11:06:20.971Z</time></trkpt><trkpt lat="44.8471269" lon="7.2396318"><ele>1041.0</ele><time>2026-04-05T11:06:21.971Z</time></trkpt><trkpt lat="44.8470656" lon="7.2395176"><ele>1041.0</ele><time>2026-04-05T11:06:22.971Z</time></trkpt><trkpt lat="44.847005" lon="7.2393953"><ele>1041.0</ele><time>2026-04-05T11:06:23.971Z</time></trkpt><trkpt lat="44.8469672" lon="7.2392654"><ele>1041.0</ele><time>2026-04-05T11:06:24.971Z</time></trkpt><trkpt lat="44.8469581" lon="7.2391318"><ele>1041.0</ele><time>2026-04-05T11:06:25.971Z</time></trkpt><trkpt lat="44.8469745" lon="7.238986"><ele>1041.0</ele><time>2026-04-05T11:06:26.971Z</time></trkpt><trkpt lat="44.8470046" lon="7.2388465"><ele>1041.0</ele><time>2026-04-05T11:06:27.971Z</time></trkpt><trkpt lat="44.8470411" lon="7.2387177"><ele>1041.0</ele><time>2026-04-05T11:06:28.971Z</time></trkpt><trkpt lat="44.8470932" lon="7.2385922"><ele>1041.0</ele><time>2026-04-05T11:06:29.971Z</time></trkpt><trkpt lat="44.8471615" lon="7.2384764"><ele>1041.0</ele><time>2026-04-05T11:06:30.971Z</time></trkpt><trkpt lat="44.8472339" lon="7.2383535"><ele>1041.0</ele><time>2026-04-05T11:06:31.971Z</time></trkpt><trkpt lat="44.8473061" lon="7.2382287"><ele>1039.5</ele><time>2026-04-05T11:06:32.971Z</time></trkpt><trkpt lat="44.8473812" lon="7.2381084"><ele>1038.0</ele><time>2026-04-05T11:06:33.971Z</time></trkpt><trkpt lat="44.8474592" lon="7.2379916"><ele>1036.5</ele><time>2026-04-05T11:06:34.971Z</time></trkpt><trkpt lat="44.8475359" lon="7.2378773"><ele>1035.0</ele><time>2026-04-05T11:06:35.971Z</time></trkpt><trkpt lat="44.8476145" lon="7.2377671"><ele>1038.8</ele><time>2026-04-05T11:06:36.971Z</time></trkpt><trkpt lat="44.8476973" lon="7.2376608"><ele>1042.6</ele><time>2026-04-05T11:06:37.971Z</time></trkpt><trkpt lat="44.8477696" lon="7.2375472"><ele>1046.4</ele><time>2026-04-05T11:06:38.971Z</time></trkpt><trkpt lat="44.8478365" lon="7.2374262"><ele>1050.2</ele><time>2026-04-05T11:06:39.971Z</time></trkpt><trkpt lat="44.8479049" lon="7.2373113"><ele>1054.0</ele><time>2026-04-05T11:06:40.971Z</time></trkpt><trkpt lat="44.8479809" lon="7.2372131"><ele>1054.0</ele><time>2026-04-05T11:06:41.971Z</time></trkpt><trkpt lat="44.8480738" lon="7.2371521"><ele>1054.0</ele><time>2026-04-05T11:06:42.971Z</time></trkpt><trkpt lat="44.8481755" lon="7.2371083"><ele>1054.0</ele><time>2026-04-05T11:06:43.971Z</time></trkpt><trkpt lat="44.848281" lon="7.2370877"><ele>1054.0</ele><time>2026-04-05T11:06:44.971Z</time></trkpt><trkpt lat="44.8483673" lon="7.2370608"><ele>1054.0</ele><time>2026-04-05T11:06:45.971Z</time></trkpt><trkpt lat="44.8484354" lon="7.2370005"><ele>1057.8</ele><time>2026-04-05T11:06:46.971Z</time></trkpt><trkpt lat="44.8484956" lon="7.2369336"><ele>1061.6000000000001</ele><time>2026-04-05T11:06:47.971Z</time></trkpt><trkpt lat="44.8485341" lon="7.2368032"><ele>1065.4</ele><time>2026-04-05T11:06:48.971Z</time></trkpt><trkpt lat="44.8485595" lon="7.2366818"><ele>1069.2</ele><time>2026-04-05T11:06:49.971Z</time></trkpt><trkpt lat="44.8485728" lon="7.2365451"><ele>1073.0</ele><time>2026-04-05T11:06:50.971Z</time></trkpt><trkpt lat="44.8485827" lon="7.2364251"><ele>1073.0</ele><time>2026-04-05T11:06:51.971Z</time></trkpt><trkpt lat="44.8485917" lon="7.2363212"><ele>1073.0</ele><time>2026-04-05T11:06:52.971Z</time></trkpt><trkpt lat="44.8486188" lon="7.2362244"><ele>1073.0</ele><time>2026-04-05T11:06:53.971Z</time></trkpt><trkpt lat="44.8486563" lon="7.2361255"><ele>1073.0</ele><time>2026-04-05T11:06:54.971Z</time></trkpt><trkpt lat="44.8486963" lon="7.2360271"><ele>1073.0</ele><time>2026-04-05T11:06:55.971Z</time></trkpt><trkpt lat="44.8487471" lon="7.2359297"><ele>1073.0</ele><time>2026-04-05T11:06:56.971Z</time></trkpt><trkpt lat="44.8488042" lon="7.2358511"><ele>1073.0</ele><time>2026-04-05T11:06:57.971Z</time></trkpt><trkpt lat="44.8488756" lon="7.2357818"><ele>1073.0</ele><time>2026-04-05T11:06:58.971Z</time></trkpt><trkpt lat="44.8489564" lon="7.2357085"><ele>1073.0</ele><time>2026-04-05T11:06:59.971Z</time></trkpt><trkpt lat="44.8490376" lon="7.2356305"><ele>1073.0</ele><time>2026-04-05T11:07:00.971Z</time></trkpt><trkpt lat="44.8491066" lon="7.2355495"><ele>1073.0</ele><time>2026-04-05T11:07:01.971Z</time></trkpt><trkpt lat="44.8491627" lon="7.2354526"><ele>1073.5</ele><time>2026-04-05T11:07:02.971Z</time></trkpt><trkpt lat="44.849188" lon="7.2353539"><ele>1074.0</ele><time>2026-04-05T11:07:03.971Z</time></trkpt><trkpt lat="44.8491741" lon="7.2352424"><ele>1074.5</ele><time>2026-04-05T11:07:04.971Z</time></trkpt><trkpt lat="44.8491267" lon="7.2351537"><ele>1075.0</ele><time>2026-04-05T11:07:05.971Z</time></trkpt><trkpt lat="44.8490701" lon="7.2350605"><ele>1075.5</ele><time>2026-04-05T11:07:06.971Z</time></trkpt><trkpt lat="44.8490213" lon="7.2349539"><ele>1076.0</ele><time>2026-04-05T11:07:07.971Z</time></trkpt><trkpt lat="44.8489842" lon="7.2348275"><ele>1075.8333333333335</ele><time>2026-04-05T11:07:08.971Z</time></trkpt><trkpt lat="44.8489709" lon="7.2347059"><ele>1075.6666666666667</ele><time>2026-04-05T11:07:09.971Z</time></trkpt><trkpt lat="44.8489874" lon="7.2346048"><ele>1075.5</ele><time>2026-04-05T11:07:10.971Z</time></trkpt><trkpt lat="44.8490069" lon="7.2344898"><ele>1075.3333333333333</ele><time>2026-04-05T11:07:11.971Z</time></trkpt><trkpt lat="44.8490256" lon="7.2343713"><ele>1075.1666666666665</ele><time>2026-04-05T11:07:12.971Z</time></trkpt><trkpt lat="44.8490435" lon="7.2342482"><ele>1075.0</ele><time>2026-04-05T11:07:13.971Z</time></trkpt><trkpt lat="44.8490604" lon="7.2341241"><ele>1075.0</ele><time>2026-04-05T11:07:14.971Z</time></trkpt><trkpt lat="44.8490756" lon="7.2339913"><ele>1075.0</ele><time>2026-04-05T11:07:15.971Z</time></trkpt><trkpt lat="44.8491012" lon="7.2338537"><ele>1075.0</ele><time>2026-04-05T11:07:16.971Z</time></trkpt><trkpt lat="44.8491219" lon="7.2337071"><ele>1075.0</ele><time>2026-04-05T11:07:17.971Z</time></trkpt><trkpt lat="44.8491241" lon="7.2335559"><ele>1075.0</ele><time>2026-04-05T11:07:18.971Z</time></trkpt><trkpt lat="44.84911" lon="7.2334052"><ele>1073.8</ele><time>2026-04-05T11:07:19.971Z</time></trkpt><trkpt lat="44.8491061" lon="7.2332645"><ele>1072.6</ele><time>2026-04-05T11:07:20.971Z</time></trkpt><trkpt lat="44.8491117" lon="7.2331233"><ele>1071.4</ele><time>2026-04-05T11:07:21.971Z</time></trkpt><trkpt lat="44.8491279" lon="7.2329842"><ele>1070.2</ele><time>2026-04-05T11:07:22.971Z</time></trkpt><trkpt lat="44.8491447" lon="7.2328426"><ele>1069.0</ele><time>2026-04-05T11:07:23.971Z</time></trkpt><trkpt lat="44.8491601" lon="7.2326919"><ele>1068.4</ele><time>2026-04-05T11:07:24.971Z</time></trkpt><trkpt lat="44.8491658" lon="7.2325484"><ele>1067.8000000000002</ele><time>2026-04-05T11:07:25.971Z</time></trkpt><trkpt lat="44.8491636" lon="7.2324104"><ele>1067.1999999999998</ele><time>2026-04-05T11:07:26.971Z</time></trkpt><trkpt lat="44.8491611" lon="7.2322825"><ele>1066.6</ele><time>2026-04-05T11:07:27.971Z</time></trkpt><trkpt lat="44.8491687" lon="7.232159"><ele>1066.0</ele><time>2026-04-05T11:07:28.971Z</time></trkpt><trkpt lat="44.8491876" lon="7.2320368"><ele>1065.8</ele><time>2026-04-05T11:07:29.971Z</time></trkpt><trkpt lat="44.8492149" lon="7.2319157"><ele>1065.6</ele><time>2026-04-05T11:07:30.971Z</time></trkpt><trkpt lat="44.8492623" lon="7.2318031"><ele>1065.4</ele><time>2026-04-05T11:07:31.971Z</time></trkpt><trkpt lat="44.8493256" lon="7.2316946"><ele>1065.2</ele><time>2026-04-05T11:07:32.971Z</time></trkpt><trkpt lat="44.8493937" lon="7.2316026"><ele>1065.0</ele><time>2026-04-05T11:07:33.971Z</time></trkpt><trkpt lat="44.8494683" lon="7.2315317"><ele>1063.6</ele><time>2026-04-05T11:07:34.971Z</time></trkpt><trkpt lat="44.8495544" lon="7.2314918"><ele>1062.2</ele><time>2026-04-05T11:07:35.971Z</time></trkpt><trkpt lat="44.8496475" lon="7.2314705"><ele>1060.8</ele><time>2026-04-05T11:07:36.971Z</time></trkpt><trkpt lat="44.8497431" lon="7.2314574"><ele>1059.4</ele><time>2026-04-05T11:07:37.971Z</time></trkpt><trkpt lat="44.8498456" lon="7.2314495"><ele>1058.0</ele><time>2026-04-05T11:07:38.971Z</time></trkpt><trkpt lat="44.8499419" lon="7.2314451"><ele>1058.0</ele><time>2026-04-05T11:07:39.971Z</time></trkpt><trkpt lat="44.8500362" lon="7.2314451"><ele>1058.0</ele><time>2026-04-05T11:07:40.971Z</time></trkpt><trkpt lat="44.8501289" lon="7.2314468"><ele>1058.0</ele><time>2026-04-05T11:07:41.971Z</time></trkpt><trkpt lat="44.850219" lon="7.2314436"><ele>1058.0</ele><time>2026-04-05T11:07:42.971Z</time></trkpt><trkpt lat="44.8503352" lon="7.2314538"><ele>1058.0</ele><time>2026-04-05T11:07:44.972Z</time></trkpt><trkpt lat="44.8504132" lon="7.2314744"><ele>1060.5</ele><time>2026-04-05T11:07:46.971Z</time></trkpt><trkpt lat="44.8504915" lon="7.2315321"><ele>1063.0</ele><time>2026-04-05T11:07:48.971Z</time></trkpt><trkpt lat="44.8505738" lon="7.2316431"><ele>1065.5</ele><time>2026-04-05T11:07:50.971Z</time></trkpt><trkpt lat="44.8506109" lon="7.2317219"><ele>1068.0</ele><time>2026-04-05T11:07:51.971Z</time></trkpt><trkpt lat="44.8506458" lon="7.2317976"><ele>1070.5</ele><time>2026-04-05T11:07:52.971Z</time></trkpt><trkpt lat="44.8506856" lon="7.2318668"><ele>1073.0</ele><time>2026-04-05T11:07:53.971Z</time></trkpt><trkpt lat="44.8507295" lon="7.2319457"><ele>1073.0</ele><time>2026-04-05T11:07:54.971Z</time></trkpt><trkpt lat="44.8507712" lon="7.2320166"><ele>1073.0</ele><time>2026-04-05T11:07:55.971Z</time></trkpt><trkpt lat="44.8508147" lon="7.2320835"><ele>1073.0</ele><time>2026-04-05T11:07:56.971Z</time></trkpt><trkpt lat="44.8508651" lon="7.2321464"><ele>1073.0</ele><time>2026-04-05T11:07:57.971Z</time></trkpt><trkpt lat="44.8509626" lon="7.2322692"><ele>1073.0</ele><time>2026-04-05T11:07:59.971Z</time></trkpt><trkpt lat="44.8510245" lon="7.2323362"><ele>1073.0</ele><time>2026-04-05T11:08:00.971Z</time></trkpt><trkpt lat="44.8510728" lon="7.2324092"><ele>1076.4285714285713</ele><time>2026-04-05T11:08:01.971Z</time></trkpt><trkpt lat="44.8511162" lon="7.2324796"><ele>1079.8571428571427</ele><time>2026-04-05T11:08:02.971Z</time></trkpt><trkpt lat="44.8511623" lon="7.2325443"><ele>1083.2857142857142</ele><time>2026-04-05T11:08:03.971Z</time></trkpt><trkpt lat="44.8512077" lon="7.2326191"><ele>1086.7142857142858</ele><time>2026-04-05T11:08:04.971Z</time></trkpt><trkpt lat="44.8512518" lon="7.2326901"><ele>1090.1428571428573</ele><time>2026-04-05T11:08:05.971Z</time></trkpt><trkpt lat="44.8513094" lon="7.232755"><ele>1093.5714285714287</ele><time>2026-04-05T11:08:06.971Z</time></trkpt><trkpt lat="44.8513543" lon="7.2328307"><ele>1097.0</ele><time>2026-04-05T11:08:07.971Z</time></trkpt><trkpt lat="44.8514007" lon="7.2329004"><ele>1097.0</ele><time>2026-04-05T11:08:08.971Z</time></trkpt><trkpt lat="44.8514507" lon="7.2329743"><ele>1097.0</ele><time>2026-04-05T11:08:09.971Z</time></trkpt><trkpt lat="44.8514935" lon="7.2330416"><ele>1097.0</ele><time>2026-04-05T11:08:10.971Z</time></trkpt><trkpt lat="44.8515414" lon="7.2331949"><ele>1097.0</ele><time>2026-04-05T11:08:12.971Z</time></trkpt><trkpt lat="44.8515886" lon="7.2333431"><ele>1097.0</ele><time>2026-04-05T11:08:14.971Z</time></trkpt><trkpt lat="44.8516875" lon="7.23336"><ele>1101.6</ele><time>2026-04-05T11:08:16.971Z</time></trkpt><trkpt lat="44.8517986" lon="7.2332842"><ele>1106.2</ele><time>2026-04-05T11:08:18.971Z</time></trkpt><trkpt lat="44.8518607" lon="7.233236"><ele>1110.8</ele><time>2026-04-05T11:08:19.971Z</time></trkpt><trkpt lat="44.8519475" lon="7.233239"><ele>1115.4</ele><time>2026-04-05T11:08:21.971Z</time></trkpt><trkpt lat="44.852031" lon="7.233335"><ele>1120.0</ele><time>2026-04-05T11:08:23.971Z</time></trkpt><trkpt lat="44.8520626" lon="7.2334143"><ele>1120.0</ele><time>2026-04-05T11:08:24.971Z</time></trkpt><trkpt lat="44.8521347" lon="7.2335087"><ele>1120.0</ele><time>2026-04-05T11:08:26.971Z</time></trkpt><trkpt lat="44.8522555" lon="7.2335654"><ele>1120.0</ele><time>2026-04-05T11:08:28.971Z</time></trkpt><trkpt lat="44.852332" lon="7.2336097"><ele>1120.0</ele><time>2026-04-05T11:08:29.971Z</time></trkpt><trkpt lat="44.8523882" lon="7.2336511"><ele>1120.0</ele><time>2026-04-05T11:08:30.971Z</time></trkpt><trkpt lat="44.8524566" lon="7.2336713"><ele>1120.0</ele><time>2026-04-05T11:08:31.971Z</time></trkpt><trkpt lat="44.8525332" lon="7.2337189"><ele>1120.0</ele><time>2026-04-05T11:08:32.971Z</time></trkpt><trkpt lat="44.8526043" lon="7.2337555"><ele>1120.0</ele><time>2026-04-05T11:08:33.971Z</time></trkpt><trkpt lat="44.8526587" lon="7.2338059"><ele>1120.0</ele><time>2026-04-05T11:08:34.971Z</time></trkpt><trkpt lat="44.8527218" lon="7.2338581"><ele>1120.0</ele><time>2026-04-05T11:08:35.971Z</time></trkpt><trkpt lat="44.8527744" lon="7.2339202"><ele>1120.0</ele><time>2026-04-05T11:08:36.971Z</time></trkpt><trkpt lat="44.8528372" lon="7.2339714"><ele>1120.0</ele><time>2026-04-05T11:08:37.971Z</time></trkpt><trkpt lat="44.8529147" lon="7.2339933"><ele>1120.0</ele><time>2026-04-05T11:08:38.971Z</time></trkpt><trkpt lat="44.8529885" lon="7.2340258"><ele>1124.0</ele><time>2026-04-05T11:08:39.971Z</time></trkpt><trkpt lat="44.8530775" lon="7.2340767"><ele>1128.0</ele><time>2026-04-05T11:08:41.971Z</time></trkpt><trkpt lat="44.8531205" lon="7.2341841"><ele>1132.0</ele><time>2026-04-05T11:08:43.971Z</time></trkpt><trkpt lat="44.8530572" lon="7.2342815"><ele>1136.0</ele><time>2026-04-05T11:08:45.971Z</time></trkpt><trkpt lat="44.8530015" lon="7.2344205"><ele>1140.0</ele><time>2026-04-05T11:08:47.971Z</time></trkpt><trkpt lat="44.8529946" lon="7.2345832"><ele>1140.0</ele><time>2026-04-05T11:08:49.971Z</time></trkpt><trkpt lat="44.8529835" lon="7.2346784"><ele>1140.0</ele><time>2026-04-05T11:08:50.971Z</time></trkpt><trkpt lat="44.8529661" lon="7.2347751"><ele>1140.0</ele><time>2026-04-05T11:08:51.971Z</time></trkpt><trkpt lat="44.8529492" lon="7.2349668"><ele>1140.0</ele><time>2026-04-05T11:08:53.971Z</time></trkpt><trkpt lat="44.8529424" lon="7.2350561"><ele>1140.0</ele><time>2026-04-05T11:08:54.971Z</time></trkpt><trkpt lat="44.8529391" lon="7.2351542"><ele>1140.0</ele><time>2026-04-05T11:08:55.971Z</time></trkpt><trkpt lat="44.8529258" lon="7.2352621"><ele>1142.0</ele><time>2026-04-05T11:08:56.971Z</time></trkpt><trkpt lat="44.8529078" lon="7.2353627"><ele>1144.0</ele><time>2026-04-05T11:08:57.971Z</time></trkpt><trkpt lat="44.8528818" lon="7.235557"><ele>1146.0</ele><time>2026-04-05T11:08:59.971Z</time></trkpt><trkpt lat="44.8528741" lon="7.235661"><ele>1148.0</ele><time>2026-04-05T11:09:00.971Z</time></trkpt><trkpt lat="44.8528719" lon="7.2357673"><ele>1150.0</ele><time>2026-04-05T11:09:01.971Z</time></trkpt><trkpt lat="44.8528629" lon="7.2358924"><ele>1152.0</ele><time>2026-04-05T11:09:02.971Z</time></trkpt><trkpt lat="44.8528462" lon="7.236003"><ele>1154.0</ele><time>2026-04-05T11:09:03.971Z</time></trkpt><trkpt lat="44.8528327" lon="7.2361138"><ele>1156.0</ele><time>2026-04-05T11:09:04.971Z</time></trkpt><trkpt lat="44.8528446" lon="7.2362088"><ele>1158.0</ele><time>2026-04-05T11:09:05.971Z</time></trkpt><trkpt lat="44.8529113" lon="7.2363114"><ele>1160.0</ele><time>2026-04-05T11:09:07.971Z</time></trkpt><trkpt lat="44.8530141" lon="7.2362992"><ele>1162.0</ele><time>2026-04-05T11:09:09.971Z</time></trkpt><trkpt lat="44.8531024" lon="7.2362836"><ele>1162.0</ele><time>2026-04-05T11:09:10.971Z</time></trkpt><trkpt lat="44.8532103" lon="7.236293"><ele>1162.0</ele><time>2026-04-05T11:09:11.971Z</time></trkpt><trkpt lat="44.8532974" lon="7.2362777"><ele>1162.0</ele><time>2026-04-05T11:09:12.971Z</time></trkpt><trkpt lat="44.8533911" lon="7.2362804"><ele>1162.0</ele><time>2026-04-05T11:09:13.971Z</time></trkpt><trkpt lat="44.8534903" lon="7.2362582"><ele>1162.0</ele><time>2026-04-05T11:09:14.971Z</time></trkpt><trkpt lat="44.8535745" lon="7.2362539"><ele>1163.6666666666665</ele><time>2026-04-05T11:09:15.971Z</time></trkpt><trkpt lat="44.8536533" lon="7.2362364"><ele>1165.3333333333333</ele><time>2026-04-05T11:09:16.971Z</time></trkpt><trkpt lat="44.8537329" lon="7.2362366"><ele>1167.0</ele><time>2026-04-05T11:09:17.971Z</time></trkpt><trkpt lat="44.8537928" lon="7.2361935"><ele>1168.6666666666667</ele><time>2026-04-05T11:09:18.971Z</time></trkpt><trkpt lat="44.8538606" lon="7.2361613"><ele>1170.3333333333335</ele><time>2026-04-05T11:09:19.971Z</time></trkpt><trkpt lat="44.8539396" lon="7.2361206"><ele>1172.0</ele><time>2026-04-05T11:09:20.971Z</time></trkpt><trkpt lat="44.8540084" lon="7.2360536"><ele>1172.0</ele><time>2026-04-05T11:09:21.971Z</time></trkpt><trkpt lat="44.854077" lon="7.2360015"><ele>1172.0</ele><time>2026-04-05T11:09:22.971Z</time></trkpt><trkpt lat="44.8541454" lon="7.2359511"><ele>1172.0</ele><time>2026-04-05T11:09:23.971Z</time></trkpt><trkpt lat="44.8542126" lon="7.2359239"><ele>1172.0</ele><time>2026-04-05T11:09:24.971Z</time></trkpt><trkpt lat="44.8542985" lon="7.2358922"><ele>1172.0</ele><time>2026-04-05T11:09:25.971Z</time></trkpt><trkpt lat="44.8543795" lon="7.2358441"><ele>1172.0</ele><time>2026-04-05T11:09:26.971Z</time></trkpt><trkpt lat="44.8544463" lon="7.2357838"><ele>1171.8333333333335</ele><time>2026-04-05T11:09:27.971Z</time></trkpt><trkpt lat="44.8545255" lon="7.2357333"><ele>1171.6666666666667</ele><time>2026-04-05T11:09:28.971Z</time></trkpt><trkpt lat="44.8545994" lon="7.2356877"><ele>1171.5</ele><time>2026-04-05T11:09:29.971Z</time></trkpt><trkpt lat="44.8546644" lon="7.2356303"><ele>1171.3333333333333</ele><time>2026-04-05T11:09:30.971Z</time></trkpt><trkpt lat="44.8547346" lon="7.23556"><ele>1171.1666666666665</ele><time>2026-04-05T11:09:31.971Z</time></trkpt><trkpt lat="44.8547986" lon="7.2354807"><ele>1171.0</ele><time>2026-04-05T11:09:32.971Z</time></trkpt><trkpt lat="44.8548598" lon="7.2354084"><ele>1171.6666666666665</ele><time>2026-04-05T11:09:33.971Z</time></trkpt><trkpt lat="44.8549242" lon="7.2353467"><ele>1172.3333333333333</ele><time>2026-04-05T11:09:34.971Z</time></trkpt><trkpt lat="44.8549795" lon="7.2352885"><ele>1173.0</ele><time>2026-04-05T11:09:35.971Z</time></trkpt><trkpt lat="44.8550676" lon="7.235213"><ele>1173.6666666666667</ele><time>2026-04-05T11:09:37.971Z</time></trkpt><trkpt lat="44.855137" lon="7.2351691"><ele>1174.3333333333335</ele><time>2026-04-05T11:09:39.971Z</time></trkpt><trkpt lat="44.8552418" lon="7.2351396"><ele>1175.0</ele><time>2026-04-05T11:09:41.971Z</time></trkpt><trkpt lat="44.8553048" lon="7.2351368"><ele>1176.6</ele><time>2026-04-05T11:09:42.971Z</time></trkpt><trkpt lat="44.8554373" lon="7.235133"><ele>1178.2</ele><time>2026-04-05T11:09:44.971Z</time></trkpt><trkpt lat="44.8555184" lon="7.2351319"><ele>1179.8</ele><time>2026-04-05T11:09:45.971Z</time></trkpt><trkpt lat="44.855604" lon="7.2351037"><ele>1181.4</ele><time>2026-04-05T11:09:46.971Z</time></trkpt><trkpt lat="44.8556798" lon="7.2350709"><ele>1183.0</ele><time>2026-04-05T11:09:47.971Z</time></trkpt><trkpt lat="44.8557492" lon="7.2350481"><ele>1183.0</ele><time>2026-04-05T11:09:48.971Z</time></trkpt><trkpt lat="44.85583" lon="7.2350218"><ele>1183.0</ele><time>2026-04-05T11:09:49.971Z</time></trkpt><trkpt lat="44.8559199" lon="7.2349857"><ele>1183.0</ele><time>2026-04-05T11:09:50.971Z</time></trkpt><trkpt lat="44.8560142" lon="7.2349599"><ele>1183.0</ele><time>2026-04-05T11:09:51.971Z</time></trkpt><trkpt lat="44.8561072" lon="7.2349226"><ele>1183.0</ele><time>2026-04-05T11:09:52.971Z</time></trkpt><trkpt lat="44.8561939" lon="7.2348873"><ele>1183.5</ele><time>2026-04-05T11:09:53.971Z</time></trkpt><trkpt lat="44.8562756" lon="7.2348564"><ele>1184.0</ele><time>2026-04-05T11:09:54.971Z</time></trkpt><trkpt lat="44.8563404" lon="7.2348175"><ele>1184.5</ele><time>2026-04-05T11:09:55.971Z</time></trkpt><trkpt lat="44.8564002" lon="7.234763"><ele>1185.0</ele><time>2026-04-05T11:09:56.971Z</time></trkpt><trkpt lat="44.8564611" lon="7.2347089"><ele>1185.5</ele><time>2026-04-05T11:09:57.971Z</time></trkpt><trkpt lat="44.8565321" lon="7.2346651"><ele>1186.0</ele><time>2026-04-05T11:09:58.971Z</time></trkpt><trkpt lat="44.8566076" lon="7.2346013"><ele>1186.2</ele><time>2026-04-05T11:09:59.971Z</time></trkpt><trkpt lat="44.8566793" lon="7.2345159"><ele>1186.3999999999999</ele><time>2026-04-05T11:10:00.971Z</time></trkpt><trkpt lat="44.8567493" lon="7.2344348"><ele>1186.6</ele><time>2026-04-05T11:10:01.971Z</time></trkpt><trkpt lat="44.8568089" lon="7.2343468"><ele>1186.8</ele><time>2026-04-05T11:10:02.971Z</time></trkpt><trkpt lat="44.8568773" lon="7.2342562"><ele>1187.0</ele><time>2026-04-05T11:10:03.971Z</time></trkpt><trkpt lat="44.8569405" lon="7.2341671"><ele>1187.0</ele><time>2026-04-05T11:10:04.971Z</time></trkpt><trkpt lat="44.8570036" lon="7.2340898"><ele>1187.0</ele><time>2026-04-05T11:10:05.971Z</time></trkpt><trkpt lat="44.8570648" lon="7.2340285"><ele>1187.0</ele><time>2026-04-05T11:10:06.971Z</time></trkpt><trkpt lat="44.857121" lon="7.2339595"><ele>1187.0</ele><time>2026-04-05T11:10:07.971Z</time></trkpt><trkpt lat="44.8571727" lon="7.2338767"><ele>1187.0</ele><time>2026-04-05T11:10:08.972Z</time></trkpt><trkpt lat="44.8572115" lon="7.2338019"><ele>1187.0</ele><time>2026-04-05T11:10:09.971Z</time></trkpt><trkpt lat="44.8572609" lon="7.2337209"><ele>1192.4</ele><time>2026-04-05T11:10:10.971Z</time></trkpt><trkpt lat="44.8573068" lon="7.2336345"><ele>1197.8000000000002</ele><time>2026-04-05T11:10:11.971Z</time></trkpt><trkpt lat="44.8573346" lon="7.233549"><ele>1203.2</ele><time>2026-04-05T11:10:12.971Z</time></trkpt><trkpt lat="44.8573977" lon="7.2334041"><ele>1208.6000000000001</ele><time>2026-04-05T11:10:14.971Z</time></trkpt><trkpt lat="44.8574843" lon="7.233279"><ele>1214.0</ele><time>2026-04-05T11:10:16.971Z</time></trkpt><trkpt lat="44.8575775" lon="7.2331591"><ele>1218.4</ele><time>2026-04-05T11:10:18.971Z</time></trkpt><trkpt lat="44.8576239" lon="7.2330826"><ele>1222.8000000000002</ele><time>2026-04-05T11:10:19.971Z</time></trkpt><trkpt lat="44.857705" lon="7.2329371"><ele>1227.1999999999998</ele><time>2026-04-05T11:10:21.971Z</time></trkpt><trkpt lat="44.8577437" lon="7.2328551"><ele>1231.6</ele><time>2026-04-05T11:10:22.971Z</time></trkpt><trkpt lat="44.8577801" lon="7.2327756"><ele>1236.0</ele><time>2026-04-05T11:10:23.971Z</time></trkpt><trkpt lat="44.8578785" lon="7.2326594"><ele>1236.0000000000002</ele><time>2026-04-05T11:10:25.971Z</time></trkpt><trkpt lat="44.8579268" lon="7.2325985"><ele>1236.0</ele><time>2026-04-05T11:10:26.971Z</time></trkpt><trkpt lat="44.857983" lon="7.232541"><ele>1236.0</ele><time>2026-04-05T11:10:27.971Z</time></trkpt><trkpt lat="44.8580372" lon="7.2324627"><ele>1236.0</ele><time>2026-04-05T11:10:28.971Z</time></trkpt><trkpt lat="44.8580989" lon="7.2323932"><ele>1236.0</ele><time>2026-04-05T11:10:29.971Z</time></trkpt><trkpt lat="44.8581564" lon="7.2323242"><ele>1236.0000000000002</ele><time>2026-04-05T11:10:30.971Z</time></trkpt><trkpt lat="44.8582094" lon="7.2322417"><ele>1236.0</ele><time>2026-04-05T11:10:31.971Z</time></trkpt><trkpt lat="44.8582786" lon="7.2321059"><ele>1237.3333333333333</ele><time>2026-04-05T11:10:33.971Z</time></trkpt><trkpt lat="44.8582874" lon="7.2320106"><ele>1238.6666666666667</ele><time>2026-04-05T11:10:34.971Z</time></trkpt><trkpt lat="44.8583007" lon="7.2319233"><ele>1240.0</ele><time>2026-04-05T11:10:35.971Z</time></trkpt><trkpt lat="44.8583493" lon="7.231751"><ele>1241.3333333333335</ele><time>2026-04-05T11:10:37.971Z</time></trkpt><trkpt lat="44.8583778" lon="7.2316478"><ele>1242.6666666666667</ele><time>2026-04-05T11:10:38.971Z</time></trkpt><trkpt lat="44.8584185" lon="7.2315388"><ele>1244.0</ele><time>2026-04-05T11:10:39.971Z</time></trkpt><trkpt lat="44.8584674" lon="7.2314362"><ele>1246.1666666666667</ele><time>2026-04-05T11:10:40.971Z</time></trkpt><trkpt lat="44.8585111" lon="7.231344"><ele>1248.3333333333335</ele><time>2026-04-05T11:10:41.971Z</time></trkpt><trkpt lat="44.8585613" lon="7.2312599"><ele>1250.5</ele><time>2026-04-05T11:10:42.971Z</time></trkpt><trkpt lat="44.8586077" lon="7.2311672"><ele>1252.6666666666667</ele><time>2026-04-05T11:10:43.971Z</time></trkpt><trkpt lat="44.8586442" lon="7.2310855"><ele>1254.8333333333333</ele><time>2026-04-05T11:10:44.971Z</time></trkpt><trkpt lat="44.8586901" lon="7.2310075"><ele>1257.0</ele><time>2026-04-05T11:10:45.971Z</time></trkpt><trkpt lat="44.8587506" lon="7.2309361"><ele>1257.0</ele><time>2026-04-05T11:10:46.971Z</time></trkpt><trkpt lat="44.8588107" lon="7.2308785"><ele>1257.0</ele><time>2026-04-05T11:10:47.971Z</time></trkpt><trkpt lat="44.8588756" lon="7.2308166"><ele>1257.0</ele><time>2026-04-05T11:10:48.971Z</time></trkpt><trkpt lat="44.858938" lon="7.2307465"><ele>1257.0</ele><time>2026-04-05T11:10:49.971Z</time></trkpt><trkpt lat="44.8589992" lon="7.2306793"><ele>1257.0</ele><time>2026-04-05T11:10:50.971Z</time></trkpt><trkpt lat="44.8590509" lon="7.2306067"><ele>1257.0</ele><time>2026-04-05T11:10:51.971Z</time></trkpt><trkpt lat="44.8591264" lon="7.2305631"><ele>1257.0</ele><time>2026-04-05T11:10:52.971Z</time></trkpt><trkpt lat="44.8591947" lon="7.2304921"><ele>1257.0</ele><time>2026-04-05T11:10:53.971Z</time></trkpt><trkpt lat="44.8592652" lon="7.230441"><ele>1257.0</ele><time>2026-04-05T11:10:54.971Z</time></trkpt><trkpt lat="44.8593294" lon="7.2304023"><ele>1257.0</ele><time>2026-04-05T11:10:55.971Z</time></trkpt><trkpt lat="44.8593843" lon="7.2303503"><ele>1257.0</ele><time>2026-04-05T11:10:56.971Z</time></trkpt><trkpt lat="44.8594595" lon="7.230314"><ele>1257.0</ele><time>2026-04-05T11:10:57.971Z</time></trkpt><trkpt lat="44.8595638" lon="7.23027"><ele>1258.3333333333333</ele><time>2026-04-05T11:10:59.971Z</time></trkpt><trkpt lat="44.8596622" lon="7.2301975"><ele>1259.6666666666667</ele><time>2026-04-05T11:11:01.971Z</time></trkpt><trkpt lat="44.8597646" lon="7.2301203"><ele>1261.0</ele><time>2026-04-05T11:11:03.971Z</time></trkpt><trkpt lat="44.8598223" lon="7.230081"><ele>1262.3333333333335</ele><time>2026-04-05T11:11:04.971Z</time></trkpt><trkpt lat="44.8598816" lon="7.230027"><ele>1263.6666666666667</ele><time>2026-04-05T11:11:05.971Z</time></trkpt><trkpt lat="44.8599397" lon="7.2299722"><ele>1265.0</ele><time>2026-04-05T11:11:06.971Z</time></trkpt><trkpt lat="44.8599921" lon="7.2299202"><ele>1265.0</ele><time>2026-04-05T11:11:07.971Z</time></trkpt><trkpt lat="44.8600465" lon="7.2298528"><ele>1265.0</ele><time>2026-04-05T11:11:08.971Z</time></trkpt><trkpt lat="44.8601005" lon="7.2297701"><ele>1265.0</ele><time>2026-04-05T11:11:09.971Z</time></trkpt><trkpt lat="44.8601872" lon="7.2296349"><ele>1265.0</ele><time>2026-04-05T11:11:11.971Z</time></trkpt><trkpt lat="44.8602364" lon="7.2295666"><ele>1265.0</ele><time>2026-04-05T11:11:12.971Z</time></trkpt><trkpt lat="44.8602813" lon="7.2294932"><ele>1265.0</ele><time>2026-04-05T11:11:13.971Z</time></trkpt><trkpt lat="44.8603309" lon="7.2294205"><ele>1267.6</ele><time>2026-04-05T11:11:14.971Z</time></trkpt><trkpt lat="44.8604172" lon="7.2293042"><ele>1270.2</ele><time>2026-04-05T11:11:16.971Z</time></trkpt><trkpt lat="44.8604585" lon="7.2292299"><ele>1272.8</ele><time>2026-04-05T11:11:17.971Z</time></trkpt><trkpt lat="44.8605513" lon="7.2291067"><ele>1275.4</ele><time>2026-04-05T11:11:19.971Z</time></trkpt><trkpt lat="44.8606236" lon="7.2289815"><ele>1278.0</ele><time>2026-04-05T11:11:21.971Z</time></trkpt><trkpt lat="44.8607088" lon="7.2288645"><ele>1278.0</ele><time>2026-04-05T11:11:23.971Z</time></trkpt><trkpt lat="44.8607578" lon="7.2288007"><ele>1278.0</ele><time>2026-04-05T11:11:24.971Z</time></trkpt><trkpt lat="44.8608568" lon="7.2287016"><ele>1278.0</ele><time>2026-04-05T11:11:26.971Z</time></trkpt><trkpt lat="44.8609175" lon="7.2286548"><ele>1278.0</ele><time>2026-04-05T11:11:27.971Z</time></trkpt><trkpt lat="44.8609835" lon="7.228607"><ele>1278.0</ele><time>2026-04-05T11:11:28.971Z</time></trkpt><trkpt lat="44.8610434" lon="7.2285547"><ele>1278.0</ele><time>2026-04-05T11:11:29.971Z</time></trkpt><trkpt lat="44.861107" lon="7.2285159"><ele>1281.1666666666667</ele><time>2026-04-05T11:11:30.971Z</time></trkpt><trkpt lat="44.8611692" lon="7.2284707"><ele>1284.3333333333333</ele><time>2026-04-05T11:11:31.971Z</time></trkpt><trkpt lat="44.8612328" lon="7.2284306"><ele>1287.5</ele><time>2026-04-05T11:11:32.971Z</time></trkpt><trkpt lat="44.861299" lon="7.2283896"><ele>1290.6666666666665</ele><time>2026-04-05T11:11:33.971Z</time></trkpt><trkpt lat="44.8614141" lon="7.2283073"><ele>1293.8333333333333</ele><time>2026-04-05T11:11:35.971Z</time></trkpt><trkpt lat="44.861469" lon="7.2282611"><ele>1297.0</ele><time>2026-04-05T11:11:36.971Z</time></trkpt><trkpt lat="44.8615914" lon="7.2281889"><ele>1298.5714285714287</ele><time>2026-04-05T11:11:38.971Z</time></trkpt><trkpt lat="44.8616468" lon="7.2281286"><ele>1300.142857142857</ele><time>2026-04-05T11:11:39.971Z</time></trkpt><trkpt lat="44.8616931" lon="7.2280615"><ele>1301.7142857142858</ele><time>2026-04-05T11:11:40.971Z</time></trkpt><trkpt lat="44.8617501" lon="7.2280061"><ele>1303.2857142857142</ele><time>2026-04-05T11:11:41.971Z</time></trkpt><trkpt lat="44.8618061" lon="7.2279323"><ele>1304.857142857143</ele><time>2026-04-05T11:11:42.971Z</time></trkpt><trkpt lat="44.8618655" lon="7.2278573"><ele>1306.4285714285713</ele><time>2026-04-05T11:11:43.971Z</time></trkpt><trkpt lat="44.861923" lon="7.2277751"><ele>1308.0</ele><time>2026-04-05T11:11:44.971Z</time></trkpt><trkpt lat="44.8620064" lon="7.2276901"><ele>1308.0</ele><time>2026-04-05T11:11:45.971Z</time></trkpt><trkpt lat="44.8620609" lon="7.227615"><ele>1308.0</ele><time>2026-04-05T11:11:46.971Z</time></trkpt><trkpt lat="44.8621258" lon="7.2275262"><ele>1308.0</ele><time>2026-04-05T11:11:47.971Z</time></trkpt><trkpt lat="44.8621875" lon="7.2274487"><ele>1308.0</ele><time>2026-04-05T11:11:48.971Z</time></trkpt><trkpt lat="44.862245" lon="7.2273728"><ele>1308.0</ele><time>2026-04-05T11:11:49.971Z</time></trkpt><trkpt lat="44.8623049" lon="7.2273157"><ele>1308.0</ele><time>2026-04-05T11:11:50.971Z</time></trkpt><trkpt lat="44.8623686" lon="7.2272563"><ele>1308.1666666666667</ele><time>2026-04-05T11:11:51.971Z</time></trkpt><trkpt lat="44.8624355" lon="7.2272031"><ele>1308.3333333333333</ele><time>2026-04-05T11:11:52.971Z</time></trkpt><trkpt lat="44.8625023" lon="7.2271649"><ele>1308.5</ele><time>2026-04-05T11:11:53.971Z</time></trkpt><trkpt lat="44.8625709" lon="7.2271093"><ele>1308.6666666666665</ele><time>2026-04-05T11:11:54.971Z</time></trkpt><trkpt lat="44.8626388" lon="7.2270681"><ele>1308.8333333333333</ele><time>2026-04-05T11:11:55.971Z</time></trkpt><trkpt lat="44.8627276" lon="7.2269746"><ele>1309.0</ele><time>2026-04-05T11:11:57.971Z</time></trkpt><trkpt lat="44.8628287" lon="7.2268803"><ele>1309.0</ele><time>2026-04-05T11:11:59.971Z</time></trkpt><trkpt lat="44.8628865" lon="7.2268445"><ele>1309.0</ele><time>2026-04-05T11:12:00.971Z</time></trkpt><trkpt lat="44.8630176" lon="7.2267935"><ele>1309.0</ele><time>2026-04-05T11:12:02.971Z</time></trkpt><trkpt lat="44.8631134" lon="7.2267665"><ele>1309.0</ele><time>2026-04-05T11:12:03.971Z</time></trkpt><trkpt lat="44.8632019" lon="7.2267447"><ele>1309.0</ele><time>2026-04-05T11:12:04.971Z</time></trkpt><trkpt lat="44.8632818" lon="7.2267235"><ele>1309.0</ele><time>2026-04-05T11:12:05.971Z</time></trkpt><trkpt lat="44.8633662" lon="7.2267056"><ele>1309.0</ele><time>2026-04-05T11:12:06.971Z</time></trkpt><trkpt lat="44.8634847" lon="7.2266617"><ele>1309.0</ele><time>2026-04-05T11:12:08.971Z</time></trkpt><trkpt lat="44.8635323" lon="7.2265918"><ele>1309.0</ele><time>2026-04-05T11:12:09.971Z</time></trkpt><trkpt lat="44.8635832" lon="7.2264646"><ele>1309.0</ele><time>2026-04-05T11:12:11.971Z</time></trkpt><trkpt lat="44.8636185" lon="7.2263857"><ele>1309.0</ele><time>2026-04-05T11:12:12.971Z</time></trkpt><trkpt lat="44.8636476" lon="7.2263066"><ele>1308.8333333333333</ele><time>2026-04-05T11:12:13.971Z</time></trkpt><trkpt lat="44.8637098" lon="7.2261733"><ele>1308.6666666666665</ele><time>2026-04-05T11:12:15.971Z</time></trkpt><trkpt lat="44.8637562" lon="7.2261101"><ele>1308.5</ele><time>2026-04-05T11:12:16.971Z</time></trkpt><trkpt lat="44.863794" lon="7.2260357"><ele>1308.3333333333333</ele><time>2026-04-05T11:12:17.971Z</time></trkpt><trkpt lat="44.8638346" lon="7.2259306"><ele>1308.1666666666667</ele><time>2026-04-05T11:12:18.971Z</time></trkpt><trkpt lat="44.8638627" lon="7.2258314"><ele>1308.0</ele><time>2026-04-05T11:12:19.971Z</time></trkpt><trkpt lat="44.8638941" lon="7.225728"><ele>1307.7142857142858</ele><time>2026-04-05T11:12:20.971Z</time></trkpt><trkpt lat="44.8639222" lon="7.2256259"><ele>1307.4285714285716</ele><time>2026-04-05T11:12:21.971Z</time></trkpt><trkpt lat="44.8639556" lon="7.2255315"><ele>1307.1428571428573</ele><time>2026-04-05T11:12:22.971Z</time></trkpt><trkpt lat="44.863975" lon="7.2254421"><ele>1306.857142857143</ele><time>2026-04-05T11:12:23.971Z</time></trkpt><trkpt lat="44.8639987" lon="7.2253552"><ele>1306.5714285714287</ele><time>2026-04-05T11:12:24.971Z</time></trkpt><trkpt lat="44.8640356" lon="7.2252777"><ele>1306.2857142857144</ele><time>2026-04-05T11:12:25.971Z</time></trkpt><trkpt lat="44.8640735" lon="7.2251829"><ele>1306.0</ele><time>2026-04-05T11:12:26.972Z</time></trkpt><trkpt lat="44.8641199" lon="7.2250872"><ele>1306.0</ele><time>2026-04-05T11:12:27.971Z</time></trkpt><trkpt lat="44.8641663" lon="7.2249895"><ele>1306.0</ele><time>2026-04-05T11:12:28.971Z</time></trkpt><trkpt lat="44.8642125" lon="7.2248889"><ele>1306.0</ele><time>2026-04-05T11:12:29.971Z</time></trkpt><trkpt lat="44.8642652" lon="7.2247968"><ele>1306.0</ele><time>2026-04-05T11:12:30.971Z</time></trkpt><trkpt lat="44.8643082" lon="7.2247074"><ele>1306.0</ele><time>2026-04-05T11:12:31.971Z</time></trkpt><trkpt lat="44.8643581" lon="7.2246256"><ele>1306.0</ele><time>2026-04-05T11:12:32.971Z</time></trkpt><trkpt lat="44.8644092" lon="7.2245527"><ele>1306.857142857143</ele><time>2026-04-05T11:12:33.971Z</time></trkpt><trkpt lat="44.8644566" lon="7.2244696"><ele>1307.7142857142858</ele><time>2026-04-05T11:12:34.971Z</time></trkpt><trkpt lat="44.8645021" lon="7.2243813"><ele>1308.5714285714284</ele><time>2026-04-05T11:12:35.971Z</time></trkpt><trkpt lat="44.8645437" lon="7.2242883"><ele>1309.4285714285716</ele><time>2026-04-05T11:12:36.971Z</time></trkpt><trkpt lat="44.8645711" lon="7.2241994"><ele>1310.2857142857142</ele><time>2026-04-05T11:12:37.971Z</time></trkpt><trkpt lat="44.8646019" lon="7.2241041"><ele>1311.142857142857</ele><time>2026-04-05T11:12:38.971Z</time></trkpt><trkpt lat="44.8646296" lon="7.2240075"><ele>1312.0</ele><time>2026-04-05T11:12:39.971Z</time></trkpt><trkpt lat="44.8646496" lon="7.2239095"><ele>1312.0</ele><time>2026-04-05T11:12:40.971Z</time></trkpt><trkpt lat="44.8647124" lon="7.2237755"><ele>1312.0</ele><time>2026-04-05T11:12:42.971Z</time></trkpt><trkpt lat="44.8647954" lon="7.22368"><ele>1312.0</ele><time>2026-04-05T11:12:44.971Z</time></trkpt><trkpt lat="44.8648505" lon="7.2235296"><ele>1312.0</ele><time>2026-04-05T11:12:46.971Z</time></trkpt><trkpt lat="44.864909" lon="7.2233762"><ele>1312.0</ele><time>2026-04-05T11:12:48.971Z</time></trkpt><trkpt lat="44.8649532" lon="7.2232782"><ele>1312.0</ele><time>2026-04-05T11:12:49.971Z</time></trkpt><trkpt lat="44.8649969" lon="7.223169"><ele>1312.0</ele><time>2026-04-05T11:12:50.971Z</time></trkpt><trkpt lat="44.8650321" lon="7.2230805"><ele>1312.0</ele><time>2026-04-05T11:12:51.971Z</time></trkpt><trkpt lat="44.8650869" lon="7.2229213"><ele>1312.0</ele><time>2026-04-05T11:12:53.971Z</time></trkpt><trkpt lat="44.8651276" lon="7.2227752"><ele>1310.8333333333333</ele><time>2026-04-05T11:12:55.971Z</time></trkpt><trkpt lat="44.8651719" lon="7.2225955"><ele>1309.6666666666665</ele><time>2026-04-05T11:12:57.971Z</time></trkpt><trkpt lat="44.8652078" lon="7.2225017"><ele>1308.5</ele><time>2026-04-05T11:12:58.971Z</time></trkpt><trkpt lat="44.8652455" lon="7.2224116"><ele>1307.3333333333333</ele><time>2026-04-05T11:12:59.971Z</time></trkpt><trkpt lat="44.8652824" lon="7.2223228"><ele>1306.1666666666667</ele><time>2026-04-05T11:13:00.971Z</time></trkpt><trkpt lat="44.865312" lon="7.2222345"><ele>1305.0</ele><time>2026-04-05T11:13:01.971Z</time></trkpt><trkpt lat="44.8653495" lon="7.2221556"><ele>1307.3333333333333</ele><time>2026-04-05T11:13:02.971Z</time></trkpt><trkpt lat="44.8653953" lon="7.2220672"><ele>1309.6666666666667</ele><time>2026-04-05T11:13:03.971Z</time></trkpt><trkpt lat="44.8654384" lon="7.2219924"><ele>1312.0</ele><time>2026-04-05T11:13:04.971Z</time></trkpt><trkpt lat="44.8655201" lon="7.2218441"><ele>1314.3333333333335</ele><time>2026-04-05T11:13:06.971Z</time></trkpt><trkpt lat="44.8655551" lon="7.221743"><ele>1316.6666666666667</ele><time>2026-04-05T11:13:07.971Z</time></trkpt><trkpt lat="44.8655962" lon="7.2216664"><ele>1319.0</ele><time>2026-04-05T11:13:08.971Z</time></trkpt><trkpt lat="44.8656296" lon="7.2215888"><ele>1318.9999999999998</ele><time>2026-04-05T11:13:09.971Z</time></trkpt><trkpt lat="44.8656619" lon="7.2215056"><ele>1319.0</ele><time>2026-04-05T11:13:10.971Z</time></trkpt><trkpt lat="44.8656952" lon="7.2214086"><ele>1319.0</ele><time>2026-04-05T11:13:11.971Z</time></trkpt><trkpt lat="44.8657312" lon="7.2213215"><ele>1319.0</ele><time>2026-04-05T11:13:12.971Z</time></trkpt><trkpt lat="44.8657626" lon="7.2212086"><ele>1319.0</ele><time>2026-04-05T11:13:13.972Z</time></trkpt><trkpt lat="44.8657917" lon="7.2211173"><ele>1318.9999999999998</ele><time>2026-04-05T11:13:14.971Z</time></trkpt><trkpt lat="44.8658103" lon="7.2210175"><ele>1319.0</ele><time>2026-04-05T11:13:15.971Z</time></trkpt><trkpt lat="44.8658219" lon="7.2208236"><ele>1318.8000000000002</ele><time>2026-04-05T11:13:17.971Z</time></trkpt><trkpt lat="44.8658552" lon="7.2206904"><ele>1318.6000000000001</ele><time>2026-04-05T11:13:19.971Z</time></trkpt><trkpt lat="44.865916" lon="7.2206264"><ele>1318.4</ele><time>2026-04-05T11:13:21.971Z</time></trkpt><trkpt lat="44.8660156" lon="7.2205818"><ele>1318.2</ele><time>2026-04-05T11:13:23.971Z</time></trkpt><trkpt lat="44.8661247" lon="7.2204987"><ele>1318.0</ele><time>2026-04-05T11:13:25.971Z</time></trkpt><trkpt lat="44.8661788" lon="7.2204509"><ele>1319.2</ele><time>2026-04-05T11:13:26.971Z</time></trkpt><trkpt lat="44.8662349" lon="7.2204034"><ele>1320.4</ele><time>2026-04-05T11:13:27.971Z</time></trkpt><trkpt lat="44.8663293" lon="7.2203078"><ele>1321.6000000000001</ele><time>2026-04-05T11:13:29.971Z</time></trkpt><trkpt lat="44.8664263" lon="7.2201913"><ele>1322.8000000000002</ele><time>2026-04-05T11:13:31.971Z</time></trkpt><trkpt lat="44.8664794" lon="7.2201306"><ele>1324.0</ele><time>2026-04-05T11:13:32.971Z</time></trkpt><trkpt lat="44.86654" lon="7.2200715"><ele>1324.0</ele><time>2026-04-05T11:13:33.971Z</time></trkpt><trkpt lat="44.8666054" lon="7.2200175"><ele>1324.0</ele><time>2026-04-05T11:13:34.971Z</time></trkpt><trkpt lat="44.8666761" lon="7.2199525"><ele>1324.0</ele><time>2026-04-05T11:13:35.971Z</time></trkpt><trkpt lat="44.8667392" lon="7.2198958"><ele>1324.0</ele><time>2026-04-05T11:13:36.971Z</time></trkpt><trkpt lat="44.8668259" lon="7.2198421"><ele>1324.0</ele><time>2026-04-05T11:13:37.971Z</time></trkpt><trkpt lat="44.8669129" lon="7.2197929"><ele>1324.0</ele><time>2026-04-05T11:13:38.971Z</time></trkpt><trkpt lat="44.8669932" lon="7.2197374"><ele>1325.0</ele><time>2026-04-05T11:13:39.971Z</time></trkpt><trkpt lat="44.8670801" lon="7.2196855"><ele>1326.0</ele><time>2026-04-05T11:13:40.971Z</time></trkpt><trkpt lat="44.867163" lon="7.2196298"><ele>1327.0</ele><time>2026-04-05T11:13:41.971Z</time></trkpt><trkpt lat="44.867225" lon="7.2195626"><ele>1328.0</ele><time>2026-04-05T11:13:42.971Z</time></trkpt><trkpt lat="44.8672795" lon="7.2195008"><ele>1329.0</ele><time>2026-04-05T11:13:43.971Z</time></trkpt><trkpt lat="44.8673505" lon="7.2193715"><ele>1329.0</ele><time>2026-04-05T11:13:45.971Z</time></trkpt><trkpt lat="44.8673384" lon="7.2192487"><ele>1329.0</ele><time>2026-04-05T11:13:48.971Z</time></trkpt><trkpt lat="44.8673693" lon="7.2191365"><ele>1329.0</ele><time>2026-04-05T11:13:50.971Z</time></trkpt><trkpt lat="44.8674465" lon="7.2189874"><ele>1329.0</ele><time>2026-04-05T11:13:52.971Z</time></trkpt><trkpt lat="44.8675225" lon="7.2188738"><ele>1329.0</ele><time>2026-04-05T11:13:54.971Z</time></trkpt><trkpt lat="44.8675935" lon="7.2187566"><ele>1330.8333333333333</ele><time>2026-04-05T11:13:56.971Z</time></trkpt><trkpt lat="44.8676711" lon="7.2186535"><ele>1332.6666666666667</ele><time>2026-04-05T11:13:58.971Z</time></trkpt><trkpt lat="44.8677586" lon="7.2185698"><ele>1334.5</ele><time>2026-04-05T11:14:00.971Z</time></trkpt><trkpt lat="44.8678116" lon="7.2185098"><ele>1336.3333333333335</ele><time>2026-04-05T11:14:01.971Z</time></trkpt><trkpt lat="44.8678609" lon="7.2184351"><ele>1338.1666666666667</ele><time>2026-04-05T11:14:02.971Z</time></trkpt><trkpt lat="44.8679086" lon="7.2183742"><ele>1340.0</ele><time>2026-04-05T11:14:03.971Z</time></trkpt><trkpt lat="44.8679518" lon="7.2183021"><ele>1340.0</ele><time>2026-04-05T11:14:04.971Z</time></trkpt><trkpt lat="44.8680054" lon="7.2182356"><ele>1340.0</ele><time>2026-04-05T11:14:05.971Z</time></trkpt><trkpt lat="44.8680961" lon="7.2181117"><ele>1340.0</ele><time>2026-04-05T11:14:07.971Z</time></trkpt><trkpt lat="44.8681489" lon="7.2180557"><ele>1340.0</ele><time>2026-04-05T11:14:08.971Z</time></trkpt><trkpt lat="44.8682055" lon="7.2180068"><ele>1340.0</ele><time>2026-04-05T11:14:09.971Z</time></trkpt><trkpt lat="44.8682598" lon="7.2179508"><ele>1340.0</ele><time>2026-04-05T11:14:10.971Z</time></trkpt><trkpt lat="44.8683084" lon="7.2178875"><ele>1342.2</ele><time>2026-04-05T11:14:11.971Z</time></trkpt><trkpt lat="44.8683512" lon="7.2178151"><ele>1344.4</ele><time>2026-04-05T11:14:12.971Z</time></trkpt><trkpt lat="44.8683961" lon="7.2177352"><ele>1346.6</ele><time>2026-04-05T11:14:13.971Z</time></trkpt><trkpt lat="44.8684826" lon="7.2176224"><ele>1348.8</ele><time>2026-04-05T11:14:15.971Z</time></trkpt><trkpt lat="44.8685676" lon="7.2174964"><ele>1351.0</ele><time>2026-04-05T11:14:17.971Z</time></trkpt><trkpt lat="44.8686053" lon="7.2174105"><ele>1351.0</ele><time>2026-04-05T11:14:18.971Z</time></trkpt><trkpt lat="44.8686472" lon="7.2173396"><ele>1351.0</ele><time>2026-04-05T11:14:19.971Z</time></trkpt><trkpt lat="44.8687058" lon="7.217287"><ele>1351.0</ele><time>2026-04-05T11:14:20.971Z</time></trkpt><trkpt lat="44.8687604" lon="7.217225"><ele>1351.0</ele><time>2026-04-05T11:14:21.971Z</time></trkpt><trkpt lat="44.8688081" lon="7.2171332"><ele>1351.0</ele><time>2026-04-05T11:14:22.971Z</time></trkpt><trkpt lat="44.8688367" lon="7.2170416"><ele>1351.0</ele><time>2026-04-05T11:14:23.971Z</time></trkpt><trkpt lat="44.8688735" lon="7.21695"><ele>1351.0</ele><time>2026-04-05T11:14:24.971Z</time></trkpt><trkpt lat="44.8688993" lon="7.2168671"><ele>1348.3333333333333</ele><time>2026-04-05T11:14:25.971Z</time></trkpt><trkpt lat="44.8689188" lon="7.2167742"><ele>1345.6666666666665</ele><time>2026-04-05T11:14:26.971Z</time></trkpt><trkpt lat="44.8689288" lon="7.2166684"><ele>1343.0</ele><time>2026-04-05T11:14:27.971Z</time></trkpt><trkpt lat="44.8689303" lon="7.2165735"><ele>1340.3333333333333</ele><time>2026-04-05T11:14:28.971Z</time></trkpt><trkpt lat="44.8689213" lon="7.2164787"><ele>1337.6666666666667</ele><time>2026-04-05T11:14:29.971Z</time></trkpt><trkpt lat="44.8689127" lon="7.2163109"><ele>1335.0</ele><time>2026-04-05T11:14:31.971Z</time></trkpt><trkpt lat="44.8689205" lon="7.2162204"><ele>1332.0</ele><time>2026-04-05T11:14:32.971Z</time></trkpt><trkpt lat="44.8689396" lon="7.2160599"><ele>1329.0</ele><time>2026-04-05T11:14:34.971Z</time></trkpt><trkpt lat="44.8689668" lon="7.2159042"><ele>1326.0</ele><time>2026-04-05T11:14:36.971Z</time></trkpt><trkpt lat="44.8690208" lon="7.2157588"><ele>1323.0</ele><time>2026-04-05T11:14:38.971Z</time></trkpt><trkpt lat="44.8691291" lon="7.2156321"><ele>1320.8333333333333</ele><time>2026-04-05T11:14:40.971Z</time></trkpt><trkpt lat="44.8691891" lon="7.2155796"><ele>1318.6666666666667</ele><time>2026-04-05T11:14:41.971Z</time></trkpt><trkpt lat="44.8692572" lon="7.2155132"><ele>1316.5</ele><time>2026-04-05T11:14:42.971Z</time></trkpt><trkpt lat="44.8693303" lon="7.2154421"><ele>1314.3333333333335</ele><time>2026-04-05T11:14:43.971Z</time></trkpt><trkpt lat="44.8693831" lon="7.2153568"><ele>1312.1666666666667</ele><time>2026-04-05T11:14:44.971Z</time></trkpt><trkpt lat="44.8694356" lon="7.2152579"><ele>1310.0</ele><time>2026-04-05T11:14:45.971Z</time></trkpt><trkpt lat="44.8694826" lon="7.2151742"><ele>1313.8</ele><time>2026-04-05T11:14:46.971Z</time></trkpt><trkpt lat="44.8695316" lon="7.2150706"><ele>1317.6</ele><time>2026-04-05T11:14:47.971Z</time></trkpt><trkpt lat="44.8695673" lon="7.214951"><ele>1321.4</ele><time>2026-04-05T11:14:48.971Z</time></trkpt><trkpt lat="44.8696065" lon="7.2148377"><ele>1325.2</ele><time>2026-04-05T11:14:49.971Z</time></trkpt><trkpt lat="44.8696243" lon="7.2146808"><ele>1329.0</ele><time>2026-04-05T11:14:51.971Z</time></trkpt><trkpt lat="44.8696191" lon="7.2145502"><ele>1329.0</ele><time>2026-04-05T11:14:53.971Z</time></trkpt><trkpt lat="44.8696377" lon="7.2144151"><ele>1329.0</ele><time>2026-04-05T11:14:55.971Z</time></trkpt><trkpt lat="44.869663" lon="7.2142367"><ele>1329.0</ele><time>2026-04-05T11:14:57.971Z</time></trkpt><trkpt lat="44.869682" lon="7.2141416"><ele>1329.0</ele><time>2026-04-05T11:14:58.971Z</time></trkpt><trkpt lat="44.8697057" lon="7.2140216"><ele>1329.0</ele><time>2026-04-05T11:14:59.971Z</time></trkpt><trkpt lat="44.8697239" lon="7.2139181"><ele>1325.3333333333333</ele><time>2026-04-05T11:15:00.971Z</time></trkpt><trkpt lat="44.8697505" lon="7.2138099"><ele>1321.6666666666667</ele><time>2026-04-05T11:15:01.971Z</time></trkpt><trkpt lat="44.8697824" lon="7.2137192"><ele>1318.0</ele><time>2026-04-05T11:15:02.971Z</time></trkpt><trkpt lat="44.8698188" lon="7.2136365"><ele>1314.3333333333335</ele><time>2026-04-05T11:15:03.971Z</time></trkpt><trkpt lat="44.8698579" lon="7.213562"><ele>1310.6666666666667</ele><time>2026-04-05T11:15:04.971Z</time></trkpt><trkpt lat="44.8699617" lon="7.2134646"><ele>1307.0</ele><time>2026-04-05T11:15:06.971Z</time></trkpt><trkpt lat="44.8700287" lon="7.2134146"><ele>1311.0</ele><time>2026-04-05T11:15:07.971Z</time></trkpt><trkpt lat="44.8701561" lon="7.2133664"><ele>1315.0</ele><time>2026-04-05T11:15:09.971Z</time></trkpt><trkpt lat="44.8702799" lon="7.2133662"><ele>1319.0</ele><time>2026-04-05T11:15:11.971Z</time></trkpt><trkpt lat="44.8703496" lon="7.2133753"><ele>1323.0</ele><time>2026-04-05T11:15:12.971Z</time></trkpt><trkpt lat="44.8704253" lon="7.2133979"><ele>1327.0</ele><time>2026-04-05T11:15:13.971Z</time></trkpt><trkpt lat="44.8704953" lon="7.2134062"><ele>1327.0</ele><time>2026-04-05T11:15:14.971Z</time></trkpt><trkpt lat="44.8705669" lon="7.2133943"><ele>1327.0</ele><time>2026-04-05T11:15:15.971Z</time></trkpt><trkpt lat="44.8706328" lon="7.2133797"><ele>1327.0</ele><time>2026-04-05T11:15:16.971Z</time></trkpt><trkpt lat="44.870713" lon="7.2133199"><ele>1327.0</ele><time>2026-04-05T11:15:18.971Z</time></trkpt><trkpt lat="44.8707641" lon="7.2132346"><ele>1327.0</ele><time>2026-04-05T11:15:21.971Z</time></trkpt><trkpt lat="44.8708034" lon="7.2131535"><ele>1327.0</ele><time>2026-04-05T11:15:25.971Z</time></trkpt><trkpt lat="44.8708642" lon="7.2130639"><ele>1322.3333333333333</ele><time>2026-04-05T11:15:29.971Z</time></trkpt><trkpt lat="44.8708791" lon="7.2129646"><ele>1317.6666666666665</ele><time>2026-04-05T11:15:32.971Z</time></trkpt><trkpt lat="44.8708364" lon="7.2128892"><ele>1313.0</ele><time>2026-04-05T11:15:35.971Z</time></trkpt><trkpt lat="44.8707834" lon="7.212803"><ele>1308.3333333333333</ele><time>2026-04-05T11:15:39.971Z</time></trkpt><trkpt lat="44.8707259" lon="7.212706"><ele>1303.6666666666667</ele><time>2026-04-05T11:15:42.971Z</time></trkpt><trkpt lat="44.8706605" lon="7.2126973"><ele>1299.0</ele><time>2026-04-05T11:15:46.971Z</time></trkpt><trkpt lat="44.8705675" lon="7.2127422"><ele>1299.0</ele><time>2026-04-05T11:16:55.971Z</time></trkpt><trkpt lat="44.8704953" lon="7.2128031"><ele>1299.0</ele><time>2026-04-05T11:16:57.972Z</time></trkpt><trkpt lat="44.870401" lon="7.2128614"><ele>1299.0</ele><time>2026-04-05T11:16:59.971Z</time></trkpt><trkpt lat="44.8703332" lon="7.2128721"><ele>1299.0</ele><time>2026-04-05T11:17:00.971Z</time></trkpt><trkpt lat="44.8702532" lon="7.2128634"><ele>1299.0</ele><time>2026-04-05T11:17:01.971Z</time></trkpt><trkpt lat="44.8701736" lon="7.2128434"><ele>1299.0</ele><time>2026-04-05T11:17:02.971Z</time></trkpt><trkpt lat="44.8700958" lon="7.2128324"><ele>1295.4</ele><time>2026-04-05T11:17:03.971Z</time></trkpt><trkpt lat="44.870009" lon="7.2128563"><ele>1291.8000000000002</ele><time>2026-04-05T11:17:04.971Z</time></trkpt><trkpt lat="44.8699205" lon="7.2129105"><ele>1288.1999999999998</ele><time>2026-04-05T11:17:05.971Z</time></trkpt><trkpt lat="44.8698406" lon="7.2129648"><ele>1284.6</ele><time>2026-04-05T11:17:06.971Z</time></trkpt><trkpt lat="44.8697635" lon="7.2130331"><ele>1281.0</ele><time>2026-04-05T11:17:07.971Z</time></trkpt><trkpt lat="44.8696919" lon="7.2131131"><ele>1286.1999999999998</ele><time>2026-04-05T11:17:08.971Z</time></trkpt><trkpt lat="44.8696212" lon="7.2132122"><ele>1291.3999999999999</ele><time>2026-04-05T11:17:09.971Z</time></trkpt><trkpt lat="44.8695599" lon="7.2133139"><ele>1296.6</ele><time>2026-04-05T11:17:10.971Z</time></trkpt><trkpt lat="44.8695025" lon="7.2134231"><ele>1301.8</ele><time>2026-04-05T11:17:11.971Z</time></trkpt><trkpt lat="44.8694575" lon="7.213545"><ele>1307.0</ele><time>2026-04-05T11:17:12.971Z</time></trkpt><trkpt lat="44.8694231" lon="7.2136768"><ele>1307.0</ele><time>2026-04-05T11:17:13.971Z</time></trkpt><trkpt lat="44.8693915" lon="7.213809"><ele>1307.0</ele><time>2026-04-05T11:17:14.971Z</time></trkpt><trkpt lat="44.8693545" lon="7.2139524"><ele>1307.0</ele><time>2026-04-05T11:17:15.971Z</time></trkpt><trkpt lat="44.8693144" lon="7.2140918"><ele>1307.0</ele><time>2026-04-05T11:17:16.971Z</time></trkpt><trkpt lat="44.8692541" lon="7.2142204"><ele>1307.0</ele><time>2026-04-05T11:17:17.971Z</time></trkpt><trkpt lat="44.8691765" lon="7.2143333"><ele>1304.1999999999998</ele><time>2026-04-05T11:17:18.971Z</time></trkpt><trkpt lat="44.8690873" lon="7.2144199"><ele>1301.4</ele><time>2026-04-05T11:17:19.971Z</time></trkpt><trkpt lat="44.8689856" lon="7.2144712"><ele>1298.6</ele><time>2026-04-05T11:17:20.971Z</time></trkpt><trkpt lat="44.8688837" lon="7.2145187"><ele>1295.8000000000002</ele><time>2026-04-05T11:17:21.971Z</time></trkpt><trkpt lat="44.8687806" lon="7.2145508"><ele>1293.0</ele><time>2026-04-05T11:17:22.971Z</time></trkpt><trkpt lat="44.8686793" lon="7.2145743"><ele>1293.0</ele><time>2026-04-05T11:17:23.971Z</time></trkpt><trkpt lat="44.8685871" lon="7.2146071"><ele>1293.0</ele><time>2026-04-05T11:17:24.971Z</time></trkpt><trkpt lat="44.8685051" lon="7.2146508"><ele>1293.0</ele><time>2026-04-05T11:17:25.971Z</time></trkpt><trkpt lat="44.8684341" lon="7.2146989"><ele>1293.0</ele><time>2026-04-05T11:17:26.971Z</time></trkpt><trkpt lat="44.8683655" lon="7.2147709"><ele>1293.0</ele><time>2026-04-05T11:17:27.971Z</time></trkpt><trkpt lat="44.8683003" lon="7.2148633"><ele>1293.0</ele><time>2026-04-05T11:17:28.971Z</time></trkpt><trkpt lat="44.8682451" lon="7.2149761"><ele>1290.8000000000002</ele><time>2026-04-05T11:17:29.971Z</time></trkpt><trkpt lat="44.8681899" lon="7.2151069"><ele>1288.6</ele><time>2026-04-05T11:17:30.971Z</time></trkpt><trkpt lat="44.8681435" lon="7.2152328"><ele>1286.4</ele><time>2026-04-05T11:17:31.971Z</time></trkpt><trkpt lat="44.8681009" lon="7.215361"><ele>1284.1999999999998</ele><time>2026-04-05T11:17:32.971Z</time></trkpt><trkpt lat="44.8680555" lon="7.2154803"><ele>1282.0</ele><time>2026-04-05T11:17:33.971Z</time></trkpt><trkpt lat="44.868006" lon="7.2156084"><ele>1284.6</ele><time>2026-04-05T11:17:34.971Z</time></trkpt><trkpt lat="44.8679598" lon="7.2157382"><ele>1287.1999999999998</ele><time>2026-04-05T11:17:35.971Z</time></trkpt><trkpt lat="44.8679115" lon="7.2158678"><ele>1289.8</ele><time>2026-04-05T11:17:36.971Z</time></trkpt><trkpt lat="44.8678763" lon="7.2159962"><ele>1292.4</ele><time>2026-04-05T11:17:37.971Z</time></trkpt><trkpt lat="44.8678442" lon="7.2161165"><ele>1295.0</ele><time>2026-04-05T11:17:38.971Z</time></trkpt><trkpt lat="44.8678029" lon="7.2162351"><ele>1295.0</ele><time>2026-04-05T11:17:39.971Z</time></trkpt><trkpt lat="44.8677432" lon="7.2163244"><ele>1295.0</ele><time>2026-04-05T11:17:40.971Z</time></trkpt><trkpt lat="44.8676812" lon="7.2163935"><ele>1295.0</ele><time>2026-04-05T11:17:41.971Z</time></trkpt><trkpt lat="44.8676232" lon="7.2164853"><ele>1295.0</ele><time>2026-04-05T11:17:42.971Z</time></trkpt><trkpt lat="44.867574" lon="7.2166035"><ele>1295.0</ele><time>2026-04-05T11:17:43.971Z</time></trkpt><trkpt lat="44.8675145" lon="7.2167304"><ele>1290.0</ele><time>2026-04-05T11:17:44.971Z</time></trkpt><trkpt lat="44.8674404" lon="7.2168339"><ele>1285.0</ele><time>2026-04-05T11:17:45.971Z</time></trkpt><trkpt lat="44.8673654" lon="7.2169512"><ele>1280.0</ele><time>2026-04-05T11:17:46.971Z</time></trkpt><trkpt lat="44.8673028" lon="7.217068"><ele>1275.0</ele><time>2026-04-05T11:17:47.971Z</time></trkpt><trkpt lat="44.8672389" lon="7.2171807"><ele>1270.0</ele><time>2026-04-05T11:17:48.971Z</time></trkpt><trkpt lat="44.8671614" lon="7.2172722"><ele>1270.0</ele><time>2026-04-05T11:17:49.971Z</time></trkpt><trkpt lat="44.867062" lon="7.2173009"><ele>1270.0</ele><time>2026-04-05T11:17:50.971Z</time></trkpt><trkpt lat="44.8669763" lon="7.2173726"><ele>1270.0</ele><time>2026-04-05T11:17:51.971Z</time></trkpt><trkpt lat="44.866905" lon="7.2174637"><ele>1270.0</ele><time>2026-04-05T11:17:52.971Z</time></trkpt><trkpt lat="44.8668406" lon="7.2175537"><ele>1270.0</ele><time>2026-04-05T11:17:53.971Z</time></trkpt><trkpt lat="44.8667739" lon="7.2176429"><ele>1268.2</ele><time>2026-04-05T11:17:54.971Z</time></trkpt><trkpt lat="44.8666849" lon="7.217705"><ele>1266.4</ele><time>2026-04-05T11:17:55.971Z</time></trkpt><trkpt lat="44.8665842" lon="7.217728"><ele>1264.6</ele><time>2026-04-05T11:17:56.971Z</time></trkpt><trkpt lat="44.8664678" lon="7.217718"><ele>1262.8</ele><time>2026-04-05T11:17:57.971Z</time></trkpt><trkpt lat="44.8663476" lon="7.2177105"><ele>1261.0</ele><time>2026-04-05T11:17:58.971Z</time></trkpt><trkpt lat="44.8662341" lon="7.2177063"><ele>1261.0</ele><time>2026-04-05T11:17:59.971Z</time></trkpt><trkpt lat="44.866128" lon="7.2177081"><ele>1261.0</ele><time>2026-04-05T11:18:00.972Z</time></trkpt><trkpt lat="44.8660338" lon="7.2177164"><ele>1261.0</ele><time>2026-04-05T11:18:01.971Z</time></trkpt><trkpt lat="44.865942" lon="7.2177319"><ele>1261.0</ele><time>2026-04-05T11:18:02.971Z</time></trkpt><trkpt lat="44.8658494" lon="7.217771"><ele>1261.0</ele><time>2026-04-05T11:18:03.971Z</time></trkpt><trkpt lat="44.8657625" lon="7.2178375"><ele>1259.6666666666665</ele><time>2026-04-05T11:18:04.971Z</time></trkpt><trkpt lat="44.8656723" lon="7.2179039"><ele>1258.3333333333333</ele><time>2026-04-05T11:18:05.971Z</time></trkpt><trkpt lat="44.8655859" lon="7.2179532"><ele>1257.0</ele><time>2026-04-05T11:18:06.971Z</time></trkpt><trkpt lat="44.8655021" lon="7.2179712"><ele>1255.6666666666667</ele><time>2026-04-05T11:18:07.971Z</time></trkpt><trkpt lat="44.8654181" lon="7.2179731"><ele>1254.3333333333335</ele><time>2026-04-05T11:18:08.971Z</time></trkpt><trkpt lat="44.8653375" lon="7.217998"><ele>1253.0</ele><time>2026-04-05T11:18:09.971Z</time></trkpt><trkpt lat="44.865266" lon="7.2180608"><ele>1251.5</ele><time>2026-04-05T11:18:10.971Z</time></trkpt><trkpt lat="44.8652019" lon="7.218162"><ele>1250.0</ele><time>2026-04-05T11:18:11.971Z</time></trkpt><trkpt lat="44.8651459" lon="7.2182577"><ele>1248.5</ele><time>2026-04-05T11:18:12.971Z</time></trkpt><trkpt lat="44.865084" lon="7.2183477"><ele>1247.0</ele><time>2026-04-05T11:18:13.971Z</time></trkpt><trkpt lat="44.8650276" lon="7.2184389"><ele>1245.5</ele><time>2026-04-05T11:18:14.971Z</time></trkpt><trkpt lat="44.8649779" lon="7.2185215"><ele>1244.0</ele><time>2026-04-05T11:18:15.971Z</time></trkpt><trkpt lat="44.8649274" lon="7.2185963"><ele>1244.0</ele><time>2026-04-05T11:18:16.971Z</time></trkpt><trkpt lat="44.8648784" lon="7.2186698"><ele>1244.0</ele><time>2026-04-05T11:18:17.971Z</time></trkpt><trkpt lat="44.8648019" lon="7.2187947"><ele>1244.0</ele><time>2026-04-05T11:18:19.971Z</time></trkpt><trkpt lat="44.8647233" lon="7.2188577"><ele>1244.0</ele><time>2026-04-05T11:18:21.971Z</time></trkpt><trkpt lat="44.8646774" lon="7.2187948"><ele>1244.0</ele><time>2026-04-05T11:18:23.971Z</time></trkpt><trkpt lat="44.8647192" lon="7.2187083"><ele>1244.0</ele><time>2026-04-05T11:18:25.971Z</time></trkpt><trkpt lat="44.864818" lon="7.2185821"><ele>1244.0</ele><time>2026-04-05T11:18:27.971Z</time></trkpt><trkpt lat="44.8648773" lon="7.2184859"><ele>1244.0</ele><time>2026-04-05T11:18:28.971Z</time></trkpt><trkpt lat="44.8649278" lon="7.2183682"><ele>1244.0</ele><time>2026-04-05T11:18:29.971Z</time></trkpt><trkpt lat="44.8649595" lon="7.2182526"><ele>1244.0</ele><time>2026-04-05T11:18:30.971Z</time></trkpt><trkpt lat="44.8649819" lon="7.2181183"><ele>1244.0</ele><time>2026-04-05T11:18:31.971Z</time></trkpt><trkpt lat="44.8649868" lon="7.2179883"><ele>1242.6000000000001</ele><time>2026-04-05T11:18:32.971Z</time></trkpt><trkpt lat="44.8649965" lon="7.2178607"><ele>1241.2</ele><time>2026-04-05T11:18:33.971Z</time></trkpt><trkpt lat="44.8650413" lon="7.217729"><ele>1239.8000000000002</ele><time>2026-04-05T11:18:34.971Z</time></trkpt><trkpt lat="44.8650935" lon="7.2175887"><ele>1238.4</ele><time>2026-04-05T11:18:35.971Z</time></trkpt><trkpt lat="44.8651397" lon="7.2174403"><ele>1237.0</ele><time>2026-04-05T11:18:36.971Z</time></trkpt><trkpt lat="44.8651834" lon="7.217292"><ele>1237.0</ele><time>2026-04-05T11:18:37.971Z</time></trkpt><trkpt lat="44.8652451" lon="7.2171498"><ele>1237.0</ele><time>2026-04-05T11:18:38.971Z</time></trkpt><trkpt lat="44.8653076" lon="7.2170101"><ele>1237.0</ele><time>2026-04-05T11:18:39.971Z</time></trkpt><trkpt lat="44.8653662" lon="7.2168704"><ele>1237.0</ele><time>2026-04-05T11:18:40.971Z</time></trkpt><trkpt lat="44.865418" lon="7.2167333"><ele>1237.0</ele><time>2026-04-05T11:18:41.971Z</time></trkpt><trkpt lat="44.8654636" lon="7.2165891"><ele>1237.0</ele><time>2026-04-05T11:18:42.971Z</time></trkpt><trkpt lat="44.865496" lon="7.2164376"><ele>1237.0</ele><time>2026-04-05T11:18:43.971Z</time></trkpt><trkpt lat="44.8655122" lon="7.2162876"><ele>1237.0</ele><time>2026-04-05T11:18:44.971Z</time></trkpt><trkpt lat="44.8655279" lon="7.2161416"><ele>1237.0</ele><time>2026-04-05T11:18:45.971Z</time></trkpt><trkpt lat="44.8655406" lon="7.2160021"><ele>1235.0</ele><time>2026-04-05T11:18:46.971Z</time></trkpt><trkpt lat="44.8655502" lon="7.215867"><ele>1233.0</ele><time>2026-04-05T11:18:47.971Z</time></trkpt><trkpt lat="44.8655592" lon="7.2157436"><ele>1231.0</ele><time>2026-04-05T11:18:48.971Z</time></trkpt><trkpt lat="44.8655883" lon="7.2156343"><ele>1229.0</ele><time>2026-04-05T11:18:49.971Z</time></trkpt><trkpt lat="44.8656457" lon="7.215547"><ele>1227.0</ele><time>2026-04-05T11:18:50.971Z</time></trkpt><trkpt lat="44.8657198" lon="7.2154784"><ele>1225.0</ele><time>2026-04-05T11:18:51.971Z</time></trkpt><trkpt lat="44.8658023" lon="7.2154127"><ele>1223.8333333333333</ele><time>2026-04-05T11:18:52.971Z</time></trkpt><trkpt lat="44.8658781" lon="7.2153268"><ele>1222.6666666666665</ele><time>2026-04-05T11:18:53.971Z</time></trkpt><trkpt lat="44.8659417" lon="7.2152305"><ele>1221.5</ele><time>2026-04-05T11:18:54.971Z</time></trkpt><trkpt lat="44.866008" lon="7.2151425"><ele>1220.3333333333333</ele><time>2026-04-05T11:18:55.971Z</time></trkpt><trkpt lat="44.8660786" lon="7.215073"><ele>1219.1666666666667</ele><time>2026-04-05T11:18:56.971Z</time></trkpt><trkpt lat="44.8661429" lon="7.215031"><ele>1218.0</ele><time>2026-04-05T11:18:57.971Z</time></trkpt><trkpt lat="44.8662053" lon="7.214918"><ele>1218.0</ele><time>2026-04-05T11:18:59.971Z</time></trkpt><trkpt lat="44.8661456" lon="7.2148608"><ele>1218.0</ele><time>2026-04-05T11:19:01.971Z</time></trkpt><trkpt lat="44.866006" lon="7.2149171"><ele>1218.0</ele><time>2026-04-05T11:19:03.971Z</time></trkpt><trkpt lat="44.8659183" lon="7.2149671"><ele>1218.0</ele><time>2026-04-05T11:19:04.971Z</time></trkpt><trkpt lat="44.865834" lon="7.2149838"><ele>1218.0</ele><time>2026-04-05T11:19:05.971Z</time></trkpt><trkpt lat="44.8657493" lon="7.2149807"><ele>1216.2</ele><time>2026-04-05T11:19:06.971Z</time></trkpt><trkpt lat="44.8656664" lon="7.2149986"><ele>1214.4</ele><time>2026-04-05T11:19:07.971Z</time></trkpt><trkpt lat="44.86558" lon="7.2150407"><ele>1212.6000000000001</ele><time>2026-04-05T11:19:08.971Z</time></trkpt><trkpt lat="44.8655009" lon="7.2151013"><ele>1210.8</ele><time>2026-04-05T11:19:09.971Z</time></trkpt><trkpt lat="44.8654205" lon="7.2151711"><ele>1209.0</ele><time>2026-04-05T11:19:10.971Z</time></trkpt><trkpt lat="44.8653414" lon="7.2152416"><ele>1209.0</ele><time>2026-04-05T11:19:11.971Z</time></trkpt><trkpt lat="44.8652557" lon="7.2153198"><ele>1209.0</ele><time>2026-04-05T11:19:12.971Z</time></trkpt><trkpt lat="44.8651646" lon="7.2153993"><ele>1209.0</ele><time>2026-04-05T11:19:13.971Z</time></trkpt><trkpt lat="44.8650867" lon="7.215481"><ele>1209.0</ele><time>2026-04-05T11:19:14.971Z</time></trkpt><trkpt lat="44.8650207" lon="7.2155949"><ele>1209.0</ele><time>2026-04-05T11:19:15.971Z</time></trkpt><trkpt lat="44.8649688" lon="7.215735"><ele>1206.6000000000001</ele><time>2026-04-05T11:19:16.971Z</time></trkpt><trkpt lat="44.8649201" lon="7.2158733"><ele>1204.2</ele><time>2026-04-05T11:19:17.971Z</time></trkpt><trkpt lat="44.8648725" lon="7.2160068"><ele>1201.8000000000002</ele><time>2026-04-05T11:19:18.971Z</time></trkpt><trkpt lat="44.8648224" lon="7.2161411"><ele>1199.4</ele><time>2026-04-05T11:19:19.971Z</time></trkpt><trkpt lat="44.8647565" lon="7.2162715"><ele>1197.0</ele><time>2026-04-05T11:19:20.971Z</time></trkpt><trkpt lat="44.8646883" lon="7.216391"><ele>1199.8</ele><time>2026-04-05T11:19:21.971Z</time></trkpt><trkpt lat="44.8646191" lon="7.2165052"><ele>1202.6</ele><time>2026-04-05T11:19:22.971Z</time></trkpt><trkpt lat="44.8645407" lon="7.2166043"><ele>1205.3999999999999</ele><time>2026-04-05T11:19:23.971Z</time></trkpt><trkpt lat="44.8644591" lon="7.2167006"><ele>1208.2</ele><time>2026-04-05T11:19:24.971Z</time></trkpt><trkpt lat="44.8643833" lon="7.2168047"><ele>1211.0</ele><time>2026-04-05T11:19:25.971Z</time></trkpt><trkpt lat="44.86428" lon="7.216896"><ele>1208.0</ele><time>2026-04-05T11:19:26.971Z</time></trkpt><trkpt lat="44.8641907" lon="7.2169632"><ele>1205.0</ele><time>2026-04-05T11:19:27.971Z</time></trkpt><trkpt lat="44.8640995" lon="7.2170203"><ele>1202.0</ele><time>2026-04-05T11:19:28.971Z</time></trkpt><trkpt lat="44.8640217" lon="7.2170851"><ele>1199.0</ele><time>2026-04-05T11:19:29.971Z</time></trkpt><trkpt lat="44.8639668" lon="7.2171631"><ele>1196.0</ele><time>2026-04-05T11:19:30.971Z</time></trkpt><trkpt lat="44.8639245" lon="7.2172491"><ele>1193.0</ele><time>2026-04-05T11:19:31.971Z</time></trkpt><trkpt lat="44.8639154" lon="7.2173547"><ele>1193.0</ele><time>2026-04-05T11:19:32.971Z</time></trkpt><trkpt lat="44.8639104" lon="7.2174817"><ele>1193.0</ele><time>2026-04-05T11:19:33.971Z</time></trkpt><trkpt lat="44.8639059" lon="7.2176266"><ele>1193.0</ele><time>2026-04-05T11:19:34.971Z</time></trkpt><trkpt lat="44.8638837" lon="7.2177615"><ele>1193.0</ele><time>2026-04-05T11:19:35.971Z</time></trkpt><trkpt lat="44.8638369" lon="7.2178801"><ele>1193.0</ele><time>2026-04-05T11:19:36.971Z</time></trkpt><trkpt lat="44.8637812" lon="7.217982"><ele>1193.0</ele><time>2026-04-05T11:19:37.971Z</time></trkpt><trkpt lat="44.863731" lon="7.2180917"><ele>1193.0</ele><time>2026-04-05T11:19:38.971Z</time></trkpt><trkpt lat="44.8637033" lon="7.218228"><ele>1193.0</ele><time>2026-04-05T11:19:39.971Z</time></trkpt><trkpt lat="44.8636905" lon="7.2183811"><ele>1193.0</ele><time>2026-04-05T11:19:40.971Z</time></trkpt><trkpt lat="44.8636783" lon="7.218528"><ele>1193.0</ele><time>2026-04-05T11:19:41.971Z</time></trkpt><trkpt lat="44.8636512" lon="7.218676"><ele>1195.0</ele><time>2026-04-05T11:19:42.971Z</time></trkpt><trkpt lat="44.8635971" lon="7.2188162"><ele>1197.0</ele><time>2026-04-05T11:19:43.971Z</time></trkpt><trkpt lat="44.8635391" lon="7.2189406"><ele>1199.0</ele><time>2026-04-05T11:19:44.971Z</time></trkpt><trkpt lat="44.863482" lon="7.2190656"><ele>1201.0</ele><time>2026-04-05T11:19:45.971Z</time></trkpt><trkpt lat="44.8634057" lon="7.2191754"><ele>1203.0</ele><time>2026-04-05T11:19:46.971Z</time></trkpt><trkpt lat="44.8633155" lon="7.2192403"><ele>1196.8</ele><time>2026-04-05T11:19:47.971Z</time></trkpt><trkpt lat="44.8632276" lon="7.2193032"><ele>1190.6</ele><time>2026-04-05T11:19:48.972Z</time></trkpt><trkpt lat="44.8631529" lon="7.2193871"><ele>1184.4</ele><time>2026-04-05T11:19:49.971Z</time></trkpt><trkpt lat="44.8630677" lon="7.2194931"><ele>1178.2</ele><time>2026-04-05T11:19:50.971Z</time></trkpt><trkpt lat="44.8629902" lon="7.2195866"><ele>1172.0</ele><time>2026-04-05T11:19:51.971Z</time></trkpt><trkpt lat="44.8629085" lon="7.219682"><ele>1172.0</ele><time>2026-04-05T11:19:52.971Z</time></trkpt><trkpt lat="44.8628254" lon="7.2197621"><ele>1172.0</ele><time>2026-04-05T11:19:53.971Z</time></trkpt><trkpt lat="44.8627353" lon="7.2198113"><ele>1172.0</ele><time>2026-04-05T11:19:54.971Z</time></trkpt><trkpt lat="44.8626302" lon="7.2198328"><ele>1172.0</ele><time>2026-04-05T11:19:55.971Z</time></trkpt><trkpt lat="44.862532" lon="7.2198204"><ele>1172.0</ele><time>2026-04-05T11:19:56.971Z</time></trkpt><trkpt lat="44.8624383" lon="7.2197918"><ele>1166.8</ele><time>2026-04-05T11:19:57.971Z</time></trkpt><trkpt lat="44.8623427" lon="7.2197508"><ele>1161.6</ele><time>2026-04-05T11:19:58.971Z</time></trkpt><trkpt lat="44.8622548" lon="7.2197116"><ele>1156.3999999999999</ele><time>2026-04-05T11:19:59.971Z</time></trkpt><trkpt lat="44.8621691" lon="7.2196852"><ele>1151.2</ele><time>2026-04-05T11:20:00.972Z</time></trkpt><trkpt lat="44.8620799" lon="7.2196826"><ele>1146.0</ele><time>2026-04-05T11:20:01.971Z</time></trkpt><trkpt lat="44.8619857" lon="7.2196904"><ele>1146.0</ele><time>2026-04-05T11:20:02.971Z</time></trkpt><trkpt lat="44.8618977" lon="7.2196978"><ele>1146.0</ele><time>2026-04-05T11:20:03.971Z</time></trkpt><trkpt lat="44.861792" lon="7.2197302"><ele>1146.0</ele><time>2026-04-05T11:20:04.971Z</time></trkpt><trkpt lat="44.8616852" lon="7.2197833"><ele>1146.0</ele><time>2026-04-05T11:20:05.971Z</time></trkpt><trkpt lat="44.8615828" lon="7.2198449"><ele>1146.0</ele><time>2026-04-05T11:20:06.971Z</time></trkpt><trkpt lat="44.8614806" lon="7.2199056"><ele>1149.0</ele><time>2026-04-05T11:20:07.971Z</time></trkpt><trkpt lat="44.8613878" lon="7.2199683"><ele>1152.0</ele><time>2026-04-05T11:20:08.971Z</time></trkpt><trkpt lat="44.8613094" lon="7.2200337"><ele>1155.0</ele><time>2026-04-05T11:20:09.971Z</time></trkpt><trkpt lat="44.8612455" lon="7.220112"><ele>1158.0</ele><time>2026-04-05T11:20:10.971Z</time></trkpt><trkpt lat="44.8611818" lon="7.220168"><ele>1161.0</ele><time>2026-04-05T11:20:11.971Z</time></trkpt><trkpt lat="44.8611123" lon="7.220209"><ele>1164.0</ele><time>2026-04-05T11:20:12.972Z</time></trkpt><trkpt lat="44.8610472" lon="7.2201945"><ele>1164.0</ele><time>2026-04-05T11:20:13.971Z</time></trkpt><trkpt lat="44.860963" lon="7.2201004"><ele>1164.0</ele><time>2026-04-05T11:20:15.971Z</time></trkpt><trkpt lat="44.8609461" lon="7.2199984"><ele>1164.0</ele><time>2026-04-05T11:20:16.971Z</time></trkpt><trkpt lat="44.8609434" lon="7.2198963"><ele>1164.0</ele><time>2026-04-05T11:20:17.971Z</time></trkpt><trkpt lat="44.860938" lon="7.2197938"><ele>1164.0</ele><time>2026-04-05T11:20:18.971Z</time></trkpt><trkpt lat="44.8609004" lon="7.2197113"><ele>1164.0</ele><time>2026-04-05T11:20:19.971Z</time></trkpt><trkpt lat="44.8608511" lon="7.2196464"><ele>1159.2</ele><time>2026-04-05T11:20:20.971Z</time></trkpt><trkpt lat="44.8607796" lon="7.2196114"><ele>1154.4</ele><time>2026-04-05T11:20:21.971Z</time></trkpt><trkpt lat="44.8606957" lon="7.2196191"><ele>1149.6</ele><time>2026-04-05T11:20:22.971Z</time></trkpt><trkpt lat="44.8605933" lon="7.2196462"><ele>1144.8</ele><time>2026-04-05T11:20:23.971Z</time></trkpt><trkpt lat="44.8604726" lon="7.2196733"><ele>1140.0</ele><time>2026-04-05T11:20:24.971Z</time></trkpt><trkpt lat="44.8603465" lon="7.2196863"><ele>1140.0</ele><time>2026-04-05T11:20:25.971Z</time></trkpt><trkpt lat="44.860225" lon="7.2196892"><ele>1140.0</ele><time>2026-04-05T11:20:26.971Z</time></trkpt><trkpt lat="44.8601059" lon="7.2196794"><ele>1140.0</ele><time>2026-04-05T11:20:27.971Z</time></trkpt><trkpt lat="44.8600003" lon="7.2196628"><ele>1140.0</ele><time>2026-04-05T11:20:28.971Z</time></trkpt><trkpt lat="44.8599261" lon="7.2196446"><ele>1140.0</ele><time>2026-04-05T11:20:29.971Z</time></trkpt><trkpt lat="44.8598374" lon="7.2196458"><ele>1140.8</ele><time>2026-04-05T11:20:30.971Z</time></trkpt><trkpt lat="44.859758" lon="7.2196813"><ele>1141.6</ele><time>2026-04-05T11:20:31.971Z</time></trkpt><trkpt lat="44.8596884" lon="7.2197478"><ele>1142.4</ele><time>2026-04-05T11:20:32.971Z</time></trkpt><trkpt lat="44.8596219" lon="7.2198436"><ele>1143.2</ele><time>2026-04-05T11:20:33.971Z</time></trkpt><trkpt lat="44.8595631" lon="7.2199436"><ele>1144.0</ele><time>2026-04-05T11:20:34.971Z</time></trkpt><trkpt lat="44.8594975" lon="7.2200758"><ele>1144.0</ele><time>2026-04-05T11:20:35.971Z</time></trkpt><trkpt lat="44.8594155" lon="7.2202229"><ele>1144.0</ele><time>2026-04-05T11:20:36.971Z</time></trkpt><trkpt lat="44.8593379" lon="7.2203559"><ele>1144.0</ele><time>2026-04-05T11:20:37.971Z</time></trkpt><trkpt lat="44.8592568" lon="7.2204955"><ele>1144.0</ele><time>2026-04-05T11:20:38.971Z</time></trkpt><trkpt lat="44.8591825" lon="7.2206331"><ele>1140.25</ele><time>2026-04-05T11:20:39.971Z</time></trkpt><trkpt lat="44.8591009" lon="7.2207735"><ele>1136.5</ele><time>2026-04-05T11:20:40.971Z</time></trkpt><trkpt lat="44.8590258" lon="7.2209131"><ele>1132.75</ele><time>2026-04-05T11:20:41.971Z</time></trkpt><trkpt lat="44.8589698" lon="7.2210572"><ele>1129.0</ele><time>2026-04-05T11:20:42.971Z</time></trkpt><trkpt lat="44.858914" lon="7.2212001"><ele>1129.0</ele><time>2026-04-05T11:20:43.971Z</time></trkpt><trkpt lat="44.8588404" lon="7.2213119"><ele>1129.0</ele><time>2026-04-05T11:20:44.971Z</time></trkpt><trkpt lat="44.858757" lon="7.2214186"><ele>1129.0</ele><time>2026-04-05T11:20:45.971Z</time></trkpt><trkpt lat="44.8586776" lon="7.2215386"><ele>1129.0</ele><time>2026-04-05T11:20:46.971Z</time></trkpt><trkpt lat="44.85862" lon="7.2216665"><ele>1129.0</ele><time>2026-04-05T11:20:47.971Z</time></trkpt><trkpt lat="44.8585581" lon="7.2217825"><ele>1129.6000000000001</ele><time>2026-04-05T11:20:48.971Z</time></trkpt><trkpt lat="44.8584836" lon="7.2218866"><ele>1130.2</ele><time>2026-04-05T11:20:49.971Z</time></trkpt><trkpt lat="44.8584231" lon="7.2219969"><ele>1130.8000000000002</ele><time>2026-04-05T11:20:50.971Z</time></trkpt><trkpt lat="44.8583769" lon="7.2221311"><ele>1131.4</ele><time>2026-04-05T11:20:51.971Z</time></trkpt><trkpt lat="44.8583221" lon="7.2222648"><ele>1132.0</ele><time>2026-04-05T11:20:52.971Z</time></trkpt><trkpt lat="44.8582476" lon="7.2223661"><ele>1130.0</ele><time>2026-04-05T11:20:53.971Z</time></trkpt><trkpt lat="44.8581586" lon="7.2224324"><ele>1128.0</ele><time>2026-04-05T11:20:54.971Z</time></trkpt><trkpt lat="44.8580818" lon="7.2225154"><ele>1126.0</ele><time>2026-04-05T11:20:55.971Z</time></trkpt><trkpt lat="44.8580119" lon="7.2226269"><ele>1124.0</ele><time>2026-04-05T11:20:56.971Z</time></trkpt><trkpt lat="44.8579407" lon="7.2227393"><ele>1122.0</ele><time>2026-04-05T11:20:57.971Z</time></trkpt><trkpt lat="44.8578688" lon="7.2228411"><ele>1122.0</ele><time>2026-04-05T11:20:58.971Z</time></trkpt><trkpt lat="44.8577841" lon="7.2229152"><ele>1122.0</ele><time>2026-04-05T11:20:59.971Z</time></trkpt><trkpt lat="44.8576937" lon="7.2229474"><ele>1122.0</ele><time>2026-04-05T11:21:00.971Z</time></trkpt><trkpt lat="44.8576008" lon="7.2229636"><ele>1122.0</ele><time>2026-04-05T11:21:01.971Z</time></trkpt><trkpt lat="44.8575031" lon="7.2229657"><ele>1122.0</ele><time>2026-04-05T11:21:02.971Z</time></trkpt><trkpt lat="44.8574088" lon="7.2229684"><ele>1122.0</ele><time>2026-04-05T11:21:03.971Z</time></trkpt><trkpt lat="44.8573166" lon="7.2229863"><ele>1122.0</ele><time>2026-04-05T11:21:04.971Z</time></trkpt><trkpt lat="44.8572297" lon="7.223017"><ele>1122.0</ele><time>2026-04-05T11:21:05.971Z</time></trkpt><trkpt lat="44.8571424" lon="7.2230703"><ele>1122.0</ele><time>2026-04-05T11:21:06.971Z</time></trkpt><trkpt lat="44.8570512" lon="7.2231245"><ele>1122.0</ele><time>2026-04-05T11:21:07.971Z</time></trkpt><trkpt lat="44.8569543" lon="7.2231834"><ele>1122.0</ele><time>2026-04-05T11:21:08.971Z</time></trkpt><trkpt lat="44.8568575" lon="7.2232378"><ele>1122.0</ele><time>2026-04-05T11:21:09.971Z</time></trkpt><trkpt lat="44.8567563" lon="7.2232778"><ele>1122.0</ele><time>2026-04-05T11:21:10.971Z</time></trkpt><trkpt lat="44.8566542" lon="7.2233231"><ele>1122.0</ele><time>2026-04-05T11:21:11.971Z</time></trkpt><trkpt lat="44.8565565" lon="7.2233664"><ele>1122.0</ele><time>2026-04-05T11:21:12.971Z</time></trkpt><trkpt lat="44.8564606" lon="7.2234222"><ele>1118.6</ele><time>2026-04-05T11:21:13.971Z</time></trkpt><trkpt lat="44.8563772" lon="7.2235018"><ele>1115.2</ele><time>2026-04-05T11:21:14.971Z</time></trkpt><trkpt lat="44.8562928" lon="7.2235714"><ele>1111.8</ele><time>2026-04-05T11:21:15.971Z</time></trkpt><trkpt lat="44.8562069" lon="7.2236213"><ele>1108.4</ele><time>2026-04-05T11:21:16.971Z</time></trkpt><trkpt lat="44.8561186" lon="7.2236573"><ele>1105.0</ele><time>2026-04-05T11:21:17.971Z</time></trkpt><trkpt lat="44.8560357" lon="7.2236682"><ele>1105.0</ele><time>2026-04-05T11:21:18.971Z</time></trkpt><trkpt lat="44.8559581" lon="7.2236987"><ele>1105.0</ele><time>2026-04-05T11:21:19.971Z</time></trkpt><trkpt lat="44.8558926" lon="7.2237543"><ele>1105.0</ele><time>2026-04-05T11:21:20.971Z</time></trkpt><trkpt lat="44.8558321" lon="7.2238204"><ele>1105.0</ele><time>2026-04-05T11:21:21.971Z</time></trkpt><trkpt lat="44.8557863" lon="7.2239189"><ele>1105.0</ele><time>2026-04-05T11:21:22.971Z</time></trkpt><trkpt lat="44.855748" lon="7.2240406"><ele>1105.0</ele><time>2026-04-05T11:21:23.971Z</time></trkpt><trkpt lat="44.8557104" lon="7.224181"><ele>1104.75</ele><time>2026-04-05T11:21:24.971Z</time></trkpt><trkpt lat="44.8556692" lon="7.2243416"><ele>1104.5</ele><time>2026-04-05T11:21:25.971Z</time></trkpt><trkpt lat="44.8556157" lon="7.2245105"><ele>1104.25</ele><time>2026-04-05T11:21:26.971Z</time></trkpt><trkpt lat="44.855555" lon="7.2246736"><ele>1104.0</ele><time>2026-04-05T11:21:27.971Z</time></trkpt><trkpt lat="44.8554944" lon="7.2248271"><ele>1104.0</ele><time>2026-04-05T11:21:28.972Z</time></trkpt><trkpt lat="44.8554415" lon="7.2249755"><ele>1104.0</ele><time>2026-04-05T11:21:29.971Z</time></trkpt><trkpt lat="44.8553958" lon="7.2251154"><ele>1104.0</ele><time>2026-04-05T11:21:30.971Z</time></trkpt><trkpt lat="44.8553625" lon="7.2252555"><ele>1104.0</ele><time>2026-04-05T11:21:31.971Z</time></trkpt><trkpt lat="44.8553312" lon="7.2253968"><ele>1104.0</ele><time>2026-04-05T11:21:32.971Z</time></trkpt><trkpt lat="44.855293" lon="7.2255264"><ele>1105.6000000000001</ele><time>2026-04-05T11:21:33.971Z</time></trkpt><trkpt lat="44.8552433" lon="7.225648"><ele>1107.2</ele><time>2026-04-05T11:21:34.971Z</time></trkpt><trkpt lat="44.8551922" lon="7.2257684"><ele>1108.8000000000002</ele><time>2026-04-05T11:21:35.971Z</time></trkpt><trkpt lat="44.855138" lon="7.2258883"><ele>1110.4</ele><time>2026-04-05T11:21:36.971Z</time></trkpt><trkpt lat="44.8550941" lon="7.2260127"><ele>1112.0</ele><time>2026-04-05T11:21:37.971Z</time></trkpt><trkpt lat="44.8550425" lon="7.2261676"><ele>1106.0</ele><time>2026-04-05T11:21:38.971Z</time></trkpt><trkpt lat="44.8550019" lon="7.2263099"><ele>1100.0</ele><time>2026-04-05T11:21:39.971Z</time></trkpt><trkpt lat="44.8549607" lon="7.2264597"><ele>1094.0</ele><time>2026-04-05T11:21:40.971Z</time></trkpt><trkpt lat="44.8549134" lon="7.2266227"><ele>1088.0</ele><time>2026-04-05T11:21:41.971Z</time></trkpt><trkpt lat="44.8548574" lon="7.2267885"><ele>1088.0</ele><time>2026-04-05T11:21:42.971Z</time></trkpt><trkpt lat="44.8548135" lon="7.2269503"><ele>1088.0</ele><time>2026-04-05T11:21:43.971Z</time></trkpt><trkpt lat="44.854768" lon="7.2270992"><ele>1088.0</ele><time>2026-04-05T11:21:44.971Z</time></trkpt><trkpt lat="44.8547196" lon="7.2272398"><ele>1088.0</ele><time>2026-04-05T11:21:45.971Z</time></trkpt><trkpt lat="44.8546716" lon="7.2273774"><ele>1088.8</ele><time>2026-04-05T11:21:46.971Z</time></trkpt><trkpt lat="44.8546292" lon="7.2275108"><ele>1089.6</ele><time>2026-04-05T11:21:47.971Z</time></trkpt><trkpt lat="44.8545728" lon="7.227595"><ele>1090.4</ele><time>2026-04-05T11:21:48.971Z</time></trkpt><trkpt lat="44.8545159" lon="7.2276911"><ele>1091.2</ele><time>2026-04-05T11:21:49.971Z</time></trkpt><trkpt lat="44.854414" lon="7.2277481"><ele>1092.0</ele><time>2026-04-05T11:21:50.971Z</time></trkpt><trkpt lat="44.8543052" lon="7.2277956"><ele>1087.25</ele><time>2026-04-05T11:21:51.971Z</time></trkpt><trkpt lat="44.8541773" lon="7.2278378"><ele>1082.5</ele><time>2026-04-05T11:21:52.971Z</time></trkpt><trkpt lat="44.8540623" lon="7.2278974"><ele>1077.75</ele><time>2026-04-05T11:21:53.971Z</time></trkpt><trkpt lat="44.8539505" lon="7.2279465"><ele>1073.0</ele><time>2026-04-05T11:21:54.971Z</time></trkpt><trkpt lat="44.8538378" lon="7.227995"><ele>1073.0</ele><time>2026-04-05T11:21:55.971Z</time></trkpt><trkpt lat="44.8537275" lon="7.2280496"><ele>1073.0</ele><time>2026-04-05T11:21:56.971Z</time></trkpt><trkpt lat="44.8536305" lon="7.2281523"><ele>1073.0</ele><time>2026-04-05T11:21:57.971Z</time></trkpt><trkpt lat="44.8535247" lon="7.228258"><ele>1073.0</ele><time>2026-04-05T11:21:58.971Z</time></trkpt><trkpt lat="44.8534256" lon="7.2284266"><ele>1072.6666666666667</ele><time>2026-04-05T11:21:59.971Z</time></trkpt><trkpt lat="44.8533086" lon="7.2285818"><ele>1072.3333333333333</ele><time>2026-04-05T11:22:00.971Z</time></trkpt><trkpt lat="44.8532033" lon="7.2287328"><ele>1072.0</ele><time>2026-04-05T11:22:01.972Z</time></trkpt><trkpt lat="44.8530942" lon="7.2288688"><ele>1072.0</ele><time>2026-04-05T11:22:02.971Z</time></trkpt><trkpt lat="44.8529772" lon="7.2289726"><ele>1072.0</ele><time>2026-04-05T11:22:03.971Z</time></trkpt><trkpt lat="44.8528611" lon="7.2290642"><ele>1072.0</ele><time>2026-04-05T11:22:04.972Z</time></trkpt><trkpt lat="44.8527554" lon="7.2291506"><ele>1072.0</ele><time>2026-04-05T11:22:05.971Z</time></trkpt><trkpt lat="44.8526517" lon="7.2292345"><ele>1070.8</ele><time>2026-04-05T11:22:06.971Z</time></trkpt><trkpt lat="44.8525456" lon="7.2293015"><ele>1069.6</ele><time>2026-04-05T11:22:07.971Z</time></trkpt><trkpt lat="44.8524407" lon="7.2293689"><ele>1068.3999999999999</ele><time>2026-04-05T11:22:08.971Z</time></trkpt><trkpt lat="44.8523382" lon="7.2294319"><ele>1067.2</ele><time>2026-04-05T11:22:09.971Z</time></trkpt><trkpt lat="44.852254" lon="7.2294914"><ele>1066.0</ele><time>2026-04-05T11:22:10.971Z</time></trkpt><trkpt lat="44.8521805" lon="7.2295638"><ele>1066.0</ele><time>2026-04-05T11:22:11.971Z</time></trkpt><trkpt lat="44.8521116" lon="7.2296489"><ele>1066.0</ele><time>2026-04-05T11:22:12.971Z</time></trkpt><trkpt lat="44.8520543" lon="7.2297471"><ele>1066.0</ele><time>2026-04-05T11:22:13.971Z</time></trkpt><trkpt lat="44.8520094" lon="7.2298616"><ele>1066.0</ele><time>2026-04-05T11:22:14.971Z</time></trkpt><trkpt lat="44.8519761" lon="7.2299788"><ele>1066.0</ele><time>2026-04-05T11:22:15.971Z</time></trkpt><trkpt lat="44.8519406" lon="7.2301024"><ele>1066.2</ele><time>2026-04-05T11:22:16.971Z</time></trkpt><trkpt lat="44.8519074" lon="7.2302359"><ele>1066.3999999999999</ele><time>2026-04-05T11:22:17.971Z</time></trkpt><trkpt lat="44.8518753" lon="7.2303758"><ele>1066.6</ele><time>2026-04-05T11:22:18.971Z</time></trkpt><trkpt lat="44.8518311" lon="7.2305194"><ele>1066.8</ele><time>2026-04-05T11:22:19.971Z</time></trkpt><trkpt lat="44.8517954" lon="7.2306474"><ele>1067.0</ele><time>2026-04-05T11:22:20.971Z</time></trkpt><trkpt lat="44.8517773" lon="7.2307841"><ele>1067.0</ele><time>2026-04-05T11:22:21.971Z</time></trkpt><trkpt lat="44.8517681" lon="7.2309064"><ele>1067.0</ele><time>2026-04-05T11:22:22.971Z</time></trkpt><trkpt lat="44.8517836" lon="7.2310256"><ele>1067.0</ele><time>2026-04-05T11:22:23.971Z</time></trkpt><trkpt lat="44.851806" lon="7.2311144"><ele>1067.0</ele><time>2026-04-05T11:22:24.971Z</time></trkpt><trkpt lat="44.8518063" lon="7.2312144"><ele>1067.0</ele><time>2026-04-05T11:22:25.971Z</time></trkpt><trkpt lat="44.8517372" lon="7.2313389"><ele>1067.0</ele><time>2026-04-05T11:22:27.971Z</time></trkpt><trkpt lat="44.8516749" lon="7.231365"><ele>1067.0</ele><time>2026-04-05T11:22:28.971Z</time></trkpt><trkpt lat="44.8515958" lon="7.2313856"><ele>1067.0</ele><time>2026-04-05T11:22:29.971Z</time></trkpt><trkpt lat="44.8515167" lon="7.2314235"><ele>1067.0</ele><time>2026-04-05T11:22:30.971Z</time></trkpt><trkpt lat="44.8514515" lon="7.2314664"><ele>1067.0</ele><time>2026-04-05T11:22:31.971Z</time></trkpt><trkpt lat="44.8513787" lon="7.2315357"><ele>1067.0</ele><time>2026-04-05T11:22:32.971Z</time></trkpt><trkpt lat="44.8512928" lon="7.2315897"><ele>1067.0</ele><time>2026-04-05T11:22:33.971Z</time></trkpt><trkpt lat="44.8511968" lon="7.2316256"><ele>1068.5</ele><time>2026-04-05T11:22:34.971Z</time></trkpt><trkpt lat="44.8510915" lon="7.2316339"><ele>1070.0</ele><time>2026-04-05T11:22:35.971Z</time></trkpt><trkpt lat="44.8509792" lon="7.2316316"><ele>1071.5</ele><time>2026-04-05T11:22:36.971Z</time></trkpt><trkpt lat="44.8508649" lon="7.2316126"><ele>1073.0</ele><time>2026-04-05T11:22:37.971Z</time></trkpt><trkpt lat="44.850751" lon="7.2315764"><ele>1073.0</ele><time>2026-04-05T11:22:38.971Z</time></trkpt><trkpt lat="44.850629" lon="7.2315482"><ele>1073.0</ele><time>2026-04-05T11:22:39.971Z</time></trkpt><trkpt lat="44.8505064" lon="7.2315262"><ele>1073.0</ele><time>2026-04-05T11:22:40.971Z</time></trkpt><trkpt lat="44.8503883" lon="7.2314942"><ele>1073.0</ele><time>2026-04-05T11:22:41.971Z</time></trkpt><trkpt lat="44.8502721" lon="7.2314755"><ele>1069.25</ele><time>2026-04-05T11:22:42.971Z</time></trkpt><trkpt lat="44.8501476" lon="7.2314729"><ele>1065.5</ele><time>2026-04-05T11:22:43.971Z</time></trkpt><trkpt lat="44.8500197" lon="7.2314672"><ele>1061.75</ele><time>2026-04-05T11:22:44.971Z</time></trkpt><trkpt lat="44.8499016" lon="7.2314665"><ele>1058.0</ele><time>2026-04-05T11:22:45.971Z</time></trkpt><trkpt lat="44.8497891" lon="7.2314661"><ele>1061.6</ele><time>2026-04-05T11:22:46.971Z</time></trkpt><trkpt lat="44.8496752" lon="7.2314754"><ele>1065.1999999999998</ele><time>2026-04-05T11:22:47.971Z</time></trkpt><trkpt lat="44.8495713" lon="7.2314983"><ele>1068.8</ele><time>2026-04-05T11:22:48.971Z</time></trkpt><trkpt lat="44.8494725" lon="7.2315417"><ele>1072.3999999999999</ele><time>2026-04-05T11:22:49.971Z</time></trkpt><trkpt lat="44.8493858" lon="7.2316145"><ele>1076.0</ele><time>2026-04-05T11:22:50.971Z</time></trkpt><trkpt lat="44.849312" lon="7.2317114"><ele>1074.0</ele><time>2026-04-05T11:22:51.971Z</time></trkpt><trkpt lat="44.8492507" lon="7.2318218"><ele>1072.0</ele><time>2026-04-05T11:22:52.971Z</time></trkpt><trkpt lat="44.8492045" lon="7.2319458"><ele>1070.0</ele><time>2026-04-05T11:22:53.971Z</time></trkpt><trkpt lat="44.8491752" lon="7.232074"><ele>1068.0</ele><time>2026-04-05T11:22:54.971Z</time></trkpt><trkpt lat="44.8491625" lon="7.2322172"><ele>1066.0</ele><time>2026-04-05T11:22:55.971Z</time></trkpt><trkpt lat="44.8491593" lon="7.2323779"><ele>1066.0</ele><time>2026-04-05T11:22:56.971Z</time></trkpt><trkpt lat="44.8491564" lon="7.2325578"><ele>1066.0</ele><time>2026-04-05T11:22:57.971Z</time></trkpt><trkpt lat="44.8491457" lon="7.2327392"><ele>1066.0</ele><time>2026-04-05T11:22:58.971Z</time></trkpt><trkpt lat="44.8491241" lon="7.2329088"><ele>1066.0</ele><time>2026-04-05T11:22:59.971Z</time></trkpt><trkpt lat="44.849112" lon="7.2330649"><ele>1066.6</ele><time>2026-04-05T11:23:00.971Z</time></trkpt><trkpt lat="44.849103" lon="7.2332225"><ele>1067.1999999999998</ele><time>2026-04-05T11:23:01.971Z</time></trkpt><trkpt lat="44.8490897" lon="7.2333654"><ele>1067.8000000000002</ele><time>2026-04-05T11:23:02.971Z</time></trkpt><trkpt lat="44.8491085" lon="7.2335284"><ele>1068.4</ele><time>2026-04-05T11:23:03.971Z</time></trkpt><trkpt lat="44.8491077" lon="7.2336845"><ele>1069.0</ele><time>2026-04-05T11:23:04.971Z</time></trkpt><trkpt lat="44.8490796" lon="7.2338347"><ele>1070.2</ele><time>2026-04-05T11:23:05.971Z</time></trkpt><trkpt lat="44.8490604" lon="7.2339876"><ele>1071.4</ele><time>2026-04-05T11:23:06.971Z</time></trkpt><trkpt lat="44.8490323" lon="7.2341382"><ele>1072.6</ele><time>2026-04-05T11:23:07.971Z</time></trkpt><trkpt lat="44.8490088" lon="7.2342905"><ele>1073.8</ele><time>2026-04-05T11:23:08.971Z</time></trkpt><trkpt lat="44.8489837" lon="7.2344364"><ele>1075.0</ele><time>2026-04-05T11:23:09.971Z</time></trkpt><trkpt lat="44.8489648" lon="7.2345887"><ele>1075.0</ele><time>2026-04-05T11:23:10.971Z</time></trkpt><trkpt lat="44.8489528" lon="7.2347048"><ele>1075.0</ele><time>2026-04-05T11:23:11.971Z</time></trkpt><trkpt lat="44.8489645" lon="7.2348224"><ele>1075.0</ele><time>2026-04-05T11:23:12.971Z</time></trkpt><trkpt lat="44.8490002" lon="7.2349445"><ele>1075.0</ele><time>2026-04-05T11:23:13.971Z</time></trkpt><trkpt lat="44.8490428" lon="7.2350528"><ele>1075.0</ele><time>2026-04-05T11:23:14.971Z</time></trkpt><trkpt lat="44.8491086" lon="7.2351521"><ele>1075.0</ele><time>2026-04-05T11:23:15.971Z</time></trkpt><trkpt lat="44.8491563" lon="7.2352549"><ele>1075.1666666666665</ele><time>2026-04-05T11:23:16.971Z</time></trkpt><trkpt lat="44.8491742" lon="7.2353688"><ele>1075.3333333333333</ele><time>2026-04-05T11:23:17.971Z</time></trkpt><trkpt lat="44.8491573" lon="7.2354714"><ele>1075.5</ele><time>2026-04-05T11:23:18.971Z</time></trkpt><trkpt lat="44.8491055" lon="7.2355594"><ele>1075.6666666666667</ele><time>2026-04-05T11:23:19.971Z</time></trkpt><trkpt lat="44.8490337" lon="7.2356287"><ele>1075.8333333333335</ele><time>2026-04-05T11:23:20.971Z</time></trkpt><trkpt lat="44.8489559" lon="7.2357028"><ele>1076.0</ele><time>2026-04-05T11:23:21.971Z</time></trkpt><trkpt lat="44.8488791" lon="7.235774"><ele>1075.5</ele><time>2026-04-05T11:23:22.971Z</time></trkpt><trkpt lat="44.8488173" lon="7.2358587"><ele>1075.0</ele><time>2026-04-05T11:23:23.972Z</time></trkpt><trkpt lat="44.8487581" lon="7.2359525"><ele>1074.5</ele><time>2026-04-05T11:23:24.971Z</time></trkpt><trkpt lat="44.8486982" lon="7.2360418"><ele>1074.0</ele><time>2026-04-05T11:23:25.971Z</time></trkpt><trkpt lat="44.8486496" lon="7.2361439"><ele>1073.5</ele><time>2026-04-05T11:23:26.971Z</time></trkpt><trkpt lat="44.8486186" lon="7.2362432"><ele>1073.0</ele><time>2026-04-05T11:23:27.971Z</time></trkpt><trkpt lat="44.8485801" lon="7.2363569"><ele>1075.8</ele><time>2026-04-05T11:23:28.971Z</time></trkpt><trkpt lat="44.8485684" lon="7.2364916"><ele>1078.6</ele><time>2026-04-05T11:23:29.971Z</time></trkpt><trkpt lat="44.8485577" lon="7.2366215"><ele>1081.4</ele><time>2026-04-05T11:23:30.971Z</time></trkpt><trkpt lat="44.8485388" lon="7.2367556"><ele>1084.2</ele><time>2026-04-05T11:23:31.971Z</time></trkpt><trkpt lat="44.848493" lon="7.2368768"><ele>1087.0</ele><time>2026-04-05T11:23:32.971Z</time></trkpt><trkpt lat="44.8484394" lon="7.2369655"><ele>1080.4</ele><time>2026-04-05T11:23:33.971Z</time></trkpt><trkpt lat="44.8483499" lon="7.2370301"><ele>1073.8000000000002</ele><time>2026-04-05T11:23:34.971Z</time></trkpt><trkpt lat="44.8482501" lon="7.2370665"><ele>1067.2</ele><time>2026-04-05T11:23:35.971Z</time></trkpt><trkpt lat="44.8481562" lon="7.2370967"><ele>1060.6000000000001</ele><time>2026-04-05T11:23:36.971Z</time></trkpt><trkpt lat="44.8480717" lon="7.2371436"><ele>1054.0</ele><time>2026-04-05T11:23:37.971Z</time></trkpt><trkpt lat="44.8479903" lon="7.2371984"><ele>1056.5</ele><time>2026-04-05T11:23:38.971Z</time></trkpt><trkpt lat="44.8479133" lon="7.2373092"><ele>1059.0</ele><time>2026-04-05T11:23:39.971Z</time></trkpt><trkpt lat="44.8478392" lon="7.2374297"><ele>1061.5</ele><time>2026-04-05T11:23:40.971Z</time></trkpt><trkpt lat="44.8477624" lon="7.2375486"><ele>1064.0</ele><time>2026-04-05T11:23:41.971Z</time></trkpt><trkpt lat="44.8476765" lon="7.237678"><ele>1058.25</ele><time>2026-04-05T11:23:42.971Z</time></trkpt><trkpt lat="44.8475895" lon="7.2378"><ele>1052.5</ele><time>2026-04-05T11:23:43.971Z</time></trkpt><trkpt lat="44.8475009" lon="7.237928"><ele>1046.75</ele><time>2026-04-05T11:23:44.971Z</time></trkpt><trkpt lat="44.8474163" lon="7.2380546"><ele>1041.0</ele><time>2026-04-05T11:23:45.971Z</time></trkpt><trkpt lat="44.8473354" lon="7.2381804"><ele>1041.0</ele><time>2026-04-05T11:23:46.971Z</time></trkpt><trkpt lat="44.8472558" lon="7.2383078"><ele>1041.0</ele><time>2026-04-05T11:23:47.971Z</time></trkpt><trkpt lat="44.8471813" lon="7.238416"><ele>1041.0</ele><time>2026-04-05T11:23:48.971Z</time></trkpt><trkpt lat="44.8471131" lon="7.2385304"><ele>1041.0</ele><time>2026-04-05T11:23:49.971Z</time></trkpt><trkpt lat="44.8470591" lon="7.2386537"><ele>1041.0</ele><time>2026-04-05T11:23:50.971Z</time></trkpt><trkpt lat="44.8470102" lon="7.2387735"><ele>1041.0</ele><time>2026-04-05T11:23:51.971Z</time></trkpt><trkpt lat="44.8469766" lon="7.2388809"><ele>1041.0</ele><time>2026-04-05T11:23:52.971Z</time></trkpt><trkpt lat="44.8469577" lon="7.2389853"><ele>1041.0</ele><time>2026-04-05T11:23:53.971Z</time></trkpt><trkpt lat="44.8469437" lon="7.2391023"><ele>1041.0</ele><time>2026-04-05T11:23:54.971Z</time></trkpt><trkpt lat="44.8469475" lon="7.2392247"><ele>1041.0</ele><time>2026-04-05T11:23:55.971Z</time></trkpt><trkpt lat="44.8469599" lon="7.2393487"><ele>1041.0</ele><time>2026-04-05T11:23:56.971Z</time></trkpt><trkpt lat="44.8470296" lon="7.2394669"><ele>1041.0</ele><time>2026-04-05T11:23:57.971Z</time></trkpt><trkpt lat="44.847082" lon="7.2395883"><ele>1041.0</ele><time>2026-04-05T11:23:58.971Z</time></trkpt><trkpt lat="44.8471342" lon="7.239706"><ele>1041.0</ele><time>2026-04-05T11:23:59.971Z</time></trkpt><trkpt lat="44.8472005" lon="7.2398108"><ele>1041.0</ele><time>2026-04-05T11:24:00.971Z</time></trkpt><trkpt lat="44.8472727" lon="7.2399044"><ele>1041.0</ele><time>2026-04-05T11:24:01.971Z</time></trkpt><trkpt lat="44.8473474" lon="7.2399635"><ele>1040.5</ele><time>2026-04-05T11:24:02.971Z</time></trkpt><trkpt lat="44.847421" lon="7.2400031"><ele>1040.0</ele><time>2026-04-05T11:24:03.971Z</time></trkpt><trkpt lat="44.847488" lon="7.2400259"><ele>1039.5</ele><time>2026-04-05T11:24:04.971Z</time></trkpt><trkpt lat="44.847596" lon="7.2400245"><ele>1039.0</ele><time>2026-04-05T11:24:06.971Z</time></trkpt><trkpt lat="44.8476756" lon="7.2399887"><ele>1038.5</ele><time>2026-04-05T11:24:09.971Z</time></trkpt><trkpt lat="44.8477367" lon="7.2399672"><ele>1038.0</ele><time>2026-04-05T11:27:08.971Z</time></trkpt><trkpt lat="44.8478021" lon="7.2399196"><ele>1038.0</ele><time>2026-04-05T11:27:10.971Z</time></trkpt><trkpt lat="44.8478691" lon="7.2398981"><ele>1038.0</ele><time>2026-04-05T11:27:12.971Z</time></trkpt><trkpt lat="44.8479631" lon="7.2399525"><ele>1038.0</ele><time>2026-04-05T11:27:14.971Z</time></trkpt><trkpt lat="44.8480731" lon="7.2400381"><ele>1038.0</ele><time>2026-04-05T11:27:16.971Z</time></trkpt><trkpt lat="44.848158" lon="7.2401521"><ele>1038.0</ele><time>2026-04-05T11:27:18.971Z</time></trkpt><trkpt lat="44.8482053" lon="7.240269"><ele>1038.0</ele><time>2026-04-05T11:27:20.971Z</time></trkpt><trkpt lat="44.8482806" lon="7.2403267"><ele>1038.0</ele><time>2026-04-05T11:27:22.971Z</time></trkpt><trkpt lat="44.848415" lon="7.2403567"><ele>1038.0</ele><time>2026-04-05T11:27:24.971Z</time></trkpt><trkpt lat="44.8484838" lon="7.2403558"><ele>1038.0</ele><time>2026-04-05T11:27:25.971Z</time></trkpt><trkpt lat="44.8485908" lon="7.2403575"><ele>1038.0</ele><time>2026-04-05T11:27:27.971Z</time></trkpt><trkpt lat="44.8486556" lon="7.2403346"><ele>1038.3333333333333</ele><time>2026-04-05T11:27:28.971Z</time></trkpt><trkpt lat="44.8487748" lon="7.2403022"><ele>1038.6666666666667</ele><time>2026-04-05T11:27:30.971Z</time></trkpt><trkpt lat="44.8488493" lon="7.2402964"><ele>1039.0</ele><time>2026-04-05T11:27:31.971Z</time></trkpt><trkpt lat="44.848922" lon="7.240286"><ele>1039.3333333333335</ele><time>2026-04-05T11:27:32.971Z</time></trkpt><trkpt lat="44.8489924" lon="7.2403287"><ele>1039.6666666666667</ele><time>2026-04-05T11:27:33.971Z</time></trkpt><trkpt lat="44.849064" lon="7.2403412"><ele>1040.0</ele><time>2026-04-05T11:27:34.971Z</time></trkpt><trkpt lat="44.8491504" lon="7.2403451"><ele>1040.0</ele><time>2026-04-05T11:27:35.971Z</time></trkpt><trkpt lat="44.8492511" lon="7.2403173"><ele>1040.0</ele><time>2026-04-05T11:27:36.971Z</time></trkpt><trkpt lat="44.8493412" lon="7.2403026"><ele>1040.0</ele><time>2026-04-05T11:27:37.971Z</time></trkpt><trkpt lat="44.8494134" lon="7.2402933"><ele>1040.0</ele><time>2026-04-05T11:27:38.971Z</time></trkpt><trkpt lat="44.8494856" lon="7.2402839"><ele>1040.0</ele><time>2026-04-05T11:27:39.971Z</time></trkpt><trkpt lat="44.8495921" lon="7.2403364"><ele>1042.4</ele><time>2026-04-05T11:27:41.971Z</time></trkpt><trkpt lat="44.8496475" lon="7.2403955"><ele>1044.8</ele><time>2026-04-05T11:27:42.971Z</time></trkpt><trkpt lat="44.8497355" lon="7.2405295"><ele>1047.2</ele><time>2026-04-05T11:27:44.971Z</time></trkpt><trkpt lat="44.8497819" lon="7.2406037"><ele>1049.6</ele><time>2026-04-05T11:27:45.971Z</time></trkpt><trkpt lat="44.8498433" lon="7.2406613"><ele>1052.0</ele><time>2026-04-05T11:27:46.971Z</time></trkpt><trkpt lat="44.8499376" lon="7.240753"><ele>1053.1666666666667</ele><time>2026-04-05T11:27:48.971Z</time></trkpt><trkpt lat="44.850051" lon="7.2407044"><ele>1054.3333333333335</ele><time>2026-04-05T11:27:50.971Z</time></trkpt><trkpt lat="44.8501542" lon="7.2406065"><ele>1055.5</ele><time>2026-04-05T11:27:52.971Z</time></trkpt><trkpt lat="44.8502169" lon="7.2405742"><ele>1056.6666666666667</ele><time>2026-04-05T11:27:53.971Z</time></trkpt><trkpt lat="44.8502866" lon="7.2405513"><ele>1057.8333333333333</ele><time>2026-04-05T11:27:54.971Z</time></trkpt><trkpt lat="44.8503493" lon="7.2405345"><ele>1059.0</ele><time>2026-04-05T11:27:55.971Z</time></trkpt><trkpt lat="44.8504677" lon="7.2405322"><ele>1059.0</ele><time>2026-04-05T11:27:57.971Z</time></trkpt><trkpt lat="44.8505526" lon="7.240526"><ele>1059.0</ele><time>2026-04-05T11:27:58.971Z</time></trkpt><trkpt lat="44.8506225" lon="7.2405027"><ele>1059.0</ele><time>2026-04-05T11:27:59.971Z</time></trkpt><trkpt lat="44.8506936" lon="7.2404667"><ele>1059.0</ele><time>2026-04-05T11:28:00.971Z</time></trkpt><trkpt lat="44.8507588" lon="7.2404548"><ele>1059.0</ele><time>2026-04-05T11:28:01.971Z</time></trkpt><trkpt lat="44.8508229" lon="7.2404516"><ele>1059.0</ele><time>2026-04-05T11:28:02.971Z</time></trkpt><trkpt lat="44.8508866" lon="7.2404617"><ele>1059.0</ele><time>2026-04-05T11:28:03.971Z</time></trkpt><trkpt lat="44.8509848" lon="7.2405391"><ele>1061.3333333333333</ele><time>2026-04-05T11:28:05.971Z</time></trkpt><trkpt lat="44.8510402" lon="7.2406066"><ele>1063.6666666666667</ele><time>2026-04-05T11:28:06.971Z</time></trkpt><trkpt lat="44.8510847" lon="7.2406733"><ele>1066.0</ele><time>2026-04-05T11:28:07.971Z</time></trkpt><trkpt lat="44.8511211" lon="7.2408047"><ele>1068.3333333333335</ele><time>2026-04-05T11:28:08.971Z</time></trkpt><trkpt lat="44.851163" lon="7.2409247"><ele>1070.6666666666667</ele><time>2026-04-05T11:28:09.971Z</time></trkpt><trkpt lat="44.8511788" lon="7.2410524"><ele>1073.0</ele><time>2026-04-05T11:28:10.971Z</time></trkpt><trkpt lat="44.8511931" lon="7.2411641"><ele>1067.4</ele><time>2026-04-05T11:28:11.971Z</time></trkpt><trkpt lat="44.8512104" lon="7.2412752"><ele>1061.8</ele><time>2026-04-05T11:28:12.971Z</time></trkpt><trkpt lat="44.8512262" lon="7.2413766"><ele>1056.2</ele><time>2026-04-05T11:28:13.971Z</time></trkpt><trkpt lat="44.8512728" lon="7.2415014"><ele>1050.6</ele><time>2026-04-05T11:28:15.971Z</time></trkpt><trkpt lat="44.8513379" lon="7.2415318"><ele>1045.0</ele><time>2026-04-05T11:28:16.971Z</time></trkpt><trkpt lat="44.8514695" lon="7.2415983"><ele>1043.142857142857</ele><time>2026-04-05T11:28:18.971Z</time></trkpt><trkpt lat="44.8515424" lon="7.2416422"><ele>1041.2857142857142</ele><time>2026-04-05T11:28:19.971Z</time></trkpt><trkpt lat="44.8516073" lon="7.2416991"><ele>1039.4285714285713</ele><time>2026-04-05T11:28:20.971Z</time></trkpt><trkpt lat="44.8516745" lon="7.2417431"><ele>1037.5714285714284</ele><time>2026-04-05T11:28:21.971Z</time></trkpt><trkpt lat="44.85171" lon="7.2418235"><ele>1035.7142857142858</ele><time>2026-04-05T11:28:22.971Z</time></trkpt><trkpt lat="44.8517732" lon="7.2418762"><ele>1033.8571428571427</ele><time>2026-04-05T11:28:23.971Z</time></trkpt><trkpt lat="44.8518219" lon="7.2419378"><ele>1032.0</ele><time>2026-04-05T11:28:24.971Z</time></trkpt><trkpt lat="44.8519006" lon="7.2419886"><ele>1032.0</ele><time>2026-04-05T11:28:25.971Z</time></trkpt><trkpt lat="44.8519735" lon="7.2420378"><ele>1032.0</ele><time>2026-04-05T11:28:26.971Z</time></trkpt><trkpt lat="44.8520556" lon="7.2420924"><ele>1032.0</ele><time>2026-04-05T11:28:27.971Z</time></trkpt><trkpt lat="44.8521092" lon="7.2421526"><ele>1032.0</ele><time>2026-04-05T11:28:28.971Z</time></trkpt><trkpt lat="44.8521627" lon="7.2422174"><ele>1032.0</ele><time>2026-04-05T11:28:29.971Z</time></trkpt><trkpt lat="44.8521931" lon="7.2423221"><ele>1032.0</ele><time>2026-04-05T11:28:30.971Z</time></trkpt><trkpt lat="44.8522255" lon="7.2424415"><ele>1029.3333333333333</ele><time>2026-04-05T11:28:31.971Z</time></trkpt><trkpt lat="44.8522453" lon="7.2425653"><ele>1026.6666666666667</ele><time>2026-04-05T11:28:32.971Z</time></trkpt><trkpt lat="44.8522771" lon="7.2426732"><ele>1024.0</ele><time>2026-04-05T11:28:33.971Z</time></trkpt><trkpt lat="44.8523167" lon="7.2427782"><ele>1021.3333333333334</ele><time>2026-04-05T11:28:34.971Z</time></trkpt><trkpt lat="44.8523691" lon="7.2428506"><ele>1018.6666666666667</ele><time>2026-04-05T11:28:35.971Z</time></trkpt><trkpt lat="44.8524284" lon="7.2429204"><ele>1016.0</ele><time>2026-04-05T11:28:36.971Z</time></trkpt><trkpt lat="44.852491" lon="7.2429739"><ele>1016.0</ele><time>2026-04-05T11:28:37.971Z</time></trkpt><trkpt lat="44.8525536" lon="7.2430395"><ele>1016.0</ele><time>2026-04-05T11:28:38.971Z</time></trkpt><trkpt lat="44.8526171" lon="7.2430937"><ele>1016.0</ele><time>2026-04-05T11:28:39.971Z</time></trkpt><trkpt lat="44.8526807" lon="7.2431413"><ele>1016.0</ele><time>2026-04-05T11:28:40.971Z</time></trkpt><trkpt lat="44.852708" lon="7.2432258"><ele>1016.0</ele><time>2026-04-05T11:28:41.971Z</time></trkpt><trkpt lat="44.8527307" lon="7.2433129"><ele>1016.0</ele><time>2026-04-05T11:28:42.971Z</time></trkpt><trkpt lat="44.8527366" lon="7.2434206"><ele>1016.0</ele><time>2026-04-05T11:28:43.971Z</time></trkpt><trkpt lat="44.8527476" lon="7.2435241"><ele>1010.8</ele><time>2026-04-05T11:28:44.971Z</time></trkpt><trkpt lat="44.8527572" lon="7.2436884"><ele>1005.5999999999999</ele><time>2026-04-05T11:28:46.971Z</time></trkpt><trkpt lat="44.8527721" lon="7.2438352"><ele>1000.4</ele><time>2026-04-05T11:28:48.971Z</time></trkpt><trkpt lat="44.8527536" lon="7.2439582"><ele>995.2</ele><time>2026-04-05T11:28:50.971Z</time></trkpt><trkpt lat="44.8527604" lon="7.2440782"><ele>990.0</ele><time>2026-04-05T11:28:52.971Z</time></trkpt><trkpt lat="44.8527819" lon="7.244184"><ele>989.8333333333334</ele><time>2026-04-05T11:28:54.971Z</time></trkpt><trkpt lat="44.852859" lon="7.2442559"><ele>989.6666666666667</ele><time>2026-04-05T11:28:56.971Z</time></trkpt><trkpt lat="44.8529366" lon="7.2442319"><ele>989.5</ele><time>2026-04-05T11:28:58.971Z</time></trkpt><trkpt lat="44.8530036" lon="7.244199"><ele>989.3333333333334</ele><time>2026-04-05T11:29:00.971Z</time></trkpt><trkpt lat="44.853047" lon="7.2442801"><ele>989.1666666666667</ele><time>2026-04-05T11:29:02.971Z</time></trkpt><trkpt lat="44.8530502" lon="7.2444307"><ele>989.0</ele><time>2026-04-05T11:29:04.971Z</time></trkpt><trkpt lat="44.8530384" lon="7.2445823"><ele>989.0000000000001</ele><time>2026-04-05T11:29:06.971Z</time></trkpt><trkpt lat="44.8530281" lon="7.2446791"><ele>989.0</ele><time>2026-04-05T11:29:07.971Z</time></trkpt><trkpt lat="44.8530425" lon="7.2448533"><ele>989.0</ele><time>2026-04-05T11:29:09.971Z</time></trkpt><trkpt lat="44.8530389" lon="7.244944"><ele>989.0</ele><time>2026-04-05T11:29:10.971Z</time></trkpt><trkpt lat="44.8530445" lon="7.2450595"><ele>989.0000000000001</ele><time>2026-04-05T11:29:11.971Z</time></trkpt><trkpt lat="44.8530559" lon="7.245153"><ele>989.0</ele><time>2026-04-05T11:29:12.971Z</time></trkpt><trkpt lat="44.8531048" lon="7.2452566"><ele>988.25</ele><time>2026-04-05T11:29:13.972Z</time></trkpt><trkpt lat="44.8531824" lon="7.2453979"><ele>987.5</ele><time>2026-04-05T11:29:15.971Z</time></trkpt><trkpt lat="44.8532672" lon="7.2455179"><ele>986.75</ele><time>2026-04-05T11:29:17.971Z</time></trkpt><trkpt lat="44.8533556" lon="7.2456199"><ele>986.0</ele><time>2026-04-05T11:29:19.971Z</time></trkpt><trkpt lat="44.8534299" lon="7.2457348"><ele>980.6666666666667</ele><time>2026-04-05T11:29:21.971Z</time></trkpt><trkpt lat="44.8534994" lon="7.2458144"><ele>975.3333333333334</ele><time>2026-04-05T11:29:23.971Z</time></trkpt><trkpt lat="44.8535662" lon="7.2457706"><ele>970.0</ele><time>2026-04-05T11:29:25.971Z</time></trkpt><trkpt lat="44.8536036" lon="7.2456559"><ele>964.6666666666667</ele><time>2026-04-05T11:29:27.971Z</time></trkpt><trkpt lat="44.8536427" lon="7.2455226"><ele>959.3333333333334</ele><time>2026-04-05T11:29:29.971Z</time></trkpt><trkpt lat="44.8536915" lon="7.245452"><ele>954.0</ele><time>2026-04-05T11:29:31.971Z</time></trkpt><trkpt lat="44.853754" lon="7.2455273"><ele>953.6666666666666</ele><time>2026-04-05T11:29:34.971Z</time></trkpt><trkpt lat="44.8537682" lon="7.2456817"><ele>953.3333333333333</ele><time>2026-04-05T11:29:36.971Z</time></trkpt><trkpt lat="44.8538053" lon="7.2457766"><ele>953.0</ele><time>2026-04-05T11:29:37.971Z</time></trkpt><trkpt lat="44.853834" lon="7.2458643"><ele>952.6666666666666</ele><time>2026-04-05T11:29:38.971Z</time></trkpt><trkpt lat="44.853882" lon="7.2460189"><ele>952.3333333333333</ele><time>2026-04-05T11:29:40.971Z</time></trkpt><trkpt lat="44.853905" lon="7.2461027"><ele>952.0</ele><time>2026-04-05T11:29:41.971Z</time></trkpt><trkpt lat="44.8539449" lon="7.2462475"><ele>952.0</ele><time>2026-04-05T11:29:43.971Z</time></trkpt><trkpt lat="44.8539952" lon="7.2463864"><ele>952.0</ele><time>2026-04-05T11:29:45.971Z</time></trkpt><trkpt lat="44.8540311" lon="7.2465451"><ele>952.0</ele><time>2026-04-05T11:29:47.971Z</time></trkpt><trkpt lat="44.8540662" lon="7.2466758"><ele>952.0</ele><time>2026-04-05T11:29:49.971Z</time></trkpt><trkpt lat="44.8540987" lon="7.2468044"><ele>952.0</ele><time>2026-04-05T11:29:51.971Z</time></trkpt><trkpt lat="44.8541364" lon="7.2469055"><ele>950.4999999999999</ele><time>2026-04-05T11:29:53.971Z</time></trkpt><trkpt lat="44.8542077" lon="7.2469291"><ele>949.0</ele><time>2026-04-05T11:29:56.971Z</time></trkpt><trkpt lat="44.8542541" lon="7.246869"><ele>947.5</ele><time>2026-04-05T11:29:58.971Z</time></trkpt><trkpt lat="44.854294" lon="7.2467417"><ele>946.0</ele><time>2026-04-05T11:30:00.971Z</time></trkpt><trkpt lat="44.8543268" lon="7.2466191"><ele>944.4999999999999</ele><time>2026-04-05T11:30:02.971Z</time></trkpt><trkpt lat="44.8543574" lon="7.2464631"><ele>943.0</ele><time>2026-04-05T11:30:04.971Z</time></trkpt><trkpt lat="44.8543851" lon="7.2463143"><ele>937.8333333333333</ele><time>2026-04-05T11:30:06.971Z</time></trkpt><trkpt lat="44.8544158" lon="7.2461672"><ele>932.6666666666666</ele><time>2026-04-05T11:30:08.971Z</time></trkpt><trkpt lat="44.854451" lon="7.2459922"><ele>927.5</ele><time>2026-04-05T11:30:10.971Z</time></trkpt><trkpt lat="44.8544748" lon="7.2459032"><ele>922.3333333333333</ele><time>2026-04-05T11:30:11.971Z</time></trkpt><trkpt lat="44.8545173" lon="7.2458322"><ele>917.1666666666666</ele><time>2026-04-05T11:30:12.971Z</time></trkpt><trkpt lat="44.8545611" lon="7.2457589"><ele>912.0</ele><time>2026-04-05T11:30:13.971Z</time></trkpt><trkpt lat="44.8546413" lon="7.2456192"><ele>912.0</ele><time>2026-04-05T11:30:15.971Z</time></trkpt><trkpt lat="44.8546829" lon="7.2455471"><ele>912.0</ele><time>2026-04-05T11:30:16.971Z</time></trkpt><trkpt lat="44.8547544" lon="7.2454906"><ele>912.0</ele><time>2026-04-05T11:30:18.971Z</time></trkpt><trkpt lat="44.8548279" lon="7.2453797"><ele>912.0</ele><time>2026-04-05T11:30:20.971Z</time></trkpt><trkpt lat="44.8548771" lon="7.2452814"><ele>912.0</ele><time>2026-04-05T11:30:22.971Z</time></trkpt><trkpt lat="44.8548982" lon="7.2451205"><ele>912.0</ele><time>2026-04-05T11:30:24.971Z</time></trkpt><trkpt lat="44.8549514" lon="7.2449573"><ele>912.0</ele><time>2026-04-05T11:30:26.971Z</time></trkpt><trkpt lat="44.8549681" lon="7.2448648"><ele>912.0</ele><time>2026-04-05T11:30:27.971Z</time></trkpt><trkpt lat="44.8549898" lon="7.2447132"><ele>912.0</ele><time>2026-04-05T11:30:29.971Z</time></trkpt><trkpt lat="44.8549944" lon="7.2445864"><ele>912.0</ele><time>2026-04-05T11:30:31.971Z</time></trkpt><trkpt lat="44.8550091" lon="7.2444804"><ele>911.4000000000001</ele><time>2026-04-05T11:30:33.971Z</time></trkpt><trkpt lat="44.8550863" lon="7.2444617"><ele>910.8000000000001</ele><time>2026-04-05T11:30:36.971Z</time></trkpt><trkpt lat="44.8551173" lon="7.2445812"><ele>910.2</ele><time>2026-04-05T11:30:39.971Z</time></trkpt><trkpt lat="44.855185" lon="7.2447126"><ele>909.6</ele><time>2026-04-05T11:30:41.971Z</time></trkpt><trkpt lat="44.8552632" lon="7.244832"><ele>909.0</ele><time>2026-04-05T11:30:43.971Z</time></trkpt><trkpt lat="44.8552968" lon="7.2450015"><ele>903.1666666666666</ele><time>2026-04-05T11:30:45.971Z</time></trkpt><trkpt lat="44.855326" lon="7.245095"><ele>897.3333333333333</ele><time>2026-04-05T11:30:46.971Z</time></trkpt><trkpt lat="44.8553365" lon="7.2452048"><ele>891.5</ele><time>2026-04-05T11:30:47.971Z</time></trkpt><trkpt lat="44.8553456" lon="7.245331"><ele>885.6666666666666</ele><time>2026-04-05T11:30:48.971Z</time></trkpt><trkpt lat="44.8553642" lon="7.2454514"><ele>879.8333333333333</ele><time>2026-04-05T11:30:49.971Z</time></trkpt><trkpt lat="44.8553859" lon="7.2455637"><ele>874.0</ele><time>2026-04-05T11:30:50.971Z</time></trkpt><trkpt lat="44.8554049" lon="7.2456694"><ele>873.6</ele><time>2026-04-05T11:30:51.971Z</time></trkpt><trkpt lat="44.8554261" lon="7.2457777"><ele>873.2</ele><time>2026-04-05T11:30:52.971Z</time></trkpt><trkpt lat="44.8554509" lon="7.2459504"><ele>872.8000000000001</ele><time>2026-04-05T11:30:54.971Z</time></trkpt><trkpt lat="44.85548" lon="7.2461097"><ele>872.4000000000001</ele><time>2026-04-05T11:30:56.971Z</time></trkpt><trkpt lat="44.8555224" lon="7.2462111"><ele>872.0</ele><time>2026-04-05T11:30:57.971Z</time></trkpt><trkpt lat="44.855555" lon="7.2463135"><ele>872.0000000000001</ele><time>2026-04-05T11:30:58.971Z</time></trkpt><trkpt lat="44.8556103" lon="7.2464167"><ele>872.0</ele><time>2026-04-05T11:30:59.971Z</time></trkpt><trkpt lat="44.8556569" lon="7.2465155"><ele>872.0</ele><time>2026-04-05T11:31:00.971Z</time></trkpt><trkpt lat="44.8556864" lon="7.2466237"><ele>872.0</ele><time>2026-04-05T11:31:01.971Z</time></trkpt><trkpt lat="44.8557155" lon="7.2467331"><ele>872.0000000000001</ele><time>2026-04-05T11:31:02.971Z</time></trkpt><trkpt lat="44.8557477" lon="7.2468576"><ele>872.0</ele><time>2026-04-05T11:31:03.971Z</time></trkpt><trkpt lat="44.8557883" lon="7.2470025"><ele>872.6</ele><time>2026-04-05T11:31:04.971Z</time></trkpt><trkpt lat="44.855828" lon="7.2471553"><ele>873.2</ele><time>2026-04-05T11:31:05.971Z</time></trkpt><trkpt lat="44.8558871" lon="7.2472829"><ele>873.8</ele><time>2026-04-05T11:31:06.971Z</time></trkpt><trkpt lat="44.8559473" lon="7.2474056"><ele>874.4</ele><time>2026-04-05T11:31:07.971Z</time></trkpt><trkpt lat="44.8559882" lon="7.2475281"><ele>875.0</ele><time>2026-04-05T11:31:08.972Z</time></trkpt><trkpt lat="44.8560372" lon="7.2476526"><ele>870.8333333333334</ele><time>2026-04-05T11:31:09.971Z</time></trkpt><trkpt lat="44.8560756" lon="7.2477571"><ele>866.6666666666667</ele><time>2026-04-05T11:31:10.971Z</time></trkpt><trkpt lat="44.8561039" lon="7.2478721"><ele>862.5</ele><time>2026-04-05T11:31:11.971Z</time></trkpt><trkpt lat="44.8560995" lon="7.2479816"><ele>858.3333333333333</ele><time>2026-04-05T11:31:12.971Z</time></trkpt><trkpt lat="44.856092" lon="7.2480795"><ele>854.1666666666666</ele><time>2026-04-05T11:31:13.971Z</time></trkpt><trkpt lat="44.8560853" lon="7.2481916"><ele>850.0</ele><time>2026-04-05T11:31:14.971Z</time></trkpt><trkpt lat="44.8560699" lon="7.2482904"><ele>849.8</ele><time>2026-04-05T11:31:15.971Z</time></trkpt><trkpt lat="44.8560219" lon="7.2483799"><ele>849.6</ele><time>2026-04-05T11:31:16.971Z</time></trkpt><trkpt lat="44.8559354" lon="7.2484853"><ele>849.4000000000001</ele><time>2026-04-05T11:31:18.971Z</time></trkpt><trkpt lat="44.8558783" lon="7.2485251"><ele>849.2</ele><time>2026-04-05T11:31:19.971Z</time></trkpt><trkpt lat="44.8557729" lon="7.2485941"><ele>849.0</ele><time>2026-04-05T11:31:21.971Z</time></trkpt><trkpt lat="44.8556957" lon="7.2486156"><ele>853.2857142857143</ele><time>2026-04-05T11:31:22.971Z</time></trkpt><trkpt lat="44.8556279" lon="7.2486245"><ele>857.5714285714286</ele><time>2026-04-05T11:31:23.971Z</time></trkpt><trkpt lat="44.8555543" lon="7.2486185"><ele>861.8571428571429</ele><time>2026-04-05T11:31:24.971Z</time></trkpt><trkpt lat="44.855485" lon="7.2486079"><ele>866.1428571428571</ele><time>2026-04-05T11:31:25.971Z</time></trkpt><trkpt lat="44.8554116" lon="7.2486169"><ele>870.4285714285714</ele><time>2026-04-05T11:31:26.971Z</time></trkpt><trkpt lat="44.8553438" lon="7.2486375"><ele>874.7142857142858</ele><time>2026-04-05T11:31:27.971Z</time></trkpt><trkpt lat="44.8552664" lon="7.2486772"><ele>879.0</ele><time>2026-04-05T11:31:28.971Z</time></trkpt><trkpt lat="44.8552033" lon="7.2487255"><ele>879.0</ele><time>2026-04-05T11:31:29.971Z</time></trkpt><trkpt lat="44.8551505" lon="7.2488123"><ele>879.0</ele><time>2026-04-05T11:31:30.971Z</time></trkpt><trkpt lat="44.8550971" lon="7.2488951"><ele>879.0</ele><time>2026-04-05T11:31:31.971Z</time></trkpt><trkpt lat="44.8550568" lon="7.2489767"><ele>879.0</ele><time>2026-04-05T11:31:32.971Z</time></trkpt><trkpt lat="44.8550059" lon="7.2490571"><ele>879.0</ele><time>2026-04-05T11:31:33.971Z</time></trkpt><trkpt lat="44.8549553" lon="7.249162"><ele>879.0</ele><time>2026-04-05T11:31:34.971Z</time></trkpt><trkpt lat="44.8549106" lon="7.2492686"><ele>877.5</ele><time>2026-04-05T11:31:35.971Z</time></trkpt><trkpt lat="44.8548629" lon="7.2493754"><ele>876.0</ele><time>2026-04-05T11:31:36.971Z</time></trkpt><trkpt lat="44.8548064" lon="7.2494723"><ele>874.5</ele><time>2026-04-05T11:31:37.971Z</time></trkpt><trkpt lat="44.8547671" lon="7.2495447"><ele>873.0</ele><time>2026-04-05T11:31:38.971Z</time></trkpt><trkpt lat="44.8547391" lon="7.2496534"><ele>871.5</ele><time>2026-04-05T11:31:39.971Z</time></trkpt><trkpt lat="44.8547079" lon="7.2497399"><ele>870.0</ele><time>2026-04-05T11:31:40.971Z</time></trkpt><trkpt lat="44.8546827" lon="7.2498752"><ele>867.0</ele><time>2026-04-05T11:31:42.971Z</time></trkpt><trkpt lat="44.8547124" lon="7.2499797"><ele>864.0</ele><time>2026-04-05T11:31:44.971Z</time></trkpt><trkpt lat="44.8547495" lon="7.2501319"><ele>861.0</ele><time>2026-04-05T11:31:46.971Z</time></trkpt><trkpt lat="44.854787" lon="7.2502926"><ele>858.0</ele><time>2026-04-05T11:31:48.971Z</time></trkpt><trkpt lat="44.85482" lon="7.2504304"><ele>855.0</ele><time>2026-04-05T11:31:50.971Z</time></trkpt><trkpt lat="44.8548274" lon="7.2505774"><ele>855.0</ele><time>2026-04-05T11:31:52.971Z</time></trkpt><trkpt lat="44.8548006" lon="7.2507338"><ele>855.0</ele><time>2026-04-05T11:31:54.971Z</time></trkpt><trkpt lat="44.8547549" lon="7.2508961"><ele>855.0</ele><time>2026-04-05T11:31:56.971Z</time></trkpt><trkpt lat="44.8547361" lon="7.2509944"><ele>855.0</ele><time>2026-04-05T11:31:57.971Z</time></trkpt><trkpt lat="44.8547122" lon="7.2510934"><ele>855.0</ele><time>2026-04-05T11:31:58.971Z</time></trkpt><trkpt lat="44.8546861" lon="7.2511867"><ele>855.0</ele><time>2026-04-05T11:31:59.971Z</time></trkpt><trkpt lat="44.8546533" lon="7.2512841"><ele>855.0</ele><time>2026-04-05T11:32:00.971Z</time></trkpt><trkpt lat="44.8546127" lon="7.2513817"><ele>855.0</ele><time>2026-04-05T11:32:01.971Z</time></trkpt><trkpt lat="44.8545583" lon="7.2514788"><ele>855.0</ele><time>2026-04-05T11:32:02.971Z</time></trkpt><trkpt lat="44.8544863" lon="7.2515478"><ele>855.0</ele><time>2026-04-05T11:32:03.971Z</time></trkpt><trkpt lat="44.8544244" lon="7.2516315"><ele>855.0</ele><time>2026-04-05T11:32:04.971Z</time></trkpt><trkpt lat="44.8543615" lon="7.2517206"><ele>854.1666666666666</ele><time>2026-04-05T11:32:05.971Z</time></trkpt><trkpt lat="44.8543035" lon="7.2518193"><ele>853.3333333333333</ele><time>2026-04-05T11:32:06.971Z</time></trkpt><trkpt lat="44.8542501" lon="7.2519111"><ele>852.5</ele><time>2026-04-05T11:32:07.971Z</time></trkpt><trkpt lat="44.8542008" lon="7.2520036"><ele>851.6666666666666</ele><time>2026-04-05T11:32:08.971Z</time></trkpt><trkpt lat="44.854158" lon="7.2520984"><ele>850.8333333333333</ele><time>2026-04-05T11:32:09.971Z</time></trkpt><trkpt lat="44.8541236" lon="7.2521888"><ele>850.0</ele><time>2026-04-05T11:32:10.971Z</time></trkpt><trkpt lat="44.854092" lon="7.252278"><ele>851.3333333333333</ele><time>2026-04-05T11:32:11.971Z</time></trkpt><trkpt lat="44.8540579" lon="7.25236"><ele>852.6666666666666</ele><time>2026-04-05T11:32:12.971Z</time></trkpt><trkpt lat="44.8540449" lon="7.2524474"><ele>854.0</ele><time>2026-04-05T11:32:13.971Z</time></trkpt><trkpt lat="44.8540641" lon="7.2526191"><ele>855.3333333333333</ele><time>2026-04-05T11:32:15.971Z</time></trkpt><trkpt lat="44.8540799" lon="7.2527217"><ele>856.6666666666666</ele><time>2026-04-05T11:32:16.971Z</time></trkpt><trkpt lat="44.8540961" lon="7.2528454"><ele>858.0</ele><time>2026-04-05T11:32:17.971Z</time></trkpt><trkpt lat="44.8541176" lon="7.2529659"><ele>858.0</ele><time>2026-04-05T11:32:18.971Z</time></trkpt><trkpt lat="44.854144" lon="7.253102"><ele>858.0</ele><time>2026-04-05T11:32:19.971Z</time></trkpt><trkpt lat="44.854159" lon="7.2532337"><ele>858.0</ele><time>2026-04-05T11:32:20.971Z</time></trkpt><trkpt lat="44.8541746" lon="7.2533599"><ele>858.0</ele><time>2026-04-05T11:32:21.971Z</time></trkpt><trkpt lat="44.8541783" lon="7.2535109"><ele>858.0</ele><time>2026-04-05T11:32:22.971Z</time></trkpt><trkpt lat="44.8541846" lon="7.2536605"><ele>856.5999999999999</ele><time>2026-04-05T11:32:23.971Z</time></trkpt><trkpt lat="44.8541827" lon="7.2538163"><ele>855.1999999999999</ele><time>2026-04-05T11:32:24.971Z</time></trkpt><trkpt lat="44.8541705" lon="7.2539609"><ele>853.8</ele><time>2026-04-05T11:32:25.971Z</time></trkpt><trkpt lat="44.8541461" lon="7.2541082"><ele>852.4</ele><time>2026-04-05T11:32:26.971Z</time></trkpt><trkpt lat="44.8541085" lon="7.254273"><ele>851.0</ele><time>2026-04-05T11:32:27.971Z</time></trkpt><trkpt lat="44.8540519" lon="7.2544393"><ele>851.0</ele><time>2026-04-05T11:32:28.971Z</time></trkpt><trkpt lat="44.8539988" lon="7.2545776"><ele>851.0</ele><time>2026-04-05T11:32:29.971Z</time></trkpt><trkpt lat="44.8539324" lon="7.2547162"><ele>851.0</ele><time>2026-04-05T11:32:30.971Z</time></trkpt><trkpt lat="44.8538827" lon="7.2548312"><ele>851.0</ele><time>2026-04-05T11:32:31.971Z</time></trkpt><trkpt lat="44.8538576" lon="7.2549411"><ele>851.0</ele><time>2026-04-05T11:32:32.971Z</time></trkpt><trkpt lat="44.8538412" lon="7.2550556"><ele>851.5999999999999</ele><time>2026-04-05T11:32:33.971Z</time></trkpt><trkpt lat="44.8538324" lon="7.2551714"><ele>852.2</ele><time>2026-04-05T11:32:34.971Z</time></trkpt><trkpt lat="44.8538787" lon="7.255329"><ele>852.8000000000001</ele><time>2026-04-05T11:32:35.971Z</time></trkpt><trkpt lat="44.8538788" lon="7.2554858"><ele>853.4000000000001</ele><time>2026-04-05T11:32:36.971Z</time></trkpt><trkpt lat="44.853901" lon="7.2556517"><ele>854.0</ele><time>2026-04-05T11:32:37.971Z</time></trkpt><trkpt lat="44.8539105" lon="7.2558259"><ele>854.0</ele><time>2026-04-05T11:32:38.971Z</time></trkpt><trkpt lat="44.8539462" lon="7.2559965"><ele>854.0</ele><time>2026-04-05T11:32:39.971Z</time></trkpt><trkpt lat="44.8539942" lon="7.2561398"><ele>854.0</ele><time>2026-04-05T11:32:40.971Z</time></trkpt><trkpt lat="44.8540291" lon="7.2563073"><ele>854.0</ele><time>2026-04-05T11:32:41.971Z</time></trkpt><trkpt lat="44.8540597" lon="7.2564525"><ele>853.3333333333334</ele><time>2026-04-05T11:32:42.971Z</time></trkpt><trkpt lat="44.8540823" lon="7.25658"><ele>852.6666666666667</ele><time>2026-04-05T11:32:43.971Z</time></trkpt><trkpt lat="44.8541246" lon="7.2566836"><ele>852.0</ele><time>2026-04-05T11:32:44.971Z</time></trkpt><trkpt lat="44.8541554" lon="7.2567622"><ele>851.3333333333333</ele><time>2026-04-05T11:32:45.971Z</time></trkpt><trkpt lat="44.8541893" lon="7.2568745"><ele>850.6666666666666</ele><time>2026-04-05T11:32:47.971Z</time></trkpt><trkpt lat="44.8542114" lon="7.2569738"><ele>850.0</ele><time>2026-04-05T11:32:50.971Z</time></trkpt><trkpt lat="44.8541854" lon="7.2570595"><ele>849.9999999999999</ele><time>2026-04-05T11:32:54.971Z</time></trkpt><trkpt lat="44.8542309" lon="7.2571534"><ele>850.0</ele><time>2026-04-05T11:32:56.971Z</time></trkpt><trkpt lat="44.8543103" lon="7.2572625"><ele>850.0</ele><time>2026-04-05T11:32:58.971Z</time></trkpt><trkpt lat="44.8543506" lon="7.2573402"><ele>850.0</ele><time>2026-04-05T11:32:59.971Z</time></trkpt><trkpt lat="44.8543997" lon="7.2574308"><ele>849.9999999999999</ele><time>2026-04-05T11:33:00.971Z</time></trkpt><trkpt lat="44.8544372" lon="7.2575303"><ele>850.0</ele><time>2026-04-05T11:33:01.971Z</time></trkpt><trkpt lat="44.8544758" lon="7.2576389"><ele>848.6666666666666</ele><time>2026-04-05T11:33:02.971Z</time></trkpt><trkpt lat="44.8545061" lon="7.2577601"><ele>847.3333333333333</ele><time>2026-04-05T11:33:03.971Z</time></trkpt><trkpt lat="44.8545339" lon="7.2578863"><ele>846.0</ele><time>2026-04-05T11:33:04.971Z</time></trkpt><trkpt lat="44.854553" lon="7.2579998"><ele>844.6666666666667</ele><time>2026-04-05T11:33:05.971Z</time></trkpt><trkpt lat="44.8545799" lon="7.2581194"><ele>843.3333333333334</ele><time>2026-04-05T11:33:06.971Z</time></trkpt><trkpt lat="44.8546142" lon="7.2582352"><ele>842.0</ele><time>2026-04-05T11:33:07.971Z</time></trkpt><trkpt lat="44.8546488" lon="7.2583474"><ele>842.0000000000001</ele><time>2026-04-05T11:33:08.971Z</time></trkpt><trkpt lat="44.854679" lon="7.2584552"><ele>842.0</ele><time>2026-04-05T11:33:09.971Z</time></trkpt><trkpt lat="44.8546956" lon="7.2585672"><ele>842.0</ele><time>2026-04-05T11:33:10.971Z</time></trkpt><trkpt lat="44.8546922" lon="7.2586878"><ele>842.0</ele><time>2026-04-05T11:33:11.971Z</time></trkpt><trkpt lat="44.8546644" lon="7.2588043"><ele>842.0000000000001</ele><time>2026-04-05T11:33:12.971Z</time></trkpt><trkpt lat="44.8546471" lon="7.2589204"><ele>842.0</ele><time>2026-04-05T11:33:13.972Z</time></trkpt><trkpt lat="44.8546509" lon="7.2590338"><ele>842.6</ele><time>2026-04-05T11:33:14.971Z</time></trkpt><trkpt lat="44.8546852" lon="7.2591299"><ele>843.2</ele><time>2026-04-05T11:33:15.971Z</time></trkpt><trkpt lat="44.8547383" lon="7.2592288"><ele>843.8</ele><time>2026-04-05T11:33:16.971Z</time></trkpt><trkpt lat="44.8548158" lon="7.2593399"><ele>844.4</ele><time>2026-04-05T11:33:17.971Z</time></trkpt><trkpt lat="44.8548739" lon="7.2594466"><ele>845.0</ele><time>2026-04-05T11:33:18.971Z</time></trkpt><trkpt lat="44.8549321" lon="7.2595745"><ele>845.0</ele><time>2026-04-05T11:33:19.971Z</time></trkpt><trkpt lat="44.8549933" lon="7.2597085"><ele>845.0</ele><time>2026-04-05T11:33:20.971Z</time></trkpt><trkpt lat="44.8550345" lon="7.2598202"><ele>845.0</ele><time>2026-04-05T11:33:21.971Z</time></trkpt><trkpt lat="44.855072" lon="7.2599292"><ele>845.0</ele><time>2026-04-05T11:33:22.971Z</time></trkpt><trkpt lat="44.8551114" lon="7.2600402"><ele>845.0</ele><time>2026-04-05T11:33:23.971Z</time></trkpt><trkpt lat="44.8551545" lon="7.2601519"><ele>843.6</ele><time>2026-04-05T11:33:24.971Z</time></trkpt><trkpt lat="44.8551996" lon="7.2602715"><ele>842.2</ele><time>2026-04-05T11:33:25.971Z</time></trkpt><trkpt lat="44.8552597" lon="7.260389"><ele>840.8</ele><time>2026-04-05T11:33:26.971Z</time></trkpt><trkpt lat="44.855325" lon="7.2604988"><ele>839.4</ele><time>2026-04-05T11:33:27.971Z</time></trkpt><trkpt lat="44.8553876" lon="7.2606055"><ele>838.0</ele><time>2026-04-05T11:33:28.971Z</time></trkpt><trkpt lat="44.8554513" lon="7.2607059"><ele>840.8333333333333</ele><time>2026-04-05T11:33:29.971Z</time></trkpt><trkpt lat="44.8555191" lon="7.2608016"><ele>843.6666666666666</ele><time>2026-04-05T11:33:30.971Z</time></trkpt><trkpt lat="44.8555822" lon="7.2608849"><ele>846.5</ele><time>2026-04-05T11:33:31.971Z</time></trkpt><trkpt lat="44.8556548" lon="7.2609467"><ele>849.3333333333333</ele><time>2026-04-05T11:33:32.971Z</time></trkpt><trkpt lat="44.8557264" lon="7.2609761"><ele>852.1666666666666</ele><time>2026-04-05T11:33:33.971Z</time></trkpt><trkpt lat="44.8558143" lon="7.2609731"><ele>855.0</ele><time>2026-04-05T11:33:34.971Z</time></trkpt><trkpt lat="44.8558981" lon="7.2609327"><ele>854.0</ele><time>2026-04-05T11:33:35.971Z</time></trkpt><trkpt lat="44.8559913" lon="7.2608711"><ele>853.0</ele><time>2026-04-05T11:33:36.971Z</time></trkpt><trkpt lat="44.8560791" lon="7.2607736"><ele>852.0</ele><time>2026-04-05T11:33:37.971Z</time></trkpt><trkpt lat="44.8561631" lon="7.2606507"><ele>851.0</ele><time>2026-04-05T11:33:38.971Z</time></trkpt><trkpt lat="44.8562619" lon="7.2605108"><ele>851.0</ele><time>2026-04-05T11:33:39.971Z</time></trkpt><trkpt lat="44.8563736" lon="7.2603767"><ele>851.0</ele><time>2026-04-05T11:33:40.971Z</time></trkpt><trkpt lat="44.856476" lon="7.2602457"><ele>851.0</ele><time>2026-04-05T11:33:41.971Z</time></trkpt><trkpt lat="44.8565643" lon="7.2601787"><ele>851.0</ele><time>2026-04-05T11:33:42.971Z</time></trkpt><trkpt lat="44.8566403" lon="7.2600957"><ele>851.0</ele><time>2026-04-05T11:33:43.971Z</time></trkpt><trkpt lat="44.8567405" lon="7.2600262"><ele>851.0</ele><time>2026-04-05T11:33:44.971Z</time></trkpt><trkpt lat="44.8568295" lon="7.2599883"><ele>851.0</ele><time>2026-04-05T11:33:45.971Z</time></trkpt><trkpt lat="44.8569131" lon="7.2599714"><ele>851.0</ele><time>2026-04-05T11:33:46.971Z</time></trkpt><trkpt lat="44.8569989" lon="7.259955"><ele>851.0</ele><time>2026-04-05T11:33:47.971Z</time></trkpt><trkpt lat="44.8570707" lon="7.2600184"><ele>850.1666666666667</ele><time>2026-04-05T11:33:48.971Z</time></trkpt><trkpt lat="44.8571468" lon="7.2600745"><ele>849.3333333333334</ele><time>2026-04-05T11:33:49.971Z</time></trkpt><trkpt lat="44.8572037" lon="7.2601389"><ele>848.5</ele><time>2026-04-05T11:33:50.971Z</time></trkpt><trkpt lat="44.8572473" lon="7.2602355"><ele>847.6666666666667</ele><time>2026-04-05T11:33:51.971Z</time></trkpt><trkpt lat="44.8572813" lon="7.2603622"><ele>846.8333333333334</ele><time>2026-04-05T11:33:52.971Z</time></trkpt><trkpt lat="44.8573012" lon="7.2604991"><ele>846.0</ele><time>2026-04-05T11:33:53.971Z</time></trkpt><trkpt lat="44.8573144" lon="7.2606315"><ele>846.0</ele><time>2026-04-05T11:33:54.972Z</time></trkpt><trkpt lat="44.8573125" lon="7.2607639"><ele>846.0</ele><time>2026-04-05T11:33:55.971Z</time></trkpt><trkpt lat="44.8573054" lon="7.2608937"><ele>846.0</ele><time>2026-04-05T11:33:56.971Z</time></trkpt><trkpt lat="44.8572877" lon="7.2610162"><ele>846.0</ele><time>2026-04-05T11:33:57.971Z</time></trkpt><trkpt lat="44.8572811" lon="7.2611528"><ele>846.0</ele><time>2026-04-05T11:33:58.971Z</time></trkpt><trkpt lat="44.8572836" lon="7.261301"><ele>847.1999999999999</ele><time>2026-04-05T11:33:59.971Z</time></trkpt><trkpt lat="44.8573058" lon="7.261456"><ele>848.4</ele><time>2026-04-05T11:34:00.971Z</time></trkpt><trkpt lat="44.8573347" lon="7.2615944"><ele>849.6</ele><time>2026-04-05T11:34:01.971Z</time></trkpt><trkpt lat="44.8573648" lon="7.2617198"><ele>850.8</ele><time>2026-04-05T11:34:02.971Z</time></trkpt><trkpt lat="44.8573906" lon="7.2618333"><ele>852.0</ele><time>2026-04-05T11:34:03.971Z</time></trkpt><trkpt lat="44.8573996" lon="7.2619392"><ele>852.0</ele><time>2026-04-05T11:34:04.971Z</time></trkpt><trkpt lat="44.8574028" lon="7.262042"><ele>852.0</ele><time>2026-04-05T11:34:05.971Z</time></trkpt><trkpt lat="44.8574059" lon="7.2621539"><ele>852.0</ele><time>2026-04-05T11:34:06.971Z</time></trkpt><trkpt lat="44.8574205" lon="7.2622723"><ele>852.0</ele><time>2026-04-05T11:34:07.971Z</time></trkpt><trkpt lat="44.8574583" lon="7.2623858"><ele>852.0</ele><time>2026-04-05T11:34:08.971Z</time></trkpt><trkpt lat="44.8575192" lon="7.2625098"><ele>852.0</ele><time>2026-04-05T11:34:09.971Z</time></trkpt><trkpt lat="44.8575777" lon="7.262613"><ele>850.6</ele><time>2026-04-05T11:34:10.971Z</time></trkpt><trkpt lat="44.8576422" lon="7.2626902"><ele>849.2</ele><time>2026-04-05T11:34:11.971Z</time></trkpt><trkpt lat="44.8577108" lon="7.2627532"><ele>847.8</ele><time>2026-04-05T11:34:12.971Z</time></trkpt><trkpt lat="44.8578117" lon="7.2627837"><ele>846.4</ele><time>2026-04-05T11:34:13.971Z</time></trkpt><trkpt lat="44.8579007" lon="7.2628007"><ele>845.0</ele><time>2026-04-05T11:34:14.971Z</time></trkpt><trkpt lat="44.8580041" lon="7.2628031"><ele>845.0</ele><time>2026-04-05T11:34:15.971Z</time></trkpt><trkpt lat="44.8581199" lon="7.2628014"><ele>845.0</ele><time>2026-04-05T11:34:16.971Z</time></trkpt><trkpt lat="44.8582208" lon="7.2628064"><ele>845.0</ele><time>2026-04-05T11:34:17.971Z</time></trkpt><trkpt lat="44.8583122" lon="7.2628158"><ele>845.0</ele><time>2026-04-05T11:34:18.971Z</time></trkpt><trkpt lat="44.8583935" lon="7.262831"><ele>845.0</ele><time>2026-04-05T11:34:19.971Z</time></trkpt><trkpt lat="44.8584716" lon="7.2628852"><ele>845.1666666666667</ele><time>2026-04-05T11:34:20.971Z</time></trkpt><trkpt lat="44.8585502" lon="7.2629666"><ele>845.3333333333334</ele><time>2026-04-05T11:34:21.971Z</time></trkpt><trkpt lat="44.8586066" lon="7.2630645"><ele>845.5</ele><time>2026-04-05T11:34:22.971Z</time></trkpt><trkpt lat="44.8586432" lon="7.2631693"><ele>845.6666666666667</ele><time>2026-04-05T11:34:23.971Z</time></trkpt><trkpt lat="44.8586719" lon="7.2632696"><ele>845.8333333333334</ele><time>2026-04-05T11:34:24.971Z</time></trkpt><trkpt lat="44.8586759" lon="7.2633875"><ele>846.0</ele><time>2026-04-05T11:34:25.971Z</time></trkpt><trkpt lat="44.858664" lon="7.2635011"><ele>846.0</ele><time>2026-04-05T11:34:26.971Z</time></trkpt><trkpt lat="44.8586439" lon="7.2636015"><ele>846.0</ele><time>2026-04-05T11:34:27.971Z</time></trkpt><trkpt lat="44.8586098" lon="7.2636839"><ele>846.0</ele><time>2026-04-05T11:34:28.971Z</time></trkpt><trkpt lat="44.8585523" lon="7.2637435"><ele>846.0</ele><time>2026-04-05T11:34:29.971Z</time></trkpt><trkpt lat="44.858466" lon="7.2637806"><ele>846.0</ele><time>2026-04-05T11:34:30.971Z</time></trkpt><trkpt lat="44.858387" lon="7.2638146"><ele>846.0</ele><time>2026-04-05T11:34:31.971Z</time></trkpt><trkpt lat="44.8583159" lon="7.2638687"><ele>848.5</ele><time>2026-04-05T11:34:32.971Z</time></trkpt><trkpt lat="44.8582654" lon="7.2639608"><ele>851.0</ele><time>2026-04-05T11:34:33.971Z</time></trkpt><trkpt lat="44.8582329" lon="7.2640586"><ele>853.5</ele><time>2026-04-05T11:34:34.971Z</time></trkpt><trkpt lat="44.8582279" lon="7.2641644"><ele>856.0</ele><time>2026-04-05T11:34:35.971Z</time></trkpt><trkpt lat="44.8582433" lon="7.2642956"><ele>858.5</ele><time>2026-04-05T11:34:36.971Z</time></trkpt><trkpt lat="44.8582868" lon="7.264435"><ele>861.0</ele><time>2026-04-05T11:34:37.971Z</time></trkpt><trkpt lat="44.8583404" lon="7.2645583"><ele>861.0</ele><time>2026-04-05T11:34:38.971Z</time></trkpt><trkpt lat="44.8583913" lon="7.2646808"><ele>860.9999999999999</ele><time>2026-04-05T11:34:39.971Z</time></trkpt><trkpt lat="44.8584328" lon="7.2647982"><ele>860.9999999999999</ele><time>2026-04-05T11:34:40.971Z</time></trkpt><trkpt lat="44.858466" lon="7.2649286"><ele>861.0</ele><time>2026-04-05T11:34:41.971Z</time></trkpt><trkpt lat="44.8584827" lon="7.2650638"><ele>861.0</ele><time>2026-04-05T11:34:42.971Z</time></trkpt><trkpt lat="44.8584824" lon="7.2651941"><ele>860.1999999999999</ele><time>2026-04-05T11:34:43.971Z</time></trkpt><trkpt lat="44.8584602" lon="7.2653357"><ele>859.3999999999999</ele><time>2026-04-05T11:34:44.971Z</time></trkpt><trkpt lat="44.8584234" lon="7.2654624"><ele>858.6</ele><time>2026-04-05T11:34:45.971Z</time></trkpt><trkpt lat="44.8584098" lon="7.2656014"><ele>857.8</ele><time>2026-04-05T11:34:46.971Z</time></trkpt><trkpt lat="44.8584097" lon="7.2657683"><ele>857.0</ele><time>2026-04-05T11:34:47.971Z</time></trkpt><trkpt lat="44.8584099" lon="7.2659195"><ele>856.2</ele><time>2026-04-05T11:34:48.971Z</time></trkpt><trkpt lat="44.8584204" lon="7.2660575"><ele>855.4000000000001</ele><time>2026-04-05T11:34:49.971Z</time></trkpt><trkpt lat="44.8584577" lon="7.2661948"><ele>854.5999999999999</ele><time>2026-04-05T11:34:50.971Z</time></trkpt><trkpt lat="44.8585157" lon="7.2663236"><ele>853.8</ele><time>2026-04-05T11:34:51.971Z</time></trkpt><trkpt lat="44.8585659" lon="7.2664489"><ele>853.0</ele><time>2026-04-05T11:34:52.971Z</time></trkpt><trkpt lat="44.8586187" lon="7.2665549"><ele>847.6666666666666</ele><time>2026-04-05T11:34:53.971Z</time></trkpt><trkpt lat="44.8586629" lon="7.266657"><ele>842.3333333333333</ele><time>2026-04-05T11:34:54.971Z</time></trkpt><trkpt lat="44.8586858" lon="7.2667726"><ele>837.0</ele><time>2026-04-05T11:34:55.971Z</time></trkpt><trkpt lat="44.8586834" lon="7.2668752"><ele>831.6666666666667</ele><time>2026-04-05T11:34:56.971Z</time></trkpt><trkpt lat="44.8586617" lon="7.2669706"><ele>826.3333333333334</ele><time>2026-04-05T11:34:57.971Z</time></trkpt><trkpt lat="44.8586341" lon="7.2670715"><ele>821.0</ele><time>2026-04-05T11:34:58.971Z</time></trkpt><trkpt lat="44.8586317" lon="7.2671797"><ele>822.5999999999999</ele><time>2026-04-05T11:34:59.971Z</time></trkpt><trkpt lat="44.8586626" lon="7.2672992"><ele>824.2</ele><time>2026-04-05T11:35:00.971Z</time></trkpt><trkpt lat="44.8587131" lon="7.2673969"><ele>825.8</ele><time>2026-04-05T11:35:01.971Z</time></trkpt><trkpt lat="44.8587857" lon="7.2674832"><ele>827.4000000000001</ele><time>2026-04-05T11:35:02.971Z</time></trkpt><trkpt lat="44.8588562" lon="7.2675722"><ele>829.0</ele><time>2026-04-05T11:35:03.971Z</time></trkpt><trkpt lat="44.858921" lon="7.267667"><ele>829.0</ele><time>2026-04-05T11:35:04.971Z</time></trkpt><trkpt lat="44.8589822" lon="7.267768"><ele>829.0</ele><time>2026-04-05T11:35:05.971Z</time></trkpt><trkpt lat="44.8590342" lon="7.2678873"><ele>829.0</ele><time>2026-04-05T11:35:06.971Z</time></trkpt><trkpt lat="44.8590908" lon="7.2680008"><ele>829.0</ele><time>2026-04-05T11:35:07.971Z</time></trkpt><trkpt lat="44.8591725" lon="7.2681168"><ele>829.0</ele><time>2026-04-05T11:35:08.971Z</time></trkpt><trkpt lat="44.8592592" lon="7.2682144"><ele>827.2</ele><time>2026-04-05T11:35:09.971Z</time></trkpt><trkpt lat="44.8593474" lon="7.2683076"><ele>825.4000000000001</ele><time>2026-04-05T11:35:10.971Z</time></trkpt><trkpt lat="44.8594295" lon="7.2683789"><ele>823.6</ele><time>2026-04-05T11:35:11.971Z</time></trkpt><trkpt lat="44.8595035" lon="7.2684542"><ele>821.8</ele><time>2026-04-05T11:35:12.971Z</time></trkpt><trkpt lat="44.8595807" lon="7.2685293"><ele>820.0</ele><time>2026-04-05T11:35:13.971Z</time></trkpt><trkpt lat="44.8596527" lon="7.2686059"><ele>820.0</ele><time>2026-04-05T11:35:14.971Z</time></trkpt><trkpt lat="44.8597115" lon="7.2687044"><ele>820.0</ele><time>2026-04-05T11:35:15.971Z</time></trkpt><trkpt lat="44.8597716" lon="7.2688246"><ele>820.0</ele><time>2026-04-05T11:35:16.971Z</time></trkpt><trkpt lat="44.8598367" lon="7.2689435"><ele>820.0</ele><time>2026-04-05T11:35:17.971Z</time></trkpt><trkpt lat="44.8599058" lon="7.2690535"><ele>820.0</ele><time>2026-04-05T11:35:18.971Z</time></trkpt><trkpt lat="44.8599845" lon="7.2691487"><ele>821.2</ele><time>2026-04-05T11:35:19.971Z</time></trkpt><trkpt lat="44.8600698" lon="7.269236"><ele>822.4</ele><time>2026-04-05T11:35:20.971Z</time></trkpt><trkpt lat="44.8601619" lon="7.2693155"><ele>823.5999999999999</ele><time>2026-04-05T11:35:21.971Z</time></trkpt><trkpt lat="44.860255" lon="7.2694062"><ele>824.8</ele><time>2026-04-05T11:35:22.971Z</time></trkpt><trkpt lat="44.8603551" lon="7.2694905"><ele>826.0</ele><time>2026-04-05T11:35:23.971Z</time></trkpt><trkpt lat="44.8604495" lon="7.2695566"><ele>820.4</ele><time>2026-04-05T11:35:24.971Z</time></trkpt><trkpt lat="44.8605306" lon="7.2696293"><ele>814.8</ele><time>2026-04-05T11:35:25.971Z</time></trkpt><trkpt lat="44.860605" lon="7.2697169"><ele>809.1999999999999</ele><time>2026-04-05T11:35:26.971Z</time></trkpt><trkpt lat="44.8606743" lon="7.2698227"><ele>803.5999999999999</ele><time>2026-04-05T11:35:27.971Z</time></trkpt><trkpt lat="44.8607367" lon="7.269927"><ele>798.0</ele><time>2026-04-05T11:35:28.971Z</time></trkpt><trkpt lat="44.8607944" lon="7.2700156"><ele>797.8333333333334</ele><time>2026-04-05T11:35:29.971Z</time></trkpt><trkpt lat="44.8608501" lon="7.2700909"><ele>797.6666666666667</ele><time>2026-04-05T11:35:30.971Z</time></trkpt><trkpt lat="44.8609141" lon="7.270155"><ele>797.5</ele><time>2026-04-05T11:35:31.971Z</time></trkpt><trkpt lat="44.8609943" lon="7.2701921"><ele>797.3333333333334</ele><time>2026-04-05T11:35:32.971Z</time></trkpt><trkpt lat="44.8610819" lon="7.2701975"><ele>797.1666666666667</ele><time>2026-04-05T11:35:33.971Z</time></trkpt><trkpt lat="44.8611782" lon="7.2701805"><ele>797.0</ele><time>2026-04-05T11:35:34.971Z</time></trkpt><trkpt lat="44.8612782" lon="7.2701657"><ele>791.5</ele><time>2026-04-05T11:35:35.971Z</time></trkpt><trkpt lat="44.8613889" lon="7.2701636"><ele>786.0</ele><time>2026-04-05T11:35:36.971Z</time></trkpt><trkpt lat="44.8615027" lon="7.270162"><ele>780.5</ele><time>2026-04-05T11:35:37.971Z</time></trkpt><trkpt lat="44.8616125" lon="7.2701748"><ele>775.0</ele><time>2026-04-05T11:35:38.971Z</time></trkpt><trkpt lat="44.8617256" lon="7.2702099"><ele>773.5</ele><time>2026-04-05T11:35:39.971Z</time></trkpt><trkpt lat="44.8618465" lon="7.2702375"><ele>772.0</ele><time>2026-04-05T11:35:40.971Z</time></trkpt><trkpt lat="44.8619741" lon="7.2702502"><ele>770.5</ele><time>2026-04-05T11:35:41.971Z</time></trkpt><trkpt lat="44.86211" lon="7.2702465"><ele>769.0</ele><time>2026-04-05T11:35:42.971Z</time></trkpt><trkpt lat="44.8622439" lon="7.2702427"><ele>769.0</ele><time>2026-04-05T11:35:43.971Z</time></trkpt><trkpt lat="44.8623872" lon="7.2702264"><ele>769.0</ele><time>2026-04-05T11:35:44.971Z</time></trkpt><trkpt lat="44.8625293" lon="7.2701896"><ele>769.0</ele><time>2026-04-05T11:35:45.971Z</time></trkpt><trkpt lat="44.8626643" lon="7.2701452"><ele>769.0</ele><time>2026-04-05T11:35:46.971Z</time></trkpt><trkpt lat="44.8627908" lon="7.2700978"><ele>768.0</ele><time>2026-04-05T11:35:47.972Z</time></trkpt><trkpt lat="44.8629177" lon="7.2700454"><ele>767.0</ele><time>2026-04-05T11:35:48.971Z</time></trkpt><trkpt lat="44.8630416" lon="7.2699975"><ele>766.0</ele><time>2026-04-05T11:35:49.971Z</time></trkpt><trkpt lat="44.8631585" lon="7.2699452"><ele>765.0</ele><time>2026-04-05T11:35:50.971Z</time></trkpt><trkpt lat="44.8632726" lon="7.2698942"><ele>765.0</ele><time>2026-04-05T11:35:51.971Z</time></trkpt><trkpt lat="44.8633853" lon="7.2698427"><ele>765.0</ele><time>2026-04-05T11:35:52.971Z</time></trkpt><trkpt lat="44.8634976" lon="7.2697939"><ele>765.0</ele><time>2026-04-05T11:35:53.971Z</time></trkpt><trkpt lat="44.8636083" lon="7.2697572"><ele>765.0</ele><time>2026-04-05T11:35:54.971Z</time></trkpt><trkpt lat="44.8637241" lon="7.2697265"><ele>763.0</ele><time>2026-04-05T11:35:55.971Z</time></trkpt><trkpt lat="44.8638427" lon="7.2697256"><ele>761.0</ele><time>2026-04-05T11:35:56.971Z</time></trkpt><trkpt lat="44.8639757" lon="7.2697441"><ele>759.0</ele><time>2026-04-05T11:35:57.971Z</time></trkpt><trkpt lat="44.8641263" lon="7.2697647"><ele>757.0</ele><time>2026-04-05T11:35:58.971Z</time></trkpt><trkpt lat="44.8642595" lon="7.269782"><ele>753.4000000000001</ele><time>2026-04-05T11:35:59.971Z</time></trkpt><trkpt lat="44.8643888" lon="7.2697889"><ele>749.8000000000001</ele><time>2026-04-05T11:36:00.971Z</time></trkpt><trkpt lat="44.8645084" lon="7.2697797"><ele>746.2</ele><time>2026-04-05T11:36:01.971Z</time></trkpt><trkpt lat="44.8646036" lon="7.2697593"><ele>742.6</ele><time>2026-04-05T11:36:02.971Z</time></trkpt><trkpt lat="44.8646829" lon="7.2697444"><ele>739.0</ele><time>2026-04-05T11:36:03.971Z</time></trkpt><trkpt lat="44.8647635" lon="7.269718"><ele>739.0</ele><time>2026-04-05T11:36:04.971Z</time></trkpt><trkpt lat="44.8648336" lon="7.2696923"><ele>739.0</ele><time>2026-04-05T11:36:05.971Z</time></trkpt><trkpt lat="44.8649476" lon="7.2697193"><ele>739.0</ele><time>2026-04-05T11:36:07.971Z</time></trkpt><trkpt lat="44.8649993" lon="7.2697838"><ele>739.0</ele><time>2026-04-05T11:36:08.971Z</time></trkpt><trkpt lat="44.8650433" lon="7.2698629"><ele>739.0</ele><time>2026-04-05T11:36:09.971Z</time></trkpt><trkpt lat="44.8650923" lon="7.2699494"><ele>739.0</ele><time>2026-04-05T11:36:10.971Z</time></trkpt><trkpt lat="44.8651529" lon="7.2700255"><ele>738.0</ele><time>2026-04-05T11:36:11.971Z</time></trkpt><trkpt lat="44.8652135" lon="7.270086"><ele>737.0</ele><time>2026-04-05T11:36:12.971Z</time></trkpt><trkpt lat="44.865272" lon="7.2701295"><ele>736.0</ele><time>2026-04-05T11:36:13.971Z</time></trkpt><trkpt lat="44.8653287" lon="7.2701698"><ele>735.0</ele><time>2026-04-05T11:36:14.971Z</time></trkpt><trkpt lat="44.8654082" lon="7.2703184"><ele>734.0</ele><time>2026-04-05T11:36:16.972Z</time></trkpt><trkpt lat="44.8654448" lon="7.2704091"><ele>733.0</ele><time>2026-04-05T11:36:17.971Z</time></trkpt><trkpt lat="44.8655159" lon="7.2704766"><ele>733.0</ele><time>2026-04-05T11:36:18.971Z</time></trkpt><trkpt lat="44.8656025" lon="7.2705102"><ele>733.0</ele><time>2026-04-05T11:36:19.971Z</time></trkpt><trkpt lat="44.8656955" lon="7.2705104"><ele>733.0</ele><time>2026-04-05T11:36:20.971Z</time></trkpt><trkpt lat="44.8657873" lon="7.2704996"><ele>733.0</ele><time>2026-04-05T11:36:21.971Z</time></trkpt><trkpt lat="44.8658696" lon="7.2704481"><ele>733.0</ele><time>2026-04-05T11:36:22.971Z</time></trkpt><trkpt lat="44.8659482" lon="7.2703496"><ele>727.5</ele><time>2026-04-05T11:36:23.971Z</time></trkpt><trkpt lat="44.8660357" lon="7.2702351"><ele>722.0</ele><time>2026-04-05T11:36:24.971Z</time></trkpt><trkpt lat="44.8661318" lon="7.2701326"><ele>716.5</ele><time>2026-04-05T11:36:25.971Z</time></trkpt><trkpt lat="44.8662418" lon="7.2700425"><ele>711.0</ele><time>2026-04-05T11:36:26.971Z</time></trkpt><trkpt lat="44.8663491" lon="7.2699393"><ele>711.0</ele><time>2026-04-05T11:36:27.971Z</time></trkpt><trkpt lat="44.8664457" lon="7.2698287"><ele>711.0</ele><time>2026-04-05T11:36:28.971Z</time></trkpt><trkpt lat="44.8665258" lon="7.2697128"><ele>711.0</ele><time>2026-04-05T11:36:29.971Z</time></trkpt><trkpt lat="44.8666013" lon="7.2696037"><ele>711.0</ele><time>2026-04-05T11:36:30.971Z</time></trkpt><trkpt lat="44.8666631" lon="7.2695262"><ele>711.0</ele><time>2026-04-05T11:36:31.971Z</time></trkpt><trkpt lat="44.8667344" lon="7.2694802"><ele>708.4</ele><time>2026-04-05T11:36:32.971Z</time></trkpt><trkpt lat="44.8668263" lon="7.2694662"><ele>705.8</ele><time>2026-04-05T11:36:33.971Z</time></trkpt><trkpt lat="44.8669235" lon="7.2695069"><ele>703.1999999999999</ele><time>2026-04-05T11:36:34.971Z</time></trkpt><trkpt lat="44.8670233" lon="7.2695512"><ele>700.5999999999999</ele><time>2026-04-05T11:36:35.971Z</time></trkpt><trkpt lat="44.8671362" lon="7.2696864"><ele>698.0</ele><time>2026-04-05T11:36:36.971Z</time></trkpt><trkpt lat="44.8672368" lon="7.2698053"><ele>698.0</ele><time>2026-04-05T11:36:37.971Z</time></trkpt><trkpt lat="44.8673193" lon="7.2699302"><ele>698.0</ele><time>2026-04-05T11:36:38.971Z</time></trkpt><trkpt lat="44.8673881" lon="7.2700442"><ele>698.0</ele><time>2026-04-05T11:36:39.971Z</time></trkpt><trkpt lat="44.8674561" lon="7.2701441"><ele>698.0</ele><time>2026-04-05T11:36:40.971Z</time></trkpt><trkpt lat="44.8675333" lon="7.2702163"><ele>698.0</ele><time>2026-04-05T11:36:41.971Z</time></trkpt><trkpt lat="44.8676286" lon="7.2702307"><ele>694.75</ele><time>2026-04-05T11:36:42.971Z</time></trkpt><trkpt lat="44.86772" lon="7.2701952"><ele>691.5</ele><time>2026-04-05T11:36:43.971Z</time></trkpt><trkpt lat="44.8678107" lon="7.2701043"><ele>688.25</ele><time>2026-04-05T11:36:44.971Z</time></trkpt><trkpt lat="44.8679035" lon="7.2699838"><ele>685.0</ele><time>2026-04-05T11:36:45.971Z</time></trkpt><trkpt lat="44.868013" lon="7.269882"><ele>685.0</ele><time>2026-04-05T11:36:46.971Z</time></trkpt><trkpt lat="44.8681095" lon="7.2698078"><ele>685.0</ele><time>2026-04-05T11:36:47.971Z</time></trkpt><trkpt lat="44.8682058" lon="7.2697396"><ele>685.0</ele><time>2026-04-05T11:36:48.971Z</time></trkpt><trkpt lat="44.868296" lon="7.2696945"><ele>685.0</ele><time>2026-04-05T11:36:49.971Z</time></trkpt><trkpt lat="44.868386" lon="7.2696845"><ele>685.0</ele><time>2026-04-05T11:36:50.971Z</time></trkpt><trkpt lat="44.8684754" lon="7.2697188"><ele>693.75</ele><time>2026-04-05T11:36:51.971Z</time></trkpt><trkpt lat="44.8685617" lon="7.2697931"><ele>702.5</ele><time>2026-04-05T11:36:52.971Z</time></trkpt><trkpt lat="44.8686213" lon="7.2699105"><ele>711.25</ele><time>2026-04-05T11:36:53.971Z</time></trkpt><trkpt lat="44.8686513" lon="7.2700683"><ele>720.0</ele><time>2026-04-05T11:36:54.971Z</time></trkpt><trkpt lat="44.8686538" lon="7.270258"><ele>720.0</ele><time>2026-04-05T11:36:55.971Z</time></trkpt><trkpt lat="44.8686557" lon="7.2704793"><ele>720.0</ele><time>2026-04-05T11:36:56.971Z</time></trkpt><trkpt lat="44.8686634" lon="7.2707112"><ele>720.0</ele><time>2026-04-05T11:36:57.971Z</time></trkpt><trkpt lat="44.8686823" lon="7.2709785"><ele>714.6666666666666</ele><time>2026-04-05T11:36:58.971Z</time></trkpt><trkpt lat="44.8687155" lon="7.2712421"><ele>709.3333333333333</ele><time>2026-04-05T11:36:59.971Z</time></trkpt><trkpt lat="44.8687566" lon="7.2715115"><ele>704.0</ele><time>2026-04-05T11:37:00.972Z</time></trkpt><trkpt lat="44.868797" lon="7.27177"><ele>699.6666666666666</ele><time>2026-04-05T11:37:01.971Z</time></trkpt><trkpt lat="44.8688315" lon="7.2720172"><ele>695.3333333333334</ele><time>2026-04-05T11:37:02.971Z</time></trkpt><trkpt lat="44.8688648" lon="7.2722351"><ele>691.0</ele><time>2026-04-05T11:37:03.971Z</time></trkpt><trkpt lat="44.8688957" lon="7.2724373"><ele>687.0</ele><time>2026-04-05T11:37:04.971Z</time></trkpt><trkpt lat="44.8689265" lon="7.2726306"><ele>683.0</ele><time>2026-04-05T11:37:05.971Z</time></trkpt><trkpt lat="44.8689667" lon="7.2728035"><ele>679.0</ele><time>2026-04-05T11:37:06.971Z</time></trkpt><trkpt lat="44.8690226" lon="7.2729658"><ele>675.0</ele><time>2026-04-05T11:37:07.971Z</time></trkpt><trkpt lat="44.8690898" lon="7.2731211"><ele>670.75</ele><time>2026-04-05T11:37:08.971Z</time></trkpt><trkpt lat="44.8691698" lon="7.273269"><ele>666.5</ele><time>2026-04-05T11:37:09.971Z</time></trkpt><trkpt lat="44.8692537" lon="7.2734039"><ele>662.25</ele><time>2026-04-05T11:37:10.972Z</time></trkpt><trkpt lat="44.8693385" lon="7.2735158"><ele>658.0</ele><time>2026-04-05T11:37:11.971Z</time></trkpt><trkpt lat="44.8694374" lon="7.2735958"><ele>658.0</ele><time>2026-04-05T11:37:12.971Z</time></trkpt><trkpt lat="44.8695483" lon="7.2736593"><ele>658.0</ele><time>2026-04-05T11:37:13.971Z</time></trkpt><trkpt lat="44.8696637" lon="7.2737064"><ele>658.0</ele><time>2026-04-05T11:37:14.971Z</time></trkpt><trkpt lat="44.8697819" lon="7.2736886"><ele>658.0</ele><time>2026-04-05T11:37:15.971Z</time></trkpt><trkpt lat="44.8698822" lon="7.2736644"><ele>658.0</ele><time>2026-04-05T11:37:16.971Z</time></trkpt><trkpt lat="44.8699755" lon="7.2736095"><ele>658.0</ele><time>2026-04-05T11:37:17.971Z</time></trkpt><trkpt lat="44.8700423" lon="7.2735264"><ele>658.0</ele><time>2026-04-05T11:37:18.971Z</time></trkpt><trkpt lat="44.8700738" lon="7.2733929"><ele>658.0</ele><time>2026-04-05T11:37:19.971Z</time></trkpt><trkpt lat="44.8700714" lon="7.2732321"><ele>658.0</ele><time>2026-04-05T11:37:20.971Z</time></trkpt><trkpt lat="44.8700784" lon="7.2730439"><ele>658.25</ele><time>2026-04-05T11:37:21.971Z</time></trkpt><trkpt lat="44.870092" lon="7.2728493"><ele>658.5</ele><time>2026-04-05T11:37:22.971Z</time></trkpt><trkpt lat="44.8701129" lon="7.2726717"><ele>658.75</ele><time>2026-04-05T11:37:23.971Z</time></trkpt><trkpt lat="44.8701347" lon="7.2725082"><ele>659.0</ele><time>2026-04-05T11:37:24.971Z</time></trkpt><trkpt lat="44.8701556" lon="7.2723674"><ele>659.0</ele><time>2026-04-05T11:37:25.972Z</time></trkpt><trkpt lat="44.8701994" lon="7.2722579"><ele>659.0</ele><time>2026-04-05T11:37:26.971Z</time></trkpt><trkpt lat="44.8702666" lon="7.2721892"><ele>659.0</ele><time>2026-04-05T11:37:27.971Z</time></trkpt><trkpt lat="44.8703526" lon="7.2721673"><ele>659.0</ele><time>2026-04-05T11:37:28.971Z</time></trkpt><trkpt lat="44.8704423" lon="7.2721974"><ele>659.0</ele><time>2026-04-05T11:37:29.971Z</time></trkpt><trkpt lat="44.8705314" lon="7.272274"><ele>659.0</ele><time>2026-04-05T11:37:30.971Z</time></trkpt><trkpt lat="44.8706301" lon="7.2723678"><ele>659.0</ele><time>2026-04-05T11:37:31.971Z</time></trkpt><trkpt lat="44.870739" lon="7.2724742"><ele>659.0</ele><time>2026-04-05T11:37:32.971Z</time></trkpt><trkpt lat="44.8708438" lon="7.2725655"><ele>659.0</ele><time>2026-04-05T11:37:33.971Z</time></trkpt><trkpt lat="44.8709656" lon="7.2726578"><ele>663.5</ele><time>2026-04-05T11:37:34.971Z</time></trkpt><trkpt lat="44.8711003" lon="7.2727363"><ele>668.0</ele><time>2026-04-05T11:37:35.971Z</time></trkpt><trkpt lat="44.8712453" lon="7.272797"><ele>672.5</ele><time>2026-04-05T11:37:36.971Z</time></trkpt><trkpt lat="44.8713768" lon="7.2728538"><ele>677.0</ele><time>2026-04-05T11:37:37.971Z</time></trkpt><trkpt lat="44.8714952" lon="7.272908"><ele>677.0</ele><time>2026-04-05T11:37:38.971Z</time></trkpt><trkpt lat="44.8715942" lon="7.2729668"><ele>677.0</ele><time>2026-04-05T11:37:39.971Z</time></trkpt><trkpt lat="44.8716699" lon="7.2730571"><ele>677.0</ele><time>2026-04-05T11:37:40.971Z</time></trkpt><trkpt lat="44.8717159" lon="7.2731875"><ele>677.0</ele><time>2026-04-05T11:37:41.971Z</time></trkpt><trkpt lat="44.8717407" lon="7.2733204"><ele>677.0</ele><time>2026-04-05T11:37:42.971Z</time></trkpt><trkpt lat="44.8717708" lon="7.2734488"><ele>676.75</ele><time>2026-04-05T11:37:43.971Z</time></trkpt><trkpt lat="44.8718322" lon="7.2735584"><ele>676.5</ele><time>2026-04-05T11:37:44.971Z</time></trkpt><trkpt lat="44.8719254" lon="7.27365"><ele>676.25</ele><time>2026-04-05T11:37:45.971Z</time></trkpt><trkpt lat="44.8720302" lon="7.2737453"><ele>676.0</ele><time>2026-04-05T11:37:46.971Z</time></trkpt><trkpt lat="44.8721196" lon="7.2738678"><ele>671.5999999999999</ele><time>2026-04-05T11:37:47.971Z</time></trkpt><trkpt lat="44.8721997" lon="7.2739819"><ele>667.2</ele><time>2026-04-05T11:37:48.971Z</time></trkpt><trkpt lat="44.8722921" lon="7.2740696"><ele>662.8</ele><time>2026-04-05T11:37:49.971Z</time></trkpt><trkpt lat="44.8723941" lon="7.2741156"><ele>658.4000000000001</ele><time>2026-04-05T11:37:50.971Z</time></trkpt><trkpt lat="44.8724912" lon="7.2741632"><ele>654.0</ele><time>2026-04-05T11:37:51.971Z</time></trkpt><trkpt lat="44.8725531" lon="7.2742646"><ele>654.0</ele><time>2026-04-05T11:37:52.971Z</time></trkpt><trkpt lat="44.8725946" lon="7.2743856"><ele>654.0</ele><time>2026-04-05T11:37:53.971Z</time></trkpt><trkpt lat="44.8726061" lon="7.2745336"><ele>654.0</ele><time>2026-04-05T11:37:54.971Z</time></trkpt><trkpt lat="44.8726238" lon="7.2747025"><ele>654.0</ele><time>2026-04-05T11:37:55.971Z</time></trkpt><trkpt lat="44.8726506" lon="7.2748838"><ele>658.25</ele><time>2026-04-05T11:37:56.971Z</time></trkpt><trkpt lat="44.8726978" lon="7.2750526"><ele>662.5</ele><time>2026-04-05T11:37:57.971Z</time></trkpt><trkpt lat="44.8727426" lon="7.275205"><ele>666.75</ele><time>2026-04-05T11:37:58.971Z</time></trkpt><trkpt lat="44.8727922" lon="7.275352"><ele>671.0</ele><time>2026-04-05T11:37:59.971Z</time></trkpt><trkpt lat="44.8728664" lon="7.275468"><ele>671.0</ele><time>2026-04-05T11:38:00.971Z</time></trkpt><trkpt lat="44.8729673" lon="7.2755648"><ele>671.0</ele><time>2026-04-05T11:38:01.971Z</time></trkpt><trkpt lat="44.873081" lon="7.2756347"><ele>671.0</ele><time>2026-04-05T11:38:02.971Z</time></trkpt><trkpt lat="44.8731917" lon="7.2757007"><ele>671.0</ele><time>2026-04-05T11:38:03.971Z</time></trkpt><trkpt lat="44.8732862" lon="7.2757793"><ele>673.0</ele><time>2026-04-05T11:38:04.971Z</time></trkpt><trkpt lat="44.8733603" lon="7.2758961"><ele>675.0</ele><time>2026-04-05T11:38:05.972Z</time></trkpt><trkpt lat="44.8734091" lon="7.2760314"><ele>677.0</ele><time>2026-04-05T11:38:06.971Z</time></trkpt><trkpt lat="44.8734432" lon="7.2761874"><ele>679.0</ele><time>2026-04-05T11:38:07.971Z</time></trkpt><trkpt lat="44.8734708" lon="7.2763337"><ele>681.0</ele><time>2026-04-05T11:38:08.971Z</time></trkpt><trkpt lat="44.8735158" lon="7.2764735"><ele>676.1999999999999</ele><time>2026-04-05T11:38:09.971Z</time></trkpt><trkpt lat="44.8735874" lon="7.2765901"><ele>671.4</ele><time>2026-04-05T11:38:10.971Z</time></trkpt><trkpt lat="44.8736861" lon="7.2766751"><ele>666.6</ele><time>2026-04-05T11:38:11.971Z</time></trkpt><trkpt lat="44.8737871" lon="7.2767413"><ele>661.8</ele><time>2026-04-05T11:38:12.971Z</time></trkpt><trkpt lat="44.8738383" lon="7.2768516"><ele>657.0</ele><time>2026-04-05T11:38:13.971Z</time></trkpt><trkpt lat="44.8738725" lon="7.276984"><ele>657.0</ele><time>2026-04-05T11:38:14.971Z</time></trkpt><trkpt lat="44.8738764" lon="7.2771365"><ele>657.0</ele><time>2026-04-05T11:38:15.971Z</time></trkpt><trkpt lat="44.8738509" lon="7.2773058"><ele>657.0</ele><time>2026-04-05T11:38:16.971Z</time></trkpt><trkpt lat="44.873794" lon="7.277454"><ele>657.0</ele><time>2026-04-05T11:38:17.971Z</time></trkpt><trkpt lat="44.8737044" lon="7.2775821"><ele>656.4000000000001</ele><time>2026-04-05T11:38:18.971Z</time></trkpt><trkpt lat="44.8736284" lon="7.2777033"><ele>655.8000000000001</ele><time>2026-04-05T11:38:19.971Z</time></trkpt><trkpt lat="44.8735739" lon="7.2778213"><ele>655.2</ele><time>2026-04-05T11:38:20.971Z</time></trkpt><trkpt lat="44.8735361" lon="7.2779567"><ele>654.6</ele><time>2026-04-05T11:38:21.971Z</time></trkpt><trkpt lat="44.8735224" lon="7.2781177"><ele>654.0</ele><time>2026-04-05T11:38:22.971Z</time></trkpt><trkpt lat="44.8735139" lon="7.2782762"><ele>654.0</ele><time>2026-04-05T11:38:23.971Z</time></trkpt><trkpt lat="44.8735217" lon="7.278449"><ele>654.0</ele><time>2026-04-05T11:38:24.971Z</time></trkpt><trkpt lat="44.8735226" lon="7.2786137"><ele>654.0</ele><time>2026-04-05T11:38:25.971Z</time></trkpt><trkpt lat="44.8735183" lon="7.278772"><ele>654.0</ele><time>2026-04-05T11:38:26.971Z</time></trkpt><trkpt lat="44.8735268" lon="7.2789268"><ele>652.25</ele><time>2026-04-05T11:38:27.971Z</time></trkpt><trkpt lat="44.8735533" lon="7.2790791"><ele>650.5</ele><time>2026-04-05T11:38:28.971Z</time></trkpt><trkpt lat="44.8736015" lon="7.2792187"><ele>648.75</ele><time>2026-04-05T11:38:29.971Z</time></trkpt><trkpt lat="44.8736733" lon="7.2793435"><ele>647.0</ele><time>2026-04-05T11:38:30.971Z</time></trkpt><trkpt lat="44.8737662" lon="7.2794511"><ele>647.0</ele><time>2026-04-05T11:38:31.971Z</time></trkpt><trkpt lat="44.8738622" lon="7.2795545"><ele>647.0</ele><time>2026-04-05T11:38:32.971Z</time></trkpt><trkpt lat="44.8739468" lon="7.2796507"><ele>647.0</ele><time>2026-04-05T11:38:33.971Z</time></trkpt><trkpt lat="44.8740102" lon="7.2797767"><ele>647.0</ele><time>2026-04-05T11:38:34.971Z</time></trkpt><trkpt lat="44.8740384" lon="7.2799234"><ele>647.0</ele><time>2026-04-05T11:38:35.971Z</time></trkpt><trkpt lat="44.8740408" lon="7.2800831"><ele>643.2</ele><time>2026-04-05T11:38:36.971Z</time></trkpt><trkpt lat="44.8740282" lon="7.2802398"><ele>639.4000000000001</ele><time>2026-04-05T11:38:37.971Z</time></trkpt><trkpt lat="44.8740104" lon="7.280385"><ele>635.5999999999999</ele><time>2026-04-05T11:38:38.971Z</time></trkpt><trkpt lat="44.8740121" lon="7.2805243"><ele>631.8</ele><time>2026-04-05T11:38:39.971Z</time></trkpt><trkpt lat="44.8740385" lon="7.2806661"><ele>628.0</ele><time>2026-04-05T11:38:40.971Z</time></trkpt><trkpt lat="44.8740921" lon="7.2807887"><ele>624.0</ele><time>2026-04-05T11:38:41.971Z</time></trkpt><trkpt lat="44.8741767" lon="7.2808991"><ele>620.0</ele><time>2026-04-05T11:38:42.971Z</time></trkpt><trkpt lat="44.8742655" lon="7.2810139"><ele>616.0</ele><time>2026-04-05T11:38:43.971Z</time></trkpt><trkpt lat="44.8743481" lon="7.2811214"><ele>612.0</ele><time>2026-04-05T11:38:44.971Z</time></trkpt><trkpt lat="44.8744227" lon="7.2812312"><ele>616.6</ele><time>2026-04-05T11:38:45.971Z</time></trkpt><trkpt lat="44.8744723" lon="7.2813513"><ele>621.2</ele><time>2026-04-05T11:38:46.971Z</time></trkpt><trkpt lat="44.8744893" lon="7.2814903"><ele>625.8</ele><time>2026-04-05T11:38:47.971Z</time></trkpt><trkpt lat="44.8744616" lon="7.2816315"><ele>630.4</ele><time>2026-04-05T11:38:48.971Z</time></trkpt><trkpt lat="44.8743984" lon="7.2817585"><ele>635.0</ele><time>2026-04-05T11:38:49.971Z</time></trkpt><trkpt lat="44.8743328" lon="7.2818882"><ele>628.25</ele><time>2026-04-05T11:38:50.971Z</time></trkpt><trkpt lat="44.8742626" lon="7.28203"><ele>621.5</ele><time>2026-04-05T11:38:51.971Z</time></trkpt><trkpt lat="44.8741845" lon="7.2821747"><ele>614.75</ele><time>2026-04-05T11:38:52.971Z</time></trkpt><trkpt lat="44.8740953" lon="7.282297"><ele>608.0</ele><time>2026-04-05T11:38:53.971Z</time></trkpt><trkpt lat="44.8740036" lon="7.2824037"><ele>608.0</ele><time>2026-04-05T11:38:54.971Z</time></trkpt><trkpt lat="44.8739273" lon="7.2824994"><ele>608.0</ele><time>2026-04-05T11:38:55.971Z</time></trkpt><trkpt lat="44.8738531" lon="7.2826031"><ele>608.0</ele><time>2026-04-05T11:38:56.971Z</time></trkpt><trkpt lat="44.8738014" lon="7.2827304"><ele>608.0</ele><time>2026-04-05T11:38:57.971Z</time></trkpt><trkpt lat="44.8737758" lon="7.2828755"><ele>608.0</ele><time>2026-04-05T11:38:58.971Z</time></trkpt><trkpt lat="44.8737527" lon="7.2830234"><ele>608.5</ele><time>2026-04-05T11:38:59.971Z</time></trkpt><trkpt lat="44.8737315" lon="7.28318"><ele>609.0</ele><time>2026-04-05T11:39:00.971Z</time></trkpt><trkpt lat="44.8736998" lon="7.283336"><ele>609.5</ele><time>2026-04-05T11:39:01.971Z</time></trkpt><trkpt lat="44.8736637" lon="7.2835017"><ele>610.0</ele><time>2026-04-05T11:39:02.971Z</time></trkpt><trkpt lat="44.8736201" lon="7.2836643"><ele>610.0</ele><time>2026-04-05T11:39:03.971Z</time></trkpt><trkpt lat="44.8735759" lon="7.2838175"><ele>610.0</ele><time>2026-04-05T11:39:04.971Z</time></trkpt><trkpt lat="44.8735251" lon="7.2839747"><ele>610.0</ele><time>2026-04-05T11:39:05.971Z</time></trkpt><trkpt lat="44.8734755" lon="7.2841415"><ele>610.0</ele><time>2026-04-05T11:39:06.971Z</time></trkpt><trkpt lat="44.873414" lon="7.2843073"><ele>604.75</ele><time>2026-04-05T11:39:07.971Z</time></trkpt><trkpt lat="44.873357" lon="7.2844705"><ele>599.5</ele><time>2026-04-05T11:39:08.971Z</time></trkpt><trkpt lat="44.8733096" lon="7.2846323"><ele>594.25</ele><time>2026-04-05T11:39:09.971Z</time></trkpt><trkpt lat="44.873274" lon="7.2848062"><ele>589.0</ele><time>2026-04-05T11:39:10.971Z</time></trkpt><trkpt lat="44.8732447" lon="7.2849746"><ele>589.0</ele><time>2026-04-05T11:39:11.971Z</time></trkpt><trkpt lat="44.8732218" lon="7.2851352"><ele>589.0</ele><time>2026-04-05T11:39:12.971Z</time></trkpt><trkpt lat="44.8732122" lon="7.2852988"><ele>589.0</ele><time>2026-04-05T11:39:13.971Z</time></trkpt><trkpt lat="44.8732093" lon="7.2854649"><ele>589.0</ele><time>2026-04-05T11:39:14.971Z</time></trkpt><trkpt lat="44.8732305" lon="7.2856393"><ele>588.75</ele><time>2026-04-05T11:39:15.971Z</time></trkpt><trkpt lat="44.8732572" lon="7.2858183"><ele>588.5</ele><time>2026-04-05T11:39:16.971Z</time></trkpt><trkpt lat="44.8732821" lon="7.285986"><ele>588.25</ele><time>2026-04-05T11:39:17.971Z</time></trkpt><trkpt lat="44.8733091" lon="7.2861437"><ele>588.0</ele><time>2026-04-05T11:39:18.971Z</time></trkpt><trkpt lat="44.8733474" lon="7.2862857"><ele>588.0</ele><time>2026-04-05T11:39:19.971Z</time></trkpt><trkpt lat="44.8733808" lon="7.286425"><ele>588.0</ele><time>2026-04-05T11:39:20.971Z</time></trkpt><trkpt lat="44.8734092" lon="7.2865617"><ele>588.0</ele><time>2026-04-05T11:39:21.971Z</time></trkpt><trkpt lat="44.8734319" lon="7.2866986"><ele>588.0</ele><time>2026-04-05T11:39:22.971Z</time></trkpt><trkpt lat="44.873441" lon="7.2868434"><ele>588.0</ele><time>2026-04-05T11:39:23.971Z</time></trkpt><trkpt lat="44.8734496" lon="7.2870022"><ele>587.25</ele><time>2026-04-05T11:39:24.971Z</time></trkpt><trkpt lat="44.8734424" lon="7.2871717"><ele>586.5</ele><time>2026-04-05T11:39:25.971Z</time></trkpt><trkpt lat="44.8734368" lon="7.2873419"><ele>585.75</ele><time>2026-04-05T11:39:26.971Z</time></trkpt><trkpt lat="44.8734308" lon="7.2875127"><ele>585.0</ele><time>2026-04-05T11:39:27.971Z</time></trkpt><trkpt lat="44.8734149" lon="7.2876754"><ele>582.0</ele><time>2026-04-05T11:39:28.971Z</time></trkpt><trkpt lat="44.8733901" lon="7.2878417"><ele>579.0</ele><time>2026-04-05T11:39:29.971Z</time></trkpt><trkpt lat="44.8733594" lon="7.2879957"><ele>576.0</ele><time>2026-04-05T11:39:30.971Z</time></trkpt><trkpt lat="44.8733288" lon="7.2881464"><ele>573.0</ele><time>2026-04-05T11:39:31.971Z</time></trkpt><trkpt lat="44.8733047" lon="7.2882939"><ele>571.6</ele><time>2026-04-05T11:39:32.971Z</time></trkpt><trkpt lat="44.8732817" lon="7.2884361"><ele>570.1999999999999</ele><time>2026-04-05T11:39:33.971Z</time></trkpt><trkpt lat="44.8732561" lon="7.2885763"><ele>568.8</ele><time>2026-04-05T11:39:34.971Z</time></trkpt><trkpt lat="44.8732315" lon="7.2887062"><ele>567.4</ele><time>2026-04-05T11:39:35.971Z</time></trkpt><trkpt lat="44.8732086" lon="7.2888383"><ele>566.0</ele><time>2026-04-05T11:39:36.971Z</time></trkpt><trkpt lat="44.8731678" lon="7.288962"><ele>564.6</ele><time>2026-04-05T11:39:37.971Z</time></trkpt><trkpt lat="44.8731159" lon="7.2890821"><ele>563.2</ele><time>2026-04-05T11:39:38.971Z</time></trkpt><trkpt lat="44.8730641" lon="7.2892039"><ele>561.8</ele><time>2026-04-05T11:39:39.971Z</time></trkpt><trkpt lat="44.8730121" lon="7.2893231"><ele>560.4</ele><time>2026-04-05T11:39:40.971Z</time></trkpt><trkpt lat="44.8729599" lon="7.2894439"><ele>559.0</ele><time>2026-04-05T11:39:41.971Z</time></trkpt><trkpt lat="44.8729037" lon="7.2895627"><ele>559.0</ele><time>2026-04-05T11:39:42.972Z</time></trkpt><trkpt lat="44.8728483" lon="7.2896816"><ele>559.0</ele><time>2026-04-05T11:39:43.971Z</time></trkpt><trkpt lat="44.8728061" lon="7.2897955"><ele>559.0</ele><time>2026-04-05T11:39:44.971Z</time></trkpt><trkpt lat="44.8727742" lon="7.2898948"><ele>559.0</ele><time>2026-04-05T11:39:45.971Z</time></trkpt><trkpt lat="44.8727465" lon="7.2899868"><ele>559.0</ele><time>2026-04-05T11:39:46.971Z</time></trkpt><trkpt lat="44.8726405" lon="7.2900578"><ele>557.2</ele><time>2026-04-05T11:39:48.971Z</time></trkpt><trkpt lat="44.8725478" lon="7.2899419"><ele>555.4</ele><time>2026-04-05T11:39:50.971Z</time></trkpt><trkpt lat="44.8725378" lon="7.2898272"><ele>553.6</ele><time>2026-04-05T11:39:51.971Z</time></trkpt><trkpt lat="44.8725383" lon="7.2896712"><ele>551.8</ele><time>2026-04-05T11:39:52.971Z</time></trkpt><trkpt lat="44.8725339" lon="7.2894992"><ele>550.0</ele><time>2026-04-05T11:39:53.971Z</time></trkpt><trkpt lat="44.8725333" lon="7.2893338"><ele>550.0</ele><time>2026-04-05T11:39:54.971Z</time></trkpt><trkpt lat="44.8725326" lon="7.2891709"><ele>550.0</ele><time>2026-04-05T11:39:55.971Z</time></trkpt><trkpt lat="44.8725354" lon="7.2890153"><ele>550.0</ele><time>2026-04-05T11:39:56.971Z</time></trkpt><trkpt lat="44.8725353" lon="7.2888666"><ele>550.0</ele><time>2026-04-05T11:39:57.971Z</time></trkpt><trkpt lat="44.8725389" lon="7.2887317"><ele>550.0</ele><time>2026-04-05T11:39:58.971Z</time></trkpt><trkpt lat="44.8725326" lon="7.2886139"><ele>549.8333333333334</ele><time>2026-04-05T11:39:59.971Z</time></trkpt><trkpt lat="44.8725016" lon="7.2885187"><ele>549.6666666666667</ele><time>2026-04-05T11:40:00.971Z</time></trkpt><trkpt lat="44.8724416" lon="7.2884655"><ele>549.5</ele><time>2026-04-05T11:40:01.971Z</time></trkpt><trkpt lat="44.8723757" lon="7.2884767"><ele>549.3333333333334</ele><time>2026-04-05T11:40:02.971Z</time></trkpt><trkpt lat="44.8723202" lon="7.2885414"><ele>549.1666666666666</ele><time>2026-04-05T11:40:03.971Z</time></trkpt><trkpt lat="44.872278" lon="7.2886608"><ele>549.0</ele><time>2026-04-05T11:40:04.971Z</time></trkpt><trkpt lat="44.8722322" lon="7.2888272"><ele>549.25</ele><time>2026-04-05T11:40:05.971Z</time></trkpt><trkpt lat="44.8721836" lon="7.2890203"><ele>549.5</ele><time>2026-04-05T11:40:06.971Z</time></trkpt><trkpt lat="44.8721369" lon="7.2892034"><ele>549.75</ele><time>2026-04-05T11:40:07.971Z</time></trkpt><trkpt lat="44.8720957" lon="7.2893823"><ele>550.0</ele><time>2026-04-05T11:40:08.971Z</time></trkpt><trkpt lat="44.8720518" lon="7.2895592"><ele>550.0</ele><time>2026-04-05T11:40:09.971Z</time></trkpt><trkpt lat="44.8720151" lon="7.2897342"><ele>550.0</ele><time>2026-04-05T11:40:10.971Z</time></trkpt><trkpt lat="44.8719859" lon="7.2899135"><ele>550.0</ele><time>2026-04-05T11:40:11.971Z</time></trkpt><trkpt lat="44.8719598" lon="7.2900913"><ele>550.0</ele><time>2026-04-05T11:40:12.971Z</time></trkpt><trkpt lat="44.8719414" lon="7.2902618"><ele>549.8</ele><time>2026-04-05T11:40:13.971Z</time></trkpt><trkpt lat="44.8719215" lon="7.2904279"><ele>549.6</ele><time>2026-04-05T11:40:14.971Z</time></trkpt><trkpt lat="44.8719067" lon="7.2905852"><ele>549.4</ele><time>2026-04-05T11:40:15.971Z</time></trkpt><trkpt lat="44.8718964" lon="7.290729"><ele>549.2</ele><time>2026-04-05T11:40:16.972Z</time></trkpt><trkpt lat="44.871883" lon="7.2908751"><ele>549.0</ele><time>2026-04-05T11:40:17.971Z</time></trkpt><trkpt lat="44.8718637" lon="7.2910029"><ele>547.4</ele><time>2026-04-05T11:40:18.971Z</time></trkpt><trkpt lat="44.8718352" lon="7.2910986"><ele>545.8</ele><time>2026-04-05T11:40:19.971Z</time></trkpt><trkpt lat="44.871743" lon="7.2911975"><ele>544.2</ele><time>2026-04-05T11:40:21.971Z</time></trkpt><trkpt lat="44.8716169" lon="7.2911315"><ele>542.6</ele><time>2026-04-05T11:40:23.971Z</time></trkpt><trkpt lat="44.8715238" lon="7.2910526"><ele>541.0</ele><time>2026-04-05T11:40:24.971Z</time></trkpt><trkpt lat="44.87142" lon="7.2909619"><ele>537.75</ele><time>2026-04-05T11:40:25.971Z</time></trkpt><trkpt lat="44.8713198" lon="7.2908681"><ele>534.5</ele><time>2026-04-05T11:40:26.971Z</time></trkpt><trkpt lat="44.871218" lon="7.2907805"><ele>531.25</ele><time>2026-04-05T11:40:27.971Z</time></trkpt><trkpt lat="44.8711176" lon="7.2906916"><ele>528.0</ele><time>2026-04-05T11:40:28.971Z</time></trkpt><trkpt lat="44.8710166" lon="7.2906018"><ele>523.5</ele><time>2026-04-05T11:40:29.971Z</time></trkpt><trkpt lat="44.8709178" lon="7.290513"><ele>519.0</ele><time>2026-04-05T11:40:30.971Z</time></trkpt><trkpt lat="44.8708217" lon="7.2904241"><ele>514.5</ele><time>2026-04-05T11:40:31.971Z</time></trkpt><trkpt lat="44.8707255" lon="7.2903424"><ele>510.0</ele><time>2026-04-05T11:40:32.971Z</time></trkpt><trkpt lat="44.870629" lon="7.2902553"><ele>510.0</ele><time>2026-04-05T11:40:33.971Z</time></trkpt><trkpt lat="44.8705373" lon="7.2901692"><ele>510.0</ele><time>2026-04-05T11:40:34.971Z</time></trkpt><trkpt lat="44.8704479" lon="7.2900839"><ele>510.0</ele><time>2026-04-05T11:40:35.971Z</time></trkpt><trkpt lat="44.8703535" lon="7.2900206"><ele>510.0</ele><time>2026-04-05T11:40:36.971Z</time></trkpt><trkpt lat="44.8702677" lon="7.290005"><ele>510.0</ele><time>2026-04-05T11:40:37.971Z</time></trkpt><trkpt lat="44.8701846" lon="7.2900361"><ele>510.0</ele><time>2026-04-05T11:40:38.971Z</time></trkpt><trkpt lat="44.8701176" lon="7.2901133"><ele>510.0</ele><time>2026-04-05T11:40:39.971Z</time></trkpt><trkpt lat="44.8700845" lon="7.2902173"><ele>510.0</ele><time>2026-04-05T11:40:40.971Z</time></trkpt><trkpt lat="44.8701014" lon="7.2903472"><ele>510.0</ele><time>2026-04-05T11:40:41.971Z</time></trkpt><trkpt lat="44.8701457" lon="7.2904776"><ele>510.0</ele><time>2026-04-05T11:40:42.971Z</time></trkpt><trkpt lat="44.8702035" lon="7.290619"><ele>509.75</ele><time>2026-04-05T11:40:43.971Z</time></trkpt><trkpt lat="44.8702627" lon="7.2907828"><ele>509.5</ele><time>2026-04-05T11:40:44.971Z</time></trkpt><trkpt lat="44.8703021" lon="7.2909575"><ele>509.25</ele><time>2026-04-05T11:40:45.971Z</time></trkpt><trkpt lat="44.8703157" lon="7.2911411"><ele>509.0</ele><time>2026-04-05T11:40:46.971Z</time></trkpt><trkpt lat="44.8703024" lon="7.2913004"><ele>509.0</ele><time>2026-04-05T11:40:47.971Z</time></trkpt><trkpt lat="44.8702636" lon="7.2914644"><ele>509.0</ele><time>2026-04-05T11:40:48.971Z</time></trkpt><trkpt lat="44.870207" lon="7.2916279"><ele>509.0</ele><time>2026-04-05T11:40:49.971Z</time></trkpt><trkpt lat="44.8701243" lon="7.291776"><ele>509.0</ele><time>2026-04-05T11:40:50.971Z</time></trkpt><trkpt lat="44.870023" lon="7.2918941"><ele>504.75</ele><time>2026-04-05T11:40:51.971Z</time></trkpt><trkpt lat="44.8699045" lon="7.2919747"><ele>500.5</ele><time>2026-04-05T11:40:52.971Z</time></trkpt><trkpt lat="44.8697671" lon="7.2920165"><ele>496.25</ele><time>2026-04-05T11:40:53.971Z</time></trkpt><trkpt lat="44.8696196" lon="7.2920492"><ele>492.0</ele><time>2026-04-05T11:40:54.971Z</time></trkpt><trkpt lat="44.8694739" lon="7.2920795"><ele>492.0</ele><time>2026-04-05T11:40:55.971Z</time></trkpt><trkpt lat="44.8693246" lon="7.2920995"><ele>492.0</ele><time>2026-04-05T11:40:56.971Z</time></trkpt><trkpt lat="44.8691793" lon="7.2921149"><ele>492.0</ele><time>2026-04-05T11:40:57.971Z</time></trkpt><trkpt lat="44.8690455" lon="7.2921325"><ele>492.0</ele><time>2026-04-05T11:40:58.971Z</time></trkpt><trkpt lat="44.8689189" lon="7.2921509"><ele>490.6</ele><time>2026-04-05T11:40:59.971Z</time></trkpt><trkpt lat="44.8688037" lon="7.2921629"><ele>489.20000000000005</ele><time>2026-04-05T11:41:00.971Z</time></trkpt><trkpt lat="44.8687031" lon="7.2921847"><ele>487.8</ele><time>2026-04-05T11:41:01.971Z</time></trkpt><trkpt lat="44.868603" lon="7.2922305"><ele>486.4</ele><time>2026-04-05T11:41:02.971Z</time></trkpt><trkpt lat="44.8685093" lon="7.2923197"><ele>485.0</ele><time>2026-04-05T11:41:03.972Z</time></trkpt><trkpt lat="44.8684073" lon="7.2924223"><ele>482.5</ele><time>2026-04-05T11:41:04.971Z</time></trkpt><trkpt lat="44.8683014" lon="7.2925343"><ele>480.0</ele><time>2026-04-05T11:41:05.971Z</time></trkpt><trkpt lat="44.8681979" lon="7.2926442"><ele>477.5</ele><time>2026-04-05T11:41:06.971Z</time></trkpt><trkpt lat="44.8680919" lon="7.2927508"><ele>475.0</ele><time>2026-04-05T11:41:07.971Z</time></trkpt><trkpt lat="44.8679948" lon="7.2928551"><ele>475.0</ele><time>2026-04-05T11:41:08.971Z</time></trkpt><trkpt lat="44.8679028" lon="7.2929562"><ele>475.0</ele><time>2026-04-05T11:41:09.971Z</time></trkpt><trkpt lat="44.8678151" lon="7.2930564"><ele>475.0</ele><time>2026-04-05T11:41:10.971Z</time></trkpt><trkpt lat="44.867745" lon="7.2931526"><ele>475.0</ele><time>2026-04-05T11:41:11.971Z</time></trkpt><trkpt lat="44.8676918" lon="7.2932664"><ele>475.0</ele><time>2026-04-05T11:41:12.971Z</time></trkpt><trkpt lat="44.8676721" lon="7.2933962"><ele>474.0</ele><time>2026-04-05T11:41:13.971Z</time></trkpt><trkpt lat="44.8676742" lon="7.2935303"><ele>473.0</ele><time>2026-04-05T11:41:14.971Z</time></trkpt><trkpt lat="44.8677064" lon="7.2936522"><ele>472.0</ele><time>2026-04-05T11:41:15.971Z</time></trkpt><trkpt lat="44.8677727" lon="7.2937485"><ele>471.0</ele><time>2026-04-05T11:41:16.971Z</time></trkpt><trkpt lat="44.8678596" lon="7.2938136"><ele>470.0</ele><time>2026-04-05T11:41:17.971Z</time></trkpt><trkpt lat="44.8679659" lon="7.293835"><ele>470.0</ele><time>2026-04-05T11:41:18.971Z</time></trkpt><trkpt lat="44.8680847" lon="7.2938232"><ele>470.0</ele><time>2026-04-05T11:41:19.971Z</time></trkpt><trkpt lat="44.8682084" lon="7.2937949"><ele>470.0</ele><time>2026-04-05T11:41:20.971Z</time></trkpt><trkpt lat="44.8683201" lon="7.2937572"><ele>470.0</ele><time>2026-04-05T11:41:21.971Z</time></trkpt><trkpt lat="44.8684187" lon="7.2937154"><ele>469.8</ele><time>2026-04-05T11:41:22.971Z</time></trkpt><trkpt lat="44.8684984" lon="7.2936913"><ele>469.6</ele><time>2026-04-05T11:41:23.971Z</time></trkpt><trkpt lat="44.8686082" lon="7.2937239"><ele>469.4</ele><time>2026-04-05T11:41:25.971Z</time></trkpt><trkpt lat="44.868618" lon="7.2938851"><ele>469.2</ele><time>2026-04-05T11:41:27.971Z</time></trkpt><trkpt lat="44.8685652" lon="7.2939602"><ele>469.0</ele><time>2026-04-05T11:41:28.971Z</time></trkpt><trkpt lat="44.8684783" lon="7.2940424"><ele>465.0</ele><time>2026-04-05T11:41:29.971Z</time></trkpt><trkpt lat="44.868366" lon="7.2941504"><ele>461.0</ele><time>2026-04-05T11:41:30.971Z</time></trkpt><trkpt lat="44.8682516" lon="7.2942701"><ele>457.0</ele><time>2026-04-05T11:41:31.971Z</time></trkpt><trkpt lat="44.8681389" lon="7.2943828"><ele>453.0</ele><time>2026-04-05T11:41:32.971Z</time></trkpt><trkpt lat="44.8680239" lon="7.2944843"><ele>453.0</ele><time>2026-04-05T11:41:33.971Z</time></trkpt><trkpt lat="44.86791" lon="7.2945718"><ele>453.0</ele><time>2026-04-05T11:41:34.971Z</time></trkpt><trkpt lat="44.8677943" lon="7.2946447"><ele>453.0</ele><time>2026-04-05T11:41:35.971Z</time></trkpt><trkpt lat="44.8676758" lon="7.2947027"><ele>453.0</ele><time>2026-04-05T11:41:36.971Z</time></trkpt><trkpt lat="44.8675576" lon="7.2947602"><ele>450.5</ele><time>2026-04-05T11:41:37.971Z</time></trkpt><trkpt lat="44.8674356" lon="7.2948227"><ele>448.0</ele><time>2026-04-05T11:41:38.971Z</time></trkpt><trkpt lat="44.8673103" lon="7.2948904"><ele>445.5</ele><time>2026-04-05T11:41:39.971Z</time></trkpt><trkpt lat="44.867187" lon="7.2949731"><ele>443.0</ele><time>2026-04-05T11:41:40.971Z</time></trkpt><trkpt lat="44.867065" lon="7.2950481"><ele>443.0</ele><time>2026-04-05T11:41:41.971Z</time></trkpt><trkpt lat="44.866942" lon="7.2951188"><ele>443.0</ele><time>2026-04-05T11:41:42.971Z</time></trkpt><trkpt lat="44.8668187" lon="7.2951894"><ele>443.0</ele><time>2026-04-05T11:41:43.971Z</time></trkpt><trkpt lat="44.8666986" lon="7.2952594"><ele>443.0</ele><time>2026-04-05T11:41:44.971Z</time></trkpt><trkpt lat="44.8665809" lon="7.2953152"><ele>441.2</ele><time>2026-04-05T11:41:45.971Z</time></trkpt><trkpt lat="44.8664778" lon="7.2953682"><ele>439.4</ele><time>2026-04-05T11:41:46.971Z</time></trkpt><trkpt lat="44.8663893" lon="7.2954174"><ele>437.59999999999997</ele><time>2026-04-05T11:41:47.971Z</time></trkpt><trkpt lat="44.866311" lon="7.2954791"><ele>435.79999999999995</ele><time>2026-04-05T11:41:48.971Z</time></trkpt><trkpt lat="44.8662528" lon="7.2955684"><ele>434.0</ele><time>2026-04-05T11:41:49.971Z</time></trkpt><trkpt lat="44.8662246" lon="7.2956854"><ele>433.2</ele><time>2026-04-05T11:41:50.971Z</time></trkpt><trkpt lat="44.8662197" lon="7.295813"><ele>432.4</ele><time>2026-04-05T11:41:51.971Z</time></trkpt><trkpt lat="44.8662133" lon="7.2959454"><ele>431.6</ele><time>2026-04-05T11:41:52.971Z</time></trkpt><trkpt lat="44.8662066" lon="7.2960681"><ele>430.8</ele><time>2026-04-05T11:41:53.971Z</time></trkpt><trkpt lat="44.8662131" lon="7.2961925"><ele>430.0</ele><time>2026-04-05T11:41:54.971Z</time></trkpt><trkpt lat="44.8662507" lon="7.2963151"><ele>430.0</ele><time>2026-04-05T11:41:55.971Z</time></trkpt><trkpt lat="44.8663188" lon="7.2964163"><ele>430.0</ele><time>2026-04-05T11:41:56.971Z</time></trkpt><trkpt lat="44.8663981" lon="7.2965059"><ele>430.0</ele><time>2026-04-05T11:41:57.971Z</time></trkpt><trkpt lat="44.8664571" lon="7.2966081"><ele>430.0</ele><time>2026-04-05T11:41:58.972Z</time></trkpt><trkpt lat="44.8664916" lon="7.29672"><ele>430.0</ele><time>2026-04-05T11:41:59.971Z</time></trkpt><trkpt lat="44.8665024" lon="7.2968406"><ele>429.2</ele><time>2026-04-05T11:42:00.971Z</time></trkpt><trkpt lat="44.8664849" lon="7.2969686"><ele>428.4</ele><time>2026-04-05T11:42:01.971Z</time></trkpt><trkpt lat="44.8664603" lon="7.2971155"><ele>427.6</ele><time>2026-04-05T11:42:02.971Z</time></trkpt><trkpt lat="44.866431" lon="7.2972766"><ele>426.8</ele><time>2026-04-05T11:42:03.971Z</time></trkpt><trkpt lat="44.8663869" lon="7.2974257"><ele>426.0</ele><time>2026-04-05T11:42:04.971Z</time></trkpt><trkpt lat="44.8663534" lon="7.2975716"><ele>425.6</ele><time>2026-04-05T11:42:05.971Z</time></trkpt><trkpt lat="44.8663274" lon="7.2977109"><ele>425.20000000000005</ele><time>2026-04-05T11:42:06.971Z</time></trkpt><trkpt lat="44.8663008" lon="7.2978468"><ele>424.79999999999995</ele><time>2026-04-05T11:42:07.971Z</time></trkpt><trkpt lat="44.8662736" lon="7.2979705"><ele>424.4</ele><time>2026-04-05T11:42:08.971Z</time></trkpt><trkpt lat="44.8662505" lon="7.2980935"><ele>424.0</ele><time>2026-04-05T11:42:09.971Z</time></trkpt><trkpt lat="44.8662224" lon="7.2982114"><ele>423.33333333333337</ele><time>2026-04-05T11:42:10.971Z</time></trkpt><trkpt lat="44.8661935" lon="7.2983142"><ele>422.6666666666667</ele><time>2026-04-05T11:42:11.971Z</time></trkpt><trkpt lat="44.8661621" lon="7.2984039"><ele>422.0</ele><time>2026-04-05T11:42:12.971Z</time></trkpt><trkpt lat="44.8660931" lon="7.2985347"><ele>421.33333333333337</ele><time>2026-04-05T11:42:14.971Z</time></trkpt><trkpt lat="44.8661091" lon="7.2986514"><ele>420.6666666666667</ele><time>2026-04-05T11:42:16.971Z</time></trkpt><trkpt lat="44.8662013" lon="7.2986788"><ele>420.0</ele><time>2026-04-05T11:42:18.971Z</time></trkpt><trkpt lat="44.8662663" lon="7.2986927"><ele>420.0</ele><time>2026-04-05T11:42:19.971Z</time></trkpt><trkpt lat="44.8663425" lon="7.2987217"><ele>420.0</ele><time>2026-04-05T11:42:20.971Z</time></trkpt><trkpt lat="44.8664273" lon="7.2987698"><ele>420.0</ele><time>2026-04-05T11:42:21.971Z</time></trkpt><trkpt lat="44.8665235" lon="7.2988279"><ele>420.0</ele><time>2026-04-05T11:42:22.971Z</time></trkpt><trkpt lat="44.8666261" lon="7.2988814"><ele>420.0</ele><time>2026-04-05T11:42:23.971Z</time></trkpt><trkpt lat="44.8667235" lon="7.2989334"><ele>420.4</ele><time>2026-04-05T11:42:24.971Z</time></trkpt><trkpt lat="44.8668123" lon="7.2989865"><ele>420.8</ele><time>2026-04-05T11:42:25.971Z</time></trkpt><trkpt lat="44.8668841" lon="7.2990556"><ele>421.20000000000005</ele><time>2026-04-05T11:42:26.971Z</time></trkpt><trkpt lat="44.8669593" lon="7.2991283"><ele>421.6</ele><time>2026-04-05T11:42:27.971Z</time></trkpt><trkpt lat="44.8670645" lon="7.2991722"><ele>422.0</ele><time>2026-04-05T11:42:28.971Z</time></trkpt><trkpt lat="44.8671812" lon="7.2992182"><ele>422.0</ele><time>2026-04-05T11:42:29.971Z</time></trkpt><trkpt lat="44.8672915" lon="7.2992776"><ele>422.0</ele><time>2026-04-05T11:42:30.971Z</time></trkpt><trkpt lat="44.8673966" lon="7.2993379"><ele>422.0</ele><time>2026-04-05T11:42:31.971Z</time></trkpt><trkpt lat="44.8674934" lon="7.299397"><ele>422.0</ele><time>2026-04-05T11:42:32.971Z</time></trkpt><trkpt lat="44.8675855" lon="7.2994595"><ele>422.0</ele><time>2026-04-05T11:42:33.971Z</time></trkpt><trkpt lat="44.8676697" lon="7.2995309"><ele>422.20000000000005</ele><time>2026-04-05T11:42:34.971Z</time></trkpt><trkpt lat="44.8677364" lon="7.2996208"><ele>422.4</ele><time>2026-04-05T11:42:35.971Z</time></trkpt><trkpt lat="44.8677786" lon="7.2997275"><ele>422.6</ele><time>2026-04-05T11:42:36.971Z</time></trkpt><trkpt lat="44.8678" lon="7.2998394"><ele>422.79999999999995</ele><time>2026-04-05T11:42:37.972Z</time></trkpt><trkpt lat="44.8678029" lon="7.2999656"><ele>423.0</ele><time>2026-04-05T11:42:38.971Z</time></trkpt><trkpt lat="44.8677777" lon="7.3001018"><ele>423.0</ele><time>2026-04-05T11:42:39.971Z</time></trkpt><trkpt lat="44.867742" lon="7.300239"><ele>423.0</ele><time>2026-04-05T11:42:40.971Z</time></trkpt><trkpt lat="44.8677095" lon="7.300373"><ele>423.0</ele><time>2026-04-05T11:42:41.971Z</time></trkpt><trkpt lat="44.8676995" lon="7.3004975"><ele>423.0</ele><time>2026-04-05T11:42:42.971Z</time></trkpt><trkpt lat="44.8677197" lon="7.3006272"><ele>423.0</ele><time>2026-04-05T11:42:43.971Z</time></trkpt><trkpt lat="44.8677616" lon="7.300745"><ele>422.2</ele><time>2026-04-05T11:42:44.971Z</time></trkpt><trkpt lat="44.8678234" lon="7.3008706"><ele>421.4</ele><time>2026-04-05T11:42:45.971Z</time></trkpt><trkpt lat="44.8678854" lon="7.3010115"><ele>420.59999999999997</ele><time>2026-04-05T11:42:46.971Z</time></trkpt><trkpt lat="44.8679542" lon="7.3011339"><ele>419.79999999999995</ele><time>2026-04-05T11:42:47.971Z</time></trkpt><trkpt lat="44.8680103" lon="7.3012628"><ele>419.0</ele><time>2026-04-05T11:42:48.971Z</time></trkpt><trkpt lat="44.8680527" lon="7.3013981"><ele>418.5</ele><time>2026-04-05T11:42:49.971Z</time></trkpt><trkpt lat="44.8681156" lon="7.3015279"><ele>418.0</ele><time>2026-04-05T11:42:50.971Z</time></trkpt><trkpt lat="44.868209" lon="7.3016393"><ele>417.5</ele><time>2026-04-05T11:42:51.971Z</time></trkpt><trkpt lat="44.8682963" lon="7.3017352"><ele>417.0</ele><time>2026-04-05T11:42:52.971Z</time></trkpt><trkpt lat="44.8683943" lon="7.3018141"><ele>415.40000000000003</ele><time>2026-04-05T11:42:53.971Z</time></trkpt><trkpt lat="44.8684949" lon="7.3018661"><ele>413.8</ele><time>2026-04-05T11:42:54.971Z</time></trkpt><trkpt lat="44.8685947" lon="7.301893"><ele>412.2</ele><time>2026-04-05T11:42:55.971Z</time></trkpt><trkpt lat="44.868699" lon="7.3018958"><ele>410.6</ele><time>2026-04-05T11:42:56.971Z</time></trkpt><trkpt lat="44.8688079" lon="7.3018604"><ele>409.0</ele><time>2026-04-05T11:42:57.971Z</time></trkpt><trkpt lat="44.8689226" lon="7.3017878"><ele>409.0</ele><time>2026-04-05T11:42:58.971Z</time></trkpt><trkpt lat="44.8690402" lon="7.3016959"><ele>409.0</ele><time>2026-04-05T11:42:59.971Z</time></trkpt><trkpt lat="44.869169" lon="7.3015966"><ele>409.0</ele><time>2026-04-05T11:43:00.971Z</time></trkpt><trkpt lat="44.8693092" lon="7.3014876"><ele>409.0</ele><time>2026-04-05T11:43:01.971Z</time></trkpt><trkpt lat="44.8694527" lon="7.3013882"><ele>410.0</ele><time>2026-04-05T11:43:02.971Z</time></trkpt><trkpt lat="44.8695943" lon="7.3013044"><ele>411.0</ele><time>2026-04-05T11:43:03.971Z</time></trkpt><trkpt lat="44.8697324" lon="7.3012475"><ele>412.0</ele><time>2026-04-05T11:43:04.971Z</time></trkpt><trkpt lat="44.8698577" lon="7.3012135"><ele>413.0</ele><time>2026-04-05T11:43:05.971Z</time></trkpt><trkpt lat="44.8699796" lon="7.3011892"><ele>413.0</ele><time>2026-04-05T11:43:06.971Z</time></trkpt><trkpt lat="44.8701011" lon="7.3011861"><ele>413.0</ele><time>2026-04-05T11:43:07.971Z</time></trkpt><trkpt lat="44.8702129" lon="7.3011832"><ele>413.0</ele><time>2026-04-05T11:43:08.971Z</time></trkpt><trkpt lat="44.870314" lon="7.3011767"><ele>413.0</ele><time>2026-04-05T11:43:09.971Z</time></trkpt><trkpt lat="44.8704059" lon="7.3011757"><ele>413.0</ele><time>2026-04-05T11:43:10.971Z</time></trkpt><trkpt lat="44.8704862" lon="7.3011685"><ele>410.4</ele><time>2026-04-05T11:43:11.971Z</time></trkpt><trkpt lat="44.8705594" lon="7.3011506"><ele>407.79999999999995</ele><time>2026-04-05T11:43:12.971Z</time></trkpt><trkpt lat="44.870662" lon="7.3011018"><ele>405.2</ele><time>2026-04-05T11:43:14.971Z</time></trkpt><trkpt lat="44.8707308" lon="7.3010191"><ele>402.6</ele><time>2026-04-05T11:43:16.971Z</time></trkpt><trkpt lat="44.8707639" lon="7.3009101"><ele>400.0</ele><time>2026-04-05T11:43:19.972Z</time></trkpt><trkpt lat="44.8708452" lon="7.300779"><ele>400.00000000000006</ele><time>2026-04-05T11:52:03.971Z</time></trkpt><trkpt lat="44.8708975" lon="7.300868"><ele>400.0</ele><time>2026-04-05T11:53:09.971Z</time></trkpt><trkpt lat="44.8708477" lon="7.3009657"><ele>400.0</ele><time>2026-04-05T11:53:12.971Z</time></trkpt><trkpt lat="44.870764" lon="7.3009961"><ele>400.0</ele><time>2026-04-05T11:53:14.971Z</time></trkpt><trkpt lat="44.8706868" lon="7.3010301"><ele>400.00000000000006</ele><time>2026-04-05T11:53:16.971Z</time></trkpt><trkpt lat="44.8706305" lon="7.3010724"><ele>400.0</ele><time>2026-04-05T11:53:19.971Z</time></trkpt><trkpt lat="44.870654" lon="7.3012216"><ele>400.0</ele><time>2026-04-05T11:53:28.971Z</time></trkpt><trkpt lat="44.8707016" lon="7.301312"><ele>400.0</ele><time>2026-04-05T11:53:29.971Z</time></trkpt><trkpt lat="44.8707585" lon="7.3014462"><ele>400.0</ele><time>2026-04-05T11:53:30.971Z</time></trkpt><trkpt lat="44.8707997" lon="7.3015875"><ele>400.0</ele><time>2026-04-05T11:53:31.971Z</time></trkpt><trkpt lat="44.8708438" lon="7.3017242"><ele>400.0</ele><time>2026-04-05T11:53:32.971Z</time></trkpt><trkpt lat="44.8708824" lon="7.3018496"><ele>398.8</ele><time>2026-04-05T11:53:33.971Z</time></trkpt><trkpt lat="44.8709154" lon="7.3019678"><ele>397.6</ele><time>2026-04-05T11:53:34.971Z</time></trkpt><trkpt lat="44.870954" lon="7.3020937"><ele>396.4</ele><time>2026-04-05T11:53:35.971Z</time></trkpt><trkpt lat="44.870996" lon="7.3022436"><ele>395.2</ele><time>2026-04-05T11:53:36.971Z</time></trkpt><trkpt lat="44.8710435" lon="7.302415"><ele>394.0</ele><time>2026-04-05T11:53:37.971Z</time></trkpt><trkpt lat="44.8710895" lon="7.3026083"><ele>392.5</ele><time>2026-04-05T11:53:38.971Z</time></trkpt><trkpt lat="44.8711407" lon="7.3027986"><ele>391.0</ele><time>2026-04-05T11:53:39.971Z</time></trkpt><trkpt lat="44.8711856" lon="7.3029795"><ele>389.5</ele><time>2026-04-05T11:53:40.971Z</time></trkpt><trkpt lat="44.8712299" lon="7.3031473"><ele>388.0</ele><time>2026-04-05T11:53:41.971Z</time></trkpt><trkpt lat="44.8712748" lon="7.3033051"><ele>388.0</ele><time>2026-04-05T11:53:42.971Z</time></trkpt><trkpt lat="44.8713212" lon="7.3034478"><ele>388.0</ele><time>2026-04-05T11:53:43.971Z</time></trkpt><trkpt lat="44.8713875" lon="7.3035573"><ele>388.0</ele><time>2026-04-05T11:53:44.971Z</time></trkpt><trkpt lat="44.8714789" lon="7.3036467"><ele>388.0</ele><time>2026-04-05T11:53:45.971Z</time></trkpt><trkpt lat="44.8715901" lon="7.3037313"><ele>388.0</ele><time>2026-04-05T11:53:46.971Z</time></trkpt><trkpt lat="44.8717131" lon="7.3038258"><ele>388.0</ele><time>2026-04-05T11:53:47.971Z</time></trkpt><trkpt lat="44.8718288" lon="7.3039308"><ele>388.0</ele><time>2026-04-05T11:53:48.971Z</time></trkpt><trkpt lat="44.8719275" lon="7.3040519"><ele>388.0</ele><time>2026-04-05T11:53:49.971Z</time></trkpt><trkpt lat="44.8720092" lon="7.3041777"><ele>387.75</ele><time>2026-04-05T11:53:50.971Z</time></trkpt><trkpt lat="44.8720725" lon="7.3043133"><ele>387.5</ele><time>2026-04-05T11:53:51.971Z</time></trkpt><trkpt lat="44.8721338" lon="7.304458"><ele>387.25</ele><time>2026-04-05T11:53:52.971Z</time></trkpt><trkpt lat="44.8721878" lon="7.3046058"><ele>387.0</ele><time>2026-04-05T11:53:53.971Z</time></trkpt><trkpt lat="44.8722441" lon="7.3047561"><ele>386.6</ele><time>2026-04-05T11:53:54.971Z</time></trkpt><trkpt lat="44.8722925" lon="7.3049034"><ele>386.20000000000005</ele><time>2026-04-05T11:53:55.971Z</time></trkpt><trkpt lat="44.872332" lon="7.3050425"><ele>385.8</ele><time>2026-04-05T11:53:56.971Z</time></trkpt><trkpt lat="44.8723684" lon="7.3051779"><ele>385.4</ele><time>2026-04-05T11:53:57.971Z</time></trkpt><trkpt lat="44.8724002" lon="7.3053061"><ele>385.0</ele><time>2026-04-05T11:53:58.971Z</time></trkpt><trkpt lat="44.8724338" lon="7.3054281"><ele>385.0</ele><time>2026-04-05T11:53:59.971Z</time></trkpt><trkpt lat="44.8724636" lon="7.3055528"><ele>385.0</ele><time>2026-04-05T11:54:00.971Z</time></trkpt><trkpt lat="44.8724916" lon="7.3056799"><ele>385.0</ele><time>2026-04-05T11:54:01.971Z</time></trkpt><trkpt lat="44.8725365" lon="7.3058043"><ele>385.0</ele><time>2026-04-05T11:54:02.971Z</time></trkpt><trkpt lat="44.8725943" lon="7.3059223"><ele>385.0</ele><time>2026-04-05T11:54:03.971Z</time></trkpt><trkpt lat="44.8726639" lon="7.3060217"><ele>384.8</ele><time>2026-04-05T11:54:04.971Z</time></trkpt><trkpt lat="44.8727408" lon="7.3061022"><ele>384.6</ele><time>2026-04-05T11:54:05.971Z</time></trkpt><trkpt lat="44.8728253" lon="7.3061712"><ele>384.4</ele><time>2026-04-05T11:54:06.971Z</time></trkpt><trkpt lat="44.8729177" lon="7.3062325"><ele>384.2</ele><time>2026-04-05T11:54:07.971Z</time></trkpt><trkpt lat="44.8730162" lon="7.3062908"><ele>384.0</ele><time>2026-04-05T11:54:08.971Z</time></trkpt><trkpt lat="44.8731133" lon="7.3063398"><ele>384.0</ele><time>2026-04-05T11:54:09.971Z</time></trkpt><trkpt lat="44.8732128" lon="7.3063774"><ele>384.0</ele><time>2026-04-05T11:54:10.971Z</time></trkpt><trkpt lat="44.8733077" lon="7.3064021"><ele>384.0</ele><time>2026-04-05T11:54:11.971Z</time></trkpt><trkpt lat="44.873399" lon="7.3064299"><ele>384.0</ele><time>2026-04-05T11:54:12.971Z</time></trkpt><trkpt lat="44.8734896" lon="7.3064607"><ele>384.0</ele><time>2026-04-05T11:54:13.971Z</time></trkpt><trkpt lat="44.8735729" lon="7.3065115"><ele>384.2</ele><time>2026-04-05T11:54:14.971Z</time></trkpt><trkpt lat="44.8736484" lon="7.3065788"><ele>384.4</ele><time>2026-04-05T11:54:15.971Z</time></trkpt><trkpt lat="44.8737178" lon="7.3066668"><ele>384.6</ele><time>2026-04-05T11:54:16.971Z</time></trkpt><trkpt lat="44.8737775" lon="7.3067685"><ele>384.8</ele><time>2026-04-05T11:54:17.971Z</time></trkpt><trkpt lat="44.8738203" lon="7.3068817"><ele>385.0</ele><time>2026-04-05T11:54:18.971Z</time></trkpt><trkpt lat="44.8738532" lon="7.3070041"><ele>385.0</ele><time>2026-04-05T11:54:19.971Z</time></trkpt><trkpt lat="44.8738767" lon="7.307132"><ele>385.0</ele><time>2026-04-05T11:54:20.971Z</time></trkpt><trkpt lat="44.8738947" lon="7.3072663"><ele>385.0</ele><time>2026-04-05T11:54:21.971Z</time></trkpt><trkpt lat="44.8739082" lon="7.3074093"><ele>385.0</ele><time>2026-04-05T11:54:22.971Z</time></trkpt><trkpt lat="44.8739223" lon="7.3075518"><ele>385.0</ele><time>2026-04-05T11:54:23.971Z</time></trkpt><trkpt lat="44.8739361" lon="7.3076905"><ele>385.0</ele><time>2026-04-05T11:54:24.971Z</time></trkpt><trkpt lat="44.8739511" lon="7.3078306"><ele>385.0</ele><time>2026-04-05T11:54:25.971Z</time></trkpt><trkpt lat="44.8739655" lon="7.3079727"><ele>385.0</ele><time>2026-04-05T11:54:26.971Z</time></trkpt><trkpt lat="44.8739813" lon="7.3081198"><ele>385.0</ele><time>2026-04-05T11:54:27.971Z</time></trkpt><trkpt lat="44.8739967" lon="7.3082631"><ele>385.0</ele><time>2026-04-05T11:54:28.971Z</time></trkpt><trkpt lat="44.8740179" lon="7.3084007"><ele>385.0</ele><time>2026-04-05T11:54:29.971Z</time></trkpt><trkpt lat="44.8740579" lon="7.3085338"><ele>385.0</ele><time>2026-04-05T11:54:30.971Z</time></trkpt><trkpt lat="44.8741078" lon="7.3086628"><ele>385.0</ele><time>2026-04-05T11:54:31.971Z</time></trkpt><trkpt lat="44.874154" lon="7.3088244"><ele>385.0</ele><time>2026-04-05T11:54:32.971Z</time></trkpt><trkpt lat="44.874212" lon="7.308995"><ele>385.0</ele><time>2026-04-05T11:54:33.971Z</time></trkpt><trkpt lat="44.8742606" lon="7.3091726"><ele>385.0</ele><time>2026-04-05T11:54:34.971Z</time></trkpt><trkpt lat="44.8743005" lon="7.3093541"><ele>385.0</ele><time>2026-04-05T11:54:35.971Z</time></trkpt><trkpt lat="44.874357" lon="7.309529"><ele>385.0</ele><time>2026-04-05T11:54:36.971Z</time></trkpt><trkpt lat="44.874434" lon="7.3096905"><ele>383.75</ele><time>2026-04-05T11:54:37.971Z</time></trkpt><trkpt lat="44.8745061" lon="7.3098543"><ele>382.5</ele><time>2026-04-05T11:54:38.971Z</time></trkpt><trkpt lat="44.874585" lon="7.3100111"><ele>381.25</ele><time>2026-04-05T11:54:39.971Z</time></trkpt><trkpt lat="44.8746713" lon="7.310159"><ele>380.0</ele><time>2026-04-05T11:54:40.971Z</time></trkpt><trkpt lat="44.8747501" lon="7.3103071"><ele>380.0</ele><time>2026-04-05T11:54:41.971Z</time></trkpt><trkpt lat="44.8748404" lon="7.3104508"><ele>380.0</ele><time>2026-04-05T11:54:42.971Z</time></trkpt><trkpt lat="44.8749415" lon="7.3105901"><ele>380.0</ele><time>2026-04-05T11:54:43.971Z</time></trkpt><trkpt lat="44.875052" lon="7.3107382"><ele>380.0</ele><time>2026-04-05T11:54:44.971Z</time></trkpt><trkpt lat="44.8751771" lon="7.310889"><ele>380.6666666666667</ele><time>2026-04-05T11:54:45.972Z</time></trkpt><trkpt lat="44.8753175" lon="7.3110405"><ele>381.3333333333333</ele><time>2026-04-05T11:54:46.971Z</time></trkpt><trkpt lat="44.8754582" lon="7.3111881"><ele>382.0</ele><time>2026-04-05T11:54:47.971Z</time></trkpt><trkpt lat="44.8756141" lon="7.3113324"><ele>382.0</ele><time>2026-04-05T11:54:48.971Z</time></trkpt><trkpt lat="44.8757819" lon="7.3114719"><ele>382.0</ele><time>2026-04-05T11:54:49.971Z</time></trkpt><trkpt lat="44.8759525" lon="7.3116109"><ele>382.0</ele><time>2026-04-05T11:54:50.971Z</time></trkpt><trkpt lat="44.8761251" lon="7.311749"><ele>382.0</ele><time>2026-04-05T11:54:51.971Z</time></trkpt><trkpt lat="44.876286" lon="7.3118825"><ele>382.0</ele><time>2026-04-05T11:54:52.971Z</time></trkpt><trkpt lat="44.8764366" lon="7.3120169"><ele>382.0</ele><time>2026-04-05T11:54:53.971Z</time></trkpt><trkpt lat="44.8765765" lon="7.31215"><ele>382.25</ele><time>2026-04-05T11:54:54.971Z</time></trkpt><trkpt lat="44.8767028" lon="7.3122753"><ele>382.5</ele><time>2026-04-05T11:54:55.971Z</time></trkpt><trkpt lat="44.8768163" lon="7.3123881"><ele>382.75</ele><time>2026-04-05T11:54:56.971Z</time></trkpt><trkpt lat="44.8769312" lon="7.3125075"><ele>383.0</ele><time>2026-04-05T11:54:57.971Z</time></trkpt><trkpt lat="44.8770497" lon="7.3126317"><ele>383.25</ele><time>2026-04-05T11:54:58.971Z</time></trkpt><trkpt lat="44.8771646" lon="7.3127465"><ele>383.5</ele><time>2026-04-05T11:54:59.971Z</time></trkpt><trkpt lat="44.8772785" lon="7.3128493"><ele>383.75</ele><time>2026-04-05T11:55:00.971Z</time></trkpt><trkpt lat="44.8773937" lon="7.3129408"><ele>384.0</ele><time>2026-04-05T11:55:01.971Z</time></trkpt><trkpt lat="44.8775175" lon="7.3130083"><ele>384.0</ele><time>2026-04-05T11:55:02.971Z</time></trkpt><trkpt lat="44.8776569" lon="7.3130665"><ele>384.0</ele><time>2026-04-05T11:55:03.971Z</time></trkpt><trkpt lat="44.8777985" lon="7.3131204"><ele>384.0</ele><time>2026-04-05T11:55:04.971Z</time></trkpt><trkpt lat="44.8779487" lon="7.3131645"><ele>384.0</ele><time>2026-04-05T11:55:05.971Z</time></trkpt><trkpt lat="44.8780955" lon="7.3132124"><ele>384.0</ele><time>2026-04-05T11:55:06.971Z</time></trkpt><trkpt lat="44.8782479" lon="7.3132666"><ele>384.0</ele><time>2026-04-05T11:55:07.971Z</time></trkpt><trkpt lat="44.878401" lon="7.3133239"><ele>384.0</ele><time>2026-04-05T11:55:08.971Z</time></trkpt><trkpt lat="44.8785657" lon="7.3133797"><ele>384.33333333333337</ele><time>2026-04-05T11:55:09.971Z</time></trkpt><trkpt lat="44.8787205" lon="7.3134453"><ele>384.6666666666667</ele><time>2026-04-05T11:55:10.971Z</time></trkpt><trkpt lat="44.8788653" lon="7.3135203"><ele>385.0</ele><time>2026-04-05T11:55:11.971Z</time></trkpt><trkpt lat="44.8790063" lon="7.3136024"><ele>385.0</ele><time>2026-04-05T11:55:12.971Z</time></trkpt><trkpt lat="44.8791422" lon="7.3136946"><ele>385.0</ele><time>2026-04-05T11:55:13.971Z</time></trkpt><trkpt lat="44.879277" lon="7.3137953"><ele>385.0</ele><time>2026-04-05T11:55:14.971Z</time></trkpt><trkpt lat="44.8794054" lon="7.313898"><ele>385.0</ele><time>2026-04-05T11:55:15.971Z</time></trkpt><trkpt lat="44.8795326" lon="7.3139988"><ele>385.0</ele><time>2026-04-05T11:55:16.971Z</time></trkpt><trkpt lat="44.8796506" lon="7.3140892"><ele>385.0</ele><time>2026-04-05T11:55:17.971Z</time></trkpt><trkpt lat="44.8797653" lon="7.3141818"><ele>385.0</ele><time>2026-04-05T11:55:18.971Z</time></trkpt><trkpt lat="44.8798791" lon="7.3142696"><ele>385.0</ele><time>2026-04-05T11:55:19.971Z</time></trkpt><trkpt lat="44.8799826" lon="7.3143485"><ele>385.0</ele><time>2026-04-05T11:55:20.971Z</time></trkpt><trkpt lat="44.8800765" lon="7.3144084"><ele>385.0</ele><time>2026-04-05T11:55:21.971Z</time></trkpt><trkpt lat="44.8801566" lon="7.3144641"><ele>385.0</ele><time>2026-04-05T11:55:22.971Z</time></trkpt><trkpt lat="44.880224" lon="7.3145366"><ele>385.0</ele><time>2026-04-05T11:55:23.971Z</time></trkpt><trkpt lat="44.8802719" lon="7.3146286"><ele>385.0</ele><time>2026-04-05T11:55:24.971Z</time></trkpt><trkpt lat="44.8803037" lon="7.3147414"><ele>385.0</ele><time>2026-04-05T11:55:25.971Z</time></trkpt><trkpt lat="44.8803484" lon="7.3148508"><ele>385.0</ele><time>2026-04-05T11:55:26.971Z</time></trkpt><trkpt lat="44.8804319" lon="7.3149332"><ele>385.0</ele><time>2026-04-05T11:55:27.971Z</time></trkpt><trkpt lat="44.8805447" lon="7.3150082"><ele>385.0</ele><time>2026-04-05T11:55:28.971Z</time></trkpt><trkpt lat="44.8806716" lon="7.3150979"><ele>385.0</ele><time>2026-04-05T11:55:29.971Z</time></trkpt><trkpt lat="44.8807957" lon="7.3151923"><ele>385.0</ele><time>2026-04-05T11:55:30.971Z</time></trkpt><trkpt lat="44.8809223" lon="7.315289"><ele>385.0</ele><time>2026-04-05T11:55:31.971Z</time></trkpt><trkpt lat="44.8810524" lon="7.3153801"><ele>385.0</ele><time>2026-04-05T11:55:32.971Z</time></trkpt><trkpt lat="44.8811819" lon="7.3154683"><ele>384.75</ele><time>2026-04-05T11:55:33.971Z</time></trkpt><trkpt lat="44.8813011" lon="7.3155546"><ele>384.5</ele><time>2026-04-05T11:55:34.971Z</time></trkpt><trkpt lat="44.8814115" lon="7.3156416"><ele>384.25</ele><time>2026-04-05T11:55:35.971Z</time></trkpt><trkpt lat="44.8815302" lon="7.3157353"><ele>384.0</ele><time>2026-04-05T11:55:36.971Z</time></trkpt><trkpt lat="44.8816439" lon="7.3158332"><ele>383.75</ele><time>2026-04-05T11:55:37.971Z</time></trkpt><trkpt lat="44.8817483" lon="7.3159298"><ele>383.5</ele><time>2026-04-05T11:55:38.971Z</time></trkpt><trkpt lat="44.8818497" lon="7.316023"><ele>383.25</ele><time>2026-04-05T11:55:39.971Z</time></trkpt><trkpt lat="44.8819464" lon="7.3161112"><ele>383.0</ele><time>2026-04-05T11:55:40.971Z</time></trkpt><trkpt lat="44.8820374" lon="7.3161975"><ele>382.79999999999995</ele><time>2026-04-05T11:55:41.971Z</time></trkpt><trkpt lat="44.8821184" lon="7.3162811"><ele>382.6</ele><time>2026-04-05T11:55:42.971Z</time></trkpt><trkpt lat="44.8821993" lon="7.3163606"><ele>382.4</ele><time>2026-04-05T11:55:43.971Z</time></trkpt><trkpt lat="44.8822679" lon="7.3164523"><ele>382.20000000000005</ele><time>2026-04-05T11:55:44.971Z</time></trkpt><trkpt lat="44.8823127" lon="7.316544"><ele>382.0</ele><time>2026-04-05T11:55:45.971Z</time></trkpt><trkpt lat="44.8823764" lon="7.3166162"><ele>382.0</ele><time>2026-04-05T11:55:46.971Z</time></trkpt><trkpt lat="44.8824659" lon="7.3166603"><ele>382.0</ele><time>2026-04-05T11:55:47.971Z</time></trkpt><trkpt lat="44.8825605" lon="7.3167107"><ele>382.0</ele><time>2026-04-05T11:55:48.971Z</time></trkpt><trkpt lat="44.8826746" lon="7.3167859"><ele>382.0</ele><time>2026-04-05T11:55:49.971Z</time></trkpt><trkpt lat="44.8827998" lon="7.3168875"><ele>382.3333333333333</ele><time>2026-04-05T11:55:50.971Z</time></trkpt><trkpt lat="44.8829145" lon="7.3169967"><ele>382.6666666666667</ele><time>2026-04-05T11:55:51.971Z</time></trkpt><trkpt lat="44.8830441" lon="7.3171242"><ele>383.0</ele><time>2026-04-05T11:55:52.971Z</time></trkpt><trkpt lat="44.8831854" lon="7.3172533"><ele>383.0</ele><time>2026-04-05T11:55:53.971Z</time></trkpt><trkpt lat="44.8833332" lon="7.3173872"><ele>383.0</ele><time>2026-04-05T11:55:54.971Z</time></trkpt><trkpt lat="44.883465" lon="7.31751"><ele>383.0</ele><time>2026-04-05T11:55:55.971Z</time></trkpt><trkpt lat="44.8835865" lon="7.3176293"><ele>383.0</ele><time>2026-04-05T11:55:56.971Z</time></trkpt><trkpt lat="44.8837074" lon="7.3177395"><ele>383.0</ele><time>2026-04-05T11:55:57.971Z</time></trkpt><trkpt lat="44.8838184" lon="7.3178459"><ele>383.0</ele><time>2026-04-05T11:55:58.971Z</time></trkpt><trkpt lat="44.8839258" lon="7.3179452"><ele>383.0</ele><time>2026-04-05T11:55:59.971Z</time></trkpt><trkpt lat="44.8840352" lon="7.3180448"><ele>382.79999999999995</ele><time>2026-04-05T11:56:00.971Z</time></trkpt><trkpt lat="44.8841355" lon="7.3181402"><ele>382.6</ele><time>2026-04-05T11:56:01.971Z</time></trkpt><trkpt lat="44.8842243" lon="7.3182292"><ele>382.4</ele><time>2026-04-05T11:56:02.971Z</time></trkpt><trkpt lat="44.8843122" lon="7.3183088"><ele>382.20000000000005</ele><time>2026-04-05T11:56:03.971Z</time></trkpt><trkpt lat="44.8844082" lon="7.3183927"><ele>382.0</ele><time>2026-04-05T11:56:04.971Z</time></trkpt><trkpt lat="44.8845158" lon="7.3184885"><ele>382.5</ele><time>2026-04-05T11:56:05.971Z</time></trkpt><trkpt lat="44.8846436" lon="7.3185579"><ele>383.0</ele><time>2026-04-05T11:56:06.971Z</time></trkpt><trkpt lat="44.8847598" lon="7.3185939"><ele>383.5</ele><time>2026-04-05T11:56:07.971Z</time></trkpt><trkpt lat="44.8848711" lon="7.3186187"><ele>384.0</ele><time>2026-04-05T11:56:08.971Z</time></trkpt><trkpt lat="44.8849771" lon="7.3186336"><ele>384.0</ele><time>2026-04-05T11:56:09.971Z</time></trkpt><trkpt lat="44.8850761" lon="7.318647"><ele>384.0</ele><time>2026-04-05T11:56:10.971Z</time></trkpt><trkpt lat="44.8851581" lon="7.3186516"><ele>384.0</ele><time>2026-04-05T11:56:11.971Z</time></trkpt><trkpt lat="44.885232" lon="7.3186432"><ele>384.0</ele><time>2026-04-05T11:56:12.971Z</time></trkpt><trkpt lat="44.8852986" lon="7.3186382"><ele>384.0</ele><time>2026-04-05T11:56:13.971Z</time></trkpt><trkpt lat="44.8853944" lon="7.3186418"><ele>384.0</ele><time>2026-04-05T11:56:15.971Z</time></trkpt><trkpt lat="44.8854684" lon="7.3186335"><ele>384.2</ele><time>2026-04-05T11:56:57.971Z</time></trkpt><trkpt lat="44.8855377" lon="7.3187335"><ele>384.4</ele><time>2026-04-05T11:57:00.971Z</time></trkpt><trkpt lat="44.8855427" lon="7.3188242"><ele>384.6</ele><time>2026-04-05T11:57:01.971Z</time></trkpt><trkpt lat="44.8855449" lon="7.3190193"><ele>384.8</ele><time>2026-04-05T11:57:03.971Z</time></trkpt><trkpt lat="44.8855443" lon="7.3191335"><ele>385.0</ele><time>2026-04-05T11:57:04.971Z</time></trkpt><trkpt lat="44.8855458" lon="7.3192327"><ele>385.6</ele><time>2026-04-05T11:57:05.971Z</time></trkpt><trkpt lat="44.8855456" lon="7.3194025"><ele>386.2</ele><time>2026-04-05T11:57:07.971Z</time></trkpt><trkpt lat="44.8855434" lon="7.319544"><ele>386.79999999999995</ele><time>2026-04-05T11:57:09.971Z</time></trkpt><trkpt lat="44.8855418" lon="7.319633"><ele>387.4</ele><time>2026-04-05T11:57:11.971Z</time></trkpt><trkpt lat="44.8855407" lon="7.3197494"><ele>388.0</ele><time>2026-04-05T11:57:36.971Z</time></trkpt><trkpt lat="44.8855366" lon="7.3198946"><ele>388.2</ele><time>2026-04-05T11:57:38.971Z</time></trkpt><trkpt lat="44.8855334" lon="7.3199949"><ele>388.4</ele><time>2026-04-05T11:57:39.971Z</time></trkpt><trkpt lat="44.885533" lon="7.3201176"><ele>388.59999999999997</ele><time>2026-04-05T11:57:40.971Z</time></trkpt><trkpt lat="44.8855291" lon="7.3202656"><ele>388.79999999999995</ele><time>2026-04-05T11:57:41.971Z</time></trkpt><trkpt lat="44.8855256" lon="7.320414"><ele>389.0</ele><time>2026-04-05T11:57:42.971Z</time></trkpt><trkpt lat="44.885523" lon="7.3205468"><ele>388.49999999999994</ele><time>2026-04-05T11:57:43.971Z</time></trkpt><trkpt lat="44.8855222" lon="7.3206642"><ele>388.0</ele><time>2026-04-05T11:57:44.971Z</time></trkpt><trkpt lat="44.8855238" lon="7.320763"><ele>387.5</ele><time>2026-04-05T11:57:45.971Z</time></trkpt><trkpt lat="44.8856003" lon="7.320885"><ele>387.0</ele><time>2026-04-05T11:57:47.971Z</time></trkpt><trkpt lat="44.8856761" lon="7.320892"><ele>386.49999999999994</ele><time>2026-04-05T11:57:48.971Z</time></trkpt><trkpt lat="44.8857649" lon="7.3208696"><ele>386.0</ele><time>2026-04-05T11:57:49.971Z</time></trkpt><trkpt lat="44.8858769" lon="7.3208432"><ele>387.0</ele><time>2026-04-05T11:57:50.972Z</time></trkpt><trkpt lat="44.8859895" lon="7.3208137"><ele>388.0</ele><time>2026-04-05T11:57:51.971Z</time></trkpt><trkpt lat="44.8860829" lon="7.3207873"><ele>389.0</ele><time>2026-04-05T11:57:52.971Z</time></trkpt><trkpt lat="44.8861586" lon="7.3207722"><ele>390.0</ele><time>2026-04-05T11:57:53.971Z</time></trkpt><trkpt lat="44.8862339" lon="7.320746"><ele>391.0</ele><time>2026-04-05T11:57:54.971Z</time></trkpt><trkpt lat="44.8863164" lon="7.320674"><ele>391.0</ele><time>2026-04-05T11:57:55.971Z</time></trkpt><trkpt lat="44.8863983" lon="7.3205672"><ele>391.0</ele><time>2026-04-05T11:57:56.971Z</time></trkpt><trkpt lat="44.8864917" lon="7.320437"><ele>391.0</ele><time>2026-04-05T11:57:57.971Z</time></trkpt><trkpt lat="44.8866032" lon="7.320289"><ele>391.0</ele><time>2026-04-05T11:57:58.971Z</time></trkpt><trkpt lat="44.8867122" lon="7.3201427"><ele>390.6666666666667</ele><time>2026-04-05T11:57:59.971Z</time></trkpt><trkpt lat="44.8868253" lon="7.3199784"><ele>390.33333333333337</ele><time>2026-04-05T11:58:00.971Z</time></trkpt><trkpt lat="44.886944" lon="7.3198076"><ele>390.0</ele><time>2026-04-05T11:58:01.971Z</time></trkpt><trkpt lat="44.8870647" lon="7.3196544"><ele>390.0</ele><time>2026-04-05T11:58:02.971Z</time></trkpt><trkpt lat="44.8871839" lon="7.3195031"><ele>390.0</ele><time>2026-04-05T11:58:03.971Z</time></trkpt><trkpt lat="44.8873048" lon="7.319372"><ele>390.0</ele><time>2026-04-05T11:58:04.971Z</time></trkpt><trkpt lat="44.8874318" lon="7.3192646"><ele>390.0</ele><time>2026-04-05T11:58:05.971Z</time></trkpt><trkpt lat="44.8875756" lon="7.3191774"><ele>390.0</ele><time>2026-04-05T11:58:06.971Z</time></trkpt><trkpt lat="44.8877287" lon="7.3190888"><ele>390.0</ele><time>2026-04-05T11:58:07.971Z</time></trkpt><trkpt lat="44.8878892" lon="7.3189982"><ele>390.66666666666663</ele><time>2026-04-05T11:58:08.971Z</time></trkpt><trkpt lat="44.888046" lon="7.3189145"><ele>391.3333333333333</ele><time>2026-04-05T11:58:09.971Z</time></trkpt><trkpt lat="44.8881885" lon="7.3188389"><ele>392.0</ele><time>2026-04-05T11:58:10.971Z</time></trkpt><trkpt lat="44.8883233" lon="7.3187686"><ele>393.3333333333333</ele><time>2026-04-05T11:58:11.971Z</time></trkpt><trkpt lat="44.8884579" lon="7.3186923"><ele>394.66666666666663</ele><time>2026-04-05T11:58:12.971Z</time></trkpt><trkpt lat="44.8885987" lon="7.3186104"><ele>396.0</ele><time>2026-04-05T11:58:13.971Z</time></trkpt><trkpt lat="44.8887447" lon="7.3185285"><ele>396.0</ele><time>2026-04-05T11:58:14.971Z</time></trkpt><trkpt lat="44.8889043" lon="7.3184272"><ele>396.0</ele><time>2026-04-05T11:58:15.971Z</time></trkpt><trkpt lat="44.8890679" lon="7.318315"><ele>396.0</ele><time>2026-04-05T11:58:16.971Z</time></trkpt><trkpt lat="44.8892381" lon="7.3182007"><ele>396.33333333333337</ele><time>2026-04-05T11:58:17.971Z</time></trkpt><trkpt lat="44.8893985" lon="7.3180893"><ele>396.6666666666667</ele><time>2026-04-05T11:58:18.971Z</time></trkpt><trkpt lat="44.8895698" lon="7.3179756"><ele>397.0</ele><time>2026-04-05T11:58:19.971Z</time></trkpt><trkpt lat="44.8897351" lon="7.3178819"><ele>396.6666666666667</ele><time>2026-04-05T11:58:20.971Z</time></trkpt><trkpt lat="44.889902" lon="7.3178067"><ele>396.33333333333337</ele><time>2026-04-05T11:58:21.971Z</time></trkpt><trkpt lat="44.8900776" lon="7.3177506"><ele>396.0</ele><time>2026-04-05T11:58:22.971Z</time></trkpt><trkpt lat="44.8902596" lon="7.3177127"><ele>396.0</ele><time>2026-04-05T11:58:23.971Z</time></trkpt><trkpt lat="44.8904482" lon="7.3176918"><ele>396.0</ele><time>2026-04-05T11:58:24.971Z</time></trkpt><trkpt lat="44.8906319" lon="7.3176828"><ele>396.0</ele><time>2026-04-05T11:58:25.971Z</time></trkpt><trkpt lat="44.8908205" lon="7.3176798"><ele>396.66666666666663</ele><time>2026-04-05T11:58:26.971Z</time></trkpt><trkpt lat="44.8910103" lon="7.3176807"><ele>397.3333333333333</ele><time>2026-04-05T11:58:27.971Z</time></trkpt><trkpt lat="44.8912077" lon="7.3176688"><ele>398.0</ele><time>2026-04-05T11:58:28.971Z</time></trkpt><trkpt lat="44.891405" lon="7.3176509"><ele>398.0</ele><time>2026-04-05T11:58:29.971Z</time></trkpt><trkpt lat="44.8916093" lon="7.3176297"><ele>398.0</ele><time>2026-04-05T11:58:30.971Z</time></trkpt><trkpt lat="44.8918146" lon="7.3176103"><ele>398.0</ele><time>2026-04-05T11:58:31.971Z</time></trkpt><trkpt lat="44.8920233" lon="7.3175791"><ele>399.3333333333333</ele><time>2026-04-05T11:58:32.971Z</time></trkpt><trkpt lat="44.8922363" lon="7.3175533"><ele>400.66666666666663</ele><time>2026-04-05T11:58:33.971Z</time></trkpt><trkpt lat="44.8924509" lon="7.3175282"><ele>402.0</ele><time>2026-04-05T11:58:34.971Z</time></trkpt><trkpt lat="44.8926682" lon="7.3174995"><ele>402.0</ele><time>2026-04-05T11:58:35.971Z</time></trkpt><trkpt lat="44.8928871" lon="7.317472"><ele>402.0</ele><time>2026-04-05T11:58:36.971Z</time></trkpt><trkpt lat="44.8931096" lon="7.3174461"><ele>402.0</ele><time>2026-04-05T11:58:37.971Z</time></trkpt><trkpt lat="44.8933315" lon="7.3174151"><ele>402.66666666666663</ele><time>2026-04-05T11:58:38.971Z</time></trkpt><trkpt lat="44.8935378" lon="7.3173877"><ele>403.3333333333333</ele><time>2026-04-05T11:58:39.971Z</time></trkpt><trkpt lat="44.8937449" lon="7.3173584"><ele>404.0</ele><time>2026-04-05T11:58:40.971Z</time></trkpt><trkpt lat="44.893959" lon="7.3173285"><ele>404.0</ele><time>2026-04-05T11:58:41.971Z</time></trkpt><trkpt lat="44.8941758" lon="7.3173009"><ele>404.0</ele><time>2026-04-05T11:58:42.971Z</time></trkpt><trkpt lat="44.894392" lon="7.3172737"><ele>404.0</ele><time>2026-04-05T11:58:43.971Z</time></trkpt><trkpt lat="44.8946097" lon="7.3172442"><ele>404.3333333333333</ele><time>2026-04-05T11:58:44.972Z</time></trkpt><trkpt lat="44.8948238" lon="7.3172164"><ele>404.66666666666663</ele><time>2026-04-05T11:58:45.971Z</time></trkpt><trkpt lat="44.8950336" lon="7.3171916"><ele>405.0</ele><time>2026-04-05T11:58:46.971Z</time></trkpt><trkpt lat="44.8952466" lon="7.3171617"><ele>405.0</ele><time>2026-04-05T11:58:47.971Z</time></trkpt><trkpt lat="44.8954589" lon="7.3171343"><ele>405.0</ele><time>2026-04-05T11:58:48.971Z</time></trkpt><trkpt lat="44.8956782" lon="7.3171061"><ele>405.0</ele><time>2026-04-05T11:58:49.971Z</time></trkpt><trkpt lat="44.8958997" lon="7.3170805"><ele>406.33333333333337</ele><time>2026-04-05T11:58:50.971Z</time></trkpt><trkpt lat="44.8961194" lon="7.3170529"><ele>407.6666666666667</ele><time>2026-04-05T11:58:51.971Z</time></trkpt><trkpt lat="44.8963439" lon="7.3170225"><ele>409.0</ele><time>2026-04-05T11:58:52.971Z</time></trkpt><trkpt lat="44.896568" lon="7.3169926"><ele>410.5</ele><time>2026-04-05T11:58:53.971Z</time></trkpt><trkpt lat="44.896797" lon="7.3169621"><ele>412.0</ele><time>2026-04-05T11:58:54.971Z</time></trkpt><trkpt lat="44.8970238" lon="7.3169262"><ele>412.0</ele><time>2026-04-05T11:58:55.971Z</time></trkpt><trkpt lat="44.8972375" lon="7.3168931"><ele>412.0</ele><time>2026-04-05T11:58:56.971Z</time></trkpt><trkpt lat="44.8974462" lon="7.3168571"><ele>412.0</ele><time>2026-04-05T11:58:57.971Z</time></trkpt><trkpt lat="44.8976553" lon="7.3168192"><ele>413.33333333333337</ele><time>2026-04-05T11:58:58.971Z</time></trkpt><trkpt lat="44.8978735" lon="7.3167754"><ele>414.66666666666663</ele><time>2026-04-05T11:58:59.971Z</time></trkpt><trkpt lat="44.8980961" lon="7.3167343"><ele>416.0</ele><time>2026-04-05T11:59:00.971Z</time></trkpt><trkpt lat="44.8983229" lon="7.3166918"><ele>417.5</ele><time>2026-04-05T11:59:01.971Z</time></trkpt><trkpt lat="44.8985521" lon="7.3166542"><ele>419.0</ele><time>2026-04-05T11:59:02.971Z</time></trkpt><trkpt lat="44.8987794" lon="7.3166211"><ele>419.0</ele><time>2026-04-05T11:59:03.971Z</time></trkpt><trkpt lat="44.8990036" lon="7.3165797"><ele>419.0</ele><time>2026-04-05T11:59:04.971Z</time></trkpt><trkpt lat="44.8992297" lon="7.3165336"><ele>419.3333333333333</ele><time>2026-04-05T11:59:05.971Z</time></trkpt><trkpt lat="44.8994547" lon="7.3164853"><ele>419.66666666666663</ele><time>2026-04-05T11:59:06.971Z</time></trkpt><trkpt lat="44.8996661" lon="7.3164365"><ele>420.0</ele><time>2026-04-05T11:59:07.971Z</time></trkpt><trkpt lat="44.8998755" lon="7.3163845"><ele>420.0</ele><time>2026-04-05T11:59:08.971Z</time></trkpt><trkpt lat="44.9000799" lon="7.3163276"><ele>420.0</ele><time>2026-04-05T11:59:09.971Z</time></trkpt><trkpt lat="44.9002905" lon="7.3162736"><ele>420.0</ele><time>2026-04-05T11:59:10.971Z</time></trkpt><trkpt lat="44.9004996" lon="7.3162151"><ele>420.66666666666663</ele><time>2026-04-05T11:59:11.971Z</time></trkpt><trkpt lat="44.9007143" lon="7.3161614"><ele>421.3333333333333</ele><time>2026-04-05T11:59:12.971Z</time></trkpt><trkpt lat="44.9009294" lon="7.3161042"><ele>422.0</ele><time>2026-04-05T11:59:13.971Z</time></trkpt><trkpt lat="44.9011474" lon="7.3160396"><ele>422.66666666666663</ele><time>2026-04-05T11:59:14.971Z</time></trkpt><trkpt lat="44.9013654" lon="7.3159785"><ele>423.33333333333337</ele><time>2026-04-05T11:59:15.971Z</time></trkpt><trkpt lat="44.9015858" lon="7.3159117"><ele>424.0</ele><time>2026-04-05T11:59:16.971Z</time></trkpt><trkpt lat="44.9018058" lon="7.3158478"><ele>426.5</ele><time>2026-04-05T11:59:17.971Z</time></trkpt><trkpt lat="44.9020261" lon="7.3157828"><ele>429.0</ele><time>2026-04-05T11:59:18.971Z</time></trkpt><trkpt lat="44.9022483" lon="7.3157178"><ele>429.0</ele><time>2026-04-05T11:59:19.971Z</time></trkpt><trkpt lat="44.9024678" lon="7.3156488"><ele>429.0</ele><time>2026-04-05T11:59:20.971Z</time></trkpt><trkpt lat="44.9026858" lon="7.3155799"><ele>429.0</ele><time>2026-04-05T11:59:21.971Z</time></trkpt><trkpt lat="44.9029046" lon="7.3155109"><ele>428.5</ele><time>2026-04-05T11:59:22.971Z</time></trkpt><trkpt lat="44.903127" lon="7.3154401"><ele>428.0</ele><time>2026-04-05T11:59:23.971Z</time></trkpt><trkpt lat="44.903345" lon="7.3153678"><ele>429.0</ele><time>2026-04-05T11:59:24.971Z</time></trkpt><trkpt lat="44.9035658" lon="7.3152972"><ele>430.0</ele><time>2026-04-05T11:59:25.971Z</time></trkpt><trkpt lat="44.9037824" lon="7.3152337"><ele>431.0</ele><time>2026-04-05T11:59:26.971Z</time></trkpt><trkpt lat="44.9040004" lon="7.3151698"><ele>431.0</ele><time>2026-04-05T11:59:27.971Z</time></trkpt><trkpt lat="44.9042128" lon="7.3151026"><ele>431.0</ele><time>2026-04-05T11:59:28.971Z</time></trkpt><trkpt lat="44.9044223" lon="7.3150373"><ele>431.0</ele><time>2026-04-05T11:59:29.971Z</time></trkpt><trkpt lat="44.9046326" lon="7.3149714"><ele>433.3333333333333</ele><time>2026-04-05T11:59:30.971Z</time></trkpt><trkpt lat="44.9048448" lon="7.3149066"><ele>435.66666666666663</ele><time>2026-04-05T11:59:31.971Z</time></trkpt><trkpt lat="44.9050513" lon="7.3148442"><ele>438.0</ele><time>2026-04-05T11:59:32.971Z</time></trkpt><trkpt lat="44.9052306" lon="7.3147887"><ele>437.66666666666663</ele><time>2026-04-05T11:59:33.971Z</time></trkpt><trkpt lat="44.9053988" lon="7.314736"><ele>437.3333333333333</ele><time>2026-04-05T11:59:34.971Z</time></trkpt><trkpt lat="44.9055546" lon="7.3146857"><ele>437.0</ele><time>2026-04-05T11:59:35.971Z</time></trkpt><trkpt lat="44.9057001" lon="7.3146452"><ele>437.0</ele><time>2026-04-05T11:59:36.971Z</time></trkpt><trkpt lat="44.9058357" lon="7.3146057"><ele>437.0</ele><time>2026-04-05T11:59:37.971Z</time></trkpt><trkpt lat="44.9059552" lon="7.3145699"><ele>437.0</ele><time>2026-04-05T11:59:38.971Z</time></trkpt><trkpt lat="44.9060637" lon="7.314541"><ele>437.0</ele><time>2026-04-05T11:59:39.971Z</time></trkpt><trkpt lat="44.9061671" lon="7.3145211"><ele>437.75</ele><time>2026-04-05T11:59:40.971Z</time></trkpt><trkpt lat="44.9062711" lon="7.3145154"><ele>438.5</ele><time>2026-04-05T11:59:41.971Z</time></trkpt><trkpt lat="44.906376" lon="7.3144852"><ele>439.25</ele><time>2026-04-05T11:59:42.971Z</time></trkpt><trkpt lat="44.9064774" lon="7.3144262"><ele>440.0</ele><time>2026-04-05T11:59:43.971Z</time></trkpt><trkpt lat="44.9066042" lon="7.3143694"><ele>440.0</ele><time>2026-04-05T11:59:44.971Z</time></trkpt><trkpt lat="44.9067416" lon="7.3143249"><ele>440.0</ele><time>2026-04-05T11:59:45.971Z</time></trkpt><trkpt lat="44.9068977" lon="7.3142824"><ele>440.0</ele><time>2026-04-05T11:59:46.971Z</time></trkpt><trkpt lat="44.9070664" lon="7.3142319"><ele>441.3333333333333</ele><time>2026-04-05T11:59:47.971Z</time></trkpt><trkpt lat="44.9072313" lon="7.3141674"><ele>442.66666666666663</ele><time>2026-04-05T11:59:48.971Z</time></trkpt><trkpt lat="44.9073877" lon="7.3140933"><ele>444.0</ele><time>2026-04-05T11:59:49.971Z</time></trkpt><trkpt lat="44.907532" lon="7.3139868"><ele>444.33333333333337</ele><time>2026-04-05T11:59:50.971Z</time></trkpt><trkpt lat="44.9076644" lon="7.3138348"><ele>444.6666666666667</ele><time>2026-04-05T11:59:51.971Z</time></trkpt><trkpt lat="44.9077865" lon="7.3136402"><ele>445.0</ele><time>2026-04-05T11:59:52.971Z</time></trkpt><trkpt lat="44.9079154" lon="7.3134365"><ele>445.0</ele><time>2026-04-05T11:59:53.972Z</time></trkpt><trkpt lat="44.9080404" lon="7.3132341"><ele>445.0</ele><time>2026-04-05T11:59:54.971Z</time></trkpt><trkpt lat="44.908182" lon="7.3130175"><ele>445.0</ele><time>2026-04-05T11:59:55.971Z</time></trkpt><trkpt lat="44.9083194" lon="7.3127911"><ele>446.6666666666667</ele><time>2026-04-05T11:59:56.971Z</time></trkpt><trkpt lat="44.9084575" lon="7.31257"><ele>448.33333333333337</ele><time>2026-04-05T11:59:57.971Z</time></trkpt><trkpt lat="44.9085896" lon="7.312362"><ele>450.0</ele><time>2026-04-05T11:59:58.971Z</time></trkpt><trkpt lat="44.9087182" lon="7.3121448"><ele>450.0</ele><time>2026-04-05T11:59:59.971Z</time></trkpt><trkpt lat="44.9088445" lon="7.3119312"><ele>450.0</ele><time>2026-04-05T12:00:00.971Z</time></trkpt><trkpt lat="44.908962" lon="7.3117355"><ele>450.0</ele><time>2026-04-05T12:00:01.971Z</time></trkpt><trkpt lat="44.9090789" lon="7.3115492"><ele>452.0</ele><time>2026-04-05T12:00:02.971Z</time></trkpt><trkpt lat="44.909182" lon="7.3113842"><ele>454.0</ele><time>2026-04-05T12:00:03.971Z</time></trkpt><trkpt lat="44.9092714" lon="7.3112341"><ele>456.0</ele><time>2026-04-05T12:00:04.971Z</time></trkpt><trkpt lat="44.9093657" lon="7.3110895"><ele>458.0</ele><time>2026-04-05T12:00:05.971Z</time></trkpt><trkpt lat="44.909466" lon="7.3109654"><ele>458.75</ele><time>2026-04-05T12:00:06.971Z</time></trkpt><trkpt lat="44.909567" lon="7.3108642"><ele>459.5</ele><time>2026-04-05T12:00:07.971Z</time></trkpt><trkpt lat="44.9096775" lon="7.3107845"><ele>460.25</ele><time>2026-04-05T12:00:08.971Z</time></trkpt><trkpt lat="44.9098008" lon="7.3107329"><ele>461.0</ele><time>2026-04-05T12:00:09.971Z</time></trkpt><trkpt lat="44.9099346" lon="7.3106964"><ele>461.0</ele><time>2026-04-05T12:00:10.971Z</time></trkpt><trkpt lat="44.9100671" lon="7.3106686"><ele>461.0</ele><time>2026-04-05T12:00:11.971Z</time></trkpt><trkpt lat="44.9102043" lon="7.31068"><ele>461.0</ele><time>2026-04-05T12:00:12.972Z</time></trkpt><trkpt lat="44.9103456" lon="7.3106918"><ele>461.0</ele><time>2026-04-05T12:00:13.971Z</time></trkpt><trkpt lat="44.9104958" lon="7.3106726"><ele>461.5</ele><time>2026-04-05T12:00:14.971Z</time></trkpt><trkpt lat="44.91065" lon="7.310632"><ele>462.0</ele><time>2026-04-05T12:00:15.971Z</time></trkpt><trkpt lat="44.9107848" lon="7.3105909"><ele>462.5</ele><time>2026-04-05T12:00:16.971Z</time></trkpt><trkpt lat="44.9109078" lon="7.310512"><ele>463.0</ele><time>2026-04-05T12:00:17.971Z</time></trkpt><trkpt lat="44.9110183" lon="7.3104049"><ele>464.6666666666667</ele><time>2026-04-05T12:00:18.971Z</time></trkpt><trkpt lat="44.9111266" lon="7.3102567"><ele>466.33333333333337</ele><time>2026-04-05T12:00:19.971Z</time></trkpt><trkpt lat="44.9112496" lon="7.3101188"><ele>468.0</ele><time>2026-04-05T12:00:20.971Z</time></trkpt><trkpt lat="44.9113935" lon="7.3100008"><ele>468.0</ele><time>2026-04-05T12:00:21.971Z</time></trkpt><trkpt lat="44.9115481" lon="7.3098841"><ele>468.0</ele><time>2026-04-05T12:00:22.971Z</time></trkpt><trkpt lat="44.9117137" lon="7.3097734"><ele>468.0</ele><time>2026-04-05T12:00:23.971Z</time></trkpt><trkpt lat="44.9118989" lon="7.30969"><ele>470.66666666666663</ele><time>2026-04-05T12:00:24.971Z</time></trkpt><trkpt lat="44.9120977" lon="7.309627"><ele>473.3333333333333</ele><time>2026-04-05T12:00:25.971Z</time></trkpt><trkpt lat="44.9123028" lon="7.3095708"><ele>476.0</ele><time>2026-04-05T12:00:26.971Z</time></trkpt><trkpt lat="44.9125092" lon="7.309517"><ele>477.3333333333333</ele><time>2026-04-05T12:00:27.971Z</time></trkpt><trkpt lat="44.9126999" lon="7.3094677"><ele>478.66666666666663</ele><time>2026-04-05T12:00:28.971Z</time></trkpt><trkpt lat="44.9128901" lon="7.3094076"><ele>480.0</ele><time>2026-04-05T12:00:29.971Z</time></trkpt><trkpt lat="44.9130757" lon="7.3093184"><ele>480.0</ele><time>2026-04-05T12:00:30.971Z</time></trkpt><trkpt lat="44.9132458" lon="7.3092188"><ele>480.0</ele><time>2026-04-05T12:00:31.971Z</time></trkpt><trkpt lat="44.9134038" lon="7.3091284"><ele>480.0</ele><time>2026-04-05T12:00:32.971Z</time></trkpt><trkpt lat="44.9135473" lon="7.3090623"><ele>480.0</ele><time>2026-04-05T12:00:33.971Z</time></trkpt><trkpt lat="44.9136861" lon="7.3090121"><ele>480.0</ele><time>2026-04-05T12:00:34.971Z</time></trkpt><trkpt lat="44.9138138" lon="7.3089801"><ele>480.0</ele><time>2026-04-05T12:00:35.971Z</time></trkpt><trkpt lat="44.9139289" lon="7.3089654"><ele>480.0</ele><time>2026-04-05T12:00:36.971Z</time></trkpt><trkpt lat="44.9140352" lon="7.3089489"><ele>480.0</ele><time>2026-04-05T12:00:37.971Z</time></trkpt><trkpt lat="44.9141221" lon="7.3089316"><ele>480.0</ele><time>2026-04-05T12:00:38.971Z</time></trkpt><trkpt lat="44.9141899" lon="7.3089266"><ele>480.0</ele><time>2026-04-05T12:00:39.971Z</time></trkpt><trkpt lat="44.914274" lon="7.308972"><ele>480.0</ele><time>2026-04-05T12:00:41.971Z</time></trkpt><trkpt lat="44.9143148" lon="7.309157"><ele>480.0</ele><time>2026-04-05T12:00:43.971Z</time></trkpt><trkpt lat="44.9143508" lon="7.3092959"><ele>480.0</ele><time>2026-04-05T12:00:44.971Z</time></trkpt><trkpt lat="44.9143946" lon="7.3094279"><ele>480.0</ele><time>2026-04-05T12:00:45.971Z</time></trkpt><trkpt lat="44.9144376" lon="7.3095562"><ele>480.0</ele><time>2026-04-05T12:00:46.971Z</time></trkpt><trkpt lat="44.9144885" lon="7.3096884"><ele>480.0</ele><time>2026-04-05T12:00:47.971Z</time></trkpt><trkpt lat="44.9145355" lon="7.3098257"><ele>480.0</ele><time>2026-04-05T12:00:48.971Z</time></trkpt><trkpt lat="44.9145838" lon="7.309956"><ele>479.6</ele><time>2026-04-05T12:00:49.971Z</time></trkpt><trkpt lat="44.9146299" lon="7.3100813"><ele>479.2</ele><time>2026-04-05T12:00:50.971Z</time></trkpt><trkpt lat="44.9146696" lon="7.3102129"><ele>478.79999999999995</ele><time>2026-04-05T12:00:51.971Z</time></trkpt><trkpt lat="44.9146933" lon="7.3103485"><ele>478.4</ele><time>2026-04-05T12:00:52.971Z</time></trkpt><trkpt lat="44.9147055" lon="7.3104802"><ele>478.0</ele><time>2026-04-05T12:00:53.971Z</time></trkpt><trkpt lat="44.9147121" lon="7.3106079"><ele>478.00000000000006</ele><time>2026-04-05T12:00:54.971Z</time></trkpt><trkpt lat="44.9147169" lon="7.310726"><ele>478.0</ele><time>2026-04-05T12:00:55.971Z</time></trkpt><trkpt lat="44.914736" lon="7.3108295"><ele>478.0</ele><time>2026-04-05T12:00:56.971Z</time></trkpt><trkpt lat="44.9147734" lon="7.3109189"><ele>478.0</ele><time>2026-04-05T12:00:57.971Z</time></trkpt><trkpt lat="44.9148357" lon="7.3109779"><ele>478.00000000000006</ele><time>2026-04-05T12:00:58.971Z</time></trkpt><trkpt lat="44.9149184" lon="7.3110044"><ele>478.0</ele><time>2026-04-05T12:00:59.971Z</time></trkpt><trkpt lat="44.9150188" lon="7.310999"><ele>479.79999999999995</ele><time>2026-04-05T12:01:00.971Z</time></trkpt><trkpt lat="44.91512" lon="7.310987"><ele>481.59999999999997</ele><time>2026-04-05T12:01:01.971Z</time></trkpt><trkpt lat="44.9152153" lon="7.3109643"><ele>483.40000000000003</ele><time>2026-04-05T12:01:02.971Z</time></trkpt><trkpt lat="44.9153154" lon="7.3109323"><ele>485.20000000000005</ele><time>2026-04-05T12:01:03.971Z</time></trkpt><trkpt lat="44.9154216" lon="7.3108997"><ele>487.0</ele><time>2026-04-05T12:01:04.971Z</time></trkpt><trkpt lat="44.9155073" lon="7.3108706"><ele>487.0</ele><time>2026-04-05T12:01:05.971Z</time></trkpt><trkpt lat="44.9155797" lon="7.3108517"><ele>487.00000000000006</ele><time>2026-04-05T12:01:06.971Z</time></trkpt><trkpt lat="44.9156992" lon="7.3108576"><ele>487.00000000000006</ele><time>2026-04-05T12:01:08.971Z</time></trkpt><trkpt lat="44.9157907" lon="7.3109203"><ele>487.0</ele><time>2026-04-05T12:01:10.971Z</time></trkpt><trkpt lat="44.9157781" lon="7.3110372"><ele>487.0</ele><time>2026-04-05T12:01:12.971Z</time></trkpt><trkpt lat="44.9156943" lon="7.3111041"><ele>487.0</ele><time>2026-04-05T12:01:14.971Z</time></trkpt><trkpt lat="44.9157213" lon="7.311204"><ele>487.00000000000006</ele><time>2026-04-05T12:01:16.971Z</time></trkpt><trkpt lat="44.9158421" lon="7.3112164"><ele>487.00000000000006</ele><time>2026-04-05T12:01:18.971Z</time></trkpt><trkpt lat="44.9159262" lon="7.3112593"><ele>487.0</ele><time>2026-04-05T12:01:19.972Z</time></trkpt><trkpt lat="44.9160162" lon="7.3113391"><ele>487.0</ele><time>2026-04-05T12:01:20.971Z</time></trkpt><trkpt lat="44.9161146" lon="7.3114477"><ele>492.0</ele><time>2026-04-05T12:01:21.971Z</time></trkpt><trkpt lat="44.9161973" lon="7.3115607"><ele>497.0</ele><time>2026-04-05T12:01:22.971Z</time></trkpt><trkpt lat="44.9163041" lon="7.3116817"><ele>502.0</ele><time>2026-04-05T12:01:23.971Z</time></trkpt><trkpt lat="44.916415" lon="7.3117807"><ele>507.0</ele><time>2026-04-05T12:01:24.971Z</time></trkpt><trkpt lat="44.9165118" lon="7.3118636"><ele>507.0</ele><time>2026-04-05T12:01:25.971Z</time></trkpt><trkpt lat="44.9165821" lon="7.3119737"><ele>507.0</ele><time>2026-04-05T12:01:26.971Z</time></trkpt><trkpt lat="44.9166465" lon="7.3121159"><ele>507.0</ele><time>2026-04-05T12:01:27.971Z</time></trkpt><trkpt lat="44.9167078" lon="7.312265"><ele>507.0</ele><time>2026-04-05T12:01:28.971Z</time></trkpt><trkpt lat="44.9167819" lon="7.3124009"><ele>510.0</ele><time>2026-04-05T12:01:29.971Z</time></trkpt><trkpt lat="44.9168497" lon="7.3125307"><ele>513.0</ele><time>2026-04-05T12:01:30.971Z</time></trkpt><trkpt lat="44.9169183" lon="7.3126447"><ele>516.0</ele><time>2026-04-05T12:01:31.971Z</time></trkpt><trkpt lat="44.9169776" lon="7.3127535"><ele>519.0</ele><time>2026-04-05T12:01:32.971Z</time></trkpt><trkpt lat="44.9170254" lon="7.3128779"><ele>522.0</ele><time>2026-04-05T12:01:33.971Z</time></trkpt><trkpt lat="44.917046" lon="7.3130034"><ele>523.2</ele><time>2026-04-05T12:01:34.971Z</time></trkpt><trkpt lat="44.9170399" lon="7.313134"><ele>524.4000000000001</ele><time>2026-04-05T12:01:35.971Z</time></trkpt><trkpt lat="44.9170091" lon="7.3132706"><ele>525.5999999999999</ele><time>2026-04-05T12:01:36.971Z</time></trkpt><trkpt lat="44.9169612" lon="7.3134124"><ele>526.8</ele><time>2026-04-05T12:01:37.971Z</time></trkpt><trkpt lat="44.9169196" lon="7.3135724"><ele>528.0</ele><time>2026-04-05T12:01:38.971Z</time></trkpt><trkpt lat="44.9168915" lon="7.31374"><ele>530.5</ele><time>2026-04-05T12:01:39.971Z</time></trkpt><trkpt lat="44.9168772" lon="7.3139147"><ele>533.0</ele><time>2026-04-05T12:01:40.971Z</time></trkpt><trkpt lat="44.9168653" lon="7.3140919"><ele>535.5</ele><time>2026-04-05T12:01:41.971Z</time></trkpt><trkpt lat="44.9168464" lon="7.3142489"><ele>538.0</ele><time>2026-04-05T12:01:42.971Z</time></trkpt><trkpt lat="44.9168072" lon="7.314398"><ele>538.0</ele><time>2026-04-05T12:01:43.971Z</time></trkpt><trkpt lat="44.9167456" lon="7.3145412"><ele>538.0</ele><time>2026-04-05T12:01:44.971Z</time></trkpt><trkpt lat="44.9166761" lon="7.3146828"><ele>538.0</ele><time>2026-04-05T12:01:45.971Z</time></trkpt><trkpt lat="44.9166119" lon="7.3148237"><ele>538.0</ele><time>2026-04-05T12:01:46.971Z</time></trkpt><trkpt lat="44.9165732" lon="7.3149863"><ele>538.25</ele><time>2026-04-05T12:01:47.971Z</time></trkpt><trkpt lat="44.9165495" lon="7.3151677"><ele>538.5</ele><time>2026-04-05T12:01:48.971Z</time></trkpt><trkpt lat="44.9165198" lon="7.3153661"><ele>538.75</ele><time>2026-04-05T12:01:49.971Z</time></trkpt><trkpt lat="44.9164773" lon="7.3155721"><ele>539.0</ele><time>2026-04-05T12:01:50.971Z</time></trkpt><trkpt lat="44.9164225" lon="7.315768"><ele>541.25</ele><time>2026-04-05T12:01:51.971Z</time></trkpt><trkpt lat="44.9163639" lon="7.3159467"><ele>543.5</ele><time>2026-04-05T12:01:52.971Z</time></trkpt><trkpt lat="44.9163149" lon="7.3161116"><ele>545.75</ele><time>2026-04-05T12:01:53.971Z</time></trkpt><trkpt lat="44.9162743" lon="7.3162586"><ele>548.0</ele><time>2026-04-05T12:01:54.971Z</time></trkpt><trkpt lat="44.9162438" lon="7.3163992"><ele>548.5</ele><time>2026-04-05T12:01:55.971Z</time></trkpt><trkpt lat="44.916235" lon="7.3165525"><ele>549.0</ele><time>2026-04-05T12:01:56.971Z</time></trkpt><trkpt lat="44.9162317" lon="7.3166751"><ele>549.5</ele><time>2026-04-05T12:01:57.971Z</time></trkpt><trkpt lat="44.9162328" lon="7.3167719"><ele>550.0</ele><time>2026-04-05T12:01:58.971Z</time></trkpt><trkpt lat="44.9162388" lon="7.3169265"><ele>550.5</ele><time>2026-04-05T12:02:00.971Z</time></trkpt><trkpt lat="44.9162528" lon="7.3170179"><ele>551.0</ele><time>2026-04-05T12:02:04.971Z</time></trkpt><trkpt lat="44.9163049" lon="7.3170732"><ele>551.0</ele><time>2026-04-05T12:02:07.971Z</time></trkpt><trkpt lat="44.916386" lon="7.3170071"><ele>551.0</ele><time>2026-04-05T12:02:09.971Z</time></trkpt><trkpt lat="44.9164534" lon="7.3169496"><ele>551.0</ele><time>2026-04-05T12:02:10.971Z</time></trkpt><trkpt lat="44.9165276" lon="7.31688"><ele>551.0</ele><time>2026-04-05T12:02:11.971Z</time></trkpt><trkpt lat="44.9166285" lon="7.3167803"><ele>551.0</ele><time>2026-04-05T12:02:12.971Z</time></trkpt><trkpt lat="44.9167451" lon="7.3166785"><ele>553.0</ele><time>2026-04-05T12:02:13.971Z</time></trkpt><trkpt lat="44.9168798" lon="7.3165613"><ele>555.0</ele><time>2026-04-05T12:02:14.971Z</time></trkpt><trkpt lat="44.9170242" lon="7.31644"><ele>557.0</ele><time>2026-04-05T12:02:15.971Z</time></trkpt><trkpt lat="44.9171776" lon="7.3163144"><ele>557.0</ele><time>2026-04-05T12:02:16.971Z</time></trkpt><trkpt lat="44.9173205" lon="7.3161982"><ele>557.0</ele><time>2026-04-05T12:02:17.971Z</time></trkpt><trkpt lat="44.9174549" lon="7.3160909"><ele>557.0</ele><time>2026-04-05T12:02:18.971Z</time></trkpt><trkpt lat="44.9175743" lon="7.3159971"><ele>558.0</ele><time>2026-04-05T12:02:19.971Z</time></trkpt><trkpt lat="44.9176917" lon="7.3159114"><ele>559.0</ele><time>2026-04-05T12:02:20.971Z</time></trkpt><trkpt lat="44.9177971" lon="7.3158151"><ele>560.0</ele><time>2026-04-05T12:02:21.971Z</time></trkpt><trkpt lat="44.917897" lon="7.3157168"><ele>561.0</ele><time>2026-04-05T12:02:22.971Z</time></trkpt><trkpt lat="44.9179885" lon="7.3156296"><ele>559.6</ele><time>2026-04-05T12:02:23.971Z</time></trkpt><trkpt lat="44.9180756" lon="7.3155612"><ele>558.2</ele><time>2026-04-05T12:02:24.971Z</time></trkpt><trkpt lat="44.9181683" lon="7.3155092"><ele>556.8</ele><time>2026-04-05T12:02:25.971Z</time></trkpt><trkpt lat="44.9182671" lon="7.3154641"><ele>555.4</ele><time>2026-04-05T12:02:26.971Z</time></trkpt><trkpt lat="44.9183564" lon="7.3153996"><ele>554.0</ele><time>2026-04-05T12:02:27.971Z</time></trkpt><trkpt lat="44.9184391" lon="7.3153317"><ele>557.6</ele><time>2026-04-05T12:02:28.971Z</time></trkpt><trkpt lat="44.9185127" lon="7.3152444"><ele>561.2</ele><time>2026-04-05T12:02:29.971Z</time></trkpt><trkpt lat="44.9185847" lon="7.3151249"><ele>564.8000000000001</ele><time>2026-04-05T12:02:30.971Z</time></trkpt><trkpt lat="44.9186447" lon="7.3150162"><ele>568.4</ele><time>2026-04-05T12:02:31.971Z</time></trkpt><trkpt lat="44.9187184" lon="7.3149086"><ele>572.0</ele><time>2026-04-05T12:02:32.971Z</time></trkpt><trkpt lat="44.9187877" lon="7.3148153"><ele>571.0</ele><time>2026-04-05T12:02:33.971Z</time></trkpt><trkpt lat="44.9188546" lon="7.3147377"><ele>570.0</ele><time>2026-04-05T12:02:34.971Z</time></trkpt><trkpt lat="44.9189269" lon="7.3146557"><ele>569.0</ele><time>2026-04-05T12:02:35.971Z</time></trkpt><trkpt lat="44.9190029" lon="7.3145723"><ele>568.0</ele><time>2026-04-05T12:02:36.971Z</time></trkpt><trkpt lat="44.9190909" lon="7.3144941"><ele>567.0</ele><time>2026-04-05T12:02:37.971Z</time></trkpt><trkpt lat="44.9191905" lon="7.3144089"><ele>570.5</ele><time>2026-04-05T12:02:38.971Z</time></trkpt><trkpt lat="44.9192972" lon="7.3143103"><ele>574.0</ele><time>2026-04-05T12:02:39.971Z</time></trkpt><trkpt lat="44.9194202" lon="7.3142158"><ele>577.5</ele><time>2026-04-05T12:02:40.971Z</time></trkpt><trkpt lat="44.9195335" lon="7.3141264"><ele>581.0</ele><time>2026-04-05T12:02:41.971Z</time></trkpt><trkpt lat="44.9196453" lon="7.3140305"><ele>581.0</ele><time>2026-04-05T12:02:42.971Z</time></trkpt><trkpt lat="44.9197608" lon="7.3139173"><ele>581.0</ele><time>2026-04-05T12:02:43.971Z</time></trkpt><trkpt lat="44.9198553" lon="7.3138177"><ele>581.0</ele><time>2026-04-05T12:02:44.971Z</time></trkpt><trkpt lat="44.9199324" lon="7.3137234"><ele>581.0</ele><time>2026-04-05T12:02:45.971Z</time></trkpt><trkpt lat="44.9200116" lon="7.3136458"><ele>582.8333333333333</ele><time>2026-04-05T12:02:46.971Z</time></trkpt><trkpt lat="44.9200901" lon="7.3136032"><ele>584.6666666666666</ele><time>2026-04-05T12:02:47.971Z</time></trkpt><trkpt lat="44.9201691" lon="7.3135663"><ele>586.5</ele><time>2026-04-05T12:02:48.971Z</time></trkpt><trkpt lat="44.9202443" lon="7.3135146"><ele>588.3333333333334</ele><time>2026-04-05T12:02:49.971Z</time></trkpt><trkpt lat="44.9203148" lon="7.3134337"><ele>590.1666666666667</ele><time>2026-04-05T12:02:50.971Z</time></trkpt><trkpt lat="44.92039" lon="7.3133353"><ele>592.0</ele><time>2026-04-05T12:02:51.971Z</time></trkpt><trkpt lat="44.9204605" lon="7.3132442"><ele>592.0</ele><time>2026-04-05T12:02:52.971Z</time></trkpt><trkpt lat="44.9205285" lon="7.3131727"><ele>592.0</ele><time>2026-04-05T12:02:53.971Z</time></trkpt><trkpt lat="44.9205983" lon="7.3131072"><ele>592.0</ele><time>2026-04-05T12:02:54.971Z</time></trkpt><trkpt lat="44.920671" lon="7.3130556"><ele>592.0</ele><time>2026-04-05T12:02:55.971Z</time></trkpt><trkpt lat="44.9207553" lon="7.3130209"><ele>592.0</ele><time>2026-04-05T12:02:56.971Z</time></trkpt><trkpt lat="44.9208434" lon="7.3130215"><ele>592.0</ele><time>2026-04-05T12:02:57.971Z</time></trkpt><trkpt lat="44.9209343" lon="7.3130535"><ele>592.1666666666667</ele><time>2026-04-05T12:02:58.971Z</time></trkpt><trkpt lat="44.9210147" lon="7.3130944"><ele>592.3333333333334</ele><time>2026-04-05T12:02:59.971Z</time></trkpt><trkpt lat="44.9210929" lon="7.3131333"><ele>592.5</ele><time>2026-04-05T12:03:00.971Z</time></trkpt><trkpt lat="44.9211781" lon="7.3131514"><ele>592.6666666666666</ele><time>2026-04-05T12:03:01.971Z</time></trkpt><trkpt lat="44.9212572" lon="7.3131618"><ele>592.8333333333333</ele><time>2026-04-05T12:03:02.971Z</time></trkpt><trkpt lat="44.9213383" lon="7.3131208"><ele>593.0</ele><time>2026-04-05T12:03:03.971Z</time></trkpt><trkpt lat="44.9214154" lon="7.3130787"><ele>594.6</ele><time>2026-04-05T12:03:04.971Z</time></trkpt><trkpt lat="44.9214849" lon="7.3129999"><ele>596.1999999999999</ele><time>2026-04-05T12:03:05.971Z</time></trkpt><trkpt lat="44.9215538" lon="7.3128959"><ele>597.8</ele><time>2026-04-05T12:03:06.971Z</time></trkpt><trkpt lat="44.9216409" lon="7.3127952"><ele>599.4</ele><time>2026-04-05T12:03:07.971Z</time></trkpt><trkpt lat="44.9217146" lon="7.3127061"><ele>601.0</ele><time>2026-04-05T12:03:08.971Z</time></trkpt><trkpt lat="44.9217884" lon="7.3126173"><ele>603.2</ele><time>2026-04-05T12:03:09.971Z</time></trkpt><trkpt lat="44.9218637" lon="7.3125269"><ele>605.4000000000001</ele><time>2026-04-05T12:03:10.971Z</time></trkpt><trkpt lat="44.9219324" lon="7.3124472"><ele>607.6</ele><time>2026-04-05T12:03:11.971Z</time></trkpt><trkpt lat="44.9219947" lon="7.3123771"><ele>609.8000000000001</ele><time>2026-04-05T12:03:12.971Z</time></trkpt><trkpt lat="44.9220495" lon="7.3123093"><ele>612.0</ele><time>2026-04-05T12:03:13.971Z</time></trkpt><trkpt lat="44.9221061" lon="7.3121609"><ele>612.5714285714286</ele><time>2026-04-05T12:03:15.971Z</time></trkpt><trkpt lat="44.9221065" lon="7.3120711"><ele>613.1428571428571</ele><time>2026-04-05T12:03:16.971Z</time></trkpt><trkpt lat="44.9221101" lon="7.3119686"><ele>613.7142857142858</ele><time>2026-04-05T12:03:17.971Z</time></trkpt><trkpt lat="44.9221194" lon="7.3118603"><ele>614.2857142857142</ele><time>2026-04-05T12:03:18.972Z</time></trkpt><trkpt lat="44.9221356" lon="7.3117491"><ele>614.8571428571429</ele><time>2026-04-05T12:03:19.971Z</time></trkpt><trkpt lat="44.9221622" lon="7.3116456"><ele>615.4285714285714</ele><time>2026-04-05T12:03:20.971Z</time></trkpt><trkpt lat="44.9222036" lon="7.3115588"><ele>616.0</ele><time>2026-04-05T12:03:21.971Z</time></trkpt><trkpt lat="44.9222516" lon="7.3114793"><ele>616.0</ele><time>2026-04-05T12:03:22.971Z</time></trkpt><trkpt lat="44.9223074" lon="7.3114141"><ele>616.0</ele><time>2026-04-05T12:03:23.971Z</time></trkpt><trkpt lat="44.922374" lon="7.3113625"><ele>616.0</ele><time>2026-04-05T12:03:24.971Z</time></trkpt><trkpt lat="44.9224374" lon="7.3113091"><ele>616.0</ele><time>2026-04-05T12:03:25.971Z</time></trkpt><trkpt lat="44.9224959" lon="7.3112556"><ele>616.0</ele><time>2026-04-05T12:03:26.971Z</time></trkpt><trkpt lat="44.9225474" lon="7.3111897"><ele>616.0</ele><time>2026-04-05T12:03:27.971Z</time></trkpt><trkpt lat="44.9225826" lon="7.3111025"><ele>616.0</ele><time>2026-04-05T12:03:28.971Z</time></trkpt><trkpt lat="44.9226005" lon="7.3110006"><ele>620.1666666666667</ele><time>2026-04-05T12:03:29.971Z</time></trkpt><trkpt lat="44.9226141" lon="7.3108859"><ele>624.3333333333334</ele><time>2026-04-05T12:03:30.971Z</time></trkpt><trkpt lat="44.9226267" lon="7.3107651"><ele>628.5</ele><time>2026-04-05T12:03:31.971Z</time></trkpt><trkpt lat="44.9226343" lon="7.3106378"><ele>632.6666666666666</ele><time>2026-04-05T12:03:32.971Z</time></trkpt><trkpt lat="44.9226394" lon="7.3105295"><ele>636.8333333333333</ele><time>2026-04-05T12:03:33.971Z</time></trkpt><trkpt lat="44.9226515" lon="7.3104305"><ele>641.0</ele><time>2026-04-05T12:03:34.971Z</time></trkpt><trkpt lat="44.9226874" lon="7.3102575"><ele>641.0</ele><time>2026-04-05T12:03:36.971Z</time></trkpt><trkpt lat="44.9227218" lon="7.3101715"><ele>641.0</ele><time>2026-04-05T12:03:37.971Z</time></trkpt><trkpt lat="44.9227689" lon="7.3100893"><ele>641.0</ele><time>2026-04-05T12:03:38.971Z</time></trkpt><trkpt lat="44.9228071" lon="7.3099893"><ele>641.0</ele><time>2026-04-05T12:03:39.971Z</time></trkpt><trkpt lat="44.9228523" lon="7.3098751"><ele>641.0</ele><time>2026-04-05T12:03:40.971Z</time></trkpt><trkpt lat="44.9228813" lon="7.3097636"><ele>641.0</ele><time>2026-04-05T12:03:41.971Z</time></trkpt><trkpt lat="44.9229113" lon="7.3096367"><ele>641.0</ele><time>2026-04-05T12:03:42.971Z</time></trkpt><trkpt lat="44.9229325" lon="7.3095217"><ele>641.0</ele><time>2026-04-05T12:03:43.971Z</time></trkpt><trkpt lat="44.9229482" lon="7.3094176"><ele>641.0</ele><time>2026-04-05T12:03:44.971Z</time></trkpt><trkpt lat="44.9229684" lon="7.3093065"><ele>641.0</ele><time>2026-04-05T12:03:45.971Z</time></trkpt><trkpt lat="44.923003" lon="7.3091867"><ele>641.0</ele><time>2026-04-05T12:03:46.971Z</time></trkpt><trkpt lat="44.9230449" lon="7.3090612"><ele>641.0</ele><time>2026-04-05T12:03:47.971Z</time></trkpt><trkpt lat="44.9230881" lon="7.3089293"><ele>640.4</ele><time>2026-04-05T12:03:48.971Z</time></trkpt><trkpt lat="44.9231269" lon="7.3088017"><ele>639.8</ele><time>2026-04-05T12:03:49.971Z</time></trkpt><trkpt lat="44.9231741" lon="7.3086552"><ele>639.1999999999999</ele><time>2026-04-05T12:03:50.971Z</time></trkpt><trkpt lat="44.9232329" lon="7.3085192"><ele>638.5999999999999</ele><time>2026-04-05T12:03:51.971Z</time></trkpt><trkpt lat="44.9232864" lon="7.3084024"><ele>638.0</ele><time>2026-04-05T12:03:52.971Z</time></trkpt><trkpt lat="44.9233404" lon="7.3082689"><ele>638.0</ele><time>2026-04-05T12:03:53.971Z</time></trkpt><trkpt lat="44.9233901" lon="7.3081334"><ele>638.0</ele><time>2026-04-05T12:03:54.971Z</time></trkpt><trkpt lat="44.923436" lon="7.3079979"><ele>638.0</ele><time>2026-04-05T12:03:55.971Z</time></trkpt><trkpt lat="44.9234865" lon="7.3078589"><ele>638.0</ele><time>2026-04-05T12:03:56.971Z</time></trkpt><trkpt lat="44.9235453" lon="7.3077303"><ele>638.0</ele><time>2026-04-05T12:03:57.971Z</time></trkpt><trkpt lat="44.9235996" lon="7.3075953"><ele>639.4</ele><time>2026-04-05T12:03:58.971Z</time></trkpt><trkpt lat="44.9236554" lon="7.3074689"><ele>640.8</ele><time>2026-04-05T12:03:59.971Z</time></trkpt><trkpt lat="44.923709" lon="7.3073545"><ele>642.2</ele><time>2026-04-05T12:04:00.972Z</time></trkpt><trkpt lat="44.9237763" lon="7.3072433"><ele>643.6</ele><time>2026-04-05T12:04:01.971Z</time></trkpt><trkpt lat="44.923845" lon="7.3071374"><ele>645.0</ele><time>2026-04-05T12:04:02.971Z</time></trkpt><trkpt lat="44.9239169" lon="7.3070462"><ele>645.0</ele><time>2026-04-05T12:04:03.971Z</time></trkpt><trkpt lat="44.9239656" lon="7.3069778"><ele>645.0</ele><time>2026-04-05T12:04:04.972Z</time></trkpt><trkpt lat="44.924034" lon="7.3068895"><ele>645.0</ele><time>2026-04-05T12:04:06.971Z</time></trkpt><trkpt lat="44.9241118" lon="7.3068414"><ele>645.0</ele><time>2026-04-05T12:04:08.971Z</time></trkpt><trkpt lat="44.924198" lon="7.3067846"><ele>645.0</ele><time>2026-04-05T12:04:10.971Z</time></trkpt><trkpt lat="44.9242681" lon="7.3067331"><ele>645.0</ele><time>2026-04-05T12:04:11.971Z</time></trkpt><trkpt lat="44.924341" lon="7.3066744"><ele>645.1666666666666</ele><time>2026-04-05T12:04:12.971Z</time></trkpt><trkpt lat="44.9244255" lon="7.3065995"><ele>645.3333333333334</ele><time>2026-04-05T12:04:13.971Z</time></trkpt><trkpt lat="44.9244986" lon="7.306543"><ele>645.5</ele><time>2026-04-05T12:04:14.971Z</time></trkpt><trkpt lat="44.9245662" lon="7.3064806"><ele>645.6666666666667</ele><time>2026-04-05T12:04:15.971Z</time></trkpt><trkpt lat="44.9246248" lon="7.3063997"><ele>645.8333333333334</ele><time>2026-04-05T12:04:16.971Z</time></trkpt><trkpt lat="44.9246931" lon="7.306331"><ele>646.0</ele><time>2026-04-05T12:04:17.971Z</time></trkpt><trkpt lat="44.9247645" lon="7.3062725"><ele>646.0</ele><time>2026-04-05T12:04:18.971Z</time></trkpt><trkpt lat="44.9248351" lon="7.3062007"><ele>646.0</ele><time>2026-04-05T12:04:19.971Z</time></trkpt><trkpt lat="44.9249058" lon="7.3061108"><ele>646.0</ele><time>2026-04-05T12:04:20.971Z</time></trkpt><trkpt lat="44.9249769" lon="7.3060092"><ele>646.0</ele><time>2026-04-05T12:04:21.971Z</time></trkpt><trkpt lat="44.9250425" lon="7.3059217"><ele>646.0</ele><time>2026-04-05T12:04:22.971Z</time></trkpt><trkpt lat="44.9251228" lon="7.3058299"><ele>648.0</ele><time>2026-04-05T12:04:23.971Z</time></trkpt><trkpt lat="44.9251927" lon="7.3057572"><ele>650.0</ele><time>2026-04-05T12:04:24.971Z</time></trkpt><trkpt lat="44.9252603" lon="7.3056763"><ele>652.0</ele><time>2026-04-05T12:04:25.971Z</time></trkpt><trkpt lat="44.9253209" lon="7.3055661"><ele>654.0</ele><time>2026-04-05T12:04:26.971Z</time></trkpt><trkpt lat="44.9253825" lon="7.3054663"><ele>656.0</ele><time>2026-04-05T12:04:27.971Z</time></trkpt><trkpt lat="44.925431" lon="7.3053719"><ele>656.0</ele><time>2026-04-05T12:04:28.971Z</time></trkpt><trkpt lat="44.9254872" lon="7.3052746"><ele>656.0</ele><time>2026-04-05T12:04:29.971Z</time></trkpt><trkpt lat="44.9255423" lon="7.3052011"><ele>656.0</ele><time>2026-04-05T12:04:30.971Z</time></trkpt><trkpt lat="44.9256028" lon="7.3051472"><ele>656.0</ele><time>2026-04-05T12:04:31.971Z</time></trkpt><trkpt lat="44.9256745" lon="7.3051092"><ele>656.0</ele><time>2026-04-05T12:04:32.971Z</time></trkpt><trkpt lat="44.9257569" lon="7.3050992"><ele>656.0</ele><time>2026-04-05T12:04:33.971Z</time></trkpt><trkpt lat="44.9258293" lon="7.3050651"><ele>656.0</ele><time>2026-04-05T12:04:34.971Z</time></trkpt><trkpt lat="44.9258936" lon="7.3049753"><ele>656.0</ele><time>2026-04-05T12:04:35.971Z</time></trkpt><trkpt lat="44.9259434" lon="7.3048891"><ele>656.0</ele><time>2026-04-05T12:04:36.971Z</time></trkpt><trkpt lat="44.9259823" lon="7.3047793"><ele>656.0</ele><time>2026-04-05T12:04:37.971Z</time></trkpt><trkpt lat="44.9259999" lon="7.3046513"><ele>656.0</ele><time>2026-04-05T12:04:38.971Z</time></trkpt><trkpt lat="44.92599" lon="7.304509"><ele>658.5</ele><time>2026-04-05T12:04:39.971Z</time></trkpt><trkpt lat="44.9259734" lon="7.3043735"><ele>661.0</ele><time>2026-04-05T12:04:40.971Z</time></trkpt><trkpt lat="44.9259603" lon="7.3042531"><ele>663.5</ele><time>2026-04-05T12:04:41.971Z</time></trkpt><trkpt lat="44.9259657" lon="7.3041502"><ele>666.0</ele><time>2026-04-05T12:04:42.971Z</time></trkpt><trkpt lat="44.9259897" lon="7.3040499"><ele>668.5</ele><time>2026-04-05T12:04:43.971Z</time></trkpt><trkpt lat="44.9260288" lon="7.3039573"><ele>671.0</ele><time>2026-04-05T12:04:44.971Z</time></trkpt><trkpt lat="44.9260783" lon="7.3038702"><ele>671.0</ele><time>2026-04-05T12:04:45.971Z</time></trkpt><trkpt lat="44.9261344" lon="7.3037701"><ele>671.0</ele><time>2026-04-05T12:04:46.971Z</time></trkpt><trkpt lat="44.9261975" lon="7.3036756"><ele>671.0</ele><time>2026-04-05T12:04:47.971Z</time></trkpt><trkpt lat="44.9262482" lon="7.3035758"><ele>671.0</ele><time>2026-04-05T12:04:48.971Z</time></trkpt><trkpt lat="44.9262922" lon="7.3034833"><ele>671.0</ele><time>2026-04-05T12:04:49.971Z</time></trkpt><trkpt lat="44.926334" lon="7.3034062"><ele>671.0</ele><time>2026-04-05T12:04:50.971Z</time></trkpt><trkpt lat="44.926392" lon="7.3033539"><ele>671.0</ele><time>2026-04-05T12:04:51.971Z</time></trkpt><trkpt lat="44.9264618" lon="7.3033295"><ele>671.0</ele><time>2026-04-05T12:04:52.971Z</time></trkpt><trkpt lat="44.9265275" lon="7.3033076"><ele>671.0</ele><time>2026-04-05T12:04:53.971Z</time></trkpt><trkpt lat="44.9266064" lon="7.3033015"><ele>671.0</ele><time>2026-04-05T12:04:54.971Z</time></trkpt><trkpt lat="44.9267246" lon="7.3033325"><ele>671.0</ele><time>2026-04-05T12:04:56.971Z</time></trkpt><trkpt lat="44.9267896" lon="7.3033749"><ele>671.0</ele><time>2026-04-05T12:04:57.971Z</time></trkpt><trkpt lat="44.9268529" lon="7.303434"><ele>670.7142857142857</ele><time>2026-04-05T12:04:58.971Z</time></trkpt><trkpt lat="44.9269045" lon="7.3035038"><ele>670.4285714285714</ele><time>2026-04-05T12:04:59.971Z</time></trkpt><trkpt lat="44.9269623" lon="7.3035709"><ele>670.1428571428571</ele><time>2026-04-05T12:05:00.971Z</time></trkpt><trkpt lat="44.9270138" lon="7.3036292"><ele>669.8571428571429</ele><time>2026-04-05T12:05:01.971Z</time></trkpt><trkpt lat="44.9270673" lon="7.3036843"><ele>669.5714285714286</ele><time>2026-04-05T12:05:02.971Z</time></trkpt><trkpt lat="44.9271294" lon="7.3037201"><ele>669.2857142857143</ele><time>2026-04-05T12:05:03.971Z</time></trkpt><trkpt lat="44.9272138" lon="7.303698"><ele>669.0</ele><time>2026-04-05T12:05:04.971Z</time></trkpt><trkpt lat="44.9272957" lon="7.3036732"><ele>669.0</ele><time>2026-04-05T12:05:05.971Z</time></trkpt><trkpt lat="44.9273799" lon="7.3036474"><ele>669.0</ele><time>2026-04-05T12:05:06.971Z</time></trkpt><trkpt lat="44.9274518" lon="7.3036218"><ele>669.0</ele><time>2026-04-05T12:05:07.971Z</time></trkpt><trkpt lat="44.9275274" lon="7.3035977"><ele>669.0</ele><time>2026-04-05T12:05:08.971Z</time></trkpt><trkpt lat="44.9276001" lon="7.3035707"><ele>669.0</ele><time>2026-04-05T12:05:09.971Z</time></trkpt><trkpt lat="44.9276797" lon="7.303557"><ele>669.0</ele><time>2026-04-05T12:05:10.971Z</time></trkpt><trkpt lat="44.9277652" lon="7.3035381"><ele>670.8333333333334</ele><time>2026-04-05T12:05:11.971Z</time></trkpt><trkpt lat="44.9278359" lon="7.3035256"><ele>672.6666666666666</ele><time>2026-04-05T12:05:12.971Z</time></trkpt><trkpt lat="44.9279104" lon="7.303517"><ele>674.5</ele><time>2026-04-05T12:05:13.971Z</time></trkpt><trkpt lat="44.9279942" lon="7.3034875"><ele>676.3333333333333</ele><time>2026-04-05T12:05:14.971Z</time></trkpt><trkpt lat="44.9280831" lon="7.3034794"><ele>678.1666666666666</ele><time>2026-04-05T12:05:15.971Z</time></trkpt><trkpt lat="44.9281735" lon="7.3034766"><ele>680.0</ele><time>2026-04-05T12:05:16.971Z</time></trkpt><trkpt lat="44.9282583" lon="7.3034424"><ele>680.0</ele><time>2026-04-05T12:05:17.972Z</time></trkpt><trkpt lat="44.9283307" lon="7.3034107"><ele>680.0</ele><time>2026-04-05T12:05:18.971Z</time></trkpt><trkpt lat="44.9283906" lon="7.3033728"><ele>680.0</ele><time>2026-04-05T12:05:19.971Z</time></trkpt><trkpt lat="44.9284725" lon="7.3033412"><ele>680.0</ele><time>2026-04-05T12:05:20.971Z</time></trkpt><trkpt lat="44.928593" lon="7.3032573"><ele>680.0</ele><time>2026-04-05T12:05:22.971Z</time></trkpt><trkpt lat="44.9286694" lon="7.3032198"><ele>680.0</ele><time>2026-04-05T12:05:23.971Z</time></trkpt><trkpt lat="44.9287478" lon="7.3031826"><ele>681.2</ele><time>2026-04-05T12:05:24.971Z</time></trkpt><trkpt lat="44.9288161" lon="7.3031304"><ele>682.4</ele><time>2026-04-05T12:05:25.971Z</time></trkpt><trkpt lat="44.9289002" lon="7.30306"><ele>683.5999999999999</ele><time>2026-04-05T12:05:27.971Z</time></trkpt><trkpt lat="44.9289858" lon="7.3030286"><ele>684.8</ele><time>2026-04-05T12:05:29.972Z</time></trkpt><trkpt lat="44.9290891" lon="7.3030107"><ele>686.0</ele><time>2026-04-05T12:05:31.971Z</time></trkpt><trkpt lat="44.92921" lon="7.3030574"><ele>685.0</ele><time>2026-04-05T12:05:33.971Z</time></trkpt><trkpt lat="44.9293245" lon="7.3031713"><ele>684.0</ele><time>2026-04-05T12:05:35.971Z</time></trkpt><trkpt lat="44.9293824" lon="7.3032127"><ele>683.0</ele><time>2026-04-05T12:05:36.971Z</time></trkpt><trkpt lat="44.9294429" lon="7.303238"><ele>682.0</ele><time>2026-04-05T12:05:37.971Z</time></trkpt><trkpt lat="44.9295228" lon="7.3032488"><ele>681.0</ele><time>2026-04-05T12:05:38.971Z</time></trkpt><trkpt lat="44.9295961" lon="7.3032495"><ele>680.0</ele><time>2026-04-05T12:05:39.971Z</time></trkpt><trkpt lat="44.929667" lon="7.303275"><ele>680.0</ele><time>2026-04-05T12:05:40.971Z</time></trkpt><trkpt lat="44.9297458" lon="7.3032911"><ele>680.0</ele><time>2026-04-05T12:05:41.971Z</time></trkpt><trkpt lat="44.9298179" lon="7.3033227"><ele>680.0</ele><time>2026-04-05T12:05:42.971Z</time></trkpt><trkpt lat="44.9298869" lon="7.3033506"><ele>680.0</ele><time>2026-04-05T12:05:43.971Z</time></trkpt><trkpt lat="44.9299462" lon="7.3033878"><ele>680.0</ele><time>2026-04-05T12:05:44.971Z</time></trkpt><trkpt lat="44.9300085" lon="7.3034191"><ele>680.0</ele><time>2026-04-05T12:05:45.971Z</time></trkpt><trkpt lat="44.9301147" lon="7.3034794"><ele>684.1666666666666</ele><time>2026-04-05T12:05:47.971Z</time></trkpt><trkpt lat="44.9301818" lon="7.3035266"><ele>688.3333333333333</ele><time>2026-04-05T12:05:49.971Z</time></trkpt><trkpt lat="44.9302529" lon="7.3035273"><ele>692.5</ele><time>2026-04-05T12:06:07.971Z</time></trkpt><trkpt lat="44.9303157" lon="7.3035845"><ele>696.6666666666666</ele><time>2026-04-05T12:06:09.971Z</time></trkpt><trkpt lat="44.9304008" lon="7.3036181"><ele>700.8333333333334</ele><time>2026-04-05T12:06:11.971Z</time></trkpt><trkpt lat="44.9304503" lon="7.3035459"><ele>705.0</ele><time>2026-04-05T12:06:13.971Z</time></trkpt><trkpt lat="44.9304469" lon="7.3033332"><ele>705.0</ele><time>2026-04-05T12:06:15.971Z</time></trkpt><trkpt lat="44.9304438" lon="7.303211"><ele>705.0</ele><time>2026-04-05T12:06:16.971Z</time></trkpt><trkpt lat="44.9304342" lon="7.3030927"><ele>705.0</ele><time>2026-04-05T12:06:17.971Z</time></trkpt><trkpt lat="44.9304159" lon="7.3029685"><ele>705.0</ele><time>2026-04-05T12:06:18.971Z</time></trkpt><trkpt lat="44.930395" lon="7.3028486"><ele>705.0</ele><time>2026-04-05T12:06:19.971Z</time></trkpt><trkpt lat="44.9303715" lon="7.3027168"><ele>705.0</ele><time>2026-04-05T12:06:20.971Z</time></trkpt><trkpt lat="44.9303623" lon="7.3026009"><ele>704.0</ele><time>2026-04-05T12:06:21.971Z</time></trkpt><trkpt lat="44.9303588" lon="7.3024919"><ele>703.0</ele><time>2026-04-05T12:06:22.971Z</time></trkpt><trkpt lat="44.9303443" lon="7.3023722"><ele>702.0</ele><time>2026-04-05T12:06:23.971Z</time></trkpt><trkpt lat="44.9303438" lon="7.302251"><ele>701.0</ele><time>2026-04-05T12:06:24.971Z</time></trkpt><trkpt lat="44.9303228" lon="7.3021338"><ele>700.0</ele><time>2026-04-05T12:06:25.971Z</time></trkpt><trkpt lat="44.9303133" lon="7.3020164"><ele>699.0</ele><time>2026-04-05T12:06:26.971Z</time></trkpt><trkpt lat="44.9302949" lon="7.3018966"><ele>699.0</ele><time>2026-04-05T12:06:27.971Z</time></trkpt><trkpt lat="44.9302949" lon="7.3017725"><ele>699.0</ele><time>2026-04-05T12:06:28.971Z</time></trkpt><trkpt lat="44.9303075" lon="7.3016528"><ele>699.0</ele><time>2026-04-05T12:06:29.971Z</time></trkpt><trkpt lat="44.9303296" lon="7.3015126"><ele>699.0</ele><time>2026-04-05T12:06:30.971Z</time></trkpt><trkpt lat="44.9303489" lon="7.3013791"><ele>699.0</ele><time>2026-04-05T12:06:31.971Z</time></trkpt><trkpt lat="44.9303625" lon="7.3012243"><ele>699.0</ele><time>2026-04-05T12:06:32.971Z</time></trkpt><trkpt lat="44.9303797" lon="7.3011056"><ele>699.0</ele><time>2026-04-05T12:06:33.971Z</time></trkpt><trkpt lat="44.9303838" lon="7.3009869"><ele>699.0</ele><time>2026-04-05T12:06:34.971Z</time></trkpt><trkpt lat="44.9303784" lon="7.30087"><ele>699.0</ele><time>2026-04-05T12:06:35.971Z</time></trkpt><trkpt lat="44.9303474" lon="7.300764"><ele>699.0</ele><time>2026-04-05T12:06:36.971Z</time></trkpt><trkpt lat="44.9302989" lon="7.3006678"><ele>699.0</ele><time>2026-04-05T12:06:37.971Z</time></trkpt><trkpt lat="44.9302467" lon="7.3005702"><ele>700.0</ele><time>2026-04-05T12:06:38.971Z</time></trkpt><trkpt lat="44.9301881" lon="7.3004947"><ele>701.0</ele><time>2026-04-05T12:06:39.971Z</time></trkpt><trkpt lat="44.9301134" lon="7.300376"><ele>702.0</ele><time>2026-04-05T12:06:40.971Z</time></trkpt><trkpt lat="44.9300712" lon="7.3003001"><ele>703.0</ele><time>2026-04-05T12:06:41.971Z</time></trkpt><trkpt lat="44.930039" lon="7.3001636"><ele>704.0</ele><time>2026-04-05T12:06:43.971Z</time></trkpt><trkpt lat="44.9300503" lon="7.3000057"><ele>703.1666666666666</ele><time>2026-04-05T12:06:45.971Z</time></trkpt><trkpt lat="44.9300437" lon="7.2999054"><ele>702.3333333333333</ele><time>2026-04-05T12:06:46.971Z</time></trkpt><trkpt lat="44.9300307" lon="7.2997835"><ele>701.5</ele><time>2026-04-05T12:06:47.971Z</time></trkpt><trkpt lat="44.9300179" lon="7.2996568"><ele>700.6666666666666</ele><time>2026-04-05T12:06:48.971Z</time></trkpt><trkpt lat="44.9300142" lon="7.299547"><ele>699.8333333333334</ele><time>2026-04-05T12:06:49.971Z</time></trkpt><trkpt lat="44.9300381" lon="7.2994599"><ele>699.0</ele><time>2026-04-05T12:06:50.971Z</time></trkpt><trkpt lat="44.930088" lon="7.2993668"><ele>699.0</ele><time>2026-04-05T12:06:51.971Z</time></trkpt><trkpt lat="44.9301414" lon="7.2992857"><ele>699.0</ele><time>2026-04-05T12:06:52.971Z</time></trkpt><trkpt lat="44.930225" lon="7.2992065"><ele>699.0</ele><time>2026-04-05T12:06:53.971Z</time></trkpt><trkpt lat="44.9303053" lon="7.2991276"><ele>699.0</ele><time>2026-04-05T12:06:54.971Z</time></trkpt><trkpt lat="44.9303979" lon="7.299035"><ele>699.0</ele><time>2026-04-05T12:06:55.971Z</time></trkpt><trkpt lat="44.930479" lon="7.29896"><ele>700.2</ele><time>2026-04-05T12:06:56.971Z</time></trkpt><trkpt lat="44.9305785" lon="7.2988706"><ele>701.4000000000001</ele><time>2026-04-05T12:06:57.971Z</time></trkpt><trkpt lat="44.9306804" lon="7.2987819"><ele>702.6</ele><time>2026-04-05T12:06:58.971Z</time></trkpt><trkpt lat="44.9307731" lon="7.2987009"><ele>703.8</ele><time>2026-04-05T12:06:59.971Z</time></trkpt><trkpt lat="44.9308522" lon="7.298611"><ele>705.0</ele><time>2026-04-05T12:07:00.971Z</time></trkpt><trkpt lat="44.9309205" lon="7.2985277"><ele>705.0</ele><time>2026-04-05T12:07:01.971Z</time></trkpt><trkpt lat="44.9309738" lon="7.2984514"><ele>705.0</ele><time>2026-04-05T12:07:02.971Z</time></trkpt><trkpt lat="44.9310153" lon="7.2983704"><ele>705.0</ele><time>2026-04-05T12:07:03.971Z</time></trkpt><trkpt lat="44.931037" lon="7.298271"><ele>705.0</ele><time>2026-04-05T12:07:05.971Z</time></trkpt><trkpt lat="44.9310875" lon="7.298135"><ele>705.0</ele><time>2026-04-05T12:07:18.971Z</time></trkpt><trkpt lat="44.9311603" lon="7.2979926"><ele>703.6666666666666</ele><time>2026-04-05T12:07:20.971Z</time></trkpt><trkpt lat="44.9312062" lon="7.29793"><ele>702.3333333333334</ele><time>2026-04-05T12:07:21.971Z</time></trkpt><trkpt lat="44.9312472" lon="7.2978571"><ele>701.0</ele><time>2026-04-05T12:07:22.971Z</time></trkpt><trkpt lat="44.931345" lon="7.297714"><ele>699.6666666666667</ele><time>2026-04-05T12:07:24.971Z</time></trkpt><trkpt lat="44.9314027" lon="7.2976506"><ele>698.3333333333334</ele><time>2026-04-05T12:07:25.971Z</time></trkpt><trkpt lat="44.9314741" lon="7.2975904"><ele>697.0</ele><time>2026-04-05T12:07:26.971Z</time></trkpt><trkpt lat="44.9315377" lon="7.2975363"><ele>697.0</ele><time>2026-04-05T12:07:27.971Z</time></trkpt><trkpt lat="44.9316048" lon="7.2974917"><ele>697.0</ele><time>2026-04-05T12:07:28.971Z</time></trkpt><trkpt lat="44.9317235" lon="7.2974403"><ele>697.0</ele><time>2026-04-05T12:07:30.971Z</time></trkpt><trkpt lat="44.9317928" lon="7.2974433"><ele>697.0</ele><time>2026-04-05T12:07:31.971Z</time></trkpt><trkpt lat="44.9318693" lon="7.2974341"><ele>697.0</ele><time>2026-04-05T12:07:32.971Z</time></trkpt><trkpt lat="44.9319378" lon="7.297484"><ele>697.0</ele><time>2026-04-05T12:07:33.971Z</time></trkpt><trkpt lat="44.9320263" lon="7.2974987"><ele>696.5</ele><time>2026-04-05T12:07:34.972Z</time></trkpt><trkpt lat="44.9320829" lon="7.2975428"><ele>696.0</ele><time>2026-04-05T12:07:35.971Z</time></trkpt><trkpt lat="44.9321196" lon="7.2976217"><ele>695.5</ele><time>2026-04-05T12:07:36.971Z</time></trkpt><trkpt lat="44.9321695" lon="7.2977361"><ele>695.0</ele><time>2026-04-05T12:07:37.971Z</time></trkpt><trkpt lat="44.9322271" lon="7.2978266"><ele>694.5</ele><time>2026-04-05T12:07:38.971Z</time></trkpt><trkpt lat="44.9322725" lon="7.2979238"><ele>694.0</ele><time>2026-04-05T12:07:39.971Z</time></trkpt><trkpt lat="44.932326" lon="7.2980043"><ele>694.0</ele><time>2026-04-05T12:07:40.971Z</time></trkpt><trkpt lat="44.9323795" lon="7.2980619"><ele>694.0</ele><time>2026-04-05T12:07:41.971Z</time></trkpt><trkpt lat="44.9324515" lon="7.2980924"><ele>694.0</ele><time>2026-04-05T12:07:42.971Z</time></trkpt><trkpt lat="44.9325985" lon="7.2981061"><ele>694.0</ele><time>2026-04-05T12:07:44.971Z</time></trkpt><trkpt lat="44.9326987" lon="7.2980998"><ele>694.0</ele><time>2026-04-05T12:07:45.971Z</time></trkpt><trkpt lat="44.9327831" lon="7.298096"><ele>694.5</ele><time>2026-04-05T12:07:46.971Z</time></trkpt><trkpt lat="44.9328753" lon="7.2980737"><ele>695.0</ele><time>2026-04-05T12:07:47.971Z</time></trkpt><trkpt lat="44.9329548" lon="7.2980278"><ele>695.5</ele><time>2026-04-05T12:07:48.971Z</time></trkpt><trkpt lat="44.9330191" lon="7.297976"><ele>696.0</ele><time>2026-04-05T12:07:49.971Z</time></trkpt><trkpt lat="44.9330984" lon="7.2978897"><ele>696.5</ele><time>2026-04-05T12:07:50.971Z</time></trkpt><trkpt lat="44.9331711" lon="7.2978155"><ele>697.0</ele><time>2026-04-05T12:07:51.971Z</time></trkpt><trkpt lat="44.9332454" lon="7.2977663"><ele>697.0</ele><time>2026-04-05T12:07:52.971Z</time></trkpt><trkpt lat="44.9333252" lon="7.2977324"><ele>697.0</ele><time>2026-04-05T12:07:53.971Z</time></trkpt><trkpt lat="44.9333888" lon="7.297698"><ele>697.0</ele><time>2026-04-05T12:07:54.971Z</time></trkpt><trkpt lat="44.9334831" lon="7.2976468"><ele>697.0</ele><time>2026-04-05T12:07:55.971Z</time></trkpt><trkpt lat="44.9335916" lon="7.2976148"><ele>697.0</ele><time>2026-04-05T12:07:56.971Z</time></trkpt><trkpt lat="44.9336747" lon="7.2975805"><ele>696.6666666666667</ele><time>2026-04-05T12:07:57.971Z</time></trkpt><trkpt lat="44.9337475" lon="7.2975803"><ele>696.3333333333334</ele><time>2026-04-05T12:07:58.971Z</time></trkpt><trkpt lat="44.9338305" lon="7.2975986"><ele>696.0</ele><time>2026-04-05T12:07:59.971Z</time></trkpt><trkpt lat="44.9339099" lon="7.2976228"><ele>695.6666666666666</ele><time>2026-04-05T12:08:00.971Z</time></trkpt><trkpt lat="44.9339836" lon="7.2976658"><ele>695.3333333333333</ele><time>2026-04-05T12:08:01.971Z</time></trkpt><trkpt lat="44.9340426" lon="7.2977221"><ele>695.0</ele><time>2026-04-05T12:08:02.971Z</time></trkpt><trkpt lat="44.9341107" lon="7.2977827"><ele>695.0</ele><time>2026-04-05T12:08:03.971Z</time></trkpt><trkpt lat="44.9341688" lon="7.2978516"><ele>695.0</ele><time>2026-04-05T12:08:04.971Z</time></trkpt><trkpt lat="44.9342073" lon="7.2980208"><ele>695.0</ele><time>2026-04-05T12:08:06.971Z</time></trkpt><trkpt lat="44.9342195" lon="7.298116"><ele>695.0</ele><time>2026-04-05T12:08:07.971Z</time></trkpt><trkpt lat="44.9342154" lon="7.2982149"><ele>695.0</ele><time>2026-04-05T12:08:08.971Z</time></trkpt><trkpt lat="44.9342181" lon="7.2983124"><ele>695.0</ele><time>2026-04-05T12:08:09.971Z</time></trkpt><trkpt lat="44.9342154" lon="7.2984309"><ele>697.1666666666666</ele><time>2026-04-05T12:08:10.971Z</time></trkpt><trkpt lat="44.9342133" lon="7.2985419"><ele>699.3333333333333</ele><time>2026-04-05T12:08:11.971Z</time></trkpt><trkpt lat="44.9342163" lon="7.2986512"><ele>701.5</ele><time>2026-04-05T12:08:12.971Z</time></trkpt><trkpt lat="44.9342146" lon="7.2987575"><ele>703.6666666666666</ele><time>2026-04-05T12:08:13.971Z</time></trkpt><trkpt lat="44.9342029" lon="7.298879"><ele>705.8333333333334</ele><time>2026-04-05T12:08:14.971Z</time></trkpt><trkpt lat="44.9341944" lon="7.2989999"><ele>708.0</ele><time>2026-04-05T12:08:15.971Z</time></trkpt><trkpt lat="44.9341963" lon="7.2991216"><ele>709.8333333333334</ele><time>2026-04-05T12:08:16.971Z</time></trkpt><trkpt lat="44.9341893" lon="7.2992436"><ele>711.6666666666666</ele><time>2026-04-05T12:08:17.971Z</time></trkpt><trkpt lat="44.9341677" lon="7.2993623"><ele>713.5</ele><time>2026-04-05T12:08:18.971Z</time></trkpt><trkpt lat="44.9341475" lon="7.2994515"><ele>715.3333333333333</ele><time>2026-04-05T12:08:19.971Z</time></trkpt><trkpt lat="44.9341452" lon="7.2995493"><ele>717.1666666666666</ele><time>2026-04-05T12:08:20.971Z</time></trkpt><trkpt lat="44.9341451" lon="7.2996675"><ele>719.0</ele><time>2026-04-05T12:08:21.971Z</time></trkpt><trkpt lat="44.9341469" lon="7.2997781"><ele>720.3333333333333</ele><time>2026-04-05T12:08:22.971Z</time></trkpt><trkpt lat="44.9341548" lon="7.2998805"><ele>721.6666666666666</ele><time>2026-04-05T12:08:23.971Z</time></trkpt><trkpt lat="44.9341585" lon="7.2999972"><ele>723.0</ele><time>2026-04-05T12:08:24.971Z</time></trkpt><trkpt lat="44.9341723" lon="7.300111"><ele>724.3333333333334</ele><time>2026-04-05T12:08:25.971Z</time></trkpt><trkpt lat="44.9341832" lon="7.3002194"><ele>725.6666666666667</ele><time>2026-04-05T12:08:26.971Z</time></trkpt><trkpt lat="44.9342022" lon="7.300321"><ele>727.0</ele><time>2026-04-05T12:08:27.971Z</time></trkpt><trkpt lat="44.9342213" lon="7.3004193"><ele>727.8</ele><time>2026-04-05T12:08:28.971Z</time></trkpt><trkpt lat="44.9342611" lon="7.3005053"><ele>728.6</ele><time>2026-04-05T12:08:29.971Z</time></trkpt><trkpt lat="44.9343182" lon="7.3005879"><ele>729.4</ele><time>2026-04-05T12:08:30.971Z</time></trkpt><trkpt lat="44.934426" lon="7.3006723"><ele>730.1999999999999</ele><time>2026-04-05T12:08:32.971Z</time></trkpt><trkpt lat="44.9345031" lon="7.3007752"><ele>731.0</ele><time>2026-04-05T12:08:34.971Z</time></trkpt><trkpt lat="44.9345203" lon="7.3009329"><ele>731.0</ele><time>2026-04-05T12:08:36.971Z</time></trkpt><trkpt lat="44.9345225" lon="7.3010459"><ele>731.0</ele><time>2026-04-05T12:08:37.971Z</time></trkpt><trkpt lat="44.9345055" lon="7.3012048"><ele>731.0</ele><time>2026-04-05T12:08:39.971Z</time></trkpt><trkpt lat="44.9344963" lon="7.3013864"><ele>731.0</ele><time>2026-04-05T12:08:41.971Z</time></trkpt><trkpt lat="44.9345129" lon="7.3015071"><ele>731.0</ele><time>2026-04-05T12:08:42.971Z</time></trkpt><trkpt lat="44.9345443" lon="7.3016088"><ele>733.4</ele><time>2026-04-05T12:08:43.971Z</time></trkpt><trkpt lat="44.9345649" lon="7.301706"><ele>735.8</ele><time>2026-04-05T12:08:44.971Z</time></trkpt><trkpt lat="44.934608" lon="7.3018712"><ele>738.1999999999999</ele><time>2026-04-05T12:08:46.971Z</time></trkpt><trkpt lat="44.9346608" lon="7.3019872"><ele>740.5999999999999</ele><time>2026-04-05T12:08:47.971Z</time></trkpt><trkpt lat="44.9346948" lon="7.3020878"><ele>743.0</ele><time>2026-04-05T12:08:48.971Z</time></trkpt><trkpt lat="44.9347557" lon="7.3022658"><ele>744.6666666666666</ele><time>2026-04-05T12:08:50.971Z</time></trkpt><trkpt lat="44.9348091" lon="7.3023374"><ele>746.3333333333333</ele><time>2026-04-05T12:08:51.971Z</time></trkpt><trkpt lat="44.9348519" lon="7.3024141"><ele>748.0</ele><time>2026-04-05T12:08:52.971Z</time></trkpt><trkpt lat="44.934906" lon="7.3024979"><ele>749.6666666666666</ele><time>2026-04-05T12:08:53.971Z</time></trkpt><trkpt lat="44.9349831" lon="7.3026568"><ele>751.3333333333334</ele><time>2026-04-05T12:08:55.971Z</time></trkpt><trkpt lat="44.9350086" lon="7.3027539"><ele>753.0</ele><time>2026-04-05T12:08:56.971Z</time></trkpt><trkpt lat="44.9350219" lon="7.3029407"><ele>753.0</ele><time>2026-04-05T12:08:58.971Z</time></trkpt><trkpt lat="44.9350365" lon="7.3030435"><ele>753.0</ele><time>2026-04-05T12:08:59.971Z</time></trkpt><trkpt lat="44.9350181" lon="7.3032067"><ele>753.0</ele><time>2026-04-05T12:09:01.971Z</time></trkpt><trkpt lat="44.9350069" lon="7.3033363"><ele>753.0</ele><time>2026-04-05T12:09:03.971Z</time></trkpt><trkpt lat="44.9350722" lon="7.303417"><ele>753.0</ele><time>2026-04-05T12:09:05.971Z</time></trkpt><trkpt lat="44.9351438" lon="7.303435"><ele>753.0</ele><time>2026-04-05T12:09:06.971Z</time></trkpt><trkpt lat="44.9352078" lon="7.3034296"><ele>756.2</ele><time>2026-04-05T12:09:07.971Z</time></trkpt><trkpt lat="44.9353122" lon="7.3033382"><ele>759.4</ele><time>2026-04-05T12:09:09.971Z</time></trkpt><trkpt lat="44.9353886" lon="7.3033028"><ele>762.6</ele><time>2026-04-05T12:09:11.971Z</time></trkpt><trkpt lat="44.9354759" lon="7.3033771"><ele>765.8000000000001</ele><time>2026-04-05T12:09:13.971Z</time></trkpt><trkpt lat="44.9355229" lon="7.3035319"><ele>769.0</ele><time>2026-04-05T12:09:15.971Z</time></trkpt><trkpt lat="44.9355579" lon="7.3036285"><ele>768.9999999999999</ele><time>2026-04-05T12:09:16.971Z</time></trkpt><trkpt lat="44.9356009" lon="7.3037074"><ele>769.0</ele><time>2026-04-05T12:09:17.971Z</time></trkpt><trkpt lat="44.9356546" lon="7.3037755"><ele>769.0</ele><time>2026-04-05T12:09:18.971Z</time></trkpt><trkpt lat="44.9357098" lon="7.3038717"><ele>769.0</ele><time>2026-04-05T12:09:20.971Z</time></trkpt><trkpt lat="44.9356572" lon="7.303952"><ele>768.9999999999999</ele><time>2026-04-05T12:09:22.971Z</time></trkpt><trkpt lat="44.9355639" lon="7.303987"><ele>769.0</ele><time>2026-04-05T12:09:24.971Z</time></trkpt><trkpt lat="44.9355066" lon="7.3040291"><ele>770.6666666666666</ele><time>2026-04-05T12:09:25.971Z</time></trkpt><trkpt lat="44.9354399" lon="7.3040747"><ele>772.3333333333333</ele><time>2026-04-05T12:09:26.971Z</time></trkpt><trkpt lat="44.9353823" lon="7.3041417"><ele>774.0</ele><time>2026-04-05T12:09:27.971Z</time></trkpt><trkpt lat="44.9353226" lon="7.3042206"><ele>775.6666666666667</ele><time>2026-04-05T12:09:28.972Z</time></trkpt><trkpt lat="44.935227" lon="7.3042733"><ele>777.3333333333334</ele><time>2026-04-05T12:09:29.971Z</time></trkpt><trkpt lat="44.9351691" lon="7.3043204"><ele>779.0</ele><time>2026-04-05T12:09:30.971Z</time></trkpt><trkpt lat="44.9351024" lon="7.3043588"><ele>779.0000000000001</ele><time>2026-04-05T12:09:31.971Z</time></trkpt><trkpt lat="44.9349643" lon="7.3043856"><ele>779.0</ele><time>2026-04-05T12:09:33.971Z</time></trkpt><trkpt lat="44.9348874" lon="7.3043972"><ele>779.0</ele><time>2026-04-05T12:09:34.971Z</time></trkpt><trkpt lat="44.9348155" lon="7.3043896"><ele>779.0</ele><time>2026-04-05T12:09:35.971Z</time></trkpt><trkpt lat="44.9347483" lon="7.3043704"><ele>779.0000000000001</ele><time>2026-04-05T12:09:36.971Z</time></trkpt><trkpt lat="44.9346837" lon="7.3043087"><ele>779.0</ele><time>2026-04-05T12:09:37.971Z</time></trkpt><trkpt lat="44.934603" lon="7.3042374"><ele>779.0000000000001</ele><time>2026-04-05T12:09:38.971Z</time></trkpt><trkpt lat="44.934523" lon="7.3041553"><ele>779.0</ele><time>2026-04-05T12:09:39.971Z</time></trkpt><trkpt lat="44.9344493" lon="7.3040925"><ele>779.0</ele><time>2026-04-05T12:09:40.971Z</time></trkpt><trkpt lat="44.9343774" lon="7.3040604"><ele>779.0</ele><time>2026-04-05T12:09:41.971Z</time></trkpt><trkpt lat="44.9343008" lon="7.3040284"><ele>779.0000000000001</ele><time>2026-04-05T12:09:42.971Z</time></trkpt><trkpt lat="44.9342124" lon="7.3040577"><ele>779.0</ele><time>2026-04-05T12:09:44.971Z</time></trkpt><trkpt lat="44.9341815" lon="7.3041577"><ele>779.0</ele><time>2026-04-05T12:09:46.971Z</time></trkpt><trkpt lat="44.9342735" lon="7.3042375"><ele>779.0</ele><time>2026-04-05T12:09:49.971Z</time></trkpt><trkpt lat="44.9343763" lon="7.304335"><ele>779.0</ele><time>2026-04-05T12:09:51.971Z</time></trkpt><trkpt lat="44.9344331" lon="7.3044353"><ele>779.0</ele><time>2026-04-05T12:09:53.971Z</time></trkpt><trkpt lat="44.9345064" lon="7.30457"><ele>779.0</ele><time>2026-04-05T12:09:55.971Z</time></trkpt><trkpt lat="44.9345738" lon="7.3046735"><ele>782.4000000000001</ele><time>2026-04-05T12:09:57.971Z</time></trkpt><trkpt lat="44.9346414" lon="7.3048022"><ele>785.8</ele><time>2026-04-05T12:09:59.971Z</time></trkpt><trkpt lat="44.9346789" lon="7.3048851"><ele>789.2</ele><time>2026-04-05T12:10:00.971Z</time></trkpt><trkpt lat="44.9347412" lon="7.3049952"><ele>792.5999999999999</ele><time>2026-04-05T12:10:02.971Z</time></trkpt><trkpt lat="44.9348127" lon="7.3050393"><ele>796.0</ele><time>2026-04-05T12:10:04.971Z</time></trkpt><trkpt lat="44.9349076" lon="7.3049959"><ele>795.9999999999999</ele><time>2026-04-05T12:10:06.971Z</time></trkpt><trkpt lat="44.934975" lon="7.3049871"><ele>796.0</ele><time>2026-04-05T12:10:08.971Z</time></trkpt><trkpt lat="44.9350467" lon="7.3049789"><ele>796.0</ele><time>2026-04-05T12:10:17.971Z</time></trkpt><trkpt lat="44.9351296" lon="7.3050466"><ele>796.0</ele><time>2026-04-05T12:10:20.971Z</time></trkpt><trkpt lat="44.9351846" lon="7.305108"><ele>795.9999999999999</ele><time>2026-04-05T12:10:21.971Z</time></trkpt><trkpt lat="44.9352852" lon="7.3052198"><ele>796.0</ele><time>2026-04-05T12:10:23.971Z</time></trkpt><trkpt lat="44.9353491" lon="7.3052755"><ele>795.9999999999999</ele><time>2026-04-05T12:10:24.971Z</time></trkpt><trkpt lat="44.9354086" lon="7.3053175"><ele>796.0</ele><time>2026-04-05T12:10:25.971Z</time></trkpt><trkpt lat="44.9354927" lon="7.305332"><ele>796.0</ele><time>2026-04-05T12:10:26.971Z</time></trkpt><trkpt lat="44.9355584" lon="7.3053589"><ele>796.0</ele><time>2026-04-05T12:10:27.971Z</time></trkpt><trkpt lat="44.9356219" lon="7.3053517"><ele>795.9999999999999</ele><time>2026-04-05T12:10:28.971Z</time></trkpt><trkpt lat="44.9356929" lon="7.3053598"><ele>796.0</ele><time>2026-04-05T12:10:29.971Z</time></trkpt><trkpt lat="44.9358117" lon="7.3053832"><ele>795.9999999999999</ele><time>2026-04-05T12:10:31.971Z</time></trkpt><trkpt lat="44.9358746" lon="7.3054186"><ele>796.0</ele><time>2026-04-05T12:10:32.971Z</time></trkpt><trkpt lat="44.9359341" lon="7.3054499"><ele>796.0</ele><time>2026-04-05T12:10:33.971Z</time></trkpt><trkpt lat="44.9360501" lon="7.3055044"><ele>796.0</ele><time>2026-04-05T12:10:35.971Z</time></trkpt><trkpt lat="44.9361227" lon="7.3055294"><ele>795.9999999999999</ele><time>2026-04-05T12:10:36.971Z</time></trkpt><trkpt lat="44.9361903" lon="7.3055427"><ele>796.0</ele><time>2026-04-05T12:10:37.971Z</time></trkpt><trkpt lat="44.9362882" lon="7.3055748"><ele>797.1999999999999</ele><time>2026-04-05T12:10:39.971Z</time></trkpt><trkpt lat="44.9363807" lon="7.3056117"><ele>798.4</ele><time>2026-04-05T12:10:41.971Z</time></trkpt><trkpt lat="44.9364987" lon="7.3056015"><ele>799.6</ele><time>2026-04-05T12:10:43.971Z</time></trkpt><trkpt lat="44.9365691" lon="7.3055707"><ele>800.8</ele><time>2026-04-05T12:10:44.971Z</time></trkpt><trkpt lat="44.9366793" lon="7.3055616"><ele>802.0</ele><time>2026-04-05T12:10:46.971Z</time></trkpt><trkpt lat="44.9367918" lon="7.3056084"><ele>806.6</ele><time>2026-04-05T12:10:48.971Z</time></trkpt><trkpt lat="44.936917" lon="7.30569"><ele>811.2</ele><time>2026-04-05T12:10:50.971Z</time></trkpt><trkpt lat="44.9370373" lon="7.3057254"><ele>815.8</ele><time>2026-04-05T12:10:52.971Z</time></trkpt><trkpt lat="44.9371173" lon="7.305725"><ele>820.4</ele><time>2026-04-05T12:10:53.971Z</time></trkpt><trkpt lat="44.937182" lon="7.3057179"><ele>825.0</ele><time>2026-04-05T12:10:54.971Z</time></trkpt><trkpt lat="44.9373074" lon="7.3057383"><ele>825.0</ele><time>2026-04-05T12:10:56.971Z</time></trkpt><trkpt lat="44.9374089" lon="7.3058139"><ele>825.0</ele><time>2026-04-05T12:10:58.971Z</time></trkpt><trkpt lat="44.9374928" lon="7.3058965"><ele>825.0</ele><time>2026-04-05T12:11:00.971Z</time></trkpt><trkpt lat="44.9375704" lon="7.3059737"><ele>825.0</ele><time>2026-04-05T12:11:02.971Z</time></trkpt><trkpt lat="44.9376242" lon="7.3060314"><ele>825.0</ele><time>2026-04-05T12:11:03.971Z</time></trkpt><trkpt lat="44.9376765" lon="7.3060952"><ele>825.0</ele><time>2026-04-05T12:11:04.971Z</time></trkpt><trkpt lat="44.9377573" lon="7.3062055"><ele>826.0</ele><time>2026-04-05T12:11:06.971Z</time></trkpt><trkpt lat="44.9378264" lon="7.3063205"><ele>827.0</ele><time>2026-04-05T12:11:08.971Z</time></trkpt><trkpt lat="44.9379123" lon="7.3062981"><ele>828.0</ele><time>2026-04-05T12:11:11.971Z</time></trkpt><trkpt lat="44.9379472" lon="7.3061862"><ele>829.0</ele><time>2026-04-05T12:11:13.971Z</time></trkpt><trkpt lat="44.9379493" lon="7.306044"><ele>830.0</ele><time>2026-04-05T12:11:15.971Z</time></trkpt><trkpt lat="44.937968" lon="7.3058955"><ele>830.0</ele><time>2026-04-05T12:11:18.971Z</time></trkpt><trkpt lat="44.937976" lon="7.3057869"><ele>830.0</ele><time>2026-04-05T12:11:20.971Z</time></trkpt><trkpt lat="44.9379859" lon="7.305675"><ele>830.0</ele><time>2026-04-05T12:11:22.971Z</time></trkpt><trkpt lat="44.9379982" lon="7.3055189"><ele>830.0</ele><time>2026-04-05T12:11:24.971Z</time></trkpt><trkpt lat="44.937996" lon="7.3053964"><ele>830.0</ele><time>2026-04-05T12:11:26.971Z</time></trkpt><trkpt lat="44.9379938" lon="7.3052534"><ele>829.4</ele><time>2026-04-05T12:11:28.971Z</time></trkpt><trkpt lat="44.9380147" lon="7.3051172"><ele>828.8</ele><time>2026-04-05T12:11:30.971Z</time></trkpt><trkpt lat="44.9380505" lon="7.3050144"><ele>828.2</ele><time>2026-04-05T12:11:32.971Z</time></trkpt><trkpt lat="44.9381245" lon="7.3049533"><ele>827.6</ele><time>2026-04-05T12:11:35.971Z</time></trkpt><trkpt lat="44.9382147" lon="7.3049377"><ele>827.0</ele><time>2026-04-05T12:11:37.971Z</time></trkpt><trkpt lat="44.9383114" lon="7.3048966"><ele>825.2</ele><time>2026-04-05T12:11:39.971Z</time></trkpt><trkpt lat="44.9384305" lon="7.304804"><ele>823.4000000000001</ele><time>2026-04-05T12:11:41.971Z</time></trkpt><trkpt lat="44.9385394" lon="7.3047005"><ele>821.5999999999999</ele><time>2026-04-05T12:11:43.971Z</time></trkpt><trkpt lat="44.9386048" lon="7.3046332"><ele>819.8</ele><time>2026-04-05T12:11:45.971Z</time></trkpt><trkpt lat="44.9386779" lon="7.3045615"><ele>818.0</ele><time>2026-04-05T12:11:47.971Z</time></trkpt><trkpt lat="44.9387828" lon="7.304476"><ele>818.0</ele><time>2026-04-05T12:11:49.971Z</time></trkpt><trkpt lat="44.9389037" lon="7.3043998"><ele>818.0</ele><time>2026-04-05T12:11:51.971Z</time></trkpt><trkpt lat="44.9390124" lon="7.304349"><ele>818.0</ele><time>2026-04-05T12:11:52.971Z</time></trkpt><trkpt lat="44.9390977" lon="7.3043014"><ele>818.0</ele><time>2026-04-05T12:11:53.971Z</time></trkpt><trkpt lat="44.9391684" lon="7.304268"><ele>818.0</ele><time>2026-04-05T12:11:54.971Z</time></trkpt><trkpt lat="44.9392376" lon="7.3042543"><ele>813.5000000000001</ele><time>2026-04-05T12:11:55.971Z</time></trkpt><trkpt lat="44.9393067" lon="7.3042447"><ele>809.0</ele><time>2026-04-05T12:11:56.971Z</time></trkpt><trkpt lat="44.9393728" lon="7.3042516"><ele>804.5</ele><time>2026-04-05T12:11:57.971Z</time></trkpt><trkpt lat="44.9394461" lon="7.3042122"><ele>800.0</ele><time>2026-04-05T12:11:59.971Z</time></trkpt><trkpt lat="44.9394962" lon="7.3041357"><ele>795.5000000000001</ele><time>2026-04-05T12:12:01.971Z</time></trkpt><trkpt lat="44.939548" lon="7.3039987"><ele>791.0</ele><time>2026-04-05T12:12:03.971Z</time></trkpt><trkpt lat="44.93955" lon="7.303835"><ele>791.0</ele><time>2026-04-05T12:12:05.971Z</time></trkpt><trkpt lat="44.9395425" lon="7.3036554"><ele>791.0</ele><time>2026-04-05T12:12:07.971Z</time></trkpt><trkpt lat="44.9395484" lon="7.303558"><ele>791.0</ele><time>2026-04-05T12:12:08.971Z</time></trkpt><trkpt lat="44.9395552" lon="7.3034421"><ele>791.0</ele><time>2026-04-05T12:12:09.971Z</time></trkpt><trkpt lat="44.9395714" lon="7.3033132"><ele>791.0</ele><time>2026-04-05T12:12:10.972Z</time></trkpt><trkpt lat="44.9395852" lon="7.3031867"><ele>791.0000000000001</ele><time>2026-04-05T12:12:11.971Z</time></trkpt><trkpt lat="44.9396037" lon="7.3030813"><ele>791.0</ele><time>2026-04-05T12:12:12.971Z</time></trkpt><trkpt lat="44.9396249" lon="7.3029689"><ele>791.0</ele><time>2026-04-05T12:12:13.971Z</time></trkpt><trkpt lat="44.939641" lon="7.3028507"><ele>791.0</ele><time>2026-04-05T12:12:14.971Z</time></trkpt><trkpt lat="44.9396733" lon="7.3027286"><ele>791.0000000000001</ele><time>2026-04-05T12:12:15.971Z</time></trkpt><trkpt lat="44.9396914" lon="7.3025957"><ele>791.0</ele><time>2026-04-05T12:12:16.971Z</time></trkpt><trkpt lat="44.9397144" lon="7.3024861"><ele>792.6666666666667</ele><time>2026-04-05T12:12:17.971Z</time></trkpt><trkpt lat="44.9397195" lon="7.3023835"><ele>794.3333333333334</ele><time>2026-04-05T12:12:18.971Z</time></trkpt><trkpt lat="44.9397253" lon="7.3022897"><ele>796.0</ele><time>2026-04-05T12:12:19.971Z</time></trkpt><trkpt lat="44.9397522" lon="7.3021196"><ele>797.6666666666667</ele><time>2026-04-05T12:12:21.971Z</time></trkpt><trkpt lat="44.939748" lon="7.3019894"><ele>799.3333333333334</ele><time>2026-04-05T12:12:23.971Z</time></trkpt><trkpt lat="44.9397692" lon="7.3018843"><ele>801.0</ele><time>2026-04-05T12:12:25.971Z</time></trkpt><trkpt lat="44.9397723" lon="7.3017789"><ele>802.5</ele><time>2026-04-05T12:12:45.971Z</time></trkpt><trkpt lat="44.9397401" lon="7.3016845"><ele>804.0</ele><time>2026-04-05T12:12:49.971Z</time></trkpt><trkpt lat="44.9396846" lon="7.3016044"><ele>805.5</ele><time>2026-04-05T12:12:52.971Z</time></trkpt><trkpt lat="44.9396248" lon="7.3015093"><ele>807.0</ele><time>2026-04-05T12:12:55.971Z</time></trkpt><trkpt lat="44.939573" lon="7.3014505"><ele>808.5</ele><time>2026-04-05T12:12:57.971Z</time></trkpt><trkpt lat="44.939527" lon="7.3013446"><ele>810.0</ele><time>2026-04-05T12:12:59.971Z</time></trkpt><trkpt lat="44.939534" lon="7.3012032"><ele>812.2</ele><time>2026-04-05T12:13:01.971Z</time></trkpt><trkpt lat="44.9395487" lon="7.3010583"><ele>814.4</ele><time>2026-04-05T12:13:03.971Z</time></trkpt><trkpt lat="44.9395277" lon="7.3009174"><ele>816.5999999999999</ele><time>2026-04-05T12:13:05.971Z</time></trkpt><trkpt lat="44.9395107" lon="7.3007354"><ele>818.8</ele><time>2026-04-05T12:13:07.971Z</time></trkpt><trkpt lat="44.9395105" lon="7.3006397"><ele>821.0</ele><time>2026-04-05T12:13:08.971Z</time></trkpt><trkpt lat="44.9394808" lon="7.3004751"><ele>821.75</ele><time>2026-04-05T12:13:10.971Z</time></trkpt><trkpt lat="44.9394697" lon="7.3003157"><ele>822.5</ele><time>2026-04-05T12:13:12.971Z</time></trkpt><trkpt lat="44.9394765" lon="7.30016"><ele>823.25</ele><time>2026-04-05T12:13:14.971Z</time></trkpt><trkpt lat="44.9395001" lon="7.3000071"><ele>824.0</ele><time>2026-04-05T12:13:16.971Z</time></trkpt><trkpt lat="44.9395134" lon="7.2998409"><ele>823.8000000000001</ele><time>2026-04-05T12:13:18.971Z</time></trkpt><trkpt lat="44.9395213" lon="7.2996912"><ele>823.6</ele><time>2026-04-05T12:13:20.971Z</time></trkpt><trkpt lat="44.939533" lon="7.2995513"><ele>823.4</ele><time>2026-04-05T12:13:22.971Z</time></trkpt><trkpt lat="44.9395354" lon="7.299423"><ele>823.2</ele><time>2026-04-05T12:13:24.971Z</time></trkpt><trkpt lat="44.9395326" lon="7.299298"><ele>823.0</ele><time>2026-04-05T12:13:26.971Z</time></trkpt><trkpt lat="44.9395346" lon="7.2991368"><ele>823.0</ele><time>2026-04-05T12:13:28.971Z</time></trkpt><trkpt lat="44.9394655" lon="7.2989527"><ele>823.0</ele><time>2026-04-05T12:13:30.971Z</time></trkpt><trkpt lat="44.9394178" lon="7.2988719"><ele>823.0</ele><time>2026-04-05T12:13:31.971Z</time></trkpt><trkpt lat="44.939349" lon="7.2987837"><ele>823.0</ele><time>2026-04-05T12:13:32.971Z</time></trkpt><trkpt lat="44.9392714" lon="7.2986994"><ele>823.0</ele><time>2026-04-05T12:13:33.971Z</time></trkpt><trkpt lat="44.9392057" lon="7.2986449"><ele>818.8</ele><time>2026-04-05T12:13:34.971Z</time></trkpt><trkpt lat="44.9391134" lon="7.2985692"><ele>814.5999999999999</ele><time>2026-04-05T12:13:36.971Z</time></trkpt><trkpt lat="44.9390519" lon="7.2984189"><ele>810.4000000000001</ele><time>2026-04-05T12:13:38.971Z</time></trkpt><trkpt lat="44.9390935" lon="7.2982668"><ele>806.2</ele><time>2026-04-05T12:13:40.971Z</time></trkpt><trkpt lat="44.9391088" lon="7.2981781"><ele>802.0</ele><time>2026-04-05T12:13:41.971Z</time></trkpt><trkpt lat="44.9391424" lon="7.2980282"><ele>800.2</ele><time>2026-04-05T12:13:43.972Z</time></trkpt><trkpt lat="44.9391667" lon="7.297877"><ele>798.4000000000001</ele><time>2026-04-05T12:13:45.971Z</time></trkpt><trkpt lat="44.9392144" lon="7.297731"><ele>796.5999999999999</ele><time>2026-04-05T12:13:47.971Z</time></trkpt><trkpt lat="44.9392768" lon="7.2975756"><ele>794.8</ele><time>2026-04-05T12:13:49.971Z</time></trkpt><trkpt lat="44.9392901" lon="7.2974737"><ele>793.0</ele><time>2026-04-05T12:13:50.971Z</time></trkpt><trkpt lat="44.9393165" lon="7.297379"><ele>795.6666666666666</ele><time>2026-04-05T12:13:51.971Z</time></trkpt><trkpt lat="44.9393442" lon="7.2972877"><ele>798.3333333333333</ele><time>2026-04-05T12:13:52.971Z</time></trkpt><trkpt lat="44.9393815" lon="7.2971969"><ele>801.0</ele><time>2026-04-05T12:13:53.971Z</time></trkpt><trkpt lat="44.9394246" lon="7.2970994"><ele>803.6666666666667</ele><time>2026-04-05T12:13:54.971Z</time></trkpt><trkpt lat="44.939454" lon="7.2969991"><ele>806.3333333333334</ele><time>2026-04-05T12:13:55.971Z</time></trkpt><trkpt lat="44.9394581" lon="7.2968732"><ele>809.0</ele><time>2026-04-05T12:13:56.971Z</time></trkpt><trkpt lat="44.9394695" lon="7.2967752"><ele>809.0</ele><time>2026-04-05T12:13:57.971Z</time></trkpt><trkpt lat="44.9394856" lon="7.2966867"><ele>809.0</ele><time>2026-04-05T12:13:58.971Z</time></trkpt><trkpt lat="44.9395766" lon="7.2965604"><ele>809.0</ele><time>2026-04-05T12:14:00.971Z</time></trkpt><trkpt lat="44.9396567" lon="7.2964668"><ele>809.0</ele><time>2026-04-05T12:14:02.971Z</time></trkpt><trkpt lat="44.9397205" lon="7.2963771"><ele>809.0</ele><time>2026-04-05T12:14:04.971Z</time></trkpt><trkpt lat="44.9397929" lon="7.2962878"><ele>808.0000000000001</ele><time>2026-04-05T12:14:06.971Z</time></trkpt><trkpt lat="44.9398584" lon="7.2962051"><ele>807.0</ele><time>2026-04-05T12:14:08.971Z</time></trkpt><trkpt lat="44.9399476" lon="7.2961452"><ele>806.0</ele><time>2026-04-05T12:14:10.971Z</time></trkpt><trkpt lat="44.9400093" lon="7.2961143"><ele>805.0</ele><time>2026-04-05T12:14:11.971Z</time></trkpt><trkpt lat="44.9401148" lon="7.2960402"><ele>804.0000000000001</ele><time>2026-04-05T12:14:13.971Z</time></trkpt><trkpt lat="44.9401561" lon="7.2959705"><ele>803.0</ele><time>2026-04-05T12:14:14.971Z</time></trkpt><trkpt lat="44.940222" lon="7.2958426"><ele>803.0</ele><time>2026-04-05T12:14:16.971Z</time></trkpt><trkpt lat="44.9403082" lon="7.2957671"><ele>803.0</ele><time>2026-04-05T12:14:18.971Z</time></trkpt><trkpt lat="44.9404048" lon="7.2957722"><ele>803.0</ele><time>2026-04-05T12:14:20.971Z</time></trkpt><trkpt lat="44.9405044" lon="7.295718"><ele>803.0</ele><time>2026-04-05T12:14:22.971Z</time></trkpt><trkpt lat="44.9405875" lon="7.2956594"><ele>803.0</ele><time>2026-04-05T12:14:24.971Z</time></trkpt><trkpt lat="44.9406527" lon="7.2956196"><ele>806.2</ele><time>2026-04-05T12:14:26.971Z</time></trkpt><trkpt lat="44.9407217" lon="7.2955204"><ele>809.4</ele><time>2026-04-05T12:14:28.971Z</time></trkpt><trkpt lat="44.9407995" lon="7.2953866"><ele>812.6</ele><time>2026-04-05T12:14:30.971Z</time></trkpt><trkpt lat="44.940836" lon="7.2952835"><ele>815.8000000000001</ele><time>2026-04-05T12:14:31.971Z</time></trkpt><trkpt lat="44.9408652" lon="7.2951961"><ele>819.0</ele><time>2026-04-05T12:14:32.971Z</time></trkpt><trkpt lat="44.9409093" lon="7.2950858"><ele>819.0</ele><time>2026-04-05T12:14:33.971Z</time></trkpt><trkpt lat="44.9409751" lon="7.2949768"><ele>819.0</ele><time>2026-04-05T12:14:34.971Z</time></trkpt><trkpt lat="44.9410245" lon="7.2948791"><ele>819.0</ele><time>2026-04-05T12:14:35.971Z</time></trkpt><trkpt lat="44.9410563" lon="7.2947817"><ele>819.0</ele><time>2026-04-05T12:14:36.971Z</time></trkpt><trkpt lat="44.9410931" lon="7.2947038"><ele>819.0</ele><time>2026-04-05T12:14:37.97Z</time></trkpt><trkpt lat="44.9411229" lon="7.2946186"><ele>819.0</ele><time>2026-04-05T12:14:38.971Z</time></trkpt><trkpt lat="44.9411596" lon="7.2945376"><ele>815.3333333333334</ele><time>2026-04-05T12:14:39.971Z</time></trkpt><trkpt lat="44.9412048" lon="7.2944539"><ele>811.6666666666667</ele><time>2026-04-05T12:14:40.971Z</time></trkpt><trkpt lat="44.94125" lon="7.2943637"><ele>808.0</ele><time>2026-04-05T12:14:41.971Z</time></trkpt><trkpt lat="44.9412842" lon="7.2942777"><ele>804.3333333333334</ele><time>2026-04-05T12:14:42.971Z</time></trkpt><trkpt lat="44.941332" lon="7.2942103"><ele>800.6666666666667</ele><time>2026-04-05T12:14:43.971Z</time></trkpt><trkpt lat="44.9414242" lon="7.2940762"><ele>797.0</ele><time>2026-04-05T12:14:45.971Z</time></trkpt><trkpt lat="44.9414738" lon="7.2940125"><ele>797.0000000000001</ele><time>2026-04-05T12:14:46.971Z</time></trkpt><trkpt lat="44.9415242" lon="7.2939585"><ele>797.0</ele><time>2026-04-05T12:14:47.971Z</time></trkpt><trkpt lat="44.9416081" lon="7.2938766"><ele>797.0</ele><time>2026-04-05T12:14:49.971Z</time></trkpt><trkpt lat="44.9416894" lon="7.2938171"><ele>797.0</ele><time>2026-04-05T12:14:51.971Z</time></trkpt><trkpt lat="44.9417524" lon="7.2937287"><ele>797.0000000000001</ele><time>2026-04-05T12:14:53.971Z</time></trkpt><trkpt lat="44.9418017" lon="7.2936355"><ele>797.0</ele><time>2026-04-05T12:14:55.971Z</time></trkpt><trkpt lat="44.9418547" lon="7.2935427"><ele>790.6</ele><time>2026-04-05T12:14:57.971Z</time></trkpt><trkpt lat="44.9419182" lon="7.2934805"><ele>784.2</ele><time>2026-04-05T12:14:59.971Z</time></trkpt><trkpt lat="44.9419995" lon="7.2934481"><ele>777.8</ele><time>2026-04-05T12:15:01.971Z</time></trkpt><trkpt lat="44.9420995" lon="7.2934811"><ele>771.4</ele><time>2026-04-05T12:15:03.971Z</time></trkpt><trkpt lat="44.9422076" lon="7.2935042"><ele>765.0</ele><time>2026-04-05T12:15:05.971Z</time></trkpt><trkpt lat="44.9423097" lon="7.2935178"><ele>765.0</ele><time>2026-04-05T12:15:07.971Z</time></trkpt><trkpt lat="44.9424178" lon="7.2935532"><ele>765.0</ele><time>2026-04-05T12:15:09.971Z</time></trkpt><trkpt lat="44.9425211" lon="7.2936356"><ele>765.0</ele><time>2026-04-05T12:15:11.971Z</time></trkpt><trkpt lat="44.9426293" lon="7.2936518"><ele>765.0</ele><time>2026-04-05T12:15:13.971Z</time></trkpt><trkpt lat="44.9427287" lon="7.2935793"><ele>764.6</ele><time>2026-04-05T12:15:15.971Z</time></trkpt><trkpt lat="44.9428321" lon="7.2934803"><ele>764.2</ele><time>2026-04-05T12:15:17.971Z</time></trkpt><trkpt lat="44.9429039" lon="7.2934536"><ele>763.8</ele><time>2026-04-05T12:15:18.971Z</time></trkpt><trkpt lat="44.9429871" lon="7.2934374"><ele>763.4</ele><time>2026-04-05T12:15:19.971Z</time></trkpt><trkpt lat="44.9430671" lon="7.293444"><ele>763.0</ele><time>2026-04-05T12:15:20.971Z</time></trkpt><trkpt lat="44.9431535" lon="7.2934426"><ele>763.0</ele><time>2026-04-05T12:15:21.971Z</time></trkpt><trkpt lat="44.9432507" lon="7.2934341"><ele>763.0</ele><time>2026-04-05T12:15:22.971Z</time></trkpt><trkpt lat="44.9433276" lon="7.2934247"><ele>763.0</ele><time>2026-04-05T12:15:23.971Z</time></trkpt><trkpt lat="44.9433931" lon="7.2934274"><ele>763.0</ele><time>2026-04-05T12:15:24.971Z</time></trkpt><trkpt lat="44.9434579" lon="7.293445"><ele>763.0</ele><time>2026-04-05T12:15:25.971Z</time></trkpt><trkpt lat="44.9435132" lon="7.2934901"><ele>763.0</ele><time>2026-04-05T12:15:26.971Z</time></trkpt><trkpt lat="44.9435676" lon="7.2935593"><ele>763.0</ele><time>2026-04-05T12:15:27.971Z</time></trkpt><trkpt lat="44.9436125" lon="7.2936401"><ele>765.0</ele><time>2026-04-05T12:15:28.971Z</time></trkpt><trkpt lat="44.9436635" lon="7.2937053"><ele>767.0</ele><time>2026-04-05T12:15:29.971Z</time></trkpt><trkpt lat="44.9437278" lon="7.2937544"><ele>769.0</ele><time>2026-04-05T12:15:30.971Z</time></trkpt><trkpt lat="44.943788" lon="7.2937861"><ele>771.0</ele><time>2026-04-05T12:15:31.971Z</time></trkpt><trkpt lat="44.9438502" lon="7.2938085"><ele>773.0</ele><time>2026-04-05T12:15:32.971Z</time></trkpt><trkpt lat="44.9439087" lon="7.2938499"><ele>775.0</ele><time>2026-04-05T12:15:33.971Z</time></trkpt><trkpt lat="44.943967" lon="7.2938943"><ele>777.0</ele><time>2026-04-05T12:15:34.971Z</time></trkpt><trkpt lat="44.9440233" lon="7.293939"><ele>778.8</ele><time>2026-04-05T12:15:35.971Z</time></trkpt><trkpt lat="44.9441332" lon="7.2939862"><ele>780.6</ele><time>2026-04-05T12:15:37.971Z</time></trkpt><trkpt lat="44.9442343" lon="7.2939971"><ele>782.4</ele><time>2026-04-05T12:15:39.971Z</time></trkpt><trkpt lat="44.9443176" lon="7.293937"><ele>784.1999999999999</ele><time>2026-04-05T12:15:41.971Z</time></trkpt><trkpt lat="44.9443619" lon="7.2938037"><ele>786.0</ele><time>2026-04-05T12:15:43.971Z</time></trkpt><trkpt lat="44.9443937" lon="7.2936454"><ele>786.25</ele><time>2026-04-05T12:15:45.971Z</time></trkpt><trkpt lat="44.9444241" lon="7.2934814"><ele>786.5</ele><time>2026-04-05T12:15:47.971Z</time></trkpt><trkpt lat="44.9444393" lon="7.293325"><ele>786.75</ele><time>2026-04-05T12:15:49.971Z</time></trkpt><trkpt lat="44.9444394" lon="7.2931739"><ele>787.0</ele><time>2026-04-05T12:15:51.971Z</time></trkpt><trkpt lat="44.9443904" lon="7.2930213"><ele>786.9999999999999</ele><time>2026-04-05T12:15:53.971Z</time></trkpt><trkpt lat="44.9443578" lon="7.2929419"><ele>787.0</ele><time>2026-04-05T12:15:54.971Z</time></trkpt><trkpt lat="44.9443229" lon="7.2928543"><ele>787.0</ele><time>2026-04-05T12:15:55.971Z</time></trkpt><trkpt lat="44.9442922" lon="7.2927687"><ele>787.0</ele><time>2026-04-05T12:15:56.971Z</time></trkpt><trkpt lat="44.944262" lon="7.2926898"><ele>786.9999999999999</ele><time>2026-04-05T12:15:57.971Z</time></trkpt><trkpt lat="44.9442162" lon="7.2925603"><ele>787.0</ele><time>2026-04-05T12:15:59.971Z</time></trkpt><trkpt lat="44.9441877" lon="7.292421"><ele>785.8</ele><time>2026-04-05T12:16:01.971Z</time></trkpt><trkpt lat="44.944213" lon="7.2922844"><ele>784.6</ele><time>2026-04-05T12:16:03.971Z</time></trkpt><trkpt lat="44.9442838" lon="7.2921751"><ele>783.4</ele><time>2026-04-05T12:16:05.971Z</time></trkpt><trkpt lat="44.9443854" lon="7.2921115"><ele>782.1999999999999</ele><time>2026-04-05T12:16:07.971Z</time></trkpt><trkpt lat="44.9444913" lon="7.2920918"><ele>781.0</ele><time>2026-04-05T12:16:09.971Z</time></trkpt><trkpt lat="44.9445927" lon="7.2920731"><ele>776.4</ele><time>2026-04-05T12:16:11.971Z</time></trkpt><trkpt lat="44.9446987" lon="7.2920349"><ele>771.8</ele><time>2026-04-05T12:16:13.971Z</time></trkpt><trkpt lat="44.9448333" lon="7.2920224"><ele>767.1999999999999</ele><time>2026-04-05T12:16:15.971Z</time></trkpt><trkpt lat="44.944909" lon="7.2920336"><ele>762.5999999999999</ele><time>2026-04-05T12:16:16.971Z</time></trkpt><trkpt lat="44.9449854" lon="7.2920582"><ele>758.0</ele><time>2026-04-05T12:16:17.971Z</time></trkpt><trkpt lat="44.9450602" lon="7.2920834"><ele>759.2857142857143</ele><time>2026-04-05T12:16:18.971Z</time></trkpt><trkpt lat="44.9451307" lon="7.29212"><ele>760.5714285714286</ele><time>2026-04-05T12:16:19.971Z</time></trkpt><trkpt lat="44.9451974" lon="7.2921747"><ele>761.8571428571429</ele><time>2026-04-05T12:16:20.971Z</time></trkpt><trkpt lat="44.9452602" lon="7.2922324"><ele>763.1428571428571</ele><time>2026-04-05T12:16:21.971Z</time></trkpt><trkpt lat="44.9453124" lon="7.2922999"><ele>764.4285714285714</ele><time>2026-04-05T12:16:22.971Z</time></trkpt><trkpt lat="44.9453661" lon="7.29237"><ele>765.7142857142858</ele><time>2026-04-05T12:16:23.971Z</time></trkpt><trkpt lat="44.9454181" lon="7.2924277"><ele>767.0</ele><time>2026-04-05T12:16:24.972Z</time></trkpt><trkpt lat="44.9455404" lon="7.2924878"><ele>767.0</ele><time>2026-04-05T12:16:26.971Z</time></trkpt><trkpt lat="44.9456074" lon="7.2925087"><ele>767.0</ele><time>2026-04-05T12:16:27.971Z</time></trkpt><trkpt lat="44.9457166" lon="7.2926058"><ele>767.0</ele><time>2026-04-05T12:16:29.971Z</time></trkpt><trkpt lat="44.945794" lon="7.2927026"><ele>767.0</ele><time>2026-04-05T12:16:31.971Z</time></trkpt><trkpt lat="44.9459145" lon="7.2926679"><ele>767.0</ele><time>2026-04-05T12:16:33.971Z</time></trkpt><trkpt lat="44.9459744" lon="7.2926275"><ele>767.0</ele><time>2026-04-05T12:16:34.971Z</time></trkpt><trkpt lat="44.9460313" lon="7.2925704"><ele>767.0</ele><time>2026-04-05T12:16:35.971Z</time></trkpt><trkpt lat="44.946114" lon="7.2924568"><ele>767.0</ele><time>2026-04-05T12:16:37.971Z</time></trkpt><trkpt lat="44.9461814" lon="7.2923348"><ele>767.0</ele><time>2026-04-05T12:16:39.971Z</time></trkpt><trkpt lat="44.9462503" lon="7.2922346"><ele>767.0</ele><time>2026-04-05T12:16:41.971Z</time></trkpt><trkpt lat="44.9463513" lon="7.292183"><ele>764.1666666666666</ele><time>2026-04-05T12:16:43.971Z</time></trkpt><trkpt lat="44.9464412" lon="7.29219"><ele>761.3333333333333</ele><time>2026-04-05T12:16:45.971Z</time></trkpt><trkpt lat="44.9465042" lon="7.2922074"><ele>758.5</ele><time>2026-04-05T12:16:47.971Z</time></trkpt><trkpt lat="44.9465868" lon="7.2921636"><ele>755.6666666666666</ele><time>2026-04-05T12:16:50.971Z</time></trkpt><trkpt lat="44.9465574" lon="7.2920766"><ele>752.8333333333334</ele><time>2026-04-05T12:16:53.971Z</time></trkpt><trkpt lat="44.946463" lon="7.2920547"><ele>750.0</ele><time>2026-04-05T12:16:55.971Z</time></trkpt><trkpt lat="44.9463505" lon="7.2920427"><ele>750.0</ele><time>2026-04-05T12:16:57.971Z</time></trkpt><trkpt lat="44.9462658" lon="7.292042"><ele>750.0</ele><time>2026-04-05T12:16:58.971Z</time></trkpt><trkpt lat="44.946175" lon="7.2920531"><ele>750.0</ele><time>2026-04-05T12:16:59.971Z</time></trkpt><trkpt lat="44.9460806" lon="7.2920578"><ele>750.0</ele><time>2026-04-05T12:17:00.971Z</time></trkpt><trkpt lat="44.9459869" lon="7.2920376"><ele>750.0</ele><time>2026-04-05T12:17:01.971Z</time></trkpt><trkpt lat="44.9458889" lon="7.2920072"><ele>748.8</ele><time>2026-04-05T12:17:02.971Z</time></trkpt><trkpt lat="44.9457888" lon="7.2919616"><ele>747.6</ele><time>2026-04-05T12:17:03.971Z</time></trkpt><trkpt lat="44.9456909" lon="7.2919063"><ele>746.4000000000001</ele><time>2026-04-05T12:17:04.971Z</time></trkpt><trkpt lat="44.9456024" lon="7.2918398"><ele>745.2</ele><time>2026-04-05T12:17:05.971Z</time></trkpt><trkpt lat="44.9455225" lon="7.2917658"><ele>744.0</ele><time>2026-04-05T12:17:06.971Z</time></trkpt><trkpt lat="44.9454497" lon="7.2916803"><ele>744.0</ele><time>2026-04-05T12:17:07.971Z</time></trkpt><trkpt lat="44.9453743" lon="7.2915973"><ele>744.0</ele><time>2026-04-05T12:17:08.971Z</time></trkpt><trkpt lat="44.9453186" lon="7.2915022"><ele>744.0</ele><time>2026-04-05T12:17:09.971Z</time></trkpt><trkpt lat="44.9452627" lon="7.2913989"><ele>744.0</ele><time>2026-04-05T12:17:10.971Z</time></trkpt><trkpt lat="44.9452033" lon="7.2912982"><ele>744.0</ele><time>2026-04-05T12:17:11.971Z</time></trkpt><trkpt lat="44.9451452" lon="7.2911957"><ele>743.0</ele><time>2026-04-05T12:17:12.971Z</time></trkpt><trkpt lat="44.9450706" lon="7.2911073"><ele>742.0</ele><time>2026-04-05T12:17:13.971Z</time></trkpt><trkpt lat="44.9449859" lon="7.2910271"><ele>741.0</ele><time>2026-04-05T12:17:14.971Z</time></trkpt><trkpt lat="44.9448976" lon="7.2909403"><ele>740.0</ele><time>2026-04-05T12:17:15.971Z</time></trkpt><trkpt lat="44.9448077" lon="7.2908625"><ele>739.0</ele><time>2026-04-05T12:17:16.971Z</time></trkpt><trkpt lat="44.9447146" lon="7.2908015"><ele>739.0</ele><time>2026-04-05T12:17:17.971Z</time></trkpt><trkpt lat="44.9446116" lon="7.2907713"><ele>739.0</ele><time>2026-04-05T12:17:18.971Z</time></trkpt><trkpt lat="44.9445076" lon="7.2907604"><ele>739.0</ele><time>2026-04-05T12:17:19.971Z</time></trkpt><trkpt lat="44.9444031" lon="7.2907842"><ele>739.0</ele><time>2026-04-05T12:17:20.971Z</time></trkpt><trkpt lat="44.9443034" lon="7.2907939"><ele>739.0</ele><time>2026-04-05T12:17:21.971Z</time></trkpt><trkpt lat="44.9442019" lon="7.2907849"><ele>739.2</ele><time>2026-04-05T12:17:22.971Z</time></trkpt><trkpt lat="44.9440991" lon="7.2907525"><ele>739.4000000000001</ele><time>2026-04-05T12:17:23.971Z</time></trkpt><trkpt lat="44.9440041" lon="7.2906966"><ele>739.6</ele><time>2026-04-05T12:17:24.971Z</time></trkpt><trkpt lat="44.94391" lon="7.2906179"><ele>739.8</ele><time>2026-04-05T12:17:25.971Z</time></trkpt><trkpt lat="44.9438349" lon="7.2905231"><ele>740.0</ele><time>2026-04-05T12:17:26.971Z</time></trkpt><trkpt lat="44.9437586" lon="7.2904401"><ele>740.0</ele><time>2026-04-05T12:17:27.971Z</time></trkpt><trkpt lat="44.9436826" lon="7.2903634"><ele>740.0</ele><time>2026-04-05T12:17:28.971Z</time></trkpt><trkpt lat="44.9436172" lon="7.2902772"><ele>740.0</ele><time>2026-04-05T12:17:29.971Z</time></trkpt><trkpt lat="44.9435557" lon="7.2901842"><ele>740.0</ele><time>2026-04-05T12:17:30.971Z</time></trkpt><trkpt lat="44.9434888" lon="7.2900921"><ele>740.0</ele><time>2026-04-05T12:17:31.971Z</time></trkpt><trkpt lat="44.9434069" lon="7.2900243"><ele>737.0</ele><time>2026-04-05T12:17:32.971Z</time></trkpt><trkpt lat="44.943314" lon="7.2899847"><ele>734.0</ele><time>2026-04-05T12:17:33.971Z</time></trkpt><trkpt lat="44.9432167" lon="7.2899692"><ele>731.0</ele><time>2026-04-05T12:17:34.971Z</time></trkpt><trkpt lat="44.9431321" lon="7.2899637"><ele>728.0</ele><time>2026-04-05T12:17:35.971Z</time></trkpt><trkpt lat="44.9430602" lon="7.2899622"><ele>725.0</ele><time>2026-04-05T12:17:36.971Z</time></trkpt><trkpt lat="44.9430007" lon="7.2899283"><ele>722.0</ele><time>2026-04-05T12:17:37.971Z</time></trkpt><trkpt lat="44.9429375" lon="7.2898684"><ele>722.0</ele><time>2026-04-05T12:17:39.971Z</time></trkpt><trkpt lat="44.942872" lon="7.2898257"><ele>722.0</ele><time>2026-04-05T12:18:46.971Z</time></trkpt><trkpt lat="44.9427963" lon="7.2898993"><ele>722.0</ele><time>2026-04-05T12:18:50.971Z</time></trkpt><trkpt lat="44.9427246" lon="7.2900211"><ele>722.0</ele><time>2026-04-05T12:18:52.971Z</time></trkpt><trkpt lat="44.9426622" lon="7.2900963"><ele>722.0</ele><time>2026-04-05T12:18:53.971Z</time></trkpt><trkpt lat="44.9425951" lon="7.2901582"><ele>722.0</ele><time>2026-04-05T12:18:54.971Z</time></trkpt><trkpt lat="44.9425004" lon="7.2902003"><ele>721.75</ele><time>2026-04-05T12:18:55.971Z</time></trkpt><trkpt lat="44.9423969" lon="7.2902319"><ele>721.5</ele><time>2026-04-05T12:18:56.971Z</time></trkpt><trkpt lat="44.9422905" lon="7.2902978"><ele>721.25</ele><time>2026-04-05T12:18:57.971Z</time></trkpt><trkpt lat="44.942181" lon="7.2903786"><ele>721.0</ele><time>2026-04-05T12:18:58.971Z</time></trkpt><trkpt lat="44.9420761" lon="7.2904531"><ele>721.0</ele><time>2026-04-05T12:18:59.971Z</time></trkpt><trkpt lat="44.9419649" lon="7.2905113"><ele>721.0</ele><time>2026-04-05T12:19:00.971Z</time></trkpt><trkpt lat="44.9418407" lon="7.2905678"><ele>721.0</ele><time>2026-04-05T12:19:01.971Z</time></trkpt><trkpt lat="44.9417122" lon="7.2906067"><ele>721.0</ele><time>2026-04-05T12:19:02.971Z</time></trkpt><trkpt lat="44.9415905" lon="7.2906349"><ele>716.75</ele><time>2026-04-05T12:19:03.971Z</time></trkpt><trkpt lat="44.9414656" lon="7.2906491"><ele>712.5</ele><time>2026-04-05T12:19:04.971Z</time></trkpt><trkpt lat="44.941341" lon="7.2906561"><ele>708.25</ele><time>2026-04-05T12:19:05.971Z</time></trkpt><trkpt lat="44.9412258" lon="7.290649"><ele>704.0</ele><time>2026-04-05T12:19:06.971Z</time></trkpt><trkpt lat="44.9411114" lon="7.2906401"><ele>704.0</ele><time>2026-04-05T12:19:07.971Z</time></trkpt><trkpt lat="44.9410015" lon="7.2906149"><ele>704.0</ele><time>2026-04-05T12:19:08.971Z</time></trkpt><trkpt lat="44.9408972" lon="7.2905732"><ele>704.0</ele><time>2026-04-05T12:19:09.971Z</time></trkpt><trkpt lat="44.940791" lon="7.2905625"><ele>704.0</ele><time>2026-04-05T12:19:10.971Z</time></trkpt><trkpt lat="44.9406835" lon="7.2906191"><ele>704.0</ele><time>2026-04-05T12:19:11.971Z</time></trkpt><trkpt lat="44.9405753" lon="7.2907024"><ele>701.0</ele><time>2026-04-05T12:19:12.971Z</time></trkpt><trkpt lat="44.940462" lon="7.2907798"><ele>698.0</ele><time>2026-04-05T12:19:13.971Z</time></trkpt><trkpt lat="44.9403482" lon="7.2908437"><ele>695.0</ele><time>2026-04-05T12:19:14.971Z</time></trkpt><trkpt lat="44.9402343" lon="7.2909029"><ele>692.0</ele><time>2026-04-05T12:19:15.971Z</time></trkpt><trkpt lat="44.9401206" lon="7.2909649"><ele>692.25</ele><time>2026-04-05T12:19:16.971Z</time></trkpt><trkpt lat="44.9400113" lon="7.2910541"><ele>692.5</ele><time>2026-04-05T12:19:17.971Z</time></trkpt><trkpt lat="44.9399139" lon="7.2911775"><ele>692.75</ele><time>2026-04-05T12:19:18.971Z</time></trkpt><trkpt lat="44.9398143" lon="7.2912683"><ele>693.0</ele><time>2026-04-05T12:19:19.972Z</time></trkpt><trkpt lat="44.9396959" lon="7.2913354"><ele>693.0</ele><time>2026-04-05T12:19:20.971Z</time></trkpt><trkpt lat="44.9395676" lon="7.2914159"><ele>693.0</ele><time>2026-04-05T12:19:21.971Z</time></trkpt><trkpt lat="44.9394328" lon="7.2915016"><ele>693.0</ele><time>2026-04-05T12:19:22.971Z</time></trkpt><trkpt lat="44.9393071" lon="7.2915838"><ele>693.0</ele><time>2026-04-05T12:19:23.971Z</time></trkpt><trkpt lat="44.9391825" lon="7.2916596"><ele>691.0</ele><time>2026-04-05T12:19:24.971Z</time></trkpt><trkpt lat="44.9390566" lon="7.2917318"><ele>689.0</ele><time>2026-04-05T12:19:25.971Z</time></trkpt><trkpt lat="44.9389336" lon="7.2918046"><ele>687.0</ele><time>2026-04-05T12:19:26.971Z</time></trkpt><trkpt lat="44.9388134" lon="7.2918816"><ele>685.0</ele><time>2026-04-05T12:19:27.971Z</time></trkpt><trkpt lat="44.9387108" lon="7.2919804"><ele>685.0</ele><time>2026-04-05T12:19:28.971Z</time></trkpt><trkpt lat="44.9386241" lon="7.2921135"><ele>685.0</ele><time>2026-04-05T12:19:29.971Z</time></trkpt><trkpt lat="44.9385556" lon="7.2922689"><ele>685.0</ele><time>2026-04-05T12:19:30.971Z</time></trkpt><trkpt lat="44.9384953" lon="7.2924153"><ele>685.0</ele><time>2026-04-05T12:19:31.971Z</time></trkpt><trkpt lat="44.9384189" lon="7.2925378"><ele>683.5</ele><time>2026-04-05T12:19:32.971Z</time></trkpt><trkpt lat="44.9383301" lon="7.2926379"><ele>682.0</ele><time>2026-04-05T12:19:33.971Z</time></trkpt><trkpt lat="44.9382462" lon="7.292751"><ele>680.5</ele><time>2026-04-05T12:19:34.971Z</time></trkpt><trkpt lat="44.9381722" lon="7.2928868"><ele>679.0</ele><time>2026-04-05T12:19:35.971Z</time></trkpt><trkpt lat="44.9380948" lon="7.2930233"><ele>676.25</ele><time>2026-04-05T12:19:36.971Z</time></trkpt><trkpt lat="44.9380086" lon="7.2931445"><ele>673.5</ele><time>2026-04-05T12:19:37.971Z</time></trkpt><trkpt lat="44.9379223" lon="7.2932396"><ele>670.75</ele><time>2026-04-05T12:19:38.971Z</time></trkpt><trkpt lat="44.9378299" lon="7.2933334"><ele>668.0</ele><time>2026-04-05T12:19:39.971Z</time></trkpt><trkpt lat="44.9377327" lon="7.2934268"><ele>668.0</ele><time>2026-04-05T12:19:40.971Z</time></trkpt><trkpt lat="44.9376421" lon="7.293533"><ele>668.0</ele><time>2026-04-05T12:19:41.971Z</time></trkpt><trkpt lat="44.9375599" lon="7.2936432"><ele>668.0</ele><time>2026-04-05T12:19:42.971Z</time></trkpt><trkpt lat="44.9374699" lon="7.2937366"><ele>668.0</ele><time>2026-04-05T12:19:43.971Z</time></trkpt><trkpt lat="44.9373793" lon="7.2938191"><ele>669.5999999999999</ele><time>2026-04-05T12:19:44.971Z</time></trkpt><trkpt lat="44.9372942" lon="7.2939189"><ele>671.1999999999999</ele><time>2026-04-05T12:19:45.971Z</time></trkpt><trkpt lat="44.9372281" lon="7.2940307"><ele>672.8</ele><time>2026-04-05T12:19:46.971Z</time></trkpt><trkpt lat="44.9371685" lon="7.2941583"><ele>674.4</ele><time>2026-04-05T12:19:47.971Z</time></trkpt><trkpt lat="44.9371094" lon="7.2942537"><ele>676.0</ele><time>2026-04-05T12:19:48.971Z</time></trkpt><trkpt lat="44.9370294" lon="7.2943028"><ele>673.75</ele><time>2026-04-05T12:19:49.971Z</time></trkpt><trkpt lat="44.9369227" lon="7.2943216"><ele>671.5</ele><time>2026-04-05T12:19:50.971Z</time></trkpt><trkpt lat="44.9367915" lon="7.2943256"><ele>669.25</ele><time>2026-04-05T12:19:51.971Z</time></trkpt><trkpt lat="44.9366369" lon="7.2943493"><ele>667.0</ele><time>2026-04-05T12:19:52.971Z</time></trkpt><trkpt lat="44.9364681" lon="7.2943759"><ele>667.0</ele><time>2026-04-05T12:19:53.971Z</time></trkpt><trkpt lat="44.9362949" lon="7.2944192"><ele>667.0</ele><time>2026-04-05T12:19:54.971Z</time></trkpt><trkpt lat="44.9361237" lon="7.2944886"><ele>667.0</ele><time>2026-04-05T12:19:55.971Z</time></trkpt><trkpt lat="44.9359573" lon="7.2945809"><ele>669.6666666666667</ele><time>2026-04-05T12:19:56.971Z</time></trkpt><trkpt lat="44.9357961" lon="7.2946721"><ele>672.3333333333334</ele><time>2026-04-05T12:19:57.971Z</time></trkpt><trkpt lat="44.9356395" lon="7.2947565"><ele>675.0</ele><time>2026-04-05T12:19:58.971Z</time></trkpt><trkpt lat="44.9354895" lon="7.2948455"><ele>665.6666666666666</ele><time>2026-04-05T12:19:59.971Z</time></trkpt><trkpt lat="44.9353391" lon="7.294947"><ele>656.3333333333333</ele><time>2026-04-05T12:20:00.971Z</time></trkpt><trkpt lat="44.9351893" lon="7.2950267"><ele>647.0</ele><time>2026-04-05T12:20:01.971Z</time></trkpt><trkpt lat="44.9350426" lon="7.2950957"><ele>647.0</ele><time>2026-04-05T12:20:02.971Z</time></trkpt><trkpt lat="44.9349077" lon="7.2951579"><ele>647.0</ele><time>2026-04-05T12:20:03.971Z</time></trkpt><trkpt lat="44.9347775" lon="7.2952105"><ele>647.0</ele><time>2026-04-05T12:20:04.971Z</time></trkpt><trkpt lat="44.934659" lon="7.2952526"><ele>647.0</ele><time>2026-04-05T12:20:05.971Z</time></trkpt><trkpt lat="44.9345412" lon="7.2952987"><ele>647.0</ele><time>2026-04-05T12:20:06.971Z</time></trkpt><trkpt lat="44.934436" lon="7.2953602"><ele>647.0</ele><time>2026-04-05T12:20:07.971Z</time></trkpt><trkpt lat="44.9343557" lon="7.2954343"><ele>647.0</ele><time>2026-04-05T12:20:08.971Z</time></trkpt><trkpt lat="44.9342732" lon="7.2954804"><ele>647.0</ele><time>2026-04-05T12:20:09.971Z</time></trkpt><trkpt lat="44.9341855" lon="7.2954789"><ele>647.0</ele><time>2026-04-05T12:20:10.971Z</time></trkpt><trkpt lat="44.9340947" lon="7.2954342"><ele>645.0</ele><time>2026-04-05T12:20:11.971Z</time></trkpt><trkpt lat="44.9339955" lon="7.2953779"><ele>643.0</ele><time>2026-04-05T12:20:12.971Z</time></trkpt><trkpt lat="44.9338922" lon="7.2953178"><ele>641.0</ele><time>2026-04-05T12:20:13.971Z</time></trkpt><trkpt lat="44.9337892" lon="7.2952691"><ele>639.0</ele><time>2026-04-05T12:20:14.971Z</time></trkpt><trkpt lat="44.9336894" lon="7.29521"><ele>637.0</ele><time>2026-04-05T12:20:15.971Z</time></trkpt><trkpt lat="44.9335976" lon="7.2951693"><ele>637.0</ele><time>2026-04-05T12:20:16.971Z</time></trkpt><trkpt lat="44.9335004" lon="7.295147"><ele>637.0</ele><time>2026-04-05T12:20:17.971Z</time></trkpt><trkpt lat="44.9334252" lon="7.295226"><ele>637.0</ele><time>2026-04-05T12:20:18.971Z</time></trkpt><trkpt lat="44.9333506" lon="7.2952954"><ele>637.0</ele><time>2026-04-05T12:20:19.971Z</time></trkpt><trkpt lat="44.9332723" lon="7.2953807"><ele>637.0</ele><time>2026-04-05T12:20:20.971Z</time></trkpt><trkpt lat="44.9331771" lon="7.2954423"><ele>634.5</ele><time>2026-04-05T12:20:21.971Z</time></trkpt><trkpt lat="44.9330717" lon="7.2954792"><ele>632.0</ele><time>2026-04-05T12:20:22.971Z</time></trkpt><trkpt lat="44.9329541" lon="7.295466"><ele>629.5</ele><time>2026-04-05T12:20:23.971Z</time></trkpt><trkpt lat="44.9328358" lon="7.2954223"><ele>627.0</ele><time>2026-04-05T12:20:24.971Z</time></trkpt><trkpt lat="44.9327196" lon="7.295386"><ele>627.0</ele><time>2026-04-05T12:20:25.971Z</time></trkpt><trkpt lat="44.9326061" lon="7.2953361"><ele>627.0</ele><time>2026-04-05T12:20:26.971Z</time></trkpt><trkpt lat="44.9324897" lon="7.2952578"><ele>627.0</ele><time>2026-04-05T12:20:27.971Z</time></trkpt><trkpt lat="44.9324126" lon="7.295138"><ele>627.0</ele><time>2026-04-05T12:20:28.971Z</time></trkpt><trkpt lat="44.9323651" lon="7.2950011"><ele>626.5</ele><time>2026-04-05T12:20:29.971Z</time></trkpt><trkpt lat="44.9323079" lon="7.294883"><ele>626.0</ele><time>2026-04-05T12:20:30.971Z</time></trkpt><trkpt lat="44.9322144" lon="7.2947769"><ele>625.5</ele><time>2026-04-05T12:20:31.971Z</time></trkpt><trkpt lat="44.9321095" lon="7.2946717"><ele>625.0</ele><time>2026-04-05T12:20:32.971Z</time></trkpt><trkpt lat="44.9320107" lon="7.2945681"><ele>627.5</ele><time>2026-04-05T12:20:33.971Z</time></trkpt><trkpt lat="44.9319043" lon="7.2944837"><ele>630.0</ele><time>2026-04-05T12:20:34.971Z</time></trkpt><trkpt lat="44.9317804" lon="7.2944483"><ele>632.5</ele><time>2026-04-05T12:20:35.971Z</time></trkpt><trkpt lat="44.9316481" lon="7.2944356"><ele>635.0</ele><time>2026-04-05T12:20:36.971Z</time></trkpt><trkpt lat="44.9315088" lon="7.2944503"><ele>635.0</ele><time>2026-04-05T12:20:37.971Z</time></trkpt><trkpt lat="44.9313749" lon="7.2944827"><ele>635.0</ele><time>2026-04-05T12:20:38.971Z</time></trkpt><trkpt lat="44.9312465" lon="7.2945239"><ele>635.0</ele><time>2026-04-05T12:20:39.971Z</time></trkpt><trkpt lat="44.9311173" lon="7.2945583"><ele>635.0</ele><time>2026-04-05T12:20:40.971Z</time></trkpt><trkpt lat="44.9309902" lon="7.294597"><ele>630.25</ele><time>2026-04-05T12:20:41.971Z</time></trkpt><trkpt lat="44.9308723" lon="7.2946609"><ele>625.5</ele><time>2026-04-05T12:20:42.971Z</time></trkpt><trkpt lat="44.9307634" lon="7.2947258"><ele>620.75</ele><time>2026-04-05T12:20:43.971Z</time></trkpt><trkpt lat="44.9306698" lon="7.2947863"><ele>616.0</ele><time>2026-04-05T12:20:44.971Z</time></trkpt><trkpt lat="44.9305741" lon="7.2948644"><ele>613.5</ele><time>2026-04-05T12:20:45.971Z</time></trkpt><trkpt lat="44.9304943" lon="7.2949791"><ele>611.0</ele><time>2026-04-05T12:20:46.971Z</time></trkpt><trkpt lat="44.9304174" lon="7.2950903"><ele>608.5</ele><time>2026-04-05T12:20:47.971Z</time></trkpt><trkpt lat="44.9303363" lon="7.2952034"><ele>606.0</ele><time>2026-04-05T12:20:48.971Z</time></trkpt><trkpt lat="44.9302542" lon="7.2953173"><ele>606.0</ele><time>2026-04-05T12:20:49.971Z</time></trkpt><trkpt lat="44.9301844" lon="7.2954099"><ele>606.0</ele><time>2026-04-05T12:20:50.971Z</time></trkpt><trkpt lat="44.9301332" lon="7.2954688"><ele>606.0</ele><time>2026-04-05T12:20:51.971Z</time></trkpt><trkpt lat="44.9300517" lon="7.2955675"><ele>606.0</ele><time>2026-04-05T12:20:53.971Z</time></trkpt><trkpt lat="44.929982" lon="7.2955419"><ele>606.0</ele><time>2026-04-05T12:20:55.971Z</time></trkpt><trkpt lat="44.9299493" lon="7.2954372"><ele>606.0</ele><time>2026-04-05T12:20:57.971Z</time></trkpt><trkpt lat="44.9299443" lon="7.2952747"><ele>605.2</ele><time>2026-04-05T12:20:59.971Z</time></trkpt><trkpt lat="44.9299443" lon="7.2951771"><ele>604.4000000000001</ele><time>2026-04-05T12:21:00.971Z</time></trkpt><trkpt lat="44.929947" lon="7.2950699"><ele>603.6</ele><time>2026-04-05T12:21:01.971Z</time></trkpt><trkpt lat="44.9299625" lon="7.2949457"><ele>602.8000000000001</ele><time>2026-04-05T12:21:02.971Z</time></trkpt><trkpt lat="44.9299755" lon="7.2947879"><ele>602.0</ele><time>2026-04-05T12:21:03.971Z</time></trkpt><trkpt lat="44.9300012" lon="7.2946259"><ele>605.5</ele><time>2026-04-05T12:21:04.971Z</time></trkpt><trkpt lat="44.9300309" lon="7.2944808"><ele>609.0</ele><time>2026-04-05T12:21:05.971Z</time></trkpt><trkpt lat="44.9300578" lon="7.2943344"><ele>612.5</ele><time>2026-04-05T12:21:06.971Z</time></trkpt><trkpt lat="44.9301014" lon="7.2941758"><ele>616.0</ele><time>2026-04-05T12:21:07.971Z</time></trkpt><trkpt lat="44.9301275" lon="7.2940173"><ele>617.75</ele><time>2026-04-05T12:21:08.971Z</time></trkpt><trkpt lat="44.9301849" lon="7.2938573"><ele>619.5</ele><time>2026-04-05T12:21:09.971Z</time></trkpt><trkpt lat="44.9302502" lon="7.2937013"><ele>621.25</ele><time>2026-04-05T12:21:10.971Z</time></trkpt><trkpt lat="44.9303122" lon="7.2935561"><ele>623.0</ele><time>2026-04-05T12:21:11.971Z</time></trkpt><trkpt lat="44.9303742" lon="7.2934216"><ele>623.0</ele><time>2026-04-05T12:21:12.971Z</time></trkpt><trkpt lat="44.9304407" lon="7.2932826"><ele>623.0</ele><time>2026-04-05T12:21:13.971Z</time></trkpt><trkpt lat="44.9305177" lon="7.2931619"><ele>623.0</ele><time>2026-04-05T12:21:14.971Z</time></trkpt><trkpt lat="44.930603" lon="7.2930298"><ele>623.0</ele><time>2026-04-05T12:21:15.971Z</time></trkpt><trkpt lat="44.9306964" lon="7.2929337"><ele>624.25</ele><time>2026-04-05T12:21:16.971Z</time></trkpt><trkpt lat="44.9308038" lon="7.2928481"><ele>625.5</ele><time>2026-04-05T12:21:17.971Z</time></trkpt><trkpt lat="44.9309023" lon="7.29277"><ele>626.75</ele><time>2026-04-05T12:21:18.971Z</time></trkpt><trkpt lat="44.9309789" lon="7.2926467"><ele>628.0</ele><time>2026-04-05T12:21:19.971Z</time></trkpt><trkpt lat="44.9310534" lon="7.2925448"><ele>630.1666666666667</ele><time>2026-04-05T12:21:20.971Z</time></trkpt><trkpt lat="44.9311163" lon="7.2924588"><ele>632.3333333333334</ele><time>2026-04-05T12:21:21.971Z</time></trkpt><trkpt lat="44.9311856" lon="7.2924"><ele>634.5</ele><time>2026-04-05T12:21:22.971Z</time></trkpt><trkpt lat="44.9312569" lon="7.2923544"><ele>636.6666666666666</ele><time>2026-04-05T12:21:23.971Z</time></trkpt><trkpt lat="44.9313207" lon="7.2923095"><ele>638.8333333333333</ele><time>2026-04-05T12:21:24.971Z</time></trkpt><trkpt lat="44.931382" lon="7.2922207"><ele>641.0</ele><time>2026-04-05T12:21:25.971Z</time></trkpt><trkpt lat="44.93145" lon="7.2921243"><ele>641.25</ele><time>2026-04-05T12:21:26.971Z</time></trkpt><trkpt lat="44.931526" lon="7.2920096"><ele>641.5</ele><time>2026-04-05T12:21:27.971Z</time></trkpt><trkpt lat="44.9315962" lon="7.2918749"><ele>641.75</ele><time>2026-04-05T12:21:28.971Z</time></trkpt><trkpt lat="44.9316763" lon="7.2917466"><ele>642.0</ele><time>2026-04-05T12:21:29.971Z</time></trkpt><trkpt lat="44.9317453" lon="7.2916359"><ele>644.4000000000001</ele><time>2026-04-05T12:21:30.971Z</time></trkpt><trkpt lat="44.9318059" lon="7.2915301"><ele>646.8000000000001</ele><time>2026-04-05T12:21:31.971Z</time></trkpt><trkpt lat="44.9318233" lon="7.2914264"><ele>649.2</ele><time>2026-04-05T12:21:32.971Z</time></trkpt><trkpt lat="44.931835" lon="7.2912993"><ele>651.6</ele><time>2026-04-05T12:21:33.971Z</time></trkpt><trkpt lat="44.9318529" lon="7.2911718"><ele>654.0</ele><time>2026-04-05T12:21:34.971Z</time></trkpt><trkpt lat="44.9318834" lon="7.2910402"><ele>654.0</ele><time>2026-04-05T12:21:35.971Z</time></trkpt><trkpt lat="44.9319261" lon="7.2909321"><ele>654.0</ele><time>2026-04-05T12:21:36.971Z</time></trkpt><trkpt lat="44.9319839" lon="7.2908338"><ele>654.0</ele><time>2026-04-05T12:21:37.971Z</time></trkpt><trkpt lat="44.9320637" lon="7.2907421"><ele>654.0</ele><time>2026-04-05T12:21:38.971Z</time></trkpt><trkpt lat="44.9321531" lon="7.2906646"><ele>654.0</ele><time>2026-04-05T12:21:39.971Z</time></trkpt><trkpt lat="44.932258" lon="7.2906026"><ele>656.0</ele><time>2026-04-05T12:21:40.971Z</time></trkpt><trkpt lat="44.9323444" lon="7.2905469"><ele>658.0</ele><time>2026-04-05T12:21:41.971Z</time></trkpt><trkpt lat="44.932435" lon="7.2904747"><ele>660.0</ele><time>2026-04-05T12:21:42.971Z</time></trkpt><trkpt lat="44.9325121" lon="7.2903918"><ele>662.0</ele><time>2026-04-05T12:21:43.971Z</time></trkpt><trkpt lat="44.9325679" lon="7.2902684"><ele>664.0</ele><time>2026-04-05T12:21:44.971Z</time></trkpt><trkpt lat="44.932609" lon="7.2901047"><ele>666.0</ele><time>2026-04-05T12:21:45.971Z</time></trkpt><trkpt lat="44.9326871" lon="7.2900021"><ele>668.0</ele><time>2026-04-05T12:21:46.971Z</time></trkpt><trkpt lat="44.9327624" lon="7.2899064"><ele>670.0</ele><time>2026-04-05T12:21:47.971Z</time></trkpt><trkpt lat="44.9328297" lon="7.289843"><ele>672.0</ele><time>2026-04-05T12:21:48.971Z</time></trkpt><trkpt lat="44.9329083" lon="7.28975"><ele>674.0</ele><time>2026-04-05T12:21:50.971Z</time></trkpt><trkpt lat="44.9327944" lon="7.2897221"><ele>674.2</ele><time>2026-04-05T12:21:55.971Z</time></trkpt><trkpt lat="44.9326851" lon="7.2898093"><ele>674.4000000000001</ele><time>2026-04-05T12:21:57.971Z</time></trkpt><trkpt lat="44.9325968" lon="7.2898445"><ele>674.6</ele><time>2026-04-05T12:21:58.971Z</time></trkpt><trkpt lat="44.9325231" lon="7.2899114"><ele>674.8</ele><time>2026-04-05T12:21:59.971Z</time></trkpt><trkpt lat="44.9324606" lon="7.2899687"><ele>675.0</ele><time>2026-04-05T12:22:00.971Z</time></trkpt><trkpt lat="44.9324011" lon="7.290035"><ele>672.8</ele><time>2026-04-05T12:22:01.971Z</time></trkpt><trkpt lat="44.9323185" lon="7.2900982"><ele>670.6</ele><time>2026-04-05T12:22:02.971Z</time></trkpt><trkpt lat="44.9322364" lon="7.2901316"><ele>668.4000000000001</ele><time>2026-04-05T12:22:03.971Z</time></trkpt><trkpt lat="44.932129" lon="7.2901454"><ele>666.2</ele><time>2026-04-05T12:22:04.971Z</time></trkpt><trkpt lat="44.9320155" lon="7.2901469"><ele>664.0</ele><time>2026-04-05T12:22:05.971Z</time></trkpt><trkpt lat="44.9318985" lon="7.2901667"><ele>664.0</ele><time>2026-04-05T12:22:06.971Z</time></trkpt><trkpt lat="44.9317774" lon="7.2901937"><ele>664.0</ele><time>2026-04-05T12:22:07.971Z</time></trkpt><trkpt lat="44.9316797" lon="7.2902374"><ele>664.0</ele><time>2026-04-05T12:22:08.971Z</time></trkpt><trkpt lat="44.9316135" lon="7.2902764"><ele>664.0</ele><time>2026-04-05T12:22:09.972Z</time></trkpt><trkpt lat="44.9315484" lon="7.290303"><ele>664.0</ele><time>2026-04-05T12:22:10.971Z</time></trkpt><trkpt lat="44.9314507" lon="7.2902702"><ele>666.4000000000001</ele><time>2026-04-05T12:22:12.971Z</time></trkpt><trkpt lat="44.9314679" lon="7.2901484"><ele>668.8</ele><time>2026-04-05T12:22:14.971Z</time></trkpt><trkpt lat="44.9314921" lon="7.2900009"><ele>671.2</ele><time>2026-04-05T12:22:16.971Z</time></trkpt><trkpt lat="44.9314721" lon="7.2898661"><ele>673.5999999999999</ele><time>2026-04-05T12:22:18.971Z</time></trkpt><trkpt lat="44.9314603" lon="7.2896834"><ele>676.0</ele><time>2026-04-05T12:22:20.971Z</time></trkpt><trkpt lat="44.9314495" lon="7.2895821"><ele>679.8333333333334</ele><time>2026-04-05T12:22:21.971Z</time></trkpt><trkpt lat="44.9314267" lon="7.2894762"><ele>683.6666666666667</ele><time>2026-04-05T12:22:22.971Z</time></trkpt><trkpt lat="44.931406" lon="7.2893795"><ele>687.5</ele><time>2026-04-05T12:22:23.971Z</time></trkpt><trkpt lat="44.9313821" lon="7.2892815"><ele>691.3333333333334</ele><time>2026-04-05T12:22:24.971Z</time></trkpt><trkpt lat="44.9313345" lon="7.2891837"><ele>695.1666666666666</ele><time>2026-04-05T12:22:25.971Z</time></trkpt><trkpt lat="44.9312964" lon="7.2891018"><ele>699.0</ele><time>2026-04-05T12:22:26.971Z</time></trkpt><trkpt lat="44.9312166" lon="7.2889624"><ele>702.0</ele><time>2026-04-05T12:22:28.971Z</time></trkpt><trkpt lat="44.9311681" lon="7.2888894"><ele>705.0</ele><time>2026-04-05T12:22:29.972Z</time></trkpt><trkpt lat="44.9311253" lon="7.2888159"><ele>708.0</ele><time>2026-04-05T12:22:30.971Z</time></trkpt><trkpt lat="44.9310763" lon="7.288751"><ele>711.0</ele><time>2026-04-05T12:22:31.971Z</time></trkpt><trkpt lat="44.9310078" lon="7.2886969"><ele>714.0</ele><time>2026-04-05T12:22:32.971Z</time></trkpt><trkpt lat="44.9309049" lon="7.2887033"><ele>717.0</ele><time>2026-04-05T12:22:34.971Z</time></trkpt><trkpt lat="44.9308644" lon="7.2888293"><ele>712.8</ele><time>2026-04-05T12:22:36.971Z</time></trkpt><trkpt lat="44.9308074" lon="7.2890153"><ele>708.6</ele><time>2026-04-05T12:22:38.971Z</time></trkpt><trkpt lat="44.9307669" lon="7.2891211"><ele>704.4</ele><time>2026-04-05T12:22:39.971Z</time></trkpt><trkpt lat="44.930718" lon="7.2892245"><ele>700.1999999999999</ele><time>2026-04-05T12:22:40.971Z</time></trkpt><trkpt lat="44.9306518" lon="7.2893156"><ele>696.0</ele><time>2026-04-05T12:22:41.971Z</time></trkpt><trkpt lat="44.9305835" lon="7.2893986"><ele>696.0</ele><time>2026-04-05T12:22:42.971Z</time></trkpt><trkpt lat="44.9305201" lon="7.2895009"><ele>696.0</ele><time>2026-04-05T12:22:43.971Z</time></trkpt><trkpt lat="44.9304641" lon="7.2895718"><ele>696.0</ele><time>2026-04-05T12:22:44.971Z</time></trkpt><trkpt lat="44.9303867" lon="7.2896496"><ele>696.0</ele><time>2026-04-05T12:22:45.971Z</time></trkpt><trkpt lat="44.930318" lon="7.2896865"><ele>696.0</ele><time>2026-04-05T12:22:46.971Z</time></trkpt><trkpt lat="44.93025" lon="7.2897426"><ele>696.0</ele><time>2026-04-05T12:22:47.971Z</time></trkpt><trkpt lat="44.9301582" lon="7.2897959"><ele>698.4</ele><time>2026-04-05T12:22:48.971Z</time></trkpt><trkpt lat="44.9300719" lon="7.289857"><ele>700.8</ele><time>2026-04-05T12:22:49.971Z</time></trkpt><trkpt lat="44.9299921" lon="7.2899352"><ele>703.1999999999999</ele><time>2026-04-05T12:22:50.971Z</time></trkpt><trkpt lat="44.9299161" lon="7.2900467"><ele>705.5999999999999</ele><time>2026-04-05T12:22:51.971Z</time></trkpt><trkpt lat="44.9298462" lon="7.290159"><ele>708.0</ele><time>2026-04-05T12:22:52.971Z</time></trkpt><trkpt lat="44.9297883" lon="7.2902572"><ele>708.0</ele><time>2026-04-05T12:22:53.971Z</time></trkpt><trkpt lat="44.9297432" lon="7.2903703"><ele>708.0</ele><time>2026-04-05T12:22:54.971Z</time></trkpt><trkpt lat="44.929696" lon="7.2904804"><ele>708.0</ele><time>2026-04-05T12:22:55.971Z</time></trkpt><trkpt lat="44.9296329" lon="7.2905629"><ele>708.0</ele><time>2026-04-05T12:22:56.971Z</time></trkpt><trkpt lat="44.9295659" lon="7.2906322"><ele>708.0</ele><time>2026-04-05T12:22:57.971Z</time></trkpt><trkpt lat="44.9295015" lon="7.2907079"><ele>708.0</ele><time>2026-04-05T12:22:58.971Z</time></trkpt><trkpt lat="44.9294084" lon="7.2907811"><ele>709.8</ele><time>2026-04-05T12:22:59.971Z</time></trkpt><trkpt lat="44.9293329" lon="7.2908711"><ele>711.5999999999999</ele><time>2026-04-05T12:23:00.971Z</time></trkpt><trkpt lat="44.9292572" lon="7.2909665"><ele>713.4000000000001</ele><time>2026-04-05T12:23:01.971Z</time></trkpt><trkpt lat="44.929196" lon="7.2910494"><ele>715.2</ele><time>2026-04-05T12:23:02.971Z</time></trkpt><trkpt lat="44.9291568" lon="7.2911341"><ele>717.0</ele><time>2026-04-05T12:23:03.971Z</time></trkpt><trkpt lat="44.9290807" lon="7.2912255"><ele>717.0</ele><time>2026-04-05T12:23:05.971Z</time></trkpt><trkpt lat="44.9289892" lon="7.2912668"><ele>717.0</ele><time>2026-04-05T12:23:07.971Z</time></trkpt><trkpt lat="44.9289645" lon="7.2911708"><ele>717.0</ele><time>2026-04-05T12:23:09.971Z</time></trkpt><trkpt lat="44.9289988" lon="7.2910009"><ele>717.0</ele><time>2026-04-05T12:23:11.971Z</time></trkpt><trkpt lat="44.9290197" lon="7.2909023"><ele>717.0</ele><time>2026-04-05T12:23:12.971Z</time></trkpt><trkpt lat="44.929035" lon="7.2908041"><ele>717.0</ele><time>2026-04-05T12:23:13.971Z</time></trkpt><trkpt lat="44.9290503" lon="7.2907149"><ele>721.4000000000001</ele><time>2026-04-05T12:23:14.971Z</time></trkpt><trkpt lat="44.9290898" lon="7.2905809"><ele>725.8000000000001</ele><time>2026-04-05T12:23:16.971Z</time></trkpt><trkpt lat="44.9290691" lon="7.2904783"><ele>730.2</ele><time>2026-04-05T12:23:18.971Z</time></trkpt><trkpt lat="44.928969" lon="7.2905428"><ele>734.6</ele><time>2026-04-05T12:23:20.971Z</time></trkpt><trkpt lat="44.9288571" lon="7.2905565"><ele>739.0</ele><time>2026-04-05T12:23:22.971Z</time></trkpt><trkpt lat="44.9287655" lon="7.2904326"><ele>739.0</ele><time>2026-04-05T12:23:24.971Z</time></trkpt><trkpt lat="44.9287282" lon="7.2903339"><ele>739.0</ele><time>2026-04-05T12:23:25.971Z</time></trkpt><trkpt lat="44.9286931" lon="7.2902352"><ele>739.0</ele><time>2026-04-05T12:23:26.971Z</time></trkpt><trkpt lat="44.9286608" lon="7.290154"><ele>739.0</ele><time>2026-04-05T12:23:27.971Z</time></trkpt><trkpt lat="44.9286242" lon="7.2900793"><ele>739.0</ele><time>2026-04-05T12:23:28.971Z</time></trkpt><trkpt lat="44.9285578" lon="7.2899521"><ele>739.0</ele><time>2026-04-05T12:23:30.971Z</time></trkpt><trkpt lat="44.9285439" lon="7.2898369"><ele>739.0</ele><time>2026-04-05T12:23:32.971Z</time></trkpt><trkpt lat="44.9286307" lon="7.2897834"><ele>739.0</ele><time>2026-04-05T12:23:34.971Z</time></trkpt><trkpt lat="44.9287023" lon="7.2897948"><ele>739.0</ele><time>2026-04-05T12:23:35.971Z</time></trkpt><trkpt lat="44.9287926" lon="7.2898253"><ele>739.0</ele><time>2026-04-05T12:23:36.971Z</time></trkpt><trkpt lat="44.928881" lon="7.289826"><ele>739.0</ele><time>2026-04-05T12:23:37.971Z</time></trkpt><trkpt lat="44.928949" lon="7.2898106"><ele>739.0</ele><time>2026-04-05T12:23:38.971Z</time></trkpt><trkpt lat="44.9290233" lon="7.2897804"><ele>737.1666666666667</ele><time>2026-04-05T12:23:39.971Z</time></trkpt><trkpt lat="44.9290949" lon="7.2897349"><ele>735.3333333333334</ele><time>2026-04-05T12:23:40.971Z</time></trkpt><trkpt lat="44.9291497" lon="7.2896658"><ele>733.5</ele><time>2026-04-05T12:23:41.971Z</time></trkpt><trkpt lat="44.9292074" lon="7.2895787"><ele>731.6666666666666</ele><time>2026-04-05T12:23:42.971Z</time></trkpt><trkpt lat="44.9292741" lon="7.2894745"><ele>729.8333333333333</ele><time>2026-04-05T12:23:43.971Z</time></trkpt><trkpt lat="44.9293466" lon="7.289382"><ele>728.0</ele><time>2026-04-05T12:23:44.971Z</time></trkpt><trkpt lat="44.9294184" lon="7.2892669"><ele>728.0</ele><time>2026-04-05T12:23:45.971Z</time></trkpt><trkpt lat="44.9294708" lon="7.2891711"><ele>728.0</ele><time>2026-04-05T12:23:46.971Z</time></trkpt><trkpt lat="44.9295203" lon="7.2890749"><ele>728.0</ele><time>2026-04-05T12:23:47.971Z</time></trkpt><trkpt lat="44.929566" lon="7.2889833"><ele>728.0</ele><time>2026-04-05T12:23:48.971Z</time></trkpt><trkpt lat="44.9296143" lon="7.2888371"><ele>728.0</ele><time>2026-04-05T12:23:50.971Z</time></trkpt><trkpt lat="44.9296171" lon="7.2887456"><ele>728.0</ele><time>2026-04-05T12:23:52.971Z</time></trkpt><trkpt lat="44.929542" lon="7.2887759"><ele>728.0</ele><time>2026-04-05T12:23:55.971Z</time></trkpt><trkpt lat="44.9294679" lon="7.2888636"><ele>728.0</ele><time>2026-04-05T12:23:57.971Z</time></trkpt><trkpt lat="44.9294028" lon="7.2888761"><ele>728.0</ele><time>2026-04-05T12:23:58.971Z</time></trkpt><trkpt lat="44.9293127" lon="7.2889702"><ele>728.0</ele><time>2026-04-05T12:24:00.971Z</time></trkpt><trkpt lat="44.9292207" lon="7.2890905"><ele>728.0</ele><time>2026-04-05T12:24:02.971Z</time></trkpt><trkpt lat="44.9291174" lon="7.289128"><ele>733.4</ele><time>2026-04-05T12:24:04.971Z</time></trkpt><trkpt lat="44.929008" lon="7.2891062"><ele>738.8</ele><time>2026-04-05T12:24:06.971Z</time></trkpt><trkpt lat="44.928918" lon="7.289025"><ele>744.2</ele><time>2026-04-05T12:24:08.971Z</time></trkpt><trkpt lat="44.9289088" lon="7.2888825"><ele>749.6</ele><time>2026-04-05T12:24:10.971Z</time></trkpt><trkpt lat="44.9289822" lon="7.2887874"><ele>755.0</ele><time>2026-04-05T12:24:12.971Z</time></trkpt><trkpt lat="44.9290667" lon="7.2887444"><ele>757.8333333333333</ele><time>2026-04-05T12:24:13.971Z</time></trkpt><trkpt lat="44.9291181" lon="7.2886863"><ele>760.6666666666666</ele><time>2026-04-05T12:24:14.971Z</time></trkpt><trkpt lat="44.9291581" lon="7.2886167"><ele>763.5</ele><time>2026-04-05T12:24:15.971Z</time></trkpt><trkpt lat="44.9291947" lon="7.2885381"><ele>766.3333333333333</ele><time>2026-04-05T12:24:16.971Z</time></trkpt><trkpt lat="44.9292184" lon="7.2883619"><ele>769.1666666666666</ele><time>2026-04-05T12:24:18.972Z</time></trkpt><trkpt lat="44.9292036" lon="7.28822"><ele>772.0</ele><time>2026-04-05T12:24:20.971Z</time></trkpt><trkpt lat="44.9291581" lon="7.2881141"><ele>774.6666666666666</ele><time>2026-04-05T12:24:21.971Z</time></trkpt><trkpt lat="44.9290692" lon="7.2879606"><ele>777.3333333333333</ele><time>2026-04-05T12:24:23.971Z</time></trkpt><trkpt lat="44.9290236" lon="7.2878843"><ele>780.0</ele><time>2026-04-05T12:24:24.971Z</time></trkpt><trkpt lat="44.9289907" lon="7.2878038"><ele>782.6666666666667</ele><time>2026-04-05T12:24:25.971Z</time></trkpt><trkpt lat="44.9289566" lon="7.287727"><ele>785.3333333333334</ele><time>2026-04-05T12:24:26.971Z</time></trkpt><trkpt lat="44.9289801" lon="7.2876429"><ele>788.0</ele><time>2026-04-05T12:24:27.971Z</time></trkpt><trkpt lat="44.929041" lon="7.2874888"><ele>788.0</ele><time>2026-04-05T12:24:29.971Z</time></trkpt><trkpt lat="44.929102" lon="7.2873857"><ele>788.0</ele><time>2026-04-05T12:24:30.971Z</time></trkpt><trkpt lat="44.9291494" lon="7.2872611"><ele>788.0</ele><time>2026-04-05T12:24:31.971Z</time></trkpt><trkpt lat="44.9291642" lon="7.2871207"><ele>788.0</ele><time>2026-04-05T12:24:32.971Z</time></trkpt><trkpt lat="44.9291866" lon="7.2869715"><ele>788.0</ele><time>2026-04-05T12:24:33.971Z</time></trkpt><trkpt lat="44.9292094" lon="7.2868166"><ele>787.7142857142858</ele><time>2026-04-05T12:24:34.971Z</time></trkpt><trkpt lat="44.9292134" lon="7.2867056"><ele>787.4285714285714</ele><time>2026-04-05T12:24:35.971Z</time></trkpt><trkpt lat="44.9292269" lon="7.2865904"><ele>787.1428571428571</ele><time>2026-04-05T12:24:36.971Z</time></trkpt><trkpt lat="44.9292509" lon="7.2864967"><ele>786.8571428571429</ele><time>2026-04-05T12:24:37.971Z</time></trkpt><trkpt lat="44.9292841" lon="7.2864208"><ele>786.5714285714286</ele><time>2026-04-05T12:24:38.971Z</time></trkpt><trkpt lat="44.9293332" lon="7.2863565"><ele>786.2857142857143</ele><time>2026-04-05T12:24:39.971Z</time></trkpt><trkpt lat="44.9294069" lon="7.2863212"><ele>786.0</ele><time>2026-04-05T12:24:40.971Z</time></trkpt><trkpt lat="44.9294844" lon="7.2862781"><ele>787.3333333333334</ele><time>2026-04-05T12:24:41.971Z</time></trkpt><trkpt lat="44.9295492" lon="7.2862186"><ele>788.6666666666667</ele><time>2026-04-05T12:24:42.971Z</time></trkpt><trkpt lat="44.9295828" lon="7.2861107"><ele>790.0</ele><time>2026-04-05T12:24:43.971Z</time></trkpt><trkpt lat="44.9295958" lon="7.2860196"><ele>791.3333333333334</ele><time>2026-04-05T12:24:44.971Z</time></trkpt><trkpt lat="44.9295716" lon="7.2859155"><ele>792.6666666666667</ele><time>2026-04-05T12:24:45.971Z</time></trkpt><trkpt lat="44.9295207" lon="7.2857765"><ele>794.0</ele><time>2026-04-05T12:24:47.971Z</time></trkpt><trkpt lat="44.929406" lon="7.2857228"><ele>794.0</ele><time>2026-04-05T12:24:49.971Z</time></trkpt><trkpt lat="44.9292811" lon="7.2857767"><ele>794.0</ele><time>2026-04-05T12:24:51.971Z</time></trkpt><trkpt lat="44.9292162" lon="7.2858401"><ele>794.0</ele><time>2026-04-05T12:24:52.971Z</time></trkpt><trkpt lat="44.9291549" lon="7.285888"><ele>794.0</ele><time>2026-04-05T12:24:53.971Z</time></trkpt><trkpt lat="44.9290481" lon="7.2859782"><ele>794.0</ele><time>2026-04-05T12:24:55.971Z</time></trkpt><trkpt lat="44.9289931" lon="7.2860335"><ele>797.4000000000001</ele><time>2026-04-05T12:24:56.971Z</time></trkpt><trkpt lat="44.928912" lon="7.2861415"><ele>800.8</ele><time>2026-04-05T12:24:58.971Z</time></trkpt><trkpt lat="44.9288429" lon="7.2861958"><ele>804.2</ele><time>2026-04-05T12:25:00.971Z</time></trkpt><trkpt lat="44.9287576" lon="7.2861752"><ele>807.5999999999999</ele><time>2026-04-05T12:25:02.971Z</time></trkpt><trkpt lat="44.92871" lon="7.2860659"><ele>811.0</ele><time>2026-04-05T12:25:04.971Z</time></trkpt><trkpt lat="44.9286795" lon="7.2859039"><ele>811.0</ele><time>2026-04-05T12:25:06.971Z</time></trkpt><trkpt lat="44.9286633" lon="7.2857548"><ele>811.0</ele><time>2026-04-05T12:25:08.971Z</time></trkpt><trkpt lat="44.9286612" lon="7.2856228"><ele>811.0</ele><time>2026-04-05T12:25:10.971Z</time></trkpt><trkpt lat="44.9286657" lon="7.2854783"><ele>811.0</ele><time>2026-04-05T12:25:12.971Z</time></trkpt><trkpt lat="44.9286776" lon="7.2853539"><ele>811.0</ele><time>2026-04-05T12:25:14.971Z</time></trkpt><trkpt lat="44.9286646" lon="7.2852348"><ele>813.3333333333333</ele><time>2026-04-05T12:25:16.971Z</time></trkpt><trkpt lat="44.9286026" lon="7.2851969"><ele>815.6666666666666</ele><time>2026-04-05T12:25:18.971Z</time></trkpt><trkpt lat="44.9285259" lon="7.2851626"><ele>818.0</ele><time>2026-04-05T12:25:20.971Z</time></trkpt><trkpt lat="44.9284362" lon="7.2851382"><ele>820.3333333333333</ele><time>2026-04-05T12:25:21.971Z</time></trkpt><trkpt lat="44.9283738" lon="7.2851036"><ele>822.6666666666666</ele><time>2026-04-05T12:25:22.971Z</time></trkpt><trkpt lat="44.9283053" lon="7.2850426"><ele>825.0</ele><time>2026-04-05T12:25:23.971Z</time></trkpt><trkpt lat="44.928205" lon="7.2849439"><ele>827.6</ele><time>2026-04-05T12:25:25.971Z</time></trkpt><trkpt lat="44.928107" lon="7.2848613"><ele>830.2</ele><time>2026-04-05T12:25:27.971Z</time></trkpt><trkpt lat="44.928011" lon="7.2848141"><ele>832.8</ele><time>2026-04-05T12:25:29.971Z</time></trkpt><trkpt lat="44.9279227" lon="7.2847735"><ele>835.4</ele><time>2026-04-05T12:25:31.971Z</time></trkpt><trkpt lat="44.9278753" lon="7.2847131"><ele>838.0</ele><time>2026-04-05T12:25:33.971Z</time></trkpt><trkpt lat="44.9279355" lon="7.2846432"><ele>839.8</ele><time>2026-04-05T12:25:37.971Z</time></trkpt><trkpt lat="44.9280203" lon="7.284681"><ele>841.5999999999999</ele><time>2026-04-05T12:25:39.971Z</time></trkpt><trkpt lat="44.9281311" lon="7.2846655"><ele>843.4000000000001</ele><time>2026-04-05T12:25:41.971Z</time></trkpt><trkpt lat="44.9282656" lon="7.2846416"><ele>845.2</ele><time>2026-04-05T12:25:43.971Z</time></trkpt><trkpt lat="44.9283497" lon="7.2846163"><ele>847.0</ele><time>2026-04-05T12:25:44.971Z</time></trkpt><trkpt lat="44.9284144" lon="7.2846101"><ele>846.9999999999999</ele><time>2026-04-05T12:25:45.971Z</time></trkpt><trkpt lat="44.9285439" lon="7.2845629"><ele>847.0</ele><time>2026-04-05T12:25:47.971Z</time></trkpt><trkpt lat="44.9286225" lon="7.2844744"><ele>847.0</ele><time>2026-04-05T12:25:49.972Z</time></trkpt><trkpt lat="44.9286564" lon="7.2843899"><ele>847.0</ele><time>2026-04-05T12:25:51.971Z</time></trkpt><trkpt lat="44.928635" lon="7.2842962"><ele>846.9999999999999</ele><time>2026-04-05T12:25:55.971Z</time></trkpt><trkpt lat="44.9285752" lon="7.2843393"><ele>847.0</ele><time>2026-04-05T12:25:59.971Z</time></trkpt><trkpt lat="44.9285002" lon="7.2843723"><ele>851.2</ele><time>2026-04-05T12:26:01.971Z</time></trkpt><trkpt lat="44.9283921" lon="7.2844065"><ele>855.4000000000001</ele><time>2026-04-05T12:26:03.971Z</time></trkpt><trkpt lat="44.9282842" lon="7.2844182"><ele>859.5999999999999</ele><time>2026-04-05T12:26:05.971Z</time></trkpt><trkpt lat="44.9281967" lon="7.2843877"><ele>863.8</ele><time>2026-04-05T12:26:07.971Z</time></trkpt><trkpt lat="44.9282101" lon="7.2842942"><ele>868.0</ele><time>2026-04-05T12:26:11.971Z</time></trkpt><trkpt lat="44.9282916" lon="7.2842523"><ele>868.0</ele><time>2026-04-05T12:26:17.971Z</time></trkpt><trkpt lat="44.9283541" lon="7.2841913"><ele>868.0</ele><time>2026-04-05T12:26:18.971Z</time></trkpt><trkpt lat="44.9284184" lon="7.2841612"><ele>868.0</ele><time>2026-04-05T12:26:19.971Z</time></trkpt><trkpt lat="44.9284858" lon="7.2840527"><ele>868.0</ele><time>2026-04-05T12:26:21.971Z</time></trkpt><trkpt lat="44.9285079" lon="7.2838524"><ele>868.0</ele><time>2026-04-05T12:26:23.971Z</time></trkpt><trkpt lat="44.9285078" lon="7.2837526"><ele>866.8333333333333</ele><time>2026-04-05T12:26:24.971Z</time></trkpt><trkpt lat="44.9285007" lon="7.2836301"><ele>865.6666666666666</ele><time>2026-04-05T12:26:25.971Z</time></trkpt><trkpt lat="44.9284972" lon="7.2835349"><ele>864.5</ele><time>2026-04-05T12:26:26.971Z</time></trkpt><trkpt lat="44.928502" lon="7.2834264"><ele>863.3333333333333</ele><time>2026-04-05T12:26:27.971Z</time></trkpt><trkpt lat="44.9285145" lon="7.283316"><ele>862.1666666666666</ele><time>2026-04-05T12:26:28.971Z</time></trkpt><trkpt lat="44.9285265" lon="7.2832013"><ele>861.0</ele><time>2026-04-05T12:26:29.971Z</time></trkpt><trkpt lat="44.9285352" lon="7.283077"><ele>864.0</ele><time>2026-04-05T12:26:30.971Z</time></trkpt><trkpt lat="44.9285398" lon="7.2829625"><ele>867.0</ele><time>2026-04-05T12:26:31.971Z</time></trkpt><trkpt lat="44.9285473" lon="7.2828411"><ele>870.0</ele><time>2026-04-05T12:26:32.971Z</time></trkpt><trkpt lat="44.9285307" lon="7.2827274"><ele>873.0</ele><time>2026-04-05T12:26:33.971Z</time></trkpt><trkpt lat="44.9285141" lon="7.2826183"><ele>876.0</ele><time>2026-04-05T12:26:34.971Z</time></trkpt><trkpt lat="44.9285039" lon="7.2825216"><ele>879.0</ele><time>2026-04-05T12:26:35.971Z</time></trkpt><trkpt lat="44.9285004" lon="7.2824218"><ele>879.0</ele><time>2026-04-05T12:26:36.971Z</time></trkpt><trkpt lat="44.9285354" lon="7.2822893"><ele>879.0</ele><time>2026-04-05T12:26:38.971Z</time></trkpt><trkpt lat="44.9285866" lon="7.2822178"><ele>879.0</ele><time>2026-04-05T12:26:39.972Z</time></trkpt><trkpt lat="44.9286559" lon="7.2821549"><ele>879.0</ele><time>2026-04-05T12:26:40.971Z</time></trkpt><trkpt lat="44.9287128" lon="7.2820981"><ele>879.0</ele><time>2026-04-05T12:26:41.971Z</time></trkpt><trkpt lat="44.9287786" lon="7.2820514"><ele>879.0</ele><time>2026-04-05T12:26:42.971Z</time></trkpt><trkpt lat="44.9288384" lon="7.2819942"><ele>881.6666666666666</ele><time>2026-04-05T12:26:43.971Z</time></trkpt><trkpt lat="44.9289055" lon="7.2819146"><ele>884.3333333333333</ele><time>2026-04-05T12:26:44.971Z</time></trkpt><trkpt lat="44.92901" lon="7.2817869"><ele>887.0</ele><time>2026-04-05T12:26:46.971Z</time></trkpt><trkpt lat="44.9290572" lon="7.2817048"><ele>889.6666666666666</ele><time>2026-04-05T12:26:48.971Z</time></trkpt><trkpt lat="44.9290091" lon="7.281632"><ele>892.3333333333333</ele><time>2026-04-05T12:26:52.971Z</time></trkpt><trkpt lat="44.9289461" lon="7.281649"><ele>895.0</ele><time>2026-04-05T12:26:55.971Z</time></trkpt><trkpt lat="44.9288814" lon="7.2816681"><ele>895.0</ele><time>2026-04-05T12:26:56.971Z</time></trkpt><trkpt lat="44.9287646" lon="7.2817102"><ele>895.0</ele><time>2026-04-05T12:26:58.971Z</time></trkpt><trkpt lat="44.9287017" lon="7.281743"><ele>895.0</ele><time>2026-04-05T12:26:59.971Z</time></trkpt><trkpt lat="44.9285908" lon="7.2817771"><ele>895.0</ele><time>2026-04-05T12:27:01.971Z</time></trkpt><trkpt lat="44.9284663" lon="7.2818249"><ele>895.0</ele><time>2026-04-05T12:27:03.971Z</time></trkpt><trkpt lat="44.9283538" lon="7.2818383"><ele>895.0</ele><time>2026-04-05T12:27:05.971Z</time></trkpt><trkpt lat="44.9282536" lon="7.2819152"><ele>895.0</ele><time>2026-04-05T12:27:07.971Z</time></trkpt><trkpt lat="44.92817" lon="7.2820351"><ele>895.0</ele><time>2026-04-05T12:27:09.971Z</time></trkpt><trkpt lat="44.9281252" lon="7.2821266"><ele>895.0</ele><time>2026-04-05T12:27:10.971Z</time></trkpt><trkpt lat="44.9280795" lon="7.2822113"><ele>895.0</ele><time>2026-04-05T12:27:11.971Z</time></trkpt><trkpt lat="44.9280312" lon="7.2823008"><ele>894.9999999999999</ele><time>2026-04-05T12:27:12.971Z</time></trkpt><trkpt lat="44.927987" lon="7.2823749"><ele>895.0</ele><time>2026-04-05T12:27:13.971Z</time></trkpt><trkpt lat="44.9279152" lon="7.2824623"><ele>895.0</ele><time>2026-04-05T12:27:15.971Z</time></trkpt><trkpt lat="44.9278245" lon="7.2825397"><ele>895.0</ele><time>2026-04-05T12:27:17.971Z</time></trkpt><trkpt lat="44.9277523" lon="7.2825748"><ele>894.9999999999999</ele><time>2026-04-05T12:27:18.971Z</time></trkpt><trkpt lat="44.927689" lon="7.2825957"><ele>895.0</ele><time>2026-04-05T12:27:19.971Z</time></trkpt><trkpt lat="44.9276256" lon="7.2826188"><ele>898.1666666666666</ele><time>2026-04-05T12:27:20.971Z</time></trkpt><trkpt lat="44.9275536" lon="7.2826128"><ele>901.3333333333333</ele><time>2026-04-05T12:27:21.971Z</time></trkpt><trkpt lat="44.9274886" lon="7.2826177"><ele>904.5</ele><time>2026-04-05T12:27:22.971Z</time></trkpt><trkpt lat="44.9274084" lon="7.2825958"><ele>907.6666666666667</ele><time>2026-04-05T12:27:23.971Z</time></trkpt><trkpt lat="44.9273412" lon="7.2825699"><ele>910.8333333333334</ele><time>2026-04-05T12:27:24.971Z</time></trkpt><trkpt lat="44.92723" lon="7.28251"><ele>914.0</ele><time>2026-04-05T12:27:26.971Z</time></trkpt><trkpt lat="44.9271763" lon="7.2824574"><ele>914.0</ele><time>2026-04-05T12:27:27.971Z</time></trkpt><trkpt lat="44.927122" lon="7.2824081"><ele>914.0000000000001</ele><time>2026-04-05T12:27:28.971Z</time></trkpt><trkpt lat="44.9270204" lon="7.282327"><ele>914.0000000000001</ele><time>2026-04-05T12:27:30.971Z</time></trkpt><trkpt lat="44.9269081" lon="7.2822169"><ele>914.0</ele><time>2026-04-05T12:27:32.971Z</time></trkpt><trkpt lat="44.9268544" lon="7.2821504"><ele>914.0</ele><time>2026-04-05T12:27:33.971Z</time></trkpt><trkpt lat="44.9267915" lon="7.2820942"><ele>915.3333333333334</ele><time>2026-04-05T12:27:34.971Z</time></trkpt><trkpt lat="44.9267357" lon="7.2820341"><ele>916.6666666666667</ele><time>2026-04-05T12:27:35.971Z</time></trkpt><trkpt lat="44.9266607" lon="7.2819707"><ele>918.0</ele><time>2026-04-05T12:27:36.971Z</time></trkpt><trkpt lat="44.9265985" lon="7.2819177"><ele>919.3333333333333</ele><time>2026-04-05T12:27:37.971Z</time></trkpt><trkpt lat="44.9265291" lon="7.2818608"><ele>920.6666666666666</ele><time>2026-04-05T12:27:38.971Z</time></trkpt><trkpt lat="44.9264656" lon="7.2817966"><ele>922.0</ele><time>2026-04-05T12:27:39.971Z</time></trkpt><trkpt lat="44.9263608" lon="7.2816655"><ele>922.0</ele><time>2026-04-05T12:27:41.971Z</time></trkpt><trkpt lat="44.9263034" lon="7.2815874"><ele>922.0000000000001</ele><time>2026-04-05T12:27:42.971Z</time></trkpt><trkpt lat="44.9262395" lon="7.2815108"><ele>922.0</ele><time>2026-04-05T12:27:43.971Z</time></trkpt><trkpt lat="44.9261806" lon="7.2814489"><ele>922.0</ele><time>2026-04-05T12:27:44.971Z</time></trkpt><trkpt lat="44.9261283" lon="7.2813837"><ele>922.0000000000001</ele><time>2026-04-05T12:27:45.971Z</time></trkpt><trkpt lat="44.9260702" lon="7.2813215"><ele>922.0</ele><time>2026-04-05T12:27:46.971Z</time></trkpt><trkpt lat="44.9260199" lon="7.2812547"><ele>922.0</ele><time>2026-04-05T12:27:47.971Z</time></trkpt><trkpt lat="44.9259555" lon="7.281188"><ele>921.1428571428572</ele><time>2026-04-05T12:27:48.971Z</time></trkpt><trkpt lat="44.9258985" lon="7.2811233"><ele>920.2857142857144</ele><time>2026-04-05T12:27:49.971Z</time></trkpt><trkpt lat="44.9258415" lon="7.2810559"><ele>919.4285714285714</ele><time>2026-04-05T12:27:50.971Z</time></trkpt><trkpt lat="44.9257901" lon="7.2809816"><ele>918.5714285714287</ele><time>2026-04-05T12:27:51.971Z</time></trkpt><trkpt lat="44.9257382" lon="7.2809073"><ele>917.7142857142858</ele><time>2026-04-05T12:27:52.971Z</time></trkpt><trkpt lat="44.9256904" lon="7.2808485"><ele>916.8571428571429</ele><time>2026-04-05T12:27:53.971Z</time></trkpt><trkpt lat="44.9256419" lon="7.2807891"><ele>916.0</ele><time>2026-04-05T12:27:54.971Z</time></trkpt><trkpt lat="44.9255927" lon="7.2806994"><ele>916.0</ele><time>2026-04-05T12:27:55.971Z</time></trkpt><trkpt lat="44.9255086" lon="7.2806237"><ele>915.9999999999999</ele><time>2026-04-05T12:27:57.971Z</time></trkpt><trkpt lat="44.9254287" lon="7.2806186"><ele>915.9999999999999</ele><time>2026-04-05T12:27:59.971Z</time></trkpt><trkpt lat="44.9253338" lon="7.2806562"><ele>916.0</ele><time>2026-04-05T12:28:01.971Z</time></trkpt><trkpt lat="44.925237" lon="7.2806785"><ele>916.0</ele><time>2026-04-05T12:28:03.971Z</time></trkpt><trkpt lat="44.9251589" lon="7.2806018"><ele>922.4</ele><time>2026-04-05T12:28:05.971Z</time></trkpt><trkpt lat="44.9250743" lon="7.2805558"><ele>928.8</ele><time>2026-04-05T12:28:07.971Z</time></trkpt><trkpt lat="44.9249767" lon="7.2804919"><ele>935.1999999999999</ele><time>2026-04-05T12:28:09.971Z</time></trkpt><trkpt lat="44.9248995" lon="7.2804273"><ele>941.5999999999999</ele><time>2026-04-05T12:28:11.971Z</time></trkpt><trkpt lat="44.9248214" lon="7.2804701"><ele>948.0</ele><time>2026-04-05T12:28:13.971Z</time></trkpt><trkpt lat="44.9247381" lon="7.2805139"><ele>948.0</ele><time>2026-04-05T12:28:15.971Z</time></trkpt><trkpt lat="44.9246357" lon="7.280495"><ele>948.0</ele><time>2026-04-05T12:28:17.971Z</time></trkpt><trkpt lat="44.9245192" lon="7.2804383"><ele>948.0</ele><time>2026-04-05T12:28:19.971Z</time></trkpt><trkpt lat="44.9244147" lon="7.2803451"><ele>948.0</ele><time>2026-04-05T12:28:21.971Z</time></trkpt><trkpt lat="44.9243585" lon="7.2802878"><ele>948.0</ele><time>2026-04-05T12:28:22.971Z</time></trkpt><trkpt lat="44.9243091" lon="7.2802288"><ele>947.9999999999999</ele><time>2026-04-05T12:28:23.971Z</time></trkpt><trkpt lat="44.9242611" lon="7.2801642"><ele>948.0</ele><time>2026-04-05T12:28:24.971Z</time></trkpt><trkpt lat="44.9242078" lon="7.2800893"><ele>947.9999999999999</ele><time>2026-04-05T12:28:25.971Z</time></trkpt><trkpt lat="44.9241554" lon="7.2800193"><ele>947.9999999999999</ele><time>2026-04-05T12:28:26.971Z</time></trkpt><trkpt lat="44.9241125" lon="7.2799528"><ele>948.0</ele><time>2026-04-05T12:28:27.971Z</time></trkpt><trkpt lat="44.9240675" lon="7.2798853"><ele>947.9999999999999</ele><time>2026-04-05T12:28:28.971Z</time></trkpt><trkpt lat="44.9240212" lon="7.2798136"><ele>947.9999999999999</ele><time>2026-04-05T12:28:29.971Z</time></trkpt><trkpt lat="44.9239725" lon="7.279749"><ele>947.8333333333334</ele><time>2026-04-05T12:28:30.971Z</time></trkpt><trkpt lat="44.923925" lon="7.2796869"><ele>947.6666666666667</ele><time>2026-04-05T12:28:31.971Z</time></trkpt><trkpt lat="44.9238412" lon="7.2795636"><ele>947.5</ele><time>2026-04-05T12:28:33.971Z</time></trkpt><trkpt lat="44.923769" lon="7.2794208"><ele>947.3333333333334</ele><time>2026-04-05T12:28:35.971Z</time></trkpt><trkpt lat="44.9237302" lon="7.2793507"><ele>947.1666666666667</ele><time>2026-04-05T12:28:36.971Z</time></trkpt><trkpt lat="44.9236897" lon="7.2792746"><ele>947.0</ele><time>2026-04-05T12:28:37.971Z</time></trkpt><trkpt lat="44.9236474" lon="7.2791989"><ele>947.0000000000001</ele><time>2026-04-05T12:28:38.971Z</time></trkpt><trkpt lat="44.9235981" lon="7.2791297"><ele>947.0</ele><time>2026-04-05T12:28:39.971Z</time></trkpt><trkpt lat="44.9234909" lon="7.2790278"><ele>947.0</ele><time>2026-04-05T12:28:41.971Z</time></trkpt><trkpt lat="44.923421" lon="7.2789728"><ele>947.0</ele><time>2026-04-05T12:28:42.971Z</time></trkpt><trkpt lat="44.923363" lon="7.2789272"><ele>947.0000000000001</ele><time>2026-04-05T12:28:43.971Z</time></trkpt><trkpt lat="44.9232943" lon="7.2788772"><ele>947.0</ele><time>2026-04-05T12:28:44.971Z</time></trkpt><trkpt lat="44.9232397" lon="7.2788312"><ele>946.0</ele><time>2026-04-05T12:28:45.971Z</time></trkpt><trkpt lat="44.9231366" lon="7.2787473"><ele>945.0</ele><time>2026-04-05T12:28:47.971Z</time></trkpt><trkpt lat="44.9230389" lon="7.2786349"><ele>944.0</ele><time>2026-04-05T12:28:49.971Z</time></trkpt><trkpt lat="44.9229626" lon="7.2785196"><ele>943.0</ele><time>2026-04-05T12:28:51.971Z</time></trkpt><trkpt lat="44.9229201" lon="7.278453"><ele>942.0</ele><time>2026-04-05T12:28:52.971Z</time></trkpt><trkpt lat="44.9228891" lon="7.2783614"><ele>942.0</ele><time>2026-04-05T12:28:53.971Z</time></trkpt><trkpt lat="44.922845" lon="7.2782778"><ele>942.0</ele><time>2026-04-05T12:28:54.971Z</time></trkpt><trkpt lat="44.9228193" lon="7.2781846"><ele>942.0</ele><time>2026-04-05T12:28:55.972Z</time></trkpt><trkpt lat="44.9227582" lon="7.2780756"><ele>942.0</ele><time>2026-04-05T12:28:57.971Z</time></trkpt><trkpt lat="44.9227006" lon="7.2780306"><ele>942.0</ele><time>2026-04-05T12:29:26.971Z</time></trkpt><trkpt lat="44.9226173" lon="7.2780409"><ele>942.0</ele><time>2026-04-05T12:29:28.971Z</time></trkpt><trkpt lat="44.9225306" lon="7.2780415"><ele>942.0</ele><time>2026-04-05T12:29:30.971Z</time></trkpt><trkpt lat="44.9224364" lon="7.2780239"><ele>942.0</ele><time>2026-04-05T12:29:32.971Z</time></trkpt><trkpt lat="44.9223411" lon="7.2779436"><ele>942.0</ele><time>2026-04-05T12:29:34.971Z</time></trkpt><trkpt lat="44.922267" lon="7.2777993"><ele>942.0</ele><time>2026-04-05T12:29:36.971Z</time></trkpt><trkpt lat="44.9222356" lon="7.2777026"><ele>942.0</ele><time>2026-04-05T12:29:37.971Z</time></trkpt><trkpt lat="44.9221976" lon="7.277614"><ele>942.0000000000001</ele><time>2026-04-05T12:29:38.971Z</time></trkpt><trkpt lat="44.9221561" lon="7.277547"><ele>942.0</ele><time>2026-04-05T12:29:39.971Z</time></trkpt><trkpt lat="44.9221089" lon="7.2774851"><ele>942.0000000000001</ele><time>2026-04-05T12:29:40.971Z</time></trkpt><trkpt lat="44.9220487" lon="7.2774341"><ele>942.0000000000001</ele><time>2026-04-05T12:29:41.971Z</time></trkpt><trkpt lat="44.9219849" lon="7.2773851"><ele>942.0</ele><time>2026-04-05T12:29:42.971Z</time></trkpt><trkpt lat="44.9219206" lon="7.2773345"><ele>942.0000000000001</ele><time>2026-04-05T12:29:43.971Z</time></trkpt><trkpt lat="44.9218324" lon="7.2772901"><ele>942.0000000000001</ele><time>2026-04-05T12:29:44.971Z</time></trkpt><trkpt lat="44.9217584" lon="7.2772495"><ele>941.0000000000001</ele><time>2026-04-05T12:29:45.971Z</time></trkpt><trkpt lat="44.9216899" lon="7.2771921"><ele>940.0</ele><time>2026-04-05T12:29:46.971Z</time></trkpt><trkpt lat="44.9216181" lon="7.2771467"><ele>939.0000000000001</ele><time>2026-04-05T12:29:47.971Z</time></trkpt><trkpt lat="44.9215368" lon="7.2771059"><ele>938.0000000000001</ele><time>2026-04-05T12:29:48.971Z</time></trkpt><trkpt lat="44.9214862" lon="7.2770509"><ele>937.0</ele><time>2026-04-05T12:29:49.971Z</time></trkpt><trkpt lat="44.9214402" lon="7.276989"><ele>936.0000000000001</ele><time>2026-04-05T12:29:50.971Z</time></trkpt><trkpt lat="44.921395" lon="7.2769253"><ele>935.0000000000001</ele><time>2026-04-05T12:29:51.971Z</time></trkpt><trkpt lat="44.9213422" lon="7.2768497"><ele>935.0000000000001</ele><time>2026-04-05T12:29:52.971Z</time></trkpt><trkpt lat="44.9212967" lon="7.2767701"><ele>935.0</ele><time>2026-04-05T12:29:53.971Z</time></trkpt><trkpt lat="44.9212492" lon="7.2767105"><ele>935.0</ele><time>2026-04-05T12:29:54.971Z</time></trkpt><trkpt lat="44.9211898" lon="7.2766649"><ele>935.0</ele><time>2026-04-05T12:29:55.971Z</time></trkpt><trkpt lat="44.9210738" lon="7.2766631"><ele>935.0000000000001</ele><time>2026-04-05T12:29:57.971Z</time></trkpt><trkpt lat="44.9210174" lon="7.2767033"><ele>935.0</ele><time>2026-04-05T12:29:58.971Z</time></trkpt><trkpt lat="44.9209559" lon="7.2767821"><ele>935.6</ele><time>2026-04-05T12:29:59.971Z</time></trkpt><trkpt lat="44.9208883" lon="7.2768821"><ele>936.2</ele><time>2026-04-05T12:30:00.971Z</time></trkpt><trkpt lat="44.9208239" lon="7.2769871"><ele>936.8</ele><time>2026-04-05T12:30:01.971Z</time></trkpt><trkpt lat="44.9207662" lon="7.2771016"><ele>937.4</ele><time>2026-04-05T12:30:02.971Z</time></trkpt><trkpt lat="44.9207063" lon="7.2771995"><ele>938.0</ele><time>2026-04-05T12:30:03.971Z</time></trkpt><trkpt lat="44.9206345" lon="7.2772883"><ele>940.2</ele><time>2026-04-05T12:30:04.971Z</time></trkpt><trkpt lat="44.9205601" lon="7.2773865"><ele>942.4</ele><time>2026-04-05T12:30:05.971Z</time></trkpt><trkpt lat="44.9205014" lon="7.2774944"><ele>944.6000000000001</ele><time>2026-04-05T12:30:06.971Z</time></trkpt><trkpt lat="44.9204505" lon="7.2776112"><ele>946.8000000000001</ele><time>2026-04-05T12:30:07.971Z</time></trkpt><trkpt lat="44.9204186" lon="7.2777167"><ele>949.0</ele><time>2026-04-05T12:30:08.971Z</time></trkpt><trkpt lat="44.9203857" lon="7.2778298"><ele>949.0</ele><time>2026-04-05T12:30:09.971Z</time></trkpt><trkpt lat="44.9203283" lon="7.277925"><ele>949.0000000000001</ele><time>2026-04-05T12:30:10.971Z</time></trkpt><trkpt lat="44.9202582" lon="7.2780107"><ele>949.0000000000001</ele><time>2026-04-05T12:30:11.971Z</time></trkpt><trkpt lat="44.9201765" lon="7.2780806"><ele>949.0</ele><time>2026-04-05T12:30:12.971Z</time></trkpt><trkpt lat="44.9200918" lon="7.2781279"><ele>949.0</ele><time>2026-04-05T12:30:13.971Z</time></trkpt><trkpt lat="44.9200028" lon="7.2781872"><ele>950.2</ele><time>2026-04-05T12:30:14.971Z</time></trkpt><trkpt lat="44.9199062" lon="7.2782514"><ele>951.4000000000001</ele><time>2026-04-05T12:30:15.971Z</time></trkpt><trkpt lat="44.9198135" lon="7.278331"><ele>952.6</ele><time>2026-04-05T12:30:16.971Z</time></trkpt><trkpt lat="44.9197182" lon="7.2783935"><ele>953.8</ele><time>2026-04-05T12:30:17.971Z</time></trkpt><trkpt lat="44.9196191" lon="7.2784376"><ele>955.0</ele><time>2026-04-05T12:30:18.971Z</time></trkpt><trkpt lat="44.9195274" lon="7.2784807"><ele>955.0</ele><time>2026-04-05T12:30:19.971Z</time></trkpt><trkpt lat="44.9194419" lon="7.2785305"><ele>955.0</ele><time>2026-04-05T12:30:20.971Z</time></trkpt><trkpt lat="44.9193617" lon="7.2786008"><ele>955.0</ele><time>2026-04-05T12:30:21.971Z</time></trkpt><trkpt lat="44.9192923" lon="7.2786901"><ele>955.0</ele><time>2026-04-05T12:30:22.971Z</time></trkpt><trkpt lat="44.9192236" lon="7.2787808"><ele>955.0</ele><time>2026-04-05T12:30:23.971Z</time></trkpt><trkpt lat="44.9191593" lon="7.2788846"><ele>955.2</ele><time>2026-04-05T12:30:24.971Z</time></trkpt><trkpt lat="44.919088" lon="7.2790007"><ele>955.4</ele><time>2026-04-05T12:30:25.971Z</time></trkpt><trkpt lat="44.9190341" lon="7.2791304"><ele>955.5999999999999</ele><time>2026-04-05T12:30:26.971Z</time></trkpt><trkpt lat="44.9189919" lon="7.2792209"><ele>955.8</ele><time>2026-04-05T12:30:27.971Z</time></trkpt><trkpt lat="44.9189504" lon="7.279326"><ele>956.0</ele><time>2026-04-05T12:30:28.971Z</time></trkpt><trkpt lat="44.9189043" lon="7.279439"><ele>956.0000000000001</ele><time>2026-04-05T12:30:29.971Z</time></trkpt><trkpt lat="44.9188644" lon="7.2795359"><ele>956.0</ele><time>2026-04-05T12:30:30.971Z</time></trkpt><trkpt lat="44.9188121" lon="7.2796189"><ele>956.0</ele><time>2026-04-05T12:30:31.971Z</time></trkpt><trkpt lat="44.9187678" lon="7.2796844"><ele>956.0</ele><time>2026-04-05T12:30:32.971Z</time></trkpt><trkpt lat="44.9186737" lon="7.2797419"><ele>956.0000000000001</ele><time>2026-04-05T12:30:34.971Z</time></trkpt><trkpt lat="44.9185568" lon="7.2797047"><ele>956.0</ele><time>2026-04-05T12:30:36.971Z</time></trkpt><trkpt lat="44.918478" lon="7.2796507"><ele>956.5000000000001</ele><time>2026-04-05T12:30:37.971Z</time></trkpt><trkpt lat="44.9183942" lon="7.2795824"><ele>957.0</ele><time>2026-04-05T12:30:38.971Z</time></trkpt><trkpt lat="44.9183249" lon="7.2795212"><ele>957.5</ele><time>2026-04-05T12:30:39.971Z</time></trkpt><trkpt lat="44.9182605" lon="7.279465"><ele>958.0</ele><time>2026-04-05T12:30:40.971Z</time></trkpt><trkpt lat="44.9181892" lon="7.279395"><ele>958.5000000000001</ele><time>2026-04-05T12:30:41.971Z</time></trkpt><trkpt lat="44.9181276" lon="7.2793327"><ele>959.0</ele><time>2026-04-05T12:30:42.971Z</time></trkpt><trkpt lat="44.918071" lon="7.2792481"><ele>959.0000000000001</ele><time>2026-04-05T12:30:43.971Z</time></trkpt><trkpt lat="44.9180099" lon="7.2791471"><ele>959.0</ele><time>2026-04-05T12:30:44.971Z</time></trkpt><trkpt lat="44.9179499" lon="7.2790524"><ele>959.0</ele><time>2026-04-05T12:30:45.971Z</time></trkpt><trkpt lat="44.9179022" lon="7.2789543"><ele>959.0</ele><time>2026-04-05T12:30:46.971Z</time></trkpt><trkpt lat="44.9178289" lon="7.2789061"><ele>959.0000000000001</ele><time>2026-04-05T12:30:47.971Z</time></trkpt><trkpt lat="44.9177641" lon="7.2788481"><ele>959.0</ele><time>2026-04-05T12:30:48.971Z</time></trkpt><trkpt lat="44.9176836" lon="7.2787965"><ele>957.6</ele><time>2026-04-05T12:30:49.971Z</time></trkpt><trkpt lat="44.9175954" lon="7.278751"><ele>956.2</ele><time>2026-04-05T12:30:50.971Z</time></trkpt><trkpt lat="44.9175091" lon="7.2786932"><ele>954.8000000000001</ele><time>2026-04-05T12:30:51.971Z</time></trkpt><trkpt lat="44.9174083" lon="7.2786823"><ele>953.4000000000001</ele><time>2026-04-05T12:30:52.971Z</time></trkpt><trkpt lat="44.9173135" lon="7.2786624"><ele>952.0</ele><time>2026-04-05T12:30:53.971Z</time></trkpt><trkpt lat="44.9172384" lon="7.2786652"><ele>952.0</ele><time>2026-04-05T12:30:54.971Z</time></trkpt><trkpt lat="44.9171336" lon="7.2786823"><ele>952.0</ele><time>2026-04-05T12:30:55.971Z</time></trkpt><trkpt lat="44.917027" lon="7.2787109"><ele>952.0</ele><time>2026-04-05T12:30:56.971Z</time></trkpt><trkpt lat="44.9169206" lon="7.2787406"><ele>952.0</ele><time>2026-04-05T12:30:57.971Z</time></trkpt><trkpt lat="44.9168244" lon="7.2787599"><ele>952.0</ele><time>2026-04-05T12:30:58.971Z</time></trkpt><trkpt lat="44.9167191" lon="7.278769"><ele>951.0</ele><time>2026-04-05T12:30:59.971Z</time></trkpt><trkpt lat="44.9166155" lon="7.278791"><ele>950.0</ele><time>2026-04-05T12:31:00.971Z</time></trkpt><trkpt lat="44.9165011" lon="7.2788104"><ele>949.0</ele><time>2026-04-05T12:31:01.971Z</time></trkpt><trkpt lat="44.9163856" lon="7.2788541"><ele>948.0</ele><time>2026-04-05T12:31:02.971Z</time></trkpt><trkpt lat="44.9162841" lon="7.2788966"><ele>947.0</ele><time>2026-04-05T12:31:03.971Z</time></trkpt><trkpt lat="44.9162087" lon="7.2789329"><ele>946.8571428571428</ele><time>2026-04-05T12:31:04.971Z</time></trkpt><trkpt lat="44.916145" lon="7.2789608"><ele>946.7142857142856</ele><time>2026-04-05T12:31:05.971Z</time></trkpt><trkpt lat="44.9160793" lon="7.2789817"><ele>946.5714285714286</ele><time>2026-04-05T12:31:06.971Z</time></trkpt><trkpt lat="44.9160117" lon="7.2789866"><ele>946.4285714285713</ele><time>2026-04-05T12:31:07.971Z</time></trkpt><trkpt lat="44.9159449" lon="7.278966"><ele>946.2857142857142</ele><time>2026-04-05T12:31:08.971Z</time></trkpt><trkpt lat="44.9158724" lon="7.278924"><ele>946.1428571428571</ele><time>2026-04-05T12:31:09.971Z</time></trkpt><trkpt lat="44.9157955" lon="7.2788728"><ele>946.0</ele><time>2026-04-05T12:31:10.971Z</time></trkpt><trkpt lat="44.9157165" lon="7.2788243"><ele>945.4</ele><time>2026-04-05T12:31:11.971Z</time></trkpt><trkpt lat="44.9156375" lon="7.2787705"><ele>944.8</ele><time>2026-04-05T12:31:12.971Z</time></trkpt><trkpt lat="44.9155635" lon="7.2787127"><ele>944.1999999999999</ele><time>2026-04-05T12:31:13.971Z</time></trkpt><trkpt lat="44.915486" lon="7.2786526"><ele>943.5999999999999</ele><time>2026-04-05T12:31:14.971Z</time></trkpt><trkpt lat="44.9154018" lon="7.2785844"><ele>943.0</ele><time>2026-04-05T12:31:15.971Z</time></trkpt><trkpt lat="44.9153172" lon="7.2785262"><ele>943.0</ele><time>2026-04-05T12:31:16.971Z</time></trkpt><trkpt lat="44.9152277" lon="7.2784653"><ele>943.0</ele><time>2026-04-05T12:31:17.971Z</time></trkpt><trkpt lat="44.915137" lon="7.2784143"><ele>943.0</ele><time>2026-04-05T12:31:18.971Z</time></trkpt><trkpt lat="44.915051" lon="7.2783728"><ele>943.0</ele><time>2026-04-05T12:31:19.971Z</time></trkpt><trkpt lat="44.9149795" lon="7.2783287"><ele>943.0</ele><time>2026-04-05T12:31:20.971Z</time></trkpt><trkpt lat="44.9149007" lon="7.2782747"><ele>939.8</ele><time>2026-04-05T12:31:21.971Z</time></trkpt><trkpt lat="44.9148211" lon="7.2782111"><ele>936.5999999999999</ele><time>2026-04-05T12:31:22.971Z</time></trkpt><trkpt lat="44.9147375" lon="7.2781451"><ele>933.4000000000001</ele><time>2026-04-05T12:31:23.971Z</time></trkpt><trkpt lat="44.9146437" lon="7.2780541"><ele>930.2</ele><time>2026-04-05T12:31:24.971Z</time></trkpt><trkpt lat="44.91456" lon="7.2779645"><ele>927.0</ele><time>2026-04-05T12:31:25.971Z</time></trkpt><trkpt lat="44.9144778" lon="7.2778844"><ele>927.0</ele><time>2026-04-05T12:31:26.971Z</time></trkpt><trkpt lat="44.914404" lon="7.2778112"><ele>927.0</ele><time>2026-04-05T12:31:27.971Z</time></trkpt><trkpt lat="44.9143333" lon="7.2777403"><ele>927.0</ele><time>2026-04-05T12:31:28.971Z</time></trkpt><trkpt lat="44.9142909" lon="7.2776581"><ele>927.0</ele><time>2026-04-05T12:31:29.971Z</time></trkpt><trkpt lat="44.9142418" lon="7.2775442"><ele>927.0</ele><time>2026-04-05T12:31:31.971Z</time></trkpt><trkpt lat="44.9141794" lon="7.2774117"><ele>925.3333333333334</ele><time>2026-04-05T12:31:33.971Z</time></trkpt><trkpt lat="44.9141477" lon="7.2773315"><ele>923.6666666666667</ele><time>2026-04-05T12:31:34.971Z</time></trkpt><trkpt lat="44.9141081" lon="7.2772543"><ele>922.0</ele><time>2026-04-05T12:31:35.971Z</time></trkpt><trkpt lat="44.9140426" lon="7.2772144"><ele>920.3333333333334</ele><time>2026-04-05T12:31:36.971Z</time></trkpt><trkpt lat="44.9139651" lon="7.2771865"><ele>918.6666666666667</ele><time>2026-04-05T12:31:37.971Z</time></trkpt><trkpt lat="44.9138801" lon="7.2771652"><ele>917.0</ele><time>2026-04-05T12:31:38.971Z</time></trkpt><trkpt lat="44.9137931" lon="7.2771095"><ele>916.2</ele><time>2026-04-05T12:31:39.971Z</time></trkpt><trkpt lat="44.9137075" lon="7.277032"><ele>915.4000000000001</ele><time>2026-04-05T12:31:40.971Z</time></trkpt><trkpt lat="44.9136234" lon="7.2769231"><ele>914.5999999999999</ele><time>2026-04-05T12:31:41.971Z</time></trkpt><trkpt lat="44.9135363" lon="7.2768211"><ele>913.8</ele><time>2026-04-05T12:31:42.971Z</time></trkpt><trkpt lat="44.9134569" lon="7.2767235"><ele>913.0</ele><time>2026-04-05T12:31:43.971Z</time></trkpt><trkpt lat="44.9133853" lon="7.2766264"><ele>915.4</ele><time>2026-04-05T12:31:44.971Z</time></trkpt><trkpt lat="44.9133147" lon="7.2765359"><ele>917.8</ele><time>2026-04-05T12:31:45.971Z</time></trkpt><trkpt lat="44.9132485" lon="7.2764448"><ele>920.2</ele><time>2026-04-05T12:31:46.971Z</time></trkpt><trkpt lat="44.913183" lon="7.2763588"><ele>922.6</ele><time>2026-04-05T12:31:47.971Z</time></trkpt><trkpt lat="44.9131315" lon="7.2762654"><ele>925.0</ele><time>2026-04-05T12:31:48.971Z</time></trkpt><trkpt lat="44.9130847" lon="7.2761522"><ele>925.0</ele><time>2026-04-05T12:31:49.971Z</time></trkpt><trkpt lat="44.9130351" lon="7.2759955"><ele>925.0</ele><time>2026-04-05T12:31:50.971Z</time></trkpt><trkpt lat="44.9129972" lon="7.2758587"><ele>925.0</ele><time>2026-04-05T12:31:51.971Z</time></trkpt><trkpt lat="44.9129622" lon="7.2757016"><ele>925.0</ele><time>2026-04-05T12:31:52.971Z</time></trkpt><trkpt lat="44.9129228" lon="7.275569"><ele>925.0</ele><time>2026-04-05T12:31:53.971Z</time></trkpt><trkpt lat="44.9128788" lon="7.2754062"><ele>923.8333333333333</ele><time>2026-04-05T12:31:54.971Z</time></trkpt><trkpt lat="44.9128407" lon="7.2752999"><ele>922.6666666666666</ele><time>2026-04-05T12:31:55.971Z</time></trkpt><trkpt lat="44.912805" lon="7.275164"><ele>921.5</ele><time>2026-04-05T12:31:56.971Z</time></trkpt><trkpt lat="44.9127769" lon="7.2750693"><ele>920.3333333333333</ele><time>2026-04-05T12:31:57.971Z</time></trkpt><trkpt lat="44.912724" lon="7.2749934"><ele>919.1666666666666</ele><time>2026-04-05T12:31:58.971Z</time></trkpt><trkpt lat="44.9126544" lon="7.2749425"><ele>918.0</ele><time>2026-04-05T12:31:59.971Z</time></trkpt><trkpt lat="44.9125983" lon="7.2748808"><ele>921.5</ele><time>2026-04-05T12:32:00.971Z</time></trkpt><trkpt lat="44.912545" lon="7.2747083"><ele>925.0</ele><time>2026-04-05T12:32:02.971Z</time></trkpt><trkpt lat="44.912536" lon="7.274609"><ele>928.5</ele><time>2026-04-05T12:32:03.971Z</time></trkpt><trkpt lat="44.9125195" lon="7.2745072"><ele>932.0</ele><time>2026-04-05T12:32:04.971Z</time></trkpt><trkpt lat="44.9124821" lon="7.2744117"><ele>935.5</ele><time>2026-04-05T12:32:05.971Z</time></trkpt><trkpt lat="44.9124587" lon="7.2742946"><ele>939.0</ele><time>2026-04-05T12:32:06.971Z</time></trkpt><trkpt lat="44.9124531" lon="7.2741846"><ele>939.0</ele><time>2026-04-05T12:32:07.971Z</time></trkpt><trkpt lat="44.9124384" lon="7.2740559"><ele>939.0000000000001</ele><time>2026-04-05T12:32:08.971Z</time></trkpt><trkpt lat="44.9124333" lon="7.2739286"><ele>939.0000000000001</ele><time>2026-04-05T12:32:09.971Z</time></trkpt><trkpt lat="44.9124297" lon="7.273795"><ele>939.0</ele><time>2026-04-05T12:32:10.971Z</time></trkpt><trkpt lat="44.9124305" lon="7.2736641"><ele>939.0</ele><time>2026-04-05T12:32:11.971Z</time></trkpt><trkpt lat="44.912458" lon="7.2735353"><ele>939.0</ele><time>2026-04-05T12:32:12.971Z</time></trkpt><trkpt lat="44.9124805" lon="7.27342"><ele>939.0000000000001</ele><time>2026-04-05T12:32:13.971Z</time></trkpt><trkpt lat="44.9125023" lon="7.2732873"><ele>939.0000000000001</ele><time>2026-04-05T12:32:14.971Z</time></trkpt><trkpt lat="44.9125179" lon="7.2731559"><ele>939.0</ele><time>2026-04-05T12:32:15.971Z</time></trkpt><trkpt lat="44.9125413" lon="7.2730175"><ele>939.0</ele><time>2026-04-05T12:32:16.971Z</time></trkpt><trkpt lat="44.9125564" lon="7.272865"><ele>938.4000000000001</ele><time>2026-04-05T12:32:17.971Z</time></trkpt><trkpt lat="44.9125633" lon="7.2727292"><ele>937.8000000000001</ele><time>2026-04-05T12:32:18.971Z</time></trkpt><trkpt lat="44.9125696" lon="7.2726006"><ele>937.1999999999999</ele><time>2026-04-05T12:32:19.971Z</time></trkpt><trkpt lat="44.9125694" lon="7.2724671"><ele>936.5999999999999</ele><time>2026-04-05T12:32:20.971Z</time></trkpt><trkpt lat="44.9125807" lon="7.272324"><ele>936.0</ele><time>2026-04-05T12:32:21.971Z</time></trkpt><trkpt lat="44.9125886" lon="7.2721982"><ele>934.6666666666666</ele><time>2026-04-05T12:32:22.971Z</time></trkpt><trkpt lat="44.9125874" lon="7.2720807"><ele>933.3333333333333</ele><time>2026-04-05T12:32:23.971Z</time></trkpt><trkpt lat="44.9125946" lon="7.2719775"><ele>932.0</ele><time>2026-04-05T12:32:24.971Z</time></trkpt><trkpt lat="44.9125974" lon="7.2718761"><ele>930.6666666666666</ele><time>2026-04-05T12:32:25.971Z</time></trkpt><trkpt lat="44.9125617" lon="7.2717187"><ele>929.3333333333333</ele><time>2026-04-05T12:32:27.971Z</time></trkpt><trkpt lat="44.9124919" lon="7.2716453"><ele>928.0</ele><time>2026-04-05T12:32:29.972Z</time></trkpt><trkpt lat="44.9123977" lon="7.2716652"><ele>928.0</ele><time>2026-04-05T12:32:31.971Z</time></trkpt><trkpt lat="44.9122719" lon="7.2717776"><ele>928.0</ele><time>2026-04-05T12:32:33.971Z</time></trkpt><trkpt lat="44.9122059" lon="7.271823"><ele>928.0</ele><time>2026-04-05T12:32:34.971Z</time></trkpt><trkpt lat="44.9121254" lon="7.2718584"><ele>928.0</ele><time>2026-04-05T12:32:35.971Z</time></trkpt><trkpt lat="44.9119927" lon="7.2718772"><ele>928.0</ele><time>2026-04-05T12:32:36.971Z</time></trkpt><trkpt lat="44.911906" lon="7.2718994"><ele>927.9999999999999</ele><time>2026-04-05T12:32:37.971Z</time></trkpt><trkpt lat="44.9118199" lon="7.271919"><ele>928.0</ele><time>2026-04-05T12:32:38.971Z</time></trkpt><trkpt lat="44.9117422" lon="7.2719596"><ele>928.0</ele><time>2026-04-05T12:32:39.971Z</time></trkpt><trkpt lat="44.9116598" lon="7.2719974"><ele>928.0</ele><time>2026-04-05T12:32:40.971Z</time></trkpt><trkpt lat="44.911595" lon="7.2720351"><ele>927.9999999999999</ele><time>2026-04-05T12:32:41.971Z</time></trkpt><trkpt lat="44.9115213" lon="7.2720681"><ele>928.0</ele><time>2026-04-05T12:32:42.971Z</time></trkpt><trkpt lat="44.9114536" lon="7.2720835"><ele>927.4999999999999</ele><time>2026-04-05T12:32:43.971Z</time></trkpt><trkpt lat="44.9113685" lon="7.2721052"><ele>927.0</ele><time>2026-04-05T12:32:44.971Z</time></trkpt><trkpt lat="44.9112801" lon="7.2721328"><ele>926.5</ele><time>2026-04-05T12:32:45.971Z</time></trkpt><trkpt lat="44.9112029" lon="7.2721482"><ele>926.0</ele><time>2026-04-05T12:32:46.971Z</time></trkpt><trkpt lat="44.9111201" lon="7.2721921"><ele>925.4999999999999</ele><time>2026-04-05T12:32:47.971Z</time></trkpt><trkpt lat="44.9110401" lon="7.2722385"><ele>925.0</ele><time>2026-04-05T12:32:48.971Z</time></trkpt><trkpt lat="44.9109707" lon="7.2722747"><ele>926.8</ele><time>2026-04-05T12:32:49.971Z</time></trkpt><trkpt lat="44.910849" lon="7.2723433"><ele>928.6</ele><time>2026-04-05T12:32:51.971Z</time></trkpt><trkpt lat="44.91073" lon="7.2724391"><ele>930.4000000000001</ele><time>2026-04-05T12:32:53.971Z</time></trkpt><trkpt lat="44.9106664" lon="7.2724602"><ele>932.2</ele><time>2026-04-05T12:32:54.971Z</time></trkpt><trkpt lat="44.9105899" lon="7.2724542"><ele>934.0</ele><time>2026-04-05T12:32:55.971Z</time></trkpt><trkpt lat="44.9105049" lon="7.2724518"><ele>933.9999999999999</ele><time>2026-04-05T12:32:56.971Z</time></trkpt><trkpt lat="44.9104248" lon="7.2724407"><ele>934.0</ele><time>2026-04-05T12:32:57.971Z</time></trkpt><trkpt lat="44.9103393" lon="7.2724372"><ele>934.0</ele><time>2026-04-05T12:32:58.971Z</time></trkpt><trkpt lat="44.9102582" lon="7.2724363"><ele>934.0</ele><time>2026-04-05T12:32:59.971Z</time></trkpt><trkpt lat="44.9101769" lon="7.2724285"><ele>933.9999999999999</ele><time>2026-04-05T12:33:00.971Z</time></trkpt><trkpt lat="44.9100874" lon="7.2723813"><ele>934.0</ele><time>2026-04-05T12:33:01.971Z</time></trkpt><trkpt lat="44.9099978" lon="7.2723371"><ele>932.9999999999999</ele><time>2026-04-05T12:33:02.971Z</time></trkpt><trkpt lat="44.9099166" lon="7.2723289"><ele>932.0</ele><time>2026-04-05T12:33:03.971Z</time></trkpt><trkpt lat="44.9098326" lon="7.2723163"><ele>931.0</ele><time>2026-04-05T12:33:04.971Z</time></trkpt><trkpt lat="44.9097577" lon="7.272274"><ele>930.0</ele><time>2026-04-05T12:33:05.971Z</time></trkpt><trkpt lat="44.9096893" lon="7.2722104"><ele>928.9999999999999</ele><time>2026-04-05T12:33:06.971Z</time></trkpt><trkpt lat="44.909614" lon="7.2720987"><ele>928.0</ele><time>2026-04-05T12:33:08.971Z</time></trkpt><trkpt lat="44.9095938" lon="7.2719554"><ele>924.0</ele><time>2026-04-05T12:33:10.971Z</time></trkpt><trkpt lat="44.9096451" lon="7.2718304"><ele>920.0</ele><time>2026-04-05T12:33:12.971Z</time></trkpt><trkpt lat="44.9097241" lon="7.2717511"><ele>916.0</ele><time>2026-04-05T12:33:14.971Z</time></trkpt><trkpt lat="44.9098603" lon="7.2717681"><ele>912.0</ele><time>2026-04-05T12:33:16.971Z</time></trkpt><trkpt lat="44.9099512" lon="7.2717797"><ele>908.0</ele><time>2026-04-05T12:33:17.971Z</time></trkpt><trkpt lat="44.9100354" lon="7.2717755"><ele>909.3333333333334</ele><time>2026-04-05T12:33:18.971Z</time></trkpt><trkpt lat="44.9101107" lon="7.2717485"><ele>910.6666666666667</ele><time>2026-04-05T12:33:19.971Z</time></trkpt><trkpt lat="44.9101724" lon="7.2717032"><ele>912.0</ele><time>2026-04-05T12:33:20.971Z</time></trkpt><trkpt lat="44.910244" lon="7.2716342"><ele>913.3333333333333</ele><time>2026-04-05T12:33:21.971Z</time></trkpt><trkpt lat="44.9102947" lon="7.2715569"><ele>914.6666666666666</ele><time>2026-04-05T12:33:22.971Z</time></trkpt><trkpt lat="44.9103548" lon="7.271484"><ele>916.0</ele><time>2026-04-05T12:33:23.971Z</time></trkpt><trkpt lat="44.9104233" lon="7.2714094"><ele>911.9999999999999</ele><time>2026-04-05T12:33:24.971Z</time></trkpt><trkpt lat="44.9104757" lon="7.2713495"><ele>908.0</ele><time>2026-04-05T12:33:25.971Z</time></trkpt><trkpt lat="44.9105376" lon="7.2712831"><ele>904.0</ele><time>2026-04-05T12:33:26.971Z</time></trkpt><trkpt lat="44.910611" lon="7.2712091"><ele>900.0</ele><time>2026-04-05T12:33:27.971Z</time></trkpt><trkpt lat="44.9106849" lon="7.2711407"><ele>895.9999999999999</ele><time>2026-04-05T12:33:28.971Z</time></trkpt><trkpt lat="44.9107609" lon="7.271081"><ele>892.0</ele><time>2026-04-05T12:33:29.971Z</time></trkpt><trkpt lat="44.9108226" lon="7.2710066"><ele>892.0</ele><time>2026-04-05T12:33:30.971Z</time></trkpt><trkpt lat="44.9108715" lon="7.2709397"><ele>892.0</ele><time>2026-04-05T12:33:31.971Z</time></trkpt><trkpt lat="44.9109306" lon="7.2708824"><ele>892.0</ele><time>2026-04-05T12:33:32.971Z</time></trkpt><trkpt lat="44.9109787" lon="7.270823"><ele>892.0</ele><time>2026-04-05T12:33:33.971Z</time></trkpt><trkpt lat="44.9110451" lon="7.2707356"><ele>892.0</ele><time>2026-04-05T12:33:35.971Z</time></trkpt><trkpt lat="44.9110676" lon="7.2706222"><ele>892.0</ele><time>2026-04-05T12:33:37.971Z</time></trkpt><trkpt lat="44.911032" lon="7.270537"><ele>892.0</ele><time>2026-04-05T12:33:38.971Z</time></trkpt><trkpt lat="44.9110088" lon="7.2704344"><ele>889.6</ele><time>2026-04-05T12:33:39.971Z</time></trkpt><trkpt lat="44.9109688" lon="7.2703532"><ele>887.2</ele><time>2026-04-05T12:33:40.971Z</time></trkpt><trkpt lat="44.9109136" lon="7.2702241"><ele>884.8</ele><time>2026-04-05T12:33:41.971Z</time></trkpt><trkpt lat="44.9108657" lon="7.2701214"><ele>882.4</ele><time>2026-04-05T12:33:42.971Z</time></trkpt><trkpt lat="44.9108306" lon="7.2699795"><ele>880.0</ele><time>2026-04-05T12:33:43.971Z</time></trkpt><trkpt lat="44.9107874" lon="7.2698733"><ele>878.6666666666666</ele><time>2026-04-05T12:33:44.971Z</time></trkpt><trkpt lat="44.9107349" lon="7.2697544"><ele>877.3333333333333</ele><time>2026-04-05T12:33:45.971Z</time></trkpt><trkpt lat="44.9106823" lon="7.2696454"><ele>876.0</ele><time>2026-04-05T12:33:46.971Z</time></trkpt><trkpt lat="44.9106281" lon="7.2695419"><ele>874.6666666666667</ele><time>2026-04-05T12:33:47.971Z</time></trkpt><trkpt lat="44.9105743" lon="7.2694554"><ele>873.3333333333334</ele><time>2026-04-05T12:33:48.971Z</time></trkpt><trkpt lat="44.9105077" lon="7.2693848"><ele>872.0</ele><time>2026-04-05T12:33:49.971Z</time></trkpt><trkpt lat="44.9104469" lon="7.2693289"><ele>872.0000000000001</ele><time>2026-04-05T12:33:50.971Z</time></trkpt><trkpt lat="44.9104034" lon="7.2692328"><ele>872.0</ele><time>2026-04-05T12:33:51.971Z</time></trkpt><trkpt lat="44.910342" lon="7.2691777"><ele>872.0</ele><time>2026-04-05T12:33:52.971Z</time></trkpt><trkpt lat="44.9102917" lon="7.2691038"><ele>872.0</ele><time>2026-04-05T12:33:53.971Z</time></trkpt><trkpt lat="44.9102197" lon="7.2689717"><ele>872.0000000000001</ele><time>2026-04-05T12:33:55.971Z</time></trkpt><trkpt lat="44.9101749" lon="7.2688617"><ele>872.0</ele><time>2026-04-05T12:33:57.971Z</time></trkpt><trkpt lat="44.9100839" lon="7.2688552"><ele>871.5000000000001</ele><time>2026-04-05T12:33:59.971Z</time></trkpt><trkpt lat="44.9100589" lon="7.2689605"><ele>871.0</ele><time>2026-04-05T12:34:01.971Z</time></trkpt><trkpt lat="44.9100507" lon="7.269106"><ele>870.5</ele><time>2026-04-05T12:34:03.971Z</time></trkpt><trkpt lat="44.9100389" lon="7.2692338"><ele>870.0</ele><time>2026-04-05T12:34:05.971Z</time></trkpt><trkpt lat="44.9100138" lon="7.2693478"><ele>869.5000000000001</ele><time>2026-04-05T12:34:07.971Z</time></trkpt><trkpt lat="44.9099709" lon="7.2694168"><ele>869.0</ele><time>2026-04-05T12:34:09.971Z</time></trkpt><trkpt lat="44.9098903" lon="7.2693529"><ele>869.0000000000001</ele><time>2026-04-05T12:34:12.971Z</time></trkpt><trkpt lat="44.9098475" lon="7.2692042"><ele>869.0</ele><time>2026-04-05T12:34:14.971Z</time></trkpt><trkpt lat="44.9098227" lon="7.2691056"><ele>869.0</ele><time>2026-04-05T12:34:15.971Z</time></trkpt><trkpt lat="44.9097987" lon="7.2690219"><ele>869.0</ele><time>2026-04-05T12:34:16.971Z</time></trkpt><trkpt lat="44.9097724" lon="7.2689045"><ele>869.0000000000001</ele><time>2026-04-05T12:34:17.971Z</time></trkpt><trkpt lat="44.909757" lon="7.2687879"><ele>869.0</ele><time>2026-04-05T12:34:18.972Z</time></trkpt><trkpt lat="44.9097431" lon="7.2686725"><ele>868.2</ele><time>2026-04-05T12:34:19.971Z</time></trkpt><trkpt lat="44.9097331" lon="7.2685556"><ele>867.4000000000001</ele><time>2026-04-05T12:34:20.971Z</time></trkpt><trkpt lat="44.909704" lon="7.2684251"><ele>866.6</ele><time>2026-04-05T12:34:21.971Z</time></trkpt><trkpt lat="44.9096462" lon="7.2683148"><ele>865.8</ele><time>2026-04-05T12:34:22.971Z</time></trkpt><trkpt lat="44.9095959" lon="7.2682118"><ele>865.0</ele><time>2026-04-05T12:34:23.971Z</time></trkpt><trkpt lat="44.9095481" lon="7.2681017"><ele>864.4999999999999</ele><time>2026-04-05T12:34:24.971Z</time></trkpt><trkpt lat="44.9094873" lon="7.2680103"><ele>864.0</ele><time>2026-04-05T12:34:25.971Z</time></trkpt><trkpt lat="44.9094283" lon="7.2679243"><ele>863.5</ele><time>2026-04-05T12:34:26.971Z</time></trkpt><trkpt lat="44.9093761" lon="7.2678667"><ele>863.0</ele><time>2026-04-05T12:34:27.971Z</time></trkpt><trkpt lat="44.9093107" lon="7.2677541"><ele>862.4999999999999</ele><time>2026-04-05T12:34:29.971Z</time></trkpt><trkpt lat="44.9092724" lon="7.2676432"><ele>862.0</ele><time>2026-04-05T12:34:31.971Z</time></trkpt><trkpt lat="44.9092698" lon="7.2675112"><ele>862.0</ele><time>2026-04-05T12:34:33.971Z</time></trkpt><trkpt lat="44.9093037" lon="7.2673289"><ele>862.0</ele><time>2026-04-05T12:34:35.971Z</time></trkpt><trkpt lat="44.9093532" lon="7.2671816"><ele>862.0</ele><time>2026-04-05T12:34:37.971Z</time></trkpt><trkpt lat="44.9093853" lon="7.2671032"><ele>862.0</ele><time>2026-04-05T12:34:38.971Z</time></trkpt><trkpt lat="44.9094492" lon="7.2670214"><ele>862.0</ele><time>2026-04-05T12:34:39.971Z</time></trkpt><trkpt lat="44.9094975" lon="7.266937"><ele>859.6</ele><time>2026-04-05T12:34:40.971Z</time></trkpt><trkpt lat="44.9095593" lon="7.2668444"><ele>857.2</ele><time>2026-04-05T12:34:41.971Z</time></trkpt><trkpt lat="44.9096035" lon="7.2667297"><ele>854.8</ele><time>2026-04-05T12:34:42.971Z</time></trkpt><trkpt lat="44.9096338" lon="7.266623"><ele>852.4</ele><time>2026-04-05T12:34:43.971Z</time></trkpt><trkpt lat="44.9096772" lon="7.2664969"><ele>850.0</ele><time>2026-04-05T12:34:45.971Z</time></trkpt><trkpt lat="44.9097532" lon="7.2664379"><ele>846.4999999999999</ele><time>2026-04-05T12:34:47.971Z</time></trkpt><trkpt lat="44.9098491" lon="7.266382"><ele>843.0</ele><time>2026-04-05T12:34:49.971Z</time></trkpt><trkpt lat="44.9099077" lon="7.2662797"><ele>839.5</ele><time>2026-04-05T12:34:51.971Z</time></trkpt><trkpt lat="44.9099182" lon="7.2661409"><ele>836.0</ele><time>2026-04-05T12:34:53.971Z</time></trkpt><trkpt lat="44.9099141" lon="7.2660497"><ele>832.4999999999999</ele><time>2026-04-05T12:34:54.971Z</time></trkpt><trkpt lat="44.9099311" lon="7.265962"><ele>829.0</ele><time>2026-04-05T12:34:55.971Z</time></trkpt><trkpt lat="44.9099911" lon="7.2658413"><ele>828.1666666666666</ele><time>2026-04-05T12:34:57.971Z</time></trkpt><trkpt lat="44.9100889" lon="7.2657905"><ele>827.3333333333333</ele><time>2026-04-05T12:34:59.971Z</time></trkpt><trkpt lat="44.9101537" lon="7.2657812"><ele>826.5</ele><time>2026-04-05T12:35:00.971Z</time></trkpt><trkpt lat="44.9102204" lon="7.2657674"><ele>825.6666666666667</ele><time>2026-04-05T12:35:01.971Z</time></trkpt><trkpt lat="44.9102918" lon="7.2657631"><ele>824.8333333333334</ele><time>2026-04-05T12:35:02.971Z</time></trkpt><trkpt lat="44.910418" lon="7.2657485"><ele>824.0</ele><time>2026-04-05T12:35:04.971Z</time></trkpt><trkpt lat="44.9104865" lon="7.2657419"><ele>824.0000000000001</ele><time>2026-04-05T12:35:05.971Z</time></trkpt><trkpt lat="44.9105611" lon="7.2657443"><ele>824.0</ele><time>2026-04-05T12:35:06.971Z</time></trkpt><trkpt lat="44.9106413" lon="7.2657442"><ele>824.0</ele><time>2026-04-05T12:35:07.971Z</time></trkpt><trkpt lat="44.9107167" lon="7.2657537"><ele>824.0</ele><time>2026-04-05T12:35:08.971Z</time></trkpt><trkpt lat="44.9107948" lon="7.2657746"><ele>824.0000000000001</ele><time>2026-04-05T12:35:09.971Z</time></trkpt><trkpt lat="44.9109135" lon="7.2657911"><ele>824.0</ele><time>2026-04-05T12:35:11.971Z</time></trkpt><trkpt lat="44.9110329" lon="7.2658405"><ele>821.2857142857142</ele><time>2026-04-05T12:35:13.971Z</time></trkpt><trkpt lat="44.9110967" lon="7.2658842"><ele>818.5714285714286</ele><time>2026-04-05T12:35:14.971Z</time></trkpt><trkpt lat="44.9111538" lon="7.2659316"><ele>815.8571428571429</ele><time>2026-04-05T12:35:15.971Z</time></trkpt><trkpt lat="44.9112146" lon="7.2659858"><ele>813.1428571428571</ele><time>2026-04-05T12:35:16.971Z</time></trkpt><trkpt lat="44.9112744" lon="7.2660419"><ele>810.4285714285714</ele><time>2026-04-05T12:35:17.971Z</time></trkpt><trkpt lat="44.911337" lon="7.2661077"><ele>807.7142857142857</ele><time>2026-04-05T12:35:18.971Z</time></trkpt><trkpt lat="44.9113893" lon="7.2661816"><ele>805.0</ele><time>2026-04-05T12:35:19.971Z</time></trkpt><trkpt lat="44.9114458" lon="7.2662577"><ele>804.9999999999999</ele><time>2026-04-05T12:35:20.971Z</time></trkpt><trkpt lat="44.9115023" lon="7.266336"><ele>805.0</ele><time>2026-04-05T12:35:21.971Z</time></trkpt><trkpt lat="44.9115844" lon="7.2664304"><ele>805.0</ele><time>2026-04-05T12:35:22.971Z</time></trkpt><trkpt lat="44.9116485" lon="7.2665076"><ele>805.0</ele><time>2026-04-05T12:35:23.971Z</time></trkpt><trkpt lat="44.911713" lon="7.2665767"><ele>804.9999999999999</ele><time>2026-04-05T12:35:24.971Z</time></trkpt><trkpt lat="44.9117972" lon="7.2666175"><ele>805.0</ele><time>2026-04-05T12:35:25.971Z</time></trkpt><trkpt lat="44.9118629" lon="7.2666478"><ele>804.6666666666666</ele><time>2026-04-05T12:35:26.971Z</time></trkpt><trkpt lat="44.9119304" lon="7.2666688"><ele>804.3333333333333</ele><time>2026-04-05T12:35:27.971Z</time></trkpt><trkpt lat="44.9120411" lon="7.2667056"><ele>804.0</ele><time>2026-04-05T12:35:29.971Z</time></trkpt><trkpt lat="44.9121059" lon="7.2666771"><ele>803.6666666666667</ele><time>2026-04-05T12:35:31.971Z</time></trkpt><trkpt lat="44.9120795" lon="7.2665553"><ele>803.3333333333334</ele><time>2026-04-05T12:35:34.971Z</time></trkpt><trkpt lat="44.9120267" lon="7.2665036"><ele>803.0</ele><time>2026-04-05T12:35:35.971Z</time></trkpt><trkpt lat="44.9119811" lon="7.2664383"><ele>799.4</ele><time>2026-04-05T12:35:36.971Z</time></trkpt><trkpt lat="44.9119419" lon="7.2663601"><ele>795.8</ele><time>2026-04-05T12:35:37.971Z</time></trkpt><trkpt lat="44.911924" lon="7.2661978"><ele>792.2</ele><time>2026-04-05T12:35:39.971Z</time></trkpt><trkpt lat="44.911983" lon="7.2660276"><ele>788.6</ele><time>2026-04-05T12:35:41.971Z</time></trkpt><trkpt lat="44.9120167" lon="7.2659365"><ele>785.0</ele><time>2026-04-05T12:35:42.971Z</time></trkpt><trkpt lat="44.9120279" lon="7.265783"><ele>785.0</ele><time>2026-04-05T12:35:44.971Z</time></trkpt><trkpt lat="44.911973" lon="7.2656937"><ele>785.0</ele><time>2026-04-05T12:35:46.971Z</time></trkpt><trkpt lat="44.9118746" lon="7.2656244"><ele>785.0</ele><time>2026-04-05T12:35:48.971Z</time></trkpt><trkpt lat="44.911792" lon="7.2656257"><ele>785.0</ele><time>2026-04-05T12:35:50.971Z</time></trkpt><trkpt lat="44.9116911" lon="7.265562"><ele>785.0</ele><time>2026-04-05T12:35:52.971Z</time></trkpt><trkpt lat="44.9116595" lon="7.2654708"><ele>785.1666666666667</ele><time>2026-04-05T12:35:54.971Z</time></trkpt><trkpt lat="44.9116546" lon="7.2653625"><ele>785.3333333333334</ele><time>2026-04-05T12:35:56.971Z</time></trkpt><trkpt lat="44.9117307" lon="7.2653175"><ele>785.5</ele><time>2026-04-05T12:35:58.971Z</time></trkpt><trkpt lat="44.9117347" lon="7.2651934"><ele>785.6666666666667</ele><time>2026-04-05T12:36:01.971Z</time></trkpt><trkpt lat="44.9116667" lon="7.2651384"><ele>785.8333333333334</ele><time>2026-04-05T12:36:02.971Z</time></trkpt><trkpt lat="44.9115655" lon="7.2650391"><ele>786.0</ele><time>2026-04-05T12:36:04.971Z</time></trkpt><trkpt lat="44.9115222" lon="7.2649718"><ele>786.0</ele><time>2026-04-05T12:36:05.971Z</time></trkpt><trkpt lat="44.911468" lon="7.264906"><ele>786.0</ele><time>2026-04-05T12:36:06.971Z</time></trkpt><trkpt lat="44.9113821" lon="7.2647958"><ele>786.0</ele><time>2026-04-05T12:36:08.971Z</time></trkpt><trkpt lat="44.9113029" lon="7.2647022"><ele>786.0</ele><time>2026-04-05T12:36:10.971Z</time></trkpt><trkpt lat="44.9112075" lon="7.2646185"><ele>786.0</ele><time>2026-04-05T12:36:12.971Z</time></trkpt><trkpt lat="44.9111496" lon="7.2645819"><ele>783.3333333333334</ele><time>2026-04-05T12:36:13.971Z</time></trkpt><trkpt lat="44.9110817" lon="7.264565"><ele>780.6666666666667</ele><time>2026-04-05T12:36:14.971Z</time></trkpt><trkpt lat="44.9110029" lon="7.264546"><ele>778.0</ele><time>2026-04-05T12:36:15.971Z</time></trkpt><trkpt lat="44.9109248" lon="7.2645266"><ele>775.3333333333334</ele><time>2026-04-05T12:36:16.971Z</time></trkpt><trkpt lat="44.9108453" lon="7.2644888"><ele>772.6666666666667</ele><time>2026-04-05T12:36:17.971Z</time></trkpt><trkpt lat="44.9107681" lon="7.2644502"><ele>770.0</ele><time>2026-04-05T12:36:18.971Z</time></trkpt><trkpt lat="44.9106886" lon="7.2644036"><ele>770.0000000000001</ele><time>2026-04-05T12:36:19.971Z</time></trkpt><trkpt lat="44.9106148" lon="7.2643695"><ele>770.0</ele><time>2026-04-05T12:36:20.971Z</time></trkpt><trkpt lat="44.91054" lon="7.2643317"><ele>770.0</ele><time>2026-04-05T12:36:21.971Z</time></trkpt><trkpt lat="44.910458" lon="7.2643075"><ele>770.0</ele><time>2026-04-05T12:36:22.971Z</time></trkpt><trkpt lat="44.9103894" lon="7.2642887"><ele>770.0000000000001</ele><time>2026-04-05T12:36:23.971Z</time></trkpt><trkpt lat="44.9103159" lon="7.2642533"><ele>770.0</ele><time>2026-04-05T12:36:24.971Z</time></trkpt><trkpt lat="44.9102447" lon="7.2642172"><ele>770.0000000000001</ele><time>2026-04-05T12:36:25.971Z</time></trkpt><trkpt lat="44.9101488" lon="7.2641161"><ele>770.0</ele><time>2026-04-05T12:36:27.971Z</time></trkpt><trkpt lat="44.9100957" lon="7.2640549"><ele>770.0</ele><time>2026-04-05T12:36:28.971Z</time></trkpt><trkpt lat="44.9100533" lon="7.263975"><ele>770.0</ele><time>2026-04-05T12:36:29.971Z</time></trkpt><trkpt lat="44.9100096" lon="7.263905"><ele>770.0000000000001</ele><time>2026-04-05T12:36:30.971Z</time></trkpt><trkpt lat="44.9099613" lon="7.263827"><ele>770.0</ele><time>2026-04-05T12:36:31.971Z</time></trkpt><trkpt lat="44.9099127" lon="7.2637561"><ele>765.8333333333334</ele><time>2026-04-05T12:36:32.971Z</time></trkpt><trkpt lat="44.9098121" lon="7.2637211"><ele>761.6666666666667</ele><time>2026-04-05T12:36:34.971Z</time></trkpt><trkpt lat="44.9097441" lon="7.2637132"><ele>757.5</ele><time>2026-04-05T12:36:36.971Z</time></trkpt><trkpt lat="44.9097581" lon="7.2636207"><ele>753.3333333333334</ele><time>2026-04-05T12:36:39.971Z</time></trkpt><trkpt lat="44.9098349" lon="7.2636008"><ele>749.1666666666667</ele><time>2026-04-05T12:36:41.971Z</time></trkpt><trkpt lat="44.9099465" lon="7.2636091"><ele>745.0</ele><time>2026-04-05T12:36:43.971Z</time></trkpt><trkpt lat="44.9100432" lon="7.2636318"><ele>744.2</ele><time>2026-04-05T12:36:45.971Z</time></trkpt><trkpt lat="44.9101339" lon="7.2636653"><ele>743.4</ele><time>2026-04-05T12:36:47.971Z</time></trkpt><trkpt lat="44.910211" lon="7.2637146"><ele>742.5999999999999</ele><time>2026-04-05T12:36:49.971Z</time></trkpt><trkpt lat="44.9103049" lon="7.2637955"><ele>741.8</ele><time>2026-04-05T12:36:51.971Z</time></trkpt><trkpt lat="44.9104028" lon="7.2638211"><ele>741.0</ele><time>2026-04-05T12:36:53.971Z</time></trkpt><trkpt lat="44.9104342" lon="7.2637007"><ele>741.0</ele><time>2026-04-05T12:36:56.971Z</time></trkpt><trkpt lat="44.9103544" lon="7.2636059"><ele>741.0</ele><time>2026-04-05T12:36:58.971Z</time></trkpt><trkpt lat="44.9102939" lon="7.2635681"><ele>741.0</ele><time>2026-04-05T12:36:59.971Z</time></trkpt><trkpt lat="44.9102384" lon="7.26351"><ele>741.0</ele><time>2026-04-05T12:37:00.971Z</time></trkpt><trkpt lat="44.9101838" lon="7.2634536"><ele>741.0</ele><time>2026-04-05T12:37:01.971Z</time></trkpt><trkpt lat="44.910114" lon="7.2633483"><ele>741.0</ele><time>2026-04-05T12:37:03.971Z</time></trkpt><trkpt lat="44.9100547" lon="7.263296"><ele>741.8</ele><time>2026-04-05T12:37:04.972Z</time></trkpt><trkpt lat="44.9099973" lon="7.2632545"><ele>742.5999999999999</ele><time>2026-04-05T12:37:05.971Z</time></trkpt><trkpt lat="44.9099453" lon="7.2631625"><ele>743.4</ele><time>2026-04-05T12:37:06.971Z</time></trkpt><trkpt lat="44.9098587" lon="7.2630138"><ele>744.2</ele><time>2026-04-05T12:37:08.971Z</time></trkpt><trkpt lat="44.9098208" lon="7.2629393"><ele>745.0</ele><time>2026-04-05T12:37:09.971Z</time></trkpt><trkpt lat="44.909747" lon="7.2628141"><ele>741.0</ele><time>2026-04-05T12:37:11.971Z</time></trkpt><trkpt lat="44.9096764" lon="7.2627181"><ele>737.0</ele><time>2026-04-05T12:37:13.971Z</time></trkpt><trkpt lat="44.9096872" lon="7.2626228"><ele>733.0</ele><time>2026-04-05T12:37:15.971Z</time></trkpt><trkpt lat="44.90977" lon="7.262562"><ele>729.0</ele><time>2026-04-05T12:37:17.971Z</time></trkpt><trkpt lat="44.9098691" lon="7.2624953"><ele>725.0</ele><time>2026-04-05T12:37:19.971Z</time></trkpt><trkpt lat="44.909926" lon="7.2624345"><ele>721.0</ele><time>2026-04-05T12:37:21.971Z</time></trkpt><trkpt lat="44.9098853" lon="7.2623476"><ele>721.0</ele><time>2026-04-05T12:37:24.971Z</time></trkpt><trkpt lat="44.9098122" lon="7.2623523"><ele>721.0</ele><time>2026-04-05T12:37:26.971Z</time></trkpt><trkpt lat="44.9097423" lon="7.2623424"><ele>721.0</ele><time>2026-04-05T12:37:28.971Z</time></trkpt><trkpt lat="44.9096763" lon="7.2623081"><ele>721.0</ele><time>2026-04-05T12:37:30.971Z</time></trkpt><trkpt lat="44.9096068" lon="7.2622697"><ele>721.0</ele><time>2026-04-05T12:37:32.971Z</time></trkpt><trkpt lat="44.90952" lon="7.2623036"><ele>721.0</ele><time>2026-04-05T12:37:34.971Z</time></trkpt><trkpt lat="44.9094289" lon="7.2623881"><ele>721.0</ele><time>2026-04-05T12:37:36.971Z</time></trkpt><trkpt lat="44.9093411" lon="7.2624796"><ele>721.0</ele><time>2026-04-05T12:37:38.971Z</time></trkpt><trkpt lat="44.909225" lon="7.2625556"><ele>721.0</ele><time>2026-04-05T12:37:40.971Z</time></trkpt><trkpt lat="44.9091098" lon="7.2626352"><ele>721.0</ele><time>2026-04-05T12:37:42.971Z</time></trkpt><trkpt lat="44.9090513" lon="7.2626909"><ele>721.0</ele><time>2026-04-05T12:37:43.971Z</time></trkpt><trkpt lat="44.9089574" lon="7.2627968"><ele>721.5999999999999</ele><time>2026-04-05T12:37:45.971Z</time></trkpt><trkpt lat="44.9088683" lon="7.262915"><ele>722.2</ele><time>2026-04-05T12:37:47.971Z</time></trkpt><trkpt lat="44.9087823" lon="7.263001"><ele>722.8</ele><time>2026-04-05T12:37:49.971Z</time></trkpt><trkpt lat="44.9087278" lon="7.2630539"><ele>723.4000000000001</ele><time>2026-04-05T12:37:50.971Z</time></trkpt><trkpt lat="44.908636" lon="7.2631086"><ele>724.0</ele><time>2026-04-05T12:37:52.971Z</time></trkpt><trkpt lat="44.9085766" lon="7.2630082"><ele>724.0</ele><time>2026-04-05T12:37:54.971Z</time></trkpt><trkpt lat="44.9085533" lon="7.2628647"><ele>724.0</ele><time>2026-04-05T12:37:56.971Z</time></trkpt><trkpt lat="44.9085027" lon="7.2627112"><ele>724.0</ele><time>2026-04-05T12:37:58.971Z</time></trkpt><trkpt lat="44.9084196" lon="7.2625667"><ele>724.0</ele><time>2026-04-05T12:38:00.971Z</time></trkpt><trkpt lat="44.9083748" lon="7.2624986"><ele>724.0</ele><time>2026-04-05T12:38:01.971Z</time></trkpt><trkpt lat="44.9083194" lon="7.2623463"><ele>725.1428571428571</ele><time>2026-04-05T12:38:03.971Z</time></trkpt><trkpt lat="44.9082944" lon="7.2622537"><ele>726.2857142857142</ele><time>2026-04-05T12:38:04.971Z</time></trkpt><trkpt lat="44.9082903" lon="7.262159"><ele>727.4285714285714</ele><time>2026-04-05T12:38:05.971Z</time></trkpt><trkpt lat="44.9082493" lon="7.262075"><ele>728.5714285714286</ele><time>2026-04-05T12:38:06.971Z</time></trkpt><trkpt lat="44.9082277" lon="7.2619896"><ele>729.7142857142858</ele><time>2026-04-05T12:38:07.971Z</time></trkpt><trkpt lat="44.9081902" lon="7.2619119"><ele>730.8571428571429</ele><time>2026-04-05T12:38:08.971Z</time></trkpt><trkpt lat="44.9081378" lon="7.2618366"><ele>732.0</ele><time>2026-04-05T12:38:09.971Z</time></trkpt><trkpt lat="44.9080975" lon="7.2617647"><ele>732.0</ele><time>2026-04-05T12:38:10.971Z</time></trkpt><trkpt lat="44.9080296" lon="7.2616282"><ele>732.0</ele><time>2026-04-05T12:38:12.971Z</time></trkpt><trkpt lat="44.9079836" lon="7.2614718"><ele>732.0</ele><time>2026-04-05T12:38:14.971Z</time></trkpt><trkpt lat="44.9079786" lon="7.2612906"><ele>732.0</ele><time>2026-04-05T12:38:16.971Z</time></trkpt><trkpt lat="44.9079895" lon="7.2612018"><ele>732.0</ele><time>2026-04-05T12:38:17.971Z</time></trkpt><trkpt lat="44.9079847" lon="7.2611067"><ele>731.4285714285714</ele><time>2026-04-05T12:38:18.971Z</time></trkpt><trkpt lat="44.9079983" lon="7.2609997"><ele>730.8571428571429</ele><time>2026-04-05T12:38:19.971Z</time></trkpt><trkpt lat="44.9080259" lon="7.2608949"><ele>730.2857142857142</ele><time>2026-04-05T12:38:20.971Z</time></trkpt><trkpt lat="44.9080464" lon="7.2607745"><ele>729.7142857142858</ele><time>2026-04-05T12:38:21.971Z</time></trkpt><trkpt lat="44.9080654" lon="7.2606841"><ele>729.1428571428571</ele><time>2026-04-05T12:38:22.971Z</time></trkpt><trkpt lat="44.9080749" lon="7.2605914"><ele>728.5714285714286</ele><time>2026-04-05T12:38:23.971Z</time></trkpt><trkpt lat="44.9080952" lon="7.2604979"><ele>728.0</ele><time>2026-04-05T12:38:24.971Z</time></trkpt><trkpt lat="44.908124" lon="7.2603398"><ele>727.2</ele><time>2026-04-05T12:38:26.971Z</time></trkpt><trkpt lat="44.9081112" lon="7.2602032"><ele>726.4</ele><time>2026-04-05T12:38:28.971Z</time></trkpt><trkpt lat="44.9080709" lon="7.2600437"><ele>725.6</ele><time>2026-04-05T12:38:30.971Z</time></trkpt><trkpt lat="44.9080171" lon="7.2598948"><ele>724.8000000000001</ele><time>2026-04-05T12:38:32.971Z</time></trkpt><trkpt lat="44.9079249" lon="7.259817"><ele>724.0</ele><time>2026-04-05T12:38:34.971Z</time></trkpt><trkpt lat="44.9078611" lon="7.2598068"><ele>724.0</ele><time>2026-04-05T12:38:35.971Z</time></trkpt><trkpt lat="44.9077967" lon="7.2597974"><ele>724.0</ele><time>2026-04-05T12:38:36.971Z</time></trkpt><trkpt lat="44.9077263" lon="7.2597899"><ele>724.0</ele><time>2026-04-05T12:38:37.971Z</time></trkpt><trkpt lat="44.9076559" lon="7.2597715"><ele>724.0</ele><time>2026-04-05T12:38:38.971Z</time></trkpt><trkpt lat="44.9075303" lon="7.259687"><ele>724.0</ele><time>2026-04-05T12:38:40.971Z</time></trkpt><trkpt lat="44.907483" lon="7.259625"><ele>724.0</ele><time>2026-04-05T12:38:41.971Z</time></trkpt><trkpt lat="44.9074158" lon="7.2595495"><ele>722.8571428571429</ele><time>2026-04-05T12:38:42.971Z</time></trkpt><trkpt lat="44.9073672" lon="7.2594692"><ele>721.7142857142857</ele><time>2026-04-05T12:38:43.971Z</time></trkpt><trkpt lat="44.9073257" lon="7.2593892"><ele>720.5714285714287</ele><time>2026-04-05T12:38:44.971Z</time></trkpt><trkpt lat="44.9072846" lon="7.2593044"><ele>719.4285714285714</ele><time>2026-04-05T12:38:45.971Z</time></trkpt><trkpt lat="44.9072366" lon="7.2592135"><ele>718.2857142857143</ele><time>2026-04-05T12:38:46.971Z</time></trkpt><trkpt lat="44.9071825" lon="7.2591439"><ele>717.1428571428572</ele><time>2026-04-05T12:38:47.971Z</time></trkpt><trkpt lat="44.9071395" lon="7.2590679"><ele>716.0</ele><time>2026-04-05T12:38:48.971Z</time></trkpt><trkpt lat="44.9070877" lon="7.2588977"><ele>716.0000000000001</ele><time>2026-04-05T12:38:50.971Z</time></trkpt><trkpt lat="44.9070588" lon="7.2588022"><ele>716.0</ele><time>2026-04-05T12:38:51.971Z</time></trkpt><trkpt lat="44.9070242" lon="7.2587112"><ele>716.0</ele><time>2026-04-05T12:38:52.971Z</time></trkpt><trkpt lat="44.9069893" lon="7.2586293"><ele>716.0</ele><time>2026-04-05T12:38:53.971Z</time></trkpt><trkpt lat="44.9069526" lon="7.2585419"><ele>716.0</ele><time>2026-04-05T12:38:54.971Z</time></trkpt><trkpt lat="44.9069093" lon="7.2584747"><ele>716.0000000000001</ele><time>2026-04-05T12:38:55.971Z</time></trkpt><trkpt lat="44.9068465" lon="7.2584014"><ele>716.0</ele><time>2026-04-05T12:38:56.971Z</time></trkpt><trkpt lat="44.9067806" lon="7.2583375"><ele>722.5</ele><time>2026-04-05T12:38:57.971Z</time></trkpt><trkpt lat="44.9067149" lon="7.2582933"><ele>729.0</ele><time>2026-04-05T12:38:58.971Z</time></trkpt><trkpt lat="44.9066412" lon="7.2582428"><ele>735.5</ele><time>2026-04-05T12:38:59.971Z</time></trkpt><trkpt lat="44.9065605" lon="7.2582286"><ele>742.0</ele><time>2026-04-05T12:39:00.971Z</time></trkpt><trkpt lat="44.9064874" lon="7.2581757"><ele>748.5</ele><time>2026-04-05T12:39:01.971Z</time></trkpt><trkpt lat="44.9064094" lon="7.2581818"><ele>755.0</ele><time>2026-04-05T12:39:02.971Z</time></trkpt><trkpt lat="44.9063448" lon="7.2581588"><ele>755.0</ele><time>2026-04-05T12:39:03.971Z</time></trkpt><trkpt lat="44.9062819" lon="7.258151"><ele>755.0</ele><time>2026-04-05T12:39:04.971Z</time></trkpt><trkpt lat="44.9062162" lon="7.2581135"><ele>755.0</ele><time>2026-04-05T12:39:05.972Z</time></trkpt><trkpt lat="44.9060882" lon="7.2581214"><ele>755.0</ele><time>2026-04-05T12:39:07.971Z</time></trkpt><trkpt lat="44.9060103" lon="7.2581358"><ele>755.0</ele><time>2026-04-05T12:39:08.971Z</time></trkpt><trkpt lat="44.9059326" lon="7.2581584"><ele>755.0</ele><time>2026-04-05T12:39:09.971Z</time></trkpt><trkpt lat="44.9058593" lon="7.2581645"><ele>753.5714285714286</ele><time>2026-04-05T12:39:10.971Z</time></trkpt><trkpt lat="44.9057817" lon="7.2581597"><ele>752.1428571428572</ele><time>2026-04-05T12:39:11.971Z</time></trkpt><trkpt lat="44.9057137" lon="7.2581246"><ele>750.7142857142858</ele><time>2026-04-05T12:39:12.971Z</time></trkpt><trkpt lat="44.9056495" lon="7.2580913"><ele>749.2857142857142</ele><time>2026-04-05T12:39:13.971Z</time></trkpt><trkpt lat="44.9055847" lon="7.258024"><ele>747.8571428571429</ele><time>2026-04-05T12:39:14.972Z</time></trkpt><trkpt lat="44.9055235" lon="7.2579639"><ele>746.4285714285714</ele><time>2026-04-05T12:39:15.971Z</time></trkpt><trkpt lat="44.9054626" lon="7.2579227"><ele>745.0</ele><time>2026-04-05T12:39:16.971Z</time></trkpt><trkpt lat="44.9054011" lon="7.2578772"><ele>745.0</ele><time>2026-04-05T12:39:17.971Z</time></trkpt><trkpt lat="44.9053342" lon="7.2578366"><ele>745.0</ele><time>2026-04-05T12:39:18.971Z</time></trkpt><trkpt lat="44.9052525" lon="7.2578007"><ele>745.0</ele><time>2026-04-05T12:39:19.971Z</time></trkpt><trkpt lat="44.9051368" lon="7.2577734"><ele>745.0</ele><time>2026-04-05T12:39:21.971Z</time></trkpt><trkpt lat="44.9050703" lon="7.2577804"><ele>745.0</ele><time>2026-04-05T12:39:22.971Z</time></trkpt><trkpt lat="44.905004" lon="7.257781"><ele>745.0</ele><time>2026-04-05T12:39:23.971Z</time></trkpt><trkpt lat="44.9049313" lon="7.2577676"><ele>748.5</ele><time>2026-04-05T12:39:24.971Z</time></trkpt><trkpt lat="44.9048564" lon="7.2577905"><ele>752.0</ele><time>2026-04-05T12:39:25.971Z</time></trkpt><trkpt lat="44.9047763" lon="7.257811"><ele>755.5</ele><time>2026-04-05T12:39:26.971Z</time></trkpt><trkpt lat="44.9046863" lon="7.2578574"><ele>759.0</ele><time>2026-04-05T12:39:27.971Z</time></trkpt><trkpt lat="44.9046191" lon="7.257888"><ele>762.5</ele><time>2026-04-05T12:39:28.971Z</time></trkpt><trkpt lat="44.9045562" lon="7.2578986"><ele>766.0</ele><time>2026-04-05T12:39:29.971Z</time></trkpt><trkpt lat="44.9044924" lon="7.2579068"><ele>766.0</ele><time>2026-04-05T12:39:30.971Z</time></trkpt><trkpt lat="44.9043972" lon="7.2579332"><ele>766.0</ele><time>2026-04-05T12:39:32.971Z</time></trkpt><trkpt lat="44.9043318" lon="7.2580115"><ele>766.0</ele><time>2026-04-05T12:39:35.971Z</time></trkpt><trkpt lat="44.9042768" lon="7.2581003"><ele>766.0</ele><time>2026-04-05T12:40:01.971Z</time></trkpt><trkpt lat="44.9042022" lon="7.2581939"><ele>766.0</ele><time>2026-04-05T12:40:03.971Z</time></trkpt><trkpt lat="44.9041331" lon="7.258278"><ele>771.4</ele><time>2026-04-05T12:40:05.971Z</time></trkpt><trkpt lat="44.9040383" lon="7.2583912"><ele>776.8</ele><time>2026-04-05T12:40:07.971Z</time></trkpt><trkpt lat="44.9039274" lon="7.2584704"><ele>782.1999999999999</ele><time>2026-04-05T12:40:09.971Z</time></trkpt><trkpt lat="44.9038631" lon="7.2584986"><ele>787.5999999999999</ele><time>2026-04-05T12:40:10.971Z</time></trkpt><trkpt lat="44.9037795" lon="7.2585255"><ele>793.0</ele><time>2026-04-05T12:40:11.971Z</time></trkpt><trkpt lat="44.9036674" lon="7.2585375"><ele>792.9999999999999</ele><time>2026-04-05T12:40:12.971Z</time></trkpt><trkpt lat="44.9035908" lon="7.258555"><ele>793.0</ele><time>2026-04-05T12:40:13.971Z</time></trkpt><trkpt lat="44.9035042" lon="7.2585794"><ele>793.0</ele><time>2026-04-05T12:40:14.971Z</time></trkpt><trkpt lat="44.9034258" lon="7.2585554"><ele>793.0</ele><time>2026-04-05T12:40:15.971Z</time></trkpt><trkpt lat="44.9033346" lon="7.2585219"><ele>792.9999999999999</ele><time>2026-04-05T12:40:16.971Z</time></trkpt><trkpt lat="44.9032543" lon="7.258477"><ele>793.0</ele><time>2026-04-05T12:40:17.971Z</time></trkpt><trkpt lat="44.9031603" lon="7.258449"><ele>790.1666666666666</ele><time>2026-04-05T12:40:18.971Z</time></trkpt><trkpt lat="44.9030801" lon="7.2584046"><ele>787.3333333333333</ele><time>2026-04-05T12:40:19.971Z</time></trkpt><trkpt lat="44.903006" lon="7.2583705"><ele>784.5</ele><time>2026-04-05T12:40:20.971Z</time></trkpt><trkpt lat="44.9029058" lon="7.2583545"><ele>781.6666666666667</ele><time>2026-04-05T12:40:22.971Z</time></trkpt><trkpt lat="44.9028461" lon="7.2583884"><ele>778.8333333333334</ele><time>2026-04-05T12:40:23.971Z</time></trkpt><trkpt lat="44.9027895" lon="7.2584496"><ele>776.0</ele><time>2026-04-05T12:40:24.971Z</time></trkpt><trkpt lat="44.9027349" lon="7.2585204"><ele>776.0</ele><time>2026-04-05T12:40:25.971Z</time></trkpt><trkpt lat="44.9026849" lon="7.2586077"><ele>776.0</ele><time>2026-04-05T12:40:26.971Z</time></trkpt><trkpt lat="44.9026408" lon="7.2586944"><ele>776.0</ele><time>2026-04-05T12:40:27.971Z</time></trkpt><trkpt lat="44.9026023" lon="7.2587891"><ele>776.0</ele><time>2026-04-05T12:40:28.971Z</time></trkpt><trkpt lat="44.9025766" lon="7.2588766"><ele>776.0</ele><time>2026-04-05T12:40:29.971Z</time></trkpt><trkpt lat="44.9025703" lon="7.2589766"><ele>776.0</ele><time>2026-04-05T12:40:30.971Z</time></trkpt><trkpt lat="44.902565" lon="7.2590696"><ele>776.0</ele><time>2026-04-05T12:40:31.971Z</time></trkpt><trkpt lat="44.9025616" lon="7.25917"><ele>778.4</ele><time>2026-04-05T12:40:32.971Z</time></trkpt><trkpt lat="44.9025275" lon="7.2592995"><ele>780.8</ele><time>2026-04-05T12:40:34.971Z</time></trkpt><trkpt lat="44.9024541" lon="7.2593453"><ele>783.1999999999999</ele><time>2026-04-05T12:40:37.971Z</time></trkpt><trkpt lat="44.9023608" lon="7.2593657"><ele>785.5999999999999</ele><time>2026-04-05T12:40:39.971Z</time></trkpt><trkpt lat="44.9022594" lon="7.2593527"><ele>788.0</ele><time>2026-04-05T12:40:41.971Z</time></trkpt><trkpt lat="44.9021755" lon="7.2593148"><ele>788.0</ele><time>2026-04-05T12:40:43.971Z</time></trkpt><trkpt lat="44.9020914" lon="7.2592629"><ele>788.0</ele><time>2026-04-05T12:40:45.971Z</time></trkpt><trkpt lat="44.9020127" lon="7.2591985"><ele>788.0</ele><time>2026-04-05T12:40:47.971Z</time></trkpt><trkpt lat="44.9019153" lon="7.2590926"><ele>788.0</ele><time>2026-04-05T12:40:49.971Z</time></trkpt><trkpt lat="44.9018402" lon="7.2590226"><ele>788.0</ele><time>2026-04-05T12:40:51.971Z</time></trkpt><trkpt lat="44.9017696" lon="7.2589098"><ele>784.4</ele><time>2026-04-05T12:40:53.971Z</time></trkpt><trkpt lat="44.9017151" lon="7.2587936"><ele>780.8</ele><time>2026-04-05T12:40:55.971Z</time></trkpt><trkpt lat="44.9016693" lon="7.2586804"><ele>777.2</ele><time>2026-04-05T12:40:57.971Z</time></trkpt><trkpt lat="44.9016308" lon="7.2585514"><ele>773.6</ele><time>2026-04-05T12:40:59.971Z</time></trkpt><trkpt lat="44.9015355" lon="7.2584783"><ele>770.0</ele><time>2026-04-05T12:41:01.971Z</time></trkpt><trkpt lat="44.9014254" lon="7.2584216"><ele>770.0</ele><time>2026-04-05T12:41:03.971Z</time></trkpt><trkpt lat="44.9013028" lon="7.2583579"><ele>770.0</ele><time>2026-04-05T12:41:05.971Z</time></trkpt><trkpt lat="44.9012145" lon="7.2582945"><ele>770.0</ele><time>2026-04-05T12:41:07.971Z</time></trkpt><trkpt lat="44.9011222" lon="7.2582214"><ele>770.0</ele><time>2026-04-05T12:41:09.971Z</time></trkpt><trkpt lat="44.9010433" lon="7.258178"><ele>770.0</ele><time>2026-04-05T12:41:10.971Z</time></trkpt><trkpt lat="44.90097" lon="7.2581378"><ele>769.8333333333334</ele><time>2026-04-05T12:41:11.971Z</time></trkpt><trkpt lat="44.9009132" lon="7.2580873"><ele>769.6666666666667</ele><time>2026-04-05T12:41:12.971Z</time></trkpt><trkpt lat="44.9008534" lon="7.2580379"><ele>769.5</ele><time>2026-04-05T12:41:13.971Z</time></trkpt><trkpt lat="44.9007978" lon="7.257993"><ele>769.3333333333333</ele><time>2026-04-05T12:41:14.971Z</time></trkpt><trkpt lat="44.9007225" lon="7.2578744"><ele>769.1666666666666</ele><time>2026-04-05T12:41:16.971Z</time></trkpt><trkpt lat="44.9006589" lon="7.2577356"><ele>769.0</ele><time>2026-04-05T12:41:18.971Z</time></trkpt><trkpt lat="44.9006187" lon="7.2576642"><ele>769.0</ele><time>2026-04-05T12:41:19.971Z</time></trkpt><trkpt lat="44.9005659" lon="7.2576069"><ele>769.0</ele><time>2026-04-05T12:41:20.971Z</time></trkpt><trkpt lat="44.9004639" lon="7.2575829"><ele>769.0</ele><time>2026-04-05T12:41:22.972Z</time></trkpt><trkpt lat="44.9003546" lon="7.2575613"><ele>769.0</ele><time>2026-04-05T12:41:24.971Z</time></trkpt><trkpt lat="44.9002651" lon="7.2574782"><ele>769.0</ele><time>2026-04-05T12:41:26.971Z</time></trkpt><trkpt lat="44.9001787" lon="7.257387"><ele>768.9999999999999</ele><time>2026-04-05T12:41:28.971Z</time></trkpt><trkpt lat="44.9001421" lon="7.2573113"><ele>769.0</ele><time>2026-04-05T12:41:29.971Z</time></trkpt><trkpt lat="44.9000506" lon="7.257203"><ele>769.0</ele><time>2026-04-05T12:41:31.971Z</time></trkpt><trkpt lat="44.8999965" lon="7.2571423"><ele>769.0</ele><time>2026-04-05T12:41:32.971Z</time></trkpt><trkpt lat="44.8999191" lon="7.257077"><ele>768.9999999999999</ele><time>2026-04-05T12:41:33.971Z</time></trkpt><trkpt lat="44.8998812" lon="7.2569737"><ele>769.0</ele><time>2026-04-05T12:41:34.971Z</time></trkpt><trkpt lat="44.8998391" lon="7.2568813"><ele>771.3333333333333</ele><time>2026-04-05T12:41:35.971Z</time></trkpt><trkpt lat="44.8997729" lon="7.2568036"><ele>773.6666666666666</ele><time>2026-04-05T12:41:36.971Z</time></trkpt><trkpt lat="44.8996782" lon="7.2566942"><ele>776.0</ele><time>2026-04-05T12:41:38.971Z</time></trkpt><trkpt lat="44.8996071" lon="7.2566299"><ele>778.3333333333333</ele><time>2026-04-05T12:41:39.971Z</time></trkpt><trkpt lat="44.899546" lon="7.2565717"><ele>780.6666666666666</ele><time>2026-04-05T12:41:40.971Z</time></trkpt><trkpt lat="44.8994829" lon="7.2565333"><ele>783.0</ele><time>2026-04-05T12:41:41.971Z</time></trkpt><trkpt lat="44.8994287" lon="7.2564709"><ele>785.7142857142857</ele><time>2026-04-05T12:41:42.971Z</time></trkpt><trkpt lat="44.8993677" lon="7.256427"><ele>788.4285714285714</ele><time>2026-04-05T12:41:43.971Z</time></trkpt><trkpt lat="44.8993042" lon="7.2563602"><ele>791.1428571428571</ele><time>2026-04-05T12:41:44.971Z</time></trkpt><trkpt lat="44.8992474" lon="7.2563015"><ele>793.8571428571429</ele><time>2026-04-05T12:41:45.971Z</time></trkpt><trkpt lat="44.8991902" lon="7.2562292"><ele>796.5714285714287</ele><time>2026-04-05T12:41:46.971Z</time></trkpt><trkpt lat="44.8991442" lon="7.2561624"><ele>799.2857142857143</ele><time>2026-04-05T12:41:47.971Z</time></trkpt><trkpt lat="44.8990933" lon="7.2560852"><ele>802.0</ele><time>2026-04-05T12:41:48.971Z</time></trkpt><trkpt lat="44.8990418" lon="7.2560127"><ele>801.9999999999999</ele><time>2026-04-05T12:41:49.971Z</time></trkpt><trkpt lat="44.8989781" lon="7.2559499"><ele>802.0</ele><time>2026-04-05T12:41:51.971Z</time></trkpt><trkpt lat="44.8989155" lon="7.2559396"><ele>802.0</ele><time>2026-04-05T12:42:06.972Z</time></trkpt><trkpt lat="44.8988971" lon="7.2560588"><ele>802.0</ele><time>2026-04-05T12:42:09.971Z</time></trkpt><trkpt lat="44.8988782" lon="7.2561746"><ele>801.9999999999999</ele><time>2026-04-05T12:42:11.971Z</time></trkpt><trkpt lat="44.8988512" lon="7.2563362"><ele>802.0</ele><time>2026-04-05T12:42:13.971Z</time></trkpt><trkpt lat="44.8988357" lon="7.2564517"><ele>804.6</ele><time>2026-04-05T12:42:14.971Z</time></trkpt><trkpt lat="44.8988178" lon="7.2565864"><ele>807.2</ele><time>2026-04-05T12:42:15.971Z</time></trkpt><trkpt lat="44.8988027" lon="7.2567139"><ele>809.8</ele><time>2026-04-05T12:42:16.971Z</time></trkpt><trkpt lat="44.8987894" lon="7.256843"><ele>812.4</ele><time>2026-04-05T12:42:17.971Z</time></trkpt><trkpt lat="44.8987718" lon="7.2569851"><ele>815.0</ele><time>2026-04-05T12:42:18.971Z</time></trkpt><trkpt lat="44.898743" lon="7.2571278"><ele>815.0000000000001</ele><time>2026-04-05T12:42:19.971Z</time></trkpt><trkpt lat="44.898715" lon="7.2572498"><ele>815.0</ele><time>2026-04-05T12:42:20.971Z</time></trkpt><trkpt lat="44.898691" lon="7.2573449"><ele>815.0</ele><time>2026-04-05T12:42:21.971Z</time></trkpt><trkpt lat="44.8986904" lon="7.2574375"><ele>815.0</ele><time>2026-04-05T12:42:22.971Z</time></trkpt><trkpt lat="44.8987161" lon="7.2575305"><ele>815.0000000000001</ele><time>2026-04-05T12:42:23.971Z</time></trkpt><trkpt lat="44.8987641" lon="7.2576364"><ele>815.0</ele><time>2026-04-05T12:42:24.971Z</time></trkpt><trkpt lat="44.8987992" lon="7.2577524"><ele>816.2</ele><time>2026-04-05T12:42:25.971Z</time></trkpt><trkpt lat="44.8988291" lon="7.2578904"><ele>817.4</ele><time>2026-04-05T12:42:26.971Z</time></trkpt><trkpt lat="44.8988349" lon="7.2580402"><ele>818.5999999999999</ele><time>2026-04-05T12:42:27.971Z</time></trkpt><trkpt lat="44.8988391" lon="7.2581745"><ele>819.8</ele><time>2026-04-05T12:42:28.971Z</time></trkpt><trkpt lat="44.8988478" lon="7.2583057"><ele>821.0</ele><time>2026-04-05T12:42:29.971Z</time></trkpt><trkpt lat="44.89886" lon="7.2584179"><ele>821.0000000000001</ele><time>2026-04-05T12:42:30.971Z</time></trkpt><trkpt lat="44.8988751" lon="7.2585134"><ele>821.0</ele><time>2026-04-05T12:42:31.971Z</time></trkpt><trkpt lat="44.898859" lon="7.2586422"><ele>821.0</ele><time>2026-04-05T12:42:33.971Z</time></trkpt><trkpt lat="44.8987837" lon="7.2586472"><ele>821.0</ele><time>2026-04-05T12:42:35.971Z</time></trkpt><trkpt lat="44.8986997" lon="7.2585251"><ele>821.0000000000001</ele><time>2026-04-05T12:42:37.971Z</time></trkpt><trkpt lat="44.8986703" lon="7.258423"><ele>821.0</ele><time>2026-04-05T12:42:38.971Z</time></trkpt><trkpt lat="44.8986594" lon="7.2582973"><ele>821.0</ele><time>2026-04-05T12:42:39.971Z</time></trkpt><trkpt lat="44.8986409" lon="7.2581728"><ele>821.0</ele><time>2026-04-05T12:42:40.971Z</time></trkpt><trkpt lat="44.8986097" lon="7.2580589"><ele>821.0</ele><time>2026-04-05T12:42:41.971Z</time></trkpt><trkpt lat="44.8985535" lon="7.2579482"><ele>821.0</ele><time>2026-04-05T12:42:42.971Z</time></trkpt><trkpt lat="44.8984792" lon="7.2578579"><ele>821.0</ele><time>2026-04-05T12:42:43.971Z</time></trkpt><trkpt lat="44.8983912" lon="7.2577784"><ele>815.1999999999999</ele><time>2026-04-05T12:42:44.971Z</time></trkpt><trkpt lat="44.8983096" lon="7.2577176"><ele>809.4</ele><time>2026-04-05T12:42:45.971Z</time></trkpt><trkpt lat="44.8982264" lon="7.2576592"><ele>803.6</ele><time>2026-04-05T12:42:46.971Z</time></trkpt><trkpt lat="44.8981578" lon="7.2575855"><ele>797.8</ele><time>2026-04-05T12:42:47.971Z</time></trkpt><trkpt lat="44.8981018" lon="7.2575141"><ele>792.0</ele><time>2026-04-05T12:42:48.971Z</time></trkpt><trkpt lat="44.8980056" lon="7.2574255"><ele>792.0</ele><time>2026-04-05T12:42:50.971Z</time></trkpt><trkpt lat="44.8979506" lon="7.2574964"><ele>792.0</ele><time>2026-04-05T12:42:52.971Z</time></trkpt><trkpt lat="44.8979691" lon="7.2576278"><ele>792.0</ele><time>2026-04-05T12:42:54.971Z</time></trkpt><trkpt lat="44.8980721" lon="7.2577653"><ele>792.0</ele><time>2026-04-05T12:42:56.971Z</time></trkpt><trkpt lat="44.8981471" lon="7.2578313"><ele>792.0</ele><time>2026-04-05T12:42:57.971Z</time></trkpt><trkpt lat="44.898222" lon="7.2579084"><ele>792.0</ele><time>2026-04-05T12:42:58.971Z</time></trkpt><trkpt lat="44.8982773" lon="7.258003"><ele>792.0</ele><time>2026-04-05T12:42:59.971Z</time></trkpt><trkpt lat="44.8983298" lon="7.2581004"><ele>792.0</ele><time>2026-04-05T12:43:00.971Z</time></trkpt><trkpt lat="44.8983612" lon="7.2582968"><ele>792.0</ele><time>2026-04-05T12:43:02.971Z</time></trkpt><trkpt lat="44.8983537" lon="7.2584409"><ele>792.0</ele><time>2026-04-05T12:43:03.971Z</time></trkpt><trkpt lat="44.898321" lon="7.2586214"><ele>793.6</ele><time>2026-04-05T12:43:04.971Z</time></trkpt><trkpt lat="44.8983087" lon="7.2587623"><ele>795.2</ele><time>2026-04-05T12:43:05.971Z</time></trkpt><trkpt lat="44.8983182" lon="7.2588896"><ele>796.8</ele><time>2026-04-05T12:43:06.971Z</time></trkpt><trkpt lat="44.8983223" lon="7.259024"><ele>798.4</ele><time>2026-04-05T12:43:07.971Z</time></trkpt><trkpt lat="44.8983823" lon="7.2591603"><ele>800.0</ele><time>2026-04-05T12:43:08.971Z</time></trkpt><trkpt lat="44.8984307" lon="7.2592936"><ele>800.0</ele><time>2026-04-05T12:43:09.971Z</time></trkpt><trkpt lat="44.8984867" lon="7.2594368"><ele>800.0</ele><time>2026-04-05T12:43:10.971Z</time></trkpt><trkpt lat="44.898542" lon="7.2595654"><ele>800.0</ele><time>2026-04-05T12:43:11.971Z</time></trkpt><trkpt lat="44.8985809" lon="7.2596746"><ele>800.0</ele><time>2026-04-05T12:43:12.971Z</time></trkpt><trkpt lat="44.8986088" lon="7.2597832"><ele>800.0</ele><time>2026-04-05T12:43:13.971Z</time></trkpt><trkpt lat="44.8985986" lon="7.2599018"><ele>797.6</ele><time>2026-04-05T12:43:14.971Z</time></trkpt><trkpt lat="44.8985696" lon="7.260026"><ele>795.2</ele><time>2026-04-05T12:43:15.971Z</time></trkpt><trkpt lat="44.8985162" lon="7.2601572"><ele>792.8</ele><time>2026-04-05T12:43:16.971Z</time></trkpt><trkpt lat="44.8984523" lon="7.2602891"><ele>790.4</ele><time>2026-04-05T12:43:17.971Z</time></trkpt><trkpt lat="44.8983781" lon="7.2604166"><ele>788.0</ele><time>2026-04-05T12:43:18.971Z</time></trkpt><trkpt lat="44.8983157" lon="7.2605043"><ele>780.2</ele><time>2026-04-05T12:43:19.971Z</time></trkpt><trkpt lat="44.8982923" lon="7.2606024"><ele>772.4</ele><time>2026-04-05T12:43:20.971Z</time></trkpt><trkpt lat="44.8982859" lon="7.2607478"><ele>764.6</ele><time>2026-04-05T12:43:21.971Z</time></trkpt><trkpt lat="44.8982832" lon="7.2608946"><ele>756.8000000000001</ele><time>2026-04-05T12:43:22.971Z</time></trkpt><trkpt lat="44.8983059" lon="7.2610336"><ele>749.0</ele><time>2026-04-05T12:43:23.971Z</time></trkpt><trkpt lat="44.8983209" lon="7.2611601"><ele>749.0</ele><time>2026-04-05T12:43:24.971Z</time></trkpt><trkpt lat="44.8983296" lon="7.2612679"><ele>749.0</ele><time>2026-04-05T12:43:25.971Z</time></trkpt><trkpt lat="44.8983156" lon="7.2613586"><ele>749.0</ele><time>2026-04-05T12:43:26.971Z</time></trkpt><trkpt lat="44.8982052" lon="7.261423"><ele>749.0</ele><time>2026-04-05T12:43:28.971Z</time></trkpt><trkpt lat="44.8981292" lon="7.2613982"><ele>749.0</ele><time>2026-04-05T12:43:29.971Z</time></trkpt><trkpt lat="44.8980573" lon="7.2613751"><ele>749.0</ele><time>2026-04-05T12:43:30.971Z</time></trkpt><trkpt lat="44.8979664" lon="7.2613364"><ele>749.0</ele><time>2026-04-05T12:43:31.971Z</time></trkpt><trkpt lat="44.8978729" lon="7.2613274"><ele>749.0</ele><time>2026-04-05T12:43:32.971Z</time></trkpt><trkpt lat="44.8977683" lon="7.2613654"><ele>749.0</ele><time>2026-04-05T12:43:33.971Z</time></trkpt><trkpt lat="44.897661" lon="7.2614145"><ele>749.0</ele><time>2026-04-05T12:43:34.972Z</time></trkpt><trkpt lat="44.8975663" lon="7.2614641"><ele>749.0</ele><time>2026-04-05T12:43:35.971Z</time></trkpt><trkpt lat="44.8974731" lon="7.2615115"><ele>746.8000000000001</ele><time>2026-04-05T12:43:36.971Z</time></trkpt><trkpt lat="44.8973548" lon="7.2615134"><ele>744.6</ele><time>2026-04-05T12:43:37.971Z</time></trkpt><trkpt lat="44.8972437" lon="7.2615292"><ele>742.4</ele><time>2026-04-05T12:43:38.971Z</time></trkpt><trkpt lat="44.8971345" lon="7.2615614"><ele>740.2</ele><time>2026-04-05T12:43:39.971Z</time></trkpt><trkpt lat="44.8970385" lon="7.2615846"><ele>738.0</ele><time>2026-04-05T12:43:40.971Z</time></trkpt><trkpt lat="44.8969455" lon="7.2616143"><ele>738.0</ele><time>2026-04-05T12:43:41.971Z</time></trkpt><trkpt lat="44.8968678" lon="7.2616433"><ele>738.0</ele><time>2026-04-05T12:43:42.971Z</time></trkpt><trkpt lat="44.8967844" lon="7.2616603"><ele>738.0</ele><time>2026-04-05T12:43:43.971Z</time></trkpt><trkpt lat="44.8967033" lon="7.261666"><ele>738.0</ele><time>2026-04-05T12:43:44.971Z</time></trkpt><trkpt lat="44.8966134" lon="7.2616881"><ele>738.0</ele><time>2026-04-05T12:43:45.971Z</time></trkpt><trkpt lat="44.8965342" lon="7.2616995"><ele>738.0</ele><time>2026-04-05T12:43:46.971Z</time></trkpt><trkpt lat="44.8964416" lon="7.2617119"><ele>735.6666666666666</ele><time>2026-04-05T12:43:47.971Z</time></trkpt><trkpt lat="44.8963638" lon="7.2617202"><ele>733.3333333333334</ele><time>2026-04-05T12:43:48.971Z</time></trkpt><trkpt lat="44.8962822" lon="7.2617421"><ele>731.0</ele><time>2026-04-05T12:43:49.971Z</time></trkpt><trkpt lat="44.8961923" lon="7.261763"><ele>728.6666666666667</ele><time>2026-04-05T12:43:50.971Z</time></trkpt><trkpt lat="44.8961293" lon="7.2617906"><ele>726.3333333333334</ele><time>2026-04-05T12:43:51.971Z</time></trkpt><trkpt lat="44.8960382" lon="7.2618358"><ele>724.0</ele><time>2026-04-05T12:43:52.971Z</time></trkpt><trkpt lat="44.8959619" lon="7.2618693"><ele>720.0</ele><time>2026-04-05T12:43:53.971Z</time></trkpt><trkpt lat="44.8958836" lon="7.2619036"><ele>716.0</ele><time>2026-04-05T12:43:54.971Z</time></trkpt><trkpt lat="44.8957603" lon="7.2619401"><ele>712.0</ele><time>2026-04-05T12:43:55.971Z</time></trkpt><trkpt lat="44.8956612" lon="7.2619681"><ele>708.0</ele><time>2026-04-05T12:43:56.971Z</time></trkpt><trkpt lat="44.8955786" lon="7.2619802"><ele>704.0</ele><time>2026-04-05T12:43:57.971Z</time></trkpt><trkpt lat="44.8954799" lon="7.261998"><ele>704.0</ele><time>2026-04-05T12:43:58.971Z</time></trkpt><trkpt lat="44.8953849" lon="7.2619789"><ele>704.0</ele><time>2026-04-05T12:43:59.971Z</time></trkpt><trkpt lat="44.8953058" lon="7.2619263"><ele>704.0</ele><time>2026-04-05T12:44:00.971Z</time></trkpt><trkpt lat="44.8952269" lon="7.261886"><ele>704.0</ele><time>2026-04-05T12:44:01.971Z</time></trkpt><trkpt lat="44.8951377" lon="7.2618495"><ele>704.0</ele><time>2026-04-05T12:44:02.971Z</time></trkpt><trkpt lat="44.8950389" lon="7.261835"><ele>701.6</ele><time>2026-04-05T12:44:03.971Z</time></trkpt><trkpt lat="44.8949421" lon="7.2618086"><ele>699.2</ele><time>2026-04-05T12:44:04.971Z</time></trkpt><trkpt lat="44.894848" lon="7.2617554"><ele>696.8000000000001</ele><time>2026-04-05T12:44:05.971Z</time></trkpt><trkpt lat="44.894747" lon="7.2617047"><ele>694.4000000000001</ele><time>2026-04-05T12:44:06.971Z</time></trkpt><trkpt lat="44.8946437" lon="7.2616429"><ele>692.0</ele><time>2026-04-05T12:44:07.971Z</time></trkpt><trkpt lat="44.8945374" lon="7.2615882"><ele>692.0</ele><time>2026-04-05T12:44:08.971Z</time></trkpt><trkpt lat="44.8944416" lon="7.261505"><ele>692.0</ele><time>2026-04-05T12:44:09.971Z</time></trkpt><trkpt lat="44.8943499" lon="7.2614345"><ele>692.0</ele><time>2026-04-05T12:44:10.971Z</time></trkpt><trkpt lat="44.8942568" lon="7.2613889"><ele>692.0</ele><time>2026-04-05T12:44:11.971Z</time></trkpt><trkpt lat="44.8941598" lon="7.2613529"><ele>692.0</ele><time>2026-04-05T12:44:12.971Z</time></trkpt><trkpt lat="44.8940615" lon="7.2613459"><ele>690.3333333333333</ele><time>2026-04-05T12:44:13.971Z</time></trkpt><trkpt lat="44.8939735" lon="7.2613454"><ele>688.6666666666666</ele><time>2026-04-05T12:44:14.971Z</time></trkpt><trkpt lat="44.8938856" lon="7.2613656"><ele>687.0</ele><time>2026-04-05T12:44:15.971Z</time></trkpt><trkpt lat="44.8938075" lon="7.2614111"><ele>685.3333333333334</ele><time>2026-04-05T12:44:16.971Z</time></trkpt><trkpt lat="44.8937362" lon="7.2614771"><ele>683.6666666666667</ele><time>2026-04-05T12:44:17.971Z</time></trkpt><trkpt lat="44.8936654" lon="7.2615489"><ele>682.0</ele><time>2026-04-05T12:44:18.971Z</time></trkpt><trkpt lat="44.8936182" lon="7.2616486"><ele>682.0</ele><time>2026-04-05T12:44:19.971Z</time></trkpt><trkpt lat="44.8936084" lon="7.2617665"><ele>682.0</ele><time>2026-04-05T12:44:20.971Z</time></trkpt><trkpt lat="44.8935926" lon="7.2618585"><ele>682.0</ele><time>2026-04-05T12:44:21.971Z</time></trkpt><trkpt lat="44.8935569" lon="7.2619893"><ele>682.0</ele><time>2026-04-05T12:44:23.971Z</time></trkpt><trkpt lat="44.893477" lon="7.2619633"><ele>682.0</ele><time>2026-04-05T12:44:25.971Z</time></trkpt><trkpt lat="44.8934788" lon="7.2618016"><ele>682.0</ele><time>2026-04-05T12:44:27.971Z</time></trkpt><trkpt lat="44.8934926" lon="7.2616311"><ele>682.0</ele><time>2026-04-05T12:44:29.971Z</time></trkpt><trkpt lat="44.8934687" lon="7.2615174"><ele>682.0</ele><time>2026-04-05T12:44:31.971Z</time></trkpt><trkpt lat="44.893389" lon="7.2616178"><ele>682.0</ele><time>2026-04-05T12:44:34.971Z</time></trkpt><trkpt lat="44.8933775" lon="7.2617195"><ele>682.0</ele><time>2026-04-05T12:44:35.971Z</time></trkpt><trkpt lat="44.8933548" lon="7.2618353"><ele>682.0</ele><time>2026-04-05T12:44:36.971Z</time></trkpt><trkpt lat="44.8933293" lon="7.2619466"><ele>682.0</ele><time>2026-04-05T12:44:37.971Z</time></trkpt><trkpt lat="44.8933011" lon="7.2620534"><ele>677.8333333333334</ele><time>2026-04-05T12:44:38.971Z</time></trkpt><trkpt lat="44.8932723" lon="7.2621647"><ele>673.6666666666667</ele><time>2026-04-05T12:44:39.971Z</time></trkpt><trkpt lat="44.8932353" lon="7.2622758"><ele>669.5</ele><time>2026-04-05T12:44:40.971Z</time></trkpt><trkpt lat="44.8931898" lon="7.26238"><ele>665.3333333333334</ele><time>2026-04-05T12:44:41.971Z</time></trkpt><trkpt lat="44.8931502" lon="7.2624842"><ele>661.1666666666666</ele><time>2026-04-05T12:44:42.971Z</time></trkpt><trkpt lat="44.8931132" lon="7.2625852"><ele>657.0</ele><time>2026-04-05T12:44:43.971Z</time></trkpt><trkpt lat="44.8930807" lon="7.2626952"><ele>657.0</ele><time>2026-04-05T12:44:44.971Z</time></trkpt><trkpt lat="44.8930567" lon="7.2628134"><ele>657.0</ele><time>2026-04-05T12:44:45.971Z</time></trkpt><trkpt lat="44.8930455" lon="7.2629302"><ele>657.0</ele><time>2026-04-05T12:44:46.971Z</time></trkpt><trkpt lat="44.893051" lon="7.2630501"><ele>657.0</ele><time>2026-04-05T12:44:47.971Z</time></trkpt><trkpt lat="44.8930672" lon="7.2631834"><ele>657.0</ele><time>2026-04-05T12:44:48.971Z</time></trkpt><trkpt lat="44.8930945" lon="7.2633161"><ele>657.0</ele><time>2026-04-05T12:44:49.971Z</time></trkpt><trkpt lat="44.8931153" lon="7.2634475"><ele>656.3333333333334</ele><time>2026-04-05T12:44:50.971Z</time></trkpt><trkpt lat="44.8931373" lon="7.2635669"><ele>655.6666666666666</ele><time>2026-04-05T12:44:51.971Z</time></trkpt><trkpt lat="44.8931669" lon="7.263676"><ele>655.0</ele><time>2026-04-05T12:44:52.971Z</time></trkpt><trkpt lat="44.8932099" lon="7.2637568"><ele>654.3333333333333</ele><time>2026-04-05T12:44:53.971Z</time></trkpt><trkpt lat="44.8932651" lon="7.2638496"><ele>653.6666666666666</ele><time>2026-04-05T12:44:54.971Z</time></trkpt><trkpt lat="44.8933243" lon="7.2639385"><ele>653.0</ele><time>2026-04-05T12:44:55.971Z</time></trkpt><trkpt lat="44.8933854" lon="7.2640459"><ele>660.8</ele><time>2026-04-05T12:44:56.971Z</time></trkpt><trkpt lat="44.89344" lon="7.2641519"><ele>668.5999999999999</ele><time>2026-04-05T12:44:57.971Z</time></trkpt><trkpt lat="44.8934865" lon="7.2642714"><ele>676.4000000000001</ele><time>2026-04-05T12:44:58.971Z</time></trkpt><trkpt lat="44.8935222" lon="7.2643886"><ele>684.2</ele><time>2026-04-05T12:44:59.971Z</time></trkpt><trkpt lat="44.8935503" lon="7.2645179"><ele>692.0</ele><time>2026-04-05T12:45:00.971Z</time></trkpt><trkpt lat="44.8935689" lon="7.264646"><ele>692.0</ele><time>2026-04-05T12:45:01.971Z</time></trkpt><trkpt lat="44.8935755" lon="7.2647734"><ele>692.0</ele><time>2026-04-05T12:45:02.971Z</time></trkpt><trkpt lat="44.8935732" lon="7.2649038"><ele>692.0</ele><time>2026-04-05T12:45:03.971Z</time></trkpt><trkpt lat="44.8935423" lon="7.2650105"><ele>692.0</ele><time>2026-04-05T12:45:04.971Z</time></trkpt><trkpt lat="44.893515" lon="7.2651263"><ele>692.0</ele><time>2026-04-05T12:45:05.971Z</time></trkpt><trkpt lat="44.8934016" lon="7.2651744"><ele>682.4000000000001</ele><time>2026-04-05T12:45:06.971Z</time></trkpt><trkpt lat="44.8933142" lon="7.2652544"><ele>672.8000000000001</ele><time>2026-04-05T12:45:07.971Z</time></trkpt><trkpt lat="44.8932371" lon="7.2653722"><ele>663.2</ele><time>2026-04-05T12:45:08.971Z</time></trkpt><trkpt lat="44.8931562" lon="7.2654824"><ele>653.6</ele><time>2026-04-05T12:45:09.971Z</time></trkpt><trkpt lat="44.893067" lon="7.2655716"><ele>644.0</ele><time>2026-04-05T12:45:10.971Z</time></trkpt><trkpt lat="44.8929809" lon="7.2656442"><ele>644.0</ele><time>2026-04-05T12:45:11.971Z</time></trkpt><trkpt lat="44.8929047" lon="7.2657142"><ele>644.0</ele><time>2026-04-05T12:45:12.971Z</time></trkpt><trkpt lat="44.8928647" lon="7.2658125"><ele>644.0</ele><time>2026-04-05T12:45:13.971Z</time></trkpt><trkpt lat="44.8928141" lon="7.2658969"><ele>644.0</ele><time>2026-04-05T12:45:14.971Z</time></trkpt><trkpt lat="44.8927467" lon="7.2660036"><ele>644.0</ele><time>2026-04-05T12:45:15.971Z</time></trkpt><trkpt lat="44.892667" lon="7.2660738"><ele>644.0</ele><time>2026-04-05T12:45:16.971Z</time></trkpt><trkpt lat="44.8925645" lon="7.2661232"><ele>636.5</ele><time>2026-04-05T12:45:17.971Z</time></trkpt><trkpt lat="44.8924538" lon="7.266151"><ele>629.0</ele><time>2026-04-05T12:45:18.971Z</time></trkpt><trkpt lat="44.8923291" lon="7.2661798"><ele>621.5</ele><time>2026-04-05T12:45:19.971Z</time></trkpt><trkpt lat="44.8922189" lon="7.2662082"><ele>614.0</ele><time>2026-04-05T12:45:20.971Z</time></trkpt><trkpt lat="44.892109" lon="7.2662392"><ele>614.0</ele><time>2026-04-05T12:45:21.971Z</time></trkpt><trkpt lat="44.8920028" lon="7.2662623"><ele>614.0</ele><time>2026-04-05T12:45:22.971Z</time></trkpt><trkpt lat="44.8919014" lon="7.2662729"><ele>614.0</ele><time>2026-04-05T12:45:23.971Z</time></trkpt><trkpt lat="44.8918007" lon="7.2662591"><ele>614.0</ele><time>2026-04-05T12:45:24.971Z</time></trkpt><trkpt lat="44.8917028" lon="7.2662452"><ele>614.0</ele><time>2026-04-05T12:45:25.971Z</time></trkpt><trkpt lat="44.8916052" lon="7.2662385"><ele>614.4</ele><time>2026-04-05T12:45:26.971Z</time></trkpt><trkpt lat="44.8915142" lon="7.2662575"><ele>614.8</ele><time>2026-04-05T12:45:27.971Z</time></trkpt><trkpt lat="44.8914293" lon="7.2663251"><ele>615.2</ele><time>2026-04-05T12:45:28.971Z</time></trkpt><trkpt lat="44.891353" lon="7.2664174"><ele>615.6</ele><time>2026-04-05T12:45:29.971Z</time></trkpt><trkpt lat="44.8912778" lon="7.2665243"><ele>616.0</ele><time>2026-04-05T12:45:30.971Z</time></trkpt><trkpt lat="44.8912055" lon="7.2666448"><ele>616.0</ele><time>2026-04-05T12:45:31.971Z</time></trkpt><trkpt lat="44.8911101" lon="7.2667514"><ele>616.0</ele><time>2026-04-05T12:45:32.971Z</time></trkpt><trkpt lat="44.8910391" lon="7.2668773"><ele>616.0</ele><time>2026-04-05T12:45:33.971Z</time></trkpt><trkpt lat="44.8909834" lon="7.2670174"><ele>616.0</ele><time>2026-04-05T12:45:34.971Z</time></trkpt><trkpt lat="44.8909468" lon="7.267163"><ele>618.8</ele><time>2026-04-05T12:45:35.971Z</time></trkpt><trkpt lat="44.8909218" lon="7.2673199"><ele>621.6</ele><time>2026-04-05T12:45:36.971Z</time></trkpt><trkpt lat="44.8909313" lon="7.2674789"><ele>624.4</ele><time>2026-04-05T12:45:37.971Z</time></trkpt><trkpt lat="44.8909393" lon="7.2676397"><ele>627.2</ele><time>2026-04-05T12:45:38.971Z</time></trkpt><trkpt lat="44.8909508" lon="7.2677845"><ele>630.0</ele><time>2026-04-05T12:45:39.971Z</time></trkpt><trkpt lat="44.8909627" lon="7.2679256"><ele>630.0</ele><time>2026-04-05T12:45:40.971Z</time></trkpt><trkpt lat="44.890968" lon="7.2680579"><ele>630.0</ele><time>2026-04-05T12:45:41.971Z</time></trkpt><trkpt lat="44.8909631" lon="7.268183"><ele>630.0</ele><time>2026-04-05T12:45:42.971Z</time></trkpt><trkpt lat="44.8909521" lon="7.2683104"><ele>630.0</ele><time>2026-04-05T12:45:43.971Z</time></trkpt><trkpt lat="44.8909356" lon="7.2684285"><ele>630.0</ele><time>2026-04-05T12:45:44.971Z</time></trkpt><trkpt lat="44.8909213" lon="7.2685239"><ele>630.0</ele><time>2026-04-05T12:45:45.971Z</time></trkpt><trkpt lat="44.8909123" lon="7.2686139"><ele>621.0</ele><time>2026-04-05T12:45:46.971Z</time></trkpt><trkpt lat="44.8908553" lon="7.2687042"><ele>612.0</ele><time>2026-04-05T12:45:48.971Z</time></trkpt><trkpt lat="44.8908018" lon="7.2686204"><ele>603.0</ele><time>2026-04-05T12:45:50.971Z</time></trkpt><trkpt lat="44.8908069" lon="7.2684266"><ele>594.0</ele><time>2026-04-05T12:45:52.971Z</time></trkpt><trkpt lat="44.8908128" lon="7.2683139"><ele>585.0</ele><time>2026-04-05T12:45:53.971Z</time></trkpt><trkpt lat="44.8908117" lon="7.2682026"><ele>585.0</ele><time>2026-04-05T12:45:54.971Z</time></trkpt><trkpt lat="44.8907448" lon="7.2681134"><ele>585.0</ele><time>2026-04-05T12:45:56.971Z</time></trkpt><trkpt lat="44.8906796" lon="7.2682231"><ele>585.0</ele><time>2026-04-05T12:45:58.971Z</time></trkpt><trkpt lat="44.8906497" lon="7.2683133"><ele>585.0</ele><time>2026-04-05T12:45:59.971Z</time></trkpt><trkpt lat="44.8906575" lon="7.2684702"><ele>585.0</ele><time>2026-04-05T12:46:00.971Z</time></trkpt><trkpt lat="44.8906379" lon="7.2686116"><ele>585.0</ele><time>2026-04-05T12:46:01.971Z</time></trkpt><trkpt lat="44.8906154" lon="7.268771"><ele>585.0</ele><time>2026-04-05T12:46:02.971Z</time></trkpt><trkpt lat="44.8905829" lon="7.2689293"><ele>585.0</ele><time>2026-04-05T12:46:03.971Z</time></trkpt><trkpt lat="44.8905572" lon="7.2690844"><ele>585.0</ele><time>2026-04-05T12:46:04.971Z</time></trkpt><trkpt lat="44.8905167" lon="7.2692307"><ele>584.8</ele><time>2026-04-05T12:46:05.971Z</time></trkpt><trkpt lat="44.8904696" lon="7.269369"><ele>584.6</ele><time>2026-04-05T12:46:06.971Z</time></trkpt><trkpt lat="44.8904304" lon="7.2695039"><ele>584.4</ele><time>2026-04-05T12:46:07.971Z</time></trkpt><trkpt lat="44.8904169" lon="7.26965"><ele>584.2</ele><time>2026-04-05T12:46:08.971Z</time></trkpt><trkpt lat="44.8904256" lon="7.2698079"><ele>584.0</ele><time>2026-04-05T12:46:09.971Z</time></trkpt><trkpt lat="44.8904317" lon="7.2699587"><ele>584.0</ele><time>2026-04-05T12:46:10.971Z</time></trkpt><trkpt lat="44.8904353" lon="7.2700773"><ele>584.0</ele><time>2026-04-05T12:46:11.971Z</time></trkpt><trkpt lat="44.8904354" lon="7.2701805"><ele>584.0</ele><time>2026-04-05T12:46:12.971Z</time></trkpt><trkpt lat="44.8903699" lon="7.2702698"><ele>584.0</ele><time>2026-04-05T12:46:14.971Z</time></trkpt><trkpt lat="44.8903126" lon="7.2701985"><ele>584.0</ele><time>2026-04-05T12:46:16.971Z</time></trkpt><trkpt lat="44.8902933" lon="7.2700153"><ele>584.0</ele><time>2026-04-05T12:46:18.971Z</time></trkpt><trkpt lat="44.8902767" lon="7.2698826"><ele>584.0</ele><time>2026-04-05T12:46:19.971Z</time></trkpt><trkpt lat="44.8902545" lon="7.2697527"><ele>584.0</ele><time>2026-04-05T12:46:20.971Z</time></trkpt><trkpt lat="44.8902273" lon="7.2696151"><ele>584.0</ele><time>2026-04-05T12:46:21.971Z</time></trkpt><trkpt lat="44.8902087" lon="7.2694654"><ele>584.0</ele><time>2026-04-05T12:46:22.971Z</time></trkpt><trkpt lat="44.8902085" lon="7.2693059"><ele>584.25</ele><time>2026-04-05T12:46:23.971Z</time></trkpt><trkpt lat="44.8902054" lon="7.2691465"><ele>584.5</ele><time>2026-04-05T12:46:24.971Z</time></trkpt><trkpt lat="44.8902003" lon="7.2689894"><ele>584.75</ele><time>2026-04-05T12:46:25.971Z</time></trkpt><trkpt lat="44.8901804" lon="7.2688343"><ele>585.0</ele><time>2026-04-05T12:46:26.971Z</time></trkpt><trkpt lat="44.8901404" lon="7.2686758"><ele>585.0</ele><time>2026-04-05T12:46:27.971Z</time></trkpt><trkpt lat="44.8900982" lon="7.2685242"><ele>585.0</ele><time>2026-04-05T12:46:28.971Z</time></trkpt><trkpt lat="44.8900609" lon="7.2683813"><ele>585.0</ele><time>2026-04-05T12:46:29.972Z</time></trkpt><trkpt lat="44.8900193" lon="7.268249"><ele>585.0</ele><time>2026-04-05T12:46:30.971Z</time></trkpt><trkpt lat="44.8899762" lon="7.2681277"><ele>585.0</ele><time>2026-04-05T12:46:31.971Z</time></trkpt><trkpt lat="44.8899334" lon="7.2680197"><ele>576.4</ele><time>2026-04-05T12:46:32.971Z</time></trkpt><trkpt lat="44.8898844" lon="7.2679105"><ele>567.8</ele><time>2026-04-05T12:46:33.971Z</time></trkpt><trkpt lat="44.8898514" lon="7.2678015"><ele>559.2</ele><time>2026-04-05T12:46:34.971Z</time></trkpt><trkpt lat="44.8898326" lon="7.2676812"><ele>550.6</ele><time>2026-04-05T12:46:35.971Z</time></trkpt><trkpt lat="44.8898384" lon="7.2675348"><ele>542.0</ele><time>2026-04-05T12:46:36.972Z</time></trkpt><trkpt lat="44.8898359" lon="7.2673772"><ele>541.1666666666666</ele><time>2026-04-05T12:46:37.971Z</time></trkpt><trkpt lat="44.8898236" lon="7.267213"><ele>540.3333333333333</ele><time>2026-04-05T12:46:38.971Z</time></trkpt><trkpt lat="44.8898282" lon="7.2670715"><ele>539.5</ele><time>2026-04-05T12:46:39.971Z</time></trkpt><trkpt lat="44.8898456" lon="7.2669693"><ele>538.6666666666666</ele><time>2026-04-05T12:46:40.971Z</time></trkpt><trkpt lat="44.8898518" lon="7.2668705"><ele>537.8333333333334</ele><time>2026-04-05T12:46:41.971Z</time></trkpt><trkpt lat="44.8898552" lon="7.2667737"><ele>537.0</ele><time>2026-04-05T12:46:42.971Z</time></trkpt><trkpt lat="44.8898587" lon="7.2666761"><ele>537.0</ele><time>2026-04-05T12:46:43.971Z</time></trkpt><trkpt lat="44.8898654" lon="7.2665799"><ele>537.0</ele><time>2026-04-05T12:46:44.971Z</time></trkpt><trkpt lat="44.8898733" lon="7.2664816"><ele>537.0</ele><time>2026-04-05T12:46:45.971Z</time></trkpt><trkpt lat="44.8898805" lon="7.266377"><ele>537.0</ele><time>2026-04-05T12:46:46.971Z</time></trkpt><trkpt lat="44.8898901" lon="7.2662653"><ele>537.0</ele><time>2026-04-05T12:46:47.971Z</time></trkpt><trkpt lat="44.8898882" lon="7.266142"><ele>537.0</ele><time>2026-04-05T12:46:48.971Z</time></trkpt><trkpt lat="44.8898753" lon="7.2660136"><ele>535.3333333333334</ele><time>2026-04-05T12:46:49.971Z</time></trkpt><trkpt lat="44.8898679" lon="7.2658888"><ele>533.6666666666666</ele><time>2026-04-05T12:46:50.971Z</time></trkpt><trkpt lat="44.8898714" lon="7.2657696"><ele>532.0</ele><time>2026-04-05T12:46:51.971Z</time></trkpt><trkpt lat="44.8898891" lon="7.2656581"><ele>530.3333333333333</ele><time>2026-04-05T12:46:52.971Z</time></trkpt><trkpt lat="44.889914" lon="7.2655628"><ele>528.6666666666666</ele><time>2026-04-05T12:46:53.971Z</time></trkpt><trkpt lat="44.8899097" lon="7.2654563"><ele>527.0</ele><time>2026-04-05T12:46:55.971Z</time></trkpt><trkpt lat="44.889829" lon="7.2654771"><ele>527.0</ele><time>2026-04-05T12:46:57.971Z</time></trkpt><trkpt lat="44.889792" lon="7.2655604"><ele>527.0</ele><time>2026-04-05T12:46:58.971Z</time></trkpt><trkpt lat="44.889758" lon="7.2656778"><ele>527.0</ele><time>2026-04-05T12:46:59.971Z</time></trkpt><trkpt lat="44.8897172" lon="7.2658188"><ele>527.0</ele><time>2026-04-05T12:47:00.971Z</time></trkpt><trkpt lat="44.8896882" lon="7.2659773"><ele>527.0</ele><time>2026-04-05T12:47:01.971Z</time></trkpt><trkpt lat="44.8896527" lon="7.2661253"><ele>527.0</ele><time>2026-04-05T12:47:02.971Z</time></trkpt><trkpt lat="44.8896091" lon="7.2662516"><ele>527.0</ele><time>2026-04-05T12:47:03.971Z</time></trkpt><trkpt lat="44.8895613" lon="7.2663729"><ele>527.0</ele><time>2026-04-05T12:47:04.972Z</time></trkpt><trkpt lat="44.8895168" lon="7.2665"><ele>527.0</ele><time>2026-04-05T12:47:05.971Z</time></trkpt><trkpt lat="44.8894714" lon="7.2666362"><ele>527.0</ele><time>2026-04-05T12:47:06.971Z</time></trkpt><trkpt lat="44.8894373" lon="7.2667859"><ele>529.0</ele><time>2026-04-05T12:47:07.971Z</time></trkpt><trkpt lat="44.8894049" lon="7.266944"><ele>531.0</ele><time>2026-04-05T12:47:08.971Z</time></trkpt><trkpt lat="44.8893709" lon="7.2670939"><ele>533.0</ele><time>2026-04-05T12:47:09.971Z</time></trkpt><trkpt lat="44.8893435" lon="7.2672376"><ele>535.0</ele><time>2026-04-05T12:47:10.971Z</time></trkpt><trkpt lat="44.8893151" lon="7.2673849"><ele>537.0</ele><time>2026-04-05T12:47:11.971Z</time></trkpt><trkpt lat="44.8892776" lon="7.2675288"><ele>527.75</ele><time>2026-04-05T12:47:12.971Z</time></trkpt><trkpt lat="44.8892326" lon="7.2676827"><ele>518.5</ele><time>2026-04-05T12:47:13.971Z</time></trkpt><trkpt lat="44.8891835" lon="7.2678287"><ele>509.25</ele><time>2026-04-05T12:47:14.971Z</time></trkpt><trkpt lat="44.8891387" lon="7.2679742"><ele>500.0</ele><time>2026-04-05T12:47:15.971Z</time></trkpt><trkpt lat="44.8891003" lon="7.2681247"><ele>500.0</ele><time>2026-04-05T12:47:16.971Z</time></trkpt><trkpt lat="44.8890607" lon="7.2682787"><ele>500.0</ele><time>2026-04-05T12:47:17.971Z</time></trkpt><trkpt lat="44.8890188" lon="7.2684294"><ele>500.0</ele><time>2026-04-05T12:47:18.971Z</time></trkpt><trkpt lat="44.8889815" lon="7.2685764"><ele>500.0</ele><time>2026-04-05T12:47:19.971Z</time></trkpt><trkpt lat="44.8889379" lon="7.2687157"><ele>500.0</ele><time>2026-04-05T12:47:20.971Z</time></trkpt><trkpt lat="44.8888713" lon="7.2688508"><ele>501.25</ele><time>2026-04-05T12:47:21.971Z</time></trkpt><trkpt lat="44.8887923" lon="7.2689765"><ele>502.5</ele><time>2026-04-05T12:47:22.971Z</time></trkpt><trkpt lat="44.8887032" lon="7.2690935"><ele>503.75</ele><time>2026-04-05T12:47:23.971Z</time></trkpt><trkpt lat="44.8886097" lon="7.2692137"><ele>505.0</ele><time>2026-04-05T12:47:24.971Z</time></trkpt><trkpt lat="44.88852" lon="7.2693436"><ele>505.0</ele><time>2026-04-05T12:47:25.971Z</time></trkpt><trkpt lat="44.8884314" lon="7.2694676"><ele>505.0</ele><time>2026-04-05T12:47:26.971Z</time></trkpt><trkpt lat="44.8883435" lon="7.2695944"><ele>505.0</ele><time>2026-04-05T12:47:27.971Z</time></trkpt><trkpt lat="44.8882543" lon="7.2697277"><ele>505.0</ele><time>2026-04-05T12:47:28.971Z</time></trkpt><trkpt lat="44.8881717" lon="7.2698692"><ele>500.4</ele><time>2026-04-05T12:47:29.971Z</time></trkpt><trkpt lat="44.8881014" lon="7.2700154"><ele>495.8</ele><time>2026-04-05T12:47:30.971Z</time></trkpt><trkpt lat="44.888041" lon="7.2701604"><ele>491.20000000000005</ele><time>2026-04-05T12:47:31.971Z</time></trkpt><trkpt lat="44.8879931" lon="7.2702814"><ele>486.6</ele><time>2026-04-05T12:47:32.971Z</time></trkpt><trkpt lat="44.887963" lon="7.2703961"><ele>482.0</ele><time>2026-04-05T12:47:33.971Z</time></trkpt><trkpt lat="44.8879673" lon="7.2705323"><ele>482.0</ele><time>2026-04-05T12:47:34.971Z</time></trkpt><trkpt lat="44.8879997" lon="7.2706738"><ele>482.0</ele><time>2026-04-05T12:47:35.971Z</time></trkpt><trkpt lat="44.8880535" lon="7.2708244"><ele>482.0</ele><time>2026-04-05T12:47:36.971Z</time></trkpt><trkpt lat="44.8880932" lon="7.2709798"><ele>482.0</ele><time>2026-04-05T12:47:37.971Z</time></trkpt><trkpt lat="44.8881237" lon="7.2711449"><ele>482.0</ele><time>2026-04-05T12:47:38.971Z</time></trkpt><trkpt lat="44.8881551" lon="7.2712994"><ele>482.00000000000006</ele><time>2026-04-05T12:47:39.971Z</time></trkpt><trkpt lat="44.8881859" lon="7.2714427"><ele>482.00000000000006</ele><time>2026-04-05T12:47:40.971Z</time></trkpt><trkpt lat="44.8882269" lon="7.271563"><ele>482.0</ele><time>2026-04-05T12:47:41.971Z</time></trkpt><trkpt lat="44.8882702" lon="7.2716625"><ele>482.0</ele><time>2026-04-05T12:47:42.971Z</time></trkpt><trkpt lat="44.8883279" lon="7.271781"><ele>480.49999999999994</ele><time>2026-04-05T12:47:44.971Z</time></trkpt><trkpt lat="44.8883419" lon="7.2718781"><ele>479.0</ele><time>2026-04-05T12:47:47.971Z</time></trkpt><trkpt lat="44.8882732" lon="7.271887"><ele>477.5</ele><time>2026-04-05T12:47:49.971Z</time></trkpt><trkpt lat="44.8882142" lon="7.2717559"><ele>476.0</ele><time>2026-04-05T12:47:51.971Z</time></trkpt><trkpt lat="44.8881787" lon="7.2716629"><ele>474.49999999999994</ele><time>2026-04-05T12:47:52.971Z</time></trkpt><trkpt lat="44.8881338" lon="7.2715631"><ele>473.0</ele><time>2026-04-05T12:47:53.971Z</time></trkpt><trkpt lat="44.8880828" lon="7.2714534"><ele>474.79999999999995</ele><time>2026-04-05T12:47:54.971Z</time></trkpt><trkpt lat="44.8880338" lon="7.2713459"><ele>476.59999999999997</ele><time>2026-04-05T12:47:55.971Z</time></trkpt><trkpt lat="44.8879811" lon="7.2712368"><ele>478.40000000000003</ele><time>2026-04-05T12:47:56.971Z</time></trkpt><trkpt lat="44.8879225" lon="7.2711202"><ele>480.20000000000005</ele><time>2026-04-05T12:47:57.971Z</time></trkpt><trkpt lat="44.8878612" lon="7.2710058"><ele>482.0</ele><time>2026-04-05T12:47:58.971Z</time></trkpt><trkpt lat="44.8878015" lon="7.2708993"><ele>482.0</ele><time>2026-04-05T12:47:59.971Z</time></trkpt><trkpt lat="44.8877401" lon="7.2707981"><ele>482.00000000000006</ele><time>2026-04-05T12:48:00.971Z</time></trkpt><trkpt lat="44.8876869" lon="7.2706988"><ele>482.00000000000006</ele><time>2026-04-05T12:48:01.971Z</time></trkpt><trkpt lat="44.8876515" lon="7.2705928"><ele>482.0</ele><time>2026-04-05T12:48:02.971Z</time></trkpt><trkpt lat="44.8876413" lon="7.2704657"><ele>482.0</ele><time>2026-04-05T12:48:03.971Z</time></trkpt><trkpt lat="44.887644" lon="7.2703281"><ele>482.0</ele><time>2026-04-05T12:48:04.971Z</time></trkpt><trkpt lat="44.8876554" lon="7.2701894"><ele>482.00000000000006</ele><time>2026-04-05T12:48:05.971Z</time></trkpt><trkpt lat="44.8876761" lon="7.2700457"><ele>482.00000000000006</ele><time>2026-04-05T12:48:06.971Z</time></trkpt><trkpt lat="44.8877028" lon="7.2698973"><ele>482.0</ele><time>2026-04-05T12:48:07.971Z</time></trkpt><trkpt lat="44.8877297" lon="7.2697457"><ele>482.0</ele><time>2026-04-05T12:48:08.971Z</time></trkpt><trkpt lat="44.8877618" lon="7.2695957"><ele>479.8</ele><time>2026-04-05T12:48:09.971Z</time></trkpt><trkpt lat="44.8877995" lon="7.2694454"><ele>477.6</ele><time>2026-04-05T12:48:10.971Z</time></trkpt><trkpt lat="44.8878339" lon="7.2692961"><ele>475.40000000000003</ele><time>2026-04-05T12:48:11.971Z</time></trkpt><trkpt lat="44.8878639" lon="7.269149"><ele>473.20000000000005</ele><time>2026-04-05T12:48:12.971Z</time></trkpt><trkpt lat="44.8878948" lon="7.2690069"><ele>471.0</ele><time>2026-04-05T12:48:13.971Z</time></trkpt><trkpt lat="44.8879217" lon="7.2688745"><ele>469.5</ele><time>2026-04-05T12:48:14.971Z</time></trkpt><trkpt lat="44.8879489" lon="7.2687526"><ele>468.0</ele><time>2026-04-05T12:48:15.971Z</time></trkpt><trkpt lat="44.8879734" lon="7.268646"><ele>466.5</ele><time>2026-04-05T12:48:16.971Z</time></trkpt><trkpt lat="44.88799" lon="7.2685534"><ele>465.0</ele><time>2026-04-05T12:48:17.971Z</time></trkpt><trkpt lat="44.8879585" lon="7.2684069"><ele>463.5</ele><time>2026-04-05T12:48:19.971Z</time></trkpt><trkpt lat="44.8878914" lon="7.2683453"><ele>462.0</ele><time>2026-04-05T12:48:21.971Z</time></trkpt><trkpt lat="44.8878313" lon="7.268289"><ele>462.0</ele><time>2026-04-05T12:48:23.971Z</time></trkpt><trkpt lat="44.8877467" lon="7.2682332"><ele>462.00000000000006</ele><time>2026-04-05T12:48:25.971Z</time></trkpt><trkpt lat="44.8876387" lon="7.2681962"><ele>462.00000000000006</ele><time>2026-04-05T12:48:27.971Z</time></trkpt><trkpt lat="44.8875126" lon="7.268165"><ele>462.0</ele><time>2026-04-05T12:48:29.971Z</time></trkpt><trkpt lat="44.8874465" lon="7.2681461"><ele>462.0</ele><time>2026-04-05T12:48:30.971Z</time></trkpt><trkpt lat="44.8873748" lon="7.2681266"><ele>457.8333333333333</ele><time>2026-04-05T12:48:31.971Z</time></trkpt><trkpt lat="44.8873027" lon="7.2681085"><ele>453.66666666666663</ele><time>2026-04-05T12:48:32.971Z</time></trkpt><trkpt lat="44.8872404" lon="7.2680934"><ele>449.5</ele><time>2026-04-05T12:48:33.971Z</time></trkpt><trkpt lat="44.8871489" lon="7.268079"><ele>445.3333333333333</ele><time>2026-04-05T12:48:35.971Z</time></trkpt><trkpt lat="44.8870769" lon="7.2681445"><ele>441.16666666666663</ele><time>2026-04-05T12:48:37.971Z</time></trkpt><trkpt lat="44.887023" lon="7.268315"><ele>437.0</ele><time>2026-04-05T12:48:39.971Z</time></trkpt><trkpt lat="44.8870014" lon="7.2684539"><ele>437.0</ele><time>2026-04-05T12:48:40.971Z</time></trkpt><trkpt lat="44.8869808" lon="7.2686226"><ele>437.0</ele><time>2026-04-05T12:48:41.971Z</time></trkpt><trkpt lat="44.8869572" lon="7.26881"><ele>437.0</ele><time>2026-04-05T12:48:42.971Z</time></trkpt><trkpt lat="44.8869354" lon="7.2690221"><ele>437.0</ele><time>2026-04-05T12:48:43.971Z</time></trkpt><trkpt lat="44.8869058" lon="7.2692644"><ele>438.0</ele><time>2026-04-05T12:48:44.971Z</time></trkpt><trkpt lat="44.8868764" lon="7.2695304"><ele>439.0</ele><time>2026-04-05T12:48:45.971Z</time></trkpt><trkpt lat="44.8868413" lon="7.26982"><ele>440.0</ele><time>2026-04-05T12:48:46.971Z</time></trkpt><trkpt lat="44.8868054" lon="7.2701204"><ele>441.66666666666663</ele><time>2026-04-05T12:48:47.971Z</time></trkpt><trkpt lat="44.8867673" lon="7.2704349"><ele>443.33333333333337</ele><time>2026-04-05T12:48:48.971Z</time></trkpt><trkpt lat="44.8867292" lon="7.270733"><ele>445.0</ele><time>2026-04-05T12:48:49.971Z</time></trkpt><trkpt lat="44.8866958" lon="7.2710241"><ele>438.6666666666667</ele><time>2026-04-05T12:48:50.971Z</time></trkpt><trkpt lat="44.8866589" lon="7.2713157"><ele>432.33333333333337</ele><time>2026-04-05T12:48:51.971Z</time></trkpt><trkpt lat="44.8866371" lon="7.2715712"><ele>426.0</ele><time>2026-04-05T12:48:52.971Z</time></trkpt><trkpt lat="44.8866237" lon="7.2717985"><ele>426.0</ele><time>2026-04-05T12:48:53.971Z</time></trkpt><trkpt lat="44.8866251" lon="7.2720188"><ele>426.0</ele><time>2026-04-05T12:48:54.971Z</time></trkpt><trkpt lat="44.8866396" lon="7.2722355"><ele>426.0</ele><time>2026-04-05T12:48:55.971Z</time></trkpt><trkpt lat="44.8866569" lon="7.2724403"><ele>426.25</ele><time>2026-04-05T12:48:56.971Z</time></trkpt><trkpt lat="44.8866735" lon="7.2726341"><ele>426.5</ele><time>2026-04-05T12:48:57.971Z</time></trkpt><trkpt lat="44.8866899" lon="7.2728199"><ele>426.75</ele><time>2026-04-05T12:48:58.971Z</time></trkpt><trkpt lat="44.886709" lon="7.2730045"><ele>427.0</ele><time>2026-04-05T12:48:59.971Z</time></trkpt><trkpt lat="44.886725" lon="7.2731883"><ele>426.25</ele><time>2026-04-05T12:49:00.971Z</time></trkpt><trkpt lat="44.8867463" lon="7.2733626"><ele>425.5</ele><time>2026-04-05T12:49:01.971Z</time></trkpt><trkpt lat="44.886761" lon="7.2735362"><ele>424.75</ele><time>2026-04-05T12:49:02.971Z</time></trkpt><trkpt lat="44.8867722" lon="7.2737148"><ele>424.0</ele><time>2026-04-05T12:49:03.971Z</time></trkpt><trkpt lat="44.8867853" lon="7.2738924"><ele>430.25</ele><time>2026-04-05T12:49:04.971Z</time></trkpt><trkpt lat="44.8868028" lon="7.2740679"><ele>436.5</ele><time>2026-04-05T12:49:05.971Z</time></trkpt><trkpt lat="44.8868213" lon="7.274246"><ele>442.75</ele><time>2026-04-05T12:49:06.971Z</time></trkpt><trkpt lat="44.8868367" lon="7.2744267"><ele>449.0</ele><time>2026-04-05T12:49:07.971Z</time></trkpt><trkpt lat="44.8868525" lon="7.2746129"><ele>448.25</ele><time>2026-04-05T12:49:08.971Z</time></trkpt><trkpt lat="44.8868566" lon="7.2748084"><ele>447.5</ele><time>2026-04-05T12:49:09.971Z</time></trkpt><trkpt lat="44.8868367" lon="7.2750086"><ele>446.75</ele><time>2026-04-05T12:49:10.971Z</time></trkpt><trkpt lat="44.8868148" lon="7.2752224"><ele>446.0</ele><time>2026-04-05T12:49:11.971Z</time></trkpt><trkpt lat="44.8867896" lon="7.2754386"><ele>439.0</ele><time>2026-04-05T12:49:12.971Z</time></trkpt><trkpt lat="44.8867601" lon="7.2756431"><ele>432.0</ele><time>2026-04-05T12:49:13.971Z</time></trkpt><trkpt lat="44.8867312" lon="7.2758393"><ele>425.0</ele><time>2026-04-05T12:49:14.971Z</time></trkpt><trkpt lat="44.8867075" lon="7.2760339"><ele>418.0</ele><time>2026-04-05T12:49:15.971Z</time></trkpt><trkpt lat="44.8866802" lon="7.2762264"><ele>418.0</ele><time>2026-04-05T12:49:16.971Z</time></trkpt><trkpt lat="44.8866495" lon="7.2764259"><ele>418.0</ele><time>2026-04-05T12:49:17.971Z</time></trkpt><trkpt lat="44.8866206" lon="7.2766231"><ele>418.0</ele><time>2026-04-05T12:49:18.971Z</time></trkpt><trkpt lat="44.8865936" lon="7.2768258"><ele>418.0</ele><time>2026-04-05T12:49:19.971Z</time></trkpt><trkpt lat="44.886564" lon="7.2770301"><ele>418.6666666666667</ele><time>2026-04-05T12:49:20.971Z</time></trkpt><trkpt lat="44.8865324" lon="7.2772375"><ele>419.33333333333337</ele><time>2026-04-05T12:49:21.971Z</time></trkpt><trkpt lat="44.8864995" lon="7.2774599"><ele>420.0</ele><time>2026-04-05T12:49:22.971Z</time></trkpt><trkpt lat="44.8864627" lon="7.2776828"><ele>420.5</ele><time>2026-04-05T12:49:23.971Z</time></trkpt><trkpt lat="44.8864318" lon="7.2778953"><ele>421.0</ele><time>2026-04-05T12:49:24.971Z</time></trkpt><trkpt lat="44.8864023" lon="7.2780981"><ele>421.5</ele><time>2026-04-05T12:49:25.971Z</time></trkpt><trkpt lat="44.8863703" lon="7.278299"><ele>422.0</ele><time>2026-04-05T12:49:26.971Z</time></trkpt><trkpt lat="44.8863417" lon="7.2784991"><ele>422.0</ele><time>2026-04-05T12:49:27.971Z</time></trkpt><trkpt lat="44.8863117" lon="7.2787037"><ele>422.0</ele><time>2026-04-05T12:49:28.971Z</time></trkpt><trkpt lat="44.8862801" lon="7.2789113"><ele>422.0</ele><time>2026-04-05T12:49:29.971Z</time></trkpt><trkpt lat="44.8862484" lon="7.2791192"><ele>422.0</ele><time>2026-04-05T12:49:30.971Z</time></trkpt><trkpt lat="44.8862157" lon="7.279334"><ele>422.0</ele><time>2026-04-05T12:49:31.971Z</time></trkpt><trkpt lat="44.8861802" lon="7.2795461"><ele>422.0</ele><time>2026-04-05T12:49:32.971Z</time></trkpt><trkpt lat="44.8861475" lon="7.2797604"><ele>422.0</ele><time>2026-04-05T12:49:33.971Z</time></trkpt><trkpt lat="44.8861158" lon="7.2799724"><ele>422.0</ele><time>2026-04-05T12:49:34.971Z</time></trkpt><trkpt lat="44.8860794" lon="7.2801764"><ele>422.0</ele><time>2026-04-05T12:49:35.971Z</time></trkpt><trkpt lat="44.8860381" lon="7.280373"><ele>422.0</ele><time>2026-04-05T12:49:36.971Z</time></trkpt><trkpt lat="44.8859876" lon="7.2805833"><ele>422.0</ele><time>2026-04-05T12:49:37.971Z</time></trkpt><trkpt lat="44.8859345" lon="7.2807937"><ele>422.0</ele><time>2026-04-05T12:49:38.971Z</time></trkpt><trkpt lat="44.8858824" lon="7.2809968"><ele>422.0</ele><time>2026-04-05T12:49:39.972Z</time></trkpt><trkpt lat="44.8858368" lon="7.2811879"><ele>419.25</ele><time>2026-04-05T12:49:40.971Z</time></trkpt><trkpt lat="44.8857899" lon="7.2813771"><ele>416.5</ele><time>2026-04-05T12:49:41.971Z</time></trkpt><trkpt lat="44.8857436" lon="7.2815631"><ele>413.75</ele><time>2026-04-05T12:49:42.971Z</time></trkpt><trkpt lat="44.8856949" lon="7.2817472"><ele>411.0</ele><time>2026-04-05T12:49:43.971Z</time></trkpt><trkpt lat="44.8856477" lon="7.2819368"><ele>411.0</ele><time>2026-04-05T12:49:44.971Z</time></trkpt><trkpt lat="44.8856027" lon="7.2821251"><ele>411.0</ele><time>2026-04-05T12:49:45.971Z</time></trkpt><trkpt lat="44.8855609" lon="7.2823011"><ele>411.0</ele><time>2026-04-05T12:49:46.971Z</time></trkpt><trkpt lat="44.8855236" lon="7.2824859"><ele>411.0</ele><time>2026-04-05T12:49:47.971Z</time></trkpt><trkpt lat="44.885504" lon="7.282681"><ele>411.0</ele><time>2026-04-05T12:49:48.971Z</time></trkpt><trkpt lat="44.8854873" lon="7.2828662"><ele>411.0</ele><time>2026-04-05T12:49:49.971Z</time></trkpt><trkpt lat="44.885476" lon="7.2830465"><ele>411.0</ele><time>2026-04-05T12:49:50.971Z</time></trkpt><trkpt lat="44.8854673" lon="7.2832266"><ele>411.0</ele><time>2026-04-05T12:49:51.971Z</time></trkpt><trkpt lat="44.8854543" lon="7.2834088"><ele>411.0</ele><time>2026-04-05T12:49:52.971Z</time></trkpt><trkpt lat="44.8854434" lon="7.2835996"><ele>411.0</ele><time>2026-04-05T12:49:53.971Z</time></trkpt><trkpt lat="44.8854311" lon="7.2838003"><ele>411.0</ele><time>2026-04-05T12:49:54.971Z</time></trkpt><trkpt lat="44.8854193" lon="7.2839857"><ele>411.0</ele><time>2026-04-05T12:49:55.971Z</time></trkpt><trkpt lat="44.8854057" lon="7.2841735"><ele>411.25</ele><time>2026-04-05T12:49:56.971Z</time></trkpt><trkpt lat="44.8853874" lon="7.2843609"><ele>411.5</ele><time>2026-04-05T12:49:57.971Z</time></trkpt><trkpt lat="44.8853771" lon="7.2845531"><ele>411.75</ele><time>2026-04-05T12:49:58.971Z</time></trkpt><trkpt lat="44.8853689" lon="7.2847482"><ele>412.0</ele><time>2026-04-05T12:49:59.971Z</time></trkpt><trkpt lat="44.8853607" lon="7.2849488"><ele>411.5</ele><time>2026-04-05T12:50:00.971Z</time></trkpt><trkpt lat="44.8853471" lon="7.2851514"><ele>411.0</ele><time>2026-04-05T12:50:01.971Z</time></trkpt><trkpt lat="44.8853327" lon="7.2853595"><ele>410.5</ele><time>2026-04-05T12:50:02.971Z</time></trkpt><trkpt lat="44.8853211" lon="7.2855661"><ele>410.0</ele><time>2026-04-05T12:50:03.971Z</time></trkpt><trkpt lat="44.8853156" lon="7.285759"><ele>410.0</ele><time>2026-04-05T12:50:04.971Z</time></trkpt><trkpt lat="44.8853145" lon="7.2859511"><ele>410.0</ele><time>2026-04-05T12:50:05.971Z</time></trkpt><trkpt lat="44.8853174" lon="7.2861413"><ele>410.0</ele><time>2026-04-05T12:50:06.971Z</time></trkpt><trkpt lat="44.8853229" lon="7.2863278"><ele>410.0</ele><time>2026-04-05T12:50:07.971Z</time></trkpt><trkpt lat="44.8853363" lon="7.2865007"><ele>410.4</ele><time>2026-04-05T12:50:08.971Z</time></trkpt><trkpt lat="44.8853512" lon="7.2866612"><ele>410.8</ele><time>2026-04-05T12:50:09.971Z</time></trkpt><trkpt lat="44.8853682" lon="7.2868119"><ele>411.20000000000005</ele><time>2026-04-05T12:50:10.971Z</time></trkpt><trkpt lat="44.8853844" lon="7.2869555"><ele>411.6</ele><time>2026-04-05T12:50:11.971Z</time></trkpt><trkpt lat="44.8853977" lon="7.287099"><ele>412.0</ele><time>2026-04-05T12:50:12.971Z</time></trkpt><trkpt lat="44.8854126" lon="7.2872418"><ele>412.1666666666667</ele><time>2026-04-05T12:50:13.971Z</time></trkpt><trkpt lat="44.8854292" lon="7.2873806"><ele>412.33333333333337</ele><time>2026-04-05T12:50:14.971Z</time></trkpt><trkpt lat="44.8854442" lon="7.2875003"><ele>412.5</ele><time>2026-04-05T12:50:15.971Z</time></trkpt><trkpt lat="44.8854595" lon="7.2876106"><ele>412.66666666666663</ele><time>2026-04-05T12:50:16.971Z</time></trkpt><trkpt lat="44.8854701" lon="7.287711"><ele>412.8333333333333</ele><time>2026-04-05T12:50:17.971Z</time></trkpt><trkpt lat="44.885469" lon="7.2878116"><ele>413.0</ele><time>2026-04-05T12:50:18.971Z</time></trkpt><trkpt lat="44.885451" lon="7.2879048"><ele>412.99999999999994</ele><time>2026-04-05T12:50:19.971Z</time></trkpt><trkpt lat="44.8854203" lon="7.2879976"><ele>413.0</ele><time>2026-04-05T12:50:20.971Z</time></trkpt><trkpt lat="44.8854012" lon="7.2880969"><ele>413.0</ele><time>2026-04-05T12:50:21.971Z</time></trkpt><trkpt lat="44.8853987" lon="7.2882072"><ele>413.0</ele><time>2026-04-05T12:50:22.971Z</time></trkpt><trkpt lat="44.8854146" lon="7.2883184"><ele>412.99999999999994</ele><time>2026-04-05T12:50:23.971Z</time></trkpt><trkpt lat="44.8854348" lon="7.2884337"><ele>413.0</ele><time>2026-04-05T12:50:24.971Z</time></trkpt><trkpt lat="44.8854497" lon="7.2885498"><ele>412.8333333333333</ele><time>2026-04-05T12:50:25.971Z</time></trkpt><trkpt lat="44.8854585" lon="7.2886655"><ele>412.66666666666663</ele><time>2026-04-05T12:50:26.971Z</time></trkpt><trkpt lat="44.8854652" lon="7.2887765"><ele>412.5</ele><time>2026-04-05T12:50:27.971Z</time></trkpt><trkpt lat="44.885464" lon="7.2888817"><ele>412.33333333333337</ele><time>2026-04-05T12:50:28.971Z</time></trkpt><trkpt lat="44.885459" lon="7.2889926"><ele>412.1666666666667</ele><time>2026-04-05T12:50:29.971Z</time></trkpt><trkpt lat="44.8854519" lon="7.2890968"><ele>412.0</ele><time>2026-04-05T12:50:30.971Z</time></trkpt><trkpt lat="44.8854458" lon="7.2891962"><ele>411.71428571428567</ele><time>2026-04-05T12:50:31.971Z</time></trkpt><trkpt lat="44.8854408" lon="7.2892921"><ele>411.42857142857144</ele><time>2026-04-05T12:50:32.971Z</time></trkpt><trkpt lat="44.8854353" lon="7.289381"><ele>411.1428571428571</ele><time>2026-04-05T12:50:33.971Z</time></trkpt><trkpt lat="44.8854286" lon="7.28947"><ele>410.85714285714283</ele><time>2026-04-05T12:50:34.972Z</time></trkpt><trkpt lat="44.8854143" lon="7.2896406"><ele>410.57142857142856</ele><time>2026-04-05T12:50:36.972Z</time></trkpt><trkpt lat="44.8854063" lon="7.2897321"><ele>410.2857142857143</ele><time>2026-04-05T12:50:37.971Z</time></trkpt><trkpt lat="44.8853992" lon="7.2898268"><ele>410.0</ele><time>2026-04-05T12:50:38.971Z</time></trkpt><trkpt lat="44.8853941" lon="7.2899241"><ele>409.99999999999994</ele><time>2026-04-05T12:50:39.971Z</time></trkpt><trkpt lat="44.8853872" lon="7.2900215"><ele>410.0</ele><time>2026-04-05T12:50:40.971Z</time></trkpt><trkpt lat="44.8853799" lon="7.2901165"><ele>410.0</ele><time>2026-04-05T12:50:41.971Z</time></trkpt><trkpt lat="44.8853628" lon="7.290296"><ele>410.0</ele><time>2026-04-05T12:50:43.971Z</time></trkpt><trkpt lat="44.8853581" lon="7.2903979"><ele>409.99999999999994</ele><time>2026-04-05T12:50:44.971Z</time></trkpt><trkpt lat="44.8853529" lon="7.2905007"><ele>410.0</ele><time>2026-04-05T12:50:45.971Z</time></trkpt><trkpt lat="44.8853488" lon="7.2906244"><ele>409.6</ele><time>2026-04-05T12:50:46.971Z</time></trkpt><trkpt lat="44.8853451" lon="7.2907579"><ele>409.2</ele><time>2026-04-05T12:50:47.971Z</time></trkpt><trkpt lat="44.885339" lon="7.290895"><ele>408.79999999999995</ele><time>2026-04-05T12:50:48.971Z</time></trkpt><trkpt lat="44.8853322" lon="7.2910411"><ele>408.4</ele><time>2026-04-05T12:50:49.971Z</time></trkpt><trkpt lat="44.8853213" lon="7.2911874"><ele>408.0</ele><time>2026-04-05T12:50:50.971Z</time></trkpt><trkpt lat="44.8853124" lon="7.2913344"><ele>407.79999999999995</ele><time>2026-04-05T12:50:51.971Z</time></trkpt><trkpt lat="44.8853027" lon="7.2914873"><ele>407.6</ele><time>2026-04-05T12:50:52.971Z</time></trkpt><trkpt lat="44.8852896" lon="7.2916362"><ele>407.4</ele><time>2026-04-05T12:50:53.971Z</time></trkpt><trkpt lat="44.8852796" lon="7.2917895"><ele>407.20000000000005</ele><time>2026-04-05T12:50:54.971Z</time></trkpt><trkpt lat="44.8852716" lon="7.2919396"><ele>407.0</ele><time>2026-04-05T12:50:55.971Z</time></trkpt><trkpt lat="44.8852659" lon="7.2920824"><ele>407.0</ele><time>2026-04-05T12:50:56.971Z</time></trkpt><trkpt lat="44.8852621" lon="7.2922197"><ele>407.0</ele><time>2026-04-05T12:50:57.971Z</time></trkpt><trkpt lat="44.8852639" lon="7.2923571"><ele>407.0</ele><time>2026-04-05T12:50:58.971Z</time></trkpt><trkpt lat="44.8852736" lon="7.2924957"><ele>407.0</ele><time>2026-04-05T12:50:59.971Z</time></trkpt><trkpt lat="44.8852891" lon="7.2926353"><ele>407.0</ele><time>2026-04-05T12:51:00.971Z</time></trkpt><trkpt lat="44.8853072" lon="7.2927795"><ele>407.0</ele><time>2026-04-05T12:51:01.971Z</time></trkpt><trkpt lat="44.8853323" lon="7.292921"><ele>407.0</ele><time>2026-04-05T12:51:02.971Z</time></trkpt><trkpt lat="44.8853542" lon="7.2930614"><ele>407.0</ele><time>2026-04-05T12:51:03.971Z</time></trkpt><trkpt lat="44.8853807" lon="7.2932039"><ele>407.0</ele><time>2026-04-05T12:51:04.971Z</time></trkpt><trkpt lat="44.8854081" lon="7.2933522"><ele>407.0</ele><time>2026-04-05T12:51:05.971Z</time></trkpt><trkpt lat="44.8854403" lon="7.293509"><ele>407.25</ele><time>2026-04-05T12:51:06.971Z</time></trkpt><trkpt lat="44.8854676" lon="7.2936652"><ele>407.5</ele><time>2026-04-05T12:51:07.971Z</time></trkpt><trkpt lat="44.8854939" lon="7.2938311"><ele>407.75</ele><time>2026-04-05T12:51:08.971Z</time></trkpt><trkpt lat="44.885523" lon="7.293992"><ele>408.0</ele><time>2026-04-05T12:51:09.971Z</time></trkpt><trkpt lat="44.8855535" lon="7.2941553"><ele>408.2</ele><time>2026-04-05T12:51:10.971Z</time></trkpt><trkpt lat="44.8855825" lon="7.2943067"><ele>408.4</ele><time>2026-04-05T12:51:11.971Z</time></trkpt><trkpt lat="44.8856092" lon="7.2944488"><ele>408.59999999999997</ele><time>2026-04-05T12:51:12.971Z</time></trkpt><trkpt lat="44.8856346" lon="7.2945945"><ele>408.79999999999995</ele><time>2026-04-05T12:51:13.971Z</time></trkpt><trkpt lat="44.8856501" lon="7.2947335"><ele>409.0</ele><time>2026-04-05T12:51:14.971Z</time></trkpt><trkpt lat="44.8856604" lon="7.29488"><ele>408.4</ele><time>2026-04-05T12:51:15.971Z</time></trkpt><trkpt lat="44.8856638" lon="7.2950279"><ele>407.79999999999995</ele><time>2026-04-05T12:51:16.971Z</time></trkpt><trkpt lat="44.8856681" lon="7.2951754"><ele>407.20000000000005</ele><time>2026-04-05T12:51:17.971Z</time></trkpt><trkpt lat="44.8856696" lon="7.2953326"><ele>406.6</ele><time>2026-04-05T12:51:18.971Z</time></trkpt><trkpt lat="44.8856683" lon="7.2954887"><ele>406.0</ele><time>2026-04-05T12:51:19.971Z</time></trkpt><trkpt lat="44.8856541" lon="7.2956446"><ele>406.0</ele><time>2026-04-05T12:51:20.971Z</time></trkpt><trkpt lat="44.8856245" lon="7.2958082"><ele>406.0</ele><time>2026-04-05T12:51:21.971Z</time></trkpt><trkpt lat="44.8855741" lon="7.2959758"><ele>406.0</ele><time>2026-04-05T12:51:22.971Z</time></trkpt><trkpt lat="44.8855039" lon="7.2961418"><ele>406.0</ele><time>2026-04-05T12:51:23.971Z</time></trkpt><trkpt lat="44.885423" lon="7.296307"><ele>406.6666666666667</ele><time>2026-04-05T12:51:24.971Z</time></trkpt><trkpt lat="44.8853407" lon="7.2964788"><ele>407.33333333333337</ele><time>2026-04-05T12:51:25.971Z</time></trkpt><trkpt lat="44.8852445" lon="7.2966666"><ele>408.0</ele><time>2026-04-05T12:51:26.971Z</time></trkpt><trkpt lat="44.8851547" lon="7.2968366"><ele>407.0</ele><time>2026-04-05T12:51:27.971Z</time></trkpt><trkpt lat="44.8850692" lon="7.2970021"><ele>406.0</ele><time>2026-04-05T12:51:28.971Z</time></trkpt><trkpt lat="44.8849878" lon="7.2971565"><ele>405.0</ele><time>2026-04-05T12:51:29.971Z</time></trkpt><trkpt lat="44.8849123" lon="7.2973002"><ele>404.0</ele><time>2026-04-05T12:51:30.971Z</time></trkpt><trkpt lat="44.8848439" lon="7.2974328"><ele>404.0</ele><time>2026-04-05T12:51:31.971Z</time></trkpt><trkpt lat="44.884777" lon="7.2975726"><ele>404.0</ele><time>2026-04-05T12:51:32.971Z</time></trkpt><trkpt lat="44.8847097" lon="7.2977172"><ele>404.0</ele><time>2026-04-05T12:51:33.971Z</time></trkpt><trkpt lat="44.8846535" lon="7.2978765"><ele>404.0</ele><time>2026-04-05T12:51:34.971Z</time></trkpt><trkpt lat="44.8846232" lon="7.2980569"><ele>404.5</ele><time>2026-04-05T12:51:35.971Z</time></trkpt><trkpt lat="44.8846089" lon="7.2982574"><ele>405.0</ele><time>2026-04-05T12:51:36.971Z</time></trkpt><trkpt lat="44.8845989" lon="7.298469"><ele>405.5</ele><time>2026-04-05T12:51:37.971Z</time></trkpt><trkpt lat="44.8845829" lon="7.2986811"><ele>406.0</ele><time>2026-04-05T12:51:38.971Z</time></trkpt><trkpt lat="44.8845681" lon="7.2988829"><ele>405.5</ele><time>2026-04-05T12:51:39.971Z</time></trkpt><trkpt lat="44.884555" lon="7.2990846"><ele>405.0</ele><time>2026-04-05T12:51:40.971Z</time></trkpt><trkpt lat="44.884542" lon="7.2992752"><ele>404.5</ele><time>2026-04-05T12:51:41.971Z</time></trkpt><trkpt lat="44.8845275" lon="7.2994609"><ele>404.0</ele><time>2026-04-05T12:51:42.971Z</time></trkpt><trkpt lat="44.884513" lon="7.2996315"><ele>404.0</ele><time>2026-04-05T12:51:43.971Z</time></trkpt><trkpt lat="44.8844989" lon="7.2998045"><ele>404.0</ele><time>2026-04-05T12:51:44.971Z</time></trkpt><trkpt lat="44.884486" lon="7.2999844"><ele>404.0</ele><time>2026-04-05T12:51:45.971Z</time></trkpt><trkpt lat="44.8844759" lon="7.3001696"><ele>404.0</ele><time>2026-04-05T12:51:46.971Z</time></trkpt><trkpt lat="44.884464" lon="7.3003606"><ele>404.0</ele><time>2026-04-05T12:51:47.971Z</time></trkpt><trkpt lat="44.8844549" lon="7.3005531"><ele>404.0</ele><time>2026-04-05T12:51:48.971Z</time></trkpt><trkpt lat="44.8844452" lon="7.3007531"><ele>404.0</ele><time>2026-04-05T12:51:49.971Z</time></trkpt><trkpt lat="44.8844305" lon="7.3009482"><ele>404.0</ele><time>2026-04-05T12:51:50.971Z</time></trkpt><trkpt lat="44.8844126" lon="7.3011479"><ele>404.0</ele><time>2026-04-05T12:51:51.971Z</time></trkpt><trkpt lat="44.8843951" lon="7.30135"><ele>404.0</ele><time>2026-04-05T12:51:52.971Z</time></trkpt><trkpt lat="44.8843743" lon="7.3015488"><ele>404.0</ele><time>2026-04-05T12:51:53.971Z</time></trkpt><trkpt lat="44.8843582" lon="7.3017303"><ele>404.0</ele><time>2026-04-05T12:51:54.971Z</time></trkpt><trkpt lat="44.8843406" lon="7.3019066"><ele>403.5</ele><time>2026-04-05T12:51:55.971Z</time></trkpt><trkpt lat="44.8843233" lon="7.3020838"><ele>403.0</ele><time>2026-04-05T12:51:56.971Z</time></trkpt><trkpt lat="44.8843012" lon="7.30225"><ele>402.5</ele><time>2026-04-05T12:51:57.971Z</time></trkpt><trkpt lat="44.8842836" lon="7.3024012"><ele>402.0</ele><time>2026-04-05T12:51:58.971Z</time></trkpt><trkpt lat="44.8842635" lon="7.3025425"><ele>401.0</ele><time>2026-04-05T12:51:59.971Z</time></trkpt><trkpt lat="44.8842304" lon="7.3026871"><ele>400.0</ele><time>2026-04-05T12:52:00.971Z</time></trkpt><trkpt lat="44.8841932" lon="7.3028359"><ele>399.0</ele><time>2026-04-05T12:52:01.971Z</time></trkpt><trkpt lat="44.8841844" lon="7.3030067"><ele>398.0</ele><time>2026-04-05T12:52:02.971Z</time></trkpt><trkpt lat="44.8841844" lon="7.3032016"><ele>397.75</ele><time>2026-04-05T12:52:03.971Z</time></trkpt><trkpt lat="44.8841777" lon="7.303376"><ele>397.5</ele><time>2026-04-05T12:52:04.971Z</time></trkpt><trkpt lat="44.8841686" lon="7.3035517"><ele>397.25</ele><time>2026-04-05T12:52:05.971Z</time></trkpt><trkpt lat="44.8841568" lon="7.3037245"><ele>397.0</ele><time>2026-04-05T12:52:06.971Z</time></trkpt><trkpt lat="44.8841418" lon="7.3038998"><ele>396.8</ele><time>2026-04-05T12:52:07.971Z</time></trkpt><trkpt lat="44.8841272" lon="7.304068"><ele>396.6</ele><time>2026-04-05T12:52:08.971Z</time></trkpt><trkpt lat="44.8841228" lon="7.3042229"><ele>396.40000000000003</ele><time>2026-04-05T12:52:09.971Z</time></trkpt><trkpt lat="44.8841158" lon="7.3043705"><ele>396.20000000000005</ele><time>2026-04-05T12:52:10.971Z</time></trkpt><trkpt lat="44.8841151" lon="7.3045195"><ele>396.0</ele><time>2026-04-05T12:52:11.971Z</time></trkpt><trkpt lat="44.8841152" lon="7.3046737"><ele>396.0</ele><time>2026-04-05T12:52:12.971Z</time></trkpt><trkpt lat="44.8841182" lon="7.3048276"><ele>396.0</ele><time>2026-04-05T12:52:13.971Z</time></trkpt><trkpt lat="44.8841216" lon="7.3049907"><ele>396.0</ele><time>2026-04-05T12:52:14.971Z</time></trkpt><trkpt lat="44.8841274" lon="7.3051493"><ele>396.0</ele><time>2026-04-05T12:52:15.971Z</time></trkpt><trkpt lat="44.8841292" lon="7.3052975"><ele>396.0</ele><time>2026-04-05T12:52:16.971Z</time></trkpt><trkpt lat="44.8841291" lon="7.3054419"><ele>396.0</ele><time>2026-04-05T12:52:17.971Z</time></trkpt><trkpt lat="44.8841292" lon="7.3055864"><ele>396.0</ele><time>2026-04-05T12:52:18.971Z</time></trkpt><trkpt lat="44.884127" lon="7.3057256"><ele>396.0</ele><time>2026-04-05T12:52:19.971Z</time></trkpt><trkpt lat="44.8841" lon="7.3058493"><ele>396.0</ele><time>2026-04-05T12:52:20.971Z</time></trkpt><trkpt lat="44.8840585" lon="7.3059598"><ele>396.0</ele><time>2026-04-05T12:52:21.971Z</time></trkpt><trkpt lat="44.8840542" lon="7.3060623"><ele>396.0</ele><time>2026-04-05T12:52:22.971Z</time></trkpt><trkpt lat="44.8840851" lon="7.3061488"><ele>396.0</ele><time>2026-04-05T12:52:23.971Z</time></trkpt><trkpt lat="44.8841343" lon="7.306219"><ele>396.0</ele><time>2026-04-05T12:52:24.971Z</time></trkpt><trkpt lat="44.8841891" lon="7.3063023"><ele>396.0</ele><time>2026-04-05T12:52:25.971Z</time></trkpt><trkpt lat="44.8842227" lon="7.3064152"><ele>396.0</ele><time>2026-04-05T12:52:26.971Z</time></trkpt><trkpt lat="44.8842434" lon="7.3065538"><ele>396.0</ele><time>2026-04-05T12:52:27.971Z</time></trkpt><trkpt lat="44.8842526" lon="7.3067019"><ele>396.0</ele><time>2026-04-05T12:52:28.971Z</time></trkpt><trkpt lat="44.8842569" lon="7.3068586"><ele>396.0</ele><time>2026-04-05T12:52:29.971Z</time></trkpt><trkpt lat="44.884261" lon="7.3070056"><ele>396.0</ele><time>2026-04-05T12:52:30.971Z</time></trkpt><trkpt lat="44.8842651" lon="7.3071457"><ele>396.0</ele><time>2026-04-05T12:52:31.971Z</time></trkpt><trkpt lat="44.8842685" lon="7.3072778"><ele>396.0</ele><time>2026-04-05T12:52:32.971Z</time></trkpt><trkpt lat="44.8842757" lon="7.3074083"><ele>396.0</ele><time>2026-04-05T12:52:33.971Z</time></trkpt><trkpt lat="44.8842846" lon="7.3075376"><ele>396.0</ele><time>2026-04-05T12:52:34.971Z</time></trkpt><trkpt lat="44.8842888" lon="7.307664"><ele>396.0</ele><time>2026-04-05T12:52:35.971Z</time></trkpt><trkpt lat="44.8842949" lon="7.3077896"><ele>396.0</ele><time>2026-04-05T12:52:36.971Z</time></trkpt><trkpt lat="44.8843021" lon="7.3079189"><ele>396.0</ele><time>2026-04-05T12:52:37.971Z</time></trkpt><trkpt lat="44.8843072" lon="7.3080467"><ele>395.6</ele><time>2026-04-05T12:52:38.971Z</time></trkpt><trkpt lat="44.8843154" lon="7.3081784"><ele>395.20000000000005</ele><time>2026-04-05T12:52:39.971Z</time></trkpt><trkpt lat="44.8843259" lon="7.3083113"><ele>394.79999999999995</ele><time>2026-04-05T12:52:40.971Z</time></trkpt><trkpt lat="44.8843316" lon="7.3084491"><ele>394.4</ele><time>2026-04-05T12:52:41.971Z</time></trkpt><trkpt lat="44.8843385" lon="7.3085892"><ele>394.0</ele><time>2026-04-05T12:52:42.971Z</time></trkpt><trkpt lat="44.8843418" lon="7.3087309"><ele>394.0</ele><time>2026-04-05T12:52:43.971Z</time></trkpt><trkpt lat="44.8843528" lon="7.308877"><ele>394.0</ele><time>2026-04-05T12:52:44.971Z</time></trkpt><trkpt lat="44.8843731" lon="7.3090241"><ele>394.0</ele><time>2026-04-05T12:52:45.971Z</time></trkpt><trkpt lat="44.8843972" lon="7.3091739"><ele>394.0</ele><time>2026-04-05T12:52:46.971Z</time></trkpt><trkpt lat="44.8844271" lon="7.3093231"><ele>394.0</ele><time>2026-04-05T12:52:47.971Z</time></trkpt><trkpt lat="44.884466" lon="7.3094725"><ele>393.75</ele><time>2026-04-05T12:52:48.971Z</time></trkpt><trkpt lat="44.8845076" lon="7.3096153"><ele>393.5</ele><time>2026-04-05T12:52:49.971Z</time></trkpt><trkpt lat="44.8845594" lon="7.3097639"><ele>393.25</ele><time>2026-04-05T12:52:50.971Z</time></trkpt><trkpt lat="44.8846148" lon="7.3099144"><ele>393.0</ele><time>2026-04-05T12:52:51.971Z</time></trkpt><trkpt lat="44.8846773" lon="7.3100617"><ele>393.0</ele><time>2026-04-05T12:52:52.971Z</time></trkpt><trkpt lat="44.8847386" lon="7.3102095"><ele>393.0</ele><time>2026-04-05T12:52:53.971Z</time></trkpt><trkpt lat="44.884802" lon="7.3103676"><ele>393.0</ele><time>2026-04-05T12:52:54.971Z</time></trkpt><trkpt lat="44.8848691" lon="7.3105286"><ele>393.0</ele><time>2026-04-05T12:52:55.971Z</time></trkpt><trkpt lat="44.8849356" lon="7.3106886"><ele>393.0</ele><time>2026-04-05T12:52:56.971Z</time></trkpt><trkpt lat="44.8850071" lon="7.3108452"><ele>393.0</ele><time>2026-04-05T12:52:57.971Z</time></trkpt><trkpt lat="44.8850789" lon="7.3109943"><ele>393.0</ele><time>2026-04-05T12:52:58.971Z</time></trkpt><trkpt lat="44.8851474" lon="7.3111319"><ele>393.0</ele><time>2026-04-05T12:52:59.971Z</time></trkpt><trkpt lat="44.8852177" lon="7.3112611"><ele>393.0</ele><time>2026-04-05T12:53:00.971Z</time></trkpt><trkpt lat="44.885291" lon="7.3113831"><ele>393.0</ele><time>2026-04-05T12:53:01.971Z</time></trkpt><trkpt lat="44.8853562" lon="7.3114984"><ele>393.0</ele><time>2026-04-05T12:53:02.971Z</time></trkpt><trkpt lat="44.8854204" lon="7.3115961"><ele>393.0</ele><time>2026-04-05T12:53:03.971Z</time></trkpt><trkpt lat="44.8854887" lon="7.3117"><ele>393.0</ele><time>2026-04-05T12:53:04.971Z</time></trkpt><trkpt lat="44.8855561" lon="7.3118014"><ele>392.79999999999995</ele><time>2026-04-05T12:53:05.971Z</time></trkpt><trkpt lat="44.88562" lon="7.311908"><ele>392.6</ele><time>2026-04-05T12:53:06.971Z</time></trkpt><trkpt lat="44.8856738" lon="7.3120178"><ele>392.4</ele><time>2026-04-05T12:53:07.971Z</time></trkpt><trkpt lat="44.885715" lon="7.3121468"><ele>392.20000000000005</ele><time>2026-04-05T12:53:08.972Z</time></trkpt><trkpt lat="44.8857347" lon="7.3122835"><ele>392.0</ele><time>2026-04-05T12:53:09.971Z</time></trkpt><trkpt lat="44.8857349" lon="7.3124221"><ele>391.5</ele><time>2026-04-05T12:53:10.971Z</time></trkpt><trkpt lat="44.8857245" lon="7.3125727"><ele>391.0</ele><time>2026-04-05T12:53:11.971Z</time></trkpt><trkpt lat="44.8857197" lon="7.3127294"><ele>390.5</ele><time>2026-04-05T12:53:12.971Z</time></trkpt><trkpt lat="44.8857124" lon="7.3128896"><ele>390.0</ele><time>2026-04-05T12:53:13.971Z</time></trkpt><trkpt lat="44.8857084" lon="7.3130575"><ele>390.0</ele><time>2026-04-05T12:53:14.971Z</time></trkpt><trkpt lat="44.8857023" lon="7.3132068"><ele>390.0</ele><time>2026-04-05T12:53:15.971Z</time></trkpt><trkpt lat="44.8856952" lon="7.313362"><ele>390.0</ele><time>2026-04-05T12:53:16.971Z</time></trkpt><trkpt lat="44.8856912" lon="7.3135112"><ele>390.0</ele><time>2026-04-05T12:53:17.971Z</time></trkpt><trkpt lat="44.8856846" lon="7.3136497"><ele>390.0</ele><time>2026-04-05T12:53:18.971Z</time></trkpt><trkpt lat="44.8856762" lon="7.3137857"><ele>390.0</ele><time>2026-04-05T12:53:19.971Z</time></trkpt><trkpt lat="44.8856708" lon="7.3139044"><ele>390.0</ele><time>2026-04-05T12:53:20.971Z</time></trkpt><trkpt lat="44.8856655" lon="7.3140103"><ele>390.0</ele><time>2026-04-05T12:53:21.971Z</time></trkpt><trkpt lat="44.885662" lon="7.3141685"><ele>390.0</ele><time>2026-04-05T12:53:23.971Z</time></trkpt><trkpt lat="44.885662" lon="7.3142601"><ele>390.0</ele><time>2026-04-05T12:53:25.971Z</time></trkpt><trkpt lat="44.8856665" lon="7.3143592"><ele>390.0</ele><time>2026-04-05T12:53:28.971Z</time></trkpt><trkpt lat="44.8856738" lon="7.3144599"><ele>389.8</ele><time>2026-04-05T12:53:37.971Z</time></trkpt><trkpt lat="44.8856779" lon="7.3145633"><ele>389.6</ele><time>2026-04-05T12:53:38.971Z</time></trkpt><trkpt lat="44.8856729" lon="7.3146719"><ele>389.4</ele><time>2026-04-05T12:53:39.971Z</time></trkpt><trkpt lat="44.8856676" lon="7.314806"><ele>389.2</ele><time>2026-04-05T12:53:40.971Z</time></trkpt><trkpt lat="44.885667" lon="7.3149652"><ele>389.0</ele><time>2026-04-05T12:53:41.971Z</time></trkpt><trkpt lat="44.8856643" lon="7.3151186"><ele>388.75</ele><time>2026-04-05T12:53:42.971Z</time></trkpt><trkpt lat="44.885662" lon="7.3152787"><ele>388.5</ele><time>2026-04-05T12:53:43.971Z</time></trkpt><trkpt lat="44.885657" lon="7.3154455"><ele>388.25</ele><time>2026-04-05T12:53:44.971Z</time></trkpt><trkpt lat="44.885653" lon="7.3156168"><ele>388.0</ele><time>2026-04-05T12:53:45.971Z</time></trkpt><trkpt lat="44.8856519" lon="7.3157906"><ele>388.0</ele><time>2026-04-05T12:53:46.971Z</time></trkpt><trkpt lat="44.8856469" lon="7.3159704"><ele>388.0</ele><time>2026-04-05T12:53:47.971Z</time></trkpt><trkpt lat="44.8856465" lon="7.31615"><ele>388.0</ele><time>2026-04-05T12:53:48.971Z</time></trkpt><trkpt lat="44.8856467" lon="7.3163328"><ele>388.0</ele><time>2026-04-05T12:53:49.971Z</time></trkpt><trkpt lat="44.8856448" lon="7.3165183"><ele>388.0</ele><time>2026-04-05T12:53:50.971Z</time></trkpt><trkpt lat="44.885639" lon="7.3167136"><ele>388.0</ele><time>2026-04-05T12:53:51.971Z</time></trkpt><trkpt lat="44.8856341" lon="7.3168974"><ele>388.0</ele><time>2026-04-05T12:53:52.971Z</time></trkpt><trkpt lat="44.8856291" lon="7.3170804"><ele>388.0</ele><time>2026-04-05T12:53:53.971Z</time></trkpt><trkpt lat="44.8856226" lon="7.3172539"><ele>387.4</ele><time>2026-04-05T12:53:54.971Z</time></trkpt><trkpt lat="44.8856167" lon="7.3174274"><ele>386.79999999999995</ele><time>2026-04-05T12:53:55.971Z</time></trkpt><trkpt lat="44.8856115" lon="7.3175909"><ele>386.2</ele><time>2026-04-05T12:53:56.971Z</time></trkpt><trkpt lat="44.885608" lon="7.317742"><ele>385.6</ele><time>2026-04-05T12:53:57.971Z</time></trkpt><trkpt lat="44.8856051" lon="7.3178802"><ele>385.0</ele><time>2026-04-05T12:53:58.971Z</time></trkpt><trkpt lat="44.885602" lon="7.3179989"><ele>385.00000000000006</ele><time>2026-04-05T12:53:59.971Z</time></trkpt><trkpt lat="44.8855986" lon="7.3181045"><ele>385.0</ele><time>2026-04-05T12:54:00.971Z</time></trkpt><trkpt lat="44.8855923" lon="7.3182542"><ele>385.0</ele><time>2026-04-05T12:54:02.971Z</time></trkpt><trkpt lat="44.8855916" lon="7.3183515"><ele>385.0</ele><time>2026-04-05T12:54:19.971Z</time></trkpt><trkpt lat="44.8855827" lon="7.3184452"><ele>385.00000000000006</ele><time>2026-04-05T12:54:21.971Z</time></trkpt><trkpt lat="44.8855824" lon="7.3185423"><ele>385.0</ele><time>2026-04-05T12:54:22.971Z</time></trkpt><trkpt lat="44.8855807" lon="7.3186438"><ele>385.0</ele><time>2026-04-05T12:54:23.971Z</time></trkpt><trkpt lat="44.8855749" lon="7.3187359"><ele>385.0</ele><time>2026-04-05T12:54:24.971Z</time></trkpt><trkpt lat="44.8855717" lon="7.3188446"><ele>385.0</ele><time>2026-04-05T12:54:25.971Z</time></trkpt><trkpt lat="44.8855674" lon="7.3189674"><ele>385.0</ele><time>2026-04-05T12:54:26.971Z</time></trkpt><trkpt lat="44.8855656" lon="7.3190759"><ele>385.0</ele><time>2026-04-05T12:54:27.971Z</time></trkpt><trkpt lat="44.8855636" lon="7.3191688"><ele>385.0</ele><time>2026-04-05T12:54:28.971Z</time></trkpt><trkpt lat="44.8855602" lon="7.3192587"><ele>385.0</ele><time>2026-04-05T12:54:29.971Z</time></trkpt><trkpt lat="44.8855588" lon="7.3193494"><ele>385.50000000000006</ele><time>2026-04-05T12:54:30.971Z</time></trkpt><trkpt lat="44.8855574" lon="7.3195059"><ele>386.0</ele><time>2026-04-05T12:54:32.971Z</time></trkpt><trkpt lat="44.8855577" lon="7.3196218"><ele>386.5</ele><time>2026-04-05T12:54:34.971Z</time></trkpt><trkpt lat="44.8855594" lon="7.3197193"><ele>387.0</ele><time>2026-04-05T12:54:39.971Z</time></trkpt><trkpt lat="44.8855512" lon="7.3198417"><ele>387.50000000000006</ele><time>2026-04-05T12:55:18.971Z</time></trkpt><trkpt lat="44.8855494" lon="7.3199462"><ele>388.0</ele><time>2026-04-05T12:55:19.971Z</time></trkpt><trkpt lat="44.8855505" lon="7.3200669"><ele>388.25</ele><time>2026-04-05T12:55:20.971Z</time></trkpt><trkpt lat="44.8855454" lon="7.3202213"><ele>388.5</ele><time>2026-04-05T12:55:21.971Z</time></trkpt><trkpt lat="44.8855354" lon="7.3204067"><ele>388.75</ele><time>2026-04-05T12:55:22.971Z</time></trkpt><trkpt lat="44.8855239" lon="7.3206125"><ele>389.0</ele><time>2026-04-05T12:55:23.971Z</time></trkpt><trkpt lat="44.8855141" lon="7.3208536"><ele>388.0</ele><time>2026-04-05T12:55:24.971Z</time></trkpt><trkpt lat="44.8855073" lon="7.3211163"><ele>387.0</ele><time>2026-04-05T12:55:25.971Z</time></trkpt><trkpt lat="44.8854978" lon="7.3213871"><ele>386.0</ele><time>2026-04-05T12:55:26.971Z</time></trkpt><trkpt lat="44.8854927" lon="7.3217104"><ele>386.0</ele><time>2026-04-05T12:55:27.971Z</time></trkpt><trkpt lat="44.8854833" lon="7.3220245"><ele>386.0</ele><time>2026-04-05T12:55:28.971Z</time></trkpt><trkpt lat="44.8854744" lon="7.3223569"><ele>386.0</ele><time>2026-04-05T12:55:29.971Z</time></trkpt><trkpt lat="44.8854641" lon="7.3226994"><ele>386.0</ele><time>2026-04-05T12:55:30.971Z</time></trkpt><trkpt lat="44.8854543" lon="7.3230513"><ele>386.0</ele><time>2026-04-05T12:55:31.971Z</time></trkpt><trkpt lat="44.8854412" lon="7.3233866"><ele>386.0</ele><time>2026-04-05T12:55:32.971Z</time></trkpt><trkpt lat="44.8854266" lon="7.3237011"><ele>386.66666666666663</ele><time>2026-04-05T12:55:33.971Z</time></trkpt><trkpt lat="44.8854141" lon="7.3239999"><ele>387.33333333333337</ele><time>2026-04-05T12:55:34.971Z</time></trkpt><trkpt lat="44.8853901" lon="7.3242803"><ele>388.0</ele><time>2026-04-05T12:55:35.971Z</time></trkpt><trkpt lat="44.885362" lon="7.3245427"><ele>387.6666666666667</ele><time>2026-04-05T12:55:36.971Z</time></trkpt><trkpt lat="44.8853277" lon="7.3247894"><ele>387.33333333333337</ele><time>2026-04-05T12:55:37.971Z</time></trkpt><trkpt lat="44.8852952" lon="7.3250192"><ele>387.0</ele><time>2026-04-05T12:55:38.971Z</time></trkpt><trkpt lat="44.8852648" lon="7.3252192"><ele>387.0</ele><time>2026-04-05T12:55:39.971Z</time></trkpt><trkpt lat="44.8852385" lon="7.3253862"><ele>387.0</ele><time>2026-04-05T12:55:40.971Z</time></trkpt><trkpt lat="44.885215" lon="7.325535"><ele>387.0</ele><time>2026-04-05T12:55:41.971Z</time></trkpt><trkpt lat="44.8851936" lon="7.3256631"><ele>387.0</ele><time>2026-04-05T12:55:42.971Z</time></trkpt><trkpt lat="44.8851762" lon="7.3257645"><ele>387.0</ele><time>2026-04-05T12:55:43.971Z</time></trkpt><trkpt lat="44.8851646" lon="7.3258826"><ele>387.0</ele><time>2026-04-05T12:55:45.971Z</time></trkpt><trkpt lat="44.8851496" lon="7.3259726"><ele>387.0</ele><time>2026-04-05T12:55:48.971Z</time></trkpt><trkpt lat="44.8851439" lon="7.3260878"><ele>387.0</ele><time>2026-04-05T12:56:16.971Z</time></trkpt><trkpt lat="44.885085" lon="7.326151"><ele>387.0</ele><time>2026-04-05T12:56:18.971Z</time></trkpt><trkpt lat="44.8849828" lon="7.3261282"><ele>387.0</ele><time>2026-04-05T12:56:20.971Z</time></trkpt><trkpt lat="44.8849136" lon="7.3261089"><ele>387.0</ele><time>2026-04-05T12:56:21.971Z</time></trkpt><trkpt lat="44.8848285" lon="7.3260911"><ele>386.1666666666667</ele><time>2026-04-05T12:56:22.971Z</time></trkpt><trkpt lat="44.8847374" lon="7.3260693"><ele>385.3333333333333</ele><time>2026-04-05T12:56:23.971Z</time></trkpt><trkpt lat="44.8846513" lon="7.326045"><ele>384.5</ele><time>2026-04-05T12:56:24.971Z</time></trkpt><trkpt lat="44.8845695" lon="7.326013"><ele>383.66666666666663</ele><time>2026-04-05T12:56:25.971Z</time></trkpt><trkpt lat="44.8844922" lon="7.3259891"><ele>382.8333333333333</ele><time>2026-04-05T12:56:26.971Z</time></trkpt><trkpt lat="44.8844206" lon="7.3260099"><ele>382.0</ele><time>2026-04-05T12:56:27.971Z</time></trkpt><trkpt lat="44.8843629" lon="7.3260724"><ele>382.0</ele><time>2026-04-05T12:56:28.971Z</time></trkpt><trkpt lat="44.8843172" lon="7.3261604"><ele>382.0</ele><time>2026-04-05T12:56:29.971Z</time></trkpt><trkpt lat="44.8842883" lon="7.326277"><ele>382.0</ele><time>2026-04-05T12:56:30.971Z</time></trkpt><trkpt lat="44.8842626" lon="7.3264297"><ele>382.0</ele><time>2026-04-05T12:56:31.971Z</time></trkpt><trkpt lat="44.8842321" lon="7.3266025"><ele>382.0</ele><time>2026-04-05T12:56:32.971Z</time></trkpt><trkpt lat="44.8842084" lon="7.3267915"><ele>381.25</ele><time>2026-04-05T12:56:33.971Z</time></trkpt><trkpt lat="44.8841844" lon="7.3269637"><ele>380.5</ele><time>2026-04-05T12:56:34.971Z</time></trkpt><trkpt lat="44.8841604" lon="7.3271291"><ele>379.75</ele><time>2026-04-05T12:56:35.971Z</time></trkpt><trkpt lat="44.8841385" lon="7.3272857"><ele>379.0</ele><time>2026-04-05T12:56:36.971Z</time></trkpt><trkpt lat="44.8841197" lon="7.3274382"><ele>378.6</ele><time>2026-04-05T12:56:37.971Z</time></trkpt><trkpt lat="44.8840968" lon="7.3275959"><ele>378.2</ele><time>2026-04-05T12:56:38.971Z</time></trkpt><trkpt lat="44.8840758" lon="7.3277431"><ele>377.8</ele><time>2026-04-05T12:56:39.971Z</time></trkpt><trkpt lat="44.8840617" lon="7.3278798"><ele>377.40000000000003</ele><time>2026-04-05T12:56:40.971Z</time></trkpt><trkpt lat="44.8840455" lon="7.3280028"><ele>377.0</ele><time>2026-04-05T12:56:41.971Z</time></trkpt><trkpt lat="44.8840345" lon="7.3281101"><ele>376.6666666666667</ele><time>2026-04-05T12:56:42.971Z</time></trkpt><trkpt lat="44.8840248" lon="7.3282011"><ele>376.33333333333337</ele><time>2026-04-05T12:56:43.971Z</time></trkpt><trkpt lat="44.8840063" lon="7.3283396"><ele>376.0</ele><time>2026-04-05T12:56:45.971Z</time></trkpt><trkpt lat="44.8839115" lon="7.3283955"><ele>375.6666666666667</ele><time>2026-04-05T12:56:47.971Z</time></trkpt><trkpt lat="44.8838435" lon="7.3283851"><ele>375.3333333333333</ele><time>2026-04-05T12:56:48.971Z</time></trkpt><trkpt lat="44.8837712" lon="7.3283584"><ele>375.0</ele><time>2026-04-05T12:56:49.971Z</time></trkpt><trkpt lat="44.8836845" lon="7.3283318"><ele>375.0</ele><time>2026-04-05T12:56:50.971Z</time></trkpt><trkpt lat="44.8836063" lon="7.3283108"><ele>375.0</ele><time>2026-04-05T12:56:51.971Z</time></trkpt><trkpt lat="44.8835298" lon="7.3282879"><ele>375.0</ele><time>2026-04-05T12:56:52.971Z</time></trkpt><trkpt lat="44.8834531" lon="7.3282744"><ele>375.0</ele><time>2026-04-05T12:56:53.971Z</time></trkpt><trkpt lat="44.8833757" lon="7.3282595"><ele>375.0</ele><time>2026-04-05T12:56:54.971Z</time></trkpt><trkpt lat="44.8833005" lon="7.3282411"><ele>375.0</ele><time>2026-04-05T12:56:55.971Z</time></trkpt><trkpt lat="44.8832318" lon="7.328231"><ele>375.0</ele><time>2026-04-05T12:56:56.971Z</time></trkpt><trkpt lat="44.883113" lon="7.3282058"><ele>375.0</ele><time>2026-04-05T12:56:58.971Z</time></trkpt><trkpt lat="44.8829955" lon="7.328184"><ele>375.0</ele><time>2026-04-05T12:57:00.971Z</time></trkpt><trkpt lat="44.8829322" lon="7.328171"><ele>375.0</ele><time>2026-04-05T12:57:01.971Z</time></trkpt><trkpt lat="44.8828693" lon="7.3281511"><ele>375.0</ele><time>2026-04-05T12:57:02.971Z</time></trkpt><trkpt lat="44.8828061" lon="7.3281344"><ele>375.0</ele><time>2026-04-05T12:57:03.971Z</time></trkpt><trkpt lat="44.8827016" lon="7.3281042"><ele>375.0</ele><time>2026-04-05T12:57:05.971Z</time></trkpt><trkpt lat="44.8826319" lon="7.3280825"><ele>375.0</ele><time>2026-04-05T12:57:07.971Z</time></trkpt><trkpt lat="44.8825656" lon="7.3281015"><ele>377.0</ele><time>2026-04-05T12:57:11.971Z</time></trkpt></trkseg></trk></gpx>